<?xml version="1.0" encoding="UTF-8" standalone="no" ?>
<gpx xmlns="http://www.topografix.com/GPX/1/1" xmlns:xsi="http://www.w3.org/2001/XMLSchema-instance" xsi:schemaLocation="http://www.topografix.com/GPX/1/1 http://www.topografix.com/GPX/1/1/gpx.xsd" version="1.1" creator="VisuGPX - https://www.visugpx.com">
  <metadata>
    <name>Le kerou</name>
  </metadata>
  <trk>
    <name><![CDATA[Le kerou_1]]></name>
    <extensions>
      <line xmlns="http://www.topografix.com/GPX/gpx_style/0/2">
        <color>0000FF</color>
        <width>4</width>
      </line>
    </extensions>
    <trkseg>
      <trkpt lat="47.77217" lon="-3.54393">
        <ele>37.9</ele>
        <time>2021-07-11T08:46:02Z</time>
      </trkpt>
      <trkpt lat="47.77217" lon="-3.54393">
        <ele>37.9</ele>
        <time>2021-07-11T08:46:02Z</time>
      </trkpt>
      <trkpt lat="47.77217" lon="-3.54393">
        <ele>37.9</ele>
        <time>2021-07-11T08:46:03Z</time>
      </trkpt>
      <trkpt lat="47.77217" lon="-3.54393">
        <ele>37.9</ele>
        <time>2021-07-11T08:46:04Z</time>
      </trkpt>
      <trkpt lat="47.77217" lon="-3.54393">
        <ele>37.9</ele>
        <time>2021-07-11T08:46:05Z</time>
      </trkpt>
      <trkpt lat="47.77217" lon="-3.54393">
        <ele>37.9</ele>
        <time>2021-07-11T08:46:06Z</time>
      </trkpt>
      <trkpt lat="47.77217" lon="-3.54393">
        <ele>37.9</ele>
        <time>2021-07-11T08:46:07Z</time>
      </trkpt>
      <trkpt lat="47.77217" lon="-3.54394">
        <ele>37.9</ele>
        <time>2021-07-11T08:46:08Z</time>
      </trkpt>
      <trkpt lat="47.77218" lon="-3.54394">
        <ele>37.9</ele>
        <time>2021-07-11T08:46:09Z</time>
      </trkpt>
      <trkpt lat="47.77218" lon="-3.54396">
        <ele>37.8</ele>
        <time>2021-07-11T08:46:10Z</time>
      </trkpt>
      <trkpt lat="47.77218" lon="-3.54398">
        <ele>37.8</ele>
        <time>2021-07-11T08:46:11Z</time>
      </trkpt>
      <trkpt lat="47.77218" lon="-3.54399">
        <ele>37.7</ele>
        <time>2021-07-11T08:46:12Z</time>
      </trkpt>
      <trkpt lat="47.77218" lon="-3.544">
        <ele>37.7</ele>
        <time>2021-07-11T08:46:13Z</time>
      </trkpt>
      <trkpt lat="47.77218" lon="-3.544">
        <ele>37.7</ele>
        <time>2021-07-11T08:46:14Z</time>
      </trkpt>
      <trkpt lat="47.77218" lon="-3.544">
        <ele>37.7</ele>
        <time>2021-07-11T08:46:15Z</time>
      </trkpt>
      <trkpt lat="47.77218" lon="-3.544">
        <ele>37.7</ele>
        <time>2021-07-11T08:46:16Z</time>
      </trkpt>
      <trkpt lat="47.77218" lon="-3.544">
        <ele>37.7</ele>
        <time>2021-07-11T08:46:17Z</time>
      </trkpt>
      <trkpt lat="47.77218" lon="-3.54401">
        <ele>37.6</ele>
        <time>2021-07-11T08:46:18Z</time>
      </trkpt>
      <trkpt lat="47.77217" lon="-3.54402">
        <ele>37.6</ele>
        <time>2021-07-11T08:46:19Z</time>
      </trkpt>
      <trkpt lat="47.77217" lon="-3.54402">
        <ele>37.6</ele>
        <time>2021-07-11T08:46:20Z</time>
      </trkpt>
      <trkpt lat="47.77217" lon="-3.54405">
        <ele>37.5</ele>
        <time>2021-07-11T08:46:21Z</time>
      </trkpt>
      <trkpt lat="47.77215" lon="-3.54411">
        <ele>37.2</ele>
        <time>2021-07-11T08:46:22Z</time>
      </trkpt>
      <trkpt lat="47.77215" lon="-3.54414">
        <ele>37.1</ele>
        <time>2021-07-11T08:46:23Z</time>
      </trkpt>
      <trkpt lat="47.77214" lon="-3.54415">
        <ele>37</ele>
        <time>2021-07-11T08:46:24Z</time>
      </trkpt>
      <trkpt lat="47.77214" lon="-3.54416">
        <ele>37</ele>
        <time>2021-07-11T08:46:25Z</time>
      </trkpt>
      <trkpt lat="47.77214" lon="-3.54416">
        <ele>37</ele>
        <time>2021-07-11T08:46:26Z</time>
      </trkpt>
      <trkpt lat="47.77214" lon="-3.54417">
        <ele>37</ele>
        <time>2021-07-11T08:46:27Z</time>
      </trkpt>
      <trkpt lat="47.77214" lon="-3.54417">
        <ele>36.9</ele>
        <time>2021-07-11T08:46:28Z</time>
      </trkpt>
      <trkpt lat="47.77214" lon="-3.54418">
        <ele>36.9</ele>
        <time>2021-07-11T08:46:29Z</time>
      </trkpt>
      <trkpt lat="47.77214" lon="-3.54419">
        <ele>36.9</ele>
        <time>2021-07-11T08:46:30Z</time>
      </trkpt>
      <trkpt lat="47.77214" lon="-3.54421">
        <ele>36.8</ele>
        <time>2021-07-11T08:46:31Z</time>
      </trkpt>
      <trkpt lat="47.77214" lon="-3.54423">
        <ele>36.7</ele>
        <time>2021-07-11T08:46:32Z</time>
      </trkpt>
      <trkpt lat="47.77213" lon="-3.54427">
        <ele>36.5</ele>
        <time>2021-07-11T08:46:33Z</time>
      </trkpt>
      <trkpt lat="47.77213" lon="-3.54432">
        <ele>36.3</ele>
        <time>2021-07-11T08:46:34Z</time>
      </trkpt>
      <trkpt lat="47.77213" lon="-3.54434">
        <ele>36.2</ele>
        <time>2021-07-11T08:46:35Z</time>
      </trkpt>
      <trkpt lat="47.77213" lon="-3.54435">
        <ele>36.2</ele>
        <time>2021-07-11T08:46:36Z</time>
      </trkpt>
      <trkpt lat="47.77213" lon="-3.54437">
        <ele>36.1</ele>
        <time>2021-07-11T08:46:37Z</time>
      </trkpt>
      <trkpt lat="47.77212" lon="-3.54438">
        <ele>36</ele>
        <time>2021-07-11T08:46:38Z</time>
      </trkpt>
      <trkpt lat="47.77212" lon="-3.5444">
        <ele>35.9</ele>
        <time>2021-07-11T08:46:39Z</time>
      </trkpt>
      <trkpt lat="47.77212" lon="-3.54442">
        <ele>35.9</ele>
        <time>2021-07-11T08:46:40Z</time>
      </trkpt>
      <trkpt lat="47.77212" lon="-3.54443">
        <ele>35.8</ele>
        <time>2021-07-11T08:46:41Z</time>
      </trkpt>
      <trkpt lat="47.77212" lon="-3.54445">
        <ele>35.7</ele>
        <time>2021-07-11T08:46:42Z</time>
      </trkpt>
      <trkpt lat="47.77212" lon="-3.54446">
        <ele>35.7</ele>
        <time>2021-07-11T08:46:43Z</time>
      </trkpt>
      <trkpt lat="47.77212" lon="-3.54448">
        <ele>35.6</ele>
        <time>2021-07-11T08:46:44Z</time>
      </trkpt>
      <trkpt lat="47.77212" lon="-3.5445">
        <ele>35.5</ele>
        <time>2021-07-11T08:46:45Z</time>
      </trkpt>
      <trkpt lat="47.77211" lon="-3.54451">
        <ele>35.4</ele>
        <time>2021-07-11T08:46:46Z</time>
      </trkpt>
      <trkpt lat="47.77211" lon="-3.54453">
        <ele>35.4</ele>
        <time>2021-07-11T08:46:47Z</time>
      </trkpt>
      <trkpt lat="47.77211" lon="-3.54454">
        <ele>35.3</ele>
        <time>2021-07-11T08:46:48Z</time>
      </trkpt>
      <trkpt lat="47.77211" lon="-3.54456">
        <ele>35.2</ele>
        <time>2021-07-11T08:46:49Z</time>
      </trkpt>
      <trkpt lat="47.77211" lon="-3.54457">
        <ele>35.1</ele>
        <time>2021-07-11T08:46:50Z</time>
      </trkpt>
      <trkpt lat="47.77211" lon="-3.54459">
        <ele>35.1</ele>
        <time>2021-07-11T08:46:51Z</time>
      </trkpt>
      <trkpt lat="47.77211" lon="-3.54461">
        <ele>35</ele>
        <time>2021-07-11T08:46:52Z</time>
      </trkpt>
      <trkpt lat="47.7721" lon="-3.54462">
        <ele>34.9</ele>
        <time>2021-07-11T08:46:53Z</time>
      </trkpt>
      <trkpt lat="47.7721" lon="-3.54464">
        <ele>34.8</ele>
        <time>2021-07-11T08:46:54Z</time>
      </trkpt>
      <trkpt lat="47.7721" lon="-3.54465">
        <ele>34.8</ele>
        <time>2021-07-11T08:46:55Z</time>
      </trkpt>
      <trkpt lat="47.7721" lon="-3.54467">
        <ele>34.7</ele>
        <time>2021-07-11T08:46:56Z</time>
      </trkpt>
      <trkpt lat="47.7721" lon="-3.54469">
        <ele>34.6</ele>
        <time>2021-07-11T08:46:57Z</time>
      </trkpt>
      <trkpt lat="47.7721" lon="-3.5447">
        <ele>34.5</ele>
        <time>2021-07-11T08:46:58Z</time>
      </trkpt>
      <trkpt lat="47.7721" lon="-3.54472">
        <ele>34.3</ele>
        <time>2021-07-11T08:46:59Z</time>
      </trkpt>
      <trkpt lat="47.7721" lon="-3.54473">
        <ele>34.3</ele>
        <time>2021-07-11T08:47:00Z</time>
      </trkpt>
      <trkpt lat="47.77209" lon="-3.54475">
        <ele>34.3</ele>
        <time>2021-07-11T08:47:01Z</time>
      </trkpt>
      <trkpt lat="47.77209" lon="-3.54477">
        <ele>34.4</ele>
        <time>2021-07-11T08:47:02Z</time>
      </trkpt>
      <trkpt lat="47.77209" lon="-3.54478">
        <ele>34.4</ele>
        <time>2021-07-11T08:47:03Z</time>
      </trkpt>
      <trkpt lat="47.77209" lon="-3.5448">
        <ele>34.4</ele>
        <time>2021-07-11T08:47:04Z</time>
      </trkpt>
      <trkpt lat="47.77209" lon="-3.54481">
        <ele>34.5</ele>
        <time>2021-07-11T08:47:05Z</time>
      </trkpt>
      <trkpt lat="47.77209" lon="-3.54483">
        <ele>34.5</ele>
        <time>2021-07-11T08:47:06Z</time>
      </trkpt>
      <trkpt lat="47.7721" lon="-3.54484">
        <ele>34.6</ele>
        <time>2021-07-11T08:47:07Z</time>
      </trkpt>
      <trkpt lat="47.77212" lon="-3.54485">
        <ele>34.7</ele>
        <time>2021-07-11T08:47:08Z</time>
      </trkpt>
      <trkpt lat="47.77213" lon="-3.54485">
        <ele>34.7</ele>
        <time>2021-07-11T08:47:09Z</time>
      </trkpt>
      <trkpt lat="47.77214" lon="-3.54486">
        <ele>34.8</ele>
        <time>2021-07-11T08:47:10Z</time>
      </trkpt>
      <trkpt lat="47.77215" lon="-3.54486">
        <ele>34.8</ele>
        <time>2021-07-11T08:47:11Z</time>
      </trkpt>
      <trkpt lat="47.77216" lon="-3.54487">
        <ele>34.9</ele>
        <time>2021-07-11T08:47:12Z</time>
      </trkpt>
      <trkpt lat="47.77217" lon="-3.54487">
        <ele>34.9</ele>
        <time>2021-07-11T08:47:13Z</time>
      </trkpt>
      <trkpt lat="47.77218" lon="-3.54488">
        <ele>34.9</ele>
        <time>2021-07-11T08:47:14Z</time>
      </trkpt>
      <trkpt lat="47.77219" lon="-3.54488">
        <ele>35</ele>
        <time>2021-07-11T08:47:15Z</time>
      </trkpt>
      <trkpt lat="47.7722" lon="-3.54489">
        <ele>35</ele>
        <time>2021-07-11T08:47:16Z</time>
      </trkpt>
      <trkpt lat="47.7722" lon="-3.54489">
        <ele>35.1</ele>
        <time>2021-07-11T08:47:17Z</time>
      </trkpt>
      <trkpt lat="47.77221" lon="-3.5449">
        <ele>35.2</ele>
        <time>2021-07-11T08:47:18Z</time>
      </trkpt>
      <trkpt lat="47.77222" lon="-3.5449">
        <ele>35.2</ele>
        <time>2021-07-11T08:47:19Z</time>
      </trkpt>
      <trkpt lat="47.77223" lon="-3.54491">
        <ele>35.3</ele>
        <time>2021-07-11T08:47:20Z</time>
      </trkpt>
      <trkpt lat="47.77224" lon="-3.54491">
        <ele>35.3</ele>
        <time>2021-07-11T08:47:21Z</time>
      </trkpt>
      <trkpt lat="47.77225" lon="-3.54491">
        <ele>35.4</ele>
        <time>2021-07-11T08:47:22Z</time>
      </trkpt>
      <trkpt lat="47.77226" lon="-3.54492">
        <ele>35.4</ele>
        <time>2021-07-11T08:47:23Z</time>
      </trkpt>
      <trkpt lat="47.77227" lon="-3.54492">
        <ele>35.5</ele>
        <time>2021-07-11T08:47:24Z</time>
      </trkpt>
      <trkpt lat="47.77228" lon="-3.54493">
        <ele>35.5</ele>
        <time>2021-07-11T08:47:25Z</time>
      </trkpt>
      <trkpt lat="47.77229" lon="-3.54493">
        <ele>35.6</ele>
        <time>2021-07-11T08:47:26Z</time>
      </trkpt>
      <trkpt lat="47.7723" lon="-3.54494">
        <ele>35.6</ele>
        <time>2021-07-11T08:47:27Z</time>
      </trkpt>
      <trkpt lat="47.77231" lon="-3.54494">
        <ele>35.7</ele>
        <time>2021-07-11T08:47:28Z</time>
      </trkpt>
      <trkpt lat="47.77231" lon="-3.54495">
        <ele>35.8</ele>
        <time>2021-07-11T08:47:29Z</time>
      </trkpt>
      <trkpt lat="47.77232" lon="-3.54495">
        <ele>35.8</ele>
        <time>2021-07-11T08:47:30Z</time>
      </trkpt>
      <trkpt lat="47.77233" lon="-3.54496">
        <ele>35.9</ele>
        <time>2021-07-11T08:47:31Z</time>
      </trkpt>
      <trkpt lat="47.77234" lon="-3.54496">
        <ele>35.9</ele>
        <time>2021-07-11T08:47:32Z</time>
      </trkpt>
      <trkpt lat="47.77235" lon="-3.54497">
        <ele>36</ele>
        <time>2021-07-11T08:47:33Z</time>
      </trkpt>
      <trkpt lat="47.77236" lon="-3.54497">
        <ele>36</ele>
        <time>2021-07-11T08:47:34Z</time>
      </trkpt>
      <trkpt lat="47.77237" lon="-3.54497">
        <ele>36.1</ele>
        <time>2021-07-11T08:47:35Z</time>
      </trkpt>
      <trkpt lat="47.77238" lon="-3.54498">
        <ele>36.1</ele>
        <time>2021-07-11T08:47:36Z</time>
      </trkpt>
      <trkpt lat="47.77239" lon="-3.54498">
        <ele>36.1</ele>
        <time>2021-07-11T08:47:37Z</time>
      </trkpt>
      <trkpt lat="47.7724" lon="-3.54499">
        <ele>36.2</ele>
        <time>2021-07-11T08:47:38Z</time>
      </trkpt>
      <trkpt lat="47.77241" lon="-3.54499">
        <ele>36.2</ele>
        <time>2021-07-11T08:47:39Z</time>
      </trkpt>
      <trkpt lat="47.77242" lon="-3.545">
        <ele>36.3</ele>
        <time>2021-07-11T08:47:40Z</time>
      </trkpt>
      <trkpt lat="47.77242" lon="-3.545">
        <ele>36.3</ele>
        <time>2021-07-11T08:47:41Z</time>
      </trkpt>
      <trkpt lat="47.77244" lon="-3.54502">
        <ele>36.4</ele>
        <time>2021-07-11T08:47:42Z</time>
      </trkpt>
      <trkpt lat="47.77245" lon="-3.54503">
        <ele>36.5</ele>
        <time>2021-07-11T08:47:43Z</time>
      </trkpt>
      <trkpt lat="47.77246" lon="-3.54505">
        <ele>36.5</ele>
        <time>2021-07-11T08:47:44Z</time>
      </trkpt>
      <trkpt lat="47.77247" lon="-3.54506">
        <ele>36.6</ele>
        <time>2021-07-11T08:47:45Z</time>
      </trkpt>
      <trkpt lat="47.77248" lon="-3.54508">
        <ele>36.6</ele>
        <time>2021-07-11T08:47:46Z</time>
      </trkpt>
      <trkpt lat="47.77249" lon="-3.54509">
        <ele>36.6</ele>
        <time>2021-07-11T08:47:47Z</time>
      </trkpt>
      <trkpt lat="47.77251" lon="-3.54512">
        <ele>36.7</ele>
        <time>2021-07-11T08:47:48Z</time>
      </trkpt>
      <trkpt lat="47.77251" lon="-3.54513">
        <ele>36.7</ele>
        <time>2021-07-11T08:47:49Z</time>
      </trkpt>
      <trkpt lat="47.77252" lon="-3.54514">
        <ele>36.7</ele>
        <time>2021-07-11T08:47:50Z</time>
      </trkpt>
      <trkpt lat="47.77252" lon="-3.54515">
        <ele>36.8</ele>
        <time>2021-07-11T08:47:51Z</time>
      </trkpt>
      <trkpt lat="47.77253" lon="-3.54516">
        <ele>36.8</ele>
        <time>2021-07-11T08:47:52Z</time>
      </trkpt>
      <trkpt lat="47.77253" lon="-3.54518">
        <ele>36.8</ele>
        <time>2021-07-11T08:47:53Z</time>
      </trkpt>
      <trkpt lat="47.77254" lon="-3.54519">
        <ele>36.8</ele>
        <time>2021-07-11T08:47:54Z</time>
      </trkpt>
      <trkpt lat="47.77254" lon="-3.54521">
        <ele>36.8</ele>
        <time>2021-07-11T08:47:55Z</time>
      </trkpt>
      <trkpt lat="47.77254" lon="-3.54522">
        <ele>36.8</ele>
        <time>2021-07-11T08:47:56Z</time>
      </trkpt>
      <trkpt lat="47.77255" lon="-3.54524">
        <ele>36.8</ele>
        <time>2021-07-11T08:47:57Z</time>
      </trkpt>
      <trkpt lat="47.77255" lon="-3.54526">
        <ele>36.8</ele>
        <time>2021-07-11T08:47:58Z</time>
      </trkpt>
      <trkpt lat="47.77255" lon="-3.54527">
        <ele>36.8</ele>
        <time>2021-07-11T08:47:59Z</time>
      </trkpt>
      <trkpt lat="47.77255" lon="-3.54528">
        <ele>36.8</ele>
        <time>2021-07-11T08:48:00Z</time>
      </trkpt>
      <trkpt lat="47.77256" lon="-3.54528">
        <ele>36.8</ele>
        <time>2021-07-11T08:48:01Z</time>
      </trkpt>
      <trkpt lat="47.77256" lon="-3.54528">
        <ele>36.8</ele>
        <time>2021-07-11T08:48:02Z</time>
      </trkpt>
      <trkpt lat="47.77256" lon="-3.5453">
        <ele>36.8</ele>
        <time>2021-07-11T08:48:03Z</time>
      </trkpt>
      <trkpt lat="47.77257" lon="-3.54533">
        <ele>36.8</ele>
        <time>2021-07-11T08:48:04Z</time>
      </trkpt>
      <trkpt lat="47.77258" lon="-3.54537">
        <ele>36.8</ele>
        <time>2021-07-11T08:48:05Z</time>
      </trkpt>
      <trkpt lat="47.77258" lon="-3.54539">
        <ele>36.8</ele>
        <time>2021-07-11T08:48:06Z</time>
      </trkpt>
      <trkpt lat="47.77259" lon="-3.54541">
        <ele>36.8</ele>
        <time>2021-07-11T08:48:07Z</time>
      </trkpt>
      <trkpt lat="47.77259" lon="-3.54543">
        <ele>36.8</ele>
        <time>2021-07-11T08:48:08Z</time>
      </trkpt>
      <trkpt lat="47.7726" lon="-3.54544">
        <ele>36.8</ele>
        <time>2021-07-11T08:48:09Z</time>
      </trkpt>
      <trkpt lat="47.77261" lon="-3.54545">
        <ele>36.8</ele>
        <time>2021-07-11T08:48:10Z</time>
      </trkpt>
      <trkpt lat="47.77261" lon="-3.54546">
        <ele>36.8</ele>
        <time>2021-07-11T08:48:11Z</time>
      </trkpt>
      <trkpt lat="47.77261" lon="-3.54548">
        <ele>36.8</ele>
        <time>2021-07-11T08:48:12Z</time>
      </trkpt>
      <trkpt lat="47.77262" lon="-3.5455">
        <ele>36.7</ele>
        <time>2021-07-11T08:48:13Z</time>
      </trkpt>
      <trkpt lat="47.77263" lon="-3.54552">
        <ele>36.7</ele>
        <time>2021-07-11T08:48:14Z</time>
      </trkpt>
      <trkpt lat="47.77263" lon="-3.54554">
        <ele>36.7</ele>
        <time>2021-07-11T08:48:15Z</time>
      </trkpt>
      <trkpt lat="47.77264" lon="-3.54556">
        <ele>36.7</ele>
        <time>2021-07-11T08:48:16Z</time>
      </trkpt>
      <trkpt lat="47.77265" lon="-3.54558">
        <ele>36.6</ele>
        <time>2021-07-11T08:48:17Z</time>
      </trkpt>
      <trkpt lat="47.77266" lon="-3.5456">
        <ele>36.6</ele>
        <time>2021-07-11T08:48:18Z</time>
      </trkpt>
      <trkpt lat="47.77266" lon="-3.54561">
        <ele>36.6</ele>
        <time>2021-07-11T08:48:19Z</time>
      </trkpt>
      <trkpt lat="47.77267" lon="-3.54563">
        <ele>36.6</ele>
        <time>2021-07-11T08:48:20Z</time>
      </trkpt>
      <trkpt lat="47.77267" lon="-3.54564">
        <ele>36.6</ele>
        <time>2021-07-11T08:48:21Z</time>
      </trkpt>
      <trkpt lat="47.77267" lon="-3.54564">
        <ele>36.6</ele>
        <time>2021-07-11T08:48:22Z</time>
      </trkpt>
      <trkpt lat="47.77267" lon="-3.54564">
        <ele>36.6</ele>
        <time>2021-07-11T08:48:23Z</time>
      </trkpt>
      <trkpt lat="47.77267" lon="-3.54564">
        <ele>36.6</ele>
        <time>2021-07-11T08:48:24Z</time>
      </trkpt>
      <trkpt lat="47.77267" lon="-3.54564">
        <ele>36.6</ele>
        <time>2021-07-11T08:48:25Z</time>
      </trkpt>
      <trkpt lat="47.77267" lon="-3.54565">
        <ele>36.5</ele>
        <time>2021-07-11T08:48:26Z</time>
      </trkpt>
      <trkpt lat="47.77268" lon="-3.54567">
        <ele>36.5</ele>
        <time>2021-07-11T08:48:27Z</time>
      </trkpt>
      <trkpt lat="47.7727" lon="-3.54574">
        <ele>36.5</ele>
        <time>2021-07-11T08:48:28Z</time>
      </trkpt>
      <trkpt lat="47.77271" lon="-3.54577">
        <ele>36.5</ele>
        <time>2021-07-11T08:48:29Z</time>
      </trkpt>
      <trkpt lat="47.77272" lon="-3.54579">
        <ele>36.4</ele>
        <time>2021-07-11T08:48:30Z</time>
      </trkpt>
      <trkpt lat="47.77274" lon="-3.54582">
        <ele>36.4</ele>
        <time>2021-07-11T08:48:31Z</time>
      </trkpt>
      <trkpt lat="47.77274" lon="-3.54583">
        <ele>36.4</ele>
        <time>2021-07-11T08:48:32Z</time>
      </trkpt>
      <trkpt lat="47.77275" lon="-3.54585">
        <ele>36.4</ele>
        <time>2021-07-11T08:48:33Z</time>
      </trkpt>
      <trkpt lat="47.77275" lon="-3.54586">
        <ele>36.4</ele>
        <time>2021-07-11T08:48:34Z</time>
      </trkpt>
      <trkpt lat="47.77276" lon="-3.54587">
        <ele>36.4</ele>
        <time>2021-07-11T08:48:35Z</time>
      </trkpt>
      <trkpt lat="47.77276" lon="-3.54589">
        <ele>36.4</ele>
        <time>2021-07-11T08:48:36Z</time>
      </trkpt>
      <trkpt lat="47.77276" lon="-3.5459">
        <ele>36.4</ele>
        <time>2021-07-11T08:48:37Z</time>
      </trkpt>
      <trkpt lat="47.77277" lon="-3.54592">
        <ele>36.4</ele>
        <time>2021-07-11T08:48:38Z</time>
      </trkpt>
      <trkpt lat="47.77277" lon="-3.54593">
        <ele>36.3</ele>
        <time>2021-07-11T08:48:39Z</time>
      </trkpt>
      <trkpt lat="47.77278" lon="-3.54594">
        <ele>36.3</ele>
        <time>2021-07-11T08:48:40Z</time>
      </trkpt>
      <trkpt lat="47.77278" lon="-3.54596">
        <ele>36.3</ele>
        <time>2021-07-11T08:48:41Z</time>
      </trkpt>
      <trkpt lat="47.77279" lon="-3.54597">
        <ele>36.3</ele>
        <time>2021-07-11T08:48:42Z</time>
      </trkpt>
      <trkpt lat="47.77279" lon="-3.54599">
        <ele>36.3</ele>
        <time>2021-07-11T08:48:43Z</time>
      </trkpt>
      <trkpt lat="47.7728" lon="-3.546">
        <ele>36.3</ele>
        <time>2021-07-11T08:48:44Z</time>
      </trkpt>
      <trkpt lat="47.7728" lon="-3.54601">
        <ele>36.3</ele>
        <time>2021-07-11T08:48:45Z</time>
      </trkpt>
      <trkpt lat="47.77281" lon="-3.54603">
        <ele>36.2</ele>
        <time>2021-07-11T08:48:46Z</time>
      </trkpt>
      <trkpt lat="47.77281" lon="-3.54604">
        <ele>36.2</ele>
        <time>2021-07-11T08:48:47Z</time>
      </trkpt>
      <trkpt lat="47.77282" lon="-3.54605">
        <ele>36.2</ele>
        <time>2021-07-11T08:48:48Z</time>
      </trkpt>
      <trkpt lat="47.77283" lon="-3.5461">
        <ele>36.2</ele>
        <time>2021-07-11T08:48:49Z</time>
      </trkpt>
      <trkpt lat="47.77283" lon="-3.54611">
        <ele>36.2</ele>
        <time>2021-07-11T08:48:50Z</time>
      </trkpt>
      <trkpt lat="47.77284" lon="-3.54613">
        <ele>36.1</ele>
        <time>2021-07-11T08:48:51Z</time>
      </trkpt>
      <trkpt lat="47.77284" lon="-3.54614">
        <ele>36.1</ele>
        <time>2021-07-11T08:48:52Z</time>
      </trkpt>
      <trkpt lat="47.77285" lon="-3.54616">
        <ele>36.1</ele>
        <time>2021-07-11T08:48:53Z</time>
      </trkpt>
      <trkpt lat="47.77285" lon="-3.54617">
        <ele>36.1</ele>
        <time>2021-07-11T08:48:54Z</time>
      </trkpt>
      <trkpt lat="47.77286" lon="-3.54619">
        <ele>36.1</ele>
        <time>2021-07-11T08:48:55Z</time>
      </trkpt>
      <trkpt lat="47.77286" lon="-3.54621">
        <ele>36.1</ele>
        <time>2021-07-11T08:48:56Z</time>
      </trkpt>
      <trkpt lat="47.77286" lon="-3.54622">
        <ele>36</ele>
        <time>2021-07-11T08:48:57Z</time>
      </trkpt>
      <trkpt lat="47.77287" lon="-3.54624">
        <ele>36</ele>
        <time>2021-07-11T08:48:58Z</time>
      </trkpt>
      <trkpt lat="47.77287" lon="-3.54625">
        <ele>36</ele>
        <time>2021-07-11T08:48:59Z</time>
      </trkpt>
      <trkpt lat="47.77288" lon="-3.54627">
        <ele>36</ele>
        <time>2021-07-11T08:49:00Z</time>
      </trkpt>
      <trkpt lat="47.77288" lon="-3.54628">
        <ele>36</ele>
        <time>2021-07-11T08:49:01Z</time>
      </trkpt>
      <trkpt lat="47.77289" lon="-3.5463">
        <ele>35.9</ele>
        <time>2021-07-11T08:49:02Z</time>
      </trkpt>
      <trkpt lat="47.77289" lon="-3.54632">
        <ele>35.9</ele>
        <time>2021-07-11T08:49:03Z</time>
      </trkpt>
      <trkpt lat="47.77289" lon="-3.54633">
        <ele>35.8</ele>
        <time>2021-07-11T08:49:04Z</time>
      </trkpt>
      <trkpt lat="47.7729" lon="-3.54636">
        <ele>35.7</ele>
        <time>2021-07-11T08:49:05Z</time>
      </trkpt>
      <trkpt lat="47.7729" lon="-3.54638">
        <ele>35.7</ele>
        <time>2021-07-11T08:49:06Z</time>
      </trkpt>
      <trkpt lat="47.7729" lon="-3.5464">
        <ele>35.6</ele>
        <time>2021-07-11T08:49:07Z</time>
      </trkpt>
      <trkpt lat="47.7729" lon="-3.54642">
        <ele>35.5</ele>
        <time>2021-07-11T08:49:08Z</time>
      </trkpt>
      <trkpt lat="47.7729" lon="-3.54643">
        <ele>35.5</ele>
        <time>2021-07-11T08:49:09Z</time>
      </trkpt>
      <trkpt lat="47.7729" lon="-3.54645">
        <ele>35.4</ele>
        <time>2021-07-11T08:49:10Z</time>
      </trkpt>
      <trkpt lat="47.7729" lon="-3.54647">
        <ele>35.3</ele>
        <time>2021-07-11T08:49:11Z</time>
      </trkpt>
      <trkpt lat="47.7729" lon="-3.54649">
        <ele>35.2</ele>
        <time>2021-07-11T08:49:12Z</time>
      </trkpt>
      <trkpt lat="47.7729" lon="-3.54651">
        <ele>35.2</ele>
        <time>2021-07-11T08:49:13Z</time>
      </trkpt>
      <trkpt lat="47.7729" lon="-3.54653">
        <ele>35.1</ele>
        <time>2021-07-11T08:49:14Z</time>
      </trkpt>
      <trkpt lat="47.7729" lon="-3.54655">
        <ele>35</ele>
        <time>2021-07-11T08:49:15Z</time>
      </trkpt>
      <trkpt lat="47.7729" lon="-3.54657">
        <ele>34.9</ele>
        <time>2021-07-11T08:49:16Z</time>
      </trkpt>
      <trkpt lat="47.77289" lon="-3.54661">
        <ele>34.8</ele>
        <time>2021-07-11T08:49:17Z</time>
      </trkpt>
      <trkpt lat="47.77289" lon="-3.54662">
        <ele>34.7</ele>
        <time>2021-07-11T08:49:18Z</time>
      </trkpt>
      <trkpt lat="47.77288" lon="-3.54664">
        <ele>34.7</ele>
        <time>2021-07-11T08:49:19Z</time>
      </trkpt>
      <trkpt lat="47.77288" lon="-3.54665">
        <ele>34.6</ele>
        <time>2021-07-11T08:49:20Z</time>
      </trkpt>
      <trkpt lat="47.77288" lon="-3.54667">
        <ele>34.5</ele>
        <time>2021-07-11T08:49:21Z</time>
      </trkpt>
      <trkpt lat="47.77287" lon="-3.54668">
        <ele>34.5</ele>
        <time>2021-07-11T08:49:22Z</time>
      </trkpt>
      <trkpt lat="47.77287" lon="-3.5467">
        <ele>34.4</ele>
        <time>2021-07-11T08:49:23Z</time>
      </trkpt>
      <trkpt lat="47.77287" lon="-3.54671">
        <ele>34.4</ele>
        <time>2021-07-11T08:49:24Z</time>
      </trkpt>
      <trkpt lat="47.77287" lon="-3.54673">
        <ele>34.3</ele>
        <time>2021-07-11T08:49:25Z</time>
      </trkpt>
      <trkpt lat="47.77288" lon="-3.54675">
        <ele>34.3</ele>
        <time>2021-07-11T08:49:26Z</time>
      </trkpt>
      <trkpt lat="47.77288" lon="-3.54677">
        <ele>34.2</ele>
        <time>2021-07-11T08:49:27Z</time>
      </trkpt>
      <trkpt lat="47.77288" lon="-3.54678">
        <ele>34.2</ele>
        <time>2021-07-11T08:49:28Z</time>
      </trkpt>
      <trkpt lat="47.77289" lon="-3.5468">
        <ele>34.2</ele>
        <time>2021-07-11T08:49:29Z</time>
      </trkpt>
      <trkpt lat="47.77289" lon="-3.54682">
        <ele>34.1</ele>
        <time>2021-07-11T08:49:30Z</time>
      </trkpt>
      <trkpt lat="47.77289" lon="-3.54683">
        <ele>34.1</ele>
        <time>2021-07-11T08:49:31Z</time>
      </trkpt>
      <trkpt lat="47.7729" lon="-3.54685">
        <ele>34</ele>
        <time>2021-07-11T08:49:32Z</time>
      </trkpt>
      <trkpt lat="47.7729" lon="-3.54687">
        <ele>34</ele>
        <time>2021-07-11T08:49:33Z</time>
      </trkpt>
      <trkpt lat="47.7729" lon="-3.54688">
        <ele>34</ele>
        <time>2021-07-11T08:49:34Z</time>
      </trkpt>
      <trkpt lat="47.77291" lon="-3.5469">
        <ele>33.9</ele>
        <time>2021-07-11T08:49:35Z</time>
      </trkpt>
      <trkpt lat="47.77291" lon="-3.54692">
        <ele>33.9</ele>
        <time>2021-07-11T08:49:36Z</time>
      </trkpt>
      <trkpt lat="47.77291" lon="-3.54693">
        <ele>33.9</ele>
        <time>2021-07-11T08:49:37Z</time>
      </trkpt>
      <trkpt lat="47.77291" lon="-3.54695">
        <ele>33.9</ele>
        <time>2021-07-11T08:49:38Z</time>
      </trkpt>
      <trkpt lat="47.77292" lon="-3.54697">
        <ele>33.8</ele>
        <time>2021-07-11T08:49:39Z</time>
      </trkpt>
      <trkpt lat="47.77292" lon="-3.54698">
        <ele>33.8</ele>
        <time>2021-07-11T08:49:40Z</time>
      </trkpt>
      <trkpt lat="47.77292" lon="-3.547">
        <ele>33.8</ele>
        <time>2021-07-11T08:49:41Z</time>
      </trkpt>
      <trkpt lat="47.77293" lon="-3.54702">
        <ele>33.8</ele>
        <time>2021-07-11T08:49:42Z</time>
      </trkpt>
      <trkpt lat="47.77293" lon="-3.54703">
        <ele>33.7</ele>
        <time>2021-07-11T08:49:43Z</time>
      </trkpt>
      <trkpt lat="47.77293" lon="-3.54705">
        <ele>33.7</ele>
        <time>2021-07-11T08:49:44Z</time>
      </trkpt>
      <trkpt lat="47.77294" lon="-3.54707">
        <ele>33.7</ele>
        <time>2021-07-11T08:49:45Z</time>
      </trkpt>
      <trkpt lat="47.77294" lon="-3.54709">
        <ele>33.7</ele>
        <time>2021-07-11T08:49:46Z</time>
      </trkpt>
      <trkpt lat="47.77294" lon="-3.5471">
        <ele>33.6</ele>
        <time>2021-07-11T08:49:47Z</time>
      </trkpt>
      <trkpt lat="47.77295" lon="-3.54712">
        <ele>33.6</ele>
        <time>2021-07-11T08:49:48Z</time>
      </trkpt>
      <trkpt lat="47.77295" lon="-3.54714">
        <ele>33.6</ele>
        <time>2021-07-11T08:49:49Z</time>
      </trkpt>
      <trkpt lat="47.77295" lon="-3.54715">
        <ele>33.6</ele>
        <time>2021-07-11T08:49:50Z</time>
      </trkpt>
      <trkpt lat="47.77296" lon="-3.54717">
        <ele>33.5</ele>
        <time>2021-07-11T08:49:51Z</time>
      </trkpt>
      <trkpt lat="47.77296" lon="-3.54719">
        <ele>33.5</ele>
        <time>2021-07-11T08:49:52Z</time>
      </trkpt>
      <trkpt lat="47.77296" lon="-3.5472">
        <ele>33.5</ele>
        <time>2021-07-11T08:49:53Z</time>
      </trkpt>
      <trkpt lat="47.77296" lon="-3.54722">
        <ele>33.4</ele>
        <time>2021-07-11T08:49:54Z</time>
      </trkpt>
      <trkpt lat="47.77297" lon="-3.54724">
        <ele>33.4</ele>
        <time>2021-07-11T08:49:55Z</time>
      </trkpt>
      <trkpt lat="47.77297" lon="-3.54725">
        <ele>33.4</ele>
        <time>2021-07-11T08:49:56Z</time>
      </trkpt>
      <trkpt lat="47.77297" lon="-3.54727">
        <ele>33.4</ele>
        <time>2021-07-11T08:49:57Z</time>
      </trkpt>
      <trkpt lat="47.77298" lon="-3.54729">
        <ele>33.3</ele>
        <time>2021-07-11T08:49:58Z</time>
      </trkpt>
      <trkpt lat="47.77298" lon="-3.5473">
        <ele>33.3</ele>
        <time>2021-07-11T08:49:59Z</time>
      </trkpt>
      <trkpt lat="47.77299" lon="-3.54733">
        <ele>33.3</ele>
        <time>2021-07-11T08:50:00Z</time>
      </trkpt>
      <trkpt lat="47.773" lon="-3.54735">
        <ele>33.2</ele>
        <time>2021-07-11T08:50:01Z</time>
      </trkpt>
      <trkpt lat="47.77301" lon="-3.54736">
        <ele>33.2</ele>
        <time>2021-07-11T08:50:02Z</time>
      </trkpt>
      <trkpt lat="47.77301" lon="-3.54738">
        <ele>33.2</ele>
        <time>2021-07-11T08:50:03Z</time>
      </trkpt>
      <trkpt lat="47.77302" lon="-3.54739">
        <ele>33.2</ele>
        <time>2021-07-11T08:50:04Z</time>
      </trkpt>
      <trkpt lat="47.77303" lon="-3.54741">
        <ele>33.1</ele>
        <time>2021-07-11T08:50:05Z</time>
      </trkpt>
      <trkpt lat="47.77303" lon="-3.54742">
        <ele>33.1</ele>
        <time>2021-07-11T08:50:06Z</time>
      </trkpt>
      <trkpt lat="47.77304" lon="-3.54744">
        <ele>33.1</ele>
        <time>2021-07-11T08:50:07Z</time>
      </trkpt>
      <trkpt lat="47.77305" lon="-3.54745">
        <ele>33</ele>
        <time>2021-07-11T08:50:08Z</time>
      </trkpt>
      <trkpt lat="47.77305" lon="-3.54747">
        <ele>33</ele>
        <time>2021-07-11T08:50:09Z</time>
      </trkpt>
      <trkpt lat="47.77306" lon="-3.54749">
        <ele>32.9</ele>
        <time>2021-07-11T08:50:10Z</time>
      </trkpt>
      <trkpt lat="47.77308" lon="-3.54752">
        <ele>32.9</ele>
        <time>2021-07-11T08:50:11Z</time>
      </trkpt>
      <trkpt lat="47.77308" lon="-3.54753">
        <ele>32.8</ele>
        <time>2021-07-11T08:50:12Z</time>
      </trkpt>
      <trkpt lat="47.77309" lon="-3.54754">
        <ele>32.8</ele>
        <time>2021-07-11T08:50:13Z</time>
      </trkpt>
      <trkpt lat="47.7731" lon="-3.54755">
        <ele>32.8</ele>
        <time>2021-07-11T08:50:14Z</time>
      </trkpt>
      <trkpt lat="47.7731" lon="-3.54757">
        <ele>32.7</ele>
        <time>2021-07-11T08:50:15Z</time>
      </trkpt>
      <trkpt lat="47.77311" lon="-3.54758">
        <ele>32.7</ele>
        <time>2021-07-11T08:50:16Z</time>
      </trkpt>
      <trkpt lat="47.77311" lon="-3.54759">
        <ele>32.6</ele>
        <time>2021-07-11T08:50:17Z</time>
      </trkpt>
      <trkpt lat="47.77312" lon="-3.5476">
        <ele>32.6</ele>
        <time>2021-07-11T08:50:18Z</time>
      </trkpt>
      <trkpt lat="47.77313" lon="-3.54762">
        <ele>32.6</ele>
        <time>2021-07-11T08:50:19Z</time>
      </trkpt>
      <trkpt lat="47.77313" lon="-3.54763">
        <ele>32.5</ele>
        <time>2021-07-11T08:50:20Z</time>
      </trkpt>
      <trkpt lat="47.77314" lon="-3.54764">
        <ele>32.5</ele>
        <time>2021-07-11T08:50:21Z</time>
      </trkpt>
      <trkpt lat="47.77314" lon="-3.54765">
        <ele>32.4</ele>
        <time>2021-07-11T08:50:22Z</time>
      </trkpt>
      <trkpt lat="47.77315" lon="-3.54767">
        <ele>32.4</ele>
        <time>2021-07-11T08:50:23Z</time>
      </trkpt>
      <trkpt lat="47.77315" lon="-3.54768">
        <ele>32.4</ele>
        <time>2021-07-11T08:50:24Z</time>
      </trkpt>
      <trkpt lat="47.77316" lon="-3.54769">
        <ele>32.3</ele>
        <time>2021-07-11T08:50:25Z</time>
      </trkpt>
      <trkpt lat="47.77317" lon="-3.5477">
        <ele>32.2</ele>
        <time>2021-07-11T08:50:26Z</time>
      </trkpt>
      <trkpt lat="47.77317" lon="-3.54772">
        <ele>32.2</ele>
        <time>2021-07-11T08:50:27Z</time>
      </trkpt>
      <trkpt lat="47.77318" lon="-3.54773">
        <ele>32.1</ele>
        <time>2021-07-11T08:50:28Z</time>
      </trkpt>
      <trkpt lat="47.77318" lon="-3.54774">
        <ele>32.1</ele>
        <time>2021-07-11T08:50:29Z</time>
      </trkpt>
      <trkpt lat="47.77319" lon="-3.54775">
        <ele>32</ele>
        <time>2021-07-11T08:50:30Z</time>
      </trkpt>
      <trkpt lat="47.7732" lon="-3.54777">
        <ele>32</ele>
        <time>2021-07-11T08:50:31Z</time>
      </trkpt>
      <trkpt lat="47.7732" lon="-3.54778">
        <ele>31.9</ele>
        <time>2021-07-11T08:50:32Z</time>
      </trkpt>
      <trkpt lat="47.77321" lon="-3.54779">
        <ele>31.9</ele>
        <time>2021-07-11T08:50:33Z</time>
      </trkpt>
      <trkpt lat="47.77321" lon="-3.5478">
        <ele>31.8</ele>
        <time>2021-07-11T08:50:34Z</time>
      </trkpt>
      <trkpt lat="47.77323" lon="-3.54785">
        <ele>31.6</ele>
        <time>2021-07-11T08:50:35Z</time>
      </trkpt>
      <trkpt lat="47.77324" lon="-3.54786">
        <ele>31.6</ele>
        <time>2021-07-11T08:50:36Z</time>
      </trkpt>
      <trkpt lat="47.77325" lon="-3.54788">
        <ele>31.5</ele>
        <time>2021-07-11T08:50:37Z</time>
      </trkpt>
      <trkpt lat="47.77325" lon="-3.54789">
        <ele>31.5</ele>
        <time>2021-07-11T08:50:38Z</time>
      </trkpt>
      <trkpt lat="47.77326" lon="-3.54791">
        <ele>31.4</ele>
        <time>2021-07-11T08:50:39Z</time>
      </trkpt>
      <trkpt lat="47.77327" lon="-3.54792">
        <ele>31.3</ele>
        <time>2021-07-11T08:50:40Z</time>
      </trkpt>
      <trkpt lat="47.77327" lon="-3.54794">
        <ele>31.3</ele>
        <time>2021-07-11T08:50:41Z</time>
      </trkpt>
      <trkpt lat="47.77328" lon="-3.54795">
        <ele>31.2</ele>
        <time>2021-07-11T08:50:42Z</time>
      </trkpt>
      <trkpt lat="47.77329" lon="-3.54797">
        <ele>31.2</ele>
        <time>2021-07-11T08:50:43Z</time>
      </trkpt>
      <trkpt lat="47.77329" lon="-3.54799">
        <ele>31.1</ele>
        <time>2021-07-11T08:50:44Z</time>
      </trkpt>
      <trkpt lat="47.7733" lon="-3.548">
        <ele>31.1</ele>
        <time>2021-07-11T08:50:45Z</time>
      </trkpt>
      <trkpt lat="47.77331" lon="-3.54802">
        <ele>31</ele>
        <time>2021-07-11T08:50:46Z</time>
      </trkpt>
      <trkpt lat="47.77332" lon="-3.54803">
        <ele>30.9</ele>
        <time>2021-07-11T08:50:47Z</time>
      </trkpt>
      <trkpt lat="47.77332" lon="-3.54805">
        <ele>30.9</ele>
        <time>2021-07-11T08:50:48Z</time>
      </trkpt>
      <trkpt lat="47.77333" lon="-3.54806">
        <ele>30.8</ele>
        <time>2021-07-11T08:50:49Z</time>
      </trkpt>
      <trkpt lat="47.77334" lon="-3.54809">
        <ele>30.7</ele>
        <time>2021-07-11T08:50:50Z</time>
      </trkpt>
      <trkpt lat="47.77334" lon="-3.5481">
        <ele>30.7</ele>
        <time>2021-07-11T08:50:51Z</time>
      </trkpt>
      <trkpt lat="47.77334" lon="-3.5481">
        <ele>30.7</ele>
        <time>2021-07-11T08:50:52Z</time>
      </trkpt>
      <trkpt lat="47.77335" lon="-3.54811">
        <ele>30.6</ele>
        <time>2021-07-11T08:50:53Z</time>
      </trkpt>
      <trkpt lat="47.77335" lon="-3.54812">
        <ele>30.6</ele>
        <time>2021-07-11T08:50:54Z</time>
      </trkpt>
      <trkpt lat="47.77335" lon="-3.54814">
        <ele>30.5</ele>
        <time>2021-07-11T08:50:55Z</time>
      </trkpt>
      <trkpt lat="47.77335" lon="-3.54815">
        <ele>30.5</ele>
        <time>2021-07-11T08:50:56Z</time>
      </trkpt>
      <trkpt lat="47.77335" lon="-3.54816">
        <ele>30.4</ele>
        <time>2021-07-11T08:50:57Z</time>
      </trkpt>
      <trkpt lat="47.77334" lon="-3.54818">
        <ele>30.4</ele>
        <time>2021-07-11T08:50:58Z</time>
      </trkpt>
      <trkpt lat="47.77334" lon="-3.54819">
        <ele>30.3</ele>
        <time>2021-07-11T08:50:59Z</time>
      </trkpt>
      <trkpt lat="47.77334" lon="-3.54821">
        <ele>30.3</ele>
        <time>2021-07-11T08:51:00Z</time>
      </trkpt>
      <trkpt lat="47.77334" lon="-3.54822">
        <ele>30.2</ele>
        <time>2021-07-11T08:51:01Z</time>
      </trkpt>
      <trkpt lat="47.77334" lon="-3.54823">
        <ele>30.2</ele>
        <time>2021-07-11T08:51:02Z</time>
      </trkpt>
      <trkpt lat="47.77334" lon="-3.54825">
        <ele>30.1</ele>
        <time>2021-07-11T08:51:03Z</time>
      </trkpt>
      <trkpt lat="47.77333" lon="-3.54826">
        <ele>30</ele>
        <time>2021-07-11T08:51:04Z</time>
      </trkpt>
      <trkpt lat="47.77333" lon="-3.54827">
        <ele>30</ele>
        <time>2021-07-11T08:51:05Z</time>
      </trkpt>
      <trkpt lat="47.77333" lon="-3.54829">
        <ele>29.9</ele>
        <time>2021-07-11T08:51:06Z</time>
      </trkpt>
      <trkpt lat="47.77333" lon="-3.5483">
        <ele>29.9</ele>
        <time>2021-07-11T08:51:07Z</time>
      </trkpt>
      <trkpt lat="47.77333" lon="-3.54832">
        <ele>29.8</ele>
        <time>2021-07-11T08:51:08Z</time>
      </trkpt>
      <trkpt lat="47.77333" lon="-3.54833">
        <ele>29.8</ele>
        <time>2021-07-11T08:51:09Z</time>
      </trkpt>
      <trkpt lat="47.77333" lon="-3.54834">
        <ele>29.7</ele>
        <time>2021-07-11T08:51:10Z</time>
      </trkpt>
      <trkpt lat="47.77332" lon="-3.54836">
        <ele>29.6</ele>
        <time>2021-07-11T08:51:11Z</time>
      </trkpt>
      <trkpt lat="47.77332" lon="-3.54837">
        <ele>29.6</ele>
        <time>2021-07-11T08:51:12Z</time>
      </trkpt>
      <trkpt lat="47.77332" lon="-3.54838">
        <ele>29.5</ele>
        <time>2021-07-11T08:51:13Z</time>
      </trkpt>
      <trkpt lat="47.77332" lon="-3.5484">
        <ele>29.4</ele>
        <time>2021-07-11T08:51:14Z</time>
      </trkpt>
      <trkpt lat="47.77331" lon="-3.54844">
        <ele>29.2</ele>
        <time>2021-07-11T08:51:15Z</time>
      </trkpt>
      <trkpt lat="47.77331" lon="-3.54846">
        <ele>29.2</ele>
        <time>2021-07-11T08:51:16Z</time>
      </trkpt>
      <trkpt lat="47.77331" lon="-3.54847">
        <ele>29.1</ele>
        <time>2021-07-11T08:51:17Z</time>
      </trkpt>
      <trkpt lat="47.77331" lon="-3.54849">
        <ele>29</ele>
        <time>2021-07-11T08:51:18Z</time>
      </trkpt>
      <trkpt lat="47.7733" lon="-3.5485">
        <ele>28.9</ele>
        <time>2021-07-11T08:51:19Z</time>
      </trkpt>
      <trkpt lat="47.7733" lon="-3.54851">
        <ele>28.9</ele>
        <time>2021-07-11T08:51:20Z</time>
      </trkpt>
      <trkpt lat="47.7733" lon="-3.54853">
        <ele>28.8</ele>
        <time>2021-07-11T08:51:21Z</time>
      </trkpt>
      <trkpt lat="47.7733" lon="-3.54854">
        <ele>28.7</ele>
        <time>2021-07-11T08:51:22Z</time>
      </trkpt>
      <trkpt lat="47.7733" lon="-3.54855">
        <ele>28.6</ele>
        <time>2021-07-11T08:51:23Z</time>
      </trkpt>
      <trkpt lat="47.77329" lon="-3.54857">
        <ele>28.6</ele>
        <time>2021-07-11T08:51:24Z</time>
      </trkpt>
      <trkpt lat="47.77329" lon="-3.54858">
        <ele>28.5</ele>
        <time>2021-07-11T08:51:25Z</time>
      </trkpt>
      <trkpt lat="47.77329" lon="-3.5486">
        <ele>28.4</ele>
        <time>2021-07-11T08:51:26Z</time>
      </trkpt>
      <trkpt lat="47.77329" lon="-3.54861">
        <ele>28.3</ele>
        <time>2021-07-11T08:51:27Z</time>
      </trkpt>
      <trkpt lat="47.77329" lon="-3.54862">
        <ele>28.3</ele>
        <time>2021-07-11T08:51:28Z</time>
      </trkpt>
      <trkpt lat="47.77328" lon="-3.54864">
        <ele>28.2</ele>
        <time>2021-07-11T08:51:29Z</time>
      </trkpt>
      <trkpt lat="47.77328" lon="-3.54865">
        <ele>28.1</ele>
        <time>2021-07-11T08:51:30Z</time>
      </trkpt>
      <trkpt lat="47.77328" lon="-3.54867">
        <ele>28</ele>
        <time>2021-07-11T08:51:31Z</time>
      </trkpt>
      <trkpt lat="47.77328" lon="-3.54868">
        <ele>27.9</ele>
        <time>2021-07-11T08:51:32Z</time>
      </trkpt>
      <trkpt lat="47.77327" lon="-3.54869">
        <ele>27.9</ele>
        <time>2021-07-11T08:51:33Z</time>
      </trkpt>
      <trkpt lat="47.77327" lon="-3.54871">
        <ele>27.8</ele>
        <time>2021-07-11T08:51:34Z</time>
      </trkpt>
      <trkpt lat="47.77327" lon="-3.54872">
        <ele>27.7</ele>
        <time>2021-07-11T08:51:35Z</time>
      </trkpt>
      <trkpt lat="47.77327" lon="-3.54873">
        <ele>27.6</ele>
        <time>2021-07-11T08:51:36Z</time>
      </trkpt>
      <trkpt lat="47.77327" lon="-3.54875">
        <ele>27.5</ele>
        <time>2021-07-11T08:51:37Z</time>
      </trkpt>
      <trkpt lat="47.77326" lon="-3.54876">
        <ele>27.5</ele>
        <time>2021-07-11T08:51:38Z</time>
      </trkpt>
      <trkpt lat="47.77326" lon="-3.54878">
        <ele>27.4</ele>
        <time>2021-07-11T08:51:39Z</time>
      </trkpt>
      <trkpt lat="47.77326" lon="-3.54879">
        <ele>27.3</ele>
        <time>2021-07-11T08:51:40Z</time>
      </trkpt>
      <trkpt lat="47.77326" lon="-3.5488">
        <ele>27.2</ele>
        <time>2021-07-11T08:51:41Z</time>
      </trkpt>
      <trkpt lat="47.77325" lon="-3.54882">
        <ele>27.1</ele>
        <time>2021-07-11T08:51:42Z</time>
      </trkpt>
      <trkpt lat="47.77325" lon="-3.54883">
        <ele>27.1</ele>
        <time>2021-07-11T08:51:43Z</time>
      </trkpt>
      <trkpt lat="47.77325" lon="-3.54884">
        <ele>27</ele>
        <time>2021-07-11T08:51:44Z</time>
      </trkpt>
      <trkpt lat="47.77325" lon="-3.54886">
        <ele>26.9</ele>
        <time>2021-07-11T08:51:45Z</time>
      </trkpt>
      <trkpt lat="47.77325" lon="-3.54887">
        <ele>26.8</ele>
        <time>2021-07-11T08:51:46Z</time>
      </trkpt>
      <trkpt lat="47.77324" lon="-3.54889">
        <ele>26.8</ele>
        <time>2021-07-11T08:51:47Z</time>
      </trkpt>
      <trkpt lat="47.77324" lon="-3.5489">
        <ele>26.7</ele>
        <time>2021-07-11T08:51:48Z</time>
      </trkpt>
      <trkpt lat="47.77324" lon="-3.54891">
        <ele>26.6</ele>
        <time>2021-07-11T08:51:49Z</time>
      </trkpt>
      <trkpt lat="47.77323" lon="-3.54894">
        <ele>25.6</ele>
        <time>2021-07-11T08:51:50Z</time>
      </trkpt>
      <trkpt lat="47.77323" lon="-3.54895">
        <ele>25.6</ele>
        <time>2021-07-11T08:51:51Z</time>
      </trkpt>
      <trkpt lat="47.77324" lon="-3.54896">
        <ele>25.6</ele>
        <time>2021-07-11T08:51:52Z</time>
      </trkpt>
      <trkpt lat="47.77324" lon="-3.54897">
        <ele>25.6</ele>
        <time>2021-07-11T08:51:53Z</time>
      </trkpt>
      <trkpt lat="47.77324" lon="-3.54898">
        <ele>25.6</ele>
        <time>2021-07-11T08:51:54Z</time>
      </trkpt>
      <trkpt lat="47.77324" lon="-3.54899">
        <ele>25.6</ele>
        <time>2021-07-11T08:51:55Z</time>
      </trkpt>
      <trkpt lat="47.77324" lon="-3.549">
        <ele>25.6</ele>
        <time>2021-07-11T08:51:56Z</time>
      </trkpt>
      <trkpt lat="47.77324" lon="-3.54902">
        <ele>25.6</ele>
        <time>2021-07-11T08:51:57Z</time>
      </trkpt>
      <trkpt lat="47.77324" lon="-3.54903">
        <ele>25.6</ele>
        <time>2021-07-11T08:51:58Z</time>
      </trkpt>
      <trkpt lat="47.77324" lon="-3.54904">
        <ele>25.6</ele>
        <time>2021-07-11T08:51:59Z</time>
      </trkpt>
      <trkpt lat="47.77324" lon="-3.54905">
        <ele>25.6</ele>
        <time>2021-07-11T08:52:00Z</time>
      </trkpt>
      <trkpt lat="47.77324" lon="-3.54906">
        <ele>25.6</ele>
        <time>2021-07-11T08:52:01Z</time>
      </trkpt>
      <trkpt lat="47.77324" lon="-3.54907">
        <ele>25.6</ele>
        <time>2021-07-11T08:52:02Z</time>
      </trkpt>
      <trkpt lat="47.77324" lon="-3.54908">
        <ele>25.7</ele>
        <time>2021-07-11T08:52:03Z</time>
      </trkpt>
      <trkpt lat="47.77325" lon="-3.54909">
        <ele>25.7</ele>
        <time>2021-07-11T08:52:04Z</time>
      </trkpt>
      <trkpt lat="47.77325" lon="-3.5491">
        <ele>25.8</ele>
        <time>2021-07-11T08:52:05Z</time>
      </trkpt>
      <trkpt lat="47.77325" lon="-3.54911">
        <ele>25.8</ele>
        <time>2021-07-11T08:52:06Z</time>
      </trkpt>
      <trkpt lat="47.77325" lon="-3.54912">
        <ele>25.8</ele>
        <time>2021-07-11T08:52:07Z</time>
      </trkpt>
      <trkpt lat="47.77325" lon="-3.54914">
        <ele>25.9</ele>
        <time>2021-07-11T08:52:08Z</time>
      </trkpt>
      <trkpt lat="47.77325" lon="-3.54915">
        <ele>25.9</ele>
        <time>2021-07-11T08:52:09Z</time>
      </trkpt>
      <trkpt lat="47.77325" lon="-3.54916">
        <ele>26</ele>
        <time>2021-07-11T08:52:10Z</time>
      </trkpt>
      <trkpt lat="47.77325" lon="-3.54917">
        <ele>26</ele>
        <time>2021-07-11T08:52:11Z</time>
      </trkpt>
      <trkpt lat="47.77325" lon="-3.54918">
        <ele>26.1</ele>
        <time>2021-07-11T08:52:12Z</time>
      </trkpt>
      <trkpt lat="47.77325" lon="-3.54919">
        <ele>26.1</ele>
        <time>2021-07-11T08:52:13Z</time>
      </trkpt>
      <trkpt lat="47.77326" lon="-3.54922">
        <ele>26.3</ele>
        <time>2021-07-11T08:52:14Z</time>
      </trkpt>
      <trkpt lat="47.77326" lon="-3.54923">
        <ele>26.4</ele>
        <time>2021-07-11T08:52:15Z</time>
      </trkpt>
      <trkpt lat="47.77326" lon="-3.54923">
        <ele>26.4</ele>
        <time>2021-07-11T08:52:16Z</time>
      </trkpt>
      <trkpt lat="47.77326" lon="-3.54923">
        <ele>26.4</ele>
        <time>2021-07-11T08:52:17Z</time>
      </trkpt>
      <trkpt lat="47.77326" lon="-3.54924">
        <ele>26.5</ele>
        <time>2021-07-11T08:52:18Z</time>
      </trkpt>
      <trkpt lat="47.77326" lon="-3.54924">
        <ele>26.5</ele>
        <time>2021-07-11T08:52:19Z</time>
      </trkpt>
      <trkpt lat="47.77326" lon="-3.54925">
        <ele>26.5</ele>
        <time>2021-07-11T08:52:20Z</time>
      </trkpt>
      <trkpt lat="47.77326" lon="-3.54925">
        <ele>26.5</ele>
        <time>2021-07-11T08:52:21Z</time>
      </trkpt>
      <trkpt lat="47.77326" lon="-3.54926">
        <ele>26.6</ele>
        <time>2021-07-11T08:52:22Z</time>
      </trkpt>
      <trkpt lat="47.77326" lon="-3.54926">
        <ele>26.6</ele>
        <time>2021-07-11T08:52:23Z</time>
      </trkpt>
      <trkpt lat="47.77326" lon="-3.54926">
        <ele>26.6</ele>
        <time>2021-07-11T08:52:24Z</time>
      </trkpt>
      <trkpt lat="47.77325" lon="-3.54927">
        <ele>26.7</ele>
        <time>2021-07-11T08:52:25Z</time>
      </trkpt>
      <trkpt lat="47.77325" lon="-3.54927">
        <ele>26.7</ele>
        <time>2021-07-11T08:52:26Z</time>
      </trkpt>
      <trkpt lat="47.77325" lon="-3.54928">
        <ele>26.8</ele>
        <time>2021-07-11T08:52:27Z</time>
      </trkpt>
      <trkpt lat="47.77325" lon="-3.54928">
        <ele>26.8</ele>
        <time>2021-07-11T08:52:28Z</time>
      </trkpt>
      <trkpt lat="47.77325" lon="-3.54928">
        <ele>26.8</ele>
        <time>2021-07-11T08:52:29Z</time>
      </trkpt>
      <trkpt lat="47.77325" lon="-3.54929">
        <ele>26.9</ele>
        <time>2021-07-11T08:52:30Z</time>
      </trkpt>
      <trkpt lat="47.77325" lon="-3.54929">
        <ele>26.9</ele>
        <time>2021-07-11T08:52:31Z</time>
      </trkpt>
      <trkpt lat="47.77325" lon="-3.5493">
        <ele>26.9</ele>
        <time>2021-07-11T08:52:32Z</time>
      </trkpt>
      <trkpt lat="47.77325" lon="-3.5493">
        <ele>27</ele>
        <time>2021-07-11T08:52:33Z</time>
      </trkpt>
      <trkpt lat="47.77325" lon="-3.5493">
        <ele>27</ele>
        <time>2021-07-11T08:52:34Z</time>
      </trkpt>
      <trkpt lat="47.77324" lon="-3.54931">
        <ele>27</ele>
        <time>2021-07-11T08:52:35Z</time>
      </trkpt>
      <trkpt lat="47.77324" lon="-3.54931">
        <ele>27.1</ele>
        <time>2021-07-11T08:52:36Z</time>
      </trkpt>
      <trkpt lat="47.77324" lon="-3.54932">
        <ele>27.1</ele>
        <time>2021-07-11T08:52:37Z</time>
      </trkpt>
      <trkpt lat="47.77324" lon="-3.54932">
        <ele>27.2</ele>
        <time>2021-07-11T08:52:38Z</time>
      </trkpt>
      <trkpt lat="47.77324" lon="-3.54933">
        <ele>27.2</ele>
        <time>2021-07-11T08:52:39Z</time>
      </trkpt>
      <trkpt lat="47.77324" lon="-3.54933">
        <ele>27.3</ele>
        <time>2021-07-11T08:52:40Z</time>
      </trkpt>
      <trkpt lat="47.77324" lon="-3.54933">
        <ele>27.3</ele>
        <time>2021-07-11T08:52:41Z</time>
      </trkpt>
      <trkpt lat="47.77324" lon="-3.54934">
        <ele>27.3</ele>
        <time>2021-07-11T08:52:42Z</time>
      </trkpt>
      <trkpt lat="47.77324" lon="-3.54934">
        <ele>27.4</ele>
        <time>2021-07-11T08:52:43Z</time>
      </trkpt>
      <trkpt lat="47.77324" lon="-3.54935">
        <ele>27.4</ele>
        <time>2021-07-11T08:52:44Z</time>
      </trkpt>
      <trkpt lat="47.77324" lon="-3.54935">
        <ele>27.5</ele>
        <time>2021-07-11T08:52:45Z</time>
      </trkpt>
      <trkpt lat="47.77323" lon="-3.54935">
        <ele>27.5</ele>
        <time>2021-07-11T08:52:46Z</time>
      </trkpt>
      <trkpt lat="47.77323" lon="-3.54936">
        <ele>27.5</ele>
        <time>2021-07-11T08:52:47Z</time>
      </trkpt>
      <trkpt lat="47.77323" lon="-3.54936">
        <ele>27.6</ele>
        <time>2021-07-11T08:52:48Z</time>
      </trkpt>
      <trkpt lat="47.77323" lon="-3.54937">
        <ele>27.6</ele>
        <time>2021-07-11T08:52:49Z</time>
      </trkpt>
      <trkpt lat="47.77323" lon="-3.54937">
        <ele>27.7</ele>
        <time>2021-07-11T08:52:50Z</time>
      </trkpt>
      <trkpt lat="47.77323" lon="-3.54937">
        <ele>27.7</ele>
        <time>2021-07-11T08:52:51Z</time>
      </trkpt>
      <trkpt lat="47.77323" lon="-3.54938">
        <ele>27.8</ele>
        <time>2021-07-11T08:52:52Z</time>
      </trkpt>
      <trkpt lat="47.77323" lon="-3.54938">
        <ele>27.8</ele>
        <time>2021-07-11T08:52:53Z</time>
      </trkpt>
      <trkpt lat="47.77323" lon="-3.54939">
        <ele>27.9</ele>
        <time>2021-07-11T08:52:54Z</time>
      </trkpt>
      <trkpt lat="47.77323" lon="-3.54939">
        <ele>27.9</ele>
        <time>2021-07-11T08:52:55Z</time>
      </trkpt>
      <trkpt lat="47.77323" lon="-3.54939">
        <ele>27.9</ele>
        <time>2021-07-11T08:52:56Z</time>
      </trkpt>
      <trkpt lat="47.77322" lon="-3.5494">
        <ele>28</ele>
        <time>2021-07-11T08:52:57Z</time>
      </trkpt>
      <trkpt lat="47.77322" lon="-3.5494">
        <ele>28</ele>
        <time>2021-07-11T08:52:58Z</time>
      </trkpt>
      <trkpt lat="47.77322" lon="-3.54941">
        <ele>28.1</ele>
        <time>2021-07-11T08:52:59Z</time>
      </trkpt>
      <trkpt lat="47.77322" lon="-3.54941">
        <ele>28.1</ele>
        <time>2021-07-11T08:53:00Z</time>
      </trkpt>
      <trkpt lat="47.77322" lon="-3.54942">
        <ele>28.2</ele>
        <time>2021-07-11T08:53:01Z</time>
      </trkpt>
      <trkpt lat="47.77322" lon="-3.54942">
        <ele>28.2</ele>
        <time>2021-07-11T08:53:02Z</time>
      </trkpt>
      <trkpt lat="47.77322" lon="-3.54942">
        <ele>28.3</ele>
        <time>2021-07-11T08:53:03Z</time>
      </trkpt>
      <trkpt lat="47.77322" lon="-3.54943">
        <ele>28.3</ele>
        <time>2021-07-11T08:53:04Z</time>
      </trkpt>
      <trkpt lat="47.77322" lon="-3.54943">
        <ele>28.3</ele>
        <time>2021-07-11T08:53:05Z</time>
      </trkpt>
      <trkpt lat="47.77322" lon="-3.54944">
        <ele>28.4</ele>
        <time>2021-07-11T08:53:06Z</time>
      </trkpt>
      <trkpt lat="47.77322" lon="-3.54944">
        <ele>28.4</ele>
        <time>2021-07-11T08:53:07Z</time>
      </trkpt>
      <trkpt lat="47.77321" lon="-3.54944">
        <ele>28.5</ele>
        <time>2021-07-11T08:53:08Z</time>
      </trkpt>
      <trkpt lat="47.77321" lon="-3.54945">
        <ele>28.5</ele>
        <time>2021-07-11T08:53:09Z</time>
      </trkpt>
      <trkpt lat="47.77321" lon="-3.54945">
        <ele>28.6</ele>
        <time>2021-07-11T08:53:10Z</time>
      </trkpt>
      <trkpt lat="47.77321" lon="-3.54946">
        <ele>28.6</ele>
        <time>2021-07-11T08:53:11Z</time>
      </trkpt>
      <trkpt lat="47.77321" lon="-3.54946">
        <ele>28.7</ele>
        <time>2021-07-11T08:53:12Z</time>
      </trkpt>
      <trkpt lat="47.77321" lon="-3.54946">
        <ele>28.7</ele>
        <time>2021-07-11T08:53:13Z</time>
      </trkpt>
      <trkpt lat="47.7732" lon="-3.5495">
        <ele>29.1</ele>
        <time>2021-07-11T08:53:14Z</time>
      </trkpt>
      <trkpt lat="47.77319" lon="-3.5495">
        <ele>29.2</ele>
        <time>2021-07-11T08:53:15Z</time>
      </trkpt>
      <trkpt lat="47.77319" lon="-3.54951">
        <ele>29.3</ele>
        <time>2021-07-11T08:53:16Z</time>
      </trkpt>
      <trkpt lat="47.77318" lon="-3.54952">
        <ele>29.4</ele>
        <time>2021-07-11T08:53:17Z</time>
      </trkpt>
      <trkpt lat="47.77318" lon="-3.54953">
        <ele>29.5</ele>
        <time>2021-07-11T08:53:18Z</time>
      </trkpt>
      <trkpt lat="47.77317" lon="-3.54954">
        <ele>29.6</ele>
        <time>2021-07-11T08:53:19Z</time>
      </trkpt>
      <trkpt lat="47.77316" lon="-3.54955">
        <ele>29.7</ele>
        <time>2021-07-11T08:53:20Z</time>
      </trkpt>
      <trkpt lat="47.77316" lon="-3.54955">
        <ele>29.8</ele>
        <time>2021-07-11T08:53:21Z</time>
      </trkpt>
      <trkpt lat="47.77315" lon="-3.54956">
        <ele>29.9</ele>
        <time>2021-07-11T08:53:22Z</time>
      </trkpt>
      <trkpt lat="47.77315" lon="-3.54957">
        <ele>30</ele>
        <time>2021-07-11T08:53:23Z</time>
      </trkpt>
      <trkpt lat="47.77314" lon="-3.54958">
        <ele>30.1</ele>
        <time>2021-07-11T08:53:24Z</time>
      </trkpt>
      <trkpt lat="47.77314" lon="-3.54959">
        <ele>30.2</ele>
        <time>2021-07-11T08:53:25Z</time>
      </trkpt>
      <trkpt lat="47.77313" lon="-3.54959">
        <ele>30.3</ele>
        <time>2021-07-11T08:53:26Z</time>
      </trkpt>
      <trkpt lat="47.77312" lon="-3.5496">
        <ele>30.4</ele>
        <time>2021-07-11T08:53:27Z</time>
      </trkpt>
      <trkpt lat="47.77312" lon="-3.54961">
        <ele>30.5</ele>
        <time>2021-07-11T08:53:28Z</time>
      </trkpt>
      <trkpt lat="47.7731" lon="-3.54963">
        <ele>30.7</ele>
        <time>2021-07-11T08:53:29Z</time>
      </trkpt>
      <trkpt lat="47.77309" lon="-3.54963">
        <ele>30.8</ele>
        <time>2021-07-11T08:53:30Z</time>
      </trkpt>
      <trkpt lat="47.77308" lon="-3.54963">
        <ele>30.9</ele>
        <time>2021-07-11T08:53:31Z</time>
      </trkpt>
      <trkpt lat="47.77307" lon="-3.54963">
        <ele>30.9</ele>
        <time>2021-07-11T08:53:32Z</time>
      </trkpt>
      <trkpt lat="47.77306" lon="-3.54964">
        <ele>31</ele>
        <time>2021-07-11T08:53:33Z</time>
      </trkpt>
      <trkpt lat="47.77305" lon="-3.54964">
        <ele>31.1</ele>
        <time>2021-07-11T08:53:34Z</time>
      </trkpt>
      <trkpt lat="47.77304" lon="-3.54965">
        <ele>31.2</ele>
        <time>2021-07-11T08:53:35Z</time>
      </trkpt>
      <trkpt lat="47.77304" lon="-3.54966">
        <ele>31.2</ele>
        <time>2021-07-11T08:53:36Z</time>
      </trkpt>
      <trkpt lat="47.77303" lon="-3.54967">
        <ele>31.3</ele>
        <time>2021-07-11T08:53:37Z</time>
      </trkpt>
      <trkpt lat="47.77303" lon="-3.54969">
        <ele>31.4</ele>
        <time>2021-07-11T08:53:38Z</time>
      </trkpt>
      <trkpt lat="47.77302" lon="-3.5497">
        <ele>31.4</ele>
        <time>2021-07-11T08:53:39Z</time>
      </trkpt>
      <trkpt lat="47.77302" lon="-3.54971">
        <ele>31.5</ele>
        <time>2021-07-11T08:53:40Z</time>
      </trkpt>
      <trkpt lat="47.77302" lon="-3.54972">
        <ele>31.5</ele>
        <time>2021-07-11T08:53:41Z</time>
      </trkpt>
      <trkpt lat="47.77301" lon="-3.54973">
        <ele>31.6</ele>
        <time>2021-07-11T08:53:42Z</time>
      </trkpt>
      <trkpt lat="47.77301" lon="-3.54975">
        <ele>31.6</ele>
        <time>2021-07-11T08:53:43Z</time>
      </trkpt>
      <trkpt lat="47.773" lon="-3.54976">
        <ele>31.7</ele>
        <time>2021-07-11T08:53:44Z</time>
      </trkpt>
      <trkpt lat="47.773" lon="-3.54977">
        <ele>31.7</ele>
        <time>2021-07-11T08:53:45Z</time>
      </trkpt>
      <trkpt lat="47.773" lon="-3.54978">
        <ele>31.8</ele>
        <time>2021-07-11T08:53:46Z</time>
      </trkpt>
      <trkpt lat="47.77299" lon="-3.54979">
        <ele>31.8</ele>
        <time>2021-07-11T08:53:47Z</time>
      </trkpt>
      <trkpt lat="47.77299" lon="-3.54981">
        <ele>31.9</ele>
        <time>2021-07-11T08:53:48Z</time>
      </trkpt>
      <trkpt lat="47.77298" lon="-3.54982">
        <ele>31.9</ele>
        <time>2021-07-11T08:53:49Z</time>
      </trkpt>
      <trkpt lat="47.77298" lon="-3.54983">
        <ele>31.9</ele>
        <time>2021-07-11T08:53:50Z</time>
      </trkpt>
      <trkpt lat="47.77298" lon="-3.54984">
        <ele>32</ele>
        <time>2021-07-11T08:53:51Z</time>
      </trkpt>
      <trkpt lat="47.77297" lon="-3.54985">
        <ele>32</ele>
        <time>2021-07-11T08:53:52Z</time>
      </trkpt>
      <trkpt lat="47.77297" lon="-3.54987">
        <ele>32</ele>
        <time>2021-07-11T08:53:53Z</time>
      </trkpt>
      <trkpt lat="47.77296" lon="-3.54988">
        <ele>32.1</ele>
        <time>2021-07-11T08:53:54Z</time>
      </trkpt>
      <trkpt lat="47.77296" lon="-3.54989">
        <ele>32.1</ele>
        <time>2021-07-11T08:53:55Z</time>
      </trkpt>
      <trkpt lat="47.77296" lon="-3.5499">
        <ele>32.1</ele>
        <time>2021-07-11T08:53:56Z</time>
      </trkpt>
      <trkpt lat="47.77295" lon="-3.54992">
        <ele>32.2</ele>
        <time>2021-07-11T08:53:57Z</time>
      </trkpt>
      <trkpt lat="47.77295" lon="-3.54993">
        <ele>32.2</ele>
        <time>2021-07-11T08:53:58Z</time>
      </trkpt>
      <trkpt lat="47.77294" lon="-3.54994">
        <ele>32.2</ele>
        <time>2021-07-11T08:53:59Z</time>
      </trkpt>
      <trkpt lat="47.77294" lon="-3.54995">
        <ele>32.3</ele>
        <time>2021-07-11T08:54:00Z</time>
      </trkpt>
      <trkpt lat="47.77294" lon="-3.54996">
        <ele>32.3</ele>
        <time>2021-07-11T08:54:01Z</time>
      </trkpt>
      <trkpt lat="47.77293" lon="-3.54998">
        <ele>32.3</ele>
        <time>2021-07-11T08:54:02Z</time>
      </trkpt>
      <trkpt lat="47.77293" lon="-3.54999">
        <ele>32.4</ele>
        <time>2021-07-11T08:54:03Z</time>
      </trkpt>
      <trkpt lat="47.77292" lon="-3.55">
        <ele>32.4</ele>
        <time>2021-07-11T08:54:04Z</time>
      </trkpt>
      <trkpt lat="47.77292" lon="-3.55001">
        <ele>32.4</ele>
        <time>2021-07-11T08:54:05Z</time>
      </trkpt>
      <trkpt lat="47.77292" lon="-3.55002">
        <ele>32.5</ele>
        <time>2021-07-11T08:54:06Z</time>
      </trkpt>
      <trkpt lat="47.77291" lon="-3.55004">
        <ele>32.5</ele>
        <time>2021-07-11T08:54:07Z</time>
      </trkpt>
      <trkpt lat="47.77291" lon="-3.55005">
        <ele>32.5</ele>
        <time>2021-07-11T08:54:08Z</time>
      </trkpt>
      <trkpt lat="47.7729" lon="-3.55006">
        <ele>32.6</ele>
        <time>2021-07-11T08:54:09Z</time>
      </trkpt>
      <trkpt lat="47.7729" lon="-3.55007">
        <ele>32.6</ele>
        <time>2021-07-11T08:54:10Z</time>
      </trkpt>
      <trkpt lat="47.7729" lon="-3.55008">
        <ele>32.6</ele>
        <time>2021-07-11T08:54:11Z</time>
      </trkpt>
      <trkpt lat="47.77289" lon="-3.5501">
        <ele>32.7</ele>
        <time>2021-07-11T08:54:12Z</time>
      </trkpt>
      <trkpt lat="47.77289" lon="-3.55011">
        <ele>32.7</ele>
        <time>2021-07-11T08:54:13Z</time>
      </trkpt>
      <trkpt lat="47.77288" lon="-3.55012">
        <ele>32.7</ele>
        <time>2021-07-11T08:54:14Z</time>
      </trkpt>
      <trkpt lat="47.77288" lon="-3.55015">
        <ele>32.8</ele>
        <time>2021-07-11T08:54:15Z</time>
      </trkpt>
      <trkpt lat="47.77288" lon="-3.55017">
        <ele>32.9</ele>
        <time>2021-07-11T08:54:16Z</time>
      </trkpt>
      <trkpt lat="47.77288" lon="-3.55018">
        <ele>32.9</ele>
        <time>2021-07-11T08:54:17Z</time>
      </trkpt>
      <trkpt lat="47.77287" lon="-3.5502">
        <ele>32.9</ele>
        <time>2021-07-11T08:54:18Z</time>
      </trkpt>
      <trkpt lat="47.77287" lon="-3.55021">
        <ele>33</ele>
        <time>2021-07-11T08:54:19Z</time>
      </trkpt>
      <trkpt lat="47.77287" lon="-3.55023">
        <ele>33</ele>
        <time>2021-07-11T08:54:20Z</time>
      </trkpt>
      <trkpt lat="47.77287" lon="-3.55024">
        <ele>33.1</ele>
        <time>2021-07-11T08:54:21Z</time>
      </trkpt>
      <trkpt lat="47.77287" lon="-3.55026">
        <ele>33.1</ele>
        <time>2021-07-11T08:54:22Z</time>
      </trkpt>
      <trkpt lat="47.77287" lon="-3.55027">
        <ele>33.1</ele>
        <time>2021-07-11T08:54:23Z</time>
      </trkpt>
      <trkpt lat="47.77287" lon="-3.55029">
        <ele>33.2</ele>
        <time>2021-07-11T08:54:24Z</time>
      </trkpt>
      <trkpt lat="47.77287" lon="-3.5503">
        <ele>33.2</ele>
        <time>2021-07-11T08:54:25Z</time>
      </trkpt>
      <trkpt lat="47.77286" lon="-3.55032">
        <ele>33.3</ele>
        <time>2021-07-11T08:54:26Z</time>
      </trkpt>
      <trkpt lat="47.77286" lon="-3.55033">
        <ele>33.3</ele>
        <time>2021-07-11T08:54:27Z</time>
      </trkpt>
      <trkpt lat="47.77286" lon="-3.55035">
        <ele>33.4</ele>
        <time>2021-07-11T08:54:28Z</time>
      </trkpt>
      <trkpt lat="47.77286" lon="-3.55036">
        <ele>33.4</ele>
        <time>2021-07-11T08:54:29Z</time>
      </trkpt>
      <trkpt lat="47.77287" lon="-3.55038">
        <ele>33.5</ele>
        <time>2021-07-11T08:54:30Z</time>
      </trkpt>
      <trkpt lat="47.77287" lon="-3.55039">
        <ele>33.5</ele>
        <time>2021-07-11T08:54:31Z</time>
      </trkpt>
      <trkpt lat="47.77287" lon="-3.5504">
        <ele>33.6</ele>
        <time>2021-07-11T08:54:32Z</time>
      </trkpt>
      <trkpt lat="47.77287" lon="-3.55042">
        <ele>33.6</ele>
        <time>2021-07-11T08:54:33Z</time>
      </trkpt>
      <trkpt lat="47.77287" lon="-3.55043">
        <ele>33.7</ele>
        <time>2021-07-11T08:54:34Z</time>
      </trkpt>
      <trkpt lat="47.77287" lon="-3.55044">
        <ele>33.7</ele>
        <time>2021-07-11T08:54:35Z</time>
      </trkpt>
      <trkpt lat="47.77287" lon="-3.55046">
        <ele>33.8</ele>
        <time>2021-07-11T08:54:36Z</time>
      </trkpt>
      <trkpt lat="47.77287" lon="-3.55047">
        <ele>33.8</ele>
        <time>2021-07-11T08:54:37Z</time>
      </trkpt>
      <trkpt lat="47.77287" lon="-3.55048">
        <ele>33.9</ele>
        <time>2021-07-11T08:54:38Z</time>
      </trkpt>
      <trkpt lat="47.77287" lon="-3.5505">
        <ele>34</ele>
        <time>2021-07-11T08:54:39Z</time>
      </trkpt>
      <trkpt lat="47.77287" lon="-3.55051">
        <ele>34</ele>
        <time>2021-07-11T08:54:40Z</time>
      </trkpt>
      <trkpt lat="47.77287" lon="-3.55052">
        <ele>34.1</ele>
        <time>2021-07-11T08:54:41Z</time>
      </trkpt>
      <trkpt lat="47.77287" lon="-3.55054">
        <ele>34.1</ele>
        <time>2021-07-11T08:54:42Z</time>
      </trkpt>
      <trkpt lat="47.77287" lon="-3.55056">
        <ele>34.3</ele>
        <time>2021-07-11T08:54:43Z</time>
      </trkpt>
      <trkpt lat="47.77287" lon="-3.55058">
        <ele>34.3</ele>
        <time>2021-07-11T08:54:44Z</time>
      </trkpt>
      <trkpt lat="47.77287" lon="-3.5506">
        <ele>34.4</ele>
        <time>2021-07-11T08:54:45Z</time>
      </trkpt>
      <trkpt lat="47.77287" lon="-3.55061">
        <ele>34.5</ele>
        <time>2021-07-11T08:54:46Z</time>
      </trkpt>
      <trkpt lat="47.77286" lon="-3.55063">
        <ele>34.6</ele>
        <time>2021-07-11T08:54:47Z</time>
      </trkpt>
      <trkpt lat="47.77286" lon="-3.55065">
        <ele>34.7</ele>
        <time>2021-07-11T08:54:48Z</time>
      </trkpt>
      <trkpt lat="47.77286" lon="-3.55067">
        <ele>34.8</ele>
        <time>2021-07-11T08:54:49Z</time>
      </trkpt>
      <trkpt lat="47.77286" lon="-3.55069">
        <ele>34.9</ele>
        <time>2021-07-11T08:54:50Z</time>
      </trkpt>
      <trkpt lat="47.77286" lon="-3.5507">
        <ele>34.9</ele>
        <time>2021-07-11T08:54:51Z</time>
      </trkpt>
      <trkpt lat="47.77286" lon="-3.55072">
        <ele>35</ele>
        <time>2021-07-11T08:54:52Z</time>
      </trkpt>
      <trkpt lat="47.77285" lon="-3.55074">
        <ele>35.1</ele>
        <time>2021-07-11T08:54:53Z</time>
      </trkpt>
      <trkpt lat="47.77285" lon="-3.55076">
        <ele>35.2</ele>
        <time>2021-07-11T08:54:54Z</time>
      </trkpt>
      <trkpt lat="47.77285" lon="-3.55078">
        <ele>35.2</ele>
        <time>2021-07-11T08:54:55Z</time>
      </trkpt>
      <trkpt lat="47.77285" lon="-3.55079">
        <ele>35.3</ele>
        <time>2021-07-11T08:54:56Z</time>
      </trkpt>
      <trkpt lat="47.77285" lon="-3.55081">
        <ele>35.4</ele>
        <time>2021-07-11T08:54:57Z</time>
      </trkpt>
      <trkpt lat="47.77285" lon="-3.55083">
        <ele>35.5</ele>
        <time>2021-07-11T08:54:58Z</time>
      </trkpt>
      <trkpt lat="47.77284" lon="-3.55085">
        <ele>35.6</ele>
        <time>2021-07-11T08:54:59Z</time>
      </trkpt>
      <trkpt lat="47.77284" lon="-3.55087">
        <ele>35.6</ele>
        <time>2021-07-11T08:55:00Z</time>
      </trkpt>
      <trkpt lat="47.77284" lon="-3.55089">
        <ele>35.6</ele>
        <time>2021-07-11T08:55:01Z</time>
      </trkpt>
      <trkpt lat="47.77284" lon="-3.5509">
        <ele>35.7</ele>
        <time>2021-07-11T08:55:02Z</time>
      </trkpt>
      <trkpt lat="47.77284" lon="-3.55092">
        <ele>35.7</ele>
        <time>2021-07-11T08:55:03Z</time>
      </trkpt>
      <trkpt lat="47.77284" lon="-3.55094">
        <ele>35.8</ele>
        <time>2021-07-11T08:55:04Z</time>
      </trkpt>
      <trkpt lat="47.77283" lon="-3.55096">
        <ele>35.8</ele>
        <time>2021-07-11T08:55:05Z</time>
      </trkpt>
      <trkpt lat="47.77283" lon="-3.55098">
        <ele>35.8</ele>
        <time>2021-07-11T08:55:06Z</time>
      </trkpt>
      <trkpt lat="47.77283" lon="-3.55099">
        <ele>35.9</ele>
        <time>2021-07-11T08:55:07Z</time>
      </trkpt>
      <trkpt lat="47.77283" lon="-3.551">
        <ele>35.9</ele>
        <time>2021-07-11T08:55:08Z</time>
      </trkpt>
      <trkpt lat="47.77283" lon="-3.55102">
        <ele>35.9</ele>
        <time>2021-07-11T08:55:09Z</time>
      </trkpt>
      <trkpt lat="47.77283" lon="-3.55103">
        <ele>36</ele>
        <time>2021-07-11T08:55:10Z</time>
      </trkpt>
      <trkpt lat="47.77283" lon="-3.55104">
        <ele>36</ele>
        <time>2021-07-11T08:55:11Z</time>
      </trkpt>
      <trkpt lat="47.77283" lon="-3.55105">
        <ele>36</ele>
        <time>2021-07-11T08:55:12Z</time>
      </trkpt>
      <trkpt lat="47.77283" lon="-3.55106">
        <ele>36</ele>
        <time>2021-07-11T08:55:13Z</time>
      </trkpt>
      <trkpt lat="47.77283" lon="-3.55107">
        <ele>36.1</ele>
        <time>2021-07-11T08:55:14Z</time>
      </trkpt>
      <trkpt lat="47.77283" lon="-3.55109">
        <ele>36.1</ele>
        <time>2021-07-11T08:55:15Z</time>
      </trkpt>
      <trkpt lat="47.77283" lon="-3.5511">
        <ele>36.1</ele>
        <time>2021-07-11T08:55:16Z</time>
      </trkpt>
      <trkpt lat="47.77283" lon="-3.55111">
        <ele>36.2</ele>
        <time>2021-07-11T08:55:17Z</time>
      </trkpt>
      <trkpt lat="47.77283" lon="-3.55112">
        <ele>36.2</ele>
        <time>2021-07-11T08:55:18Z</time>
      </trkpt>
      <trkpt lat="47.77283" lon="-3.55113">
        <ele>36.2</ele>
        <time>2021-07-11T08:55:19Z</time>
      </trkpt>
      <trkpt lat="47.77283" lon="-3.55115">
        <ele>36.3</ele>
        <time>2021-07-11T08:55:20Z</time>
      </trkpt>
      <trkpt lat="47.77283" lon="-3.55116">
        <ele>36.3</ele>
        <time>2021-07-11T08:55:21Z</time>
      </trkpt>
      <trkpt lat="47.77283" lon="-3.55117">
        <ele>36.3</ele>
        <time>2021-07-11T08:55:22Z</time>
      </trkpt>
      <trkpt lat="47.77283" lon="-3.55118">
        <ele>36.4</ele>
        <time>2021-07-11T08:55:23Z</time>
      </trkpt>
      <trkpt lat="47.77283" lon="-3.55119">
        <ele>36.4</ele>
        <time>2021-07-11T08:55:24Z</time>
      </trkpt>
      <trkpt lat="47.77283" lon="-3.55121">
        <ele>36.4</ele>
        <time>2021-07-11T08:55:25Z</time>
      </trkpt>
      <trkpt lat="47.77283" lon="-3.55122">
        <ele>36.5</ele>
        <time>2021-07-11T08:55:26Z</time>
      </trkpt>
      <trkpt lat="47.77283" lon="-3.55123">
        <ele>36.5</ele>
        <time>2021-07-11T08:55:27Z</time>
      </trkpt>
      <trkpt lat="47.77283" lon="-3.55124">
        <ele>36.5</ele>
        <time>2021-07-11T08:55:28Z</time>
      </trkpt>
      <trkpt lat="47.77283" lon="-3.55125">
        <ele>36.6</ele>
        <time>2021-07-11T08:55:29Z</time>
      </trkpt>
      <trkpt lat="47.77283" lon="-3.55126">
        <ele>36.6</ele>
        <time>2021-07-11T08:55:30Z</time>
      </trkpt>
      <trkpt lat="47.77283" lon="-3.55128">
        <ele>36.7</ele>
        <time>2021-07-11T08:55:31Z</time>
      </trkpt>
      <trkpt lat="47.77283" lon="-3.55129">
        <ele>36.7</ele>
        <time>2021-07-11T08:55:32Z</time>
      </trkpt>
      <trkpt lat="47.77283" lon="-3.5513">
        <ele>36.7</ele>
        <time>2021-07-11T08:55:33Z</time>
      </trkpt>
      <trkpt lat="47.77283" lon="-3.55133">
        <ele>36.8</ele>
        <time>2021-07-11T08:55:34Z</time>
      </trkpt>
      <trkpt lat="47.77283" lon="-3.55134">
        <ele>36.9</ele>
        <time>2021-07-11T08:55:35Z</time>
      </trkpt>
      <trkpt lat="47.77283" lon="-3.55135">
        <ele>36.9</ele>
        <time>2021-07-11T08:55:36Z</time>
      </trkpt>
      <trkpt lat="47.77283" lon="-3.55136">
        <ele>36.9</ele>
        <time>2021-07-11T08:55:37Z</time>
      </trkpt>
      <trkpt lat="47.77283" lon="-3.55137">
        <ele>37</ele>
        <time>2021-07-11T08:55:38Z</time>
      </trkpt>
      <trkpt lat="47.77283" lon="-3.55138">
        <ele>37</ele>
        <time>2021-07-11T08:55:39Z</time>
      </trkpt>
      <trkpt lat="47.77282" lon="-3.55139">
        <ele>37</ele>
        <time>2021-07-11T08:55:40Z</time>
      </trkpt>
      <trkpt lat="47.77282" lon="-3.5514">
        <ele>37.1</ele>
        <time>2021-07-11T08:55:41Z</time>
      </trkpt>
      <trkpt lat="47.77282" lon="-3.55141">
        <ele>37.1</ele>
        <time>2021-07-11T08:55:42Z</time>
      </trkpt>
      <trkpt lat="47.77282" lon="-3.55142">
        <ele>37.1</ele>
        <time>2021-07-11T08:55:43Z</time>
      </trkpt>
      <trkpt lat="47.77282" lon="-3.55143">
        <ele>37.2</ele>
        <time>2021-07-11T08:55:44Z</time>
      </trkpt>
      <trkpt lat="47.77282" lon="-3.55144">
        <ele>37.2</ele>
        <time>2021-07-11T08:55:45Z</time>
      </trkpt>
      <trkpt lat="47.77282" lon="-3.55145">
        <ele>37.2</ele>
        <time>2021-07-11T08:55:46Z</time>
      </trkpt>
      <trkpt lat="47.77282" lon="-3.55146">
        <ele>37.3</ele>
        <time>2021-07-11T08:55:47Z</time>
      </trkpt>
      <trkpt lat="47.77282" lon="-3.55147">
        <ele>37.3</ele>
        <time>2021-07-11T08:55:48Z</time>
      </trkpt>
      <trkpt lat="47.77282" lon="-3.55148">
        <ele>37.3</ele>
        <time>2021-07-11T08:55:49Z</time>
      </trkpt>
      <trkpt lat="47.77282" lon="-3.55149">
        <ele>37.3</ele>
        <time>2021-07-11T08:55:50Z</time>
      </trkpt>
      <trkpt lat="47.77282" lon="-3.5515">
        <ele>37.4</ele>
        <time>2021-07-11T08:55:51Z</time>
      </trkpt>
      <trkpt lat="47.77282" lon="-3.55151">
        <ele>37.4</ele>
        <time>2021-07-11T08:55:52Z</time>
      </trkpt>
      <trkpt lat="47.77282" lon="-3.55152">
        <ele>37.4</ele>
        <time>2021-07-11T08:55:53Z</time>
      </trkpt>
      <trkpt lat="47.77282" lon="-3.55153">
        <ele>37.5</ele>
        <time>2021-07-11T08:55:54Z</time>
      </trkpt>
      <trkpt lat="47.77282" lon="-3.55157">
        <ele>37.6</ele>
        <time>2021-07-11T08:55:55Z</time>
      </trkpt>
      <trkpt lat="47.77282" lon="-3.55159">
        <ele>37.7</ele>
        <time>2021-07-11T08:55:56Z</time>
      </trkpt>
      <trkpt lat="47.77283" lon="-3.5516">
        <ele>37.7</ele>
        <time>2021-07-11T08:55:57Z</time>
      </trkpt>
      <trkpt lat="47.77283" lon="-3.55162">
        <ele>37.8</ele>
        <time>2021-07-11T08:55:58Z</time>
      </trkpt>
      <trkpt lat="47.77283" lon="-3.55164">
        <ele>37.8</ele>
        <time>2021-07-11T08:55:59Z</time>
      </trkpt>
      <trkpt lat="47.77283" lon="-3.55165">
        <ele>37.9</ele>
        <time>2021-07-11T08:56:00Z</time>
      </trkpt>
      <trkpt lat="47.77284" lon="-3.55167">
        <ele>37.9</ele>
        <time>2021-07-11T08:56:01Z</time>
      </trkpt>
      <trkpt lat="47.77284" lon="-3.55168">
        <ele>38</ele>
        <time>2021-07-11T08:56:02Z</time>
      </trkpt>
      <trkpt lat="47.77284" lon="-3.5517">
        <ele>38</ele>
        <time>2021-07-11T08:56:03Z</time>
      </trkpt>
      <trkpt lat="47.77284" lon="-3.55171">
        <ele>38.1</ele>
        <time>2021-07-11T08:56:04Z</time>
      </trkpt>
      <trkpt lat="47.77285" lon="-3.55173">
        <ele>38.1</ele>
        <time>2021-07-11T08:56:05Z</time>
      </trkpt>
      <trkpt lat="47.77285" lon="-3.55175">
        <ele>38.5</ele>
        <time>2021-07-11T08:56:06Z</time>
      </trkpt>
      <trkpt lat="47.77285" lon="-3.55176">
        <ele>38.6</ele>
        <time>2021-07-11T08:56:07Z</time>
      </trkpt>
      <trkpt lat="47.77286" lon="-3.55178">
        <ele>38.6</ele>
        <time>2021-07-11T08:56:08Z</time>
      </trkpt>
      <trkpt lat="47.77286" lon="-3.55179">
        <ele>38.6</ele>
        <time>2021-07-11T08:56:09Z</time>
      </trkpt>
      <trkpt lat="47.77286" lon="-3.55181">
        <ele>38.7</ele>
        <time>2021-07-11T08:56:10Z</time>
      </trkpt>
      <trkpt lat="47.77288" lon="-3.55183">
        <ele>38.7</ele>
        <time>2021-07-11T08:56:11Z</time>
      </trkpt>
      <trkpt lat="47.77289" lon="-3.55184">
        <ele>38.7</ele>
        <time>2021-07-11T08:56:12Z</time>
      </trkpt>
      <trkpt lat="47.77289" lon="-3.55184">
        <ele>38.8</ele>
        <time>2021-07-11T08:56:13Z</time>
      </trkpt>
      <trkpt lat="47.7729" lon="-3.55185">
        <ele>38.8</ele>
        <time>2021-07-11T08:56:14Z</time>
      </trkpt>
      <trkpt lat="47.77291" lon="-3.55185">
        <ele>38.8</ele>
        <time>2021-07-11T08:56:15Z</time>
      </trkpt>
      <trkpt lat="47.77291" lon="-3.55186">
        <ele>38.8</ele>
        <time>2021-07-11T08:56:16Z</time>
      </trkpt>
      <trkpt lat="47.77292" lon="-3.55187">
        <ele>38.8</ele>
        <time>2021-07-11T08:56:17Z</time>
      </trkpt>
      <trkpt lat="47.77293" lon="-3.55187">
        <ele>38.9</ele>
        <time>2021-07-11T08:56:18Z</time>
      </trkpt>
      <trkpt lat="47.77294" lon="-3.55188">
        <ele>38.9</ele>
        <time>2021-07-11T08:56:19Z</time>
      </trkpt>
      <trkpt lat="47.77294" lon="-3.55188">
        <ele>38.9</ele>
        <time>2021-07-11T08:56:20Z</time>
      </trkpt>
      <trkpt lat="47.77295" lon="-3.55189">
        <ele>38.9</ele>
        <time>2021-07-11T08:56:21Z</time>
      </trkpt>
      <trkpt lat="47.77296" lon="-3.5519">
        <ele>38.9</ele>
        <time>2021-07-11T08:56:22Z</time>
      </trkpt>
      <trkpt lat="47.77296" lon="-3.5519">
        <ele>39</ele>
        <time>2021-07-11T08:56:23Z</time>
      </trkpt>
      <trkpt lat="47.77297" lon="-3.55191">
        <ele>39</ele>
        <time>2021-07-11T08:56:24Z</time>
      </trkpt>
      <trkpt lat="47.77298" lon="-3.55191">
        <ele>39</ele>
        <time>2021-07-11T08:56:25Z</time>
      </trkpt>
      <trkpt lat="47.77299" lon="-3.55192">
        <ele>39</ele>
        <time>2021-07-11T08:56:26Z</time>
      </trkpt>
      <trkpt lat="47.77301" lon="-3.55194">
        <ele>39.1</ele>
        <time>2021-07-11T08:56:27Z</time>
      </trkpt>
      <trkpt lat="47.77302" lon="-3.55194">
        <ele>39.1</ele>
        <time>2021-07-11T08:56:28Z</time>
      </trkpt>
      <trkpt lat="47.77303" lon="-3.55195">
        <ele>39.1</ele>
        <time>2021-07-11T08:56:29Z</time>
      </trkpt>
      <trkpt lat="47.77303" lon="-3.55195">
        <ele>39.1</ele>
        <time>2021-07-11T08:56:30Z</time>
      </trkpt>
      <trkpt lat="47.77304" lon="-3.55196">
        <ele>39.2</ele>
        <time>2021-07-11T08:56:31Z</time>
      </trkpt>
      <trkpt lat="47.77305" lon="-3.55197">
        <ele>39.2</ele>
        <time>2021-07-11T08:56:32Z</time>
      </trkpt>
      <trkpt lat="47.77306" lon="-3.55197">
        <ele>39.2</ele>
        <time>2021-07-11T08:56:33Z</time>
      </trkpt>
      <trkpt lat="47.77307" lon="-3.55198">
        <ele>39.2</ele>
        <time>2021-07-11T08:56:34Z</time>
      </trkpt>
      <trkpt lat="47.77307" lon="-3.55198">
        <ele>39.2</ele>
        <time>2021-07-11T08:56:35Z</time>
      </trkpt>
      <trkpt lat="47.77308" lon="-3.55199">
        <ele>39.3</ele>
        <time>2021-07-11T08:56:36Z</time>
      </trkpt>
      <trkpt lat="47.77309" lon="-3.552">
        <ele>39.3</ele>
        <time>2021-07-11T08:56:37Z</time>
      </trkpt>
      <trkpt lat="47.7731" lon="-3.552">
        <ele>39.3</ele>
        <time>2021-07-11T08:56:38Z</time>
      </trkpt>
      <trkpt lat="47.77311" lon="-3.55201">
        <ele>39.3</ele>
        <time>2021-07-11T08:56:39Z</time>
      </trkpt>
      <trkpt lat="47.77311" lon="-3.55201">
        <ele>39.3</ele>
        <time>2021-07-11T08:56:40Z</time>
      </trkpt>
      <trkpt lat="47.77312" lon="-3.55202">
        <ele>39.3</ele>
        <time>2021-07-11T08:56:41Z</time>
      </trkpt>
      <trkpt lat="47.77313" lon="-3.55203">
        <ele>39.4</ele>
        <time>2021-07-11T08:56:42Z</time>
      </trkpt>
      <trkpt lat="47.77314" lon="-3.55203">
        <ele>39.4</ele>
        <time>2021-07-11T08:56:43Z</time>
      </trkpt>
      <trkpt lat="47.77315" lon="-3.55204">
        <ele>39.4</ele>
        <time>2021-07-11T08:56:44Z</time>
      </trkpt>
      <trkpt lat="47.77319" lon="-3.55207">
        <ele>39.4</ele>
        <time>2021-07-11T08:56:45Z</time>
      </trkpt>
      <trkpt lat="47.77321" lon="-3.55208">
        <ele>39.4</ele>
        <time>2021-07-11T08:56:46Z</time>
      </trkpt>
      <trkpt lat="47.77322" lon="-3.55209">
        <ele>39.5</ele>
        <time>2021-07-11T08:56:47Z</time>
      </trkpt>
      <trkpt lat="47.77323" lon="-3.55209">
        <ele>39.5</ele>
        <time>2021-07-11T08:56:48Z</time>
      </trkpt>
      <trkpt lat="47.77324" lon="-3.5521">
        <ele>39.5</ele>
        <time>2021-07-11T08:56:49Z</time>
      </trkpt>
      <trkpt lat="47.77326" lon="-3.55211">
        <ele>39.5</ele>
        <time>2021-07-11T08:56:50Z</time>
      </trkpt>
      <trkpt lat="47.77327" lon="-3.55212">
        <ele>39.5</ele>
        <time>2021-07-11T08:56:51Z</time>
      </trkpt>
      <trkpt lat="47.77329" lon="-3.55213">
        <ele>39.5</ele>
        <time>2021-07-11T08:56:52Z</time>
      </trkpt>
      <trkpt lat="47.7733" lon="-3.55214">
        <ele>39.5</ele>
        <time>2021-07-11T08:56:53Z</time>
      </trkpt>
      <trkpt lat="47.77332" lon="-3.55215">
        <ele>39.5</ele>
        <time>2021-07-11T08:56:54Z</time>
      </trkpt>
      <trkpt lat="47.77333" lon="-3.55216">
        <ele>39.5</ele>
        <time>2021-07-11T08:56:55Z</time>
      </trkpt>
      <trkpt lat="47.77334" lon="-3.55217">
        <ele>39.4</ele>
        <time>2021-07-11T08:56:56Z</time>
      </trkpt>
      <trkpt lat="47.77336" lon="-3.55219">
        <ele>39.4</ele>
        <time>2021-07-11T08:56:57Z</time>
      </trkpt>
      <trkpt lat="47.77337" lon="-3.5522">
        <ele>39.4</ele>
        <time>2021-07-11T08:56:58Z</time>
      </trkpt>
      <trkpt lat="47.77339" lon="-3.55221">
        <ele>39.4</ele>
        <time>2021-07-11T08:56:59Z</time>
      </trkpt>
      <trkpt lat="47.77341" lon="-3.55222">
        <ele>39.4</ele>
        <time>2021-07-11T08:57:00Z</time>
      </trkpt>
      <trkpt lat="47.77342" lon="-3.55223">
        <ele>39.4</ele>
        <time>2021-07-11T08:57:01Z</time>
      </trkpt>
      <trkpt lat="47.77342" lon="-3.55223">
        <ele>39.4</ele>
        <time>2021-07-11T08:57:02Z</time>
      </trkpt>
      <trkpt lat="47.77343" lon="-3.55224">
        <ele>39.4</ele>
        <time>2021-07-11T08:57:03Z</time>
      </trkpt>
      <trkpt lat="47.77344" lon="-3.55224">
        <ele>39.4</ele>
        <time>2021-07-11T08:57:04Z</time>
      </trkpt>
      <trkpt lat="47.77345" lon="-3.55225">
        <ele>39.4</ele>
        <time>2021-07-11T08:57:05Z</time>
      </trkpt>
      <trkpt lat="47.77346" lon="-3.55226">
        <ele>39.4</ele>
        <time>2021-07-11T08:57:06Z</time>
      </trkpt>
      <trkpt lat="47.77347" lon="-3.55227">
        <ele>39.3</ele>
        <time>2021-07-11T08:57:07Z</time>
      </trkpt>
      <trkpt lat="47.77348" lon="-3.55228">
        <ele>39.3</ele>
        <time>2021-07-11T08:57:08Z</time>
      </trkpt>
      <trkpt lat="47.7735" lon="-3.55229">
        <ele>39.3</ele>
        <time>2021-07-11T08:57:09Z</time>
      </trkpt>
      <trkpt lat="47.77351" lon="-3.5523">
        <ele>39.3</ele>
        <time>2021-07-11T08:57:10Z</time>
      </trkpt>
      <trkpt lat="47.77352" lon="-3.55231">
        <ele>39.3</ele>
        <time>2021-07-11T08:57:11Z</time>
      </trkpt>
      <trkpt lat="47.77353" lon="-3.55232">
        <ele>39.3</ele>
        <time>2021-07-11T08:57:12Z</time>
      </trkpt>
      <trkpt lat="47.77354" lon="-3.55232">
        <ele>39.3</ele>
        <time>2021-07-11T08:57:13Z</time>
      </trkpt>
      <trkpt lat="47.77355" lon="-3.55233">
        <ele>39.3</ele>
        <time>2021-07-11T08:57:14Z</time>
      </trkpt>
      <trkpt lat="47.77356" lon="-3.55234">
        <ele>39.3</ele>
        <time>2021-07-11T08:57:15Z</time>
      </trkpt>
      <trkpt lat="47.77357" lon="-3.55235">
        <ele>39.3</ele>
        <time>2021-07-11T08:57:16Z</time>
      </trkpt>
      <trkpt lat="47.77358" lon="-3.55236">
        <ele>39.3</ele>
        <time>2021-07-11T08:57:17Z</time>
      </trkpt>
      <trkpt lat="47.77359" lon="-3.55237">
        <ele>39.3</ele>
        <time>2021-07-11T08:57:18Z</time>
      </trkpt>
      <trkpt lat="47.7736" lon="-3.55238">
        <ele>39.3</ele>
        <time>2021-07-11T08:57:19Z</time>
      </trkpt>
      <trkpt lat="47.77362" lon="-3.55239">
        <ele>39.3</ele>
        <time>2021-07-11T08:57:20Z</time>
      </trkpt>
      <trkpt lat="47.77363" lon="-3.5524">
        <ele>39.2</ele>
        <time>2021-07-11T08:57:21Z</time>
      </trkpt>
      <trkpt lat="47.77364" lon="-3.5524">
        <ele>39.2</ele>
        <time>2021-07-11T08:57:22Z</time>
      </trkpt>
      <trkpt lat="47.77365" lon="-3.55241">
        <ele>39.2</ele>
        <time>2021-07-11T08:57:23Z</time>
      </trkpt>
      <trkpt lat="47.77366" lon="-3.55242">
        <ele>39.2</ele>
        <time>2021-07-11T08:57:24Z</time>
      </trkpt>
      <trkpt lat="47.77367" lon="-3.55243">
        <ele>39.2</ele>
        <time>2021-07-11T08:57:25Z</time>
      </trkpt>
      <trkpt lat="47.77368" lon="-3.55244">
        <ele>39.2</ele>
        <time>2021-07-11T08:57:26Z</time>
      </trkpt>
      <trkpt lat="47.77369" lon="-3.55245">
        <ele>39.1</ele>
        <time>2021-07-11T08:57:27Z</time>
      </trkpt>
      <trkpt lat="47.7737" lon="-3.55246">
        <ele>39.1</ele>
        <time>2021-07-11T08:57:28Z</time>
      </trkpt>
      <trkpt lat="47.77371" lon="-3.55247">
        <ele>39.1</ele>
        <time>2021-07-11T08:57:29Z</time>
      </trkpt>
      <trkpt lat="47.77372" lon="-3.55247">
        <ele>39.1</ele>
        <time>2021-07-11T08:57:30Z</time>
      </trkpt>
      <trkpt lat="47.77374" lon="-3.55249">
        <ele>39.1</ele>
        <time>2021-07-11T08:57:31Z</time>
      </trkpt>
      <trkpt lat="47.77375" lon="-3.5525">
        <ele>39.1</ele>
        <time>2021-07-11T08:57:32Z</time>
      </trkpt>
      <trkpt lat="47.77376" lon="-3.5525">
        <ele>39.1</ele>
        <time>2021-07-11T08:57:33Z</time>
      </trkpt>
      <trkpt lat="47.77376" lon="-3.55251">
        <ele>39.1</ele>
        <time>2021-07-11T08:57:34Z</time>
      </trkpt>
      <trkpt lat="47.77377" lon="-3.55252">
        <ele>39</ele>
        <time>2021-07-11T08:57:35Z</time>
      </trkpt>
      <trkpt lat="47.77377" lon="-3.55252">
        <ele>39</ele>
        <time>2021-07-11T08:57:36Z</time>
      </trkpt>
      <trkpt lat="47.77378" lon="-3.55253">
        <ele>39</ele>
        <time>2021-07-11T08:57:37Z</time>
      </trkpt>
      <trkpt lat="47.77379" lon="-3.55253">
        <ele>39</ele>
        <time>2021-07-11T08:57:38Z</time>
      </trkpt>
      <trkpt lat="47.77379" lon="-3.55254">
        <ele>39</ele>
        <time>2021-07-11T08:57:39Z</time>
      </trkpt>
      <trkpt lat="47.7738" lon="-3.55255">
        <ele>39</ele>
        <time>2021-07-11T08:57:40Z</time>
      </trkpt>
      <trkpt lat="47.77381" lon="-3.55255">
        <ele>39</ele>
        <time>2021-07-11T08:57:41Z</time>
      </trkpt>
      <trkpt lat="47.77381" lon="-3.55256">
        <ele>39</ele>
        <time>2021-07-11T08:57:42Z</time>
      </trkpt>
      <trkpt lat="47.77382" lon="-3.55257">
        <ele>39</ele>
        <time>2021-07-11T08:57:43Z</time>
      </trkpt>
      <trkpt lat="47.77382" lon="-3.55257">
        <ele>39</ele>
        <time>2021-07-11T08:57:44Z</time>
      </trkpt>
      <trkpt lat="47.77384" lon="-3.55258">
        <ele>38.9</ele>
        <time>2021-07-11T08:57:45Z</time>
      </trkpt>
      <trkpt lat="47.77385" lon="-3.55259">
        <ele>38.9</ele>
        <time>2021-07-11T08:57:46Z</time>
      </trkpt>
      <trkpt lat="47.77386" lon="-3.5526">
        <ele>38.9</ele>
        <time>2021-07-11T08:57:47Z</time>
      </trkpt>
      <trkpt lat="47.77387" lon="-3.55261">
        <ele>38.9</ele>
        <time>2021-07-11T08:57:48Z</time>
      </trkpt>
      <trkpt lat="47.77388" lon="-3.55262">
        <ele>38.8</ele>
        <time>2021-07-11T08:57:49Z</time>
      </trkpt>
      <trkpt lat="47.7739" lon="-3.55263">
        <ele>38.8</ele>
        <time>2021-07-11T08:57:50Z</time>
      </trkpt>
      <trkpt lat="47.77391" lon="-3.55264">
        <ele>38.8</ele>
        <time>2021-07-11T08:57:51Z</time>
      </trkpt>
      <trkpt lat="47.77392" lon="-3.55265">
        <ele>38.8</ele>
        <time>2021-07-11T08:57:52Z</time>
      </trkpt>
      <trkpt lat="47.77393" lon="-3.55267">
        <ele>38.7</ele>
        <time>2021-07-11T08:57:53Z</time>
      </trkpt>
      <trkpt lat="47.77394" lon="-3.55268">
        <ele>38.7</ele>
        <time>2021-07-11T08:57:54Z</time>
      </trkpt>
      <trkpt lat="47.77395" lon="-3.55269">
        <ele>38.7</ele>
        <time>2021-07-11T08:57:55Z</time>
      </trkpt>
      <trkpt lat="47.77397" lon="-3.5527">
        <ele>38.7</ele>
        <time>2021-07-11T08:57:56Z</time>
      </trkpt>
      <trkpt lat="47.77398" lon="-3.55271">
        <ele>38.6</ele>
        <time>2021-07-11T08:57:57Z</time>
      </trkpt>
      <trkpt lat="47.774" lon="-3.55272">
        <ele>38.6</ele>
        <time>2021-07-11T08:57:58Z</time>
      </trkpt>
      <trkpt lat="47.77402" lon="-3.55272">
        <ele>38.6</ele>
        <time>2021-07-11T08:57:59Z</time>
      </trkpt>
      <trkpt lat="47.77404" lon="-3.55273">
        <ele>38.5</ele>
        <time>2021-07-11T08:58:00Z</time>
      </trkpt>
      <trkpt lat="47.77405" lon="-3.55274">
        <ele>38.5</ele>
        <time>2021-07-11T08:58:01Z</time>
      </trkpt>
      <trkpt lat="47.77407" lon="-3.55275">
        <ele>38.5</ele>
        <time>2021-07-11T08:58:02Z</time>
      </trkpt>
      <trkpt lat="47.77409" lon="-3.55276">
        <ele>38.5</ele>
        <time>2021-07-11T08:58:03Z</time>
      </trkpt>
      <trkpt lat="47.7741" lon="-3.55277">
        <ele>38.4</ele>
        <time>2021-07-11T08:58:04Z</time>
      </trkpt>
      <trkpt lat="47.77411" lon="-3.55278">
        <ele>38.4</ele>
        <time>2021-07-11T08:58:05Z</time>
      </trkpt>
      <trkpt lat="47.77412" lon="-3.55278">
        <ele>38.4</ele>
        <time>2021-07-11T08:58:06Z</time>
      </trkpt>
      <trkpt lat="47.77413" lon="-3.5528">
        <ele>38.4</ele>
        <time>2021-07-11T08:58:07Z</time>
      </trkpt>
      <trkpt lat="47.77414" lon="-3.55281">
        <ele>38.4</ele>
        <time>2021-07-11T08:58:08Z</time>
      </trkpt>
      <trkpt lat="47.77415" lon="-3.55282">
        <ele>38.4</ele>
        <time>2021-07-11T08:58:09Z</time>
      </trkpt>
      <trkpt lat="47.77416" lon="-3.55284">
        <ele>38.3</ele>
        <time>2021-07-11T08:58:10Z</time>
      </trkpt>
      <trkpt lat="47.77417" lon="-3.55285">
        <ele>38.3</ele>
        <time>2021-07-11T08:58:11Z</time>
      </trkpt>
      <trkpt lat="47.77418" lon="-3.55286">
        <ele>38.3</ele>
        <time>2021-07-11T08:58:12Z</time>
      </trkpt>
      <trkpt lat="47.77419" lon="-3.55287">
        <ele>38.3</ele>
        <time>2021-07-11T08:58:13Z</time>
      </trkpt>
      <trkpt lat="47.7742" lon="-3.55288">
        <ele>38.3</ele>
        <time>2021-07-11T08:58:14Z</time>
      </trkpt>
      <trkpt lat="47.77421" lon="-3.5529">
        <ele>38.2</ele>
        <time>2021-07-11T08:58:15Z</time>
      </trkpt>
      <trkpt lat="47.77421" lon="-3.55291">
        <ele>38.2</ele>
        <time>2021-07-11T08:58:16Z</time>
      </trkpt>
      <trkpt lat="47.77422" lon="-3.55292">
        <ele>38.2</ele>
        <time>2021-07-11T08:58:17Z</time>
      </trkpt>
      <trkpt lat="47.77423" lon="-3.55293">
        <ele>38.2</ele>
        <time>2021-07-11T08:58:18Z</time>
      </trkpt>
      <trkpt lat="47.77424" lon="-3.55294">
        <ele>38.2</ele>
        <time>2021-07-11T08:58:19Z</time>
      </trkpt>
      <trkpt lat="47.77425" lon="-3.55296">
        <ele>38.1</ele>
        <time>2021-07-11T08:58:20Z</time>
      </trkpt>
      <trkpt lat="47.77426" lon="-3.55297">
        <ele>38.1</ele>
        <time>2021-07-11T08:58:21Z</time>
      </trkpt>
      <trkpt lat="47.77427" lon="-3.55298">
        <ele>38.1</ele>
        <time>2021-07-11T08:58:22Z</time>
      </trkpt>
      <trkpt lat="47.77428" lon="-3.55299">
        <ele>38.1</ele>
        <time>2021-07-11T08:58:23Z</time>
      </trkpt>
      <trkpt lat="47.7743" lon="-3.55301">
        <ele>38.1</ele>
        <time>2021-07-11T08:58:24Z</time>
      </trkpt>
      <trkpt lat="47.77431" lon="-3.55302">
        <ele>38</ele>
        <time>2021-07-11T08:58:25Z</time>
      </trkpt>
      <trkpt lat="47.77431" lon="-3.55302">
        <ele>38</ele>
        <time>2021-07-11T08:58:26Z</time>
      </trkpt>
      <trkpt lat="47.77432" lon="-3.55303">
        <ele>38</ele>
        <time>2021-07-11T08:58:27Z</time>
      </trkpt>
      <trkpt lat="47.77433" lon="-3.55304">
        <ele>38</ele>
        <time>2021-07-11T08:58:28Z</time>
      </trkpt>
      <trkpt lat="47.77434" lon="-3.55305">
        <ele>38</ele>
        <time>2021-07-11T08:58:29Z</time>
      </trkpt>
      <trkpt lat="47.77435" lon="-3.55306">
        <ele>38</ele>
        <time>2021-07-11T08:58:30Z</time>
      </trkpt>
      <trkpt lat="47.77436" lon="-3.55307">
        <ele>38</ele>
        <time>2021-07-11T08:58:31Z</time>
      </trkpt>
      <trkpt lat="47.77437" lon="-3.55308">
        <ele>38</ele>
        <time>2021-07-11T08:58:32Z</time>
      </trkpt>
      <trkpt lat="47.77438" lon="-3.55308">
        <ele>38</ele>
        <time>2021-07-11T08:58:33Z</time>
      </trkpt>
      <trkpt lat="47.77438" lon="-3.55309">
        <ele>38</ele>
        <time>2021-07-11T08:58:34Z</time>
      </trkpt>
      <trkpt lat="47.77439" lon="-3.5531">
        <ele>37.9</ele>
        <time>2021-07-11T08:58:35Z</time>
      </trkpt>
      <trkpt lat="47.7744" lon="-3.55311">
        <ele>37.9</ele>
        <time>2021-07-11T08:58:36Z</time>
      </trkpt>
      <trkpt lat="47.77441" lon="-3.55312">
        <ele>37.9</ele>
        <time>2021-07-11T08:58:37Z</time>
      </trkpt>
      <trkpt lat="47.77443" lon="-3.55314">
        <ele>37.9</ele>
        <time>2021-07-11T08:58:38Z</time>
      </trkpt>
      <trkpt lat="47.77444" lon="-3.55315">
        <ele>37.9</ele>
        <time>2021-07-11T08:58:39Z</time>
      </trkpt>
      <trkpt lat="47.77445" lon="-3.55316">
        <ele>37.9</ele>
        <time>2021-07-11T08:58:40Z</time>
      </trkpt>
      <trkpt lat="47.77446" lon="-3.55316">
        <ele>37.9</ele>
        <time>2021-07-11T08:58:41Z</time>
      </trkpt>
      <trkpt lat="47.77447" lon="-3.55317">
        <ele>37.9</ele>
        <time>2021-07-11T08:58:42Z</time>
      </trkpt>
      <trkpt lat="47.77449" lon="-3.55318">
        <ele>37.9</ele>
        <time>2021-07-11T08:58:43Z</time>
      </trkpt>
      <trkpt lat="47.7745" lon="-3.5532">
        <ele>37.8</ele>
        <time>2021-07-11T08:58:44Z</time>
      </trkpt>
      <trkpt lat="47.77451" lon="-3.55321">
        <ele>37.8</ele>
        <time>2021-07-11T08:58:45Z</time>
      </trkpt>
      <trkpt lat="47.77452" lon="-3.55322">
        <ele>37.8</ele>
        <time>2021-07-11T08:58:46Z</time>
      </trkpt>
      <trkpt lat="47.77453" lon="-3.55323">
        <ele>37.8</ele>
        <time>2021-07-11T08:58:47Z</time>
      </trkpt>
      <trkpt lat="47.77454" lon="-3.55324">
        <ele>37.8</ele>
        <time>2021-07-11T08:58:48Z</time>
      </trkpt>
      <trkpt lat="47.77455" lon="-3.55325">
        <ele>37.8</ele>
        <time>2021-07-11T08:58:49Z</time>
      </trkpt>
      <trkpt lat="47.77456" lon="-3.55326">
        <ele>37.8</ele>
        <time>2021-07-11T08:58:50Z</time>
      </trkpt>
      <trkpt lat="47.77457" lon="-3.55327">
        <ele>37.8</ele>
        <time>2021-07-11T08:58:51Z</time>
      </trkpt>
      <trkpt lat="47.77458" lon="-3.55328">
        <ele>37.8</ele>
        <time>2021-07-11T08:58:52Z</time>
      </trkpt>
      <trkpt lat="47.7746" lon="-3.5533">
        <ele>37.7</ele>
        <time>2021-07-11T08:58:53Z</time>
      </trkpt>
      <trkpt lat="47.77461" lon="-3.55331">
        <ele>37.7</ele>
        <time>2021-07-11T08:58:54Z</time>
      </trkpt>
      <trkpt lat="47.77462" lon="-3.55332">
        <ele>37.7</ele>
        <time>2021-07-11T08:58:55Z</time>
      </trkpt>
      <trkpt lat="47.77462" lon="-3.55332">
        <ele>37.7</ele>
        <time>2021-07-11T08:58:56Z</time>
      </trkpt>
      <trkpt lat="47.77463" lon="-3.55333">
        <ele>37.7</ele>
        <time>2021-07-11T08:58:57Z</time>
      </trkpt>
      <trkpt lat="47.77464" lon="-3.55334">
        <ele>37.7</ele>
        <time>2021-07-11T08:58:58Z</time>
      </trkpt>
      <trkpt lat="47.77465" lon="-3.55335">
        <ele>37.7</ele>
        <time>2021-07-11T08:58:59Z</time>
      </trkpt>
      <trkpt lat="47.77465" lon="-3.55336">
        <ele>37.7</ele>
        <time>2021-07-11T08:59:00Z</time>
      </trkpt>
      <trkpt lat="47.77466" lon="-3.55336">
        <ele>37.7</ele>
        <time>2021-07-11T08:59:01Z</time>
      </trkpt>
      <trkpt lat="47.77467" lon="-3.55337">
        <ele>37.7</ele>
        <time>2021-07-11T08:59:02Z</time>
      </trkpt>
      <trkpt lat="47.77468" lon="-3.55338">
        <ele>37.7</ele>
        <time>2021-07-11T08:59:03Z</time>
      </trkpt>
      <trkpt lat="47.77468" lon="-3.55339">
        <ele>37.7</ele>
        <time>2021-07-11T08:59:04Z</time>
      </trkpt>
      <trkpt lat="47.77469" lon="-3.5534">
        <ele>37.7</ele>
        <time>2021-07-11T08:59:05Z</time>
      </trkpt>
      <trkpt lat="47.7747" lon="-3.55341">
        <ele>37.7</ele>
        <time>2021-07-11T08:59:06Z</time>
      </trkpt>
      <trkpt lat="47.77471" lon="-3.55341">
        <ele>37.7</ele>
        <time>2021-07-11T08:59:07Z</time>
      </trkpt>
      <trkpt lat="47.77471" lon="-3.55342">
        <ele>37.7</ele>
        <time>2021-07-11T08:59:08Z</time>
      </trkpt>
      <trkpt lat="47.77472" lon="-3.55343">
        <ele>37.7</ele>
        <time>2021-07-11T08:59:09Z</time>
      </trkpt>
      <trkpt lat="47.77473" lon="-3.55344">
        <ele>37.7</ele>
        <time>2021-07-11T08:59:10Z</time>
      </trkpt>
      <trkpt lat="47.77474" lon="-3.55345">
        <ele>37.7</ele>
        <time>2021-07-11T08:59:11Z</time>
      </trkpt>
      <trkpt lat="47.77474" lon="-3.55345">
        <ele>37.7</ele>
        <time>2021-07-11T08:59:12Z</time>
      </trkpt>
      <trkpt lat="47.77475" lon="-3.55346">
        <ele>37.7</ele>
        <time>2021-07-11T08:59:13Z</time>
      </trkpt>
      <trkpt lat="47.77476" lon="-3.55347">
        <ele>37.7</ele>
        <time>2021-07-11T08:59:14Z</time>
      </trkpt>
      <trkpt lat="47.77477" lon="-3.55348">
        <ele>37.7</ele>
        <time>2021-07-11T08:59:15Z</time>
      </trkpt>
      <trkpt lat="47.77477" lon="-3.55349">
        <ele>37.7</ele>
        <time>2021-07-11T08:59:16Z</time>
      </trkpt>
      <trkpt lat="47.77478" lon="-3.55349">
        <ele>37.7</ele>
        <time>2021-07-11T08:59:17Z</time>
      </trkpt>
      <trkpt lat="47.77479" lon="-3.5535">
        <ele>37.7</ele>
        <time>2021-07-11T08:59:18Z</time>
      </trkpt>
      <trkpt lat="47.7748" lon="-3.55351">
        <ele>37.7</ele>
        <time>2021-07-11T08:59:19Z</time>
      </trkpt>
      <trkpt lat="47.7748" lon="-3.55352">
        <ele>37.7</ele>
        <time>2021-07-11T08:59:20Z</time>
      </trkpt>
      <trkpt lat="47.77481" lon="-3.55353">
        <ele>37.7</ele>
        <time>2021-07-11T08:59:21Z</time>
      </trkpt>
      <trkpt lat="47.77482" lon="-3.55354">
        <ele>37.7</ele>
        <time>2021-07-11T08:59:22Z</time>
      </trkpt>
      <trkpt lat="47.77483" lon="-3.55354">
        <ele>37.8</ele>
        <time>2021-07-11T08:59:23Z</time>
      </trkpt>
      <trkpt lat="47.77483" lon="-3.55355">
        <ele>37.8</ele>
        <time>2021-07-11T08:59:24Z</time>
      </trkpt>
      <trkpt lat="47.77484" lon="-3.55356">
        <ele>37.8</ele>
        <time>2021-07-11T08:59:25Z</time>
      </trkpt>
      <trkpt lat="47.77486" lon="-3.55357">
        <ele>37.8</ele>
        <time>2021-07-11T08:59:26Z</time>
      </trkpt>
      <trkpt lat="47.77486" lon="-3.55358">
        <ele>37.8</ele>
        <time>2021-07-11T08:59:27Z</time>
      </trkpt>
      <trkpt lat="47.77487" lon="-3.55359">
        <ele>37.8</ele>
        <time>2021-07-11T08:59:28Z</time>
      </trkpt>
      <trkpt lat="47.77488" lon="-3.5536">
        <ele>37.8</ele>
        <time>2021-07-11T08:59:29Z</time>
      </trkpt>
      <trkpt lat="47.77489" lon="-3.55361">
        <ele>37.8</ele>
        <time>2021-07-11T08:59:30Z</time>
      </trkpt>
      <trkpt lat="47.7749" lon="-3.55362">
        <ele>37.8</ele>
        <time>2021-07-11T08:59:31Z</time>
      </trkpt>
      <trkpt lat="47.77491" lon="-3.55363">
        <ele>37.8</ele>
        <time>2021-07-11T08:59:32Z</time>
      </trkpt>
      <trkpt lat="47.77492" lon="-3.55364">
        <ele>37.8</ele>
        <time>2021-07-11T08:59:33Z</time>
      </trkpt>
      <trkpt lat="47.77493" lon="-3.55365">
        <ele>37.8</ele>
        <time>2021-07-11T08:59:34Z</time>
      </trkpt>
      <trkpt lat="47.77493" lon="-3.55366">
        <ele>37.8</ele>
        <time>2021-07-11T08:59:35Z</time>
      </trkpt>
      <trkpt lat="47.77494" lon="-3.55367">
        <ele>37.8</ele>
        <time>2021-07-11T08:59:36Z</time>
      </trkpt>
      <trkpt lat="47.77495" lon="-3.55368">
        <ele>37.8</ele>
        <time>2021-07-11T08:59:37Z</time>
      </trkpt>
      <trkpt lat="47.77496" lon="-3.55369">
        <ele>37.8</ele>
        <time>2021-07-11T08:59:38Z</time>
      </trkpt>
      <trkpt lat="47.77497" lon="-3.5537">
        <ele>37.9</ele>
        <time>2021-07-11T08:59:39Z</time>
      </trkpt>
      <trkpt lat="47.77498" lon="-3.55371">
        <ele>37.9</ele>
        <time>2021-07-11T08:59:40Z</time>
      </trkpt>
      <trkpt lat="47.77499" lon="-3.55372">
        <ele>37.9</ele>
        <time>2021-07-11T08:59:41Z</time>
      </trkpt>
      <trkpt lat="47.77499" lon="-3.55373">
        <ele>37.9</ele>
        <time>2021-07-11T08:59:42Z</time>
      </trkpt>
      <trkpt lat="47.775" lon="-3.55374">
        <ele>37.9</ele>
        <time>2021-07-11T08:59:43Z</time>
      </trkpt>
      <trkpt lat="47.77501" lon="-3.55375">
        <ele>37.9</ele>
        <time>2021-07-11T08:59:44Z</time>
      </trkpt>
      <trkpt lat="47.77502" lon="-3.55376">
        <ele>37.9</ele>
        <time>2021-07-11T08:59:45Z</time>
      </trkpt>
      <trkpt lat="47.77503" lon="-3.55377">
        <ele>37.9</ele>
        <time>2021-07-11T08:59:46Z</time>
      </trkpt>
      <trkpt lat="47.77504" lon="-3.55378">
        <ele>37.9</ele>
        <time>2021-07-11T08:59:47Z</time>
      </trkpt>
      <trkpt lat="47.77507" lon="-3.55381">
        <ele>38</ele>
        <time>2021-07-11T08:59:48Z</time>
      </trkpt>
      <trkpt lat="47.77508" lon="-3.55382">
        <ele>38</ele>
        <time>2021-07-11T08:59:49Z</time>
      </trkpt>
      <trkpt lat="47.77509" lon="-3.55383">
        <ele>38</ele>
        <time>2021-07-11T08:59:50Z</time>
      </trkpt>
      <trkpt lat="47.7751" lon="-3.55383">
        <ele>38</ele>
        <time>2021-07-11T08:59:51Z</time>
      </trkpt>
      <trkpt lat="47.77512" lon="-3.55384">
        <ele>38</ele>
        <time>2021-07-11T08:59:52Z</time>
      </trkpt>
      <trkpt lat="47.77513" lon="-3.55385">
        <ele>38</ele>
        <time>2021-07-11T08:59:53Z</time>
      </trkpt>
      <trkpt lat="47.77514" lon="-3.55386">
        <ele>38</ele>
        <time>2021-07-11T08:59:54Z</time>
      </trkpt>
      <trkpt lat="47.77515" lon="-3.55386">
        <ele>38</ele>
        <time>2021-07-11T08:59:55Z</time>
      </trkpt>
      <trkpt lat="47.77517" lon="-3.55387">
        <ele>38</ele>
        <time>2021-07-11T08:59:56Z</time>
      </trkpt>
      <trkpt lat="47.77518" lon="-3.55388">
        <ele>38.1</ele>
        <time>2021-07-11T08:59:57Z</time>
      </trkpt>
      <trkpt lat="47.7752" lon="-3.55388">
        <ele>38.1</ele>
        <time>2021-07-11T08:59:58Z</time>
      </trkpt>
      <trkpt lat="47.77522" lon="-3.55388">
        <ele>38.1</ele>
        <time>2021-07-11T08:59:59Z</time>
      </trkpt>
      <trkpt lat="47.77523" lon="-3.55388">
        <ele>38.1</ele>
        <time>2021-07-11T09:00:00Z</time>
      </trkpt>
      <trkpt lat="47.77524" lon="-3.55387">
        <ele>38.1</ele>
        <time>2021-07-11T09:00:01Z</time>
      </trkpt>
      <trkpt lat="47.77525" lon="-3.55387">
        <ele>38.1</ele>
        <time>2021-07-11T09:00:02Z</time>
      </trkpt>
      <trkpt lat="47.77527" lon="-3.55387">
        <ele>38.2</ele>
        <time>2021-07-11T09:00:03Z</time>
      </trkpt>
      <trkpt lat="47.77528" lon="-3.55387">
        <ele>38.2</ele>
        <time>2021-07-11T09:00:04Z</time>
      </trkpt>
      <trkpt lat="47.77529" lon="-3.55387">
        <ele>38.2</ele>
        <time>2021-07-11T09:00:05Z</time>
      </trkpt>
      <trkpt lat="47.77531" lon="-3.55386">
        <ele>38.2</ele>
        <time>2021-07-11T09:00:06Z</time>
      </trkpt>
      <trkpt lat="47.77532" lon="-3.55386">
        <ele>38.2</ele>
        <time>2021-07-11T09:00:07Z</time>
      </trkpt>
      <trkpt lat="47.77533" lon="-3.55386">
        <ele>38.2</ele>
        <time>2021-07-11T09:00:08Z</time>
      </trkpt>
      <trkpt lat="47.77533" lon="-3.55386">
        <ele>38.2</ele>
        <time>2021-07-11T09:00:09Z</time>
      </trkpt>
      <trkpt lat="47.77534" lon="-3.55385">
        <ele>38.2</ele>
        <time>2021-07-11T09:00:10Z</time>
      </trkpt>
      <trkpt lat="47.77535" lon="-3.55385">
        <ele>38.3</ele>
        <time>2021-07-11T09:00:11Z</time>
      </trkpt>
      <trkpt lat="47.77535" lon="-3.55385">
        <ele>38.3</ele>
        <time>2021-07-11T09:00:12Z</time>
      </trkpt>
      <trkpt lat="47.77536" lon="-3.55385">
        <ele>38.3</ele>
        <time>2021-07-11T09:00:13Z</time>
      </trkpt>
      <trkpt lat="47.77537" lon="-3.55385">
        <ele>38.3</ele>
        <time>2021-07-11T09:00:14Z</time>
      </trkpt>
      <trkpt lat="47.77538" lon="-3.55385">
        <ele>38.3</ele>
        <time>2021-07-11T09:00:15Z</time>
      </trkpt>
      <trkpt lat="47.77538" lon="-3.55384">
        <ele>38.3</ele>
        <time>2021-07-11T09:00:16Z</time>
      </trkpt>
      <trkpt lat="47.77539" lon="-3.55384">
        <ele>38.3</ele>
        <time>2021-07-11T09:00:17Z</time>
      </trkpt>
      <trkpt lat="47.77543" lon="-3.55382">
        <ele>38.4</ele>
        <time>2021-07-11T09:00:18Z</time>
      </trkpt>
      <trkpt lat="47.77545" lon="-3.55382">
        <ele>38.4</ele>
        <time>2021-07-11T09:00:19Z</time>
      </trkpt>
      <trkpt lat="47.77546" lon="-3.55382">
        <ele>38.4</ele>
        <time>2021-07-11T09:00:20Z</time>
      </trkpt>
      <trkpt lat="47.77547" lon="-3.55381">
        <ele>38.4</ele>
        <time>2021-07-11T09:00:21Z</time>
      </trkpt>
      <trkpt lat="47.77549" lon="-3.55381">
        <ele>38.4</ele>
        <time>2021-07-11T09:00:22Z</time>
      </trkpt>
      <trkpt lat="47.7755" lon="-3.5538">
        <ele>38.4</ele>
        <time>2021-07-11T09:00:23Z</time>
      </trkpt>
      <trkpt lat="47.77551" lon="-3.5538">
        <ele>38.5</ele>
        <time>2021-07-11T09:00:24Z</time>
      </trkpt>
      <trkpt lat="47.77551" lon="-3.5538">
        <ele>38.5</ele>
        <time>2021-07-11T09:00:25Z</time>
      </trkpt>
      <trkpt lat="47.77553" lon="-3.5538">
        <ele>38.5</ele>
        <time>2021-07-11T09:00:26Z</time>
      </trkpt>
      <trkpt lat="47.77555" lon="-3.5538">
        <ele>38.5</ele>
        <time>2021-07-11T09:00:27Z</time>
      </trkpt>
      <trkpt lat="47.77556" lon="-3.5538">
        <ele>38.5</ele>
        <time>2021-07-11T09:00:28Z</time>
      </trkpt>
      <trkpt lat="47.77558" lon="-3.55379">
        <ele>38.5</ele>
        <time>2021-07-11T09:00:29Z</time>
      </trkpt>
      <trkpt lat="47.77558" lon="-3.55379">
        <ele>38.6</ele>
        <time>2021-07-11T09:00:30Z</time>
      </trkpt>
      <trkpt lat="47.77558" lon="-3.55379">
        <ele>38.6</ele>
        <time>2021-07-11T09:00:31Z</time>
      </trkpt>
      <trkpt lat="47.77558" lon="-3.55379">
        <ele>38.6</ele>
        <time>2021-07-11T09:00:32Z</time>
      </trkpt>
      <trkpt lat="47.77558" lon="-3.55379">
        <ele>38.6</ele>
        <time>2021-07-11T09:00:33Z</time>
      </trkpt>
      <trkpt lat="47.77558" lon="-3.55379">
        <ele>38.6</ele>
        <time>2021-07-11T09:00:34Z</time>
      </trkpt>
      <trkpt lat="47.77559" lon="-3.55379">
        <ele>38.6</ele>
        <time>2021-07-11T09:00:35Z</time>
      </trkpt>
      <trkpt lat="47.77562" lon="-3.55379">
        <ele>38.6</ele>
        <time>2021-07-11T09:00:36Z</time>
      </trkpt>
      <trkpt lat="47.77568" lon="-3.55378">
        <ele>38.7</ele>
        <time>2021-07-11T09:00:37Z</time>
      </trkpt>
      <trkpt lat="47.77569" lon="-3.55378">
        <ele>38.7</ele>
        <time>2021-07-11T09:00:38Z</time>
      </trkpt>
      <trkpt lat="47.7757" lon="-3.55378">
        <ele>38.7</ele>
        <time>2021-07-11T09:00:39Z</time>
      </trkpt>
      <trkpt lat="47.77571" lon="-3.55378">
        <ele>38.7</ele>
        <time>2021-07-11T09:00:40Z</time>
      </trkpt>
      <trkpt lat="47.77572" lon="-3.55378">
        <ele>38.7</ele>
        <time>2021-07-11T09:00:41Z</time>
      </trkpt>
      <trkpt lat="47.77573" lon="-3.55378">
        <ele>38.7</ele>
        <time>2021-07-11T09:00:42Z</time>
      </trkpt>
      <trkpt lat="47.77574" lon="-3.55379">
        <ele>38.7</ele>
        <time>2021-07-11T09:00:43Z</time>
      </trkpt>
      <trkpt lat="47.77575" lon="-3.55379">
        <ele>38.7</ele>
        <time>2021-07-11T09:00:44Z</time>
      </trkpt>
      <trkpt lat="47.77576" lon="-3.55379">
        <ele>38.7</ele>
        <time>2021-07-11T09:00:45Z</time>
      </trkpt>
      <trkpt lat="47.77577" lon="-3.55379">
        <ele>38.7</ele>
        <time>2021-07-11T09:00:46Z</time>
      </trkpt>
      <trkpt lat="47.77578" lon="-3.55379">
        <ele>38.7</ele>
        <time>2021-07-11T09:00:47Z</time>
      </trkpt>
      <trkpt lat="47.7758" lon="-3.55379">
        <ele>38.7</ele>
        <time>2021-07-11T09:00:48Z</time>
      </trkpt>
      <trkpt lat="47.77581" lon="-3.55379">
        <ele>38.7</ele>
        <time>2021-07-11T09:00:49Z</time>
      </trkpt>
      <trkpt lat="47.77582" lon="-3.55378">
        <ele>38.7</ele>
        <time>2021-07-11T09:00:50Z</time>
      </trkpt>
      <trkpt lat="47.77583" lon="-3.55378">
        <ele>38.7</ele>
        <time>2021-07-11T09:00:51Z</time>
      </trkpt>
      <trkpt lat="47.77585" lon="-3.55378">
        <ele>38.7</ele>
        <time>2021-07-11T09:00:52Z</time>
      </trkpt>
      <trkpt lat="47.77586" lon="-3.55378">
        <ele>38.7</ele>
        <time>2021-07-11T09:00:53Z</time>
      </trkpt>
      <trkpt lat="47.77587" lon="-3.55377">
        <ele>38.7</ele>
        <time>2021-07-11T09:00:54Z</time>
      </trkpt>
      <trkpt lat="47.77589" lon="-3.55377">
        <ele>38.7</ele>
        <time>2021-07-11T09:00:55Z</time>
      </trkpt>
      <trkpt lat="47.7759" lon="-3.55377">
        <ele>38.7</ele>
        <time>2021-07-11T09:00:56Z</time>
      </trkpt>
      <trkpt lat="47.77592" lon="-3.55377">
        <ele>38.7</ele>
        <time>2021-07-11T09:00:57Z</time>
      </trkpt>
      <trkpt lat="47.77593" lon="-3.55377">
        <ele>38.7</ele>
        <time>2021-07-11T09:00:58Z</time>
      </trkpt>
      <trkpt lat="47.77595" lon="-3.55377">
        <ele>38.7</ele>
        <time>2021-07-11T09:00:59Z</time>
      </trkpt>
      <trkpt lat="47.77596" lon="-3.55377">
        <ele>38.7</ele>
        <time>2021-07-11T09:01:00Z</time>
      </trkpt>
      <trkpt lat="47.77597" lon="-3.55377">
        <ele>38.7</ele>
        <time>2021-07-11T09:01:01Z</time>
      </trkpt>
      <trkpt lat="47.77598" lon="-3.55377">
        <ele>38.7</ele>
        <time>2021-07-11T09:01:02Z</time>
      </trkpt>
      <trkpt lat="47.77599" lon="-3.55376">
        <ele>38.7</ele>
        <time>2021-07-11T09:01:03Z</time>
      </trkpt>
      <trkpt lat="47.77599" lon="-3.55376">
        <ele>38.6</ele>
        <time>2021-07-11T09:01:04Z</time>
      </trkpt>
      <trkpt lat="47.776" lon="-3.55375">
        <ele>38.6</ele>
        <time>2021-07-11T09:01:05Z</time>
      </trkpt>
      <trkpt lat="47.77601" lon="-3.55374">
        <ele>38.6</ele>
        <time>2021-07-11T09:01:06Z</time>
      </trkpt>
      <trkpt lat="47.77603" lon="-3.55374">
        <ele>38.6</ele>
        <time>2021-07-11T09:01:07Z</time>
      </trkpt>
      <trkpt lat="47.77605" lon="-3.55373">
        <ele>38.6</ele>
        <time>2021-07-11T09:01:08Z</time>
      </trkpt>
      <trkpt lat="47.77607" lon="-3.55372">
        <ele>38.6</ele>
        <time>2021-07-11T09:01:09Z</time>
      </trkpt>
      <trkpt lat="47.77608" lon="-3.55372">
        <ele>38.6</ele>
        <time>2021-07-11T09:01:10Z</time>
      </trkpt>
      <trkpt lat="47.7761" lon="-3.55371">
        <ele>38.5</ele>
        <time>2021-07-11T09:01:11Z</time>
      </trkpt>
      <trkpt lat="47.7761" lon="-3.55371">
        <ele>38.5</ele>
        <time>2021-07-11T09:01:12Z</time>
      </trkpt>
      <trkpt lat="47.77611" lon="-3.55371">
        <ele>38.5</ele>
        <time>2021-07-11T09:01:13Z</time>
      </trkpt>
      <trkpt lat="47.77612" lon="-3.55371">
        <ele>38.5</ele>
        <time>2021-07-11T09:01:14Z</time>
      </trkpt>
      <trkpt lat="47.77612" lon="-3.55371">
        <ele>38.5</ele>
        <time>2021-07-11T09:01:15Z</time>
      </trkpt>
      <trkpt lat="47.77612" lon="-3.55371">
        <ele>38.5</ele>
        <time>2021-07-11T09:01:16Z</time>
      </trkpt>
      <trkpt lat="47.77612" lon="-3.55371">
        <ele>38.5</ele>
        <time>2021-07-11T09:01:17Z</time>
      </trkpt>
      <trkpt lat="47.77612" lon="-3.55371">
        <ele>38.5</ele>
        <time>2021-07-11T09:01:18Z</time>
      </trkpt>
      <trkpt lat="47.77613" lon="-3.55371">
        <ele>38.5</ele>
        <time>2021-07-11T09:01:19Z</time>
      </trkpt>
      <trkpt lat="47.77615" lon="-3.5537">
        <ele>38.5</ele>
        <time>2021-07-11T09:01:20Z</time>
      </trkpt>
      <trkpt lat="47.7762" lon="-3.55369">
        <ele>38.4</ele>
        <time>2021-07-11T09:01:21Z</time>
      </trkpt>
      <trkpt lat="47.77621" lon="-3.55369">
        <ele>38.4</ele>
        <time>2021-07-11T09:01:22Z</time>
      </trkpt>
      <trkpt lat="47.77623" lon="-3.55368">
        <ele>38.3</ele>
        <time>2021-07-11T09:01:23Z</time>
      </trkpt>
      <trkpt lat="47.77624" lon="-3.55368">
        <ele>38.3</ele>
        <time>2021-07-11T09:01:24Z</time>
      </trkpt>
      <trkpt lat="47.77626" lon="-3.55368">
        <ele>38.3</ele>
        <time>2021-07-11T09:01:25Z</time>
      </trkpt>
      <trkpt lat="47.77627" lon="-3.55368">
        <ele>38.2</ele>
        <time>2021-07-11T09:01:26Z</time>
      </trkpt>
      <trkpt lat="47.77628" lon="-3.55368">
        <ele>38.2</ele>
        <time>2021-07-11T09:01:27Z</time>
      </trkpt>
      <trkpt lat="47.77629" lon="-3.55367">
        <ele>38.2</ele>
        <time>2021-07-11T09:01:28Z</time>
      </trkpt>
      <trkpt lat="47.7763" lon="-3.55367">
        <ele>38.1</ele>
        <time>2021-07-11T09:01:29Z</time>
      </trkpt>
      <trkpt lat="47.77631" lon="-3.55367">
        <ele>38.1</ele>
        <time>2021-07-11T09:01:30Z</time>
      </trkpt>
      <trkpt lat="47.77633" lon="-3.55366">
        <ele>38.1</ele>
        <time>2021-07-11T09:01:31Z</time>
      </trkpt>
      <trkpt lat="47.77634" lon="-3.55366">
        <ele>38</ele>
        <time>2021-07-11T09:01:32Z</time>
      </trkpt>
      <trkpt lat="47.77635" lon="-3.55366">
        <ele>38</ele>
        <time>2021-07-11T09:01:33Z</time>
      </trkpt>
      <trkpt lat="47.77636" lon="-3.55365">
        <ele>38</ele>
        <time>2021-07-11T09:01:34Z</time>
      </trkpt>
      <trkpt lat="47.77637" lon="-3.55365">
        <ele>37.9</ele>
        <time>2021-07-11T09:01:35Z</time>
      </trkpt>
      <trkpt lat="47.77638" lon="-3.55365">
        <ele>37.9</ele>
        <time>2021-07-11T09:01:36Z</time>
      </trkpt>
      <trkpt lat="47.77639" lon="-3.55364">
        <ele>37.8</ele>
        <time>2021-07-11T09:01:37Z</time>
      </trkpt>
      <trkpt lat="47.7764" lon="-3.55364">
        <ele>37.8</ele>
        <time>2021-07-11T09:01:38Z</time>
      </trkpt>
      <trkpt lat="47.77641" lon="-3.55364">
        <ele>37.7</ele>
        <time>2021-07-11T09:01:39Z</time>
      </trkpt>
      <trkpt lat="47.77642" lon="-3.55363">
        <ele>37.7</ele>
        <time>2021-07-11T09:01:40Z</time>
      </trkpt>
      <trkpt lat="47.77643" lon="-3.55363">
        <ele>37.6</ele>
        <time>2021-07-11T09:01:41Z</time>
      </trkpt>
      <trkpt lat="47.77644" lon="-3.55363">
        <ele>37.6</ele>
        <time>2021-07-11T09:01:42Z</time>
      </trkpt>
      <trkpt lat="47.77645" lon="-3.55362">
        <ele>37.5</ele>
        <time>2021-07-11T09:01:43Z</time>
      </trkpt>
      <trkpt lat="47.77646" lon="-3.55362">
        <ele>37.4</ele>
        <time>2021-07-11T09:01:44Z</time>
      </trkpt>
      <trkpt lat="47.77647" lon="-3.55362">
        <ele>37.4</ele>
        <time>2021-07-11T09:01:45Z</time>
      </trkpt>
      <trkpt lat="47.77648" lon="-3.55362">
        <ele>37.3</ele>
        <time>2021-07-11T09:01:46Z</time>
      </trkpt>
      <trkpt lat="47.77649" lon="-3.55361">
        <ele>37.3</ele>
        <time>2021-07-11T09:01:47Z</time>
      </trkpt>
      <trkpt lat="47.7765" lon="-3.55361">
        <ele>37.2</ele>
        <time>2021-07-11T09:01:48Z</time>
      </trkpt>
      <trkpt lat="47.77651" lon="-3.55361">
        <ele>37.1</ele>
        <time>2021-07-11T09:01:49Z</time>
      </trkpt>
      <trkpt lat="47.77652" lon="-3.5536">
        <ele>37</ele>
        <time>2021-07-11T09:01:50Z</time>
      </trkpt>
      <trkpt lat="47.77654" lon="-3.5536">
        <ele>37</ele>
        <time>2021-07-11T09:01:51Z</time>
      </trkpt>
      <trkpt lat="47.77655" lon="-3.5536">
        <ele>36.9</ele>
        <time>2021-07-11T09:01:52Z</time>
      </trkpt>
      <trkpt lat="47.77656" lon="-3.55359">
        <ele>36.8</ele>
        <time>2021-07-11T09:01:53Z</time>
      </trkpt>
      <trkpt lat="47.77657" lon="-3.55359">
        <ele>36.7</ele>
        <time>2021-07-11T09:01:54Z</time>
      </trkpt>
      <trkpt lat="47.77658" lon="-3.55359">
        <ele>36.7</ele>
        <time>2021-07-11T09:01:55Z</time>
      </trkpt>
      <trkpt lat="47.77659" lon="-3.55358">
        <ele>36.6</ele>
        <time>2021-07-11T09:01:56Z</time>
      </trkpt>
      <trkpt lat="47.7766" lon="-3.55358">
        <ele>36.5</ele>
        <time>2021-07-11T09:01:57Z</time>
      </trkpt>
      <trkpt lat="47.77663" lon="-3.55361">
        <ele>36.3</ele>
        <time>2021-07-11T09:01:58Z</time>
      </trkpt>
      <trkpt lat="47.77663" lon="-3.55362">
        <ele>35.7</ele>
        <time>2021-07-11T09:01:59Z</time>
      </trkpt>
      <trkpt lat="47.77664" lon="-3.55363">
        <ele>35.7</ele>
        <time>2021-07-11T09:02:00Z</time>
      </trkpt>
      <trkpt lat="47.77665" lon="-3.55364">
        <ele>35.7</ele>
        <time>2021-07-11T09:02:01Z</time>
      </trkpt>
      <trkpt lat="47.77666" lon="-3.55366">
        <ele>35.6</ele>
        <time>2021-07-11T09:02:02Z</time>
      </trkpt>
      <trkpt lat="47.77666" lon="-3.55367">
        <ele>35.6</ele>
        <time>2021-07-11T09:02:03Z</time>
      </trkpt>
      <trkpt lat="47.77668" lon="-3.5537">
        <ele>35.6</ele>
        <time>2021-07-11T09:02:04Z</time>
      </trkpt>
      <trkpt lat="47.77669" lon="-3.55371">
        <ele>35.5</ele>
        <time>2021-07-11T09:02:05Z</time>
      </trkpt>
      <trkpt lat="47.7767" lon="-3.55372">
        <ele>35.5</ele>
        <time>2021-07-11T09:02:06Z</time>
      </trkpt>
      <trkpt lat="47.7767" lon="-3.55374">
        <ele>35.5</ele>
        <time>2021-07-11T09:02:07Z</time>
      </trkpt>
      <trkpt lat="47.77671" lon="-3.55375">
        <ele>35.4</ele>
        <time>2021-07-11T09:02:08Z</time>
      </trkpt>
      <trkpt lat="47.77672" lon="-3.55376">
        <ele>35.4</ele>
        <time>2021-07-11T09:02:09Z</time>
      </trkpt>
      <trkpt lat="47.77673" lon="-3.55378">
        <ele>35.4</ele>
        <time>2021-07-11T09:02:10Z</time>
      </trkpt>
      <trkpt lat="47.77674" lon="-3.55379">
        <ele>35.3</ele>
        <time>2021-07-11T09:02:11Z</time>
      </trkpt>
      <trkpt lat="47.77675" lon="-3.5538">
        <ele>35.3</ele>
        <time>2021-07-11T09:02:12Z</time>
      </trkpt>
      <trkpt lat="47.77675" lon="-3.55381">
        <ele>35.3</ele>
        <time>2021-07-11T09:02:13Z</time>
      </trkpt>
      <trkpt lat="47.77676" lon="-3.55381">
        <ele>35.3</ele>
        <time>2021-07-11T09:02:14Z</time>
      </trkpt>
      <trkpt lat="47.77676" lon="-3.55382">
        <ele>35.3</ele>
        <time>2021-07-11T09:02:15Z</time>
      </trkpt>
      <trkpt lat="47.77677" lon="-3.55383">
        <ele>35.3</ele>
        <time>2021-07-11T09:02:16Z</time>
      </trkpt>
      <trkpt lat="47.77677" lon="-3.55383">
        <ele>35.2</ele>
        <time>2021-07-11T09:02:17Z</time>
      </trkpt>
      <trkpt lat="47.77678" lon="-3.55385">
        <ele>35.2</ele>
        <time>2021-07-11T09:02:18Z</time>
      </trkpt>
      <trkpt lat="47.7768" lon="-3.55387">
        <ele>35.1</ele>
        <time>2021-07-11T09:02:19Z</time>
      </trkpt>
      <trkpt lat="47.7768" lon="-3.55388">
        <ele>35.1</ele>
        <time>2021-07-11T09:02:20Z</time>
      </trkpt>
      <trkpt lat="47.77681" lon="-3.5539">
        <ele>35.1</ele>
        <time>2021-07-11T09:02:21Z</time>
      </trkpt>
      <trkpt lat="47.77681" lon="-3.55391">
        <ele>35</ele>
        <time>2021-07-11T09:02:22Z</time>
      </trkpt>
      <trkpt lat="47.77682" lon="-3.55393">
        <ele>35</ele>
        <time>2021-07-11T09:02:23Z</time>
      </trkpt>
      <trkpt lat="47.77682" lon="-3.55394">
        <ele>35</ele>
        <time>2021-07-11T09:02:24Z</time>
      </trkpt>
      <trkpt lat="47.77683" lon="-3.55396">
        <ele>34.9</ele>
        <time>2021-07-11T09:02:25Z</time>
      </trkpt>
      <trkpt lat="47.77684" lon="-3.55398">
        <ele>34.9</ele>
        <time>2021-07-11T09:02:26Z</time>
      </trkpt>
      <trkpt lat="47.77684" lon="-3.554">
        <ele>34.9</ele>
        <time>2021-07-11T09:02:27Z</time>
      </trkpt>
      <trkpt lat="47.77685" lon="-3.55401">
        <ele>34.8</ele>
        <time>2021-07-11T09:02:28Z</time>
      </trkpt>
      <trkpt lat="47.77686" lon="-3.55402">
        <ele>34.8</ele>
        <time>2021-07-11T09:02:29Z</time>
      </trkpt>
      <trkpt lat="47.77686" lon="-3.55403">
        <ele>34.8</ele>
        <time>2021-07-11T09:02:30Z</time>
      </trkpt>
      <trkpt lat="47.77686" lon="-3.55403">
        <ele>34.8</ele>
        <time>2021-07-11T09:02:31Z</time>
      </trkpt>
      <trkpt lat="47.77686" lon="-3.55403">
        <ele>34.8</ele>
        <time>2021-07-11T09:02:32Z</time>
      </trkpt>
      <trkpt lat="47.77686" lon="-3.55404">
        <ele>34.8</ele>
        <time>2021-07-11T09:02:33Z</time>
      </trkpt>
      <trkpt lat="47.77686" lon="-3.55404">
        <ele>34.8</ele>
        <time>2021-07-11T09:02:34Z</time>
      </trkpt>
      <trkpt lat="47.77686" lon="-3.55404">
        <ele>34.8</ele>
        <time>2021-07-11T09:02:35Z</time>
      </trkpt>
      <trkpt lat="47.77686" lon="-3.55404">
        <ele>34.8</ele>
        <time>2021-07-11T09:02:36Z</time>
      </trkpt>
      <trkpt lat="47.77686" lon="-3.55404">
        <ele>34.8</ele>
        <time>2021-07-11T09:02:37Z</time>
      </trkpt>
      <trkpt lat="47.77687" lon="-3.55405">
        <ele>34.7</ele>
        <time>2021-07-11T09:02:38Z</time>
      </trkpt>
      <trkpt lat="47.7769" lon="-3.55411">
        <ele>34.6</ele>
        <time>2021-07-11T09:02:39Z</time>
      </trkpt>
      <trkpt lat="47.77692" lon="-3.55414">
        <ele>34.5</ele>
        <time>2021-07-11T09:02:40Z</time>
      </trkpt>
      <trkpt lat="47.77693" lon="-3.55416">
        <ele>34.4</ele>
        <time>2021-07-11T09:02:41Z</time>
      </trkpt>
      <trkpt lat="47.77694" lon="-3.55416">
        <ele>34.4</ele>
        <time>2021-07-11T09:02:42Z</time>
      </trkpt>
      <trkpt lat="47.77694" lon="-3.55417">
        <ele>34.4</ele>
        <time>2021-07-11T09:02:43Z</time>
      </trkpt>
      <trkpt lat="47.77694" lon="-3.55417">
        <ele>34.4</ele>
        <time>2021-07-11T09:02:44Z</time>
      </trkpt>
      <trkpt lat="47.77694" lon="-3.55417">
        <ele>34.4</ele>
        <time>2021-07-11T09:02:45Z</time>
      </trkpt>
      <trkpt lat="47.77694" lon="-3.55417">
        <ele>34.4</ele>
        <time>2021-07-11T09:02:46Z</time>
      </trkpt>
      <trkpt lat="47.77694" lon="-3.55418">
        <ele>34.4</ele>
        <time>2021-07-11T09:02:47Z</time>
      </trkpt>
      <trkpt lat="47.77695" lon="-3.55419">
        <ele>34.3</ele>
        <time>2021-07-11T09:02:48Z</time>
      </trkpt>
      <trkpt lat="47.77696" lon="-3.55422">
        <ele>34.3</ele>
        <time>2021-07-11T09:02:49Z</time>
      </trkpt>
      <trkpt lat="47.77698" lon="-3.55427">
        <ele>34.1</ele>
        <time>2021-07-11T09:02:50Z</time>
      </trkpt>
      <trkpt lat="47.777" lon="-3.5543">
        <ele>34</ele>
        <time>2021-07-11T09:02:51Z</time>
      </trkpt>
      <trkpt lat="47.77701" lon="-3.55433">
        <ele>33.9</ele>
        <time>2021-07-11T09:02:52Z</time>
      </trkpt>
      <trkpt lat="47.77702" lon="-3.55436">
        <ele>33.9</ele>
        <time>2021-07-11T09:02:53Z</time>
      </trkpt>
      <trkpt lat="47.77703" lon="-3.55437">
        <ele>33.8</ele>
        <time>2021-07-11T09:02:54Z</time>
      </trkpt>
      <trkpt lat="47.77704" lon="-3.55438">
        <ele>33.8</ele>
        <time>2021-07-11T09:02:55Z</time>
      </trkpt>
      <trkpt lat="47.77704" lon="-3.55439">
        <ele>33.8</ele>
        <time>2021-07-11T09:02:56Z</time>
      </trkpt>
      <trkpt lat="47.77705" lon="-3.5544">
        <ele>33.7</ele>
        <time>2021-07-11T09:02:57Z</time>
      </trkpt>
      <trkpt lat="47.77705" lon="-3.55441">
        <ele>33.7</ele>
        <time>2021-07-11T09:02:58Z</time>
      </trkpt>
      <trkpt lat="47.77706" lon="-3.55442">
        <ele>33.7</ele>
        <time>2021-07-11T09:02:59Z</time>
      </trkpt>
      <trkpt lat="47.77707" lon="-3.55444">
        <ele>33.6</ele>
        <time>2021-07-11T09:03:00Z</time>
      </trkpt>
      <trkpt lat="47.77707" lon="-3.55445">
        <ele>33.6</ele>
        <time>2021-07-11T09:03:01Z</time>
      </trkpt>
      <trkpt lat="47.77708" lon="-3.55446">
        <ele>33.6</ele>
        <time>2021-07-11T09:03:02Z</time>
      </trkpt>
      <trkpt lat="47.77708" lon="-3.55447">
        <ele>33.5</ele>
        <time>2021-07-11T09:03:03Z</time>
      </trkpt>
      <trkpt lat="47.77709" lon="-3.55448">
        <ele>33.5</ele>
        <time>2021-07-11T09:03:04Z</time>
      </trkpt>
      <trkpt lat="47.7771" lon="-3.55449">
        <ele>33.5</ele>
        <time>2021-07-11T09:03:05Z</time>
      </trkpt>
      <trkpt lat="47.7771" lon="-3.5545">
        <ele>33.5</ele>
        <time>2021-07-11T09:03:06Z</time>
      </trkpt>
      <trkpt lat="47.77711" lon="-3.55451">
        <ele>33.4</ele>
        <time>2021-07-11T09:03:07Z</time>
      </trkpt>
      <trkpt lat="47.77711" lon="-3.55453">
        <ele>33.4</ele>
        <time>2021-07-11T09:03:08Z</time>
      </trkpt>
      <trkpt lat="47.77712" lon="-3.55454">
        <ele>33.4</ele>
        <time>2021-07-11T09:03:09Z</time>
      </trkpt>
      <trkpt lat="47.77713" lon="-3.55455">
        <ele>33.4</ele>
        <time>2021-07-11T09:03:10Z</time>
      </trkpt>
      <trkpt lat="47.77713" lon="-3.55456">
        <ele>33.4</ele>
        <time>2021-07-11T09:03:11Z</time>
      </trkpt>
      <trkpt lat="47.77714" lon="-3.55457">
        <ele>33.3</ele>
        <time>2021-07-11T09:03:12Z</time>
      </trkpt>
      <trkpt lat="47.77716" lon="-3.55461">
        <ele>33.3</ele>
        <time>2021-07-11T09:03:13Z</time>
      </trkpt>
      <trkpt lat="47.77716" lon="-3.55463">
        <ele>33.3</ele>
        <time>2021-07-11T09:03:14Z</time>
      </trkpt>
      <trkpt lat="47.77717" lon="-3.55464">
        <ele>33.2</ele>
        <time>2021-07-11T09:03:15Z</time>
      </trkpt>
      <trkpt lat="47.77717" lon="-3.55465">
        <ele>33.2</ele>
        <time>2021-07-11T09:03:16Z</time>
      </trkpt>
      <trkpt lat="47.77718" lon="-3.55466">
        <ele>33.2</ele>
        <time>2021-07-11T09:03:17Z</time>
      </trkpt>
      <trkpt lat="47.77719" lon="-3.55468">
        <ele>33.2</ele>
        <time>2021-07-11T09:03:18Z</time>
      </trkpt>
      <trkpt lat="47.77719" lon="-3.55469">
        <ele>33.2</ele>
        <time>2021-07-11T09:03:19Z</time>
      </trkpt>
      <trkpt lat="47.7772" lon="-3.5547">
        <ele>33.2</ele>
        <time>2021-07-11T09:03:20Z</time>
      </trkpt>
      <trkpt lat="47.7772" lon="-3.55471">
        <ele>33.1</ele>
        <time>2021-07-11T09:03:21Z</time>
      </trkpt>
      <trkpt lat="47.77721" lon="-3.55472">
        <ele>33.1</ele>
        <time>2021-07-11T09:03:22Z</time>
      </trkpt>
      <trkpt lat="47.77722" lon="-3.55474">
        <ele>33.1</ele>
        <time>2021-07-11T09:03:23Z</time>
      </trkpt>
      <trkpt lat="47.77722" lon="-3.55475">
        <ele>33.1</ele>
        <time>2021-07-11T09:03:24Z</time>
      </trkpt>
      <trkpt lat="47.77723" lon="-3.55476">
        <ele>33.1</ele>
        <time>2021-07-11T09:03:25Z</time>
      </trkpt>
      <trkpt lat="47.77724" lon="-3.55477">
        <ele>33.1</ele>
        <time>2021-07-11T09:03:26Z</time>
      </trkpt>
      <trkpt lat="47.77726" lon="-3.55481">
        <ele>33.1</ele>
        <time>2021-07-11T09:03:27Z</time>
      </trkpt>
      <trkpt lat="47.77727" lon="-3.55482">
        <ele>33.1</ele>
        <time>2021-07-11T09:03:28Z</time>
      </trkpt>
      <trkpt lat="47.77728" lon="-3.55483">
        <ele>33.1</ele>
        <time>2021-07-11T09:03:29Z</time>
      </trkpt>
      <trkpt lat="47.77729" lon="-3.55484">
        <ele>33.1</ele>
        <time>2021-07-11T09:03:30Z</time>
      </trkpt>
      <trkpt lat="47.77729" lon="-3.55486">
        <ele>33.1</ele>
        <time>2021-07-11T09:03:31Z</time>
      </trkpt>
      <trkpt lat="47.7773" lon="-3.55487">
        <ele>33.1</ele>
        <time>2021-07-11T09:03:32Z</time>
      </trkpt>
      <trkpt lat="47.77731" lon="-3.55488">
        <ele>33.1</ele>
        <time>2021-07-11T09:03:33Z</time>
      </trkpt>
      <trkpt lat="47.77732" lon="-3.55489">
        <ele>33.1</ele>
        <time>2021-07-11T09:03:34Z</time>
      </trkpt>
      <trkpt lat="47.77733" lon="-3.55491">
        <ele>33.1</ele>
        <time>2021-07-11T09:03:35Z</time>
      </trkpt>
      <trkpt lat="47.77734" lon="-3.55492">
        <ele>33.1</ele>
        <time>2021-07-11T09:03:36Z</time>
      </trkpt>
      <trkpt lat="47.77735" lon="-3.55493">
        <ele>33.1</ele>
        <time>2021-07-11T09:03:37Z</time>
      </trkpt>
      <trkpt lat="47.77737" lon="-3.55496">
        <ele>33.1</ele>
        <time>2021-07-11T09:03:38Z</time>
      </trkpt>
      <trkpt lat="47.77738" lon="-3.55497">
        <ele>33.1</ele>
        <time>2021-07-11T09:03:39Z</time>
      </trkpt>
      <trkpt lat="47.77738" lon="-3.55498">
        <ele>33.1</ele>
        <time>2021-07-11T09:03:40Z</time>
      </trkpt>
      <trkpt lat="47.77739" lon="-3.55499">
        <ele>33.1</ele>
        <time>2021-07-11T09:03:41Z</time>
      </trkpt>
      <trkpt lat="47.7774" lon="-3.555">
        <ele>33.1</ele>
        <time>2021-07-11T09:03:42Z</time>
      </trkpt>
      <trkpt lat="47.77741" lon="-3.55502">
        <ele>33.1</ele>
        <time>2021-07-11T09:03:43Z</time>
      </trkpt>
      <trkpt lat="47.77742" lon="-3.55503">
        <ele>33.1</ele>
        <time>2021-07-11T09:03:44Z</time>
      </trkpt>
      <trkpt lat="47.77743" lon="-3.55504">
        <ele>33.1</ele>
        <time>2021-07-11T09:03:45Z</time>
      </trkpt>
      <trkpt lat="47.77743" lon="-3.55505">
        <ele>33.1</ele>
        <time>2021-07-11T09:03:46Z</time>
      </trkpt>
      <trkpt lat="47.77744" lon="-3.55507">
        <ele>33.1</ele>
        <time>2021-07-11T09:03:47Z</time>
      </trkpt>
      <trkpt lat="47.77745" lon="-3.55508">
        <ele>33.1</ele>
        <time>2021-07-11T09:03:48Z</time>
      </trkpt>
      <trkpt lat="47.77746" lon="-3.55509">
        <ele>33.1</ele>
        <time>2021-07-11T09:03:49Z</time>
      </trkpt>
      <trkpt lat="47.77747" lon="-3.5551">
        <ele>33.2</ele>
        <time>2021-07-11T09:03:50Z</time>
      </trkpt>
      <trkpt lat="47.77747" lon="-3.55511">
        <ele>33.2</ele>
        <time>2021-07-11T09:03:51Z</time>
      </trkpt>
      <trkpt lat="47.77748" lon="-3.55513">
        <ele>33.2</ele>
        <time>2021-07-11T09:03:52Z</time>
      </trkpt>
      <trkpt lat="47.77749" lon="-3.55514">
        <ele>33.2</ele>
        <time>2021-07-11T09:03:53Z</time>
      </trkpt>
      <trkpt lat="47.7775" lon="-3.55515">
        <ele>33.2</ele>
        <time>2021-07-11T09:03:54Z</time>
      </trkpt>
      <trkpt lat="47.7775" lon="-3.55516">
        <ele>33.2</ele>
        <time>2021-07-11T09:03:55Z</time>
      </trkpt>
      <trkpt lat="47.77751" lon="-3.55517">
        <ele>33.2</ele>
        <time>2021-07-11T09:03:56Z</time>
      </trkpt>
      <trkpt lat="47.77751" lon="-3.55518">
        <ele>33.2</ele>
        <time>2021-07-11T09:03:57Z</time>
      </trkpt>
      <trkpt lat="47.77752" lon="-3.55519">
        <ele>33.3</ele>
        <time>2021-07-11T09:03:58Z</time>
      </trkpt>
      <trkpt lat="47.77752" lon="-3.5552">
        <ele>33.3</ele>
        <time>2021-07-11T09:03:59Z</time>
      </trkpt>
      <trkpt lat="47.77752" lon="-3.55521">
        <ele>33.3</ele>
        <time>2021-07-11T09:04:00Z</time>
      </trkpt>
      <trkpt lat="47.77753" lon="-3.55522">
        <ele>33.3</ele>
        <time>2021-07-11T09:04:01Z</time>
      </trkpt>
      <trkpt lat="47.77753" lon="-3.55523">
        <ele>33.3</ele>
        <time>2021-07-11T09:04:02Z</time>
      </trkpt>
      <trkpt lat="47.77754" lon="-3.55524">
        <ele>33.3</ele>
        <time>2021-07-11T09:04:03Z</time>
      </trkpt>
      <trkpt lat="47.77754" lon="-3.55525">
        <ele>33.3</ele>
        <time>2021-07-11T09:04:04Z</time>
      </trkpt>
      <trkpt lat="47.77754" lon="-3.55525">
        <ele>33.3</ele>
        <time>2021-07-11T09:04:05Z</time>
      </trkpt>
      <trkpt lat="47.77755" lon="-3.55526">
        <ele>33.4</ele>
        <time>2021-07-11T09:04:06Z</time>
      </trkpt>
      <trkpt lat="47.77756" lon="-3.55529">
        <ele>33.4</ele>
        <time>2021-07-11T09:04:07Z</time>
      </trkpt>
      <trkpt lat="47.77757" lon="-3.5553">
        <ele>33.4</ele>
        <time>2021-07-11T09:04:08Z</time>
      </trkpt>
      <trkpt lat="47.77757" lon="-3.55531">
        <ele>33.4</ele>
        <time>2021-07-11T09:04:09Z</time>
      </trkpt>
      <trkpt lat="47.77758" lon="-3.55532">
        <ele>33.4</ele>
        <time>2021-07-11T09:04:10Z</time>
      </trkpt>
      <trkpt lat="47.77758" lon="-3.55533">
        <ele>33.5</ele>
        <time>2021-07-11T09:04:11Z</time>
      </trkpt>
      <trkpt lat="47.77758" lon="-3.55535">
        <ele>33.5</ele>
        <time>2021-07-11T09:04:12Z</time>
      </trkpt>
      <trkpt lat="47.77758" lon="-3.55537">
        <ele>33</ele>
        <time>2021-07-11T09:04:13Z</time>
      </trkpt>
      <trkpt lat="47.77758" lon="-3.55539">
        <ele>32.9</ele>
        <time>2021-07-11T09:04:14Z</time>
      </trkpt>
      <trkpt lat="47.77758" lon="-3.55541">
        <ele>32.8</ele>
        <time>2021-07-11T09:04:15Z</time>
      </trkpt>
      <trkpt lat="47.77758" lon="-3.55543">
        <ele>32.7</ele>
        <time>2021-07-11T09:04:16Z</time>
      </trkpt>
      <trkpt lat="47.77757" lon="-3.55543">
        <ele>32.7</ele>
        <time>2021-07-11T09:04:17Z</time>
      </trkpt>
      <trkpt lat="47.77757" lon="-3.55544">
        <ele>32.7</ele>
        <time>2021-07-11T09:04:18Z</time>
      </trkpt>
      <trkpt lat="47.77757" lon="-3.55544">
        <ele>32.7</ele>
        <time>2021-07-11T09:04:19Z</time>
      </trkpt>
      <trkpt lat="47.77757" lon="-3.55544">
        <ele>32.7</ele>
        <time>2021-07-11T09:04:20Z</time>
      </trkpt>
      <trkpt lat="47.77757" lon="-3.55544">
        <ele>32.7</ele>
        <time>2021-07-11T09:04:21Z</time>
      </trkpt>
      <trkpt lat="47.77757" lon="-3.55544">
        <ele>32.7</ele>
        <time>2021-07-11T09:04:22Z</time>
      </trkpt>
      <trkpt lat="47.77757" lon="-3.55545">
        <ele>32.6</ele>
        <time>2021-07-11T09:04:23Z</time>
      </trkpt>
      <trkpt lat="47.77756" lon="-3.55545">
        <ele>32.6</ele>
        <time>2021-07-11T09:04:24Z</time>
      </trkpt>
      <trkpt lat="47.77755" lon="-3.55546">
        <ele>32.5</ele>
        <time>2021-07-11T09:04:25Z</time>
      </trkpt>
      <trkpt lat="47.77753" lon="-3.55546">
        <ele>32.4</ele>
        <time>2021-07-11T09:04:26Z</time>
      </trkpt>
      <trkpt lat="47.77751" lon="-3.55546">
        <ele>32.3</ele>
        <time>2021-07-11T09:04:27Z</time>
      </trkpt>
      <trkpt lat="47.7775" lon="-3.55546">
        <ele>32.2</ele>
        <time>2021-07-11T09:04:28Z</time>
      </trkpt>
      <trkpt lat="47.77748" lon="-3.55546">
        <ele>32.1</ele>
        <time>2021-07-11T09:04:29Z</time>
      </trkpt>
      <trkpt lat="47.77747" lon="-3.55545">
        <ele>32</ele>
        <time>2021-07-11T09:04:30Z</time>
      </trkpt>
      <trkpt lat="47.77746" lon="-3.55545">
        <ele>31.9</ele>
        <time>2021-07-11T09:04:31Z</time>
      </trkpt>
      <trkpt lat="47.77744" lon="-3.55545">
        <ele>31.8</ele>
        <time>2021-07-11T09:04:32Z</time>
      </trkpt>
      <trkpt lat="47.77743" lon="-3.55545">
        <ele>31.8</ele>
        <time>2021-07-11T09:04:33Z</time>
      </trkpt>
      <trkpt lat="47.77742" lon="-3.55545">
        <ele>31.7</ele>
        <time>2021-07-11T09:04:34Z</time>
      </trkpt>
      <trkpt lat="47.77741" lon="-3.55545">
        <ele>31.6</ele>
        <time>2021-07-11T09:04:35Z</time>
      </trkpt>
      <trkpt lat="47.77739" lon="-3.55545">
        <ele>31.5</ele>
        <time>2021-07-11T09:04:36Z</time>
      </trkpt>
      <trkpt lat="47.77738" lon="-3.55545">
        <ele>31.4</ele>
        <time>2021-07-11T09:04:37Z</time>
      </trkpt>
      <trkpt lat="47.77737" lon="-3.55545">
        <ele>31.3</ele>
        <time>2021-07-11T09:04:38Z</time>
      </trkpt>
      <trkpt lat="47.77735" lon="-3.55545">
        <ele>31.2</ele>
        <time>2021-07-11T09:04:39Z</time>
      </trkpt>
      <trkpt lat="47.77734" lon="-3.55546">
        <ele>31.1</ele>
        <time>2021-07-11T09:04:40Z</time>
      </trkpt>
      <trkpt lat="47.77733" lon="-3.55546">
        <ele>31.1</ele>
        <time>2021-07-11T09:04:41Z</time>
      </trkpt>
      <trkpt lat="47.77732" lon="-3.55546">
        <ele>31</ele>
        <time>2021-07-11T09:04:42Z</time>
      </trkpt>
      <trkpt lat="47.7773" lon="-3.55546">
        <ele>30.9</ele>
        <time>2021-07-11T09:04:43Z</time>
      </trkpt>
      <trkpt lat="47.77729" lon="-3.55547">
        <ele>30.8</ele>
        <time>2021-07-11T09:04:44Z</time>
      </trkpt>
      <trkpt lat="47.77728" lon="-3.55547">
        <ele>30.7</ele>
        <time>2021-07-11T09:04:45Z</time>
      </trkpt>
      <trkpt lat="47.77726" lon="-3.55547">
        <ele>30.6</ele>
        <time>2021-07-11T09:04:46Z</time>
      </trkpt>
      <trkpt lat="47.77725" lon="-3.55547">
        <ele>30.5</ele>
        <time>2021-07-11T09:04:47Z</time>
      </trkpt>
      <trkpt lat="47.77724" lon="-3.55548">
        <ele>30.5</ele>
        <time>2021-07-11T09:04:48Z</time>
      </trkpt>
      <trkpt lat="47.77723" lon="-3.55548">
        <ele>30.4</ele>
        <time>2021-07-11T09:04:49Z</time>
      </trkpt>
      <trkpt lat="47.77721" lon="-3.55548">
        <ele>30.3</ele>
        <time>2021-07-11T09:04:50Z</time>
      </trkpt>
      <trkpt lat="47.7772" lon="-3.55549">
        <ele>30.2</ele>
        <time>2021-07-11T09:04:51Z</time>
      </trkpt>
      <trkpt lat="47.77719" lon="-3.55549">
        <ele>30.2</ele>
        <time>2021-07-11T09:04:52Z</time>
      </trkpt>
      <trkpt lat="47.77718" lon="-3.5555">
        <ele>30.1</ele>
        <time>2021-07-11T09:04:53Z</time>
      </trkpt>
      <trkpt lat="47.77717" lon="-3.5555">
        <ele>30</ele>
        <time>2021-07-11T09:04:54Z</time>
      </trkpt>
      <trkpt lat="47.77715" lon="-3.5555">
        <ele>30</ele>
        <time>2021-07-11T09:04:55Z</time>
      </trkpt>
      <trkpt lat="47.77714" lon="-3.55551">
        <ele>29.9</ele>
        <time>2021-07-11T09:04:56Z</time>
      </trkpt>
      <trkpt lat="47.77713" lon="-3.55551">
        <ele>29.9</ele>
        <time>2021-07-11T09:04:57Z</time>
      </trkpt>
      <trkpt lat="47.77712" lon="-3.55551">
        <ele>29.8</ele>
        <time>2021-07-11T09:04:58Z</time>
      </trkpt>
      <trkpt lat="47.77711" lon="-3.55552">
        <ele>29.8</ele>
        <time>2021-07-11T09:04:59Z</time>
      </trkpt>
      <trkpt lat="47.77709" lon="-3.55552">
        <ele>29.7</ele>
        <time>2021-07-11T09:05:00Z</time>
      </trkpt>
      <trkpt lat="47.77708" lon="-3.55553">
        <ele>29.7</ele>
        <time>2021-07-11T09:05:01Z</time>
      </trkpt>
      <trkpt lat="47.77707" lon="-3.55553">
        <ele>29.6</ele>
        <time>2021-07-11T09:05:02Z</time>
      </trkpt>
      <trkpt lat="47.77706" lon="-3.55554">
        <ele>29.5</ele>
        <time>2021-07-11T09:05:03Z</time>
      </trkpt>
      <trkpt lat="47.77704" lon="-3.55555">
        <ele>29.4</ele>
        <time>2021-07-11T09:05:04Z</time>
      </trkpt>
      <trkpt lat="47.77703" lon="-3.55556">
        <ele>29.4</ele>
        <time>2021-07-11T09:05:05Z</time>
      </trkpt>
      <trkpt lat="47.77702" lon="-3.55557">
        <ele>29.4</ele>
        <time>2021-07-11T09:05:06Z</time>
      </trkpt>
      <trkpt lat="47.77701" lon="-3.55558">
        <ele>29.3</ele>
        <time>2021-07-11T09:05:07Z</time>
      </trkpt>
      <trkpt lat="47.777" lon="-3.55559">
        <ele>29.3</ele>
        <time>2021-07-11T09:05:08Z</time>
      </trkpt>
      <trkpt lat="47.77699" lon="-3.5556">
        <ele>29.2</ele>
        <time>2021-07-11T09:05:09Z</time>
      </trkpt>
      <trkpt lat="47.77698" lon="-3.55561">
        <ele>29.2</ele>
        <time>2021-07-11T09:05:10Z</time>
      </trkpt>
      <trkpt lat="47.77697" lon="-3.55562">
        <ele>29.2</ele>
        <time>2021-07-11T09:05:11Z</time>
      </trkpt>
      <trkpt lat="47.77696" lon="-3.55563">
        <ele>29.1</ele>
        <time>2021-07-11T09:05:12Z</time>
      </trkpt>
      <trkpt lat="47.77695" lon="-3.55564">
        <ele>29.1</ele>
        <time>2021-07-11T09:05:13Z</time>
      </trkpt>
      <trkpt lat="47.77694" lon="-3.55565">
        <ele>29.1</ele>
        <time>2021-07-11T09:05:14Z</time>
      </trkpt>
      <trkpt lat="47.77693" lon="-3.55566">
        <ele>29</ele>
        <time>2021-07-11T09:05:15Z</time>
      </trkpt>
      <trkpt lat="47.77692" lon="-3.55567">
        <ele>29</ele>
        <time>2021-07-11T09:05:16Z</time>
      </trkpt>
      <trkpt lat="47.77691" lon="-3.55568">
        <ele>29</ele>
        <time>2021-07-11T09:05:17Z</time>
      </trkpt>
      <trkpt lat="47.7769" lon="-3.55568">
        <ele>28.9</ele>
        <time>2021-07-11T09:05:18Z</time>
      </trkpt>
      <trkpt lat="47.77689" lon="-3.55569">
        <ele>28.9</ele>
        <time>2021-07-11T09:05:19Z</time>
      </trkpt>
      <trkpt lat="47.77688" lon="-3.5557">
        <ele>28.9</ele>
        <time>2021-07-11T09:05:20Z</time>
      </trkpt>
      <trkpt lat="47.77687" lon="-3.55571">
        <ele>28.9</ele>
        <time>2021-07-11T09:05:21Z</time>
      </trkpt>
      <trkpt lat="47.77686" lon="-3.55572">
        <ele>28.9</ele>
        <time>2021-07-11T09:05:22Z</time>
      </trkpt>
      <trkpt lat="47.77685" lon="-3.55573">
        <ele>28.8</ele>
        <time>2021-07-11T09:05:23Z</time>
      </trkpt>
      <trkpt lat="47.77684" lon="-3.55574">
        <ele>28.8</ele>
        <time>2021-07-11T09:05:24Z</time>
      </trkpt>
      <trkpt lat="47.77683" lon="-3.55575">
        <ele>28.8</ele>
        <time>2021-07-11T09:05:25Z</time>
      </trkpt>
      <trkpt lat="47.77682" lon="-3.55576">
        <ele>28.8</ele>
        <time>2021-07-11T09:05:26Z</time>
      </trkpt>
      <trkpt lat="47.77681" lon="-3.55577">
        <ele>28.8</ele>
        <time>2021-07-11T09:05:27Z</time>
      </trkpt>
      <trkpt lat="47.7768" lon="-3.55578">
        <ele>28.8</ele>
        <time>2021-07-11T09:05:28Z</time>
      </trkpt>
      <trkpt lat="47.77679" lon="-3.55579">
        <ele>28.8</ele>
        <time>2021-07-11T09:05:29Z</time>
      </trkpt>
      <trkpt lat="47.77678" lon="-3.5558">
        <ele>28.8</ele>
        <time>2021-07-11T09:05:30Z</time>
      </trkpt>
      <trkpt lat="47.77678" lon="-3.55581">
        <ele>28.8</ele>
        <time>2021-07-11T09:05:31Z</time>
      </trkpt>
      <trkpt lat="47.77677" lon="-3.55582">
        <ele>28.8</ele>
        <time>2021-07-11T09:05:32Z</time>
      </trkpt>
      <trkpt lat="47.77676" lon="-3.55583">
        <ele>28.8</ele>
        <time>2021-07-11T09:05:33Z</time>
      </trkpt>
      <trkpt lat="47.77675" lon="-3.55584">
        <ele>28.8</ele>
        <time>2021-07-11T09:05:34Z</time>
      </trkpt>
      <trkpt lat="47.77674" lon="-3.55585">
        <ele>28.8</ele>
        <time>2021-07-11T09:05:35Z</time>
      </trkpt>
      <trkpt lat="47.77673" lon="-3.55585">
        <ele>28.8</ele>
        <time>2021-07-11T09:05:36Z</time>
      </trkpt>
      <trkpt lat="47.77672" lon="-3.55586">
        <ele>28.8</ele>
        <time>2021-07-11T09:05:37Z</time>
      </trkpt>
      <trkpt lat="47.77671" lon="-3.55587">
        <ele>28.8</ele>
        <time>2021-07-11T09:05:38Z</time>
      </trkpt>
      <trkpt lat="47.7767" lon="-3.55588">
        <ele>28.8</ele>
        <time>2021-07-11T09:05:39Z</time>
      </trkpt>
      <trkpt lat="47.77669" lon="-3.55589">
        <ele>28.8</ele>
        <time>2021-07-11T09:05:40Z</time>
      </trkpt>
      <trkpt lat="47.77668" lon="-3.5559">
        <ele>28.9</ele>
        <time>2021-07-11T09:05:41Z</time>
      </trkpt>
      <trkpt lat="47.77667" lon="-3.55591">
        <ele>28.9</ele>
        <time>2021-07-11T09:05:42Z</time>
      </trkpt>
      <trkpt lat="47.77666" lon="-3.55592">
        <ele>28.9</ele>
        <time>2021-07-11T09:05:43Z</time>
      </trkpt>
      <trkpt lat="47.77665" lon="-3.55593">
        <ele>28.9</ele>
        <time>2021-07-11T09:05:44Z</time>
      </trkpt>
      <trkpt lat="47.77664" lon="-3.55594">
        <ele>28.9</ele>
        <time>2021-07-11T09:05:45Z</time>
      </trkpt>
      <trkpt lat="47.77663" lon="-3.55595">
        <ele>29</ele>
        <time>2021-07-11T09:05:46Z</time>
      </trkpt>
      <trkpt lat="47.77662" lon="-3.55596">
        <ele>29</ele>
        <time>2021-07-11T09:05:47Z</time>
      </trkpt>
      <trkpt lat="47.7766" lon="-3.55597">
        <ele>29</ele>
        <time>2021-07-11T09:05:48Z</time>
      </trkpt>
      <trkpt lat="47.77659" lon="-3.55598">
        <ele>29</ele>
        <time>2021-07-11T09:05:49Z</time>
      </trkpt>
      <trkpt lat="47.77658" lon="-3.55599">
        <ele>29.1</ele>
        <time>2021-07-11T09:05:50Z</time>
      </trkpt>
      <trkpt lat="47.77657" lon="-3.556">
        <ele>29.1</ele>
        <time>2021-07-11T09:05:51Z</time>
      </trkpt>
      <trkpt lat="47.77656" lon="-3.55601">
        <ele>29.1</ele>
        <time>2021-07-11T09:05:52Z</time>
      </trkpt>
      <trkpt lat="47.77655" lon="-3.55602">
        <ele>29.2</ele>
        <time>2021-07-11T09:05:53Z</time>
      </trkpt>
      <trkpt lat="47.77654" lon="-3.55603">
        <ele>29.2</ele>
        <time>2021-07-11T09:05:54Z</time>
      </trkpt>
      <trkpt lat="47.77653" lon="-3.55604">
        <ele>29.2</ele>
        <time>2021-07-11T09:05:55Z</time>
      </trkpt>
      <trkpt lat="47.77653" lon="-3.55605">
        <ele>29.2</ele>
        <time>2021-07-11T09:05:56Z</time>
      </trkpt>
      <trkpt lat="47.77652" lon="-3.55606">
        <ele>29.3</ele>
        <time>2021-07-11T09:05:57Z</time>
      </trkpt>
      <trkpt lat="47.77651" lon="-3.55607">
        <ele>29.3</ele>
        <time>2021-07-11T09:05:58Z</time>
      </trkpt>
      <trkpt lat="47.77649" lon="-3.55608">
        <ele>29.3</ele>
        <time>2021-07-11T09:05:59Z</time>
      </trkpt>
      <trkpt lat="47.77648" lon="-3.55609">
        <ele>29.4</ele>
        <time>2021-07-11T09:06:00Z</time>
      </trkpt>
      <trkpt lat="47.77647" lon="-3.55611">
        <ele>29.4</ele>
        <time>2021-07-11T09:06:01Z</time>
      </trkpt>
      <trkpt lat="47.77646" lon="-3.55612">
        <ele>29.5</ele>
        <time>2021-07-11T09:06:02Z</time>
      </trkpt>
      <trkpt lat="47.77645" lon="-3.55613">
        <ele>29.5</ele>
        <time>2021-07-11T09:06:03Z</time>
      </trkpt>
      <trkpt lat="47.77644" lon="-3.55613">
        <ele>29.5</ele>
        <time>2021-07-11T09:06:04Z</time>
      </trkpt>
      <trkpt lat="47.77644" lon="-3.55613">
        <ele>29.5</ele>
        <time>2021-07-11T09:06:05Z</time>
      </trkpt>
      <trkpt lat="47.77644" lon="-3.55613">
        <ele>29.5</ele>
        <time>2021-07-11T09:06:06Z</time>
      </trkpt>
      <trkpt lat="47.77643" lon="-3.55614">
        <ele>29.5</ele>
        <time>2021-07-11T09:06:07Z</time>
      </trkpt>
      <trkpt lat="47.77642" lon="-3.55615">
        <ele>29.6</ele>
        <time>2021-07-11T09:06:08Z</time>
      </trkpt>
      <trkpt lat="47.77641" lon="-3.55616">
        <ele>29.6</ele>
        <time>2021-07-11T09:06:09Z</time>
      </trkpt>
      <trkpt lat="47.7764" lon="-3.55617">
        <ele>29.6</ele>
        <time>2021-07-11T09:06:10Z</time>
      </trkpt>
      <trkpt lat="47.77638" lon="-3.55618">
        <ele>29.7</ele>
        <time>2021-07-11T09:06:11Z</time>
      </trkpt>
      <trkpt lat="47.77637" lon="-3.55619">
        <ele>29.7</ele>
        <time>2021-07-11T09:06:12Z</time>
      </trkpt>
      <trkpt lat="47.77636" lon="-3.5562">
        <ele>29.8</ele>
        <time>2021-07-11T09:06:13Z</time>
      </trkpt>
      <trkpt lat="47.77635" lon="-3.55621">
        <ele>29.8</ele>
        <time>2021-07-11T09:06:14Z</time>
      </trkpt>
      <trkpt lat="47.77634" lon="-3.55622">
        <ele>29.8</ele>
        <time>2021-07-11T09:06:15Z</time>
      </trkpt>
      <trkpt lat="47.77632" lon="-3.55623">
        <ele>29.8</ele>
        <time>2021-07-11T09:06:16Z</time>
      </trkpt>
      <trkpt lat="47.77631" lon="-3.55624">
        <ele>29.9</ele>
        <time>2021-07-11T09:06:17Z</time>
      </trkpt>
      <trkpt lat="47.7763" lon="-3.55625">
        <ele>29.9</ele>
        <time>2021-07-11T09:06:18Z</time>
      </trkpt>
      <trkpt lat="47.77628" lon="-3.55626">
        <ele>29.9</ele>
        <time>2021-07-11T09:06:19Z</time>
      </trkpt>
      <trkpt lat="47.77627" lon="-3.55627">
        <ele>30</ele>
        <time>2021-07-11T09:06:20Z</time>
      </trkpt>
      <trkpt lat="47.77626" lon="-3.55628">
        <ele>30</ele>
        <time>2021-07-11T09:06:21Z</time>
      </trkpt>
      <trkpt lat="47.77624" lon="-3.55629">
        <ele>30</ele>
        <time>2021-07-11T09:06:22Z</time>
      </trkpt>
      <trkpt lat="47.77623" lon="-3.5563">
        <ele>30</ele>
        <time>2021-07-11T09:06:23Z</time>
      </trkpt>
      <trkpt lat="47.77622" lon="-3.55631">
        <ele>30</ele>
        <time>2021-07-11T09:06:24Z</time>
      </trkpt>
      <trkpt lat="47.77621" lon="-3.55632">
        <ele>30</ele>
        <time>2021-07-11T09:06:25Z</time>
      </trkpt>
      <trkpt lat="47.7762" lon="-3.55633">
        <ele>30.1</ele>
        <time>2021-07-11T09:06:26Z</time>
      </trkpt>
      <trkpt lat="47.77619" lon="-3.55634">
        <ele>30.1</ele>
        <time>2021-07-11T09:06:27Z</time>
      </trkpt>
      <trkpt lat="47.77618" lon="-3.55635">
        <ele>30.1</ele>
        <time>2021-07-11T09:06:28Z</time>
      </trkpt>
      <trkpt lat="47.77617" lon="-3.55636">
        <ele>30.1</ele>
        <time>2021-07-11T09:06:29Z</time>
      </trkpt>
      <trkpt lat="47.77616" lon="-3.55637">
        <ele>30.1</ele>
        <time>2021-07-11T09:06:30Z</time>
      </trkpt>
      <trkpt lat="47.77615" lon="-3.55638">
        <ele>30.1</ele>
        <time>2021-07-11T09:06:31Z</time>
      </trkpt>
      <trkpt lat="47.77614" lon="-3.55639">
        <ele>30.1</ele>
        <time>2021-07-11T09:06:32Z</time>
      </trkpt>
      <trkpt lat="47.77613" lon="-3.5564">
        <ele>30.1</ele>
        <time>2021-07-11T09:06:33Z</time>
      </trkpt>
      <trkpt lat="47.77611" lon="-3.55641">
        <ele>30.1</ele>
        <time>2021-07-11T09:06:34Z</time>
      </trkpt>
      <trkpt lat="47.7761" lon="-3.55642">
        <ele>30.1</ele>
        <time>2021-07-11T09:06:35Z</time>
      </trkpt>
      <trkpt lat="47.77609" lon="-3.55643">
        <ele>30.1</ele>
        <time>2021-07-11T09:06:36Z</time>
      </trkpt>
      <trkpt lat="47.77608" lon="-3.55644">
        <ele>30.1</ele>
        <time>2021-07-11T09:06:37Z</time>
      </trkpt>
      <trkpt lat="47.77607" lon="-3.55645">
        <ele>30</ele>
        <time>2021-07-11T09:06:38Z</time>
      </trkpt>
      <trkpt lat="47.77606" lon="-3.55646">
        <ele>30</ele>
        <time>2021-07-11T09:06:39Z</time>
      </trkpt>
      <trkpt lat="47.77605" lon="-3.55647">
        <ele>30</ele>
        <time>2021-07-11T09:06:40Z</time>
      </trkpt>
      <trkpt lat="47.77604" lon="-3.55648">
        <ele>30</ele>
        <time>2021-07-11T09:06:41Z</time>
      </trkpt>
      <trkpt lat="47.77604" lon="-3.55649">
        <ele>30</ele>
        <time>2021-07-11T09:06:42Z</time>
      </trkpt>
      <trkpt lat="47.77603" lon="-3.55651">
        <ele>30</ele>
        <time>2021-07-11T09:06:43Z</time>
      </trkpt>
      <trkpt lat="47.77602" lon="-3.55652">
        <ele>30</ele>
        <time>2021-07-11T09:06:44Z</time>
      </trkpt>
      <trkpt lat="47.77602" lon="-3.55653">
        <ele>29.9</ele>
        <time>2021-07-11T09:06:45Z</time>
      </trkpt>
      <trkpt lat="47.77601" lon="-3.55655">
        <ele>29.9</ele>
        <time>2021-07-11T09:06:46Z</time>
      </trkpt>
      <trkpt lat="47.776" lon="-3.55656">
        <ele>29.9</ele>
        <time>2021-07-11T09:06:47Z</time>
      </trkpt>
      <trkpt lat="47.77599" lon="-3.55657">
        <ele>29.9</ele>
        <time>2021-07-11T09:06:48Z</time>
      </trkpt>
      <trkpt lat="47.77598" lon="-3.55658">
        <ele>29.9</ele>
        <time>2021-07-11T09:06:49Z</time>
      </trkpt>
      <trkpt lat="47.77597" lon="-3.55659">
        <ele>29.8</ele>
        <time>2021-07-11T09:06:50Z</time>
      </trkpt>
      <trkpt lat="47.77596" lon="-3.5566">
        <ele>29.8</ele>
        <time>2021-07-11T09:06:51Z</time>
      </trkpt>
      <trkpt lat="47.77595" lon="-3.55661">
        <ele>29.8</ele>
        <time>2021-07-11T09:06:52Z</time>
      </trkpt>
      <trkpt lat="47.77594" lon="-3.55663">
        <ele>29.7</ele>
        <time>2021-07-11T09:06:53Z</time>
      </trkpt>
      <trkpt lat="47.77593" lon="-3.55664">
        <ele>29.7</ele>
        <time>2021-07-11T09:06:54Z</time>
      </trkpt>
      <trkpt lat="47.77592" lon="-3.55665">
        <ele>29.7</ele>
        <time>2021-07-11T09:06:55Z</time>
      </trkpt>
      <trkpt lat="47.77591" lon="-3.55667">
        <ele>29.7</ele>
        <time>2021-07-11T09:06:56Z</time>
      </trkpt>
      <trkpt lat="47.7759" lon="-3.55668">
        <ele>29.6</ele>
        <time>2021-07-11T09:06:57Z</time>
      </trkpt>
      <trkpt lat="47.7759" lon="-3.55669">
        <ele>29.6</ele>
        <time>2021-07-11T09:06:58Z</time>
      </trkpt>
      <trkpt lat="47.77589" lon="-3.5567">
        <ele>29.6</ele>
        <time>2021-07-11T09:06:59Z</time>
      </trkpt>
      <trkpt lat="47.77589" lon="-3.5567">
        <ele>29.6</ele>
        <time>2021-07-11T09:07:00Z</time>
      </trkpt>
      <trkpt lat="47.77588" lon="-3.55672">
        <ele>29.5</ele>
        <time>2021-07-11T09:07:01Z</time>
      </trkpt>
      <trkpt lat="47.77587" lon="-3.55673">
        <ele>29.5</ele>
        <time>2021-07-11T09:07:02Z</time>
      </trkpt>
      <trkpt lat="47.77586" lon="-3.55674">
        <ele>29.5</ele>
        <time>2021-07-11T09:07:03Z</time>
      </trkpt>
      <trkpt lat="47.77585" lon="-3.55675">
        <ele>29.4</ele>
        <time>2021-07-11T09:07:04Z</time>
      </trkpt>
      <trkpt lat="47.77584" lon="-3.55676">
        <ele>29.4</ele>
        <time>2021-07-11T09:07:05Z</time>
      </trkpt>
      <trkpt lat="47.77584" lon="-3.55677">
        <ele>29.4</ele>
        <time>2021-07-11T09:07:06Z</time>
      </trkpt>
      <trkpt lat="47.77583" lon="-3.55678">
        <ele>29.3</ele>
        <time>2021-07-11T09:07:07Z</time>
      </trkpt>
      <trkpt lat="47.77582" lon="-3.5568">
        <ele>29.3</ele>
        <time>2021-07-11T09:07:08Z</time>
      </trkpt>
      <trkpt lat="47.77581" lon="-3.55681">
        <ele>29.3</ele>
        <time>2021-07-11T09:07:09Z</time>
      </trkpt>
      <trkpt lat="47.7758" lon="-3.55682">
        <ele>29.2</ele>
        <time>2021-07-11T09:07:10Z</time>
      </trkpt>
      <trkpt lat="47.77579" lon="-3.55683">
        <ele>29.2</ele>
        <time>2021-07-11T09:07:11Z</time>
      </trkpt>
      <trkpt lat="47.77578" lon="-3.55684">
        <ele>29.1</ele>
        <time>2021-07-11T09:07:12Z</time>
      </trkpt>
      <trkpt lat="47.77577" lon="-3.55685">
        <ele>29.1</ele>
        <time>2021-07-11T09:07:13Z</time>
      </trkpt>
      <trkpt lat="47.77576" lon="-3.55686">
        <ele>29.1</ele>
        <time>2021-07-11T09:07:14Z</time>
      </trkpt>
      <trkpt lat="47.77576" lon="-3.55688">
        <ele>29</ele>
        <time>2021-07-11T09:07:15Z</time>
      </trkpt>
      <trkpt lat="47.77575" lon="-3.55689">
        <ele>29</ele>
        <time>2021-07-11T09:07:16Z</time>
      </trkpt>
      <trkpt lat="47.77574" lon="-3.5569">
        <ele>28.9</ele>
        <time>2021-07-11T09:07:17Z</time>
      </trkpt>
      <trkpt lat="47.77573" lon="-3.55691">
        <ele>28.9</ele>
        <time>2021-07-11T09:07:18Z</time>
      </trkpt>
      <trkpt lat="47.77572" lon="-3.55692">
        <ele>28.8</ele>
        <time>2021-07-11T09:07:19Z</time>
      </trkpt>
      <trkpt lat="47.77571" lon="-3.55693">
        <ele>28.8</ele>
        <time>2021-07-11T09:07:20Z</time>
      </trkpt>
      <trkpt lat="47.7757" lon="-3.55694">
        <ele>28.7</ele>
        <time>2021-07-11T09:07:21Z</time>
      </trkpt>
      <trkpt lat="47.77569" lon="-3.55696">
        <ele>28.7</ele>
        <time>2021-07-11T09:07:22Z</time>
      </trkpt>
      <trkpt lat="47.77569" lon="-3.55697">
        <ele>28.6</ele>
        <time>2021-07-11T09:07:23Z</time>
      </trkpt>
      <trkpt lat="47.77568" lon="-3.55698">
        <ele>28.6</ele>
        <time>2021-07-11T09:07:24Z</time>
      </trkpt>
      <trkpt lat="47.77567" lon="-3.55699">
        <ele>28.5</ele>
        <time>2021-07-11T09:07:25Z</time>
      </trkpt>
      <trkpt lat="47.77566" lon="-3.557">
        <ele>28.4</ele>
        <time>2021-07-11T09:07:26Z</time>
      </trkpt>
      <trkpt lat="47.77565" lon="-3.55701">
        <ele>28.4</ele>
        <time>2021-07-11T09:07:27Z</time>
      </trkpt>
      <trkpt lat="47.77564" lon="-3.55702">
        <ele>28.3</ele>
        <time>2021-07-11T09:07:28Z</time>
      </trkpt>
      <trkpt lat="47.77563" lon="-3.55704">
        <ele>28.3</ele>
        <time>2021-07-11T09:07:29Z</time>
      </trkpt>
      <trkpt lat="47.77562" lon="-3.55705">
        <ele>28.2</ele>
        <time>2021-07-11T09:07:30Z</time>
      </trkpt>
      <trkpt lat="47.77561" lon="-3.55706">
        <ele>28.2</ele>
        <time>2021-07-11T09:07:31Z</time>
      </trkpt>
      <trkpt lat="47.7756" lon="-3.55707">
        <ele>28.1</ele>
        <time>2021-07-11T09:07:32Z</time>
      </trkpt>
      <trkpt lat="47.77559" lon="-3.55709">
        <ele>28</ele>
        <time>2021-07-11T09:07:33Z</time>
      </trkpt>
      <trkpt lat="47.77558" lon="-3.5571">
        <ele>28</ele>
        <time>2021-07-11T09:07:34Z</time>
      </trkpt>
      <trkpt lat="47.77557" lon="-3.55711">
        <ele>27.9</ele>
        <time>2021-07-11T09:07:35Z</time>
      </trkpt>
      <trkpt lat="47.77556" lon="-3.55712">
        <ele>27.9</ele>
        <time>2021-07-11T09:07:36Z</time>
      </trkpt>
      <trkpt lat="47.77555" lon="-3.55713">
        <ele>27.8</ele>
        <time>2021-07-11T09:07:37Z</time>
      </trkpt>
      <trkpt lat="47.77554" lon="-3.55715">
        <ele>27.7</ele>
        <time>2021-07-11T09:07:38Z</time>
      </trkpt>
      <trkpt lat="47.77553" lon="-3.55716">
        <ele>27.7</ele>
        <time>2021-07-11T09:07:39Z</time>
      </trkpt>
      <trkpt lat="47.77552" lon="-3.55717">
        <ele>27.6</ele>
        <time>2021-07-11T09:07:40Z</time>
      </trkpt>
      <trkpt lat="47.77551" lon="-3.55718">
        <ele>27.6</ele>
        <time>2021-07-11T09:07:41Z</time>
      </trkpt>
      <trkpt lat="47.7755" lon="-3.5572">
        <ele>27.5</ele>
        <time>2021-07-11T09:07:42Z</time>
      </trkpt>
      <trkpt lat="47.77549" lon="-3.55721">
        <ele>27.5</ele>
        <time>2021-07-11T09:07:43Z</time>
      </trkpt>
      <trkpt lat="47.77549" lon="-3.55722">
        <ele>27.4</ele>
        <time>2021-07-11T09:07:44Z</time>
      </trkpt>
      <trkpt lat="47.77548" lon="-3.55723">
        <ele>27.4</ele>
        <time>2021-07-11T09:07:45Z</time>
      </trkpt>
      <trkpt lat="47.77547" lon="-3.55724">
        <ele>27.3</ele>
        <time>2021-07-11T09:07:46Z</time>
      </trkpt>
      <trkpt lat="47.77545" lon="-3.55726">
        <ele>27.2</ele>
        <time>2021-07-11T09:07:47Z</time>
      </trkpt>
      <trkpt lat="47.77544" lon="-3.55727">
        <ele>27.2</ele>
        <time>2021-07-11T09:07:48Z</time>
      </trkpt>
      <trkpt lat="47.77543" lon="-3.55728">
        <ele>27.1</ele>
        <time>2021-07-11T09:07:49Z</time>
      </trkpt>
      <trkpt lat="47.77542" lon="-3.55729">
        <ele>27.1</ele>
        <time>2021-07-11T09:07:50Z</time>
      </trkpt>
      <trkpt lat="47.77542" lon="-3.5573">
        <ele>27.1</ele>
        <time>2021-07-11T09:07:51Z</time>
      </trkpt>
      <trkpt lat="47.7754" lon="-3.55732">
        <ele>27</ele>
        <time>2021-07-11T09:07:52Z</time>
      </trkpt>
      <trkpt lat="47.77539" lon="-3.55733">
        <ele>27</ele>
        <time>2021-07-11T09:07:53Z</time>
      </trkpt>
      <trkpt lat="47.77538" lon="-3.55734">
        <ele>26.9</ele>
        <time>2021-07-11T09:07:54Z</time>
      </trkpt>
      <trkpt lat="47.77537" lon="-3.55735">
        <ele>26.9</ele>
        <time>2021-07-11T09:07:55Z</time>
      </trkpt>
      <trkpt lat="47.77536" lon="-3.55736">
        <ele>26.9</ele>
        <time>2021-07-11T09:07:56Z</time>
      </trkpt>
      <trkpt lat="47.77535" lon="-3.55737">
        <ele>26.8</ele>
        <time>2021-07-11T09:07:57Z</time>
      </trkpt>
      <trkpt lat="47.77533" lon="-3.55739">
        <ele>26.8</ele>
        <time>2021-07-11T09:07:58Z</time>
      </trkpt>
      <trkpt lat="47.77532" lon="-3.5574">
        <ele>26.7</ele>
        <time>2021-07-11T09:07:59Z</time>
      </trkpt>
      <trkpt lat="47.77532" lon="-3.55741">
        <ele>26.7</ele>
        <time>2021-07-11T09:08:00Z</time>
      </trkpt>
      <trkpt lat="47.77531" lon="-3.55742">
        <ele>26.7</ele>
        <time>2021-07-11T09:08:01Z</time>
      </trkpt>
      <trkpt lat="47.7753" lon="-3.55743">
        <ele>26.7</ele>
        <time>2021-07-11T09:08:02Z</time>
      </trkpt>
      <trkpt lat="47.77529" lon="-3.55744">
        <ele>26.6</ele>
        <time>2021-07-11T09:08:03Z</time>
      </trkpt>
      <trkpt lat="47.77528" lon="-3.55745">
        <ele>26.6</ele>
        <time>2021-07-11T09:08:04Z</time>
      </trkpt>
      <trkpt lat="47.77527" lon="-3.55746">
        <ele>26.6</ele>
        <time>2021-07-11T09:08:05Z</time>
      </trkpt>
      <trkpt lat="47.77526" lon="-3.55747">
        <ele>26.6</ele>
        <time>2021-07-11T09:08:06Z</time>
      </trkpt>
      <trkpt lat="47.77525" lon="-3.55748">
        <ele>26.6</ele>
        <time>2021-07-11T09:08:07Z</time>
      </trkpt>
      <trkpt lat="47.77524" lon="-3.55749">
        <ele>26.5</ele>
        <time>2021-07-11T09:08:08Z</time>
      </trkpt>
      <trkpt lat="47.77523" lon="-3.5575">
        <ele>26.5</ele>
        <time>2021-07-11T09:08:09Z</time>
      </trkpt>
      <trkpt lat="47.77522" lon="-3.55751">
        <ele>26.5</ele>
        <time>2021-07-11T09:08:10Z</time>
      </trkpt>
      <trkpt lat="47.77522" lon="-3.55752">
        <ele>26.5</ele>
        <time>2021-07-11T09:08:11Z</time>
      </trkpt>
      <trkpt lat="47.77521" lon="-3.55753">
        <ele>26.5</ele>
        <time>2021-07-11T09:08:12Z</time>
      </trkpt>
      <trkpt lat="47.7752" lon="-3.55754">
        <ele>26.5</ele>
        <time>2021-07-11T09:08:13Z</time>
      </trkpt>
      <trkpt lat="47.77519" lon="-3.55755">
        <ele>26.5</ele>
        <time>2021-07-11T09:08:14Z</time>
      </trkpt>
      <trkpt lat="47.77518" lon="-3.55756">
        <ele>26.5</ele>
        <time>2021-07-11T09:08:15Z</time>
      </trkpt>
      <trkpt lat="47.77517" lon="-3.55757">
        <ele>26.4</ele>
        <time>2021-07-11T09:08:16Z</time>
      </trkpt>
      <trkpt lat="47.77516" lon="-3.55758">
        <ele>26.4</ele>
        <time>2021-07-11T09:08:17Z</time>
      </trkpt>
      <trkpt lat="47.77515" lon="-3.5576">
        <ele>26.4</ele>
        <time>2021-07-11T09:08:18Z</time>
      </trkpt>
      <trkpt lat="47.77514" lon="-3.55761">
        <ele>26.4</ele>
        <time>2021-07-11T09:08:19Z</time>
      </trkpt>
      <trkpt lat="47.77513" lon="-3.55762">
        <ele>26.5</ele>
        <time>2021-07-11T09:08:20Z</time>
      </trkpt>
      <trkpt lat="47.77512" lon="-3.55763">
        <ele>26.5</ele>
        <time>2021-07-11T09:08:21Z</time>
      </trkpt>
      <trkpt lat="47.77512" lon="-3.55764">
        <ele>26.5</ele>
        <time>2021-07-11T09:08:22Z</time>
      </trkpt>
      <trkpt lat="47.77511" lon="-3.55765">
        <ele>26.5</ele>
        <time>2021-07-11T09:08:23Z</time>
      </trkpt>
      <trkpt lat="47.7751" lon="-3.55766">
        <ele>26.5</ele>
        <time>2021-07-11T09:08:24Z</time>
      </trkpt>
      <trkpt lat="47.77508" lon="-3.55768">
        <ele>26.5</ele>
        <time>2021-07-11T09:08:25Z</time>
      </trkpt>
      <trkpt lat="47.77507" lon="-3.55769">
        <ele>26.5</ele>
        <time>2021-07-11T09:08:26Z</time>
      </trkpt>
      <trkpt lat="47.77506" lon="-3.5577">
        <ele>26.6</ele>
        <time>2021-07-11T09:08:27Z</time>
      </trkpt>
      <trkpt lat="47.77505" lon="-3.55771">
        <ele>26.6</ele>
        <time>2021-07-11T09:08:28Z</time>
      </trkpt>
      <trkpt lat="47.77504" lon="-3.55772">
        <ele>26.6</ele>
        <time>2021-07-11T09:08:29Z</time>
      </trkpt>
      <trkpt lat="47.77503" lon="-3.55773">
        <ele>26.6</ele>
        <time>2021-07-11T09:08:30Z</time>
      </trkpt>
      <trkpt lat="47.77502" lon="-3.55774">
        <ele>26.7</ele>
        <time>2021-07-11T09:08:31Z</time>
      </trkpt>
      <trkpt lat="47.77501" lon="-3.55775">
        <ele>26.7</ele>
        <time>2021-07-11T09:08:32Z</time>
      </trkpt>
      <trkpt lat="47.775" lon="-3.55776">
        <ele>26.7</ele>
        <time>2021-07-11T09:08:33Z</time>
      </trkpt>
      <trkpt lat="47.77499" lon="-3.55777">
        <ele>26.7</ele>
        <time>2021-07-11T09:08:34Z</time>
      </trkpt>
      <trkpt lat="47.77497" lon="-3.5578">
        <ele>26.8</ele>
        <time>2021-07-11T09:08:35Z</time>
      </trkpt>
      <trkpt lat="47.77496" lon="-3.55781">
        <ele>26.8</ele>
        <time>2021-07-11T09:08:36Z</time>
      </trkpt>
      <trkpt lat="47.77495" lon="-3.55782">
        <ele>26.8</ele>
        <time>2021-07-11T09:08:37Z</time>
      </trkpt>
      <trkpt lat="47.77494" lon="-3.55783">
        <ele>26.9</ele>
        <time>2021-07-11T09:08:38Z</time>
      </trkpt>
      <trkpt lat="47.77493" lon="-3.55784">
        <ele>26.9</ele>
        <time>2021-07-11T09:08:39Z</time>
      </trkpt>
      <trkpt lat="47.77492" lon="-3.55785">
        <ele>26.9</ele>
        <time>2021-07-11T09:08:40Z</time>
      </trkpt>
      <trkpt lat="47.77492" lon="-3.55786">
        <ele>27</ele>
        <time>2021-07-11T09:08:41Z</time>
      </trkpt>
      <trkpt lat="47.77491" lon="-3.55787">
        <ele>27</ele>
        <time>2021-07-11T09:08:42Z</time>
      </trkpt>
      <trkpt lat="47.7749" lon="-3.55788">
        <ele>27</ele>
        <time>2021-07-11T09:08:43Z</time>
      </trkpt>
      <trkpt lat="47.77489" lon="-3.55789">
        <ele>27.1</ele>
        <time>2021-07-11T09:08:44Z</time>
      </trkpt>
      <trkpt lat="47.77488" lon="-3.5579">
        <ele>27.1</ele>
        <time>2021-07-11T09:08:45Z</time>
      </trkpt>
      <trkpt lat="47.77487" lon="-3.55791">
        <ele>27.1</ele>
        <time>2021-07-11T09:08:46Z</time>
      </trkpt>
      <trkpt lat="47.77486" lon="-3.55792">
        <ele>27.2</ele>
        <time>2021-07-11T09:08:47Z</time>
      </trkpt>
      <trkpt lat="47.77485" lon="-3.55793">
        <ele>27.2</ele>
        <time>2021-07-11T09:08:48Z</time>
      </trkpt>
      <trkpt lat="47.77484" lon="-3.55795">
        <ele>27.3</ele>
        <time>2021-07-11T09:08:49Z</time>
      </trkpt>
      <trkpt lat="47.77483" lon="-3.55796">
        <ele>27.3</ele>
        <time>2021-07-11T09:08:50Z</time>
      </trkpt>
      <trkpt lat="47.77483" lon="-3.55797">
        <ele>27.3</ele>
        <time>2021-07-11T09:08:51Z</time>
      </trkpt>
      <trkpt lat="47.77482" lon="-3.55798">
        <ele>27.4</ele>
        <time>2021-07-11T09:08:52Z</time>
      </trkpt>
      <trkpt lat="47.77481" lon="-3.55799">
        <ele>27.4</ele>
        <time>2021-07-11T09:08:53Z</time>
      </trkpt>
      <trkpt lat="47.7748" lon="-3.558">
        <ele>27.5</ele>
        <time>2021-07-11T09:08:54Z</time>
      </trkpt>
      <trkpt lat="47.77479" lon="-3.55801">
        <ele>27.5</ele>
        <time>2021-07-11T09:08:55Z</time>
      </trkpt>
      <trkpt lat="47.77478" lon="-3.55802">
        <ele>27.6</ele>
        <time>2021-07-11T09:08:56Z</time>
      </trkpt>
      <trkpt lat="47.77477" lon="-3.55803">
        <ele>27.6</ele>
        <time>2021-07-11T09:08:57Z</time>
      </trkpt>
      <trkpt lat="47.77476" lon="-3.55804">
        <ele>27.7</ele>
        <time>2021-07-11T09:08:58Z</time>
      </trkpt>
      <trkpt lat="47.77475" lon="-3.55805">
        <ele>27.8</ele>
        <time>2021-07-11T09:08:59Z</time>
      </trkpt>
      <trkpt lat="47.77474" lon="-3.55806">
        <ele>27.8</ele>
        <time>2021-07-11T09:09:00Z</time>
      </trkpt>
      <trkpt lat="47.77473" lon="-3.55807">
        <ele>27.9</ele>
        <time>2021-07-11T09:09:01Z</time>
      </trkpt>
      <trkpt lat="47.77473" lon="-3.55808">
        <ele>27.9</ele>
        <time>2021-07-11T09:09:02Z</time>
      </trkpt>
      <trkpt lat="47.77472" lon="-3.5581">
        <ele>28</ele>
        <time>2021-07-11T09:09:03Z</time>
      </trkpt>
      <trkpt lat="47.77471" lon="-3.55811">
        <ele>28.1</ele>
        <time>2021-07-11T09:09:04Z</time>
      </trkpt>
      <trkpt lat="47.7747" lon="-3.55812">
        <ele>28.1</ele>
        <time>2021-07-11T09:09:05Z</time>
      </trkpt>
      <trkpt lat="47.77469" lon="-3.55813">
        <ele>28.2</ele>
        <time>2021-07-11T09:09:06Z</time>
      </trkpt>
      <trkpt lat="47.77468" lon="-3.55814">
        <ele>28.3</ele>
        <time>2021-07-11T09:09:07Z</time>
      </trkpt>
      <trkpt lat="47.77467" lon="-3.55815">
        <ele>28.4</ele>
        <time>2021-07-11T09:09:08Z</time>
      </trkpt>
      <trkpt lat="47.77466" lon="-3.55816">
        <ele>28.4</ele>
        <time>2021-07-11T09:09:09Z</time>
      </trkpt>
      <trkpt lat="47.77465" lon="-3.55817">
        <ele>28.5</ele>
        <time>2021-07-11T09:09:10Z</time>
      </trkpt>
      <trkpt lat="47.77464" lon="-3.55818">
        <ele>28.6</ele>
        <time>2021-07-11T09:09:11Z</time>
      </trkpt>
      <trkpt lat="47.77464" lon="-3.55819">
        <ele>28.6</ele>
        <time>2021-07-11T09:09:12Z</time>
      </trkpt>
      <trkpt lat="47.77463" lon="-3.5582">
        <ele>28.7</ele>
        <time>2021-07-11T09:09:13Z</time>
      </trkpt>
      <trkpt lat="47.77462" lon="-3.55821">
        <ele>28.8</ele>
        <time>2021-07-11T09:09:14Z</time>
      </trkpt>
      <trkpt lat="47.77461" lon="-3.55822">
        <ele>28.9</ele>
        <time>2021-07-11T09:09:15Z</time>
      </trkpt>
      <trkpt lat="47.7746" lon="-3.55823">
        <ele>28.9</ele>
        <time>2021-07-11T09:09:16Z</time>
      </trkpt>
      <trkpt lat="47.77459" lon="-3.55825">
        <ele>29</ele>
        <time>2021-07-11T09:09:17Z</time>
      </trkpt>
      <trkpt lat="47.77458" lon="-3.55826">
        <ele>29.1</ele>
        <time>2021-07-11T09:09:18Z</time>
      </trkpt>
      <trkpt lat="47.77457" lon="-3.55827">
        <ele>29.1</ele>
        <time>2021-07-11T09:09:19Z</time>
      </trkpt>
      <trkpt lat="47.77456" lon="-3.55828">
        <ele>29.2</ele>
        <time>2021-07-11T09:09:20Z</time>
      </trkpt>
      <trkpt lat="47.77455" lon="-3.55829">
        <ele>29.3</ele>
        <time>2021-07-11T09:09:21Z</time>
      </trkpt>
      <trkpt lat="47.77455" lon="-3.5583">
        <ele>29.3</ele>
        <time>2021-07-11T09:09:22Z</time>
      </trkpt>
      <trkpt lat="47.77454" lon="-3.55831">
        <ele>29.4</ele>
        <time>2021-07-11T09:09:23Z</time>
      </trkpt>
      <trkpt lat="47.77453" lon="-3.55832">
        <ele>29.5</ele>
        <time>2021-07-11T09:09:24Z</time>
      </trkpt>
      <trkpt lat="47.77452" lon="-3.55833">
        <ele>29.5</ele>
        <time>2021-07-11T09:09:25Z</time>
      </trkpt>
      <trkpt lat="47.77451" lon="-3.55834">
        <ele>29.6</ele>
        <time>2021-07-11T09:09:26Z</time>
      </trkpt>
      <trkpt lat="47.7745" lon="-3.55835">
        <ele>29.6</ele>
        <time>2021-07-11T09:09:27Z</time>
      </trkpt>
      <trkpt lat="47.77448" lon="-3.55837">
        <ele>29.8</ele>
        <time>2021-07-11T09:09:28Z</time>
      </trkpt>
      <trkpt lat="47.77447" lon="-3.55838">
        <ele>29.8</ele>
        <time>2021-07-11T09:09:29Z</time>
      </trkpt>
      <trkpt lat="47.77446" lon="-3.55839">
        <ele>29.9</ele>
        <time>2021-07-11T09:09:30Z</time>
      </trkpt>
      <trkpt lat="47.77445" lon="-3.5584">
        <ele>29.9</ele>
        <time>2021-07-11T09:09:31Z</time>
      </trkpt>
      <trkpt lat="47.77444" lon="-3.55841">
        <ele>30</ele>
        <time>2021-07-11T09:09:32Z</time>
      </trkpt>
      <trkpt lat="47.77443" lon="-3.55842">
        <ele>30.1</ele>
        <time>2021-07-11T09:09:33Z</time>
      </trkpt>
      <trkpt lat="47.77442" lon="-3.55843">
        <ele>30.1</ele>
        <time>2021-07-11T09:09:34Z</time>
      </trkpt>
      <trkpt lat="47.77441" lon="-3.55844">
        <ele>30.2</ele>
        <time>2021-07-11T09:09:35Z</time>
      </trkpt>
      <trkpt lat="47.7744" lon="-3.55845">
        <ele>30.2</ele>
        <time>2021-07-11T09:09:36Z</time>
      </trkpt>
      <trkpt lat="47.77439" lon="-3.55846">
        <ele>30.3</ele>
        <time>2021-07-11T09:09:37Z</time>
      </trkpt>
      <trkpt lat="47.77438" lon="-3.55847">
        <ele>30.3</ele>
        <time>2021-07-11T09:09:38Z</time>
      </trkpt>
      <trkpt lat="47.77437" lon="-3.55848">
        <ele>30.4</ele>
        <time>2021-07-11T09:09:39Z</time>
      </trkpt>
      <trkpt lat="47.77436" lon="-3.55849">
        <ele>30.4</ele>
        <time>2021-07-11T09:09:40Z</time>
      </trkpt>
      <trkpt lat="47.77435" lon="-3.5585">
        <ele>30.4</ele>
        <time>2021-07-11T09:09:41Z</time>
      </trkpt>
      <trkpt lat="47.77434" lon="-3.55851">
        <ele>30.5</ele>
        <time>2021-07-11T09:09:42Z</time>
      </trkpt>
      <trkpt lat="47.77433" lon="-3.55852">
        <ele>30.5</ele>
        <time>2021-07-11T09:09:43Z</time>
      </trkpt>
      <trkpt lat="47.77432" lon="-3.55853">
        <ele>30.6</ele>
        <time>2021-07-11T09:09:44Z</time>
      </trkpt>
      <trkpt lat="47.7743" lon="-3.55854">
        <ele>30.6</ele>
        <time>2021-07-11T09:09:45Z</time>
      </trkpt>
      <trkpt lat="47.77429" lon="-3.55855">
        <ele>30.7</ele>
        <time>2021-07-11T09:09:46Z</time>
      </trkpt>
      <trkpt lat="47.77428" lon="-3.55856">
        <ele>30.7</ele>
        <time>2021-07-11T09:09:47Z</time>
      </trkpt>
      <trkpt lat="47.77427" lon="-3.55857">
        <ele>30.8</ele>
        <time>2021-07-11T09:09:48Z</time>
      </trkpt>
      <trkpt lat="47.77426" lon="-3.55858">
        <ele>30.8</ele>
        <time>2021-07-11T09:09:49Z</time>
      </trkpt>
      <trkpt lat="47.77425" lon="-3.55859">
        <ele>30.9</ele>
        <time>2021-07-11T09:09:50Z</time>
      </trkpt>
      <trkpt lat="47.77424" lon="-3.5586">
        <ele>30.9</ele>
        <time>2021-07-11T09:09:51Z</time>
      </trkpt>
      <trkpt lat="47.77423" lon="-3.5586">
        <ele>30.9</ele>
        <time>2021-07-11T09:09:52Z</time>
      </trkpt>
      <trkpt lat="47.77422" lon="-3.55861">
        <ele>31</ele>
        <time>2021-07-11T09:09:53Z</time>
      </trkpt>
      <trkpt lat="47.77421" lon="-3.55862">
        <ele>31</ele>
        <time>2021-07-11T09:09:54Z</time>
      </trkpt>
      <trkpt lat="47.7742" lon="-3.55863">
        <ele>31</ele>
        <time>2021-07-11T09:09:55Z</time>
      </trkpt>
      <trkpt lat="47.77419" lon="-3.55864">
        <ele>31.1</ele>
        <time>2021-07-11T09:09:56Z</time>
      </trkpt>
      <trkpt lat="47.77418" lon="-3.55865">
        <ele>31.1</ele>
        <time>2021-07-11T09:09:57Z</time>
      </trkpt>
      <trkpt lat="47.77416" lon="-3.55866">
        <ele>31.1</ele>
        <time>2021-07-11T09:09:58Z</time>
      </trkpt>
      <trkpt lat="47.77415" lon="-3.55867">
        <ele>31.1</ele>
        <time>2021-07-11T09:09:59Z</time>
      </trkpt>
      <trkpt lat="47.77415" lon="-3.55868">
        <ele>31.2</ele>
        <time>2021-07-11T09:10:00Z</time>
      </trkpt>
      <trkpt lat="47.77414" lon="-3.55869">
        <ele>31.2</ele>
        <time>2021-07-11T09:10:01Z</time>
      </trkpt>
      <trkpt lat="47.77414" lon="-3.55869">
        <ele>31.2</ele>
        <time>2021-07-11T09:10:02Z</time>
      </trkpt>
      <trkpt lat="47.77414" lon="-3.55869">
        <ele>31.2</ele>
        <time>2021-07-11T09:10:03Z</time>
      </trkpt>
      <trkpt lat="47.77413" lon="-3.5587">
        <ele>31.2</ele>
        <time>2021-07-11T09:10:04Z</time>
      </trkpt>
      <trkpt lat="47.77412" lon="-3.55871">
        <ele>31.2</ele>
        <time>2021-07-11T09:10:05Z</time>
      </trkpt>
      <trkpt lat="47.7741" lon="-3.55872">
        <ele>31.2</ele>
        <time>2021-07-11T09:10:06Z</time>
      </trkpt>
      <trkpt lat="47.77409" lon="-3.55873">
        <ele>31.3</ele>
        <time>2021-07-11T09:10:07Z</time>
      </trkpt>
      <trkpt lat="47.77408" lon="-3.55874">
        <ele>31.3</ele>
        <time>2021-07-11T09:10:08Z</time>
      </trkpt>
      <trkpt lat="47.77407" lon="-3.55875">
        <ele>31.3</ele>
        <time>2021-07-11T09:10:09Z</time>
      </trkpt>
      <trkpt lat="47.77406" lon="-3.55876">
        <ele>31.3</ele>
        <time>2021-07-11T09:10:10Z</time>
      </trkpt>
      <trkpt lat="47.77405" lon="-3.55876">
        <ele>31.3</ele>
        <time>2021-07-11T09:10:11Z</time>
      </trkpt>
      <trkpt lat="47.77405" lon="-3.55876">
        <ele>31.3</ele>
        <time>2021-07-11T09:10:12Z</time>
      </trkpt>
      <trkpt lat="47.77405" lon="-3.55876">
        <ele>31.3</ele>
        <time>2021-07-11T09:10:13Z</time>
      </trkpt>
      <trkpt lat="47.77405" lon="-3.55877">
        <ele>31.3</ele>
        <time>2021-07-11T09:10:14Z</time>
      </trkpt>
      <trkpt lat="47.77405" lon="-3.55877">
        <ele>31.3</ele>
        <time>2021-07-11T09:10:15Z</time>
      </trkpt>
      <trkpt lat="47.77404" lon="-3.55878">
        <ele>31.3</ele>
        <time>2021-07-11T09:10:16Z</time>
      </trkpt>
      <trkpt lat="47.77401" lon="-3.5588">
        <ele>31.3</ele>
        <time>2021-07-11T09:10:17Z</time>
      </trkpt>
      <trkpt lat="47.77399" lon="-3.55882">
        <ele>31.3</ele>
        <time>2021-07-11T09:10:18Z</time>
      </trkpt>
      <trkpt lat="47.77398" lon="-3.55883">
        <ele>31.4</ele>
        <time>2021-07-11T09:10:19Z</time>
      </trkpt>
      <trkpt lat="47.77398" lon="-3.55884">
        <ele>31.4</ele>
        <time>2021-07-11T09:10:20Z</time>
      </trkpt>
      <trkpt lat="47.77397" lon="-3.55884">
        <ele>31.4</ele>
        <time>2021-07-11T09:10:21Z</time>
      </trkpt>
      <trkpt lat="47.77397" lon="-3.55884">
        <ele>31.4</ele>
        <time>2021-07-11T09:10:22Z</time>
      </trkpt>
      <trkpt lat="47.77397" lon="-3.55885">
        <ele>31.4</ele>
        <time>2021-07-11T09:10:23Z</time>
      </trkpt>
      <trkpt lat="47.77396" lon="-3.55886">
        <ele>31.4</ele>
        <time>2021-07-11T09:10:24Z</time>
      </trkpt>
      <trkpt lat="47.77394" lon="-3.55887">
        <ele>31.4</ele>
        <time>2021-07-11T09:10:25Z</time>
      </trkpt>
      <trkpt lat="47.77393" lon="-3.55888">
        <ele>31.4</ele>
        <time>2021-07-11T09:10:26Z</time>
      </trkpt>
      <trkpt lat="47.77391" lon="-3.5589">
        <ele>31.3</ele>
        <time>2021-07-11T09:10:27Z</time>
      </trkpt>
      <trkpt lat="47.77389" lon="-3.55891">
        <ele>31.3</ele>
        <time>2021-07-11T09:10:28Z</time>
      </trkpt>
      <trkpt lat="47.77388" lon="-3.55892">
        <ele>31.3</ele>
        <time>2021-07-11T09:10:29Z</time>
      </trkpt>
      <trkpt lat="47.77387" lon="-3.55893">
        <ele>31.3</ele>
        <time>2021-07-11T09:10:30Z</time>
      </trkpt>
      <trkpt lat="47.77386" lon="-3.55894">
        <ele>31.3</ele>
        <time>2021-07-11T09:10:31Z</time>
      </trkpt>
      <trkpt lat="47.77384" lon="-3.55895">
        <ele>31.3</ele>
        <time>2021-07-11T09:10:32Z</time>
      </trkpt>
      <trkpt lat="47.77383" lon="-3.55896">
        <ele>31.3</ele>
        <time>2021-07-11T09:10:33Z</time>
      </trkpt>
      <trkpt lat="47.77382" lon="-3.55897">
        <ele>31.2</ele>
        <time>2021-07-11T09:10:34Z</time>
      </trkpt>
      <trkpt lat="47.77381" lon="-3.55899">
        <ele>31.2</ele>
        <time>2021-07-11T09:10:35Z</time>
      </trkpt>
      <trkpt lat="47.77378" lon="-3.55901">
        <ele>31.2</ele>
        <time>2021-07-11T09:10:36Z</time>
      </trkpt>
      <trkpt lat="47.77377" lon="-3.55902">
        <ele>31.1</ele>
        <time>2021-07-11T09:10:37Z</time>
      </trkpt>
      <trkpt lat="47.77376" lon="-3.55903">
        <ele>31.1</ele>
        <time>2021-07-11T09:10:38Z</time>
      </trkpt>
      <trkpt lat="47.77375" lon="-3.55904">
        <ele>31.1</ele>
        <time>2021-07-11T09:10:39Z</time>
      </trkpt>
      <trkpt lat="47.77374" lon="-3.55905">
        <ele>31.1</ele>
        <time>2021-07-11T09:10:40Z</time>
      </trkpt>
      <trkpt lat="47.77373" lon="-3.55906">
        <ele>31</ele>
        <time>2021-07-11T09:10:41Z</time>
      </trkpt>
      <trkpt lat="47.77372" lon="-3.55906">
        <ele>31</ele>
        <time>2021-07-11T09:10:42Z</time>
      </trkpt>
      <trkpt lat="47.77372" lon="-3.55907">
        <ele>31</ele>
        <time>2021-07-11T09:10:43Z</time>
      </trkpt>
      <trkpt lat="47.77371" lon="-3.55907">
        <ele>31</ele>
        <time>2021-07-11T09:10:44Z</time>
      </trkpt>
      <trkpt lat="47.7737" lon="-3.55908">
        <ele>30.9</ele>
        <time>2021-07-11T09:10:45Z</time>
      </trkpt>
      <trkpt lat="47.77369" lon="-3.55909">
        <ele>30.9</ele>
        <time>2021-07-11T09:10:46Z</time>
      </trkpt>
      <trkpt lat="47.77368" lon="-3.5591">
        <ele>30.9</ele>
        <time>2021-07-11T09:10:47Z</time>
      </trkpt>
      <trkpt lat="47.77367" lon="-3.55911">
        <ele>30.8</ele>
        <time>2021-07-11T09:10:48Z</time>
      </trkpt>
      <trkpt lat="47.77366" lon="-3.55912">
        <ele>30.8</ele>
        <time>2021-07-11T09:10:49Z</time>
      </trkpt>
      <trkpt lat="47.77365" lon="-3.55913">
        <ele>30.8</ele>
        <time>2021-07-11T09:10:50Z</time>
      </trkpt>
      <trkpt lat="47.77364" lon="-3.55914">
        <ele>30.7</ele>
        <time>2021-07-11T09:10:51Z</time>
      </trkpt>
      <trkpt lat="47.77362" lon="-3.55915">
        <ele>30.7</ele>
        <time>2021-07-11T09:10:52Z</time>
      </trkpt>
      <trkpt lat="47.77361" lon="-3.55916">
        <ele>30.6</ele>
        <time>2021-07-11T09:10:53Z</time>
      </trkpt>
      <trkpt lat="47.7736" lon="-3.55917">
        <ele>30.6</ele>
        <time>2021-07-11T09:10:54Z</time>
      </trkpt>
      <trkpt lat="47.77359" lon="-3.55917">
        <ele>30.6</ele>
        <time>2021-07-11T09:10:55Z</time>
      </trkpt>
      <trkpt lat="47.77358" lon="-3.55918">
        <ele>30.5</ele>
        <time>2021-07-11T09:10:56Z</time>
      </trkpt>
      <trkpt lat="47.77357" lon="-3.55919">
        <ele>30.5</ele>
        <time>2021-07-11T09:10:57Z</time>
      </trkpt>
      <trkpt lat="47.77356" lon="-3.55919">
        <ele>30.5</ele>
        <time>2021-07-11T09:10:58Z</time>
      </trkpt>
      <trkpt lat="47.77356" lon="-3.5592">
        <ele>30.5</ele>
        <time>2021-07-11T09:10:59Z</time>
      </trkpt>
      <trkpt lat="47.77355" lon="-3.5592">
        <ele>30.5</ele>
        <time>2021-07-11T09:11:00Z</time>
      </trkpt>
      <trkpt lat="47.77354" lon="-3.55921">
        <ele>30.4</ele>
        <time>2021-07-11T09:11:01Z</time>
      </trkpt>
      <trkpt lat="47.77353" lon="-3.55922">
        <ele>30.4</ele>
        <time>2021-07-11T09:11:02Z</time>
      </trkpt>
      <trkpt lat="47.77352" lon="-3.55923">
        <ele>30.3</ele>
        <time>2021-07-11T09:11:03Z</time>
      </trkpt>
      <trkpt lat="47.77351" lon="-3.55924">
        <ele>30.3</ele>
        <time>2021-07-11T09:11:04Z</time>
      </trkpt>
      <trkpt lat="47.77351" lon="-3.55924">
        <ele>30.3</ele>
        <time>2021-07-11T09:11:05Z</time>
      </trkpt>
      <trkpt lat="47.77351" lon="-3.55924">
        <ele>30.3</ele>
        <time>2021-07-11T09:11:06Z</time>
      </trkpt>
      <trkpt lat="47.7735" lon="-3.55925">
        <ele>30.3</ele>
        <time>2021-07-11T09:11:07Z</time>
      </trkpt>
      <trkpt lat="47.7735" lon="-3.55925">
        <ele>30.3</ele>
        <time>2021-07-11T09:11:08Z</time>
      </trkpt>
      <trkpt lat="47.7735" lon="-3.55925">
        <ele>30.2</ele>
        <time>2021-07-11T09:11:09Z</time>
      </trkpt>
      <trkpt lat="47.77349" lon="-3.55926">
        <ele>30.2</ele>
        <time>2021-07-11T09:11:10Z</time>
      </trkpt>
      <trkpt lat="47.77348" lon="-3.55927">
        <ele>30.2</ele>
        <time>2021-07-11T09:11:11Z</time>
      </trkpt>
      <trkpt lat="47.77346" lon="-3.55929">
        <ele>30.1</ele>
        <time>2021-07-11T09:11:12Z</time>
      </trkpt>
      <trkpt lat="47.77344" lon="-3.55931">
        <ele>30</ele>
        <time>2021-07-11T09:11:13Z</time>
      </trkpt>
      <trkpt lat="47.77342" lon="-3.55933">
        <ele>29.9</ele>
        <time>2021-07-11T09:11:14Z</time>
      </trkpt>
      <trkpt lat="47.77339" lon="-3.55935">
        <ele>29.8</ele>
        <time>2021-07-11T09:11:15Z</time>
      </trkpt>
      <trkpt lat="47.77338" lon="-3.55936">
        <ele>29.7</ele>
        <time>2021-07-11T09:11:16Z</time>
      </trkpt>
      <trkpt lat="47.77336" lon="-3.55936">
        <ele>29.6</ele>
        <time>2021-07-11T09:11:17Z</time>
      </trkpt>
      <trkpt lat="47.77335" lon="-3.55937">
        <ele>29.6</ele>
        <time>2021-07-11T09:11:18Z</time>
      </trkpt>
      <trkpt lat="47.77334" lon="-3.55938">
        <ele>29.5</ele>
        <time>2021-07-11T09:11:19Z</time>
      </trkpt>
      <trkpt lat="47.77333" lon="-3.55939">
        <ele>29.5</ele>
        <time>2021-07-11T09:11:20Z</time>
      </trkpt>
      <trkpt lat="47.77332" lon="-3.55939">
        <ele>29.4</ele>
        <time>2021-07-11T09:11:21Z</time>
      </trkpt>
      <trkpt lat="47.77331" lon="-3.5594">
        <ele>29.3</ele>
        <time>2021-07-11T09:11:22Z</time>
      </trkpt>
      <trkpt lat="47.77329" lon="-3.55941">
        <ele>29.3</ele>
        <time>2021-07-11T09:11:23Z</time>
      </trkpt>
      <trkpt lat="47.77327" lon="-3.55943">
        <ele>29.1</ele>
        <time>2021-07-11T09:11:24Z</time>
      </trkpt>
      <trkpt lat="47.77326" lon="-3.55943">
        <ele>29.1</ele>
        <time>2021-07-11T09:11:25Z</time>
      </trkpt>
      <trkpt lat="47.77325" lon="-3.55944">
        <ele>29</ele>
        <time>2021-07-11T09:11:26Z</time>
      </trkpt>
      <trkpt lat="47.77324" lon="-3.55945">
        <ele>28.9</ele>
        <time>2021-07-11T09:11:27Z</time>
      </trkpt>
      <trkpt lat="47.77323" lon="-3.55946">
        <ele>28.9</ele>
        <time>2021-07-11T09:11:28Z</time>
      </trkpt>
      <trkpt lat="47.77322" lon="-3.55947">
        <ele>28.8</ele>
        <time>2021-07-11T09:11:29Z</time>
      </trkpt>
      <trkpt lat="47.77321" lon="-3.55948">
        <ele>28.7</ele>
        <time>2021-07-11T09:11:30Z</time>
      </trkpt>
      <trkpt lat="47.7732" lon="-3.55949">
        <ele>28.6</ele>
        <time>2021-07-11T09:11:31Z</time>
      </trkpt>
      <trkpt lat="47.77319" lon="-3.5595">
        <ele>28.5</ele>
        <time>2021-07-11T09:11:32Z</time>
      </trkpt>
      <trkpt lat="47.77317" lon="-3.55951">
        <ele>28.4</ele>
        <time>2021-07-11T09:11:33Z</time>
      </trkpt>
      <trkpt lat="47.77316" lon="-3.55953">
        <ele>28.3</ele>
        <time>2021-07-11T09:11:34Z</time>
      </trkpt>
      <trkpt lat="47.77315" lon="-3.55954">
        <ele>28.2</ele>
        <time>2021-07-11T09:11:35Z</time>
      </trkpt>
      <trkpt lat="47.77314" lon="-3.55955">
        <ele>28.1</ele>
        <time>2021-07-11T09:11:36Z</time>
      </trkpt>
      <trkpt lat="47.77313" lon="-3.55956">
        <ele>28</ele>
        <time>2021-07-11T09:11:37Z</time>
      </trkpt>
      <trkpt lat="47.77312" lon="-3.55957">
        <ele>27.9</ele>
        <time>2021-07-11T09:11:38Z</time>
      </trkpt>
      <trkpt lat="47.77311" lon="-3.55958">
        <ele>27.9</ele>
        <time>2021-07-11T09:11:39Z</time>
      </trkpt>
      <trkpt lat="47.77309" lon="-3.55959">
        <ele>27.8</ele>
        <time>2021-07-11T09:11:40Z</time>
      </trkpt>
      <trkpt lat="47.77308" lon="-3.5596">
        <ele>27.7</ele>
        <time>2021-07-11T09:11:41Z</time>
      </trkpt>
      <trkpt lat="47.77307" lon="-3.55961">
        <ele>27.6</ele>
        <time>2021-07-11T09:11:42Z</time>
      </trkpt>
      <trkpt lat="47.77306" lon="-3.55962">
        <ele>27.5</ele>
        <time>2021-07-11T09:11:43Z</time>
      </trkpt>
      <trkpt lat="47.77305" lon="-3.55963">
        <ele>27.4</ele>
        <time>2021-07-11T09:11:44Z</time>
      </trkpt>
      <trkpt lat="47.77304" lon="-3.55964">
        <ele>27.3</ele>
        <time>2021-07-11T09:11:45Z</time>
      </trkpt>
      <trkpt lat="47.77303" lon="-3.55965">
        <ele>27.2</ele>
        <time>2021-07-11T09:11:46Z</time>
      </trkpt>
      <trkpt lat="47.77302" lon="-3.55965">
        <ele>27.1</ele>
        <time>2021-07-11T09:11:47Z</time>
      </trkpt>
      <trkpt lat="47.77301" lon="-3.55966">
        <ele>27.1</ele>
        <time>2021-07-11T09:11:48Z</time>
      </trkpt>
      <trkpt lat="47.773" lon="-3.55967">
        <ele>27</ele>
        <time>2021-07-11T09:11:49Z</time>
      </trkpt>
      <trkpt lat="47.77299" lon="-3.55968">
        <ele>26.9</ele>
        <time>2021-07-11T09:11:50Z</time>
      </trkpt>
      <trkpt lat="47.77298" lon="-3.55968">
        <ele>25.9</ele>
        <time>2021-07-11T09:11:51Z</time>
      </trkpt>
      <trkpt lat="47.77297" lon="-3.55969">
        <ele>25.7</ele>
        <time>2021-07-11T09:11:52Z</time>
      </trkpt>
      <trkpt lat="47.77296" lon="-3.5597">
        <ele>25.6</ele>
        <time>2021-07-11T09:11:53Z</time>
      </trkpt>
      <trkpt lat="47.77295" lon="-3.5597">
        <ele>25.5</ele>
        <time>2021-07-11T09:11:54Z</time>
      </trkpt>
      <trkpt lat="47.77294" lon="-3.5597">
        <ele>25.4</ele>
        <time>2021-07-11T09:11:55Z</time>
      </trkpt>
      <trkpt lat="47.77294" lon="-3.55971">
        <ele>25.3</ele>
        <time>2021-07-11T09:11:56Z</time>
      </trkpt>
      <trkpt lat="47.77294" lon="-3.55971">
        <ele>25.3</ele>
        <time>2021-07-11T09:11:57Z</time>
      </trkpt>
      <trkpt lat="47.77294" lon="-3.55971">
        <ele>25.2</ele>
        <time>2021-07-11T09:11:58Z</time>
      </trkpt>
      <trkpt lat="47.77294" lon="-3.5597">
        <ele>25.2</ele>
        <time>2021-07-11T09:11:59Z</time>
      </trkpt>
      <trkpt lat="47.77294" lon="-3.5597">
        <ele>25.1</ele>
        <time>2021-07-11T09:12:00Z</time>
      </trkpt>
      <trkpt lat="47.77293" lon="-3.55968">
        <ele>25</ele>
        <time>2021-07-11T09:12:01Z</time>
      </trkpt>
      <trkpt lat="47.77293" lon="-3.55967">
        <ele>24.8</ele>
        <time>2021-07-11T09:12:02Z</time>
      </trkpt>
      <trkpt lat="47.77292" lon="-3.55965">
        <ele>24.6</ele>
        <time>2021-07-11T09:12:03Z</time>
      </trkpt>
      <trkpt lat="47.77291" lon="-3.55963">
        <ele>24.4</ele>
        <time>2021-07-11T09:12:04Z</time>
      </trkpt>
      <trkpt lat="47.77291" lon="-3.55961">
        <ele>24.2</ele>
        <time>2021-07-11T09:12:05Z</time>
      </trkpt>
      <trkpt lat="47.7729" lon="-3.55958">
        <ele>23.9</ele>
        <time>2021-07-11T09:12:06Z</time>
      </trkpt>
      <trkpt lat="47.7729" lon="-3.55957">
        <ele>23.8</ele>
        <time>2021-07-11T09:12:07Z</time>
      </trkpt>
      <trkpt lat="47.7729" lon="-3.55956">
        <ele>23.7</ele>
        <time>2021-07-11T09:12:08Z</time>
      </trkpt>
      <trkpt lat="47.77289" lon="-3.55954">
        <ele>23.5</ele>
        <time>2021-07-11T09:12:09Z</time>
      </trkpt>
      <trkpt lat="47.77289" lon="-3.55953">
        <ele>23.4</ele>
        <time>2021-07-11T09:12:10Z</time>
      </trkpt>
      <trkpt lat="47.77289" lon="-3.55951">
        <ele>23.3</ele>
        <time>2021-07-11T09:12:11Z</time>
      </trkpt>
      <trkpt lat="47.77289" lon="-3.5595">
        <ele>23.2</ele>
        <time>2021-07-11T09:12:12Z</time>
      </trkpt>
      <trkpt lat="47.77288" lon="-3.55949">
        <ele>23</ele>
        <time>2021-07-11T09:12:13Z</time>
      </trkpt>
      <trkpt lat="47.77288" lon="-3.55947">
        <ele>22.9</ele>
        <time>2021-07-11T09:12:14Z</time>
      </trkpt>
      <trkpt lat="47.77288" lon="-3.55946">
        <ele>22.8</ele>
        <time>2021-07-11T09:12:15Z</time>
      </trkpt>
      <trkpt lat="47.77287" lon="-3.55944">
        <ele>22.7</ele>
        <time>2021-07-11T09:12:16Z</time>
      </trkpt>
      <trkpt lat="47.77287" lon="-3.55943">
        <ele>22.6</ele>
        <time>2021-07-11T09:12:17Z</time>
      </trkpt>
      <trkpt lat="47.77287" lon="-3.55942">
        <ele>22.5</ele>
        <time>2021-07-11T09:12:18Z</time>
      </trkpt>
      <trkpt lat="47.77286" lon="-3.5594">
        <ele>22.4</ele>
        <time>2021-07-11T09:12:19Z</time>
      </trkpt>
      <trkpt lat="47.77286" lon="-3.55939">
        <ele>22.3</ele>
        <time>2021-07-11T09:12:20Z</time>
      </trkpt>
      <trkpt lat="47.77286" lon="-3.55937">
        <ele>22.3</ele>
        <time>2021-07-11T09:12:21Z</time>
      </trkpt>
      <trkpt lat="47.77285" lon="-3.55936">
        <ele>22.2</ele>
        <time>2021-07-11T09:12:22Z</time>
      </trkpt>
      <trkpt lat="47.77285" lon="-3.55935">
        <ele>22.1</ele>
        <time>2021-07-11T09:12:23Z</time>
      </trkpt>
      <trkpt lat="47.77285" lon="-3.55933">
        <ele>22</ele>
        <time>2021-07-11T09:12:24Z</time>
      </trkpt>
      <trkpt lat="47.77284" lon="-3.55932">
        <ele>22</ele>
        <time>2021-07-11T09:12:25Z</time>
      </trkpt>
      <trkpt lat="47.77284" lon="-3.5593">
        <ele>21.9</ele>
        <time>2021-07-11T09:12:26Z</time>
      </trkpt>
      <trkpt lat="47.77284" lon="-3.55929">
        <ele>21.8</ele>
        <time>2021-07-11T09:12:27Z</time>
      </trkpt>
      <trkpt lat="47.77283" lon="-3.55928">
        <ele>21.8</ele>
        <time>2021-07-11T09:12:28Z</time>
      </trkpt>
      <trkpt lat="47.77283" lon="-3.55926">
        <ele>21.7</ele>
        <time>2021-07-11T09:12:29Z</time>
      </trkpt>
      <trkpt lat="47.77283" lon="-3.55925">
        <ele>21.7</ele>
        <time>2021-07-11T09:12:30Z</time>
      </trkpt>
      <trkpt lat="47.77283" lon="-3.55923">
        <ele>21.6</ele>
        <time>2021-07-11T09:12:31Z</time>
      </trkpt>
      <trkpt lat="47.77282" lon="-3.55922">
        <ele>21.6</ele>
        <time>2021-07-11T09:12:32Z</time>
      </trkpt>
      <trkpt lat="47.77282" lon="-3.55921">
        <ele>21.5</ele>
        <time>2021-07-11T09:12:33Z</time>
      </trkpt>
      <trkpt lat="47.77282" lon="-3.55919">
        <ele>21.5</ele>
        <time>2021-07-11T09:12:34Z</time>
      </trkpt>
      <trkpt lat="47.77281" lon="-3.55918">
        <ele>21.4</ele>
        <time>2021-07-11T09:12:35Z</time>
      </trkpt>
      <trkpt lat="47.77281" lon="-3.55916">
        <ele>21.4</ele>
        <time>2021-07-11T09:12:36Z</time>
      </trkpt>
      <trkpt lat="47.77281" lon="-3.55915">
        <ele>21.3</ele>
        <time>2021-07-11T09:12:37Z</time>
      </trkpt>
      <trkpt lat="47.7728" lon="-3.55914">
        <ele>21.3</ele>
        <time>2021-07-11T09:12:38Z</time>
      </trkpt>
      <trkpt lat="47.77279" lon="-3.55913">
        <ele>21.3</ele>
        <time>2021-07-11T09:12:39Z</time>
      </trkpt>
      <trkpt lat="47.77278" lon="-3.55912">
        <ele>21.3</ele>
        <time>2021-07-11T09:12:40Z</time>
      </trkpt>
      <trkpt lat="47.77278" lon="-3.55912">
        <ele>21.2</ele>
        <time>2021-07-11T09:12:41Z</time>
      </trkpt>
      <trkpt lat="47.77277" lon="-3.55911">
        <ele>21.2</ele>
        <time>2021-07-11T09:12:42Z</time>
      </trkpt>
      <trkpt lat="47.77276" lon="-3.5591">
        <ele>21.2</ele>
        <time>2021-07-11T09:12:43Z</time>
      </trkpt>
      <trkpt lat="47.77276" lon="-3.5591">
        <ele>21.2</ele>
        <time>2021-07-11T09:12:44Z</time>
      </trkpt>
      <trkpt lat="47.77275" lon="-3.55909">
        <ele>21.1</ele>
        <time>2021-07-11T09:12:45Z</time>
      </trkpt>
      <trkpt lat="47.77274" lon="-3.55908">
        <ele>21.1</ele>
        <time>2021-07-11T09:12:46Z</time>
      </trkpt>
      <trkpt lat="47.77274" lon="-3.55908">
        <ele>21.1</ele>
        <time>2021-07-11T09:12:47Z</time>
      </trkpt>
      <trkpt lat="47.77273" lon="-3.55907">
        <ele>21.1</ele>
        <time>2021-07-11T09:12:48Z</time>
      </trkpt>
      <trkpt lat="47.77272" lon="-3.55906">
        <ele>21.1</ele>
        <time>2021-07-11T09:12:49Z</time>
      </trkpt>
      <trkpt lat="47.77272" lon="-3.55906">
        <ele>21.1</ele>
        <time>2021-07-11T09:12:50Z</time>
      </trkpt>
      <trkpt lat="47.77271" lon="-3.55905">
        <ele>21</ele>
        <time>2021-07-11T09:12:51Z</time>
      </trkpt>
      <trkpt lat="47.7727" lon="-3.55904">
        <ele>21</ele>
        <time>2021-07-11T09:12:52Z</time>
      </trkpt>
      <trkpt lat="47.7727" lon="-3.55904">
        <ele>21</ele>
        <time>2021-07-11T09:12:53Z</time>
      </trkpt>
      <trkpt lat="47.77269" lon="-3.55903">
        <ele>21</ele>
        <time>2021-07-11T09:12:54Z</time>
      </trkpt>
      <trkpt lat="47.77268" lon="-3.55902">
        <ele>21</ele>
        <time>2021-07-11T09:12:55Z</time>
      </trkpt>
      <trkpt lat="47.77266" lon="-3.55902">
        <ele>20.9</ele>
        <time>2021-07-11T09:12:56Z</time>
      </trkpt>
      <trkpt lat="47.77265" lon="-3.55902">
        <ele>20.9</ele>
        <time>2021-07-11T09:12:57Z</time>
      </trkpt>
      <trkpt lat="47.77264" lon="-3.55902">
        <ele>20.9</ele>
        <time>2021-07-11T09:12:58Z</time>
      </trkpt>
      <trkpt lat="47.77264" lon="-3.55902">
        <ele>20.9</ele>
        <time>2021-07-11T09:12:59Z</time>
      </trkpt>
      <trkpt lat="47.77263" lon="-3.55902">
        <ele>20.9</ele>
        <time>2021-07-11T09:13:00Z</time>
      </trkpt>
      <trkpt lat="47.77262" lon="-3.55903">
        <ele>20.9</ele>
        <time>2021-07-11T09:13:01Z</time>
      </trkpt>
      <trkpt lat="47.77262" lon="-3.55903">
        <ele>20.9</ele>
        <time>2021-07-11T09:13:02Z</time>
      </trkpt>
      <trkpt lat="47.77261" lon="-3.55903">
        <ele>20.9</ele>
        <time>2021-07-11T09:13:03Z</time>
      </trkpt>
      <trkpt lat="47.7726" lon="-3.55903">
        <ele>20.9</ele>
        <time>2021-07-11T09:13:04Z</time>
      </trkpt>
      <trkpt lat="47.7726" lon="-3.55903">
        <ele>20.9</ele>
        <time>2021-07-11T09:13:05Z</time>
      </trkpt>
      <trkpt lat="47.77259" lon="-3.55903">
        <ele>20.9</ele>
        <time>2021-07-11T09:13:06Z</time>
      </trkpt>
      <trkpt lat="47.77258" lon="-3.55903">
        <ele>20.9</ele>
        <time>2021-07-11T09:13:07Z</time>
      </trkpt>
      <trkpt lat="47.77258" lon="-3.55903">
        <ele>20.9</ele>
        <time>2021-07-11T09:13:08Z</time>
      </trkpt>
      <trkpt lat="47.77254" lon="-3.55905">
        <ele>20.9</ele>
        <time>2021-07-11T09:13:09Z</time>
      </trkpt>
      <trkpt lat="47.77253" lon="-3.55905">
        <ele>20.9</ele>
        <time>2021-07-11T09:13:10Z</time>
      </trkpt>
      <trkpt lat="47.77253" lon="-3.55905">
        <ele>20.9</ele>
        <time>2021-07-11T09:13:11Z</time>
      </trkpt>
      <trkpt lat="47.77252" lon="-3.55905">
        <ele>21</ele>
        <time>2021-07-11T09:13:12Z</time>
      </trkpt>
      <trkpt lat="47.77251" lon="-3.55905">
        <ele>21</ele>
        <time>2021-07-11T09:13:13Z</time>
      </trkpt>
      <trkpt lat="47.7725" lon="-3.55905">
        <ele>21</ele>
        <time>2021-07-11T09:13:14Z</time>
      </trkpt>
      <trkpt lat="47.7725" lon="-3.55905">
        <ele>21</ele>
        <time>2021-07-11T09:13:15Z</time>
      </trkpt>
      <trkpt lat="47.77249" lon="-3.55906">
        <ele>21.1</ele>
        <time>2021-07-11T09:13:16Z</time>
      </trkpt>
      <trkpt lat="47.77248" lon="-3.55906">
        <ele>21.1</ele>
        <time>2021-07-11T09:13:17Z</time>
      </trkpt>
      <trkpt lat="47.77247" lon="-3.55906">
        <ele>21.1</ele>
        <time>2021-07-11T09:13:18Z</time>
      </trkpt>
      <trkpt lat="47.77246" lon="-3.55906">
        <ele>21.2</ele>
        <time>2021-07-11T09:13:19Z</time>
      </trkpt>
      <trkpt lat="47.77246" lon="-3.55906">
        <ele>21.2</ele>
        <time>2021-07-11T09:13:20Z</time>
      </trkpt>
      <trkpt lat="47.77245" lon="-3.55906">
        <ele>21.3</ele>
        <time>2021-07-11T09:13:21Z</time>
      </trkpt>
      <trkpt lat="47.77244" lon="-3.55906">
        <ele>21.3</ele>
        <time>2021-07-11T09:13:22Z</time>
      </trkpt>
      <trkpt lat="47.77243" lon="-3.55906">
        <ele>21.4</ele>
        <time>2021-07-11T09:13:23Z</time>
      </trkpt>
      <trkpt lat="47.77242" lon="-3.55907">
        <ele>21.4</ele>
        <time>2021-07-11T09:13:24Z</time>
      </trkpt>
      <trkpt lat="47.77242" lon="-3.55907">
        <ele>21.5</ele>
        <time>2021-07-11T09:13:25Z</time>
      </trkpt>
      <trkpt lat="47.77241" lon="-3.55907">
        <ele>21.6</ele>
        <time>2021-07-11T09:13:26Z</time>
      </trkpt>
      <trkpt lat="47.7724" lon="-3.55907">
        <ele>21.6</ele>
        <time>2021-07-11T09:13:27Z</time>
      </trkpt>
      <trkpt lat="47.77239" lon="-3.55907">
        <ele>21.7</ele>
        <time>2021-07-11T09:13:28Z</time>
      </trkpt>
      <trkpt lat="47.77239" lon="-3.55907">
        <ele>21.8</ele>
        <time>2021-07-11T09:13:29Z</time>
      </trkpt>
      <trkpt lat="47.77238" lon="-3.55907">
        <ele>21.8</ele>
        <time>2021-07-11T09:13:30Z</time>
      </trkpt>
      <trkpt lat="47.77237" lon="-3.55907">
        <ele>21.9</ele>
        <time>2021-07-11T09:13:31Z</time>
      </trkpt>
      <trkpt lat="47.77236" lon="-3.55907">
        <ele>22</ele>
        <time>2021-07-11T09:13:32Z</time>
      </trkpt>
      <trkpt lat="47.77235" lon="-3.55908">
        <ele>22.1</ele>
        <time>2021-07-11T09:13:33Z</time>
      </trkpt>
      <trkpt lat="47.77235" lon="-3.55908">
        <ele>22.1</ele>
        <time>2021-07-11T09:13:34Z</time>
      </trkpt>
      <trkpt lat="47.77234" lon="-3.55908">
        <ele>22.2</ele>
        <time>2021-07-11T09:13:35Z</time>
      </trkpt>
      <trkpt lat="47.77233" lon="-3.55908">
        <ele>22.3</ele>
        <time>2021-07-11T09:13:36Z</time>
      </trkpt>
      <trkpt lat="47.77232" lon="-3.55908">
        <ele>22.4</ele>
        <time>2021-07-11T09:13:37Z</time>
      </trkpt>
      <trkpt lat="47.7723" lon="-3.55908">
        <ele>22.6</ele>
        <time>2021-07-11T09:13:38Z</time>
      </trkpt>
      <trkpt lat="47.77229" lon="-3.55907">
        <ele>22.7</ele>
        <time>2021-07-11T09:13:39Z</time>
      </trkpt>
      <trkpt lat="47.77228" lon="-3.55907">
        <ele>22.8</ele>
        <time>2021-07-11T09:13:40Z</time>
      </trkpt>
      <trkpt lat="47.77227" lon="-3.55907">
        <ele>22.9</ele>
        <time>2021-07-11T09:13:41Z</time>
      </trkpt>
      <trkpt lat="47.77226" lon="-3.55907">
        <ele>23</ele>
        <time>2021-07-11T09:13:42Z</time>
      </trkpt>
      <trkpt lat="47.77226" lon="-3.55907">
        <ele>23.1</ele>
        <time>2021-07-11T09:13:43Z</time>
      </trkpt>
      <trkpt lat="47.77225" lon="-3.55906">
        <ele>23.2</ele>
        <time>2021-07-11T09:13:44Z</time>
      </trkpt>
      <trkpt lat="47.77224" lon="-3.55906">
        <ele>23.3</ele>
        <time>2021-07-11T09:13:45Z</time>
      </trkpt>
      <trkpt lat="47.77223" lon="-3.55906">
        <ele>23.4</ele>
        <time>2021-07-11T09:13:46Z</time>
      </trkpt>
      <trkpt lat="47.77222" lon="-3.55906">
        <ele>23.5</ele>
        <time>2021-07-11T09:13:47Z</time>
      </trkpt>
      <trkpt lat="47.77221" lon="-3.55905">
        <ele>23.6</ele>
        <time>2021-07-11T09:13:48Z</time>
      </trkpt>
      <trkpt lat="47.7722" lon="-3.55905">
        <ele>23.6</ele>
        <time>2021-07-11T09:13:49Z</time>
      </trkpt>
      <trkpt lat="47.7722" lon="-3.55905">
        <ele>23.7</ele>
        <time>2021-07-11T09:13:50Z</time>
      </trkpt>
      <trkpt lat="47.77219" lon="-3.55905">
        <ele>23.8</ele>
        <time>2021-07-11T09:13:51Z</time>
      </trkpt>
      <trkpt lat="47.77218" lon="-3.55905">
        <ele>23.9</ele>
        <time>2021-07-11T09:13:52Z</time>
      </trkpt>
      <trkpt lat="47.77217" lon="-3.55904">
        <ele>24</ele>
        <time>2021-07-11T09:13:53Z</time>
      </trkpt>
      <trkpt lat="47.77216" lon="-3.55904">
        <ele>24.1</ele>
        <time>2021-07-11T09:13:54Z</time>
      </trkpt>
      <trkpt lat="47.77215" lon="-3.55904">
        <ele>24.2</ele>
        <time>2021-07-11T09:13:55Z</time>
      </trkpt>
      <trkpt lat="47.77214" lon="-3.55904">
        <ele>24.2</ele>
        <time>2021-07-11T09:13:56Z</time>
      </trkpt>
      <trkpt lat="47.77213" lon="-3.55904">
        <ele>24.3</ele>
        <time>2021-07-11T09:13:57Z</time>
      </trkpt>
      <trkpt lat="47.77213" lon="-3.55903">
        <ele>24.4</ele>
        <time>2021-07-11T09:13:58Z</time>
      </trkpt>
      <trkpt lat="47.77212" lon="-3.55903">
        <ele>24.5</ele>
        <time>2021-07-11T09:13:59Z</time>
      </trkpt>
      <trkpt lat="47.77211" lon="-3.55903">
        <ele>24.6</ele>
        <time>2021-07-11T09:14:00Z</time>
      </trkpt>
      <trkpt lat="47.7721" lon="-3.55903">
        <ele>24.7</ele>
        <time>2021-07-11T09:14:01Z</time>
      </trkpt>
      <trkpt lat="47.77209" lon="-3.55903">
        <ele>24.7</ele>
        <time>2021-07-11T09:14:02Z</time>
      </trkpt>
      <trkpt lat="47.77208" lon="-3.55902">
        <ele>24.8</ele>
        <time>2021-07-11T09:14:03Z</time>
      </trkpt>
      <trkpt lat="47.77205" lon="-3.55902">
        <ele>25.1</ele>
        <time>2021-07-11T09:14:04Z</time>
      </trkpt>
      <trkpt lat="47.77204" lon="-3.55901">
        <ele>25.2</ele>
        <time>2021-07-11T09:14:05Z</time>
      </trkpt>
      <trkpt lat="47.77203" lon="-3.55901">
        <ele>25.3</ele>
        <time>2021-07-11T09:14:06Z</time>
      </trkpt>
      <trkpt lat="47.77202" lon="-3.55901">
        <ele>25.4</ele>
        <time>2021-07-11T09:14:07Z</time>
      </trkpt>
      <trkpt lat="47.77202" lon="-3.559">
        <ele>25.4</ele>
        <time>2021-07-11T09:14:08Z</time>
      </trkpt>
      <trkpt lat="47.77201" lon="-3.559">
        <ele>25.5</ele>
        <time>2021-07-11T09:14:09Z</time>
      </trkpt>
      <trkpt lat="47.772" lon="-3.559">
        <ele>25.6</ele>
        <time>2021-07-11T09:14:10Z</time>
      </trkpt>
      <trkpt lat="47.77199" lon="-3.559">
        <ele>25.7</ele>
        <time>2021-07-11T09:14:11Z</time>
      </trkpt>
      <trkpt lat="47.77198" lon="-3.55899">
        <ele>25.8</ele>
        <time>2021-07-11T09:14:12Z</time>
      </trkpt>
      <trkpt lat="47.77197" lon="-3.55899">
        <ele>25.9</ele>
        <time>2021-07-11T09:14:13Z</time>
      </trkpt>
      <trkpt lat="47.77196" lon="-3.55899">
        <ele>26</ele>
        <time>2021-07-11T09:14:14Z</time>
      </trkpt>
      <trkpt lat="47.77195" lon="-3.55898">
        <ele>26.1</ele>
        <time>2021-07-11T09:14:15Z</time>
      </trkpt>
      <trkpt lat="47.77194" lon="-3.55898">
        <ele>26.1</ele>
        <time>2021-07-11T09:14:16Z</time>
      </trkpt>
      <trkpt lat="47.77193" lon="-3.55898">
        <ele>26.2</ele>
        <time>2021-07-11T09:14:17Z</time>
      </trkpt>
      <trkpt lat="47.77192" lon="-3.55897">
        <ele>26.3</ele>
        <time>2021-07-11T09:14:18Z</time>
      </trkpt>
      <trkpt lat="47.77191" lon="-3.55897">
        <ele>26.4</ele>
        <time>2021-07-11T09:14:19Z</time>
      </trkpt>
      <trkpt lat="47.7719" lon="-3.55897">
        <ele>26.5</ele>
        <time>2021-07-11T09:14:20Z</time>
      </trkpt>
      <trkpt lat="47.77189" lon="-3.55896">
        <ele>26.6</ele>
        <time>2021-07-11T09:14:21Z</time>
      </trkpt>
      <trkpt lat="47.77188" lon="-3.55896">
        <ele>26.7</ele>
        <time>2021-07-11T09:14:22Z</time>
      </trkpt>
      <trkpt lat="47.77187" lon="-3.55896">
        <ele>26.8</ele>
        <time>2021-07-11T09:14:23Z</time>
      </trkpt>
      <trkpt lat="47.77186" lon="-3.55896">
        <ele>26.8</ele>
        <time>2021-07-11T09:14:24Z</time>
      </trkpt>
      <trkpt lat="47.77185" lon="-3.55895">
        <ele>26.9</ele>
        <time>2021-07-11T09:14:25Z</time>
      </trkpt>
      <trkpt lat="47.77184" lon="-3.55895">
        <ele>27</ele>
        <time>2021-07-11T09:14:26Z</time>
      </trkpt>
      <trkpt lat="47.77182" lon="-3.55894">
        <ele>27.2</ele>
        <time>2021-07-11T09:14:27Z</time>
      </trkpt>
      <trkpt lat="47.77182" lon="-3.55894">
        <ele>27.2</ele>
        <time>2021-07-11T09:14:28Z</time>
      </trkpt>
      <trkpt lat="47.77181" lon="-3.55894">
        <ele>27.2</ele>
        <time>2021-07-11T09:14:29Z</time>
      </trkpt>
      <trkpt lat="47.7718" lon="-3.55894">
        <ele>27.3</ele>
        <time>2021-07-11T09:14:30Z</time>
      </trkpt>
      <trkpt lat="47.7718" lon="-3.55894">
        <ele>27.3</ele>
        <time>2021-07-11T09:14:31Z</time>
      </trkpt>
      <trkpt lat="47.77179" lon="-3.55894">
        <ele>27.4</ele>
        <time>2021-07-11T09:14:32Z</time>
      </trkpt>
      <trkpt lat="47.77179" lon="-3.55894">
        <ele>27.4</ele>
        <time>2021-07-11T09:14:33Z</time>
      </trkpt>
      <trkpt lat="47.77178" lon="-3.55894">
        <ele>27.4</ele>
        <time>2021-07-11T09:14:34Z</time>
      </trkpt>
      <trkpt lat="47.77178" lon="-3.55894">
        <ele>27.5</ele>
        <time>2021-07-11T09:14:35Z</time>
      </trkpt>
      <trkpt lat="47.77177" lon="-3.55893">
        <ele>27.5</ele>
        <time>2021-07-11T09:14:36Z</time>
      </trkpt>
      <trkpt lat="47.77176" lon="-3.55893">
        <ele>27.5</ele>
        <time>2021-07-11T09:14:37Z</time>
      </trkpt>
      <trkpt lat="47.77176" lon="-3.55893">
        <ele>27.6</ele>
        <time>2021-07-11T09:14:38Z</time>
      </trkpt>
      <trkpt lat="47.77175" lon="-3.55893">
        <ele>27.6</ele>
        <time>2021-07-11T09:14:39Z</time>
      </trkpt>
      <trkpt lat="47.77175" lon="-3.55893">
        <ele>27.6</ele>
        <time>2021-07-11T09:14:40Z</time>
      </trkpt>
      <trkpt lat="47.77174" lon="-3.55893">
        <ele>27.6</ele>
        <time>2021-07-11T09:14:41Z</time>
      </trkpt>
      <trkpt lat="47.77173" lon="-3.55893">
        <ele>27.7</ele>
        <time>2021-07-11T09:14:42Z</time>
      </trkpt>
      <trkpt lat="47.77173" lon="-3.55893">
        <ele>27.7</ele>
        <time>2021-07-11T09:14:43Z</time>
      </trkpt>
      <trkpt lat="47.77172" lon="-3.55892">
        <ele>27.7</ele>
        <time>2021-07-11T09:14:44Z</time>
      </trkpt>
      <trkpt lat="47.77172" lon="-3.55892">
        <ele>27.7</ele>
        <time>2021-07-11T09:14:45Z</time>
      </trkpt>
      <trkpt lat="47.77171" lon="-3.55892">
        <ele>27.8</ele>
        <time>2021-07-11T09:14:46Z</time>
      </trkpt>
      <trkpt lat="47.77171" lon="-3.55892">
        <ele>27.8</ele>
        <time>2021-07-11T09:14:47Z</time>
      </trkpt>
      <trkpt lat="47.77168" lon="-3.55892">
        <ele>27.9</ele>
        <time>2021-07-11T09:14:48Z</time>
      </trkpt>
      <trkpt lat="47.77167" lon="-3.55892">
        <ele>27.9</ele>
        <time>2021-07-11T09:14:49Z</time>
      </trkpt>
      <trkpt lat="47.77166" lon="-3.55892">
        <ele>27.9</ele>
        <time>2021-07-11T09:14:50Z</time>
      </trkpt>
      <trkpt lat="47.77165" lon="-3.55892">
        <ele>28</ele>
        <time>2021-07-11T09:14:51Z</time>
      </trkpt>
      <trkpt lat="47.77164" lon="-3.55892">
        <ele>28</ele>
        <time>2021-07-11T09:14:52Z</time>
      </trkpt>
      <trkpt lat="47.77163" lon="-3.55891">
        <ele>28</ele>
        <time>2021-07-11T09:14:53Z</time>
      </trkpt>
      <trkpt lat="47.77161" lon="-3.55891">
        <ele>28</ele>
        <time>2021-07-11T09:14:54Z</time>
      </trkpt>
      <trkpt lat="47.7716" lon="-3.55891">
        <ele>28</ele>
        <time>2021-07-11T09:14:55Z</time>
      </trkpt>
      <trkpt lat="47.77159" lon="-3.55891">
        <ele>28</ele>
        <time>2021-07-11T09:14:56Z</time>
      </trkpt>
      <trkpt lat="47.77157" lon="-3.55891">
        <ele>28</ele>
        <time>2021-07-11T09:14:57Z</time>
      </trkpt>
      <trkpt lat="47.77156" lon="-3.55891">
        <ele>28</ele>
        <time>2021-07-11T09:14:58Z</time>
      </trkpt>
      <trkpt lat="47.77155" lon="-3.55891">
        <ele>28</ele>
        <time>2021-07-11T09:14:59Z</time>
      </trkpt>
      <trkpt lat="47.77154" lon="-3.55892">
        <ele>28</ele>
        <time>2021-07-11T09:15:00Z</time>
      </trkpt>
      <trkpt lat="47.77152" lon="-3.55892">
        <ele>28</ele>
        <time>2021-07-11T09:15:01Z</time>
      </trkpt>
      <trkpt lat="47.77151" lon="-3.55892">
        <ele>28</ele>
        <time>2021-07-11T09:15:02Z</time>
      </trkpt>
      <trkpt lat="47.7715" lon="-3.55892">
        <ele>28</ele>
        <time>2021-07-11T09:15:03Z</time>
      </trkpt>
      <trkpt lat="47.77149" lon="-3.55892">
        <ele>28</ele>
        <time>2021-07-11T09:15:04Z</time>
      </trkpt>
      <trkpt lat="47.77148" lon="-3.55892">
        <ele>28</ele>
        <time>2021-07-11T09:15:05Z</time>
      </trkpt>
      <trkpt lat="47.77147" lon="-3.55892">
        <ele>28</ele>
        <time>2021-07-11T09:15:06Z</time>
      </trkpt>
      <trkpt lat="47.77145" lon="-3.55892">
        <ele>28</ele>
        <time>2021-07-11T09:15:07Z</time>
      </trkpt>
      <trkpt lat="47.77144" lon="-3.55892">
        <ele>28</ele>
        <time>2021-07-11T09:15:08Z</time>
      </trkpt>
      <trkpt lat="47.77143" lon="-3.55892">
        <ele>28</ele>
        <time>2021-07-11T09:15:09Z</time>
      </trkpt>
      <trkpt lat="47.77142" lon="-3.55892">
        <ele>28</ele>
        <time>2021-07-11T09:15:10Z</time>
      </trkpt>
      <trkpt lat="47.77141" lon="-3.55891">
        <ele>28</ele>
        <time>2021-07-11T09:15:11Z</time>
      </trkpt>
      <trkpt lat="47.7714" lon="-3.55891">
        <ele>28</ele>
        <time>2021-07-11T09:15:12Z</time>
      </trkpt>
      <trkpt lat="47.77139" lon="-3.55891">
        <ele>28</ele>
        <time>2021-07-11T09:15:13Z</time>
      </trkpt>
      <trkpt lat="47.77138" lon="-3.55891">
        <ele>28</ele>
        <time>2021-07-11T09:15:14Z</time>
      </trkpt>
      <trkpt lat="47.77136" lon="-3.55891">
        <ele>28</ele>
        <time>2021-07-11T09:15:15Z</time>
      </trkpt>
      <trkpt lat="47.77135" lon="-3.55892">
        <ele>28</ele>
        <time>2021-07-11T09:15:16Z</time>
      </trkpt>
      <trkpt lat="47.77134" lon="-3.55892">
        <ele>28</ele>
        <time>2021-07-11T09:15:17Z</time>
      </trkpt>
      <trkpt lat="47.77133" lon="-3.55892">
        <ele>28</ele>
        <time>2021-07-11T09:15:18Z</time>
      </trkpt>
      <trkpt lat="47.77132" lon="-3.55892">
        <ele>28</ele>
        <time>2021-07-11T09:15:19Z</time>
      </trkpt>
      <trkpt lat="47.7713" lon="-3.55892">
        <ele>28</ele>
        <time>2021-07-11T09:15:20Z</time>
      </trkpt>
      <trkpt lat="47.77129" lon="-3.55892">
        <ele>28</ele>
        <time>2021-07-11T09:15:21Z</time>
      </trkpt>
      <trkpt lat="47.77128" lon="-3.55892">
        <ele>28</ele>
        <time>2021-07-11T09:15:22Z</time>
      </trkpt>
      <trkpt lat="47.77127" lon="-3.55892">
        <ele>28</ele>
        <time>2021-07-11T09:15:23Z</time>
      </trkpt>
      <trkpt lat="47.77126" lon="-3.55892">
        <ele>28</ele>
        <time>2021-07-11T09:15:24Z</time>
      </trkpt>
      <trkpt lat="47.77124" lon="-3.55892">
        <ele>28</ele>
        <time>2021-07-11T09:15:25Z</time>
      </trkpt>
      <trkpt lat="47.77123" lon="-3.55892">
        <ele>28</ele>
        <time>2021-07-11T09:15:26Z</time>
      </trkpt>
      <trkpt lat="47.77122" lon="-3.55892">
        <ele>28</ele>
        <time>2021-07-11T09:15:27Z</time>
      </trkpt>
      <trkpt lat="47.77121" lon="-3.55892">
        <ele>28</ele>
        <time>2021-07-11T09:15:28Z</time>
      </trkpt>
      <trkpt lat="47.7712" lon="-3.55892">
        <ele>27.9</ele>
        <time>2021-07-11T09:15:29Z</time>
      </trkpt>
      <trkpt lat="47.77119" lon="-3.55892">
        <ele>27.9</ele>
        <time>2021-07-11T09:15:30Z</time>
      </trkpt>
      <trkpt lat="47.77117" lon="-3.55892">
        <ele>27.9</ele>
        <time>2021-07-11T09:15:31Z</time>
      </trkpt>
      <trkpt lat="47.77116" lon="-3.55892">
        <ele>27.9</ele>
        <time>2021-07-11T09:15:32Z</time>
      </trkpt>
      <trkpt lat="47.77115" lon="-3.55892">
        <ele>27.9</ele>
        <time>2021-07-11T09:15:33Z</time>
      </trkpt>
      <trkpt lat="47.77114" lon="-3.55892">
        <ele>27.9</ele>
        <time>2021-07-11T09:15:34Z</time>
      </trkpt>
      <trkpt lat="47.77113" lon="-3.55891">
        <ele>27.9</ele>
        <time>2021-07-11T09:15:35Z</time>
      </trkpt>
      <trkpt lat="47.77112" lon="-3.55891">
        <ele>27.9</ele>
        <time>2021-07-11T09:15:36Z</time>
      </trkpt>
      <trkpt lat="47.7711" lon="-3.55891">
        <ele>27.8</ele>
        <time>2021-07-11T09:15:37Z</time>
      </trkpt>
      <trkpt lat="47.77109" lon="-3.55891">
        <ele>27.8</ele>
        <time>2021-07-11T09:15:38Z</time>
      </trkpt>
      <trkpt lat="47.77108" lon="-3.55891">
        <ele>27.8</ele>
        <time>2021-07-11T09:15:39Z</time>
      </trkpt>
      <trkpt lat="47.77106" lon="-3.5589">
        <ele>27.8</ele>
        <time>2021-07-11T09:15:40Z</time>
      </trkpt>
      <trkpt lat="47.77105" lon="-3.5589">
        <ele>27.8</ele>
        <time>2021-07-11T09:15:41Z</time>
      </trkpt>
      <trkpt lat="47.77103" lon="-3.55889">
        <ele>27.7</ele>
        <time>2021-07-11T09:15:42Z</time>
      </trkpt>
      <trkpt lat="47.77101" lon="-3.55889">
        <ele>27.7</ele>
        <time>2021-07-11T09:15:43Z</time>
      </trkpt>
      <trkpt lat="47.771" lon="-3.55888">
        <ele>27.7</ele>
        <time>2021-07-11T09:15:44Z</time>
      </trkpt>
      <trkpt lat="47.77099" lon="-3.55888">
        <ele>27.6</ele>
        <time>2021-07-11T09:15:45Z</time>
      </trkpt>
      <trkpt lat="47.77098" lon="-3.55887">
        <ele>27.6</ele>
        <time>2021-07-11T09:15:46Z</time>
      </trkpt>
      <trkpt lat="47.77097" lon="-3.55887">
        <ele>27.6</ele>
        <time>2021-07-11T09:15:47Z</time>
      </trkpt>
      <trkpt lat="47.77096" lon="-3.55886">
        <ele>27.6</ele>
        <time>2021-07-11T09:15:48Z</time>
      </trkpt>
      <trkpt lat="47.77094" lon="-3.55886">
        <ele>27.6</ele>
        <time>2021-07-11T09:15:49Z</time>
      </trkpt>
      <trkpt lat="47.77093" lon="-3.55885">
        <ele>27.5</ele>
        <time>2021-07-11T09:15:50Z</time>
      </trkpt>
      <trkpt lat="47.77092" lon="-3.55885">
        <ele>27.5</ele>
        <time>2021-07-11T09:15:51Z</time>
      </trkpt>
      <trkpt lat="47.77091" lon="-3.55884">
        <ele>27.5</ele>
        <time>2021-07-11T09:15:52Z</time>
      </trkpt>
      <trkpt lat="47.7709" lon="-3.55883">
        <ele>27.4</ele>
        <time>2021-07-11T09:15:53Z</time>
      </trkpt>
      <trkpt lat="47.77089" lon="-3.55883">
        <ele>27.4</ele>
        <time>2021-07-11T09:15:54Z</time>
      </trkpt>
      <trkpt lat="47.77088" lon="-3.55882">
        <ele>27.4</ele>
        <time>2021-07-11T09:15:55Z</time>
      </trkpt>
      <trkpt lat="47.77086" lon="-3.55882">
        <ele>27.3</ele>
        <time>2021-07-11T09:15:56Z</time>
      </trkpt>
      <trkpt lat="47.77085" lon="-3.55881">
        <ele>27.3</ele>
        <time>2021-07-11T09:15:57Z</time>
      </trkpt>
      <trkpt lat="47.77084" lon="-3.55881">
        <ele>27.3</ele>
        <time>2021-07-11T09:15:58Z</time>
      </trkpt>
      <trkpt lat="47.77083" lon="-3.5588">
        <ele>27.2</ele>
        <time>2021-07-11T09:15:59Z</time>
      </trkpt>
      <trkpt lat="47.77082" lon="-3.5588">
        <ele>27.2</ele>
        <time>2021-07-11T09:16:00Z</time>
      </trkpt>
      <trkpt lat="47.77081" lon="-3.55879">
        <ele>27.2</ele>
        <time>2021-07-11T09:16:01Z</time>
      </trkpt>
      <trkpt lat="47.7708" lon="-3.55879">
        <ele>27.1</ele>
        <time>2021-07-11T09:16:02Z</time>
      </trkpt>
      <trkpt lat="47.77078" lon="-3.55878">
        <ele>27.1</ele>
        <time>2021-07-11T09:16:03Z</time>
      </trkpt>
      <trkpt lat="47.77077" lon="-3.55877">
        <ele>27</ele>
        <time>2021-07-11T09:16:04Z</time>
      </trkpt>
      <trkpt lat="47.77076" lon="-3.55877">
        <ele>27</ele>
        <time>2021-07-11T09:16:05Z</time>
      </trkpt>
      <trkpt lat="47.77075" lon="-3.55876">
        <ele>26.9</ele>
        <time>2021-07-11T09:16:06Z</time>
      </trkpt>
      <trkpt lat="47.77074" lon="-3.55876">
        <ele>26.9</ele>
        <time>2021-07-11T09:16:07Z</time>
      </trkpt>
      <trkpt lat="47.77072" lon="-3.55875">
        <ele>26.9</ele>
        <time>2021-07-11T09:16:08Z</time>
      </trkpt>
      <trkpt lat="47.77071" lon="-3.55874">
        <ele>26.8</ele>
        <time>2021-07-11T09:16:09Z</time>
      </trkpt>
      <trkpt lat="47.7707" lon="-3.55873">
        <ele>26.7</ele>
        <time>2021-07-11T09:16:10Z</time>
      </trkpt>
      <trkpt lat="47.77068" lon="-3.55873">
        <ele>26.7</ele>
        <time>2021-07-11T09:16:11Z</time>
      </trkpt>
      <trkpt lat="47.77067" lon="-3.55872">
        <ele>26.6</ele>
        <time>2021-07-11T09:16:12Z</time>
      </trkpt>
      <trkpt lat="47.77065" lon="-3.5587">
        <ele>26.5</ele>
        <time>2021-07-11T09:16:13Z</time>
      </trkpt>
      <trkpt lat="47.77064" lon="-3.5587">
        <ele>26.5</ele>
        <time>2021-07-11T09:16:14Z</time>
      </trkpt>
      <trkpt lat="47.77062" lon="-3.55869">
        <ele>26.4</ele>
        <time>2021-07-11T09:16:15Z</time>
      </trkpt>
      <trkpt lat="47.77061" lon="-3.55869">
        <ele>26.4</ele>
        <time>2021-07-11T09:16:16Z</time>
      </trkpt>
      <trkpt lat="47.7706" lon="-3.55868">
        <ele>26.3</ele>
        <time>2021-07-11T09:16:17Z</time>
      </trkpt>
      <trkpt lat="47.77059" lon="-3.55868">
        <ele>26.3</ele>
        <time>2021-07-11T09:16:18Z</time>
      </trkpt>
      <trkpt lat="47.77058" lon="-3.55867">
        <ele>26.2</ele>
        <time>2021-07-11T09:16:19Z</time>
      </trkpt>
      <trkpt lat="47.77057" lon="-3.55867">
        <ele>26.2</ele>
        <time>2021-07-11T09:16:20Z</time>
      </trkpt>
      <trkpt lat="47.77056" lon="-3.55866">
        <ele>26.1</ele>
        <time>2021-07-11T09:16:21Z</time>
      </trkpt>
      <trkpt lat="47.77055" lon="-3.55866">
        <ele>26.1</ele>
        <time>2021-07-11T09:16:22Z</time>
      </trkpt>
      <trkpt lat="47.77054" lon="-3.55865">
        <ele>26</ele>
        <time>2021-07-11T09:16:23Z</time>
      </trkpt>
      <trkpt lat="47.77052" lon="-3.55864">
        <ele>26</ele>
        <time>2021-07-11T09:16:24Z</time>
      </trkpt>
      <trkpt lat="47.77051" lon="-3.55864">
        <ele>25.9</ele>
        <time>2021-07-11T09:16:25Z</time>
      </trkpt>
      <trkpt lat="47.7705" lon="-3.55863">
        <ele>25.9</ele>
        <time>2021-07-11T09:16:26Z</time>
      </trkpt>
      <trkpt lat="47.77049" lon="-3.55863">
        <ele>25.8</ele>
        <time>2021-07-11T09:16:27Z</time>
      </trkpt>
      <trkpt lat="47.77048" lon="-3.55862">
        <ele>25.8</ele>
        <time>2021-07-11T09:16:28Z</time>
      </trkpt>
      <trkpt lat="47.77047" lon="-3.55862">
        <ele>25.8</ele>
        <time>2021-07-11T09:16:29Z</time>
      </trkpt>
      <trkpt lat="47.77046" lon="-3.55861">
        <ele>25.7</ele>
        <time>2021-07-11T09:16:30Z</time>
      </trkpt>
      <trkpt lat="47.77045" lon="-3.55861">
        <ele>25.7</ele>
        <time>2021-07-11T09:16:31Z</time>
      </trkpt>
      <trkpt lat="47.77044" lon="-3.5586">
        <ele>25.6</ele>
        <time>2021-07-11T09:16:32Z</time>
      </trkpt>
      <trkpt lat="47.77042" lon="-3.5586">
        <ele>25.6</ele>
        <time>2021-07-11T09:16:33Z</time>
      </trkpt>
      <trkpt lat="47.77041" lon="-3.55859">
        <ele>25.5</ele>
        <time>2021-07-11T09:16:34Z</time>
      </trkpt>
      <trkpt lat="47.7704" lon="-3.55858">
        <ele>25.5</ele>
        <time>2021-07-11T09:16:35Z</time>
      </trkpt>
      <trkpt lat="47.77039" lon="-3.55858">
        <ele>25.5</ele>
        <time>2021-07-11T09:16:36Z</time>
      </trkpt>
      <trkpt lat="47.77038" lon="-3.55857">
        <ele>25.4</ele>
        <time>2021-07-11T09:16:37Z</time>
      </trkpt>
      <trkpt lat="47.77037" lon="-3.55857">
        <ele>25.4</ele>
        <time>2021-07-11T09:16:38Z</time>
      </trkpt>
      <trkpt lat="47.77036" lon="-3.55856">
        <ele>25.3</ele>
        <time>2021-07-11T09:16:39Z</time>
      </trkpt>
      <trkpt lat="47.77035" lon="-3.55856">
        <ele>25.3</ele>
        <time>2021-07-11T09:16:40Z</time>
      </trkpt>
      <trkpt lat="47.77034" lon="-3.55855">
        <ele>25.2</ele>
        <time>2021-07-11T09:16:41Z</time>
      </trkpt>
      <trkpt lat="47.77032" lon="-3.55855">
        <ele>25.2</ele>
        <time>2021-07-11T09:16:42Z</time>
      </trkpt>
      <trkpt lat="47.77031" lon="-3.55855">
        <ele>25.1</ele>
        <time>2021-07-11T09:16:43Z</time>
      </trkpt>
      <trkpt lat="47.7703" lon="-3.55855">
        <ele>25.1</ele>
        <time>2021-07-11T09:16:44Z</time>
      </trkpt>
      <trkpt lat="47.77029" lon="-3.55855">
        <ele>25.1</ele>
        <time>2021-07-11T09:16:45Z</time>
      </trkpt>
      <trkpt lat="47.77028" lon="-3.55855">
        <ele>25</ele>
        <time>2021-07-11T09:16:46Z</time>
      </trkpt>
      <trkpt lat="47.77028" lon="-3.55855">
        <ele>25</ele>
        <time>2021-07-11T09:16:47Z</time>
      </trkpt>
      <trkpt lat="47.77028" lon="-3.55855">
        <ele>25</ele>
        <time>2021-07-11T09:16:48Z</time>
      </trkpt>
      <trkpt lat="47.77028" lon="-3.55855">
        <ele>25</ele>
        <time>2021-07-11T09:16:49Z</time>
      </trkpt>
      <trkpt lat="47.77027" lon="-3.55855">
        <ele>25</ele>
        <time>2021-07-11T09:16:50Z</time>
      </trkpt>
      <trkpt lat="47.77026" lon="-3.55855">
        <ele>25</ele>
        <time>2021-07-11T09:16:51Z</time>
      </trkpt>
      <trkpt lat="47.77024" lon="-3.55855">
        <ele>24.9</ele>
        <time>2021-07-11T09:16:52Z</time>
      </trkpt>
      <trkpt lat="47.77021" lon="-3.55855">
        <ele>24.7</ele>
        <time>2021-07-11T09:16:53Z</time>
      </trkpt>
      <trkpt lat="47.77019" lon="-3.55855">
        <ele>24.7</ele>
        <time>2021-07-11T09:16:54Z</time>
      </trkpt>
      <trkpt lat="47.77018" lon="-3.55855">
        <ele>24.6</ele>
        <time>2021-07-11T09:16:55Z</time>
      </trkpt>
      <trkpt lat="47.77016" lon="-3.55855">
        <ele>24.5</ele>
        <time>2021-07-11T09:16:56Z</time>
      </trkpt>
      <trkpt lat="47.77014" lon="-3.55855">
        <ele>24.4</ele>
        <time>2021-07-11T09:16:57Z</time>
      </trkpt>
      <trkpt lat="47.77012" lon="-3.55855">
        <ele>24.4</ele>
        <time>2021-07-11T09:16:58Z</time>
      </trkpt>
      <trkpt lat="47.77011" lon="-3.55855">
        <ele>24.3</ele>
        <time>2021-07-11T09:16:59Z</time>
      </trkpt>
      <trkpt lat="47.7701" lon="-3.55855">
        <ele>24.3</ele>
        <time>2021-07-11T09:17:00Z</time>
      </trkpt>
      <trkpt lat="47.7701" lon="-3.55855">
        <ele>24.2</ele>
        <time>2021-07-11T09:17:01Z</time>
      </trkpt>
      <trkpt lat="47.7701" lon="-3.55855">
        <ele>24.2</ele>
        <time>2021-07-11T09:17:02Z</time>
      </trkpt>
      <trkpt lat="47.7701" lon="-3.55855">
        <ele>24.2</ele>
        <time>2021-07-11T09:17:03Z</time>
      </trkpt>
      <trkpt lat="47.77009" lon="-3.55855">
        <ele>24.2</ele>
        <time>2021-07-11T09:17:04Z</time>
      </trkpt>
      <trkpt lat="47.77009" lon="-3.55855">
        <ele>24.2</ele>
        <time>2021-07-11T09:17:05Z</time>
      </trkpt>
      <trkpt lat="47.77009" lon="-3.55855">
        <ele>24.2</ele>
        <time>2021-07-11T09:17:06Z</time>
      </trkpt>
      <trkpt lat="47.77009" lon="-3.55855">
        <ele>24.2</ele>
        <time>2021-07-11T09:17:07Z</time>
      </trkpt>
      <trkpt lat="47.77009" lon="-3.55856">
        <ele>24.2</ele>
        <time>2021-07-11T09:17:08Z</time>
      </trkpt>
      <trkpt lat="47.77006" lon="-3.55858">
        <ele>24</ele>
        <time>2021-07-11T09:17:09Z</time>
      </trkpt>
      <trkpt lat="47.77004" lon="-3.55859">
        <ele>23.9</ele>
        <time>2021-07-11T09:17:10Z</time>
      </trkpt>
      <trkpt lat="47.77002" lon="-3.55861">
        <ele>23.8</ele>
        <time>2021-07-11T09:17:11Z</time>
      </trkpt>
      <trkpt lat="47.77001" lon="-3.55863">
        <ele>23.8</ele>
        <time>2021-07-11T09:17:12Z</time>
      </trkpt>
      <trkpt lat="47.76999" lon="-3.55864">
        <ele>23.8</ele>
        <time>2021-07-11T09:17:13Z</time>
      </trkpt>
      <trkpt lat="47.76998" lon="-3.55865">
        <ele>23.7</ele>
        <time>2021-07-11T09:17:14Z</time>
      </trkpt>
      <trkpt lat="47.76998" lon="-3.55867">
        <ele>23.7</ele>
        <time>2021-07-11T09:17:15Z</time>
      </trkpt>
      <trkpt lat="47.76997" lon="-3.55869">
        <ele>23.7</ele>
        <time>2021-07-11T09:17:16Z</time>
      </trkpt>
      <trkpt lat="47.76995" lon="-3.55873">
        <ele>23.7</ele>
        <time>2021-07-11T09:17:17Z</time>
      </trkpt>
      <trkpt lat="47.76995" lon="-3.55874">
        <ele>23.7</ele>
        <time>2021-07-11T09:17:18Z</time>
      </trkpt>
      <trkpt lat="47.76994" lon="-3.55876">
        <ele>23.7</ele>
        <time>2021-07-11T09:17:19Z</time>
      </trkpt>
      <trkpt lat="47.76994" lon="-3.55877">
        <ele>23.7</ele>
        <time>2021-07-11T09:17:20Z</time>
      </trkpt>
      <trkpt lat="47.76993" lon="-3.55879">
        <ele>23.7</ele>
        <time>2021-07-11T09:17:21Z</time>
      </trkpt>
      <trkpt lat="47.76993" lon="-3.5588">
        <ele>23.7</ele>
        <time>2021-07-11T09:17:22Z</time>
      </trkpt>
      <trkpt lat="47.76993" lon="-3.55882">
        <ele>23.7</ele>
        <time>2021-07-11T09:17:23Z</time>
      </trkpt>
      <trkpt lat="47.76992" lon="-3.55884">
        <ele>23.7</ele>
        <time>2021-07-11T09:17:24Z</time>
      </trkpt>
      <trkpt lat="47.76992" lon="-3.55886">
        <ele>23.7</ele>
        <time>2021-07-11T09:17:25Z</time>
      </trkpt>
      <trkpt lat="47.76992" lon="-3.55887">
        <ele>23.7</ele>
        <time>2021-07-11T09:17:26Z</time>
      </trkpt>
      <trkpt lat="47.76991" lon="-3.55889">
        <ele>23.7</ele>
        <time>2021-07-11T09:17:27Z</time>
      </trkpt>
      <trkpt lat="47.76991" lon="-3.55891">
        <ele>23.7</ele>
        <time>2021-07-11T09:17:28Z</time>
      </trkpt>
      <trkpt lat="47.7699" lon="-3.55893">
        <ele>23.7</ele>
        <time>2021-07-11T09:17:29Z</time>
      </trkpt>
      <trkpt lat="47.7699" lon="-3.55895">
        <ele>23.7</ele>
        <time>2021-07-11T09:17:30Z</time>
      </trkpt>
      <trkpt lat="47.76989" lon="-3.55897">
        <ele>23.7</ele>
        <time>2021-07-11T09:17:31Z</time>
      </trkpt>
      <trkpt lat="47.76989" lon="-3.55899">
        <ele>23.7</ele>
        <time>2021-07-11T09:17:32Z</time>
      </trkpt>
      <trkpt lat="47.76988" lon="-3.55901">
        <ele>23.6</ele>
        <time>2021-07-11T09:17:33Z</time>
      </trkpt>
      <trkpt lat="47.76988" lon="-3.55902">
        <ele>23.6</ele>
        <time>2021-07-11T09:17:34Z</time>
      </trkpt>
      <trkpt lat="47.76987" lon="-3.55903">
        <ele>23.6</ele>
        <time>2021-07-11T09:17:35Z</time>
      </trkpt>
      <trkpt lat="47.76987" lon="-3.55903">
        <ele>23.6</ele>
        <time>2021-07-11T09:17:36Z</time>
      </trkpt>
      <trkpt lat="47.76987" lon="-3.55904">
        <ele>23.6</ele>
        <time>2021-07-11T09:17:37Z</time>
      </trkpt>
      <trkpt lat="47.76987" lon="-3.55905">
        <ele>23.6</ele>
        <time>2021-07-11T09:17:38Z</time>
      </trkpt>
      <trkpt lat="47.76986" lon="-3.55906">
        <ele>23.6</ele>
        <time>2021-07-11T09:17:39Z</time>
      </trkpt>
      <trkpt lat="47.76985" lon="-3.55909">
        <ele>23.6</ele>
        <time>2021-07-11T09:17:40Z</time>
      </trkpt>
      <trkpt lat="47.76985" lon="-3.55911">
        <ele>23.6</ele>
        <time>2021-07-11T09:17:41Z</time>
      </trkpt>
      <trkpt lat="47.76984" lon="-3.55913">
        <ele>23.6</ele>
        <time>2021-07-11T09:17:42Z</time>
      </trkpt>
      <trkpt lat="47.76983" lon="-3.55915">
        <ele>23.6</ele>
        <time>2021-07-11T09:17:43Z</time>
      </trkpt>
      <trkpt lat="47.76983" lon="-3.55916">
        <ele>23.6</ele>
        <time>2021-07-11T09:17:44Z</time>
      </trkpt>
      <trkpt lat="47.76982" lon="-3.55918">
        <ele>23.6</ele>
        <time>2021-07-11T09:17:45Z</time>
      </trkpt>
      <trkpt lat="47.76982" lon="-3.5592">
        <ele>23.6</ele>
        <time>2021-07-11T09:17:46Z</time>
      </trkpt>
      <trkpt lat="47.76981" lon="-3.55922">
        <ele>23.6</ele>
        <time>2021-07-11T09:17:47Z</time>
      </trkpt>
      <trkpt lat="47.7698" lon="-3.55923">
        <ele>23.6</ele>
        <time>2021-07-11T09:17:48Z</time>
      </trkpt>
      <trkpt lat="47.7698" lon="-3.55925">
        <ele>23.6</ele>
        <time>2021-07-11T09:17:49Z</time>
      </trkpt>
      <trkpt lat="47.76979" lon="-3.55927">
        <ele>23.6</ele>
        <time>2021-07-11T09:17:50Z</time>
      </trkpt>
      <trkpt lat="47.76979" lon="-3.55929">
        <ele>23.5</ele>
        <time>2021-07-11T09:17:51Z</time>
      </trkpt>
      <trkpt lat="47.76978" lon="-3.55931">
        <ele>23.5</ele>
        <time>2021-07-11T09:17:52Z</time>
      </trkpt>
      <trkpt lat="47.76978" lon="-3.55933">
        <ele>23.5</ele>
        <time>2021-07-11T09:17:53Z</time>
      </trkpt>
      <trkpt lat="47.76977" lon="-3.55935">
        <ele>23.5</ele>
        <time>2021-07-11T09:17:54Z</time>
      </trkpt>
      <trkpt lat="47.76977" lon="-3.55937">
        <ele>23.5</ele>
        <time>2021-07-11T09:17:55Z</time>
      </trkpt>
      <trkpt lat="47.76976" lon="-3.55939">
        <ele>23.5</ele>
        <time>2021-07-11T09:17:56Z</time>
      </trkpt>
      <trkpt lat="47.76976" lon="-3.55941">
        <ele>23.5</ele>
        <time>2021-07-11T09:17:57Z</time>
      </trkpt>
      <trkpt lat="47.76975" lon="-3.55942">
        <ele>23.5</ele>
        <time>2021-07-11T09:17:58Z</time>
      </trkpt>
      <trkpt lat="47.76974" lon="-3.55944">
        <ele>23.5</ele>
        <time>2021-07-11T09:17:59Z</time>
      </trkpt>
      <trkpt lat="47.76974" lon="-3.55945">
        <ele>23.4</ele>
        <time>2021-07-11T09:18:00Z</time>
      </trkpt>
      <trkpt lat="47.76973" lon="-3.55947">
        <ele>23.4</ele>
        <time>2021-07-11T09:18:01Z</time>
      </trkpt>
      <trkpt lat="47.76972" lon="-3.55948">
        <ele>23.4</ele>
        <time>2021-07-11T09:18:02Z</time>
      </trkpt>
      <trkpt lat="47.76972" lon="-3.5595">
        <ele>23.4</ele>
        <time>2021-07-11T09:18:03Z</time>
      </trkpt>
      <trkpt lat="47.76971" lon="-3.55951">
        <ele>23.4</ele>
        <time>2021-07-11T09:18:04Z</time>
      </trkpt>
      <trkpt lat="47.7697" lon="-3.55953">
        <ele>23.4</ele>
        <time>2021-07-11T09:18:05Z</time>
      </trkpt>
      <trkpt lat="47.76969" lon="-3.55955">
        <ele>23.3</ele>
        <time>2021-07-11T09:18:06Z</time>
      </trkpt>
      <trkpt lat="47.76968" lon="-3.55957">
        <ele>23.3</ele>
        <time>2021-07-11T09:18:07Z</time>
      </trkpt>
      <trkpt lat="47.76968" lon="-3.55959">
        <ele>23.3</ele>
        <time>2021-07-11T09:18:08Z</time>
      </trkpt>
      <trkpt lat="47.76967" lon="-3.55962">
        <ele>23.3</ele>
        <time>2021-07-11T09:18:09Z</time>
      </trkpt>
      <trkpt lat="47.76966" lon="-3.55964">
        <ele>23.2</ele>
        <time>2021-07-11T09:18:10Z</time>
      </trkpt>
      <trkpt lat="47.76966" lon="-3.55966">
        <ele>23.2</ele>
        <time>2021-07-11T09:18:11Z</time>
      </trkpt>
      <trkpt lat="47.76966" lon="-3.55968">
        <ele>23.2</ele>
        <time>2021-07-11T09:18:12Z</time>
      </trkpt>
      <trkpt lat="47.76966" lon="-3.5597">
        <ele>23.1</ele>
        <time>2021-07-11T09:18:13Z</time>
      </trkpt>
      <trkpt lat="47.76966" lon="-3.55972">
        <ele>23.1</ele>
        <time>2021-07-11T09:18:14Z</time>
      </trkpt>
      <trkpt lat="47.76966" lon="-3.55974">
        <ele>23.1</ele>
        <time>2021-07-11T09:18:15Z</time>
      </trkpt>
      <trkpt lat="47.76965" lon="-3.55976">
        <ele>23.1</ele>
        <time>2021-07-11T09:18:16Z</time>
      </trkpt>
      <trkpt lat="47.76965" lon="-3.55977">
        <ele>23</ele>
        <time>2021-07-11T09:18:17Z</time>
      </trkpt>
      <trkpt lat="47.76964" lon="-3.55979">
        <ele>23</ele>
        <time>2021-07-11T09:18:18Z</time>
      </trkpt>
      <trkpt lat="47.76964" lon="-3.55981">
        <ele>23</ele>
        <time>2021-07-11T09:18:19Z</time>
      </trkpt>
      <trkpt lat="47.76964" lon="-3.55982">
        <ele>22.9</ele>
        <time>2021-07-11T09:18:20Z</time>
      </trkpt>
      <trkpt lat="47.76964" lon="-3.55984">
        <ele>22.9</ele>
        <time>2021-07-11T09:18:21Z</time>
      </trkpt>
      <trkpt lat="47.76964" lon="-3.55986">
        <ele>22.9</ele>
        <time>2021-07-11T09:18:22Z</time>
      </trkpt>
      <trkpt lat="47.76965" lon="-3.55988">
        <ele>22.8</ele>
        <time>2021-07-11T09:18:23Z</time>
      </trkpt>
      <trkpt lat="47.76965" lon="-3.5599">
        <ele>22.8</ele>
        <time>2021-07-11T09:18:24Z</time>
      </trkpt>
      <trkpt lat="47.76965" lon="-3.55991">
        <ele>22.7</ele>
        <time>2021-07-11T09:18:25Z</time>
      </trkpt>
      <trkpt lat="47.76965" lon="-3.55993">
        <ele>22.7</ele>
        <time>2021-07-11T09:18:26Z</time>
      </trkpt>
      <trkpt lat="47.76965" lon="-3.55995">
        <ele>22.7</ele>
        <time>2021-07-11T09:18:27Z</time>
      </trkpt>
      <trkpt lat="47.76965" lon="-3.55997">
        <ele>22.6</ele>
        <time>2021-07-11T09:18:28Z</time>
      </trkpt>
      <trkpt lat="47.76965" lon="-3.55998">
        <ele>22.6</ele>
        <time>2021-07-11T09:18:29Z</time>
      </trkpt>
      <trkpt lat="47.76964" lon="-3.56">
        <ele>22.5</ele>
        <time>2021-07-11T09:18:30Z</time>
      </trkpt>
      <trkpt lat="47.76964" lon="-3.56002">
        <ele>22.5</ele>
        <time>2021-07-11T09:18:31Z</time>
      </trkpt>
      <trkpt lat="47.76963" lon="-3.56004">
        <ele>22.4</ele>
        <time>2021-07-11T09:18:32Z</time>
      </trkpt>
      <trkpt lat="47.76963" lon="-3.56005">
        <ele>22.4</ele>
        <time>2021-07-11T09:18:33Z</time>
      </trkpt>
      <trkpt lat="47.76963" lon="-3.56007">
        <ele>22.4</ele>
        <time>2021-07-11T09:18:34Z</time>
      </trkpt>
      <trkpt lat="47.76962" lon="-3.56009">
        <ele>22.3</ele>
        <time>2021-07-11T09:18:35Z</time>
      </trkpt>
      <trkpt lat="47.76962" lon="-3.56011">
        <ele>22.3</ele>
        <time>2021-07-11T09:18:36Z</time>
      </trkpt>
      <trkpt lat="47.76962" lon="-3.56012">
        <ele>22.2</ele>
        <time>2021-07-11T09:18:37Z</time>
      </trkpt>
      <trkpt lat="47.76962" lon="-3.56014">
        <ele>22.2</ele>
        <time>2021-07-11T09:18:38Z</time>
      </trkpt>
      <trkpt lat="47.76961" lon="-3.56016">
        <ele>22.1</ele>
        <time>2021-07-11T09:18:39Z</time>
      </trkpt>
      <trkpt lat="47.76961" lon="-3.56018">
        <ele>22.1</ele>
        <time>2021-07-11T09:18:40Z</time>
      </trkpt>
      <trkpt lat="47.76961" lon="-3.56019">
        <ele>22.1</ele>
        <time>2021-07-11T09:18:41Z</time>
      </trkpt>
      <trkpt lat="47.76961" lon="-3.56021">
        <ele>22</ele>
        <time>2021-07-11T09:18:42Z</time>
      </trkpt>
      <trkpt lat="47.7696" lon="-3.56023">
        <ele>22</ele>
        <time>2021-07-11T09:18:43Z</time>
      </trkpt>
      <trkpt lat="47.7696" lon="-3.56025">
        <ele>21.9</ele>
        <time>2021-07-11T09:18:44Z</time>
      </trkpt>
      <trkpt lat="47.7696" lon="-3.56026">
        <ele>21.9</ele>
        <time>2021-07-11T09:18:45Z</time>
      </trkpt>
      <trkpt lat="47.76959" lon="-3.56028">
        <ele>21.9</ele>
        <time>2021-07-11T09:18:46Z</time>
      </trkpt>
      <trkpt lat="47.76959" lon="-3.5603">
        <ele>21.8</ele>
        <time>2021-07-11T09:18:47Z</time>
      </trkpt>
      <trkpt lat="47.76958" lon="-3.56031">
        <ele>21.8</ele>
        <time>2021-07-11T09:18:48Z</time>
      </trkpt>
      <trkpt lat="47.76958" lon="-3.56033">
        <ele>21.8</ele>
        <time>2021-07-11T09:18:49Z</time>
      </trkpt>
      <trkpt lat="47.76957" lon="-3.56034">
        <ele>21.7</ele>
        <time>2021-07-11T09:18:50Z</time>
      </trkpt>
      <trkpt lat="47.76957" lon="-3.56036">
        <ele>21.7</ele>
        <time>2021-07-11T09:18:51Z</time>
      </trkpt>
      <trkpt lat="47.76956" lon="-3.56037">
        <ele>21.7</ele>
        <time>2021-07-11T09:18:52Z</time>
      </trkpt>
      <trkpt lat="47.76955" lon="-3.56038">
        <ele>21.6</ele>
        <time>2021-07-11T09:18:53Z</time>
      </trkpt>
      <trkpt lat="47.76955" lon="-3.56039">
        <ele>21.6</ele>
        <time>2021-07-11T09:18:54Z</time>
      </trkpt>
      <trkpt lat="47.76954" lon="-3.5604">
        <ele>21.6</ele>
        <time>2021-07-11T09:18:55Z</time>
      </trkpt>
      <trkpt lat="47.76954" lon="-3.56041">
        <ele>21.6</ele>
        <time>2021-07-11T09:18:56Z</time>
      </trkpt>
      <trkpt lat="47.76954" lon="-3.56042">
        <ele>21.6</ele>
        <time>2021-07-11T09:18:57Z</time>
      </trkpt>
      <trkpt lat="47.76954" lon="-3.56042">
        <ele>21.6</ele>
        <time>2021-07-11T09:18:58Z</time>
      </trkpt>
      <trkpt lat="47.76954" lon="-3.56042">
        <ele>21.6</ele>
        <time>2021-07-11T09:18:59Z</time>
      </trkpt>
      <trkpt lat="47.76954" lon="-3.56043">
        <ele>21.5</ele>
        <time>2021-07-11T09:19:00Z</time>
      </trkpt>
      <trkpt lat="47.76953" lon="-3.56045">
        <ele>21.4</ele>
        <time>2021-07-11T09:19:01Z</time>
      </trkpt>
      <trkpt lat="47.76953" lon="-3.56048">
        <ele>21.4</ele>
        <time>2021-07-11T09:19:02Z</time>
      </trkpt>
      <trkpt lat="47.76953" lon="-3.5605">
        <ele>21.4</ele>
        <time>2021-07-11T09:19:03Z</time>
      </trkpt>
      <trkpt lat="47.76953" lon="-3.56052">
        <ele>21.4</ele>
        <time>2021-07-11T09:19:04Z</time>
      </trkpt>
      <trkpt lat="47.76953" lon="-3.56053">
        <ele>21.4</ele>
        <time>2021-07-11T09:19:05Z</time>
      </trkpt>
      <trkpt lat="47.76953" lon="-3.56055">
        <ele>21.4</ele>
        <time>2021-07-11T09:19:06Z</time>
      </trkpt>
      <trkpt lat="47.76953" lon="-3.56056">
        <ele>21.4</ele>
        <time>2021-07-11T09:19:07Z</time>
      </trkpt>
      <trkpt lat="47.76953" lon="-3.56058">
        <ele>21.4</ele>
        <time>2021-07-11T09:19:08Z</time>
      </trkpt>
      <trkpt lat="47.76953" lon="-3.5606">
        <ele>21.1</ele>
        <time>2021-07-11T09:19:09Z</time>
      </trkpt>
      <trkpt lat="47.76953" lon="-3.56063">
        <ele>20.9</ele>
        <time>2021-07-11T09:19:10Z</time>
      </trkpt>
      <trkpt lat="47.76954" lon="-3.56065">
        <ele>20.8</ele>
        <time>2021-07-11T09:19:11Z</time>
      </trkpt>
      <trkpt lat="47.76954" lon="-3.56067">
        <ele>20.6</ele>
        <time>2021-07-11T09:19:12Z</time>
      </trkpt>
      <trkpt lat="47.76954" lon="-3.56069">
        <ele>20.5</ele>
        <time>2021-07-11T09:19:13Z</time>
      </trkpt>
      <trkpt lat="47.76954" lon="-3.56071">
        <ele>20.4</ele>
        <time>2021-07-11T09:19:14Z</time>
      </trkpt>
      <trkpt lat="47.76954" lon="-3.56073">
        <ele>20.3</ele>
        <time>2021-07-11T09:19:15Z</time>
      </trkpt>
      <trkpt lat="47.76954" lon="-3.56075">
        <ele>20.2</ele>
        <time>2021-07-11T09:19:16Z</time>
      </trkpt>
      <trkpt lat="47.76954" lon="-3.56077">
        <ele>20.1</ele>
        <time>2021-07-11T09:19:17Z</time>
      </trkpt>
      <trkpt lat="47.76954" lon="-3.56079">
        <ele>20</ele>
        <time>2021-07-11T09:19:18Z</time>
      </trkpt>
      <trkpt lat="47.76954" lon="-3.56082">
        <ele>19.8</ele>
        <time>2021-07-11T09:19:19Z</time>
      </trkpt>
      <trkpt lat="47.76954" lon="-3.56084">
        <ele>19.7</ele>
        <time>2021-07-11T09:19:20Z</time>
      </trkpt>
      <trkpt lat="47.76954" lon="-3.56085">
        <ele>19.6</ele>
        <time>2021-07-11T09:19:21Z</time>
      </trkpt>
      <trkpt lat="47.76953" lon="-3.56088">
        <ele>19.4</ele>
        <time>2021-07-11T09:19:22Z</time>
      </trkpt>
      <trkpt lat="47.76953" lon="-3.5609">
        <ele>19.3</ele>
        <time>2021-07-11T09:19:23Z</time>
      </trkpt>
      <trkpt lat="47.76952" lon="-3.56093">
        <ele>19.1</ele>
        <time>2021-07-11T09:19:24Z</time>
      </trkpt>
      <trkpt lat="47.76952" lon="-3.56095">
        <ele>19</ele>
        <time>2021-07-11T09:19:25Z</time>
      </trkpt>
      <trkpt lat="47.76951" lon="-3.56097">
        <ele>18.9</ele>
        <time>2021-07-11T09:19:26Z</time>
      </trkpt>
      <trkpt lat="47.76951" lon="-3.561">
        <ele>18.7</ele>
        <time>2021-07-11T09:19:27Z</time>
      </trkpt>
      <trkpt lat="47.76951" lon="-3.56101">
        <ele>18.6</ele>
        <time>2021-07-11T09:19:28Z</time>
      </trkpt>
      <trkpt lat="47.76951" lon="-3.56103">
        <ele>18.6</ele>
        <time>2021-07-11T09:19:29Z</time>
      </trkpt>
      <trkpt lat="47.76951" lon="-3.56103">
        <ele>18.5</ele>
        <time>2021-07-11T09:19:30Z</time>
      </trkpt>
      <trkpt lat="47.76951" lon="-3.56104">
        <ele>18.5</ele>
        <time>2021-07-11T09:19:31Z</time>
      </trkpt>
      <trkpt lat="47.76951" lon="-3.56105">
        <ele>18.5</ele>
        <time>2021-07-11T09:19:32Z</time>
      </trkpt>
      <trkpt lat="47.76951" lon="-3.56107">
        <ele>18.3</ele>
        <time>2021-07-11T09:19:33Z</time>
      </trkpt>
      <trkpt lat="47.76951" lon="-3.56109">
        <ele>18.2</ele>
        <time>2021-07-11T09:19:34Z</time>
      </trkpt>
      <trkpt lat="47.76951" lon="-3.56111">
        <ele>18.2</ele>
        <time>2021-07-11T09:19:35Z</time>
      </trkpt>
      <trkpt lat="47.7695" lon="-3.56112">
        <ele>18.1</ele>
        <time>2021-07-11T09:19:36Z</time>
      </trkpt>
      <trkpt lat="47.7695" lon="-3.56113">
        <ele>18.1</ele>
        <time>2021-07-11T09:19:37Z</time>
      </trkpt>
      <trkpt lat="47.76951" lon="-3.56113">
        <ele>18</ele>
        <time>2021-07-11T09:19:38Z</time>
      </trkpt>
      <trkpt lat="47.76951" lon="-3.56114">
        <ele>18</ele>
        <time>2021-07-11T09:19:39Z</time>
      </trkpt>
      <trkpt lat="47.76951" lon="-3.56114">
        <ele>18</ele>
        <time>2021-07-11T09:19:40Z</time>
      </trkpt>
      <trkpt lat="47.76951" lon="-3.56116">
        <ele>17.9</ele>
        <time>2021-07-11T09:19:41Z</time>
      </trkpt>
      <trkpt lat="47.76951" lon="-3.56121">
        <ele>17.7</ele>
        <time>2021-07-11T09:19:42Z</time>
      </trkpt>
      <trkpt lat="47.76951" lon="-3.56123">
        <ele>17.6</ele>
        <time>2021-07-11T09:19:43Z</time>
      </trkpt>
      <trkpt lat="47.76951" lon="-3.56124">
        <ele>17.5</ele>
        <time>2021-07-11T09:19:44Z</time>
      </trkpt>
      <trkpt lat="47.7695" lon="-3.56126">
        <ele>17.5</ele>
        <time>2021-07-11T09:19:45Z</time>
      </trkpt>
      <trkpt lat="47.7695" lon="-3.56128">
        <ele>17.4</ele>
        <time>2021-07-11T09:19:46Z</time>
      </trkpt>
      <trkpt lat="47.7695" lon="-3.56129">
        <ele>17.3</ele>
        <time>2021-07-11T09:19:47Z</time>
      </trkpt>
      <trkpt lat="47.7695" lon="-3.56131">
        <ele>17.2</ele>
        <time>2021-07-11T09:19:48Z</time>
      </trkpt>
      <trkpt lat="47.76949" lon="-3.56133">
        <ele>17.2</ele>
        <time>2021-07-11T09:19:49Z</time>
      </trkpt>
      <trkpt lat="47.76949" lon="-3.56134">
        <ele>17.1</ele>
        <time>2021-07-11T09:19:50Z</time>
      </trkpt>
      <trkpt lat="47.76949" lon="-3.56136">
        <ele>17</ele>
        <time>2021-07-11T09:19:51Z</time>
      </trkpt>
      <trkpt lat="47.76948" lon="-3.56137">
        <ele>17</ele>
        <time>2021-07-11T09:19:52Z</time>
      </trkpt>
      <trkpt lat="47.76948" lon="-3.56139">
        <ele>16.9</ele>
        <time>2021-07-11T09:19:53Z</time>
      </trkpt>
      <trkpt lat="47.76948" lon="-3.56141">
        <ele>16.8</ele>
        <time>2021-07-11T09:19:54Z</time>
      </trkpt>
      <trkpt lat="47.76948" lon="-3.56144">
        <ele>16.7</ele>
        <time>2021-07-11T09:19:55Z</time>
      </trkpt>
      <trkpt lat="47.76947" lon="-3.56145">
        <ele>16.6</ele>
        <time>2021-07-11T09:19:56Z</time>
      </trkpt>
      <trkpt lat="47.76947" lon="-3.56147">
        <ele>16.5</ele>
        <time>2021-07-11T09:19:57Z</time>
      </trkpt>
      <trkpt lat="47.76946" lon="-3.56149">
        <ele>16.5</ele>
        <time>2021-07-11T09:19:58Z</time>
      </trkpt>
      <trkpt lat="47.76946" lon="-3.56151">
        <ele>16.4</ele>
        <time>2021-07-11T09:19:59Z</time>
      </trkpt>
      <trkpt lat="47.76945" lon="-3.56153">
        <ele>16.3</ele>
        <time>2021-07-11T09:20:00Z</time>
      </trkpt>
      <trkpt lat="47.76945" lon="-3.56156">
        <ele>16.2</ele>
        <time>2021-07-11T09:20:01Z</time>
      </trkpt>
      <trkpt lat="47.76945" lon="-3.56158">
        <ele>16.1</ele>
        <time>2021-07-11T09:20:02Z</time>
      </trkpt>
      <trkpt lat="47.76945" lon="-3.56161">
        <ele>16</ele>
        <time>2021-07-11T09:20:03Z</time>
      </trkpt>
      <trkpt lat="47.76945" lon="-3.56162">
        <ele>16</ele>
        <time>2021-07-11T09:20:04Z</time>
      </trkpt>
      <trkpt lat="47.76945" lon="-3.56163">
        <ele>15.9</ele>
        <time>2021-07-11T09:20:05Z</time>
      </trkpt>
      <trkpt lat="47.76945" lon="-3.56164">
        <ele>15.9</ele>
        <time>2021-07-11T09:20:06Z</time>
      </trkpt>
      <trkpt lat="47.76945" lon="-3.56165">
        <ele>15.9</ele>
        <time>2021-07-11T09:20:07Z</time>
      </trkpt>
      <trkpt lat="47.76945" lon="-3.56166">
        <ele>15.8</ele>
        <time>2021-07-11T09:20:08Z</time>
      </trkpt>
      <trkpt lat="47.76945" lon="-3.56168">
        <ele>15.8</ele>
        <time>2021-07-11T09:20:09Z</time>
      </trkpt>
      <trkpt lat="47.76945" lon="-3.56169">
        <ele>15.7</ele>
        <time>2021-07-11T09:20:10Z</time>
      </trkpt>
      <trkpt lat="47.76945" lon="-3.5617">
        <ele>15.7</ele>
        <time>2021-07-11T09:20:11Z</time>
      </trkpt>
      <trkpt lat="47.76945" lon="-3.56171">
        <ele>15.7</ele>
        <time>2021-07-11T09:20:12Z</time>
      </trkpt>
      <trkpt lat="47.76945" lon="-3.56172">
        <ele>15.6</ele>
        <time>2021-07-11T09:20:13Z</time>
      </trkpt>
      <trkpt lat="47.76945" lon="-3.56173">
        <ele>15.6</ele>
        <time>2021-07-11T09:20:14Z</time>
      </trkpt>
      <trkpt lat="47.76945" lon="-3.56174">
        <ele>15.5</ele>
        <time>2021-07-11T09:20:15Z</time>
      </trkpt>
      <trkpt lat="47.76945" lon="-3.56176">
        <ele>15.5</ele>
        <time>2021-07-11T09:20:16Z</time>
      </trkpt>
      <trkpt lat="47.76945" lon="-3.56177">
        <ele>15.4</ele>
        <time>2021-07-11T09:20:17Z</time>
      </trkpt>
      <trkpt lat="47.76945" lon="-3.56178">
        <ele>15.4</ele>
        <time>2021-07-11T09:20:18Z</time>
      </trkpt>
      <trkpt lat="47.76945" lon="-3.56179">
        <ele>15.4</ele>
        <time>2021-07-11T09:20:19Z</time>
      </trkpt>
      <trkpt lat="47.76945" lon="-3.5618">
        <ele>15.3</ele>
        <time>2021-07-11T09:20:20Z</time>
      </trkpt>
      <trkpt lat="47.76944" lon="-3.56186">
        <ele>15.1</ele>
        <time>2021-07-11T09:20:21Z</time>
      </trkpt>
      <trkpt lat="47.76943" lon="-3.56188">
        <ele>15</ele>
        <time>2021-07-11T09:20:22Z</time>
      </trkpt>
      <trkpt lat="47.76943" lon="-3.56189">
        <ele>15</ele>
        <time>2021-07-11T09:20:23Z</time>
      </trkpt>
      <trkpt lat="47.76943" lon="-3.56191">
        <ele>14.9</ele>
        <time>2021-07-11T09:20:24Z</time>
      </trkpt>
      <trkpt lat="47.76942" lon="-3.56193">
        <ele>14.8</ele>
        <time>2021-07-11T09:20:25Z</time>
      </trkpt>
      <trkpt lat="47.76942" lon="-3.56194">
        <ele>14.7</ele>
        <time>2021-07-11T09:20:26Z</time>
      </trkpt>
      <trkpt lat="47.76941" lon="-3.56196">
        <ele>14.6</ele>
        <time>2021-07-11T09:20:27Z</time>
      </trkpt>
      <trkpt lat="47.76941" lon="-3.56198">
        <ele>14.6</ele>
        <time>2021-07-11T09:20:28Z</time>
      </trkpt>
      <trkpt lat="47.7694" lon="-3.56199">
        <ele>14.5</ele>
        <time>2021-07-11T09:20:29Z</time>
      </trkpt>
      <trkpt lat="47.7694" lon="-3.56201">
        <ele>14.4</ele>
        <time>2021-07-11T09:20:30Z</time>
      </trkpt>
      <trkpt lat="47.7694" lon="-3.56201">
        <ele>14.4</ele>
        <time>2021-07-11T09:20:31Z</time>
      </trkpt>
      <trkpt lat="47.7694" lon="-3.56201">
        <ele>14.4</ele>
        <time>2021-07-11T09:20:32Z</time>
      </trkpt>
      <trkpt lat="47.7694" lon="-3.56201">
        <ele>14.4</ele>
        <time>2021-07-11T09:20:33Z</time>
      </trkpt>
      <trkpt lat="47.7694" lon="-3.56202">
        <ele>14.4</ele>
        <time>2021-07-11T09:20:34Z</time>
      </trkpt>
      <trkpt lat="47.7694" lon="-3.56202">
        <ele>14.4</ele>
        <time>2021-07-11T09:20:35Z</time>
      </trkpt>
      <trkpt lat="47.7694" lon="-3.56202">
        <ele>14.3</ele>
        <time>2021-07-11T09:20:36Z</time>
      </trkpt>
      <trkpt lat="47.76938" lon="-3.56215">
        <ele>13.7</ele>
        <time>2021-07-11T09:20:37Z</time>
      </trkpt>
      <trkpt lat="47.76938" lon="-3.56216">
        <ele>13.7</ele>
        <time>2021-07-11T09:20:38Z</time>
      </trkpt>
      <trkpt lat="47.76938" lon="-3.56217">
        <ele>13.6</ele>
        <time>2021-07-11T09:20:39Z</time>
      </trkpt>
      <trkpt lat="47.76938" lon="-3.56218">
        <ele>13.6</ele>
        <time>2021-07-11T09:20:40Z</time>
      </trkpt>
      <trkpt lat="47.76938" lon="-3.56219">
        <ele>13.6</ele>
        <time>2021-07-11T09:20:41Z</time>
      </trkpt>
      <trkpt lat="47.76938" lon="-3.56219">
        <ele>13.5</ele>
        <time>2021-07-11T09:20:42Z</time>
      </trkpt>
      <trkpt lat="47.76937" lon="-3.56221">
        <ele>13.4</ele>
        <time>2021-07-11T09:20:43Z</time>
      </trkpt>
      <trkpt lat="47.76936" lon="-3.56224">
        <ele>13.3</ele>
        <time>2021-07-11T09:20:44Z</time>
      </trkpt>
      <trkpt lat="47.76935" lon="-3.56228">
        <ele>13.1</ele>
        <time>2021-07-11T09:20:45Z</time>
      </trkpt>
      <trkpt lat="47.76934" lon="-3.5623">
        <ele>12.9</ele>
        <time>2021-07-11T09:20:46Z</time>
      </trkpt>
      <trkpt lat="47.76933" lon="-3.56231">
        <ele>12.9</ele>
        <time>2021-07-11T09:20:47Z</time>
      </trkpt>
      <trkpt lat="47.76932" lon="-3.56232">
        <ele>12.8</ele>
        <time>2021-07-11T09:20:48Z</time>
      </trkpt>
      <trkpt lat="47.76931" lon="-3.56234">
        <ele>12.7</ele>
        <time>2021-07-11T09:20:49Z</time>
      </trkpt>
      <trkpt lat="47.7693" lon="-3.56236">
        <ele>12.6</ele>
        <time>2021-07-11T09:20:50Z</time>
      </trkpt>
      <trkpt lat="47.7693" lon="-3.56237">
        <ele>12.5</ele>
        <time>2021-07-11T09:20:51Z</time>
      </trkpt>
      <trkpt lat="47.76929" lon="-3.56239">
        <ele>12.4</ele>
        <time>2021-07-11T09:20:52Z</time>
      </trkpt>
      <trkpt lat="47.76928" lon="-3.5624">
        <ele>12.3</ele>
        <time>2021-07-11T09:20:53Z</time>
      </trkpt>
      <trkpt lat="47.76927" lon="-3.56242">
        <ele>12.2</ele>
        <time>2021-07-11T09:20:54Z</time>
      </trkpt>
      <trkpt lat="47.76927" lon="-3.56243">
        <ele>12.1</ele>
        <time>2021-07-11T09:20:55Z</time>
      </trkpt>
      <trkpt lat="47.76926" lon="-3.56245">
        <ele>12.1</ele>
        <time>2021-07-11T09:20:56Z</time>
      </trkpt>
      <trkpt lat="47.76925" lon="-3.56246">
        <ele>12</ele>
        <time>2021-07-11T09:20:57Z</time>
      </trkpt>
      <trkpt lat="47.76925" lon="-3.56248">
        <ele>11.9</ele>
        <time>2021-07-11T09:20:58Z</time>
      </trkpt>
      <trkpt lat="47.76924" lon="-3.56249">
        <ele>11.8</ele>
        <time>2021-07-11T09:20:59Z</time>
      </trkpt>
      <trkpt lat="47.76922" lon="-3.56251">
        <ele>11.7</ele>
        <time>2021-07-11T09:21:00Z</time>
      </trkpt>
      <trkpt lat="47.76922" lon="-3.56252">
        <ele>11.6</ele>
        <time>2021-07-11T09:21:01Z</time>
      </trkpt>
      <trkpt lat="47.76921" lon="-3.56253">
        <ele>11.5</ele>
        <time>2021-07-11T09:21:02Z</time>
      </trkpt>
      <trkpt lat="47.7692" lon="-3.56254">
        <ele>11.4</ele>
        <time>2021-07-11T09:21:03Z</time>
      </trkpt>
      <trkpt lat="47.76919" lon="-3.56255">
        <ele>11.4</ele>
        <time>2021-07-11T09:21:04Z</time>
      </trkpt>
      <trkpt lat="47.76918" lon="-3.56256">
        <ele>11.3</ele>
        <time>2021-07-11T09:21:05Z</time>
      </trkpt>
      <trkpt lat="47.76918" lon="-3.56257">
        <ele>11.2</ele>
        <time>2021-07-11T09:21:06Z</time>
      </trkpt>
      <trkpt lat="47.76917" lon="-3.56258">
        <ele>11.2</ele>
        <time>2021-07-11T09:21:07Z</time>
      </trkpt>
      <trkpt lat="47.76916" lon="-3.5626">
        <ele>11.1</ele>
        <time>2021-07-11T09:21:08Z</time>
      </trkpt>
      <trkpt lat="47.76915" lon="-3.56261">
        <ele>11.1</ele>
        <time>2021-07-11T09:21:09Z</time>
      </trkpt>
      <trkpt lat="47.76914" lon="-3.56262">
        <ele>10.1</ele>
        <time>2021-07-11T09:21:10Z</time>
      </trkpt>
      <trkpt lat="47.76914" lon="-3.56263">
        <ele>10</ele>
        <time>2021-07-11T09:21:11Z</time>
      </trkpt>
      <trkpt lat="47.76913" lon="-3.56264">
        <ele>9.9</ele>
        <time>2021-07-11T09:21:12Z</time>
      </trkpt>
      <trkpt lat="47.76912" lon="-3.56265">
        <ele>9.7</ele>
        <time>2021-07-11T09:21:13Z</time>
      </trkpt>
      <trkpt lat="47.76911" lon="-3.56266">
        <ele>9.6</ele>
        <time>2021-07-11T09:21:14Z</time>
      </trkpt>
      <trkpt lat="47.7691" lon="-3.56267">
        <ele>9.5</ele>
        <time>2021-07-11T09:21:15Z</time>
      </trkpt>
      <trkpt lat="47.7691" lon="-3.56268">
        <ele>9.4</ele>
        <time>2021-07-11T09:21:16Z</time>
      </trkpt>
      <trkpt lat="47.76907" lon="-3.56268">
        <ele>9.1</ele>
        <time>2021-07-11T09:21:17Z</time>
      </trkpt>
      <trkpt lat="47.76906" lon="-3.56268">
        <ele>9</ele>
        <time>2021-07-11T09:21:18Z</time>
      </trkpt>
      <trkpt lat="47.76905" lon="-3.56269">
        <ele>8.9</ele>
        <time>2021-07-11T09:21:19Z</time>
      </trkpt>
      <trkpt lat="47.76905" lon="-3.56269">
        <ele>8.8</ele>
        <time>2021-07-11T09:21:20Z</time>
      </trkpt>
      <trkpt lat="47.76904" lon="-3.56269">
        <ele>8.8</ele>
        <time>2021-07-11T09:21:21Z</time>
      </trkpt>
      <trkpt lat="47.76903" lon="-3.56269">
        <ele>8.7</ele>
        <time>2021-07-11T09:21:22Z</time>
      </trkpt>
      <trkpt lat="47.76902" lon="-3.56269">
        <ele>8.6</ele>
        <time>2021-07-11T09:21:23Z</time>
      </trkpt>
      <trkpt lat="47.76902" lon="-3.5627">
        <ele>8.5</ele>
        <time>2021-07-11T09:21:24Z</time>
      </trkpt>
      <trkpt lat="47.76901" lon="-3.5627">
        <ele>8.4</ele>
        <time>2021-07-11T09:21:25Z</time>
      </trkpt>
      <trkpt lat="47.769" lon="-3.5627">
        <ele>8.3</ele>
        <time>2021-07-11T09:21:26Z</time>
      </trkpt>
      <trkpt lat="47.76897" lon="-3.5627">
        <ele>7.9</ele>
        <time>2021-07-11T09:21:27Z</time>
      </trkpt>
      <trkpt lat="47.76896" lon="-3.5627">
        <ele>7.8</ele>
        <time>2021-07-11T09:21:28Z</time>
      </trkpt>
      <trkpt lat="47.76895" lon="-3.5627">
        <ele>7.7</ele>
        <time>2021-07-11T09:21:29Z</time>
      </trkpt>
      <trkpt lat="47.76893" lon="-3.5627">
        <ele>7.6</ele>
        <time>2021-07-11T09:21:30Z</time>
      </trkpt>
      <trkpt lat="47.76892" lon="-3.5627">
        <ele>7.4</ele>
        <time>2021-07-11T09:21:31Z</time>
      </trkpt>
      <trkpt lat="47.76891" lon="-3.5627">
        <ele>7.3</ele>
        <time>2021-07-11T09:21:32Z</time>
      </trkpt>
      <trkpt lat="47.7689" lon="-3.5627">
        <ele>7.2</ele>
        <time>2021-07-11T09:21:33Z</time>
      </trkpt>
      <trkpt lat="47.76889" lon="-3.5627">
        <ele>7</ele>
        <time>2021-07-11T09:21:34Z</time>
      </trkpt>
      <trkpt lat="47.76887" lon="-3.5627">
        <ele>6.9</ele>
        <time>2021-07-11T09:21:35Z</time>
      </trkpt>
      <trkpt lat="47.76886" lon="-3.56269">
        <ele>6.7</ele>
        <time>2021-07-11T09:21:36Z</time>
      </trkpt>
      <trkpt lat="47.76885" lon="-3.56269">
        <ele>6.6</ele>
        <time>2021-07-11T09:21:37Z</time>
      </trkpt>
      <trkpt lat="47.76884" lon="-3.56269">
        <ele>6.5</ele>
        <time>2021-07-11T09:21:38Z</time>
      </trkpt>
      <trkpt lat="47.76882" lon="-3.56268">
        <ele>6.2</ele>
        <time>2021-07-11T09:21:39Z</time>
      </trkpt>
      <trkpt lat="47.76881" lon="-3.56268">
        <ele>6.2</ele>
        <time>2021-07-11T09:21:40Z</time>
      </trkpt>
      <trkpt lat="47.76881" lon="-3.56267">
        <ele>6.1</ele>
        <time>2021-07-11T09:21:41Z</time>
      </trkpt>
      <trkpt lat="47.7688" lon="-3.56267">
        <ele>6</ele>
        <time>2021-07-11T09:21:42Z</time>
      </trkpt>
      <trkpt lat="47.76879" lon="-3.56266">
        <ele>5.9</ele>
        <time>2021-07-11T09:21:43Z</time>
      </trkpt>
      <trkpt lat="47.76879" lon="-3.56266">
        <ele>5.8</ele>
        <time>2021-07-11T09:21:44Z</time>
      </trkpt>
      <trkpt lat="47.76878" lon="-3.56266">
        <ele>5.8</ele>
        <time>2021-07-11T09:21:45Z</time>
      </trkpt>
      <trkpt lat="47.76877" lon="-3.56265">
        <ele>5.7</ele>
        <time>2021-07-11T09:21:46Z</time>
      </trkpt>
      <trkpt lat="47.76877" lon="-3.56265">
        <ele>5.6</ele>
        <time>2021-07-11T09:21:47Z</time>
      </trkpt>
      <trkpt lat="47.76876" lon="-3.56264">
        <ele>5.5</ele>
        <time>2021-07-11T09:21:48Z</time>
      </trkpt>
      <trkpt lat="47.76875" lon="-3.56264">
        <ele>5.4</ele>
        <time>2021-07-11T09:21:49Z</time>
      </trkpt>
      <trkpt lat="47.76875" lon="-3.56263">
        <ele>5.4</ele>
        <time>2021-07-11T09:21:50Z</time>
      </trkpt>
      <trkpt lat="47.76874" lon="-3.56263">
        <ele>5.3</ele>
        <time>2021-07-11T09:21:51Z</time>
      </trkpt>
      <trkpt lat="47.76873" lon="-3.56262">
        <ele>5.2</ele>
        <time>2021-07-11T09:21:52Z</time>
      </trkpt>
      <trkpt lat="47.76873" lon="-3.56262">
        <ele>4.2</ele>
        <time>2021-07-11T09:21:53Z</time>
      </trkpt>
      <trkpt lat="47.76872" lon="-3.56262">
        <ele>4.2</ele>
        <time>2021-07-11T09:21:54Z</time>
      </trkpt>
      <trkpt lat="47.76871" lon="-3.56261">
        <ele>4.2</ele>
        <time>2021-07-11T09:21:55Z</time>
      </trkpt>
      <trkpt lat="47.76871" lon="-3.56261">
        <ele>4.1</ele>
        <time>2021-07-11T09:21:56Z</time>
      </trkpt>
      <trkpt lat="47.7687" lon="-3.5626">
        <ele>4.1</ele>
        <time>2021-07-11T09:21:57Z</time>
      </trkpt>
      <trkpt lat="47.76869" lon="-3.5626">
        <ele>4.1</ele>
        <time>2021-07-11T09:21:58Z</time>
      </trkpt>
      <trkpt lat="47.76869" lon="-3.56259">
        <ele>4</ele>
        <time>2021-07-11T09:21:59Z</time>
      </trkpt>
      <trkpt lat="47.76868" lon="-3.56259">
        <ele>4</ele>
        <time>2021-07-11T09:22:00Z</time>
      </trkpt>
      <trkpt lat="47.76867" lon="-3.56258">
        <ele>4</ele>
        <time>2021-07-11T09:22:01Z</time>
      </trkpt>
      <trkpt lat="47.76867" lon="-3.56258">
        <ele>3.9</ele>
        <time>2021-07-11T09:22:02Z</time>
      </trkpt>
      <trkpt lat="47.76866" lon="-3.56258">
        <ele>3.9</ele>
        <time>2021-07-11T09:22:03Z</time>
      </trkpt>
      <trkpt lat="47.76865" lon="-3.56257">
        <ele>3.9</ele>
        <time>2021-07-11T09:22:04Z</time>
      </trkpt>
      <trkpt lat="47.76865" lon="-3.56257">
        <ele>3.9</ele>
        <time>2021-07-11T09:22:05Z</time>
      </trkpt>
      <trkpt lat="47.76864" lon="-3.56256">
        <ele>3.8</ele>
        <time>2021-07-11T09:22:06Z</time>
      </trkpt>
      <trkpt lat="47.76863" lon="-3.56256">
        <ele>3.8</ele>
        <time>2021-07-11T09:22:07Z</time>
      </trkpt>
      <trkpt lat="47.76863" lon="-3.56255">
        <ele>3.8</ele>
        <time>2021-07-11T09:22:08Z</time>
      </trkpt>
      <trkpt lat="47.76862" lon="-3.56255">
        <ele>3.8</ele>
        <time>2021-07-11T09:22:09Z</time>
      </trkpt>
      <trkpt lat="47.76861" lon="-3.56254">
        <ele>3.8</ele>
        <time>2021-07-11T09:22:10Z</time>
      </trkpt>
      <trkpt lat="47.76861" lon="-3.56254">
        <ele>3.7</ele>
        <time>2021-07-11T09:22:11Z</time>
      </trkpt>
      <trkpt lat="47.7686" lon="-3.56254">
        <ele>3.7</ele>
        <time>2021-07-11T09:22:12Z</time>
      </trkpt>
      <trkpt lat="47.76859" lon="-3.56253">
        <ele>3.7</ele>
        <time>2021-07-11T09:22:13Z</time>
      </trkpt>
      <trkpt lat="47.76859" lon="-3.56253">
        <ele>3.7</ele>
        <time>2021-07-11T09:22:14Z</time>
      </trkpt>
      <trkpt lat="47.76858" lon="-3.56252">
        <ele>3.7</ele>
        <time>2021-07-11T09:22:15Z</time>
      </trkpt>
      <trkpt lat="47.76857" lon="-3.56252">
        <ele>3.7</ele>
        <time>2021-07-11T09:22:16Z</time>
      </trkpt>
      <trkpt lat="47.76857" lon="-3.56251">
        <ele>3.7</ele>
        <time>2021-07-11T09:22:17Z</time>
      </trkpt>
      <trkpt lat="47.76856" lon="-3.56251">
        <ele>3.7</ele>
        <time>2021-07-11T09:22:18Z</time>
      </trkpt>
      <trkpt lat="47.76855" lon="-3.5625">
        <ele>3.7</ele>
        <time>2021-07-11T09:22:19Z</time>
      </trkpt>
      <trkpt lat="47.76855" lon="-3.5625">
        <ele>3.7</ele>
        <time>2021-07-11T09:22:20Z</time>
      </trkpt>
      <trkpt lat="47.76854" lon="-3.5625">
        <ele>3.7</ele>
        <time>2021-07-11T09:22:21Z</time>
      </trkpt>
      <trkpt lat="47.76853" lon="-3.56249">
        <ele>3.7</ele>
        <time>2021-07-11T09:22:22Z</time>
      </trkpt>
      <trkpt lat="47.76853" lon="-3.56249">
        <ele>3.7</ele>
        <time>2021-07-11T09:22:23Z</time>
      </trkpt>
      <trkpt lat="47.76852" lon="-3.56248">
        <ele>3.7</ele>
        <time>2021-07-11T09:22:24Z</time>
      </trkpt>
      <trkpt lat="47.76851" lon="-3.56248">
        <ele>3.7</ele>
        <time>2021-07-11T09:22:25Z</time>
      </trkpt>
      <trkpt lat="47.76851" lon="-3.56247">
        <ele>3.7</ele>
        <time>2021-07-11T09:22:26Z</time>
      </trkpt>
      <trkpt lat="47.7685" lon="-3.56247">
        <ele>3.7</ele>
        <time>2021-07-11T09:22:27Z</time>
      </trkpt>
      <trkpt lat="47.76848" lon="-3.56244">
        <ele>3.7</ele>
        <time>2021-07-11T09:22:28Z</time>
      </trkpt>
      <trkpt lat="47.76848" lon="-3.56243">
        <ele>3.7</ele>
        <time>2021-07-11T09:22:29Z</time>
      </trkpt>
      <trkpt lat="47.76847" lon="-3.56242">
        <ele>3.7</ele>
        <time>2021-07-11T09:22:30Z</time>
      </trkpt>
      <trkpt lat="47.76847" lon="-3.56241">
        <ele>3.7</ele>
        <time>2021-07-11T09:22:31Z</time>
      </trkpt>
      <trkpt lat="47.76846" lon="-3.5624">
        <ele>3.8</ele>
        <time>2021-07-11T09:22:32Z</time>
      </trkpt>
      <trkpt lat="47.76846" lon="-3.56238">
        <ele>3.8</ele>
        <time>2021-07-11T09:22:33Z</time>
      </trkpt>
      <trkpt lat="47.76846" lon="-3.56236">
        <ele>3.8</ele>
        <time>2021-07-11T09:22:34Z</time>
      </trkpt>
      <trkpt lat="47.76845" lon="-3.56234">
        <ele>3.8</ele>
        <time>2021-07-11T09:22:35Z</time>
      </trkpt>
      <trkpt lat="47.76845" lon="-3.56233">
        <ele>3.8</ele>
        <time>2021-07-11T09:22:36Z</time>
      </trkpt>
      <trkpt lat="47.76845" lon="-3.56231">
        <ele>3.8</ele>
        <time>2021-07-11T09:22:37Z</time>
      </trkpt>
      <trkpt lat="47.76845" lon="-3.5623">
        <ele>3.8</ele>
        <time>2021-07-11T09:22:38Z</time>
      </trkpt>
      <trkpt lat="47.76845" lon="-3.5623">
        <ele>3.8</ele>
        <time>2021-07-11T09:22:39Z</time>
      </trkpt>
      <trkpt lat="47.76844" lon="-3.56229">
        <ele>3.8</ele>
        <time>2021-07-11T09:22:40Z</time>
      </trkpt>
      <trkpt lat="47.76843" lon="-3.56228">
        <ele>3.9</ele>
        <time>2021-07-11T09:22:41Z</time>
      </trkpt>
      <trkpt lat="47.76843" lon="-3.56226">
        <ele>3.9</ele>
        <time>2021-07-11T09:22:42Z</time>
      </trkpt>
      <trkpt lat="47.76842" lon="-3.56225">
        <ele>3.9</ele>
        <time>2021-07-11T09:22:43Z</time>
      </trkpt>
      <trkpt lat="47.76842" lon="-3.56224">
        <ele>3.9</ele>
        <time>2021-07-11T09:22:44Z</time>
      </trkpt>
      <trkpt lat="47.76841" lon="-3.56223">
        <ele>3.9</ele>
        <time>2021-07-11T09:22:45Z</time>
      </trkpt>
      <trkpt lat="47.76841" lon="-3.56221">
        <ele>3.9</ele>
        <time>2021-07-11T09:22:46Z</time>
      </trkpt>
      <trkpt lat="47.7684" lon="-3.5622">
        <ele>4</ele>
        <time>2021-07-11T09:22:47Z</time>
      </trkpt>
      <trkpt lat="47.7684" lon="-3.56219">
        <ele>4</ele>
        <time>2021-07-11T09:22:48Z</time>
      </trkpt>
      <trkpt lat="47.76839" lon="-3.56218">
        <ele>4</ele>
        <time>2021-07-11T09:22:49Z</time>
      </trkpt>
      <trkpt lat="47.76839" lon="-3.56216">
        <ele>4</ele>
        <time>2021-07-11T09:22:50Z</time>
      </trkpt>
      <trkpt lat="47.76838" lon="-3.56215">
        <ele>4</ele>
        <time>2021-07-11T09:22:51Z</time>
      </trkpt>
      <trkpt lat="47.76838" lon="-3.56214">
        <ele>4</ele>
        <time>2021-07-11T09:22:52Z</time>
      </trkpt>
      <trkpt lat="47.76837" lon="-3.56212">
        <ele>4.1</ele>
        <time>2021-07-11T09:22:53Z</time>
      </trkpt>
      <trkpt lat="47.76837" lon="-3.56211">
        <ele>4.1</ele>
        <time>2021-07-11T09:22:54Z</time>
      </trkpt>
      <trkpt lat="47.76836" lon="-3.5621">
        <ele>4.1</ele>
        <time>2021-07-11T09:22:55Z</time>
      </trkpt>
      <trkpt lat="47.76836" lon="-3.56209">
        <ele>4.1</ele>
        <time>2021-07-11T09:22:56Z</time>
      </trkpt>
      <trkpt lat="47.76835" lon="-3.56207">
        <ele>4.2</ele>
        <time>2021-07-11T09:22:57Z</time>
      </trkpt>
      <trkpt lat="47.76834" lon="-3.56206">
        <ele>4.2</ele>
        <time>2021-07-11T09:22:58Z</time>
      </trkpt>
      <trkpt lat="47.76834" lon="-3.56205">
        <ele>4.3</ele>
        <time>2021-07-11T09:22:59Z</time>
      </trkpt>
      <trkpt lat="47.76833" lon="-3.56203">
        <ele>4.3</ele>
        <time>2021-07-11T09:23:00Z</time>
      </trkpt>
      <trkpt lat="47.76833" lon="-3.56202">
        <ele>4.3</ele>
        <time>2021-07-11T09:23:01Z</time>
      </trkpt>
      <trkpt lat="47.76833" lon="-3.562">
        <ele>4.4</ele>
        <time>2021-07-11T09:23:02Z</time>
      </trkpt>
      <trkpt lat="47.76832" lon="-3.56199">
        <ele>4.4</ele>
        <time>2021-07-11T09:23:03Z</time>
      </trkpt>
      <trkpt lat="47.76832" lon="-3.56198">
        <ele>4.5</ele>
        <time>2021-07-11T09:23:04Z</time>
      </trkpt>
      <trkpt lat="47.76831" lon="-3.56196">
        <ele>4.6</ele>
        <time>2021-07-11T09:23:05Z</time>
      </trkpt>
      <trkpt lat="47.76831" lon="-3.56195">
        <ele>4.6</ele>
        <time>2021-07-11T09:23:06Z</time>
      </trkpt>
      <trkpt lat="47.76831" lon="-3.56194">
        <ele>4.7</ele>
        <time>2021-07-11T09:23:07Z</time>
      </trkpt>
      <trkpt lat="47.7683" lon="-3.56192">
        <ele>4.8</ele>
        <time>2021-07-11T09:23:08Z</time>
      </trkpt>
      <trkpt lat="47.7683" lon="-3.5619">
        <ele>4.9</ele>
        <time>2021-07-11T09:23:09Z</time>
      </trkpt>
      <trkpt lat="47.76829" lon="-3.56189">
        <ele>5</ele>
        <time>2021-07-11T09:23:10Z</time>
      </trkpt>
      <trkpt lat="47.76828" lon="-3.56187">
        <ele>5.1</ele>
        <time>2021-07-11T09:23:11Z</time>
      </trkpt>
      <trkpt lat="47.76828" lon="-3.56186">
        <ele>5.2</ele>
        <time>2021-07-11T09:23:12Z</time>
      </trkpt>
      <trkpt lat="47.76827" lon="-3.56185">
        <ele>5.3</ele>
        <time>2021-07-11T09:23:13Z</time>
      </trkpt>
      <trkpt lat="47.76827" lon="-3.56185">
        <ele>5.3</ele>
        <time>2021-07-11T09:23:14Z</time>
      </trkpt>
      <trkpt lat="47.76827" lon="-3.56184">
        <ele>5.3</ele>
        <time>2021-07-11T09:23:15Z</time>
      </trkpt>
      <trkpt lat="47.76827" lon="-3.56184">
        <ele>5.3</ele>
        <time>2021-07-11T09:23:16Z</time>
      </trkpt>
      <trkpt lat="47.76827" lon="-3.56184">
        <ele>5.3</ele>
        <time>2021-07-11T09:23:17Z</time>
      </trkpt>
      <trkpt lat="47.76827" lon="-3.56184">
        <ele>5.3</ele>
        <time>2021-07-11T09:23:18Z</time>
      </trkpt>
      <trkpt lat="47.76827" lon="-3.56184">
        <ele>5.3</ele>
        <time>2021-07-11T09:23:19Z</time>
      </trkpt>
      <trkpt lat="47.76827" lon="-3.56184">
        <ele>5.3</ele>
        <time>2021-07-11T09:23:20Z</time>
      </trkpt>
      <trkpt lat="47.76827" lon="-3.56184">
        <ele>5.3</ele>
        <time>2021-07-11T09:23:21Z</time>
      </trkpt>
      <trkpt lat="47.76827" lon="-3.56184">
        <ele>5.4</ele>
        <time>2021-07-11T09:23:22Z</time>
      </trkpt>
      <trkpt lat="47.76827" lon="-3.56183">
        <ele>5.4</ele>
        <time>2021-07-11T09:23:23Z</time>
      </trkpt>
      <trkpt lat="47.76826" lon="-3.56182">
        <ele>5.6</ele>
        <time>2021-07-11T09:23:24Z</time>
      </trkpt>
      <trkpt lat="47.76825" lon="-3.5618">
        <ele>6</ele>
        <time>2021-07-11T09:23:25Z</time>
      </trkpt>
      <trkpt lat="47.76824" lon="-3.56178">
        <ele>6.4</ele>
        <time>2021-07-11T09:23:26Z</time>
      </trkpt>
      <trkpt lat="47.76823" lon="-3.56177">
        <ele>6.7</ele>
        <time>2021-07-11T09:23:27Z</time>
      </trkpt>
      <trkpt lat="47.76822" lon="-3.56174">
        <ele>7.2</ele>
        <time>2021-07-11T09:23:28Z</time>
      </trkpt>
      <trkpt lat="47.76822" lon="-3.56172">
        <ele>7.5</ele>
        <time>2021-07-11T09:23:29Z</time>
      </trkpt>
      <trkpt lat="47.76822" lon="-3.56172">
        <ele>7.7</ele>
        <time>2021-07-11T09:23:30Z</time>
      </trkpt>
      <trkpt lat="47.76822" lon="-3.56171">
        <ele>7.8</ele>
        <time>2021-07-11T09:23:31Z</time>
      </trkpt>
      <trkpt lat="47.76821" lon="-3.56171">
        <ele>7.8</ele>
        <time>2021-07-11T09:23:32Z</time>
      </trkpt>
      <trkpt lat="47.76821" lon="-3.56171">
        <ele>7.8</ele>
        <time>2021-07-11T09:23:33Z</time>
      </trkpt>
      <trkpt lat="47.76821" lon="-3.56171">
        <ele>7.8</ele>
        <time>2021-07-11T09:23:34Z</time>
      </trkpt>
      <trkpt lat="47.76821" lon="-3.56171">
        <ele>7.8</ele>
        <time>2021-07-11T09:23:35Z</time>
      </trkpt>
      <trkpt lat="47.76821" lon="-3.56171">
        <ele>7.8</ele>
        <time>2021-07-11T09:23:36Z</time>
      </trkpt>
      <trkpt lat="47.76821" lon="-3.56171">
        <ele>7.8</ele>
        <time>2021-07-11T09:23:37Z</time>
      </trkpt>
      <trkpt lat="47.76821" lon="-3.56171">
        <ele>7.8</ele>
        <time>2021-07-11T09:23:38Z</time>
      </trkpt>
      <trkpt lat="47.76821" lon="-3.56171">
        <ele>7.8</ele>
        <time>2021-07-11T09:23:39Z</time>
      </trkpt>
      <trkpt lat="47.76821" lon="-3.56171">
        <ele>7.9</ele>
        <time>2021-07-11T09:23:40Z</time>
      </trkpt>
      <trkpt lat="47.76821" lon="-3.5617">
        <ele>8.2</ele>
        <time>2021-07-11T09:23:41Z</time>
      </trkpt>
      <trkpt lat="47.7682" lon="-3.56168">
        <ele>8.6</ele>
        <time>2021-07-11T09:23:42Z</time>
      </trkpt>
      <trkpt lat="47.76819" lon="-3.56166">
        <ele>8.9</ele>
        <time>2021-07-11T09:23:43Z</time>
      </trkpt>
      <trkpt lat="47.76817" lon="-3.56163">
        <ele>9.2</ele>
        <time>2021-07-11T09:23:44Z</time>
      </trkpt>
      <trkpt lat="47.76815" lon="-3.5616">
        <ele>9.7</ele>
        <time>2021-07-11T09:23:45Z</time>
      </trkpt>
      <trkpt lat="47.76814" lon="-3.56158">
        <ele>10</ele>
        <time>2021-07-11T09:23:46Z</time>
      </trkpt>
      <trkpt lat="47.76813" lon="-3.56157">
        <ele>10.2</ele>
        <time>2021-07-11T09:23:47Z</time>
      </trkpt>
      <trkpt lat="47.76812" lon="-3.56156">
        <ele>10.4</ele>
        <time>2021-07-11T09:23:48Z</time>
      </trkpt>
      <trkpt lat="47.76811" lon="-3.56155">
        <ele>10.5</ele>
        <time>2021-07-11T09:23:49Z</time>
      </trkpt>
      <trkpt lat="47.76811" lon="-3.56154">
        <ele>10.6</ele>
        <time>2021-07-11T09:23:50Z</time>
      </trkpt>
      <trkpt lat="47.7681" lon="-3.56154">
        <ele>10.7</ele>
        <time>2021-07-11T09:23:51Z</time>
      </trkpt>
      <trkpt lat="47.7681" lon="-3.56153">
        <ele>10.8</ele>
        <time>2021-07-11T09:23:52Z</time>
      </trkpt>
      <trkpt lat="47.7681" lon="-3.56153">
        <ele>10.9</ele>
        <time>2021-07-11T09:23:53Z</time>
      </trkpt>
      <trkpt lat="47.76809" lon="-3.56152">
        <ele>11</ele>
        <time>2021-07-11T09:23:54Z</time>
      </trkpt>
      <trkpt lat="47.76809" lon="-3.56151">
        <ele>11</ele>
        <time>2021-07-11T09:23:55Z</time>
      </trkpt>
      <trkpt lat="47.76808" lon="-3.56151">
        <ele>11.1</ele>
        <time>2021-07-11T09:23:56Z</time>
      </trkpt>
      <trkpt lat="47.76808" lon="-3.5615">
        <ele>11.2</ele>
        <time>2021-07-11T09:23:57Z</time>
      </trkpt>
      <trkpt lat="47.76808" lon="-3.56149">
        <ele>11.3</ele>
        <time>2021-07-11T09:23:58Z</time>
      </trkpt>
      <trkpt lat="47.76807" lon="-3.56149">
        <ele>11.4</ele>
        <time>2021-07-11T09:23:59Z</time>
      </trkpt>
      <trkpt lat="47.76807" lon="-3.56148">
        <ele>11.4</ele>
        <time>2021-07-11T09:24:00Z</time>
      </trkpt>
      <trkpt lat="47.76807" lon="-3.56148">
        <ele>11.5</ele>
        <time>2021-07-11T09:24:01Z</time>
      </trkpt>
      <trkpt lat="47.76806" lon="-3.56147">
        <ele>11.6</ele>
        <time>2021-07-11T09:24:02Z</time>
      </trkpt>
      <trkpt lat="47.76806" lon="-3.56146">
        <ele>11.7</ele>
        <time>2021-07-11T09:24:03Z</time>
      </trkpt>
      <trkpt lat="47.76806" lon="-3.56146">
        <ele>11.8</ele>
        <time>2021-07-11T09:24:04Z</time>
      </trkpt>
      <trkpt lat="47.76805" lon="-3.56145">
        <ele>11.8</ele>
        <time>2021-07-11T09:24:05Z</time>
      </trkpt>
      <trkpt lat="47.76805" lon="-3.56145">
        <ele>11.9</ele>
        <time>2021-07-11T09:24:06Z</time>
      </trkpt>
      <trkpt lat="47.76805" lon="-3.56144">
        <ele>12</ele>
        <time>2021-07-11T09:24:07Z</time>
      </trkpt>
      <trkpt lat="47.76804" lon="-3.56143">
        <ele>12.1</ele>
        <time>2021-07-11T09:24:08Z</time>
      </trkpt>
      <trkpt lat="47.76804" lon="-3.56143">
        <ele>12.1</ele>
        <time>2021-07-11T09:24:09Z</time>
      </trkpt>
      <trkpt lat="47.76803" lon="-3.56142">
        <ele>12.2</ele>
        <time>2021-07-11T09:24:10Z</time>
      </trkpt>
      <trkpt lat="47.76803" lon="-3.56142">
        <ele>12.3</ele>
        <time>2021-07-11T09:24:11Z</time>
      </trkpt>
      <trkpt lat="47.76803" lon="-3.56141">
        <ele>12.3</ele>
        <time>2021-07-11T09:24:12Z</time>
      </trkpt>
      <trkpt lat="47.76802" lon="-3.5614">
        <ele>12.4</ele>
        <time>2021-07-11T09:24:13Z</time>
      </trkpt>
      <trkpt lat="47.76802" lon="-3.5614">
        <ele>12.5</ele>
        <time>2021-07-11T09:24:14Z</time>
      </trkpt>
      <trkpt lat="47.76802" lon="-3.56139">
        <ele>12.5</ele>
        <time>2021-07-11T09:24:15Z</time>
      </trkpt>
      <trkpt lat="47.76801" lon="-3.56138">
        <ele>12.6</ele>
        <time>2021-07-11T09:24:16Z</time>
      </trkpt>
      <trkpt lat="47.76801" lon="-3.56138">
        <ele>12.7</ele>
        <time>2021-07-11T09:24:17Z</time>
      </trkpt>
      <trkpt lat="47.76801" lon="-3.56137">
        <ele>12.7</ele>
        <time>2021-07-11T09:24:18Z</time>
      </trkpt>
      <trkpt lat="47.768" lon="-3.56137">
        <ele>12.8</ele>
        <time>2021-07-11T09:24:19Z</time>
      </trkpt>
      <trkpt lat="47.768" lon="-3.56136">
        <ele>12.9</ele>
        <time>2021-07-11T09:24:20Z</time>
      </trkpt>
      <trkpt lat="47.768" lon="-3.56135">
        <ele>12.9</ele>
        <time>2021-07-11T09:24:21Z</time>
      </trkpt>
      <trkpt lat="47.76799" lon="-3.56135">
        <ele>13</ele>
        <time>2021-07-11T09:24:22Z</time>
      </trkpt>
      <trkpt lat="47.76799" lon="-3.56134">
        <ele>13</ele>
        <time>2021-07-11T09:24:23Z</time>
      </trkpt>
      <trkpt lat="47.76798" lon="-3.56134">
        <ele>13.1</ele>
        <time>2021-07-11T09:24:24Z</time>
      </trkpt>
      <trkpt lat="47.76798" lon="-3.56133">
        <ele>13.2</ele>
        <time>2021-07-11T09:24:25Z</time>
      </trkpt>
      <trkpt lat="47.76798" lon="-3.56132">
        <ele>13.2</ele>
        <time>2021-07-11T09:24:26Z</time>
      </trkpt>
      <trkpt lat="47.76797" lon="-3.56132">
        <ele>13.3</ele>
        <time>2021-07-11T09:24:27Z</time>
      </trkpt>
      <trkpt lat="47.76797" lon="-3.56131">
        <ele>13.3</ele>
        <time>2021-07-11T09:24:28Z</time>
      </trkpt>
      <trkpt lat="47.76797" lon="-3.56131">
        <ele>13.4</ele>
        <time>2021-07-11T09:24:29Z</time>
      </trkpt>
      <trkpt lat="47.76796" lon="-3.5613">
        <ele>13.4</ele>
        <time>2021-07-11T09:24:30Z</time>
      </trkpt>
      <trkpt lat="47.76796" lon="-3.56129">
        <ele>13.5</ele>
        <time>2021-07-11T09:24:31Z</time>
      </trkpt>
      <trkpt lat="47.76796" lon="-3.56129">
        <ele>13.5</ele>
        <time>2021-07-11T09:24:32Z</time>
      </trkpt>
      <trkpt lat="47.76795" lon="-3.56129">
        <ele>13.6</ele>
        <time>2021-07-11T09:24:33Z</time>
      </trkpt>
      <trkpt lat="47.76795" lon="-3.56128">
        <ele>13.6</ele>
        <time>2021-07-11T09:24:34Z</time>
      </trkpt>
      <trkpt lat="47.76795" lon="-3.56128">
        <ele>13.6</ele>
        <time>2021-07-11T09:24:35Z</time>
      </trkpt>
      <trkpt lat="47.76795" lon="-3.56128">
        <ele>13.7</ele>
        <time>2021-07-11T09:24:36Z</time>
      </trkpt>
      <trkpt lat="47.76795" lon="-3.56128">
        <ele>13.7</ele>
        <time>2021-07-11T09:24:37Z</time>
      </trkpt>
      <trkpt lat="47.76794" lon="-3.56127">
        <ele>13.7</ele>
        <time>2021-07-11T09:24:38Z</time>
      </trkpt>
      <trkpt lat="47.76794" lon="-3.56127">
        <ele>13.7</ele>
        <time>2021-07-11T09:24:39Z</time>
      </trkpt>
      <trkpt lat="47.76794" lon="-3.56127">
        <ele>13.7</ele>
        <time>2021-07-11T09:24:40Z</time>
      </trkpt>
      <trkpt lat="47.76794" lon="-3.56127">
        <ele>13.8</ele>
        <time>2021-07-11T09:24:41Z</time>
      </trkpt>
      <trkpt lat="47.76794" lon="-3.56126">
        <ele>13.8</ele>
        <time>2021-07-11T09:24:42Z</time>
      </trkpt>
      <trkpt lat="47.76793" lon="-3.56126">
        <ele>13.8</ele>
        <time>2021-07-11T09:24:43Z</time>
      </trkpt>
      <trkpt lat="47.76793" lon="-3.56126">
        <ele>13.8</ele>
        <time>2021-07-11T09:24:44Z</time>
      </trkpt>
      <trkpt lat="47.76793" lon="-3.56126">
        <ele>13.9</ele>
        <time>2021-07-11T09:24:45Z</time>
      </trkpt>
      <trkpt lat="47.76793" lon="-3.56125">
        <ele>13.9</ele>
        <time>2021-07-11T09:24:46Z</time>
      </trkpt>
      <trkpt lat="47.76792" lon="-3.56125">
        <ele>13.9</ele>
        <time>2021-07-11T09:24:47Z</time>
      </trkpt>
      <trkpt lat="47.76792" lon="-3.56125">
        <ele>13.9</ele>
        <time>2021-07-11T09:24:48Z</time>
      </trkpt>
      <trkpt lat="47.76792" lon="-3.56124">
        <ele>13.9</ele>
        <time>2021-07-11T09:24:49Z</time>
      </trkpt>
      <trkpt lat="47.76792" lon="-3.56124">
        <ele>13.9</ele>
        <time>2021-07-11T09:24:50Z</time>
      </trkpt>
      <trkpt lat="47.76792" lon="-3.56124">
        <ele>13.9</ele>
        <time>2021-07-11T09:24:51Z</time>
      </trkpt>
      <trkpt lat="47.76791" lon="-3.56124">
        <ele>13.9</ele>
        <time>2021-07-11T09:24:52Z</time>
      </trkpt>
      <trkpt lat="47.76791" lon="-3.56123">
        <ele>13.9</ele>
        <time>2021-07-11T09:24:53Z</time>
      </trkpt>
      <trkpt lat="47.76791" lon="-3.56123">
        <ele>13.9</ele>
        <time>2021-07-11T09:24:54Z</time>
      </trkpt>
      <trkpt lat="47.76791" lon="-3.56123">
        <ele>13.9</ele>
        <time>2021-07-11T09:24:55Z</time>
      </trkpt>
      <trkpt lat="47.76791" lon="-3.56123">
        <ele>13.9</ele>
        <time>2021-07-11T09:24:56Z</time>
      </trkpt>
      <trkpt lat="47.7679" lon="-3.56122">
        <ele>13.9</ele>
        <time>2021-07-11T09:24:57Z</time>
      </trkpt>
      <trkpt lat="47.7679" lon="-3.56122">
        <ele>13.9</ele>
        <time>2021-07-11T09:24:58Z</time>
      </trkpt>
      <trkpt lat="47.7679" lon="-3.56122">
        <ele>13.9</ele>
        <time>2021-07-11T09:24:59Z</time>
      </trkpt>
      <trkpt lat="47.7679" lon="-3.56122">
        <ele>13.9</ele>
        <time>2021-07-11T09:25:00Z</time>
      </trkpt>
      <trkpt lat="47.7679" lon="-3.56121">
        <ele>13.9</ele>
        <time>2021-07-11T09:25:01Z</time>
      </trkpt>
      <trkpt lat="47.76789" lon="-3.56121">
        <ele>13.9</ele>
        <time>2021-07-11T09:25:02Z</time>
      </trkpt>
      <trkpt lat="47.76789" lon="-3.56121">
        <ele>13.9</ele>
        <time>2021-07-11T09:25:03Z</time>
      </trkpt>
      <trkpt lat="47.76789" lon="-3.56121">
        <ele>13.9</ele>
        <time>2021-07-11T09:25:04Z</time>
      </trkpt>
      <trkpt lat="47.76789" lon="-3.5612">
        <ele>13.9</ele>
        <time>2021-07-11T09:25:05Z</time>
      </trkpt>
      <trkpt lat="47.76789" lon="-3.5612">
        <ele>13.9</ele>
        <time>2021-07-11T09:25:06Z</time>
      </trkpt>
      <trkpt lat="47.76788" lon="-3.5612">
        <ele>13.9</ele>
        <time>2021-07-11T09:25:07Z</time>
      </trkpt>
      <trkpt lat="47.76788" lon="-3.56119">
        <ele>13.9</ele>
        <time>2021-07-11T09:25:08Z</time>
      </trkpt>
      <trkpt lat="47.76788" lon="-3.56119">
        <ele>13.9</ele>
        <time>2021-07-11T09:25:09Z</time>
      </trkpt>
      <trkpt lat="47.76788" lon="-3.56119">
        <ele>13.9</ele>
        <time>2021-07-11T09:25:10Z</time>
      </trkpt>
      <trkpt lat="47.76787" lon="-3.56119">
        <ele>13.9</ele>
        <time>2021-07-11T09:25:11Z</time>
      </trkpt>
      <trkpt lat="47.76787" lon="-3.56118">
        <ele>13.9</ele>
        <time>2021-07-11T09:25:12Z</time>
      </trkpt>
      <trkpt lat="47.76787" lon="-3.56118">
        <ele>13.9</ele>
        <time>2021-07-11T09:25:13Z</time>
      </trkpt>
      <trkpt lat="47.76787" lon="-3.56118">
        <ele>13.9</ele>
        <time>2021-07-11T09:25:14Z</time>
      </trkpt>
      <trkpt lat="47.76787" lon="-3.56118">
        <ele>13.9</ele>
        <time>2021-07-11T09:25:15Z</time>
      </trkpt>
      <trkpt lat="47.76786" lon="-3.56117">
        <ele>13.9</ele>
        <time>2021-07-11T09:25:16Z</time>
      </trkpt>
      <trkpt lat="47.76786" lon="-3.56117">
        <ele>13.9</ele>
        <time>2021-07-11T09:25:17Z</time>
      </trkpt>
      <trkpt lat="47.76786" lon="-3.56117">
        <ele>13.9</ele>
        <time>2021-07-11T09:25:18Z</time>
      </trkpt>
      <trkpt lat="47.76786" lon="-3.56117">
        <ele>13.8</ele>
        <time>2021-07-11T09:25:19Z</time>
      </trkpt>
      <trkpt lat="47.76786" lon="-3.56116">
        <ele>13.8</ele>
        <time>2021-07-11T09:25:20Z</time>
      </trkpt>
      <trkpt lat="47.76785" lon="-3.56116">
        <ele>13.8</ele>
        <time>2021-07-11T09:25:21Z</time>
      </trkpt>
      <trkpt lat="47.76785" lon="-3.56116">
        <ele>13.8</ele>
        <time>2021-07-11T09:25:22Z</time>
      </trkpt>
      <trkpt lat="47.76785" lon="-3.56116">
        <ele>13.8</ele>
        <time>2021-07-11T09:25:23Z</time>
      </trkpt>
      <trkpt lat="47.76785" lon="-3.56115">
        <ele>13.8</ele>
        <time>2021-07-11T09:25:24Z</time>
      </trkpt>
      <trkpt lat="47.76785" lon="-3.56115">
        <ele>13.8</ele>
        <time>2021-07-11T09:25:25Z</time>
      </trkpt>
      <trkpt lat="47.76784" lon="-3.56115">
        <ele>13.8</ele>
        <time>2021-07-11T09:25:26Z</time>
      </trkpt>
      <trkpt lat="47.76784" lon="-3.56115">
        <ele>13.8</ele>
        <time>2021-07-11T09:25:27Z</time>
      </trkpt>
      <trkpt lat="47.76784" lon="-3.56114">
        <ele>13.8</ele>
        <time>2021-07-11T09:25:28Z</time>
      </trkpt>
      <trkpt lat="47.76784" lon="-3.56114">
        <ele>13.8</ele>
        <time>2021-07-11T09:25:29Z</time>
      </trkpt>
      <trkpt lat="47.76783" lon="-3.56114">
        <ele>13.8</ele>
        <time>2021-07-11T09:25:30Z</time>
      </trkpt>
      <trkpt lat="47.76783" lon="-3.56113">
        <ele>13.8</ele>
        <time>2021-07-11T09:25:31Z</time>
      </trkpt>
      <trkpt lat="47.76783" lon="-3.56113">
        <ele>13.8</ele>
        <time>2021-07-11T09:25:32Z</time>
      </trkpt>
      <trkpt lat="47.76783" lon="-3.56113">
        <ele>13.8</ele>
        <time>2021-07-11T09:25:33Z</time>
      </trkpt>
      <trkpt lat="47.76781" lon="-3.56111">
        <ele>13.7</ele>
        <time>2021-07-11T09:25:34Z</time>
      </trkpt>
      <trkpt lat="47.76781" lon="-3.5611">
        <ele>13.7</ele>
        <time>2021-07-11T09:25:35Z</time>
      </trkpt>
      <trkpt lat="47.7678" lon="-3.56109">
        <ele>13.6</ele>
        <time>2021-07-11T09:25:36Z</time>
      </trkpt>
      <trkpt lat="47.76779" lon="-3.56109">
        <ele>13.6</ele>
        <time>2021-07-11T09:25:37Z</time>
      </trkpt>
      <trkpt lat="47.76779" lon="-3.56108">
        <ele>13.6</ele>
        <time>2021-07-11T09:25:38Z</time>
      </trkpt>
      <trkpt lat="47.76778" lon="-3.56107">
        <ele>13.5</ele>
        <time>2021-07-11T09:25:39Z</time>
      </trkpt>
      <trkpt lat="47.76777" lon="-3.56107">
        <ele>13.5</ele>
        <time>2021-07-11T09:25:40Z</time>
      </trkpt>
      <trkpt lat="47.76777" lon="-3.56107">
        <ele>13.5</ele>
        <time>2021-07-11T09:25:41Z</time>
      </trkpt>
      <trkpt lat="47.76776" lon="-3.56107">
        <ele>13.5</ele>
        <time>2021-07-11T09:25:42Z</time>
      </trkpt>
      <trkpt lat="47.76775" lon="-3.56106">
        <ele>13.4</ele>
        <time>2021-07-11T09:25:43Z</time>
      </trkpt>
      <trkpt lat="47.76775" lon="-3.56106">
        <ele>13.4</ele>
        <time>2021-07-11T09:25:44Z</time>
      </trkpt>
      <trkpt lat="47.76774" lon="-3.56106">
        <ele>13.4</ele>
        <time>2021-07-11T09:25:45Z</time>
      </trkpt>
      <trkpt lat="47.76774" lon="-3.56106">
        <ele>13.4</ele>
        <time>2021-07-11T09:25:46Z</time>
      </trkpt>
      <trkpt lat="47.76773" lon="-3.56106">
        <ele>13.3</ele>
        <time>2021-07-11T09:25:47Z</time>
      </trkpt>
      <trkpt lat="47.76773" lon="-3.56106">
        <ele>13.3</ele>
        <time>2021-07-11T09:25:48Z</time>
      </trkpt>
      <trkpt lat="47.76772" lon="-3.56105">
        <ele>13.3</ele>
        <time>2021-07-11T09:25:49Z</time>
      </trkpt>
      <trkpt lat="47.76772" lon="-3.56105">
        <ele>13.3</ele>
        <time>2021-07-11T09:25:50Z</time>
      </trkpt>
      <trkpt lat="47.76771" lon="-3.56105">
        <ele>13.2</ele>
        <time>2021-07-11T09:25:51Z</time>
      </trkpt>
      <trkpt lat="47.76771" lon="-3.56105">
        <ele>13.2</ele>
        <time>2021-07-11T09:25:52Z</time>
      </trkpt>
      <trkpt lat="47.7677" lon="-3.56105">
        <ele>13.2</ele>
        <time>2021-07-11T09:25:53Z</time>
      </trkpt>
      <trkpt lat="47.76769" lon="-3.56105">
        <ele>13.1</ele>
        <time>2021-07-11T09:25:54Z</time>
      </trkpt>
      <trkpt lat="47.76769" lon="-3.56104">
        <ele>13.1</ele>
        <time>2021-07-11T09:25:55Z</time>
      </trkpt>
      <trkpt lat="47.76768" lon="-3.56104">
        <ele>13.1</ele>
        <time>2021-07-11T09:25:56Z</time>
      </trkpt>
      <trkpt lat="47.76768" lon="-3.56104">
        <ele>13.1</ele>
        <time>2021-07-11T09:25:57Z</time>
      </trkpt>
      <trkpt lat="47.76767" lon="-3.56104">
        <ele>13</ele>
        <time>2021-07-11T09:25:58Z</time>
      </trkpt>
      <trkpt lat="47.76767" lon="-3.56104">
        <ele>13</ele>
        <time>2021-07-11T09:25:59Z</time>
      </trkpt>
      <trkpt lat="47.76766" lon="-3.56104">
        <ele>13</ele>
        <time>2021-07-11T09:26:00Z</time>
      </trkpt>
      <trkpt lat="47.76766" lon="-3.56103">
        <ele>12.9</ele>
        <time>2021-07-11T09:26:01Z</time>
      </trkpt>
      <trkpt lat="47.76765" lon="-3.56103">
        <ele>12.9</ele>
        <time>2021-07-11T09:26:02Z</time>
      </trkpt>
      <trkpt lat="47.76765" lon="-3.56103">
        <ele>12.9</ele>
        <time>2021-07-11T09:26:03Z</time>
      </trkpt>
      <trkpt lat="47.76764" lon="-3.56103">
        <ele>12.8</ele>
        <time>2021-07-11T09:26:04Z</time>
      </trkpt>
      <trkpt lat="47.76764" lon="-3.56103">
        <ele>12.8</ele>
        <time>2021-07-11T09:26:05Z</time>
      </trkpt>
      <trkpt lat="47.76763" lon="-3.56103">
        <ele>12.8</ele>
        <time>2021-07-11T09:26:06Z</time>
      </trkpt>
      <trkpt lat="47.76762" lon="-3.56102">
        <ele>12.7</ele>
        <time>2021-07-11T09:26:07Z</time>
      </trkpt>
      <trkpt lat="47.76762" lon="-3.56102">
        <ele>12.7</ele>
        <time>2021-07-11T09:26:08Z</time>
      </trkpt>
      <trkpt lat="47.76761" lon="-3.56102">
        <ele>12.7</ele>
        <time>2021-07-11T09:26:09Z</time>
      </trkpt>
      <trkpt lat="47.76761" lon="-3.56102">
        <ele>12.6</ele>
        <time>2021-07-11T09:26:10Z</time>
      </trkpt>
      <trkpt lat="47.7676" lon="-3.56102">
        <ele>12.6</ele>
        <time>2021-07-11T09:26:11Z</time>
      </trkpt>
      <trkpt lat="47.7676" lon="-3.56102">
        <ele>12.6</ele>
        <time>2021-07-11T09:26:12Z</time>
      </trkpt>
      <trkpt lat="47.76759" lon="-3.56101">
        <ele>12.5</ele>
        <time>2021-07-11T09:26:13Z</time>
      </trkpt>
      <trkpt lat="47.76759" lon="-3.56101">
        <ele>12.5</ele>
        <time>2021-07-11T09:26:14Z</time>
      </trkpt>
      <trkpt lat="47.76758" lon="-3.56101">
        <ele>12.5</ele>
        <time>2021-07-11T09:26:15Z</time>
      </trkpt>
      <trkpt lat="47.76758" lon="-3.56101">
        <ele>12.5</ele>
        <time>2021-07-11T09:26:16Z</time>
      </trkpt>
      <trkpt lat="47.76756" lon="-3.561">
        <ele>12.4</ele>
        <time>2021-07-11T09:26:17Z</time>
      </trkpt>
      <trkpt lat="47.76755" lon="-3.561">
        <ele>12.4</ele>
        <time>2021-07-11T09:26:18Z</time>
      </trkpt>
      <trkpt lat="47.76754" lon="-3.561">
        <ele>12.3</ele>
        <time>2021-07-11T09:26:19Z</time>
      </trkpt>
      <trkpt lat="47.76753" lon="-3.56099">
        <ele>12.3</ele>
        <time>2021-07-11T09:26:20Z</time>
      </trkpt>
      <trkpt lat="47.76752" lon="-3.56099">
        <ele>12.3</ele>
        <time>2021-07-11T09:26:21Z</time>
      </trkpt>
      <trkpt lat="47.76752" lon="-3.56098">
        <ele>12.2</ele>
        <time>2021-07-11T09:26:22Z</time>
      </trkpt>
      <trkpt lat="47.76751" lon="-3.56098">
        <ele>12.2</ele>
        <time>2021-07-11T09:26:23Z</time>
      </trkpt>
      <trkpt lat="47.76751" lon="-3.56097">
        <ele>12.2</ele>
        <time>2021-07-11T09:26:24Z</time>
      </trkpt>
      <trkpt lat="47.7675" lon="-3.56097">
        <ele>12.2</ele>
        <time>2021-07-11T09:26:25Z</time>
      </trkpt>
      <trkpt lat="47.7675" lon="-3.56097">
        <ele>12.2</ele>
        <time>2021-07-11T09:26:26Z</time>
      </trkpt>
      <trkpt lat="47.7675" lon="-3.56097">
        <ele>12.2</ele>
        <time>2021-07-11T09:26:27Z</time>
      </trkpt>
      <trkpt lat="47.7675" lon="-3.56097">
        <ele>12.2</ele>
        <time>2021-07-11T09:26:28Z</time>
      </trkpt>
      <trkpt lat="47.7675" lon="-3.56096">
        <ele>12.2</ele>
        <time>2021-07-11T09:26:29Z</time>
      </trkpt>
      <trkpt lat="47.7675" lon="-3.56095">
        <ele>12.2</ele>
        <time>2021-07-11T09:26:30Z</time>
      </trkpt>
      <trkpt lat="47.76749" lon="-3.56094">
        <ele>12.2</ele>
        <time>2021-07-11T09:26:31Z</time>
      </trkpt>
      <trkpt lat="47.76748" lon="-3.56093">
        <ele>12.2</ele>
        <time>2021-07-11T09:26:32Z</time>
      </trkpt>
      <trkpt lat="47.76747" lon="-3.56092">
        <ele>12.2</ele>
        <time>2021-07-11T09:26:33Z</time>
      </trkpt>
      <trkpt lat="47.76747" lon="-3.5609">
        <ele>12.2</ele>
        <time>2021-07-11T09:26:34Z</time>
      </trkpt>
      <trkpt lat="47.76747" lon="-3.56089">
        <ele>12.2</ele>
        <time>2021-07-11T09:26:35Z</time>
      </trkpt>
      <trkpt lat="47.76747" lon="-3.56087">
        <ele>12.2</ele>
        <time>2021-07-11T09:26:36Z</time>
      </trkpt>
      <trkpt lat="47.76747" lon="-3.56085">
        <ele>12.2</ele>
        <time>2021-07-11T09:26:37Z</time>
      </trkpt>
      <trkpt lat="47.76747" lon="-3.56084">
        <ele>12.2</ele>
        <time>2021-07-11T09:26:38Z</time>
      </trkpt>
      <trkpt lat="47.76747" lon="-3.56082">
        <ele>12.3</ele>
        <time>2021-07-11T09:26:39Z</time>
      </trkpt>
      <trkpt lat="47.76748" lon="-3.56081">
        <ele>12.3</ele>
        <time>2021-07-11T09:26:40Z</time>
      </trkpt>
      <trkpt lat="47.76748" lon="-3.5608">
        <ele>12.3</ele>
        <time>2021-07-11T09:26:41Z</time>
      </trkpt>
      <trkpt lat="47.76749" lon="-3.56079">
        <ele>12.3</ele>
        <time>2021-07-11T09:26:42Z</time>
      </trkpt>
      <trkpt lat="47.7675" lon="-3.56078">
        <ele>12.4</ele>
        <time>2021-07-11T09:26:43Z</time>
      </trkpt>
      <trkpt lat="47.76751" lon="-3.56077">
        <ele>12.4</ele>
        <time>2021-07-11T09:26:44Z</time>
      </trkpt>
      <trkpt lat="47.76752" lon="-3.56076">
        <ele>12.5</ele>
        <time>2021-07-11T09:26:45Z</time>
      </trkpt>
      <trkpt lat="47.76753" lon="-3.56075">
        <ele>12.5</ele>
        <time>2021-07-11T09:26:46Z</time>
      </trkpt>
      <trkpt lat="47.76755" lon="-3.56073">
        <ele>12.6</ele>
        <time>2021-07-11T09:26:47Z</time>
      </trkpt>
      <trkpt lat="47.76755" lon="-3.56073">
        <ele>12.6</ele>
        <time>2021-07-11T09:26:48Z</time>
      </trkpt>
      <trkpt lat="47.76756" lon="-3.56071">
        <ele>12.6</ele>
        <time>2021-07-11T09:26:49Z</time>
      </trkpt>
      <trkpt lat="47.76757" lon="-3.5607">
        <ele>12.7</ele>
        <time>2021-07-11T09:26:50Z</time>
      </trkpt>
      <trkpt lat="47.76758" lon="-3.56068">
        <ele>12.7</ele>
        <time>2021-07-11T09:26:51Z</time>
      </trkpt>
      <trkpt lat="47.76759" lon="-3.56067">
        <ele>12.7</ele>
        <time>2021-07-11T09:26:52Z</time>
      </trkpt>
      <trkpt lat="47.76759" lon="-3.56065">
        <ele>12.7</ele>
        <time>2021-07-11T09:26:53Z</time>
      </trkpt>
      <trkpt lat="47.76759" lon="-3.56064">
        <ele>12.8</ele>
        <time>2021-07-11T09:26:54Z</time>
      </trkpt>
      <trkpt lat="47.76759" lon="-3.56063">
        <ele>12.8</ele>
        <time>2021-07-11T09:26:55Z</time>
      </trkpt>
      <trkpt lat="47.76759" lon="-3.56062">
        <ele>12.8</ele>
        <time>2021-07-11T09:26:56Z</time>
      </trkpt>
      <trkpt lat="47.76759" lon="-3.56062">
        <ele>12.8</ele>
        <time>2021-07-11T09:26:57Z</time>
      </trkpt>
      <trkpt lat="47.76759" lon="-3.56062">
        <ele>12.8</ele>
        <time>2021-07-11T09:26:58Z</time>
      </trkpt>
      <trkpt lat="47.76759" lon="-3.5606">
        <ele>12.8</ele>
        <time>2021-07-11T09:26:59Z</time>
      </trkpt>
      <trkpt lat="47.76759" lon="-3.56058">
        <ele>12.8</ele>
        <time>2021-07-11T09:27:00Z</time>
      </trkpt>
      <trkpt lat="47.76759" lon="-3.56056">
        <ele>12.9</ele>
        <time>2021-07-11T09:27:01Z</time>
      </trkpt>
      <trkpt lat="47.76759" lon="-3.56055">
        <ele>12.9</ele>
        <time>2021-07-11T09:27:02Z</time>
      </trkpt>
      <trkpt lat="47.76759" lon="-3.56053">
        <ele>12.9</ele>
        <time>2021-07-11T09:27:03Z</time>
      </trkpt>
      <trkpt lat="47.76758" lon="-3.56052">
        <ele>12.9</ele>
        <time>2021-07-11T09:27:04Z</time>
      </trkpt>
      <trkpt lat="47.76758" lon="-3.56052">
        <ele>12.9</ele>
        <time>2021-07-11T09:27:05Z</time>
      </trkpt>
      <trkpt lat="47.76758" lon="-3.56052">
        <ele>13</ele>
        <time>2021-07-11T09:27:06Z</time>
      </trkpt>
      <trkpt lat="47.76758" lon="-3.56051">
        <ele>13</ele>
        <time>2021-07-11T09:27:07Z</time>
      </trkpt>
      <trkpt lat="47.76757" lon="-3.56051">
        <ele>13</ele>
        <time>2021-07-11T09:27:08Z</time>
      </trkpt>
      <trkpt lat="47.76757" lon="-3.5605">
        <ele>13</ele>
        <time>2021-07-11T09:27:09Z</time>
      </trkpt>
      <trkpt lat="47.76756" lon="-3.56048">
        <ele>12.9</ele>
        <time>2021-07-11T09:27:10Z</time>
      </trkpt>
      <trkpt lat="47.76755" lon="-3.56046">
        <ele>12.8</ele>
        <time>2021-07-11T09:27:11Z</time>
      </trkpt>
      <trkpt lat="47.76754" lon="-3.56044">
        <ele>12.8</ele>
        <time>2021-07-11T09:27:12Z</time>
      </trkpt>
      <trkpt lat="47.76753" lon="-3.56043">
        <ele>12.7</ele>
        <time>2021-07-11T09:27:13Z</time>
      </trkpt>
      <trkpt lat="47.76751" lon="-3.56042">
        <ele>12.7</ele>
        <time>2021-07-11T09:27:14Z</time>
      </trkpt>
      <trkpt lat="47.76749" lon="-3.56042">
        <ele>12.6</ele>
        <time>2021-07-11T09:27:15Z</time>
      </trkpt>
      <trkpt lat="47.76748" lon="-3.56042">
        <ele>12.6</ele>
        <time>2021-07-11T09:27:16Z</time>
      </trkpt>
      <trkpt lat="47.76747" lon="-3.56041">
        <ele>12.5</ele>
        <time>2021-07-11T09:27:17Z</time>
      </trkpt>
      <trkpt lat="47.76745" lon="-3.56041">
        <ele>12.5</ele>
        <time>2021-07-11T09:27:18Z</time>
      </trkpt>
      <trkpt lat="47.76744" lon="-3.5604">
        <ele>12.4</ele>
        <time>2021-07-11T09:27:19Z</time>
      </trkpt>
      <trkpt lat="47.76742" lon="-3.56038">
        <ele>12.4</ele>
        <time>2021-07-11T09:27:20Z</time>
      </trkpt>
      <trkpt lat="47.76741" lon="-3.56037">
        <ele>12.3</ele>
        <time>2021-07-11T09:27:21Z</time>
      </trkpt>
      <trkpt lat="47.7674" lon="-3.56036">
        <ele>12.3</ele>
        <time>2021-07-11T09:27:22Z</time>
      </trkpt>
      <trkpt lat="47.76738" lon="-3.56035">
        <ele>12.3</ele>
        <time>2021-07-11T09:27:23Z</time>
      </trkpt>
      <trkpt lat="47.76737" lon="-3.56035">
        <ele>12.2</ele>
        <time>2021-07-11T09:27:24Z</time>
      </trkpt>
      <trkpt lat="47.76736" lon="-3.56035">
        <ele>12.2</ele>
        <time>2021-07-11T09:27:25Z</time>
      </trkpt>
      <trkpt lat="47.76735" lon="-3.56035">
        <ele>12.2</ele>
        <time>2021-07-11T09:27:26Z</time>
      </trkpt>
      <trkpt lat="47.76734" lon="-3.56035">
        <ele>12.1</ele>
        <time>2021-07-11T09:27:27Z</time>
      </trkpt>
      <trkpt lat="47.76732" lon="-3.56035">
        <ele>12.1</ele>
        <time>2021-07-11T09:27:28Z</time>
      </trkpt>
      <trkpt lat="47.76731" lon="-3.56036">
        <ele>12.1</ele>
        <time>2021-07-11T09:27:29Z</time>
      </trkpt>
      <trkpt lat="47.7673" lon="-3.56036">
        <ele>12.1</ele>
        <time>2021-07-11T09:27:30Z</time>
      </trkpt>
      <trkpt lat="47.76729" lon="-3.56036">
        <ele>12</ele>
        <time>2021-07-11T09:27:31Z</time>
      </trkpt>
      <trkpt lat="47.76728" lon="-3.56036">
        <ele>12</ele>
        <time>2021-07-11T09:27:32Z</time>
      </trkpt>
      <trkpt lat="47.76727" lon="-3.56036">
        <ele>12</ele>
        <time>2021-07-11T09:27:33Z</time>
      </trkpt>
      <trkpt lat="47.76726" lon="-3.56037">
        <ele>12</ele>
        <time>2021-07-11T09:27:34Z</time>
      </trkpt>
      <trkpt lat="47.76725" lon="-3.56037">
        <ele>11.9</ele>
        <time>2021-07-11T09:27:35Z</time>
      </trkpt>
      <trkpt lat="47.76724" lon="-3.56037">
        <ele>11.9</ele>
        <time>2021-07-11T09:27:36Z</time>
      </trkpt>
      <trkpt lat="47.76723" lon="-3.56037">
        <ele>11.9</ele>
        <time>2021-07-11T09:27:37Z</time>
      </trkpt>
      <trkpt lat="47.76722" lon="-3.56037">
        <ele>11.9</ele>
        <time>2021-07-11T09:27:38Z</time>
      </trkpt>
      <trkpt lat="47.76721" lon="-3.56038">
        <ele>11.8</ele>
        <time>2021-07-11T09:27:39Z</time>
      </trkpt>
      <trkpt lat="47.7672" lon="-3.56038">
        <ele>11.8</ele>
        <time>2021-07-11T09:27:40Z</time>
      </trkpt>
      <trkpt lat="47.76719" lon="-3.56038">
        <ele>11.8</ele>
        <time>2021-07-11T09:27:41Z</time>
      </trkpt>
      <trkpt lat="47.76718" lon="-3.56038">
        <ele>11.8</ele>
        <time>2021-07-11T09:27:42Z</time>
      </trkpt>
      <trkpt lat="47.76716" lon="-3.56038">
        <ele>11.8</ele>
        <time>2021-07-11T09:27:43Z</time>
      </trkpt>
      <trkpt lat="47.76715" lon="-3.56038">
        <ele>11.8</ele>
        <time>2021-07-11T09:27:44Z</time>
      </trkpt>
      <trkpt lat="47.76714" lon="-3.56038">
        <ele>11.7</ele>
        <time>2021-07-11T09:27:45Z</time>
      </trkpt>
      <trkpt lat="47.76712" lon="-3.56038">
        <ele>11.7</ele>
        <time>2021-07-11T09:27:46Z</time>
      </trkpt>
      <trkpt lat="47.76711" lon="-3.56038">
        <ele>11.7</ele>
        <time>2021-07-11T09:27:47Z</time>
      </trkpt>
      <trkpt lat="47.76709" lon="-3.56038">
        <ele>11.7</ele>
        <time>2021-07-11T09:27:48Z</time>
      </trkpt>
      <trkpt lat="47.76708" lon="-3.56038">
        <ele>11.7</ele>
        <time>2021-07-11T09:27:49Z</time>
      </trkpt>
      <trkpt lat="47.76706" lon="-3.56037">
        <ele>11.7</ele>
        <time>2021-07-11T09:27:50Z</time>
      </trkpt>
      <trkpt lat="47.76705" lon="-3.56037">
        <ele>11.7</ele>
        <time>2021-07-11T09:27:51Z</time>
      </trkpt>
      <trkpt lat="47.76704" lon="-3.56036">
        <ele>11.7</ele>
        <time>2021-07-11T09:27:52Z</time>
      </trkpt>
      <trkpt lat="47.76703" lon="-3.56036">
        <ele>11.8</ele>
        <time>2021-07-11T09:27:53Z</time>
      </trkpt>
      <trkpt lat="47.76701" lon="-3.56035">
        <ele>11.8</ele>
        <time>2021-07-11T09:27:54Z</time>
      </trkpt>
      <trkpt lat="47.767" lon="-3.56035">
        <ele>11.8</ele>
        <time>2021-07-11T09:27:55Z</time>
      </trkpt>
      <trkpt lat="47.76699" lon="-3.56035">
        <ele>11.8</ele>
        <time>2021-07-11T09:27:56Z</time>
      </trkpt>
      <trkpt lat="47.76698" lon="-3.56034">
        <ele>11.8</ele>
        <time>2021-07-11T09:27:57Z</time>
      </trkpt>
      <trkpt lat="47.76696" lon="-3.56034">
        <ele>11.9</ele>
        <time>2021-07-11T09:27:58Z</time>
      </trkpt>
      <trkpt lat="47.76695" lon="-3.56034">
        <ele>11.9</ele>
        <time>2021-07-11T09:27:59Z</time>
      </trkpt>
      <trkpt lat="47.76694" lon="-3.56034">
        <ele>11.9</ele>
        <time>2021-07-11T09:28:00Z</time>
      </trkpt>
      <trkpt lat="47.76693" lon="-3.56034">
        <ele>11.9</ele>
        <time>2021-07-11T09:28:01Z</time>
      </trkpt>
      <trkpt lat="47.76692" lon="-3.56034">
        <ele>11.9</ele>
        <time>2021-07-11T09:28:02Z</time>
      </trkpt>
      <trkpt lat="47.76691" lon="-3.56033">
        <ele>12</ele>
        <time>2021-07-11T09:28:03Z</time>
      </trkpt>
      <trkpt lat="47.76689" lon="-3.56033">
        <ele>12</ele>
        <time>2021-07-11T09:28:04Z</time>
      </trkpt>
      <trkpt lat="47.76688" lon="-3.56033">
        <ele>12</ele>
        <time>2021-07-11T09:28:05Z</time>
      </trkpt>
      <trkpt lat="47.76687" lon="-3.56033">
        <ele>12.1</ele>
        <time>2021-07-11T09:28:06Z</time>
      </trkpt>
      <trkpt lat="47.76686" lon="-3.56032">
        <ele>12.1</ele>
        <time>2021-07-11T09:28:07Z</time>
      </trkpt>
      <trkpt lat="47.76685" lon="-3.56032">
        <ele>12.1</ele>
        <time>2021-07-11T09:28:08Z</time>
      </trkpt>
      <trkpt lat="47.76684" lon="-3.56031">
        <ele>12.1</ele>
        <time>2021-07-11T09:28:09Z</time>
      </trkpt>
      <trkpt lat="47.76682" lon="-3.5603">
        <ele>12.2</ele>
        <time>2021-07-11T09:28:10Z</time>
      </trkpt>
      <trkpt lat="47.76681" lon="-3.5603">
        <ele>12.2</ele>
        <time>2021-07-11T09:28:11Z</time>
      </trkpt>
      <trkpt lat="47.7668" lon="-3.56029">
        <ele>12.2</ele>
        <time>2021-07-11T09:28:12Z</time>
      </trkpt>
      <trkpt lat="47.76679" lon="-3.56029">
        <ele>12.2</ele>
        <time>2021-07-11T09:28:13Z</time>
      </trkpt>
      <trkpt lat="47.76678" lon="-3.56028">
        <ele>12.2</ele>
        <time>2021-07-11T09:28:14Z</time>
      </trkpt>
      <trkpt lat="47.76676" lon="-3.56028">
        <ele>12.3</ele>
        <time>2021-07-11T09:28:15Z</time>
      </trkpt>
      <trkpt lat="47.76675" lon="-3.56027">
        <ele>12.3</ele>
        <time>2021-07-11T09:28:16Z</time>
      </trkpt>
      <trkpt lat="47.76674" lon="-3.56027">
        <ele>12.3</ele>
        <time>2021-07-11T09:28:17Z</time>
      </trkpt>
      <trkpt lat="47.76673" lon="-3.56027">
        <ele>12.3</ele>
        <time>2021-07-11T09:28:18Z</time>
      </trkpt>
      <trkpt lat="47.76672" lon="-3.56027">
        <ele>12.3</ele>
        <time>2021-07-11T09:28:19Z</time>
      </trkpt>
      <trkpt lat="47.7667" lon="-3.56027">
        <ele>12.3</ele>
        <time>2021-07-11T09:28:20Z</time>
      </trkpt>
      <trkpt lat="47.76669" lon="-3.56027">
        <ele>12.3</ele>
        <time>2021-07-11T09:28:21Z</time>
      </trkpt>
      <trkpt lat="47.76668" lon="-3.56027">
        <ele>12.3</ele>
        <time>2021-07-11T09:28:22Z</time>
      </trkpt>
      <trkpt lat="47.76667" lon="-3.56028">
        <ele>12.3</ele>
        <time>2021-07-11T09:28:23Z</time>
      </trkpt>
      <trkpt lat="47.76666" lon="-3.56029">
        <ele>12.3</ele>
        <time>2021-07-11T09:28:24Z</time>
      </trkpt>
      <trkpt lat="47.76666" lon="-3.5603">
        <ele>12.2</ele>
        <time>2021-07-11T09:28:25Z</time>
      </trkpt>
      <trkpt lat="47.76665" lon="-3.56031">
        <ele>12.2</ele>
        <time>2021-07-11T09:28:26Z</time>
      </trkpt>
      <trkpt lat="47.76664" lon="-3.56033">
        <ele>12.2</ele>
        <time>2021-07-11T09:28:27Z</time>
      </trkpt>
      <trkpt lat="47.76663" lon="-3.56034">
        <ele>12.2</ele>
        <time>2021-07-11T09:28:28Z</time>
      </trkpt>
      <trkpt lat="47.76662" lon="-3.56036">
        <ele>12.1</ele>
        <time>2021-07-11T09:28:29Z</time>
      </trkpt>
      <trkpt lat="47.76662" lon="-3.56037">
        <ele>12.1</ele>
        <time>2021-07-11T09:28:30Z</time>
      </trkpt>
      <trkpt lat="47.76661" lon="-3.56039">
        <ele>12.1</ele>
        <time>2021-07-11T09:28:31Z</time>
      </trkpt>
      <trkpt lat="47.7666" lon="-3.5604">
        <ele>12</ele>
        <time>2021-07-11T09:28:32Z</time>
      </trkpt>
      <trkpt lat="47.76659" lon="-3.56041">
        <ele>12</ele>
        <time>2021-07-11T09:28:33Z</time>
      </trkpt>
      <trkpt lat="47.76658" lon="-3.56042">
        <ele>12</ele>
        <time>2021-07-11T09:28:34Z</time>
      </trkpt>
      <trkpt lat="47.76657" lon="-3.56043">
        <ele>12</ele>
        <time>2021-07-11T09:28:35Z</time>
      </trkpt>
      <trkpt lat="47.76656" lon="-3.56044">
        <ele>11.9</ele>
        <time>2021-07-11T09:28:36Z</time>
      </trkpt>
      <trkpt lat="47.76655" lon="-3.56045">
        <ele>11.9</ele>
        <time>2021-07-11T09:28:37Z</time>
      </trkpt>
      <trkpt lat="47.76653" lon="-3.56046">
        <ele>11.9</ele>
        <time>2021-07-11T09:28:38Z</time>
      </trkpt>
      <trkpt lat="47.76652" lon="-3.56046">
        <ele>11.8</ele>
        <time>2021-07-11T09:28:39Z</time>
      </trkpt>
      <trkpt lat="47.76651" lon="-3.56047">
        <ele>11.8</ele>
        <time>2021-07-11T09:28:40Z</time>
      </trkpt>
      <trkpt lat="47.76649" lon="-3.56047">
        <ele>11.8</ele>
        <time>2021-07-11T09:28:41Z</time>
      </trkpt>
      <trkpt lat="47.76648" lon="-3.56047">
        <ele>11.7</ele>
        <time>2021-07-11T09:28:42Z</time>
      </trkpt>
      <trkpt lat="47.76646" lon="-3.56047">
        <ele>11.7</ele>
        <time>2021-07-11T09:28:43Z</time>
      </trkpt>
      <trkpt lat="47.76645" lon="-3.56047">
        <ele>11.7</ele>
        <time>2021-07-11T09:28:44Z</time>
      </trkpt>
      <trkpt lat="47.76644" lon="-3.56047">
        <ele>11.7</ele>
        <time>2021-07-11T09:28:45Z</time>
      </trkpt>
      <trkpt lat="47.76643" lon="-3.56046">
        <ele>11.7</ele>
        <time>2021-07-11T09:28:46Z</time>
      </trkpt>
      <trkpt lat="47.76642" lon="-3.56045">
        <ele>11.7</ele>
        <time>2021-07-11T09:28:47Z</time>
      </trkpt>
      <trkpt lat="47.76641" lon="-3.56044">
        <ele>11.7</ele>
        <time>2021-07-11T09:28:48Z</time>
      </trkpt>
      <trkpt lat="47.7664" lon="-3.56043">
        <ele>11.7</ele>
        <time>2021-07-11T09:28:49Z</time>
      </trkpt>
      <trkpt lat="47.76639" lon="-3.56041">
        <ele>11.7</ele>
        <time>2021-07-11T09:28:50Z</time>
      </trkpt>
      <trkpt lat="47.76638" lon="-3.5604">
        <ele>11.7</ele>
        <time>2021-07-11T09:28:51Z</time>
      </trkpt>
      <trkpt lat="47.76637" lon="-3.56039">
        <ele>11.7</ele>
        <time>2021-07-11T09:28:52Z</time>
      </trkpt>
      <trkpt lat="47.76636" lon="-3.56038">
        <ele>11.8</ele>
        <time>2021-07-11T09:28:53Z</time>
      </trkpt>
      <trkpt lat="47.76635" lon="-3.56037">
        <ele>11.8</ele>
        <time>2021-07-11T09:28:54Z</time>
      </trkpt>
      <trkpt lat="47.76634" lon="-3.56036">
        <ele>11.8</ele>
        <time>2021-07-11T09:28:55Z</time>
      </trkpt>
      <trkpt lat="47.76633" lon="-3.56035">
        <ele>11.8</ele>
        <time>2021-07-11T09:28:56Z</time>
      </trkpt>
      <trkpt lat="47.76632" lon="-3.56034">
        <ele>11.8</ele>
        <time>2021-07-11T09:28:57Z</time>
      </trkpt>
      <trkpt lat="47.76631" lon="-3.56033">
        <ele>11.8</ele>
        <time>2021-07-11T09:28:58Z</time>
      </trkpt>
      <trkpt lat="47.7663" lon="-3.56032">
        <ele>11.8</ele>
        <time>2021-07-11T09:28:59Z</time>
      </trkpt>
      <trkpt lat="47.76629" lon="-3.56031">
        <ele>11.8</ele>
        <time>2021-07-11T09:29:00Z</time>
      </trkpt>
      <trkpt lat="47.76628" lon="-3.56029">
        <ele>11.8</ele>
        <time>2021-07-11T09:29:01Z</time>
      </trkpt>
      <trkpt lat="47.76627" lon="-3.56028">
        <ele>11.8</ele>
        <time>2021-07-11T09:29:02Z</time>
      </trkpt>
      <trkpt lat="47.76626" lon="-3.56027">
        <ele>11.8</ele>
        <time>2021-07-11T09:29:03Z</time>
      </trkpt>
      <trkpt lat="47.76625" lon="-3.56026">
        <ele>11.8</ele>
        <time>2021-07-11T09:29:04Z</time>
      </trkpt>
      <trkpt lat="47.76625" lon="-3.56025">
        <ele>11.8</ele>
        <time>2021-07-11T09:29:05Z</time>
      </trkpt>
      <trkpt lat="47.76624" lon="-3.56023">
        <ele>11.8</ele>
        <time>2021-07-11T09:29:06Z</time>
      </trkpt>
      <trkpt lat="47.76624" lon="-3.56021">
        <ele>11.8</ele>
        <time>2021-07-11T09:29:07Z</time>
      </trkpt>
      <trkpt lat="47.76624" lon="-3.56019">
        <ele>11.8</ele>
        <time>2021-07-11T09:29:08Z</time>
      </trkpt>
      <trkpt lat="47.76625" lon="-3.56017">
        <ele>11.8</ele>
        <time>2021-07-11T09:29:09Z</time>
      </trkpt>
      <trkpt lat="47.76625" lon="-3.56015">
        <ele>11.8</ele>
        <time>2021-07-11T09:29:10Z</time>
      </trkpt>
      <trkpt lat="47.76626" lon="-3.56014">
        <ele>11.8</ele>
        <time>2021-07-11T09:29:11Z</time>
      </trkpt>
      <trkpt lat="47.76626" lon="-3.56012">
        <ele>11.8</ele>
        <time>2021-07-11T09:29:12Z</time>
      </trkpt>
      <trkpt lat="47.76627" lon="-3.5601">
        <ele>11.8</ele>
        <time>2021-07-11T09:29:13Z</time>
      </trkpt>
      <trkpt lat="47.76628" lon="-3.56009">
        <ele>11.8</ele>
        <time>2021-07-11T09:29:14Z</time>
      </trkpt>
      <trkpt lat="47.76628" lon="-3.56007">
        <ele>11.8</ele>
        <time>2021-07-11T09:29:15Z</time>
      </trkpt>
      <trkpt lat="47.76629" lon="-3.56006">
        <ele>11.8</ele>
        <time>2021-07-11T09:29:16Z</time>
      </trkpt>
      <trkpt lat="47.76629" lon="-3.56004">
        <ele>11.8</ele>
        <time>2021-07-11T09:29:17Z</time>
      </trkpt>
      <trkpt lat="47.76629" lon="-3.56003">
        <ele>11.8</ele>
        <time>2021-07-11T09:29:18Z</time>
      </trkpt>
      <trkpt lat="47.7663" lon="-3.56001">
        <ele>11.8</ele>
        <time>2021-07-11T09:29:19Z</time>
      </trkpt>
      <trkpt lat="47.7663" lon="-3.55999">
        <ele>11.8</ele>
        <time>2021-07-11T09:29:20Z</time>
      </trkpt>
      <trkpt lat="47.7663" lon="-3.55998">
        <ele>11.8</ele>
        <time>2021-07-11T09:29:21Z</time>
      </trkpt>
      <trkpt lat="47.7663" lon="-3.55996">
        <ele>11.8</ele>
        <time>2021-07-11T09:29:22Z</time>
      </trkpt>
      <trkpt lat="47.7663" lon="-3.55994">
        <ele>11.9</ele>
        <time>2021-07-11T09:29:23Z</time>
      </trkpt>
      <trkpt lat="47.7663" lon="-3.55992">
        <ele>11.9</ele>
        <time>2021-07-11T09:29:24Z</time>
      </trkpt>
      <trkpt lat="47.7663" lon="-3.55989">
        <ele>11.9</ele>
        <time>2021-07-11T09:29:25Z</time>
      </trkpt>
      <trkpt lat="47.7663" lon="-3.55987">
        <ele>11.9</ele>
        <time>2021-07-11T09:29:26Z</time>
      </trkpt>
      <trkpt lat="47.7663" lon="-3.55985">
        <ele>11.9</ele>
        <time>2021-07-11T09:29:27Z</time>
      </trkpt>
      <trkpt lat="47.76629" lon="-3.55984">
        <ele>12</ele>
        <time>2021-07-11T09:29:28Z</time>
      </trkpt>
      <trkpt lat="47.76629" lon="-3.55982">
        <ele>12</ele>
        <time>2021-07-11T09:29:29Z</time>
      </trkpt>
      <trkpt lat="47.76628" lon="-3.5598">
        <ele>12</ele>
        <time>2021-07-11T09:29:30Z</time>
      </trkpt>
      <trkpt lat="47.76627" lon="-3.55979">
        <ele>12</ele>
        <time>2021-07-11T09:29:31Z</time>
      </trkpt>
      <trkpt lat="47.76626" lon="-3.55977">
        <ele>12.1</ele>
        <time>2021-07-11T09:29:32Z</time>
      </trkpt>
      <trkpt lat="47.76625" lon="-3.55976">
        <ele>12.1</ele>
        <time>2021-07-11T09:29:33Z</time>
      </trkpt>
      <trkpt lat="47.76624" lon="-3.55975">
        <ele>12.1</ele>
        <time>2021-07-11T09:29:34Z</time>
      </trkpt>
      <trkpt lat="47.76623" lon="-3.55975">
        <ele>12.1</ele>
        <time>2021-07-11T09:29:35Z</time>
      </trkpt>
      <trkpt lat="47.76622" lon="-3.55975">
        <ele>12.2</ele>
        <time>2021-07-11T09:29:36Z</time>
      </trkpt>
      <trkpt lat="47.76622" lon="-3.55975">
        <ele>12.2</ele>
        <time>2021-07-11T09:29:37Z</time>
      </trkpt>
      <trkpt lat="47.76621" lon="-3.55975">
        <ele>12.2</ele>
        <time>2021-07-11T09:29:38Z</time>
      </trkpt>
      <trkpt lat="47.76621" lon="-3.55975">
        <ele>12.2</ele>
        <time>2021-07-11T09:29:39Z</time>
      </trkpt>
      <trkpt lat="47.76621" lon="-3.55975">
        <ele>12.2</ele>
        <time>2021-07-11T09:29:40Z</time>
      </trkpt>
      <trkpt lat="47.7662" lon="-3.55975">
        <ele>12.2</ele>
        <time>2021-07-11T09:29:41Z</time>
      </trkpt>
      <trkpt lat="47.7662" lon="-3.55975">
        <ele>12.2</ele>
        <time>2021-07-11T09:29:42Z</time>
      </trkpt>
      <trkpt lat="47.76619" lon="-3.55975">
        <ele>12.2</ele>
        <time>2021-07-11T09:29:43Z</time>
      </trkpt>
      <trkpt lat="47.76619" lon="-3.55975">
        <ele>12.2</ele>
        <time>2021-07-11T09:29:44Z</time>
      </trkpt>
      <trkpt lat="47.76619" lon="-3.55975">
        <ele>12.3</ele>
        <time>2021-07-11T09:29:45Z</time>
      </trkpt>
      <trkpt lat="47.76618" lon="-3.55975">
        <ele>12.3</ele>
        <time>2021-07-11T09:29:46Z</time>
      </trkpt>
      <trkpt lat="47.76618" lon="-3.55975">
        <ele>12.3</ele>
        <time>2021-07-11T09:29:47Z</time>
      </trkpt>
      <trkpt lat="47.76617" lon="-3.55976">
        <ele>12.3</ele>
        <time>2021-07-11T09:29:48Z</time>
      </trkpt>
      <trkpt lat="47.76617" lon="-3.55976">
        <ele>12.3</ele>
        <time>2021-07-11T09:29:49Z</time>
      </trkpt>
      <trkpt lat="47.76617" lon="-3.55976">
        <ele>12.3</ele>
        <time>2021-07-11T09:29:50Z</time>
      </trkpt>
      <trkpt lat="47.76616" lon="-3.55976">
        <ele>12.3</ele>
        <time>2021-07-11T09:29:51Z</time>
      </trkpt>
      <trkpt lat="47.76616" lon="-3.55976">
        <ele>12.4</ele>
        <time>2021-07-11T09:29:52Z</time>
      </trkpt>
      <trkpt lat="47.76616" lon="-3.55976">
        <ele>12.4</ele>
        <time>2021-07-11T09:29:53Z</time>
      </trkpt>
      <trkpt lat="47.76615" lon="-3.55976">
        <ele>12.4</ele>
        <time>2021-07-11T09:29:54Z</time>
      </trkpt>
      <trkpt lat="47.76615" lon="-3.55976">
        <ele>12.4</ele>
        <time>2021-07-11T09:29:55Z</time>
      </trkpt>
      <trkpt lat="47.76614" lon="-3.55976">
        <ele>12.4</ele>
        <time>2021-07-11T09:29:56Z</time>
      </trkpt>
      <trkpt lat="47.76614" lon="-3.55976">
        <ele>12.4</ele>
        <time>2021-07-11T09:29:57Z</time>
      </trkpt>
      <trkpt lat="47.76614" lon="-3.55976">
        <ele>12.4</ele>
        <time>2021-07-11T09:29:58Z</time>
      </trkpt>
      <trkpt lat="47.76613" lon="-3.55976">
        <ele>12.5</ele>
        <time>2021-07-11T09:29:59Z</time>
      </trkpt>
      <trkpt lat="47.76613" lon="-3.55976">
        <ele>12.5</ele>
        <time>2021-07-11T09:30:00Z</time>
      </trkpt>
      <trkpt lat="47.76612" lon="-3.55977">
        <ele>12.5</ele>
        <time>2021-07-11T09:30:01Z</time>
      </trkpt>
      <trkpt lat="47.76612" lon="-3.55977">
        <ele>12.5</ele>
        <time>2021-07-11T09:30:02Z</time>
      </trkpt>
      <trkpt lat="47.76612" lon="-3.55977">
        <ele>12.5</ele>
        <time>2021-07-11T09:30:03Z</time>
      </trkpt>
      <trkpt lat="47.76611" lon="-3.55977">
        <ele>12.5</ele>
        <time>2021-07-11T09:30:04Z</time>
      </trkpt>
      <trkpt lat="47.76611" lon="-3.55977">
        <ele>12.5</ele>
        <time>2021-07-11T09:30:05Z</time>
      </trkpt>
      <trkpt lat="47.7661" lon="-3.55977">
        <ele>12.6</ele>
        <time>2021-07-11T09:30:06Z</time>
      </trkpt>
      <trkpt lat="47.7661" lon="-3.55977">
        <ele>12.6</ele>
        <time>2021-07-11T09:30:07Z</time>
      </trkpt>
      <trkpt lat="47.7661" lon="-3.55977">
        <ele>12.6</ele>
        <time>2021-07-11T09:30:08Z</time>
      </trkpt>
      <trkpt lat="47.76609" lon="-3.55977">
        <ele>12.6</ele>
        <time>2021-07-11T09:30:09Z</time>
      </trkpt>
      <trkpt lat="47.76609" lon="-3.55977">
        <ele>12.6</ele>
        <time>2021-07-11T09:30:10Z</time>
      </trkpt>
      <trkpt lat="47.76608" lon="-3.55977">
        <ele>12.7</ele>
        <time>2021-07-11T09:30:11Z</time>
      </trkpt>
      <trkpt lat="47.76608" lon="-3.55977">
        <ele>12.7</ele>
        <time>2021-07-11T09:30:12Z</time>
      </trkpt>
      <trkpt lat="47.76608" lon="-3.55977">
        <ele>12.7</ele>
        <time>2021-07-11T09:30:13Z</time>
      </trkpt>
      <trkpt lat="47.76607" lon="-3.55978">
        <ele>12.7</ele>
        <time>2021-07-11T09:30:14Z</time>
      </trkpt>
      <trkpt lat="47.76607" lon="-3.55978">
        <ele>12.7</ele>
        <time>2021-07-11T09:30:15Z</time>
      </trkpt>
      <trkpt lat="47.76607" lon="-3.55978">
        <ele>12.7</ele>
        <time>2021-07-11T09:30:16Z</time>
      </trkpt>
      <trkpt lat="47.76606" lon="-3.55978">
        <ele>12.7</ele>
        <time>2021-07-11T09:30:17Z</time>
      </trkpt>
      <trkpt lat="47.76606" lon="-3.55978">
        <ele>12.8</ele>
        <time>2021-07-11T09:30:18Z</time>
      </trkpt>
      <trkpt lat="47.76605" lon="-3.55978">
        <ele>12.8</ele>
        <time>2021-07-11T09:30:19Z</time>
      </trkpt>
      <trkpt lat="47.76605" lon="-3.55978">
        <ele>12.8</ele>
        <time>2021-07-11T09:30:20Z</time>
      </trkpt>
      <trkpt lat="47.76605" lon="-3.55978">
        <ele>12.8</ele>
        <time>2021-07-11T09:30:21Z</time>
      </trkpt>
      <trkpt lat="47.76604" lon="-3.55978">
        <ele>12.8</ele>
        <time>2021-07-11T09:30:22Z</time>
      </trkpt>
      <trkpt lat="47.76604" lon="-3.55978">
        <ele>12.9</ele>
        <time>2021-07-11T09:30:23Z</time>
      </trkpt>
      <trkpt lat="47.76603" lon="-3.55978">
        <ele>12.9</ele>
        <time>2021-07-11T09:30:24Z</time>
      </trkpt>
      <trkpt lat="47.76603" lon="-3.55978">
        <ele>12.9</ele>
        <time>2021-07-11T09:30:25Z</time>
      </trkpt>
      <trkpt lat="47.76603" lon="-3.55978">
        <ele>12.9</ele>
        <time>2021-07-11T09:30:26Z</time>
      </trkpt>
      <trkpt lat="47.76602" lon="-3.55979">
        <ele>12.9</ele>
        <time>2021-07-11T09:30:27Z</time>
      </trkpt>
      <trkpt lat="47.76602" lon="-3.55979">
        <ele>12.9</ele>
        <time>2021-07-11T09:30:28Z</time>
      </trkpt>
      <trkpt lat="47.76601" lon="-3.55979">
        <ele>13</ele>
        <time>2021-07-11T09:30:29Z</time>
      </trkpt>
      <trkpt lat="47.76601" lon="-3.55979">
        <ele>13</ele>
        <time>2021-07-11T09:30:30Z</time>
      </trkpt>
      <trkpt lat="47.76601" lon="-3.55979">
        <ele>13</ele>
        <time>2021-07-11T09:30:31Z</time>
      </trkpt>
      <trkpt lat="47.766" lon="-3.55979">
        <ele>13</ele>
        <time>2021-07-11T09:30:32Z</time>
      </trkpt>
      <trkpt lat="47.766" lon="-3.55979">
        <ele>13</ele>
        <time>2021-07-11T09:30:33Z</time>
      </trkpt>
      <trkpt lat="47.766" lon="-3.55979">
        <ele>13</ele>
        <time>2021-07-11T09:30:34Z</time>
      </trkpt>
      <trkpt lat="47.76599" lon="-3.55979">
        <ele>13.1</ele>
        <time>2021-07-11T09:30:35Z</time>
      </trkpt>
      <trkpt lat="47.76599" lon="-3.55979">
        <ele>13.1</ele>
        <time>2021-07-11T09:30:36Z</time>
      </trkpt>
      <trkpt lat="47.76598" lon="-3.55979">
        <ele>13.1</ele>
        <time>2021-07-11T09:30:37Z</time>
      </trkpt>
      <trkpt lat="47.76598" lon="-3.55979">
        <ele>13.1</ele>
        <time>2021-07-11T09:30:38Z</time>
      </trkpt>
      <trkpt lat="47.76598" lon="-3.55979">
        <ele>13.1</ele>
        <time>2021-07-11T09:30:39Z</time>
      </trkpt>
      <trkpt lat="47.76597" lon="-3.5598">
        <ele>13.1</ele>
        <time>2021-07-11T09:30:40Z</time>
      </trkpt>
      <trkpt lat="47.76597" lon="-3.5598">
        <ele>13.2</ele>
        <time>2021-07-11T09:30:41Z</time>
      </trkpt>
      <trkpt lat="47.76596" lon="-3.5598">
        <ele>13.2</ele>
        <time>2021-07-11T09:30:42Z</time>
      </trkpt>
      <trkpt lat="47.76596" lon="-3.5598">
        <ele>13.2</ele>
        <time>2021-07-11T09:30:43Z</time>
      </trkpt>
      <trkpt lat="47.76596" lon="-3.5598">
        <ele>13.2</ele>
        <time>2021-07-11T09:30:44Z</time>
      </trkpt>
      <trkpt lat="47.76595" lon="-3.5598">
        <ele>13.2</ele>
        <time>2021-07-11T09:30:45Z</time>
      </trkpt>
      <trkpt lat="47.76595" lon="-3.5598">
        <ele>13.2</ele>
        <time>2021-07-11T09:30:46Z</time>
      </trkpt>
      <trkpt lat="47.76594" lon="-3.5598">
        <ele>13.3</ele>
        <time>2021-07-11T09:30:47Z</time>
      </trkpt>
      <trkpt lat="47.76594" lon="-3.5598">
        <ele>13.3</ele>
        <time>2021-07-11T09:30:48Z</time>
      </trkpt>
      <trkpt lat="47.76594" lon="-3.5598">
        <ele>13.3</ele>
        <time>2021-07-11T09:30:49Z</time>
      </trkpt>
      <trkpt lat="47.76593" lon="-3.55984">
        <ele>13.4</ele>
        <time>2021-07-11T09:30:50Z</time>
      </trkpt>
      <trkpt lat="47.76592" lon="-3.55986">
        <ele>13.4</ele>
        <time>2021-07-11T09:30:51Z</time>
      </trkpt>
      <trkpt lat="47.76591" lon="-3.55987">
        <ele>13.5</ele>
        <time>2021-07-11T09:30:52Z</time>
      </trkpt>
      <trkpt lat="47.76591" lon="-3.55989">
        <ele>13.5</ele>
        <time>2021-07-11T09:30:53Z</time>
      </trkpt>
      <trkpt lat="47.7659" lon="-3.55991">
        <ele>13.6</ele>
        <time>2021-07-11T09:30:54Z</time>
      </trkpt>
      <trkpt lat="47.76589" lon="-3.55992">
        <ele>13.6</ele>
        <time>2021-07-11T09:30:55Z</time>
      </trkpt>
      <trkpt lat="47.76589" lon="-3.55994">
        <ele>13.6</ele>
        <time>2021-07-11T09:30:56Z</time>
      </trkpt>
      <trkpt lat="47.76588" lon="-3.55995">
        <ele>13.7</ele>
        <time>2021-07-11T09:30:57Z</time>
      </trkpt>
      <trkpt lat="47.76587" lon="-3.55996">
        <ele>13.7</ele>
        <time>2021-07-11T09:30:58Z</time>
      </trkpt>
      <trkpt lat="47.76586" lon="-3.55998">
        <ele>13.7</ele>
        <time>2021-07-11T09:30:59Z</time>
      </trkpt>
      <trkpt lat="47.76585" lon="-3.56">
        <ele>13.7</ele>
        <time>2021-07-11T09:31:00Z</time>
      </trkpt>
      <trkpt lat="47.76585" lon="-3.56001">
        <ele>13.8</ele>
        <time>2021-07-11T09:31:01Z</time>
      </trkpt>
      <trkpt lat="47.76584" lon="-3.56003">
        <ele>13.8</ele>
        <time>2021-07-11T09:31:02Z</time>
      </trkpt>
      <trkpt lat="47.76583" lon="-3.56004">
        <ele>13.8</ele>
        <time>2021-07-11T09:31:03Z</time>
      </trkpt>
      <trkpt lat="47.76582" lon="-3.56005">
        <ele>13.8</ele>
        <time>2021-07-11T09:31:04Z</time>
      </trkpt>
      <trkpt lat="47.76581" lon="-3.56006">
        <ele>13.8</ele>
        <time>2021-07-11T09:31:05Z</time>
      </trkpt>
      <trkpt lat="47.7658" lon="-3.56006">
        <ele>13.8</ele>
        <time>2021-07-11T09:31:06Z</time>
      </trkpt>
      <trkpt lat="47.76579" lon="-3.56006">
        <ele>13.7</ele>
        <time>2021-07-11T09:31:07Z</time>
      </trkpt>
      <trkpt lat="47.76579" lon="-3.56006">
        <ele>13.7</ele>
        <time>2021-07-11T09:31:08Z</time>
      </trkpt>
      <trkpt lat="47.76579" lon="-3.56006">
        <ele>13.7</ele>
        <time>2021-07-11T09:31:09Z</time>
      </trkpt>
      <trkpt lat="47.76579" lon="-3.56006">
        <ele>13.7</ele>
        <time>2021-07-11T09:31:10Z</time>
      </trkpt>
      <trkpt lat="47.76578" lon="-3.56005">
        <ele>13.7</ele>
        <time>2021-07-11T09:31:11Z</time>
      </trkpt>
      <trkpt lat="47.76577" lon="-3.56004">
        <ele>13.7</ele>
        <time>2021-07-11T09:31:12Z</time>
      </trkpt>
      <trkpt lat="47.76576" lon="-3.56003">
        <ele>13.7</ele>
        <time>2021-07-11T09:31:13Z</time>
      </trkpt>
      <trkpt lat="47.76576" lon="-3.56001">
        <ele>13.6</ele>
        <time>2021-07-11T09:31:14Z</time>
      </trkpt>
      <trkpt lat="47.76575" lon="-3.55999">
        <ele>13.6</ele>
        <time>2021-07-11T09:31:15Z</time>
      </trkpt>
      <trkpt lat="47.76575" lon="-3.55997">
        <ele>13.5</ele>
        <time>2021-07-11T09:31:16Z</time>
      </trkpt>
      <trkpt lat="47.76575" lon="-3.55995">
        <ele>13.5</ele>
        <time>2021-07-11T09:31:17Z</time>
      </trkpt>
      <trkpt lat="47.76575" lon="-3.55994">
        <ele>13.4</ele>
        <time>2021-07-11T09:31:18Z</time>
      </trkpt>
      <trkpt lat="47.76574" lon="-3.55992">
        <ele>13.3</ele>
        <time>2021-07-11T09:31:19Z</time>
      </trkpt>
      <trkpt lat="47.76574" lon="-3.55991">
        <ele>13.3</ele>
        <time>2021-07-11T09:31:20Z</time>
      </trkpt>
      <trkpt lat="47.76574" lon="-3.5599">
        <ele>13.2</ele>
        <time>2021-07-11T09:31:21Z</time>
      </trkpt>
      <trkpt lat="47.76574" lon="-3.55989">
        <ele>13.2</ele>
        <time>2021-07-11T09:31:22Z</time>
      </trkpt>
      <trkpt lat="47.76573" lon="-3.55989">
        <ele>13.2</ele>
        <time>2021-07-11T09:31:23Z</time>
      </trkpt>
      <trkpt lat="47.76573" lon="-3.55988">
        <ele>13.1</ele>
        <time>2021-07-11T09:31:24Z</time>
      </trkpt>
      <trkpt lat="47.76572" lon="-3.55987">
        <ele>13.1</ele>
        <time>2021-07-11T09:31:25Z</time>
      </trkpt>
      <trkpt lat="47.76572" lon="-3.55986">
        <ele>13</ele>
        <time>2021-07-11T09:31:26Z</time>
      </trkpt>
      <trkpt lat="47.76571" lon="-3.55984">
        <ele>12.9</ele>
        <time>2021-07-11T09:31:27Z</time>
      </trkpt>
      <trkpt lat="47.7657" lon="-3.55983">
        <ele>12.8</ele>
        <time>2021-07-11T09:31:28Z</time>
      </trkpt>
      <trkpt lat="47.7657" lon="-3.55981">
        <ele>12.7</ele>
        <time>2021-07-11T09:31:29Z</time>
      </trkpt>
      <trkpt lat="47.76569" lon="-3.55979">
        <ele>12.5</ele>
        <time>2021-07-11T09:31:30Z</time>
      </trkpt>
      <trkpt lat="47.76569" lon="-3.55978">
        <ele>12.4</ele>
        <time>2021-07-11T09:31:31Z</time>
      </trkpt>
      <trkpt lat="47.76568" lon="-3.55976">
        <ele>12.3</ele>
        <time>2021-07-11T09:31:32Z</time>
      </trkpt>
      <trkpt lat="47.76568" lon="-3.55974">
        <ele>12.2</ele>
        <time>2021-07-11T09:31:33Z</time>
      </trkpt>
      <trkpt lat="47.76568" lon="-3.55972">
        <ele>12.1</ele>
        <time>2021-07-11T09:31:34Z</time>
      </trkpt>
      <trkpt lat="47.76569" lon="-3.5597">
        <ele>12.1</ele>
        <time>2021-07-11T09:31:35Z</time>
      </trkpt>
      <trkpt lat="47.76569" lon="-3.55969">
        <ele>12</ele>
        <time>2021-07-11T09:31:36Z</time>
      </trkpt>
      <trkpt lat="47.7657" lon="-3.55967">
        <ele>11.9</ele>
        <time>2021-07-11T09:31:37Z</time>
      </trkpt>
      <trkpt lat="47.7657" lon="-3.55965">
        <ele>11.8</ele>
        <time>2021-07-11T09:31:38Z</time>
      </trkpt>
      <trkpt lat="47.76571" lon="-3.55963">
        <ele>11.7</ele>
        <time>2021-07-11T09:31:39Z</time>
      </trkpt>
      <trkpt lat="47.76572" lon="-3.55961">
        <ele>11.5</ele>
        <time>2021-07-11T09:31:40Z</time>
      </trkpt>
      <trkpt lat="47.76573" lon="-3.5596">
        <ele>11.4</ele>
        <time>2021-07-11T09:31:41Z</time>
      </trkpt>
      <trkpt lat="47.76574" lon="-3.55959">
        <ele>11.4</ele>
        <time>2021-07-11T09:31:42Z</time>
      </trkpt>
      <trkpt lat="47.76574" lon="-3.55959">
        <ele>11.3</ele>
        <time>2021-07-11T09:31:43Z</time>
      </trkpt>
      <trkpt lat="47.76575" lon="-3.55958">
        <ele>11.3</ele>
        <time>2021-07-11T09:31:44Z</time>
      </trkpt>
      <trkpt lat="47.76576" lon="-3.55957">
        <ele>11.3</ele>
        <time>2021-07-11T09:31:45Z</time>
      </trkpt>
      <trkpt lat="47.76577" lon="-3.55957">
        <ele>11.2</ele>
        <time>2021-07-11T09:31:46Z</time>
      </trkpt>
      <trkpt lat="47.76578" lon="-3.55956">
        <ele>11.2</ele>
        <time>2021-07-11T09:31:47Z</time>
      </trkpt>
      <trkpt lat="47.76578" lon="-3.55955">
        <ele>11.1</ele>
        <time>2021-07-11T09:31:48Z</time>
      </trkpt>
      <trkpt lat="47.76579" lon="-3.55955">
        <ele>11.1</ele>
        <time>2021-07-11T09:31:49Z</time>
      </trkpt>
      <trkpt lat="47.7658" lon="-3.55954">
        <ele>11.1</ele>
        <time>2021-07-11T09:31:50Z</time>
      </trkpt>
      <trkpt lat="47.76581" lon="-3.55953">
        <ele>11</ele>
        <time>2021-07-11T09:31:51Z</time>
      </trkpt>
      <trkpt lat="47.76582" lon="-3.55953">
        <ele>11</ele>
        <time>2021-07-11T09:31:52Z</time>
      </trkpt>
      <trkpt lat="47.76582" lon="-3.55952">
        <ele>11</ele>
        <time>2021-07-11T09:31:53Z</time>
      </trkpt>
      <trkpt lat="47.76583" lon="-3.55952">
        <ele>10.9</ele>
        <time>2021-07-11T09:31:54Z</time>
      </trkpt>
      <trkpt lat="47.76584" lon="-3.55951">
        <ele>10.9</ele>
        <time>2021-07-11T09:31:55Z</time>
      </trkpt>
      <trkpt lat="47.76585" lon="-3.5595">
        <ele>10.9</ele>
        <time>2021-07-11T09:31:56Z</time>
      </trkpt>
      <trkpt lat="47.76585" lon="-3.5595">
        <ele>10.9</ele>
        <time>2021-07-11T09:31:57Z</time>
      </trkpt>
      <trkpt lat="47.76586" lon="-3.55949">
        <ele>10.8</ele>
        <time>2021-07-11T09:31:58Z</time>
      </trkpt>
      <trkpt lat="47.76587" lon="-3.55948">
        <ele>10.8</ele>
        <time>2021-07-11T09:31:59Z</time>
      </trkpt>
      <trkpt lat="47.76588" lon="-3.55948">
        <ele>10.8</ele>
        <time>2021-07-11T09:32:00Z</time>
      </trkpt>
      <trkpt lat="47.76589" lon="-3.55947">
        <ele>10.8</ele>
        <time>2021-07-11T09:32:01Z</time>
      </trkpt>
      <trkpt lat="47.76589" lon="-3.55946">
        <ele>10.8</ele>
        <time>2021-07-11T09:32:02Z</time>
      </trkpt>
      <trkpt lat="47.7659" lon="-3.55946">
        <ele>10.7</ele>
        <time>2021-07-11T09:32:03Z</time>
      </trkpt>
      <trkpt lat="47.76591" lon="-3.55945">
        <ele>10.7</ele>
        <time>2021-07-11T09:32:04Z</time>
      </trkpt>
      <trkpt lat="47.76592" lon="-3.55944">
        <ele>10.7</ele>
        <time>2021-07-11T09:32:05Z</time>
      </trkpt>
      <trkpt lat="47.76593" lon="-3.55944">
        <ele>10.7</ele>
        <time>2021-07-11T09:32:06Z</time>
      </trkpt>
      <trkpt lat="47.76593" lon="-3.55943">
        <ele>10.7</ele>
        <time>2021-07-11T09:32:07Z</time>
      </trkpt>
      <trkpt lat="47.76594" lon="-3.55942">
        <ele>10.6</ele>
        <time>2021-07-11T09:32:08Z</time>
      </trkpt>
      <trkpt lat="47.76595" lon="-3.55942">
        <ele>10.6</ele>
        <time>2021-07-11T09:32:09Z</time>
      </trkpt>
      <trkpt lat="47.76596" lon="-3.55941">
        <ele>10.6</ele>
        <time>2021-07-11T09:32:10Z</time>
      </trkpt>
      <trkpt lat="47.76596" lon="-3.5594">
        <ele>10.6</ele>
        <time>2021-07-11T09:32:11Z</time>
      </trkpt>
      <trkpt lat="47.76597" lon="-3.5594">
        <ele>10.6</ele>
        <time>2021-07-11T09:32:12Z</time>
      </trkpt>
      <trkpt lat="47.76598" lon="-3.55939">
        <ele>10.6</ele>
        <time>2021-07-11T09:32:13Z</time>
      </trkpt>
      <trkpt lat="47.76599" lon="-3.55939">
        <ele>10.5</ele>
        <time>2021-07-11T09:32:14Z</time>
      </trkpt>
      <trkpt lat="47.766" lon="-3.55938">
        <ele>10.5</ele>
        <time>2021-07-11T09:32:15Z</time>
      </trkpt>
      <trkpt lat="47.766" lon="-3.55937">
        <ele>10.5</ele>
        <time>2021-07-11T09:32:16Z</time>
      </trkpt>
      <trkpt lat="47.76601" lon="-3.55937">
        <ele>10.5</ele>
        <time>2021-07-11T09:32:17Z</time>
      </trkpt>
      <trkpt lat="47.76602" lon="-3.55936">
        <ele>10.5</ele>
        <time>2021-07-11T09:32:18Z</time>
      </trkpt>
      <trkpt lat="47.76603" lon="-3.55935">
        <ele>10.4</ele>
        <time>2021-07-11T09:32:19Z</time>
      </trkpt>
      <trkpt lat="47.76604" lon="-3.55935">
        <ele>10.4</ele>
        <time>2021-07-11T09:32:20Z</time>
      </trkpt>
      <trkpt lat="47.76604" lon="-3.55934">
        <ele>10.4</ele>
        <time>2021-07-11T09:32:21Z</time>
      </trkpt>
      <trkpt lat="47.76605" lon="-3.55933">
        <ele>10.4</ele>
        <time>2021-07-11T09:32:22Z</time>
      </trkpt>
      <trkpt lat="47.76606" lon="-3.55933">
        <ele>10.3</ele>
        <time>2021-07-11T09:32:23Z</time>
      </trkpt>
      <trkpt lat="47.76607" lon="-3.55932">
        <ele>10.3</ele>
        <time>2021-07-11T09:32:24Z</time>
      </trkpt>
      <trkpt lat="47.76609" lon="-3.55932">
        <ele>10.3</ele>
        <time>2021-07-11T09:32:25Z</time>
      </trkpt>
      <trkpt lat="47.7661" lon="-3.55932">
        <ele>10.2</ele>
        <time>2021-07-11T09:32:26Z</time>
      </trkpt>
      <trkpt lat="47.76611" lon="-3.55932">
        <ele>10.2</ele>
        <time>2021-07-11T09:32:27Z</time>
      </trkpt>
      <trkpt lat="47.76612" lon="-3.55932">
        <ele>10.2</ele>
        <time>2021-07-11T09:32:28Z</time>
      </trkpt>
      <trkpt lat="47.76613" lon="-3.55932">
        <ele>10.2</ele>
        <time>2021-07-11T09:32:29Z</time>
      </trkpt>
      <trkpt lat="47.76615" lon="-3.55931">
        <ele>10.1</ele>
        <time>2021-07-11T09:32:30Z</time>
      </trkpt>
      <trkpt lat="47.76615" lon="-3.55931">
        <ele>10.1</ele>
        <time>2021-07-11T09:32:31Z</time>
      </trkpt>
      <trkpt lat="47.76616" lon="-3.5593">
        <ele>10.1</ele>
        <time>2021-07-11T09:32:32Z</time>
      </trkpt>
      <trkpt lat="47.76617" lon="-3.55929">
        <ele>10</ele>
        <time>2021-07-11T09:32:33Z</time>
      </trkpt>
      <trkpt lat="47.76617" lon="-3.55928">
        <ele>10</ele>
        <time>2021-07-11T09:32:34Z</time>
      </trkpt>
      <trkpt lat="47.76618" lon="-3.55927">
        <ele>10</ele>
        <time>2021-07-11T09:32:35Z</time>
      </trkpt>
      <trkpt lat="47.76619" lon="-3.55926">
        <ele>10</ele>
        <time>2021-07-11T09:32:36Z</time>
      </trkpt>
      <trkpt lat="47.76619" lon="-3.55925">
        <ele>9.9</ele>
        <time>2021-07-11T09:32:37Z</time>
      </trkpt>
      <trkpt lat="47.7662" lon="-3.55925">
        <ele>9.9</ele>
        <time>2021-07-11T09:32:38Z</time>
      </trkpt>
      <trkpt lat="47.76621" lon="-3.55924">
        <ele>9.9</ele>
        <time>2021-07-11T09:32:39Z</time>
      </trkpt>
      <trkpt lat="47.76622" lon="-3.55923">
        <ele>9.8</ele>
        <time>2021-07-11T09:32:40Z</time>
      </trkpt>
      <trkpt lat="47.76622" lon="-3.55922">
        <ele>9.8</ele>
        <time>2021-07-11T09:32:41Z</time>
      </trkpt>
      <trkpt lat="47.76623" lon="-3.55921">
        <ele>9.8</ele>
        <time>2021-07-11T09:32:42Z</time>
      </trkpt>
      <trkpt lat="47.76624" lon="-3.5592">
        <ele>9.7</ele>
        <time>2021-07-11T09:32:43Z</time>
      </trkpt>
      <trkpt lat="47.76624" lon="-3.55919">
        <ele>9.7</ele>
        <time>2021-07-11T09:32:44Z</time>
      </trkpt>
      <trkpt lat="47.76625" lon="-3.55918">
        <ele>9.6</ele>
        <time>2021-07-11T09:32:45Z</time>
      </trkpt>
      <trkpt lat="47.76626" lon="-3.55918">
        <ele>9.6</ele>
        <time>2021-07-11T09:32:46Z</time>
      </trkpt>
      <trkpt lat="47.76626" lon="-3.55917">
        <ele>9.5</ele>
        <time>2021-07-11T09:32:47Z</time>
      </trkpt>
      <trkpt lat="47.76627" lon="-3.55916">
        <ele>9.5</ele>
        <time>2021-07-11T09:32:48Z</time>
      </trkpt>
      <trkpt lat="47.76628" lon="-3.55915">
        <ele>9.4</ele>
        <time>2021-07-11T09:32:49Z</time>
      </trkpt>
      <trkpt lat="47.76629" lon="-3.55914">
        <ele>9.4</ele>
        <time>2021-07-11T09:32:50Z</time>
      </trkpt>
      <trkpt lat="47.76629" lon="-3.55912">
        <ele>9.3</ele>
        <time>2021-07-11T09:32:51Z</time>
      </trkpt>
      <trkpt lat="47.76629" lon="-3.5591">
        <ele>9.2</ele>
        <time>2021-07-11T09:32:52Z</time>
      </trkpt>
      <trkpt lat="47.7663" lon="-3.55908">
        <ele>9.2</ele>
        <time>2021-07-11T09:32:53Z</time>
      </trkpt>
      <trkpt lat="47.7663" lon="-3.55907">
        <ele>9.1</ele>
        <time>2021-07-11T09:32:54Z</time>
      </trkpt>
      <trkpt lat="47.7663" lon="-3.55905">
        <ele>9.1</ele>
        <time>2021-07-11T09:32:55Z</time>
      </trkpt>
      <trkpt lat="47.76631" lon="-3.55903">
        <ele>9</ele>
        <time>2021-07-11T09:32:56Z</time>
      </trkpt>
      <trkpt lat="47.76631" lon="-3.55901">
        <ele>8.9</ele>
        <time>2021-07-11T09:32:57Z</time>
      </trkpt>
      <trkpt lat="47.76631" lon="-3.559">
        <ele>8.9</ele>
        <time>2021-07-11T09:32:58Z</time>
      </trkpt>
      <trkpt lat="47.76632" lon="-3.55898">
        <ele>8.8</ele>
        <time>2021-07-11T09:32:59Z</time>
      </trkpt>
      <trkpt lat="47.76632" lon="-3.55896">
        <ele>8.8</ele>
        <time>2021-07-11T09:33:00Z</time>
      </trkpt>
      <trkpt lat="47.76632" lon="-3.55894">
        <ele>8.7</ele>
        <time>2021-07-11T09:33:01Z</time>
      </trkpt>
      <trkpt lat="47.76633" lon="-3.55893">
        <ele>8.7</ele>
        <time>2021-07-11T09:33:02Z</time>
      </trkpt>
      <trkpt lat="47.76633" lon="-3.55891">
        <ele>8.6</ele>
        <time>2021-07-11T09:33:03Z</time>
      </trkpt>
      <trkpt lat="47.76633" lon="-3.55889">
        <ele>8.6</ele>
        <time>2021-07-11T09:33:04Z</time>
      </trkpt>
      <trkpt lat="47.76634" lon="-3.55887">
        <ele>8.6</ele>
        <time>2021-07-11T09:33:05Z</time>
      </trkpt>
      <trkpt lat="47.76634" lon="-3.55887">
        <ele>8.6</ele>
        <time>2021-07-11T09:33:06Z</time>
      </trkpt>
      <trkpt lat="47.76635" lon="-3.55887">
        <ele>8.6</ele>
        <time>2021-07-11T09:33:07Z</time>
      </trkpt>
      <trkpt lat="47.76636" lon="-3.55886">
        <ele>8.5</ele>
        <time>2021-07-11T09:33:08Z</time>
      </trkpt>
      <trkpt lat="47.76637" lon="-3.55886">
        <ele>8.5</ele>
        <time>2021-07-11T09:33:09Z</time>
      </trkpt>
      <trkpt lat="47.76638" lon="-3.55885">
        <ele>8.5</ele>
        <time>2021-07-11T09:33:10Z</time>
      </trkpt>
      <trkpt lat="47.7664" lon="-3.55884">
        <ele>8.5</ele>
        <time>2021-07-11T09:33:11Z</time>
      </trkpt>
      <trkpt lat="47.76641" lon="-3.55883">
        <ele>8.5</ele>
        <time>2021-07-11T09:33:12Z</time>
      </trkpt>
      <trkpt lat="47.76642" lon="-3.55882">
        <ele>8.5</ele>
        <time>2021-07-11T09:33:13Z</time>
      </trkpt>
      <trkpt lat="47.76643" lon="-3.55881">
        <ele>8.5</ele>
        <time>2021-07-11T09:33:14Z</time>
      </trkpt>
      <trkpt lat="47.76644" lon="-3.5588">
        <ele>8.5</ele>
        <time>2021-07-11T09:33:15Z</time>
      </trkpt>
      <trkpt lat="47.76644" lon="-3.55879">
        <ele>8.5</ele>
        <time>2021-07-11T09:33:16Z</time>
      </trkpt>
      <trkpt lat="47.76645" lon="-3.55877">
        <ele>8.5</ele>
        <time>2021-07-11T09:33:17Z</time>
      </trkpt>
      <trkpt lat="47.76645" lon="-3.55875">
        <ele>8.5</ele>
        <time>2021-07-11T09:33:18Z</time>
      </trkpt>
      <trkpt lat="47.76645" lon="-3.55874">
        <ele>8.5</ele>
        <time>2021-07-11T09:33:19Z</time>
      </trkpt>
      <trkpt lat="47.76645" lon="-3.55872">
        <ele>8.6</ele>
        <time>2021-07-11T09:33:20Z</time>
      </trkpt>
      <trkpt lat="47.76646" lon="-3.5587">
        <ele>8.6</ele>
        <time>2021-07-11T09:33:21Z</time>
      </trkpt>
      <trkpt lat="47.76646" lon="-3.55868">
        <ele>8.6</ele>
        <time>2021-07-11T09:33:22Z</time>
      </trkpt>
      <trkpt lat="47.76646" lon="-3.55866">
        <ele>8.6</ele>
        <time>2021-07-11T09:33:23Z</time>
      </trkpt>
      <trkpt lat="47.76646" lon="-3.55865">
        <ele>8.6</ele>
        <time>2021-07-11T09:33:24Z</time>
      </trkpt>
      <trkpt lat="47.76646" lon="-3.55863">
        <ele>8.7</ele>
        <time>2021-07-11T09:33:25Z</time>
      </trkpt>
      <trkpt lat="47.76646" lon="-3.55862">
        <ele>8.7</ele>
        <time>2021-07-11T09:33:26Z</time>
      </trkpt>
      <trkpt lat="47.76647" lon="-3.5586">
        <ele>8.7</ele>
        <time>2021-07-11T09:33:27Z</time>
      </trkpt>
      <trkpt lat="47.76647" lon="-3.55859">
        <ele>8.7</ele>
        <time>2021-07-11T09:33:28Z</time>
      </trkpt>
      <trkpt lat="47.76647" lon="-3.55857">
        <ele>8.7</ele>
        <time>2021-07-11T09:33:29Z</time>
      </trkpt>
      <trkpt lat="47.76647" lon="-3.55856">
        <ele>8.7</ele>
        <time>2021-07-11T09:33:30Z</time>
      </trkpt>
      <trkpt lat="47.76647" lon="-3.55854">
        <ele>8.8</ele>
        <time>2021-07-11T09:33:31Z</time>
      </trkpt>
      <trkpt lat="47.76646" lon="-3.55853">
        <ele>8.8</ele>
        <time>2021-07-11T09:33:32Z</time>
      </trkpt>
      <trkpt lat="47.76646" lon="-3.55851">
        <ele>8.8</ele>
        <time>2021-07-11T09:33:33Z</time>
      </trkpt>
      <trkpt lat="47.76645" lon="-3.5585">
        <ele>8.8</ele>
        <time>2021-07-11T09:33:34Z</time>
      </trkpt>
      <trkpt lat="47.76644" lon="-3.55849">
        <ele>8.8</ele>
        <time>2021-07-11T09:33:35Z</time>
      </trkpt>
      <trkpt lat="47.76644" lon="-3.55847">
        <ele>8.8</ele>
        <time>2021-07-11T09:33:36Z</time>
      </trkpt>
      <trkpt lat="47.76643" lon="-3.55846">
        <ele>8.8</ele>
        <time>2021-07-11T09:33:37Z</time>
      </trkpt>
      <trkpt lat="47.76642" lon="-3.55845">
        <ele>8.9</ele>
        <time>2021-07-11T09:33:38Z</time>
      </trkpt>
      <trkpt lat="47.76642" lon="-3.55844">
        <ele>8.9</ele>
        <time>2021-07-11T09:33:39Z</time>
      </trkpt>
      <trkpt lat="47.76641" lon="-3.55842">
        <ele>8.9</ele>
        <time>2021-07-11T09:33:40Z</time>
      </trkpt>
      <trkpt lat="47.7664" lon="-3.55841">
        <ele>8.9</ele>
        <time>2021-07-11T09:33:41Z</time>
      </trkpt>
      <trkpt lat="47.76639" lon="-3.5584">
        <ele>8.9</ele>
        <time>2021-07-11T09:33:42Z</time>
      </trkpt>
      <trkpt lat="47.76639" lon="-3.55839">
        <ele>8.9</ele>
        <time>2021-07-11T09:33:43Z</time>
      </trkpt>
      <trkpt lat="47.76638" lon="-3.55838">
        <ele>8.9</ele>
        <time>2021-07-11T09:33:44Z</time>
      </trkpt>
      <trkpt lat="47.76637" lon="-3.55836">
        <ele>8.9</ele>
        <time>2021-07-11T09:33:45Z</time>
      </trkpt>
      <trkpt lat="47.76637" lon="-3.55835">
        <ele>8.9</ele>
        <time>2021-07-11T09:33:46Z</time>
      </trkpt>
      <trkpt lat="47.76636" lon="-3.55834">
        <ele>8.9</ele>
        <time>2021-07-11T09:33:47Z</time>
      </trkpt>
      <trkpt lat="47.76635" lon="-3.55833">
        <ele>8.9</ele>
        <time>2021-07-11T09:33:48Z</time>
      </trkpt>
      <trkpt lat="47.76635" lon="-3.55831">
        <ele>8.9</ele>
        <time>2021-07-11T09:33:49Z</time>
      </trkpt>
      <trkpt lat="47.76634" lon="-3.5583">
        <ele>8.9</ele>
        <time>2021-07-11T09:33:50Z</time>
      </trkpt>
      <trkpt lat="47.76633" lon="-3.55829">
        <ele>8.9</ele>
        <time>2021-07-11T09:33:51Z</time>
      </trkpt>
      <trkpt lat="47.76632" lon="-3.55828">
        <ele>8.8</ele>
        <time>2021-07-11T09:33:52Z</time>
      </trkpt>
      <trkpt lat="47.76632" lon="-3.55826">
        <ele>8.8</ele>
        <time>2021-07-11T09:33:53Z</time>
      </trkpt>
      <trkpt lat="47.76631" lon="-3.55825">
        <ele>8.8</ele>
        <time>2021-07-11T09:33:54Z</time>
      </trkpt>
      <trkpt lat="47.7663" lon="-3.55823">
        <ele>8.8</ele>
        <time>2021-07-11T09:33:55Z</time>
      </trkpt>
      <trkpt lat="47.76629" lon="-3.55822">
        <ele>8.8</ele>
        <time>2021-07-11T09:33:56Z</time>
      </trkpt>
      <trkpt lat="47.76628" lon="-3.55821">
        <ele>8.8</ele>
        <time>2021-07-11T09:33:57Z</time>
      </trkpt>
      <trkpt lat="47.76628" lon="-3.55819">
        <ele>8.8</ele>
        <time>2021-07-11T09:33:58Z</time>
      </trkpt>
      <trkpt lat="47.76627" lon="-3.55818">
        <ele>8.7</ele>
        <time>2021-07-11T09:33:59Z</time>
      </trkpt>
      <trkpt lat="47.76626" lon="-3.55816">
        <ele>8.7</ele>
        <time>2021-07-11T09:34:00Z</time>
      </trkpt>
      <trkpt lat="47.76625" lon="-3.55815">
        <ele>8.7</ele>
        <time>2021-07-11T09:34:01Z</time>
      </trkpt>
      <trkpt lat="47.76624" lon="-3.55813">
        <ele>8.6</ele>
        <time>2021-07-11T09:34:02Z</time>
      </trkpt>
      <trkpt lat="47.76624" lon="-3.55812">
        <ele>8.6</ele>
        <time>2021-07-11T09:34:03Z</time>
      </trkpt>
      <trkpt lat="47.76623" lon="-3.5581">
        <ele>8.6</ele>
        <time>2021-07-11T09:34:04Z</time>
      </trkpt>
      <trkpt lat="47.76622" lon="-3.55809">
        <ele>8.6</ele>
        <time>2021-07-11T09:34:05Z</time>
      </trkpt>
      <trkpt lat="47.76622" lon="-3.55807">
        <ele>8.5</ele>
        <time>2021-07-11T09:34:06Z</time>
      </trkpt>
      <trkpt lat="47.76621" lon="-3.55806">
        <ele>8.5</ele>
        <time>2021-07-11T09:34:07Z</time>
      </trkpt>
      <trkpt lat="47.7662" lon="-3.55804">
        <ele>8.5</ele>
        <time>2021-07-11T09:34:08Z</time>
      </trkpt>
      <trkpt lat="47.7662" lon="-3.55803">
        <ele>8.4</ele>
        <time>2021-07-11T09:34:09Z</time>
      </trkpt>
      <trkpt lat="47.76619" lon="-3.55801">
        <ele>8.4</ele>
        <time>2021-07-11T09:34:10Z</time>
      </trkpt>
      <trkpt lat="47.76619" lon="-3.558">
        <ele>8.4</ele>
        <time>2021-07-11T09:34:11Z</time>
      </trkpt>
      <trkpt lat="47.76619" lon="-3.55798">
        <ele>8.3</ele>
        <time>2021-07-11T09:34:12Z</time>
      </trkpt>
      <trkpt lat="47.76618" lon="-3.55797">
        <ele>8.3</ele>
        <time>2021-07-11T09:34:13Z</time>
      </trkpt>
      <trkpt lat="47.76618" lon="-3.55795">
        <ele>8.3</ele>
        <time>2021-07-11T09:34:14Z</time>
      </trkpt>
      <trkpt lat="47.76618" lon="-3.55794">
        <ele>8.3</ele>
        <time>2021-07-11T09:34:15Z</time>
      </trkpt>
      <trkpt lat="47.76617" lon="-3.55793">
        <ele>8.2</ele>
        <time>2021-07-11T09:34:16Z</time>
      </trkpt>
      <trkpt lat="47.76617" lon="-3.55791">
        <ele>8.2</ele>
        <time>2021-07-11T09:34:17Z</time>
      </trkpt>
      <trkpt lat="47.76616" lon="-3.5579">
        <ele>8.2</ele>
        <time>2021-07-11T09:34:18Z</time>
      </trkpt>
      <trkpt lat="47.76616" lon="-3.55789">
        <ele>8.1</ele>
        <time>2021-07-11T09:34:19Z</time>
      </trkpt>
      <trkpt lat="47.76615" lon="-3.55788">
        <ele>8.1</ele>
        <time>2021-07-11T09:34:20Z</time>
      </trkpt>
      <trkpt lat="47.76615" lon="-3.55786">
        <ele>8.1</ele>
        <time>2021-07-11T09:34:21Z</time>
      </trkpt>
      <trkpt lat="47.76615" lon="-3.55785">
        <ele>8.1</ele>
        <time>2021-07-11T09:34:22Z</time>
      </trkpt>
      <trkpt lat="47.76614" lon="-3.55783">
        <ele>8</ele>
        <time>2021-07-11T09:34:23Z</time>
      </trkpt>
      <trkpt lat="47.76614" lon="-3.55781">
        <ele>8</ele>
        <time>2021-07-11T09:34:24Z</time>
      </trkpt>
      <trkpt lat="47.76614" lon="-3.5578">
        <ele>7.9</ele>
        <time>2021-07-11T09:34:25Z</time>
      </trkpt>
      <trkpt lat="47.76614" lon="-3.55778">
        <ele>7.9</ele>
        <time>2021-07-11T09:34:26Z</time>
      </trkpt>
      <trkpt lat="47.76614" lon="-3.55776">
        <ele>7.9</ele>
        <time>2021-07-11T09:34:27Z</time>
      </trkpt>
      <trkpt lat="47.76614" lon="-3.55774">
        <ele>7.8</ele>
        <time>2021-07-11T09:34:28Z</time>
      </trkpt>
      <trkpt lat="47.76614" lon="-3.55772">
        <ele>7.8</ele>
        <time>2021-07-11T09:34:29Z</time>
      </trkpt>
      <trkpt lat="47.76615" lon="-3.55771">
        <ele>7.8</ele>
        <time>2021-07-11T09:34:30Z</time>
      </trkpt>
      <trkpt lat="47.76615" lon="-3.55769">
        <ele>7.7</ele>
        <time>2021-07-11T09:34:31Z</time>
      </trkpt>
      <trkpt lat="47.76615" lon="-3.55767">
        <ele>7.7</ele>
        <time>2021-07-11T09:34:32Z</time>
      </trkpt>
      <trkpt lat="47.76616" lon="-3.55766">
        <ele>7.7</ele>
        <time>2021-07-11T09:34:33Z</time>
      </trkpt>
      <trkpt lat="47.76616" lon="-3.55764">
        <ele>7.7</ele>
        <time>2021-07-11T09:34:34Z</time>
      </trkpt>
      <trkpt lat="47.76617" lon="-3.55762">
        <ele>7.6</ele>
        <time>2021-07-11T09:34:35Z</time>
      </trkpt>
      <trkpt lat="47.76617" lon="-3.55761">
        <ele>7.6</ele>
        <time>2021-07-11T09:34:36Z</time>
      </trkpt>
      <trkpt lat="47.76618" lon="-3.55759">
        <ele>7.6</ele>
        <time>2021-07-11T09:34:37Z</time>
      </trkpt>
      <trkpt lat="47.76619" lon="-3.55758">
        <ele>7.5</ele>
        <time>2021-07-11T09:34:38Z</time>
      </trkpt>
      <trkpt lat="47.7662" lon="-3.55757">
        <ele>7.5</ele>
        <time>2021-07-11T09:34:39Z</time>
      </trkpt>
      <trkpt lat="47.7662" lon="-3.55755">
        <ele>7.5</ele>
        <time>2021-07-11T09:34:40Z</time>
      </trkpt>
      <trkpt lat="47.76621" lon="-3.55754">
        <ele>7.4</ele>
        <time>2021-07-11T09:34:41Z</time>
      </trkpt>
      <trkpt lat="47.76622" lon="-3.55753">
        <ele>7.4</ele>
        <time>2021-07-11T09:34:42Z</time>
      </trkpt>
      <trkpt lat="47.76623" lon="-3.55751">
        <ele>7.4</ele>
        <time>2021-07-11T09:34:43Z</time>
      </trkpt>
      <trkpt lat="47.76624" lon="-3.5575">
        <ele>7.4</ele>
        <time>2021-07-11T09:34:44Z</time>
      </trkpt>
      <trkpt lat="47.76624" lon="-3.5575">
        <ele>7.4</ele>
        <time>2021-07-11T09:34:45Z</time>
      </trkpt>
      <trkpt lat="47.76624" lon="-3.55749">
        <ele>7.4</ele>
        <time>2021-07-11T09:34:46Z</time>
      </trkpt>
      <trkpt lat="47.76624" lon="-3.55748">
        <ele>7.3</ele>
        <time>2021-07-11T09:34:47Z</time>
      </trkpt>
      <trkpt lat="47.76624" lon="-3.55748">
        <ele>7.3</ele>
        <time>2021-07-11T09:34:48Z</time>
      </trkpt>
      <trkpt lat="47.76624" lon="-3.55748">
        <ele>7.3</ele>
        <time>2021-07-11T09:34:49Z</time>
      </trkpt>
      <trkpt lat="47.76625" lon="-3.55746">
        <ele>7.3</ele>
        <time>2021-07-11T09:34:50Z</time>
      </trkpt>
      <trkpt lat="47.76626" lon="-3.55744">
        <ele>7.3</ele>
        <time>2021-07-11T09:34:51Z</time>
      </trkpt>
      <trkpt lat="47.76626" lon="-3.55743">
        <ele>7.2</ele>
        <time>2021-07-11T09:34:52Z</time>
      </trkpt>
      <trkpt lat="47.76627" lon="-3.55741">
        <ele>7.2</ele>
        <time>2021-07-11T09:34:53Z</time>
      </trkpt>
      <trkpt lat="47.76628" lon="-3.5574">
        <ele>7.2</ele>
        <time>2021-07-11T09:34:54Z</time>
      </trkpt>
      <trkpt lat="47.76628" lon="-3.55738">
        <ele>7.2</ele>
        <time>2021-07-11T09:34:55Z</time>
      </trkpt>
      <trkpt lat="47.76628" lon="-3.55736">
        <ele>7.1</ele>
        <time>2021-07-11T09:34:56Z</time>
      </trkpt>
      <trkpt lat="47.76628" lon="-3.55734">
        <ele>7.1</ele>
        <time>2021-07-11T09:34:57Z</time>
      </trkpt>
      <trkpt lat="47.76629" lon="-3.55732">
        <ele>7.1</ele>
        <time>2021-07-11T09:34:58Z</time>
      </trkpt>
      <trkpt lat="47.76629" lon="-3.55731">
        <ele>7.1</ele>
        <time>2021-07-11T09:34:59Z</time>
      </trkpt>
      <trkpt lat="47.76629" lon="-3.55729">
        <ele>7</ele>
        <time>2021-07-11T09:35:00Z</time>
      </trkpt>
      <trkpt lat="47.7663" lon="-3.55727">
        <ele>7</ele>
        <time>2021-07-11T09:35:01Z</time>
      </trkpt>
      <trkpt lat="47.7663" lon="-3.55726">
        <ele>7</ele>
        <time>2021-07-11T09:35:02Z</time>
      </trkpt>
      <trkpt lat="47.76631" lon="-3.55724">
        <ele>7</ele>
        <time>2021-07-11T09:35:03Z</time>
      </trkpt>
      <trkpt lat="47.76631" lon="-3.55723">
        <ele>7</ele>
        <time>2021-07-11T09:35:04Z</time>
      </trkpt>
      <trkpt lat="47.76632" lon="-3.55721">
        <ele>6.9</ele>
        <time>2021-07-11T09:35:05Z</time>
      </trkpt>
      <trkpt lat="47.76633" lon="-3.5572">
        <ele>6.9</ele>
        <time>2021-07-11T09:35:06Z</time>
      </trkpt>
      <trkpt lat="47.76634" lon="-3.55718">
        <ele>6.9</ele>
        <time>2021-07-11T09:35:07Z</time>
      </trkpt>
      <trkpt lat="47.76635" lon="-3.55717">
        <ele>6.9</ele>
        <time>2021-07-11T09:35:08Z</time>
      </trkpt>
      <trkpt lat="47.76636" lon="-3.55715">
        <ele>6.9</ele>
        <time>2021-07-11T09:35:09Z</time>
      </trkpt>
      <trkpt lat="47.76637" lon="-3.55712">
        <ele>6.8</ele>
        <time>2021-07-11T09:35:10Z</time>
      </trkpt>
      <trkpt lat="47.76638" lon="-3.55711">
        <ele>6.8</ele>
        <time>2021-07-11T09:35:11Z</time>
      </trkpt>
      <trkpt lat="47.76638" lon="-3.55709">
        <ele>6.8</ele>
        <time>2021-07-11T09:35:12Z</time>
      </trkpt>
      <trkpt lat="47.76639" lon="-3.55708">
        <ele>6.8</ele>
        <time>2021-07-11T09:35:13Z</time>
      </trkpt>
      <trkpt lat="47.76639" lon="-3.55706">
        <ele>6.8</ele>
        <time>2021-07-11T09:35:14Z</time>
      </trkpt>
      <trkpt lat="47.76639" lon="-3.55705">
        <ele>6.8</ele>
        <time>2021-07-11T09:35:15Z</time>
      </trkpt>
      <trkpt lat="47.7664" lon="-3.55703">
        <ele>6.8</ele>
        <time>2021-07-11T09:35:16Z</time>
      </trkpt>
      <trkpt lat="47.7664" lon="-3.55702">
        <ele>6.8</ele>
        <time>2021-07-11T09:35:17Z</time>
      </trkpt>
      <trkpt lat="47.76641" lon="-3.557">
        <ele>6.8</ele>
        <time>2021-07-11T09:35:18Z</time>
      </trkpt>
      <trkpt lat="47.76641" lon="-3.55699">
        <ele>6.7</ele>
        <time>2021-07-11T09:35:19Z</time>
      </trkpt>
      <trkpt lat="47.76642" lon="-3.55697">
        <ele>6.7</ele>
        <time>2021-07-11T09:35:20Z</time>
      </trkpt>
      <trkpt lat="47.76642" lon="-3.55696">
        <ele>6.7</ele>
        <time>2021-07-11T09:35:21Z</time>
      </trkpt>
      <trkpt lat="47.76643" lon="-3.55694">
        <ele>6.7</ele>
        <time>2021-07-11T09:35:22Z</time>
      </trkpt>
      <trkpt lat="47.76643" lon="-3.55693">
        <ele>6.7</ele>
        <time>2021-07-11T09:35:23Z</time>
      </trkpt>
      <trkpt lat="47.76644" lon="-3.55691">
        <ele>6.7</ele>
        <time>2021-07-11T09:35:24Z</time>
      </trkpt>
      <trkpt lat="47.76644" lon="-3.5569">
        <ele>6.7</ele>
        <time>2021-07-11T09:35:25Z</time>
      </trkpt>
      <trkpt lat="47.76645" lon="-3.55688">
        <ele>6.6</ele>
        <time>2021-07-11T09:35:26Z</time>
      </trkpt>
      <trkpt lat="47.76645" lon="-3.55687">
        <ele>6.6</ele>
        <time>2021-07-11T09:35:27Z</time>
      </trkpt>
      <trkpt lat="47.76645" lon="-3.55685">
        <ele>6.6</ele>
        <time>2021-07-11T09:35:28Z</time>
      </trkpt>
      <trkpt lat="47.76646" lon="-3.55684">
        <ele>6.6</ele>
        <time>2021-07-11T09:35:29Z</time>
      </trkpt>
      <trkpt lat="47.76646" lon="-3.55682">
        <ele>6.5</ele>
        <time>2021-07-11T09:35:30Z</time>
      </trkpt>
      <trkpt lat="47.76647" lon="-3.55681">
        <ele>6.3</ele>
        <time>2021-07-11T09:35:31Z</time>
      </trkpt>
      <trkpt lat="47.76647" lon="-3.55679">
        <ele>6.2</ele>
        <time>2021-07-11T09:35:32Z</time>
      </trkpt>
      <trkpt lat="47.76648" lon="-3.55678">
        <ele>6.1</ele>
        <time>2021-07-11T09:35:33Z</time>
      </trkpt>
      <trkpt lat="47.76648" lon="-3.55676">
        <ele>6.1</ele>
        <time>2021-07-11T09:35:34Z</time>
      </trkpt>
      <trkpt lat="47.76649" lon="-3.55675">
        <ele>6</ele>
        <time>2021-07-11T09:35:35Z</time>
      </trkpt>
      <trkpt lat="47.76649" lon="-3.55673">
        <ele>5.9</ele>
        <time>2021-07-11T09:35:36Z</time>
      </trkpt>
      <trkpt lat="47.7665" lon="-3.55672">
        <ele>5.8</ele>
        <time>2021-07-11T09:35:37Z</time>
      </trkpt>
      <trkpt lat="47.7665" lon="-3.5567">
        <ele>5.7</ele>
        <time>2021-07-11T09:35:38Z</time>
      </trkpt>
      <trkpt lat="47.7665" lon="-3.55669">
        <ele>5.7</ele>
        <time>2021-07-11T09:35:39Z</time>
      </trkpt>
      <trkpt lat="47.76651" lon="-3.55667">
        <ele>5.6</ele>
        <time>2021-07-11T09:35:40Z</time>
      </trkpt>
      <trkpt lat="47.76651" lon="-3.55666">
        <ele>5.5</ele>
        <time>2021-07-11T09:35:41Z</time>
      </trkpt>
      <trkpt lat="47.76652" lon="-3.55664">
        <ele>5.4</ele>
        <time>2021-07-11T09:35:42Z</time>
      </trkpt>
      <trkpt lat="47.76652" lon="-3.55663">
        <ele>5.4</ele>
        <time>2021-07-11T09:35:43Z</time>
      </trkpt>
      <trkpt lat="47.76653" lon="-3.55661">
        <ele>5.3</ele>
        <time>2021-07-11T09:35:44Z</time>
      </trkpt>
      <trkpt lat="47.76653" lon="-3.5566">
        <ele>5.2</ele>
        <time>2021-07-11T09:35:45Z</time>
      </trkpt>
      <trkpt lat="47.76654" lon="-3.55658">
        <ele>5.2</ele>
        <time>2021-07-11T09:35:46Z</time>
      </trkpt>
      <trkpt lat="47.76654" lon="-3.55657">
        <ele>5.1</ele>
        <time>2021-07-11T09:35:47Z</time>
      </trkpt>
      <trkpt lat="47.76655" lon="-3.55655">
        <ele>5</ele>
        <time>2021-07-11T09:35:48Z</time>
      </trkpt>
      <trkpt lat="47.76655" lon="-3.55654">
        <ele>5</ele>
        <time>2021-07-11T09:35:49Z</time>
      </trkpt>
      <trkpt lat="47.76655" lon="-3.55652">
        <ele>4.9</ele>
        <time>2021-07-11T09:35:50Z</time>
      </trkpt>
      <trkpt lat="47.76656" lon="-3.55651">
        <ele>4.9</ele>
        <time>2021-07-11T09:35:51Z</time>
      </trkpt>
      <trkpt lat="47.76656" lon="-3.55649">
        <ele>4.9</ele>
        <time>2021-07-11T09:35:52Z</time>
      </trkpt>
      <trkpt lat="47.76656" lon="-3.55648">
        <ele>4.9</ele>
        <time>2021-07-11T09:35:53Z</time>
      </trkpt>
      <trkpt lat="47.76656" lon="-3.55647">
        <ele>4.8</ele>
        <time>2021-07-11T09:35:54Z</time>
      </trkpt>
      <trkpt lat="47.76656" lon="-3.55645">
        <ele>4.8</ele>
        <time>2021-07-11T09:35:55Z</time>
      </trkpt>
      <trkpt lat="47.76656" lon="-3.55643">
        <ele>4.8</ele>
        <time>2021-07-11T09:35:56Z</time>
      </trkpt>
      <trkpt lat="47.76657" lon="-3.55641">
        <ele>4.7</ele>
        <time>2021-07-11T09:35:57Z</time>
      </trkpt>
      <trkpt lat="47.76657" lon="-3.55639">
        <ele>4.7</ele>
        <time>2021-07-11T09:35:58Z</time>
      </trkpt>
      <trkpt lat="47.76657" lon="-3.55637">
        <ele>4.7</ele>
        <time>2021-07-11T09:35:59Z</time>
      </trkpt>
      <trkpt lat="47.76658" lon="-3.55635">
        <ele>4.7</ele>
        <time>2021-07-11T09:36:00Z</time>
      </trkpt>
      <trkpt lat="47.76658" lon="-3.55633">
        <ele>4.7</ele>
        <time>2021-07-11T09:36:01Z</time>
      </trkpt>
      <trkpt lat="47.76658" lon="-3.55632">
        <ele>4.7</ele>
        <time>2021-07-11T09:36:02Z</time>
      </trkpt>
      <trkpt lat="47.76659" lon="-3.5563">
        <ele>4.7</ele>
        <time>2021-07-11T09:36:03Z</time>
      </trkpt>
      <trkpt lat="47.76659" lon="-3.55628">
        <ele>4.7</ele>
        <time>2021-07-11T09:36:04Z</time>
      </trkpt>
      <trkpt lat="47.76659" lon="-3.55626">
        <ele>4.6</ele>
        <time>2021-07-11T09:36:05Z</time>
      </trkpt>
      <trkpt lat="47.7666" lon="-3.55624">
        <ele>4.6</ele>
        <time>2021-07-11T09:36:06Z</time>
      </trkpt>
      <trkpt lat="47.7666" lon="-3.55622">
        <ele>4.6</ele>
        <time>2021-07-11T09:36:07Z</time>
      </trkpt>
      <trkpt lat="47.7666" lon="-3.5562">
        <ele>4.6</ele>
        <time>2021-07-11T09:36:08Z</time>
      </trkpt>
      <trkpt lat="47.76661" lon="-3.55618">
        <ele>4.6</ele>
        <time>2021-07-11T09:36:09Z</time>
      </trkpt>
      <trkpt lat="47.76661" lon="-3.55617">
        <ele>4.6</ele>
        <time>2021-07-11T09:36:10Z</time>
      </trkpt>
      <trkpt lat="47.76661" lon="-3.55615">
        <ele>4.6</ele>
        <time>2021-07-11T09:36:11Z</time>
      </trkpt>
      <trkpt lat="47.76662" lon="-3.55613">
        <ele>4.6</ele>
        <time>2021-07-11T09:36:12Z</time>
      </trkpt>
      <trkpt lat="47.76662" lon="-3.55612">
        <ele>4.6</ele>
        <time>2021-07-11T09:36:13Z</time>
      </trkpt>
      <trkpt lat="47.76662" lon="-3.55611">
        <ele>4.6</ele>
        <time>2021-07-11T09:36:14Z</time>
      </trkpt>
      <trkpt lat="47.76662" lon="-3.55611">
        <ele>4.6</ele>
        <time>2021-07-11T09:36:15Z</time>
      </trkpt>
      <trkpt lat="47.76662" lon="-3.55611">
        <ele>4.6</ele>
        <time>2021-07-11T09:36:16Z</time>
      </trkpt>
      <trkpt lat="47.76662" lon="-3.55611">
        <ele>4.6</ele>
        <time>2021-07-11T09:36:17Z</time>
      </trkpt>
      <trkpt lat="47.76662" lon="-3.55611">
        <ele>4.6</ele>
        <time>2021-07-11T09:36:18Z</time>
      </trkpt>
      <trkpt lat="47.76662" lon="-3.5561">
        <ele>4.6</ele>
        <time>2021-07-11T09:36:19Z</time>
      </trkpt>
      <trkpt lat="47.76662" lon="-3.5561">
        <ele>4.6</ele>
        <time>2021-07-11T09:36:20Z</time>
      </trkpt>
      <trkpt lat="47.76662" lon="-3.5561">
        <ele>4.6</ele>
        <time>2021-07-11T09:36:21Z</time>
      </trkpt>
      <trkpt lat="47.76663" lon="-3.55608">
        <ele>4.6</ele>
        <time>2021-07-11T09:36:22Z</time>
      </trkpt>
      <trkpt lat="47.76663" lon="-3.55604">
        <ele>4.6</ele>
        <time>2021-07-11T09:36:23Z</time>
      </trkpt>
      <trkpt lat="47.76664" lon="-3.556">
        <ele>4.6</ele>
        <time>2021-07-11T09:36:24Z</time>
      </trkpt>
      <trkpt lat="47.76665" lon="-3.55597">
        <ele>4.6</ele>
        <time>2021-07-11T09:36:25Z</time>
      </trkpt>
      <trkpt lat="47.76665" lon="-3.55595">
        <ele>4.6</ele>
        <time>2021-07-11T09:36:26Z</time>
      </trkpt>
      <trkpt lat="47.76665" lon="-3.55595">
        <ele>4.6</ele>
        <time>2021-07-11T09:36:27Z</time>
      </trkpt>
      <trkpt lat="47.76665" lon="-3.55594">
        <ele>4.6</ele>
        <time>2021-07-11T09:36:28Z</time>
      </trkpt>
      <trkpt lat="47.76666" lon="-3.55593">
        <ele>4.6</ele>
        <time>2021-07-11T09:36:29Z</time>
      </trkpt>
      <trkpt lat="47.76666" lon="-3.55592">
        <ele>4.6</ele>
        <time>2021-07-11T09:36:30Z</time>
      </trkpt>
      <trkpt lat="47.76666" lon="-3.55591">
        <ele>4.6</ele>
        <time>2021-07-11T09:36:31Z</time>
      </trkpt>
      <trkpt lat="47.76667" lon="-3.55589">
        <ele>4.6</ele>
        <time>2021-07-11T09:36:32Z</time>
      </trkpt>
      <trkpt lat="47.76667" lon="-3.55587">
        <ele>4.6</ele>
        <time>2021-07-11T09:36:33Z</time>
      </trkpt>
      <trkpt lat="47.76669" lon="-3.55585">
        <ele>4.7</ele>
        <time>2021-07-11T09:36:34Z</time>
      </trkpt>
      <trkpt lat="47.7667" lon="-3.55584">
        <ele>4.7</ele>
        <time>2021-07-11T09:36:35Z</time>
      </trkpt>
      <trkpt lat="47.76671" lon="-3.55583">
        <ele>4.8</ele>
        <time>2021-07-11T09:36:36Z</time>
      </trkpt>
      <trkpt lat="47.76671" lon="-3.55582">
        <ele>4.8</ele>
        <time>2021-07-11T09:36:37Z</time>
      </trkpt>
      <trkpt lat="47.76672" lon="-3.55581">
        <ele>4.9</ele>
        <time>2021-07-11T09:36:38Z</time>
      </trkpt>
      <trkpt lat="47.76673" lon="-3.5558">
        <ele>4.9</ele>
        <time>2021-07-11T09:36:39Z</time>
      </trkpt>
      <trkpt lat="47.76674" lon="-3.55579">
        <ele>4.9</ele>
        <time>2021-07-11T09:36:40Z</time>
      </trkpt>
      <trkpt lat="47.76675" lon="-3.55578">
        <ele>5</ele>
        <time>2021-07-11T09:36:41Z</time>
      </trkpt>
      <trkpt lat="47.76676" lon="-3.55577">
        <ele>5</ele>
        <time>2021-07-11T09:36:42Z</time>
      </trkpt>
      <trkpt lat="47.76677" lon="-3.55576">
        <ele>5.1</ele>
        <time>2021-07-11T09:36:43Z</time>
      </trkpt>
      <trkpt lat="47.76677" lon="-3.55574">
        <ele>5.1</ele>
        <time>2021-07-11T09:36:44Z</time>
      </trkpt>
      <trkpt lat="47.76677" lon="-3.55573">
        <ele>5.2</ele>
        <time>2021-07-11T09:36:45Z</time>
      </trkpt>
      <trkpt lat="47.76676" lon="-3.55572">
        <ele>5.2</ele>
        <time>2021-07-11T09:36:46Z</time>
      </trkpt>
      <trkpt lat="47.76676" lon="-3.55571">
        <ele>5.2</ele>
        <time>2021-07-11T09:36:47Z</time>
      </trkpt>
      <trkpt lat="47.76676" lon="-3.5557">
        <ele>5.3</ele>
        <time>2021-07-11T09:36:48Z</time>
      </trkpt>
      <trkpt lat="47.76676" lon="-3.5557">
        <ele>5.3</ele>
        <time>2021-07-11T09:36:49Z</time>
      </trkpt>
      <trkpt lat="47.76676" lon="-3.55569">
        <ele>5.3</ele>
        <time>2021-07-11T09:36:50Z</time>
      </trkpt>
      <trkpt lat="47.76676" lon="-3.55568">
        <ele>5.3</ele>
        <time>2021-07-11T09:36:51Z</time>
      </trkpt>
      <trkpt lat="47.76676" lon="-3.55567">
        <ele>5.4</ele>
        <time>2021-07-11T09:36:52Z</time>
      </trkpt>
      <trkpt lat="47.76676" lon="-3.55566">
        <ele>5.4</ele>
        <time>2021-07-11T09:36:53Z</time>
      </trkpt>
      <trkpt lat="47.76675" lon="-3.55565">
        <ele>5.4</ele>
        <time>2021-07-11T09:36:54Z</time>
      </trkpt>
      <trkpt lat="47.76675" lon="-3.55564">
        <ele>5.4</ele>
        <time>2021-07-11T09:36:55Z</time>
      </trkpt>
      <trkpt lat="47.76675" lon="-3.55563">
        <ele>5.4</ele>
        <time>2021-07-11T09:36:56Z</time>
      </trkpt>
      <trkpt lat="47.76675" lon="-3.55562">
        <ele>5.4</ele>
        <time>2021-07-11T09:36:57Z</time>
      </trkpt>
      <trkpt lat="47.76675" lon="-3.55561">
        <ele>5.5</ele>
        <time>2021-07-11T09:36:58Z</time>
      </trkpt>
      <trkpt lat="47.76675" lon="-3.5556">
        <ele>5.5</ele>
        <time>2021-07-11T09:36:59Z</time>
      </trkpt>
      <trkpt lat="47.76675" lon="-3.5556">
        <ele>5.5</ele>
        <time>2021-07-11T09:37:00Z</time>
      </trkpt>
      <trkpt lat="47.76674" lon="-3.55557">
        <ele>5.5</ele>
        <time>2021-07-11T09:37:01Z</time>
      </trkpt>
      <trkpt lat="47.76673" lon="-3.55555">
        <ele>5.5</ele>
        <time>2021-07-11T09:37:02Z</time>
      </trkpt>
      <trkpt lat="47.76673" lon="-3.55554">
        <ele>5.5</ele>
        <time>2021-07-11T09:37:03Z</time>
      </trkpt>
      <trkpt lat="47.76672" lon="-3.55552">
        <ele>5.5</ele>
        <time>2021-07-11T09:37:04Z</time>
      </trkpt>
      <trkpt lat="47.76672" lon="-3.55551">
        <ele>5.5</ele>
        <time>2021-07-11T09:37:05Z</time>
      </trkpt>
      <trkpt lat="47.76671" lon="-3.55551">
        <ele>5.5</ele>
        <time>2021-07-11T09:37:06Z</time>
      </trkpt>
      <trkpt lat="47.76671" lon="-3.5555">
        <ele>5.5</ele>
        <time>2021-07-11T09:37:07Z</time>
      </trkpt>
      <trkpt lat="47.76671" lon="-3.55549">
        <ele>5.5</ele>
        <time>2021-07-11T09:37:08Z</time>
      </trkpt>
      <trkpt lat="47.7667" lon="-3.55546">
        <ele>5.5</ele>
        <time>2021-07-11T09:37:09Z</time>
      </trkpt>
      <trkpt lat="47.7667" lon="-3.55543">
        <ele>5.5</ele>
        <time>2021-07-11T09:37:10Z</time>
      </trkpt>
      <trkpt lat="47.7667" lon="-3.55541">
        <ele>5.6</ele>
        <time>2021-07-11T09:37:11Z</time>
      </trkpt>
      <trkpt lat="47.76669" lon="-3.55539">
        <ele>5.6</ele>
        <time>2021-07-11T09:37:12Z</time>
      </trkpt>
      <trkpt lat="47.76669" lon="-3.55538">
        <ele>5.6</ele>
        <time>2021-07-11T09:37:13Z</time>
      </trkpt>
      <trkpt lat="47.76668" lon="-3.55536">
        <ele>5.6</ele>
        <time>2021-07-11T09:37:14Z</time>
      </trkpt>
      <trkpt lat="47.76668" lon="-3.55535">
        <ele>5.6</ele>
        <time>2021-07-11T09:37:15Z</time>
      </trkpt>
      <trkpt lat="47.76667" lon="-3.55534">
        <ele>5.6</ele>
        <time>2021-07-11T09:37:16Z</time>
      </trkpt>
      <trkpt lat="47.76667" lon="-3.55532">
        <ele>5.6</ele>
        <time>2021-07-11T09:37:17Z</time>
      </trkpt>
      <trkpt lat="47.76666" lon="-3.55531">
        <ele>5.6</ele>
        <time>2021-07-11T09:37:18Z</time>
      </trkpt>
      <trkpt lat="47.76665" lon="-3.55529">
        <ele>5.6</ele>
        <time>2021-07-11T09:37:19Z</time>
      </trkpt>
      <trkpt lat="47.76664" lon="-3.55528">
        <ele>5.6</ele>
        <time>2021-07-11T09:37:20Z</time>
      </trkpt>
      <trkpt lat="47.76663" lon="-3.55527">
        <ele>5.6</ele>
        <time>2021-07-11T09:37:21Z</time>
      </trkpt>
      <trkpt lat="47.76662" lon="-3.55527">
        <ele>5.6</ele>
        <time>2021-07-11T09:37:22Z</time>
      </trkpt>
      <trkpt lat="47.76661" lon="-3.55526">
        <ele>5.6</ele>
        <time>2021-07-11T09:37:23Z</time>
      </trkpt>
      <trkpt lat="47.7666" lon="-3.55525">
        <ele>5.6</ele>
        <time>2021-07-11T09:37:24Z</time>
      </trkpt>
      <trkpt lat="47.76659" lon="-3.55523">
        <ele>5.6</ele>
        <time>2021-07-11T09:37:25Z</time>
      </trkpt>
      <trkpt lat="47.76658" lon="-3.55522">
        <ele>5.6</ele>
        <time>2021-07-11T09:37:26Z</time>
      </trkpt>
      <trkpt lat="47.76657" lon="-3.55521">
        <ele>5.6</ele>
        <time>2021-07-11T09:37:27Z</time>
      </trkpt>
      <trkpt lat="47.76656" lon="-3.5552">
        <ele>5.6</ele>
        <time>2021-07-11T09:37:28Z</time>
      </trkpt>
      <trkpt lat="47.76655" lon="-3.55518">
        <ele>5.6</ele>
        <time>2021-07-11T09:37:29Z</time>
      </trkpt>
      <trkpt lat="47.76655" lon="-3.55517">
        <ele>5.6</ele>
        <time>2021-07-11T09:37:30Z</time>
      </trkpt>
      <trkpt lat="47.76654" lon="-3.55516">
        <ele>5.6</ele>
        <time>2021-07-11T09:37:31Z</time>
      </trkpt>
      <trkpt lat="47.76653" lon="-3.55515">
        <ele>5.6</ele>
        <time>2021-07-11T09:37:32Z</time>
      </trkpt>
      <trkpt lat="47.76652" lon="-3.55514">
        <ele>5.5</ele>
        <time>2021-07-11T09:37:33Z</time>
      </trkpt>
      <trkpt lat="47.76651" lon="-3.55513">
        <ele>5.5</ele>
        <time>2021-07-11T09:37:34Z</time>
      </trkpt>
      <trkpt lat="47.7665" lon="-3.55512">
        <ele>5.5</ele>
        <time>2021-07-11T09:37:35Z</time>
      </trkpt>
      <trkpt lat="47.76649" lon="-3.55511">
        <ele>5.5</ele>
        <time>2021-07-11T09:37:36Z</time>
      </trkpt>
      <trkpt lat="47.76648" lon="-3.5551">
        <ele>5.5</ele>
        <time>2021-07-11T09:37:37Z</time>
      </trkpt>
      <trkpt lat="47.76647" lon="-3.55509">
        <ele>5.6</ele>
        <time>2021-07-11T09:37:38Z</time>
      </trkpt>
      <trkpt lat="47.76646" lon="-3.55508">
        <ele>5.6</ele>
        <time>2021-07-11T09:37:39Z</time>
      </trkpt>
      <trkpt lat="47.76645" lon="-3.55507">
        <ele>5.6</ele>
        <time>2021-07-11T09:37:40Z</time>
      </trkpt>
      <trkpt lat="47.76643" lon="-3.55507">
        <ele>5.6</ele>
        <time>2021-07-11T09:37:41Z</time>
      </trkpt>
      <trkpt lat="47.76642" lon="-3.55506">
        <ele>5.6</ele>
        <time>2021-07-11T09:37:42Z</time>
      </trkpt>
      <trkpt lat="47.76641" lon="-3.55506">
        <ele>5.6</ele>
        <time>2021-07-11T09:37:43Z</time>
      </trkpt>
      <trkpt lat="47.7664" lon="-3.55505">
        <ele>5.6</ele>
        <time>2021-07-11T09:37:44Z</time>
      </trkpt>
      <trkpt lat="47.76639" lon="-3.55504">
        <ele>5.6</ele>
        <time>2021-07-11T09:37:45Z</time>
      </trkpt>
      <trkpt lat="47.76638" lon="-3.55504">
        <ele>5.6</ele>
        <time>2021-07-11T09:37:46Z</time>
      </trkpt>
      <trkpt lat="47.76636" lon="-3.55503">
        <ele>5.6</ele>
        <time>2021-07-11T09:37:47Z</time>
      </trkpt>
      <trkpt lat="47.76635" lon="-3.55502">
        <ele>5.7</ele>
        <time>2021-07-11T09:37:48Z</time>
      </trkpt>
      <trkpt lat="47.76634" lon="-3.55502">
        <ele>5.7</ele>
        <time>2021-07-11T09:37:49Z</time>
      </trkpt>
      <trkpt lat="47.76633" lon="-3.55501">
        <ele>5.7</ele>
        <time>2021-07-11T09:37:50Z</time>
      </trkpt>
      <trkpt lat="47.76632" lon="-3.555">
        <ele>5.7</ele>
        <time>2021-07-11T09:37:51Z</time>
      </trkpt>
      <trkpt lat="47.76631" lon="-3.55499">
        <ele>5.7</ele>
        <time>2021-07-11T09:37:52Z</time>
      </trkpt>
      <trkpt lat="47.7663" lon="-3.55499">
        <ele>5.7</ele>
        <time>2021-07-11T09:37:53Z</time>
      </trkpt>
      <trkpt lat="47.76629" lon="-3.55498">
        <ele>5.7</ele>
        <time>2021-07-11T09:37:54Z</time>
      </trkpt>
      <trkpt lat="47.76628" lon="-3.55498">
        <ele>5.7</ele>
        <time>2021-07-11T09:37:55Z</time>
      </trkpt>
      <trkpt lat="47.76627" lon="-3.55498">
        <ele>5.7</ele>
        <time>2021-07-11T09:37:56Z</time>
      </trkpt>
      <trkpt lat="47.76626" lon="-3.55497">
        <ele>5.7</ele>
        <time>2021-07-11T09:37:57Z</time>
      </trkpt>
      <trkpt lat="47.76626" lon="-3.55497">
        <ele>5.7</ele>
        <time>2021-07-11T09:37:58Z</time>
      </trkpt>
      <trkpt lat="47.76626" lon="-3.55498">
        <ele>5.7</ele>
        <time>2021-07-11T09:37:59Z</time>
      </trkpt>
      <trkpt lat="47.76626" lon="-3.55498">
        <ele>5.8</ele>
        <time>2021-07-11T09:38:00Z</time>
      </trkpt>
      <trkpt lat="47.76626" lon="-3.55498">
        <ele>5.8</ele>
        <time>2021-07-11T09:38:01Z</time>
      </trkpt>
      <trkpt lat="47.76626" lon="-3.55498">
        <ele>5.8</ele>
        <time>2021-07-11T09:38:02Z</time>
      </trkpt>
      <trkpt lat="47.76626" lon="-3.55498">
        <ele>5.8</ele>
        <time>2021-07-11T09:38:03Z</time>
      </trkpt>
      <trkpt lat="47.76625" lon="-3.55497">
        <ele>5.8</ele>
        <time>2021-07-11T09:38:04Z</time>
      </trkpt>
      <trkpt lat="47.76624" lon="-3.55497">
        <ele>5.8</ele>
        <time>2021-07-11T09:38:05Z</time>
      </trkpt>
      <trkpt lat="47.76623" lon="-3.55497">
        <ele>5.8</ele>
        <time>2021-07-11T09:38:06Z</time>
      </trkpt>
      <trkpt lat="47.76621" lon="-3.55497">
        <ele>5.8</ele>
        <time>2021-07-11T09:38:07Z</time>
      </trkpt>
      <trkpt lat="47.7662" lon="-3.55496">
        <ele>5.8</ele>
        <time>2021-07-11T09:38:08Z</time>
      </trkpt>
      <trkpt lat="47.76619" lon="-3.55495">
        <ele>5.9</ele>
        <time>2021-07-11T09:38:09Z</time>
      </trkpt>
      <trkpt lat="47.76617" lon="-3.55494">
        <ele>5.9</ele>
        <time>2021-07-11T09:38:10Z</time>
      </trkpt>
      <trkpt lat="47.76616" lon="-3.55494">
        <ele>5.9</ele>
        <time>2021-07-11T09:38:11Z</time>
      </trkpt>
      <trkpt lat="47.76615" lon="-3.55493">
        <ele>5.9</ele>
        <time>2021-07-11T09:38:12Z</time>
      </trkpt>
      <trkpt lat="47.76614" lon="-3.55492">
        <ele>6</ele>
        <time>2021-07-11T09:38:13Z</time>
      </trkpt>
      <trkpt lat="47.76614" lon="-3.55491">
        <ele>6.1</ele>
        <time>2021-07-11T09:38:14Z</time>
      </trkpt>
      <trkpt lat="47.76613" lon="-3.5549">
        <ele>6.1</ele>
        <time>2021-07-11T09:38:15Z</time>
      </trkpt>
      <trkpt lat="47.76612" lon="-3.55489">
        <ele>6.1</ele>
        <time>2021-07-11T09:38:16Z</time>
      </trkpt>
      <trkpt lat="47.76611" lon="-3.55488">
        <ele>6.1</ele>
        <time>2021-07-11T09:38:17Z</time>
      </trkpt>
      <trkpt lat="47.76609" lon="-3.55487">
        <ele>6.1</ele>
        <time>2021-07-11T09:38:18Z</time>
      </trkpt>
      <trkpt lat="47.76608" lon="-3.55487">
        <ele>6.1</ele>
        <time>2021-07-11T09:38:19Z</time>
      </trkpt>
      <trkpt lat="47.76607" lon="-3.55487">
        <ele>6.2</ele>
        <time>2021-07-11T09:38:20Z</time>
      </trkpt>
      <trkpt lat="47.76606" lon="-3.55486">
        <ele>6.2</ele>
        <time>2021-07-11T09:38:21Z</time>
      </trkpt>
      <trkpt lat="47.76603" lon="-3.55487">
        <ele>6.2</ele>
        <time>2021-07-11T09:38:22Z</time>
      </trkpt>
      <trkpt lat="47.76603" lon="-3.55488">
        <ele>6.2</ele>
        <time>2021-07-11T09:38:23Z</time>
      </trkpt>
      <trkpt lat="47.76602" lon="-3.55488">
        <ele>6.3</ele>
        <time>2021-07-11T09:38:24Z</time>
      </trkpt>
      <trkpt lat="47.76601" lon="-3.55489">
        <ele>6.3</ele>
        <time>2021-07-11T09:38:25Z</time>
      </trkpt>
      <trkpt lat="47.766" lon="-3.55489">
        <ele>6.3</ele>
        <time>2021-07-11T09:38:26Z</time>
      </trkpt>
      <trkpt lat="47.76599" lon="-3.5549">
        <ele>6.4</ele>
        <time>2021-07-11T09:38:27Z</time>
      </trkpt>
      <trkpt lat="47.76598" lon="-3.55491">
        <ele>6.4</ele>
        <time>2021-07-11T09:38:28Z</time>
      </trkpt>
      <trkpt lat="47.76597" lon="-3.55491">
        <ele>6.4</ele>
        <time>2021-07-11T09:38:29Z</time>
      </trkpt>
      <trkpt lat="47.76596" lon="-3.55492">
        <ele>6.5</ele>
        <time>2021-07-11T09:38:30Z</time>
      </trkpt>
      <trkpt lat="47.76595" lon="-3.55493">
        <ele>6.5</ele>
        <time>2021-07-11T09:38:31Z</time>
      </trkpt>
      <trkpt lat="47.76594" lon="-3.55493">
        <ele>6.5</ele>
        <time>2021-07-11T09:38:32Z</time>
      </trkpt>
      <trkpt lat="47.76593" lon="-3.55494">
        <ele>6.5</ele>
        <time>2021-07-11T09:38:33Z</time>
      </trkpt>
      <trkpt lat="47.76592" lon="-3.55495">
        <ele>6.6</ele>
        <time>2021-07-11T09:38:34Z</time>
      </trkpt>
      <trkpt lat="47.76591" lon="-3.55496">
        <ele>6.6</ele>
        <time>2021-07-11T09:38:35Z</time>
      </trkpt>
      <trkpt lat="47.7659" lon="-3.55497">
        <ele>6.6</ele>
        <time>2021-07-11T09:38:36Z</time>
      </trkpt>
      <trkpt lat="47.76589" lon="-3.55498">
        <ele>6.6</ele>
        <time>2021-07-11T09:38:37Z</time>
      </trkpt>
      <trkpt lat="47.76588" lon="-3.55499">
        <ele>6.6</ele>
        <time>2021-07-11T09:38:38Z</time>
      </trkpt>
      <trkpt lat="47.76587" lon="-3.555">
        <ele>6.6</ele>
        <time>2021-07-11T09:38:39Z</time>
      </trkpt>
      <trkpt lat="47.76585" lon="-3.555">
        <ele>6.7</ele>
        <time>2021-07-11T09:38:40Z</time>
      </trkpt>
      <trkpt lat="47.76584" lon="-3.55501">
        <ele>6.7</ele>
        <time>2021-07-11T09:38:41Z</time>
      </trkpt>
      <trkpt lat="47.76583" lon="-3.55502">
        <ele>6.7</ele>
        <time>2021-07-11T09:38:42Z</time>
      </trkpt>
      <trkpt lat="47.76582" lon="-3.55503">
        <ele>6.7</ele>
        <time>2021-07-11T09:38:43Z</time>
      </trkpt>
      <trkpt lat="47.76581" lon="-3.55504">
        <ele>6.7</ele>
        <time>2021-07-11T09:38:44Z</time>
      </trkpt>
      <trkpt lat="47.7658" lon="-3.55506">
        <ele>6.7</ele>
        <time>2021-07-11T09:38:45Z</time>
      </trkpt>
      <trkpt lat="47.76579" lon="-3.55507">
        <ele>6.6</ele>
        <time>2021-07-11T09:38:46Z</time>
      </trkpt>
      <trkpt lat="47.76578" lon="-3.55508">
        <ele>6.6</ele>
        <time>2021-07-11T09:38:47Z</time>
      </trkpt>
      <trkpt lat="47.76577" lon="-3.55509">
        <ele>6.6</ele>
        <time>2021-07-11T09:38:48Z</time>
      </trkpt>
      <trkpt lat="47.76576" lon="-3.5551">
        <ele>6.6</ele>
        <time>2021-07-11T09:38:49Z</time>
      </trkpt>
      <trkpt lat="47.76575" lon="-3.55512">
        <ele>6.6</ele>
        <time>2021-07-11T09:38:50Z</time>
      </trkpt>
      <trkpt lat="47.76574" lon="-3.55513">
        <ele>6.6</ele>
        <time>2021-07-11T09:38:51Z</time>
      </trkpt>
      <trkpt lat="47.76573" lon="-3.55514">
        <ele>6.6</ele>
        <time>2021-07-11T09:38:52Z</time>
      </trkpt>
      <trkpt lat="47.76572" lon="-3.55514">
        <ele>6.6</ele>
        <time>2021-07-11T09:38:53Z</time>
      </trkpt>
      <trkpt lat="47.76571" lon="-3.55515">
        <ele>6.5</ele>
        <time>2021-07-11T09:38:54Z</time>
      </trkpt>
      <trkpt lat="47.76571" lon="-3.55515">
        <ele>6.5</ele>
        <time>2021-07-11T09:38:55Z</time>
      </trkpt>
      <trkpt lat="47.76571" lon="-3.55515">
        <ele>6.5</ele>
        <time>2021-07-11T09:38:56Z</time>
      </trkpt>
      <trkpt lat="47.7657" lon="-3.55515">
        <ele>6.5</ele>
        <time>2021-07-11T09:38:57Z</time>
      </trkpt>
      <trkpt lat="47.76568" lon="-3.55516">
        <ele>6.5</ele>
        <time>2021-07-11T09:38:58Z</time>
      </trkpt>
      <trkpt lat="47.76565" lon="-3.55515">
        <ele>6.5</ele>
        <time>2021-07-11T09:38:59Z</time>
      </trkpt>
      <trkpt lat="47.76564" lon="-3.55514">
        <ele>6.5</ele>
        <time>2021-07-11T09:39:00Z</time>
      </trkpt>
      <trkpt lat="47.76563" lon="-3.55513">
        <ele>6.5</ele>
        <time>2021-07-11T09:39:01Z</time>
      </trkpt>
      <trkpt lat="47.76562" lon="-3.55512">
        <ele>6.5</ele>
        <time>2021-07-11T09:39:02Z</time>
      </trkpt>
      <trkpt lat="47.76562" lon="-3.55511">
        <ele>6.5</ele>
        <time>2021-07-11T09:39:03Z</time>
      </trkpt>
      <trkpt lat="47.76561" lon="-3.5551">
        <ele>6.5</ele>
        <time>2021-07-11T09:39:04Z</time>
      </trkpt>
      <trkpt lat="47.7656" lon="-3.55509">
        <ele>6.5</ele>
        <time>2021-07-11T09:39:05Z</time>
      </trkpt>
      <trkpt lat="47.76559" lon="-3.55508">
        <ele>6.5</ele>
        <time>2021-07-11T09:39:06Z</time>
      </trkpt>
      <trkpt lat="47.76558" lon="-3.55507">
        <ele>6.5</ele>
        <time>2021-07-11T09:39:07Z</time>
      </trkpt>
      <trkpt lat="47.76558" lon="-3.55506">
        <ele>6.5</ele>
        <time>2021-07-11T09:39:08Z</time>
      </trkpt>
      <trkpt lat="47.76557" lon="-3.55505">
        <ele>6.6</ele>
        <time>2021-07-11T09:39:09Z</time>
      </trkpt>
      <trkpt lat="47.76556" lon="-3.55504">
        <ele>6.6</ele>
        <time>2021-07-11T09:39:10Z</time>
      </trkpt>
      <trkpt lat="47.76555" lon="-3.55503">
        <ele>6.6</ele>
        <time>2021-07-11T09:39:11Z</time>
      </trkpt>
      <trkpt lat="47.76555" lon="-3.55503">
        <ele>6.6</ele>
        <time>2021-07-11T09:39:12Z</time>
      </trkpt>
      <trkpt lat="47.76555" lon="-3.55503">
        <ele>6.6</ele>
        <time>2021-07-11T09:39:13Z</time>
      </trkpt>
      <trkpt lat="47.76555" lon="-3.55503">
        <ele>6.6</ele>
        <time>2021-07-11T09:39:14Z</time>
      </trkpt>
      <trkpt lat="47.76555" lon="-3.55503">
        <ele>6.6</ele>
        <time>2021-07-11T09:39:15Z</time>
      </trkpt>
      <trkpt lat="47.76555" lon="-3.55502">
        <ele>6.6</ele>
        <time>2021-07-11T09:39:16Z</time>
      </trkpt>
      <trkpt lat="47.76555" lon="-3.55502">
        <ele>6.6</ele>
        <time>2021-07-11T09:39:17Z</time>
      </trkpt>
      <trkpt lat="47.76554" lon="-3.55501">
        <ele>6.6</ele>
        <time>2021-07-11T09:39:18Z</time>
      </trkpt>
      <trkpt lat="47.76554" lon="-3.555">
        <ele>6.6</ele>
        <time>2021-07-11T09:39:19Z</time>
      </trkpt>
      <trkpt lat="47.76553" lon="-3.55499">
        <ele>6.6</ele>
        <time>2021-07-11T09:39:20Z</time>
      </trkpt>
      <trkpt lat="47.76551" lon="-3.55497">
        <ele>6.6</ele>
        <time>2021-07-11T09:39:21Z</time>
      </trkpt>
      <trkpt lat="47.76549" lon="-3.55496">
        <ele>6.6</ele>
        <time>2021-07-11T09:39:22Z</time>
      </trkpt>
      <trkpt lat="47.76547" lon="-3.55495">
        <ele>6.6</ele>
        <time>2021-07-11T09:39:23Z</time>
      </trkpt>
      <trkpt lat="47.76547" lon="-3.55495">
        <ele>6.6</ele>
        <time>2021-07-11T09:39:24Z</time>
      </trkpt>
      <trkpt lat="47.76547" lon="-3.55495">
        <ele>6.6</ele>
        <time>2021-07-11T09:39:25Z</time>
      </trkpt>
      <trkpt lat="47.76547" lon="-3.55495">
        <ele>6.6</ele>
        <time>2021-07-11T09:39:26Z</time>
      </trkpt>
      <trkpt lat="47.76547" lon="-3.55495">
        <ele>6.6</ele>
        <time>2021-07-11T09:39:27Z</time>
      </trkpt>
      <trkpt lat="47.76547" lon="-3.55495">
        <ele>6.6</ele>
        <time>2021-07-11T09:39:28Z</time>
      </trkpt>
      <trkpt lat="47.76547" lon="-3.55494">
        <ele>6.6</ele>
        <time>2021-07-11T09:39:29Z</time>
      </trkpt>
      <trkpt lat="47.76546" lon="-3.55493">
        <ele>6.6</ele>
        <time>2021-07-11T09:39:30Z</time>
      </trkpt>
      <trkpt lat="47.76544" lon="-3.55492">
        <ele>6.6</ele>
        <time>2021-07-11T09:39:31Z</time>
      </trkpt>
      <trkpt lat="47.76542" lon="-3.55492">
        <ele>6.6</ele>
        <time>2021-07-11T09:39:32Z</time>
      </trkpt>
      <trkpt lat="47.7654" lon="-3.55492">
        <ele>6.6</ele>
        <time>2021-07-11T09:39:33Z</time>
      </trkpt>
      <trkpt lat="47.76539" lon="-3.55491">
        <ele>6.6</ele>
        <time>2021-07-11T09:39:34Z</time>
      </trkpt>
      <trkpt lat="47.76538" lon="-3.5549">
        <ele>6.6</ele>
        <time>2021-07-11T09:39:35Z</time>
      </trkpt>
      <trkpt lat="47.76537" lon="-3.55489">
        <ele>6.6</ele>
        <time>2021-07-11T09:39:36Z</time>
      </trkpt>
      <trkpt lat="47.76535" lon="-3.55488">
        <ele>6.6</ele>
        <time>2021-07-11T09:39:37Z</time>
      </trkpt>
      <trkpt lat="47.76534" lon="-3.55486">
        <ele>6.6</ele>
        <time>2021-07-11T09:39:38Z</time>
      </trkpt>
      <trkpt lat="47.76532" lon="-3.55485">
        <ele>6.7</ele>
        <time>2021-07-11T09:39:39Z</time>
      </trkpt>
      <trkpt lat="47.76531" lon="-3.55483">
        <ele>6.7</ele>
        <time>2021-07-11T09:39:40Z</time>
      </trkpt>
      <trkpt lat="47.7653" lon="-3.55482">
        <ele>6.7</ele>
        <time>2021-07-11T09:39:41Z</time>
      </trkpt>
      <trkpt lat="47.76529" lon="-3.55481">
        <ele>6.7</ele>
        <time>2021-07-11T09:39:42Z</time>
      </trkpt>
      <trkpt lat="47.76527" lon="-3.55479">
        <ele>6.7</ele>
        <time>2021-07-11T09:39:43Z</time>
      </trkpt>
      <trkpt lat="47.76527" lon="-3.55478">
        <ele>6.7</ele>
        <time>2021-07-11T09:39:44Z</time>
      </trkpt>
      <trkpt lat="47.76526" lon="-3.55477">
        <ele>6.7</ele>
        <time>2021-07-11T09:39:45Z</time>
      </trkpt>
      <trkpt lat="47.76525" lon="-3.55477">
        <ele>6.7</ele>
        <time>2021-07-11T09:39:46Z</time>
      </trkpt>
      <trkpt lat="47.76525" lon="-3.55476">
        <ele>6.7</ele>
        <time>2021-07-11T09:39:47Z</time>
      </trkpt>
      <trkpt lat="47.76524" lon="-3.55475">
        <ele>6.7</ele>
        <time>2021-07-11T09:39:48Z</time>
      </trkpt>
      <trkpt lat="47.76523" lon="-3.55474">
        <ele>6.7</ele>
        <time>2021-07-11T09:39:49Z</time>
      </trkpt>
      <trkpt lat="47.76522" lon="-3.55472">
        <ele>6.7</ele>
        <time>2021-07-11T09:39:50Z</time>
      </trkpt>
      <trkpt lat="47.76521" lon="-3.55471">
        <ele>6.7</ele>
        <time>2021-07-11T09:39:51Z</time>
      </trkpt>
      <trkpt lat="47.7652" lon="-3.5547">
        <ele>6.7</ele>
        <time>2021-07-11T09:39:52Z</time>
      </trkpt>
      <trkpt lat="47.76519" lon="-3.55469">
        <ele>6.6</ele>
        <time>2021-07-11T09:39:53Z</time>
      </trkpt>
      <trkpt lat="47.76518" lon="-3.55468">
        <ele>6.6</ele>
        <time>2021-07-11T09:39:54Z</time>
      </trkpt>
      <trkpt lat="47.76517" lon="-3.55467">
        <ele>6.6</ele>
        <time>2021-07-11T09:39:55Z</time>
      </trkpt>
      <trkpt lat="47.76516" lon="-3.55466">
        <ele>6.6</ele>
        <time>2021-07-11T09:39:56Z</time>
      </trkpt>
      <trkpt lat="47.76515" lon="-3.55465">
        <ele>6.6</ele>
        <time>2021-07-11T09:39:57Z</time>
      </trkpt>
      <trkpt lat="47.76514" lon="-3.55464">
        <ele>6.5</ele>
        <time>2021-07-11T09:39:58Z</time>
      </trkpt>
      <trkpt lat="47.76513" lon="-3.55463">
        <ele>6.5</ele>
        <time>2021-07-11T09:39:59Z</time>
      </trkpt>
      <trkpt lat="47.76512" lon="-3.55462">
        <ele>6.5</ele>
        <time>2021-07-11T09:40:00Z</time>
      </trkpt>
      <trkpt lat="47.76511" lon="-3.55461">
        <ele>6.4</ele>
        <time>2021-07-11T09:40:01Z</time>
      </trkpt>
      <trkpt lat="47.7651" lon="-3.5546">
        <ele>6.4</ele>
        <time>2021-07-11T09:40:02Z</time>
      </trkpt>
      <trkpt lat="47.76509" lon="-3.55459">
        <ele>6.4</ele>
        <time>2021-07-11T09:40:03Z</time>
      </trkpt>
      <trkpt lat="47.76508" lon="-3.55458">
        <ele>6.3</ele>
        <time>2021-07-11T09:40:04Z</time>
      </trkpt>
      <trkpt lat="47.76507" lon="-3.55457">
        <ele>6.3</ele>
        <time>2021-07-11T09:40:05Z</time>
      </trkpt>
      <trkpt lat="47.76506" lon="-3.55456">
        <ele>6.2</ele>
        <time>2021-07-11T09:40:06Z</time>
      </trkpt>
      <trkpt lat="47.76505" lon="-3.55455">
        <ele>6.2</ele>
        <time>2021-07-11T09:40:07Z</time>
      </trkpt>
      <trkpt lat="47.76504" lon="-3.55455">
        <ele>6.1</ele>
        <time>2021-07-11T09:40:08Z</time>
      </trkpt>
      <trkpt lat="47.76503" lon="-3.55454">
        <ele>6.1</ele>
        <time>2021-07-11T09:40:09Z</time>
      </trkpt>
      <trkpt lat="47.76502" lon="-3.55453">
        <ele>6</ele>
        <time>2021-07-11T09:40:10Z</time>
      </trkpt>
      <trkpt lat="47.76501" lon="-3.55452">
        <ele>6</ele>
        <time>2021-07-11T09:40:11Z</time>
      </trkpt>
      <trkpt lat="47.765" lon="-3.55452">
        <ele>5.9</ele>
        <time>2021-07-11T09:40:12Z</time>
      </trkpt>
      <trkpt lat="47.76499" lon="-3.55451">
        <ele>5.9</ele>
        <time>2021-07-11T09:40:13Z</time>
      </trkpt>
      <trkpt lat="47.76497" lon="-3.5545">
        <ele>5.8</ele>
        <time>2021-07-11T09:40:14Z</time>
      </trkpt>
      <trkpt lat="47.76496" lon="-3.55449">
        <ele>5.7</ele>
        <time>2021-07-11T09:40:15Z</time>
      </trkpt>
      <trkpt lat="47.76495" lon="-3.55448">
        <ele>5.6</ele>
        <time>2021-07-11T09:40:16Z</time>
      </trkpt>
      <trkpt lat="47.76494" lon="-3.55447">
        <ele>5.6</ele>
        <time>2021-07-11T09:40:17Z</time>
      </trkpt>
      <trkpt lat="47.76493" lon="-3.55446">
        <ele>5.5</ele>
        <time>2021-07-11T09:40:18Z</time>
      </trkpt>
      <trkpt lat="47.76492" lon="-3.55445">
        <ele>5.4</ele>
        <time>2021-07-11T09:40:19Z</time>
      </trkpt>
      <trkpt lat="47.7649" lon="-3.55444">
        <ele>5.4</ele>
        <time>2021-07-11T09:40:20Z</time>
      </trkpt>
      <trkpt lat="47.76489" lon="-3.55444">
        <ele>5.3</ele>
        <time>2021-07-11T09:40:21Z</time>
      </trkpt>
      <trkpt lat="47.76488" lon="-3.55443">
        <ele>5.2</ele>
        <time>2021-07-11T09:40:22Z</time>
      </trkpt>
      <trkpt lat="47.76487" lon="-3.55442">
        <ele>5.2</ele>
        <time>2021-07-11T09:40:23Z</time>
      </trkpt>
      <trkpt lat="47.76486" lon="-3.55442">
        <ele>5.1</ele>
        <time>2021-07-11T09:40:24Z</time>
      </trkpt>
      <trkpt lat="47.76485" lon="-3.55441">
        <ele>5.1</ele>
        <time>2021-07-11T09:40:25Z</time>
      </trkpt>
      <trkpt lat="47.76483" lon="-3.5544">
        <ele>5</ele>
        <time>2021-07-11T09:40:26Z</time>
      </trkpt>
      <trkpt lat="47.76482" lon="-3.5544">
        <ele>5</ele>
        <time>2021-07-11T09:40:27Z</time>
      </trkpt>
      <trkpt lat="47.76481" lon="-3.55439">
        <ele>4.9</ele>
        <time>2021-07-11T09:40:28Z</time>
      </trkpt>
      <trkpt lat="47.7648" lon="-3.55438">
        <ele>4.9</ele>
        <time>2021-07-11T09:40:29Z</time>
      </trkpt>
      <trkpt lat="47.76479" lon="-3.55437">
        <ele>4.9</ele>
        <time>2021-07-11T09:40:30Z</time>
      </trkpt>
      <trkpt lat="47.76478" lon="-3.55436">
        <ele>4.9</ele>
        <time>2021-07-11T09:40:31Z</time>
      </trkpt>
      <trkpt lat="47.76478" lon="-3.55435">
        <ele>4.9</ele>
        <time>2021-07-11T09:40:32Z</time>
      </trkpt>
      <trkpt lat="47.76477" lon="-3.55434">
        <ele>4.9</ele>
        <time>2021-07-11T09:40:33Z</time>
      </trkpt>
      <trkpt lat="47.76476" lon="-3.55432">
        <ele>4.9</ele>
        <time>2021-07-11T09:40:34Z</time>
      </trkpt>
      <trkpt lat="47.76475" lon="-3.55431">
        <ele>4.9</ele>
        <time>2021-07-11T09:40:35Z</time>
      </trkpt>
      <trkpt lat="47.76475" lon="-3.5543">
        <ele>4.9</ele>
        <time>2021-07-11T09:40:36Z</time>
      </trkpt>
      <trkpt lat="47.76474" lon="-3.55428">
        <ele>4.9</ele>
        <time>2021-07-11T09:40:37Z</time>
      </trkpt>
      <trkpt lat="47.76474" lon="-3.55426">
        <ele>5</ele>
        <time>2021-07-11T09:40:38Z</time>
      </trkpt>
      <trkpt lat="47.76474" lon="-3.55425">
        <ele>5</ele>
        <time>2021-07-11T09:40:39Z</time>
      </trkpt>
      <trkpt lat="47.76473" lon="-3.55423">
        <ele>5.1</ele>
        <time>2021-07-11T09:40:40Z</time>
      </trkpt>
      <trkpt lat="47.76473" lon="-3.55421">
        <ele>5.1</ele>
        <time>2021-07-11T09:40:41Z</time>
      </trkpt>
      <trkpt lat="47.76473" lon="-3.55419">
        <ele>5.2</ele>
        <time>2021-07-11T09:40:42Z</time>
      </trkpt>
      <trkpt lat="47.76473" lon="-3.55417">
        <ele>5.3</ele>
        <time>2021-07-11T09:40:43Z</time>
      </trkpt>
      <trkpt lat="47.76473" lon="-3.55415">
        <ele>5.4</ele>
        <time>2021-07-11T09:40:44Z</time>
      </trkpt>
      <trkpt lat="47.76473" lon="-3.55413">
        <ele>5.5</ele>
        <time>2021-07-11T09:40:45Z</time>
      </trkpt>
      <trkpt lat="47.76473" lon="-3.55411">
        <ele>5.6</ele>
        <time>2021-07-11T09:40:46Z</time>
      </trkpt>
      <trkpt lat="47.76473" lon="-3.55409">
        <ele>5.7</ele>
        <time>2021-07-11T09:40:47Z</time>
      </trkpt>
      <trkpt lat="47.76473" lon="-3.55408">
        <ele>5.8</ele>
        <time>2021-07-11T09:40:48Z</time>
      </trkpt>
      <trkpt lat="47.76473" lon="-3.55406">
        <ele>5.9</ele>
        <time>2021-07-11T09:40:49Z</time>
      </trkpt>
      <trkpt lat="47.76473" lon="-3.55404">
        <ele>6</ele>
        <time>2021-07-11T09:40:50Z</time>
      </trkpt>
      <trkpt lat="47.76473" lon="-3.55403">
        <ele>6.1</ele>
        <time>2021-07-11T09:40:51Z</time>
      </trkpt>
      <trkpt lat="47.76474" lon="-3.55402">
        <ele>6.2</ele>
        <time>2021-07-11T09:40:52Z</time>
      </trkpt>
      <trkpt lat="47.76474" lon="-3.55401">
        <ele>6.2</ele>
        <time>2021-07-11T09:40:53Z</time>
      </trkpt>
      <trkpt lat="47.76474" lon="-3.554">
        <ele>6.3</ele>
        <time>2021-07-11T09:40:54Z</time>
      </trkpt>
      <trkpt lat="47.76474" lon="-3.55399">
        <ele>6.3</ele>
        <time>2021-07-11T09:40:55Z</time>
      </trkpt>
      <trkpt lat="47.76474" lon="-3.55399">
        <ele>6.3</ele>
        <time>2021-07-11T09:40:56Z</time>
      </trkpt>
      <trkpt lat="47.76474" lon="-3.55399">
        <ele>6.4</ele>
        <time>2021-07-11T09:40:57Z</time>
      </trkpt>
      <trkpt lat="47.76474" lon="-3.55399">
        <ele>6.4</ele>
        <time>2021-07-11T09:40:58Z</time>
      </trkpt>
      <trkpt lat="47.76473" lon="-3.55399">
        <ele>6.4</ele>
        <time>2021-07-11T09:40:59Z</time>
      </trkpt>
      <trkpt lat="47.76473" lon="-3.55399">
        <ele>6.4</ele>
        <time>2021-07-11T09:41:00Z</time>
      </trkpt>
      <trkpt lat="47.76473" lon="-3.55399">
        <ele>6.4</ele>
        <time>2021-07-11T09:41:01Z</time>
      </trkpt>
      <trkpt lat="47.76473" lon="-3.554">
        <ele>6.4</ele>
        <time>2021-07-11T09:41:02Z</time>
      </trkpt>
      <trkpt lat="47.76473" lon="-3.554">
        <ele>6.4</ele>
        <time>2021-07-11T09:41:03Z</time>
      </trkpt>
      <trkpt lat="47.76473" lon="-3.554">
        <ele>6.4</ele>
        <time>2021-07-11T09:41:04Z</time>
      </trkpt>
      <trkpt lat="47.76473" lon="-3.554">
        <ele>6.5</ele>
        <time>2021-07-11T09:41:05Z</time>
      </trkpt>
      <trkpt lat="47.76473" lon="-3.554">
        <ele>6.5</ele>
        <time>2021-07-11T09:41:06Z</time>
      </trkpt>
      <trkpt lat="47.76473" lon="-3.554">
        <ele>6.5</ele>
        <time>2021-07-11T09:41:07Z</time>
      </trkpt>
      <trkpt lat="47.76473" lon="-3.554">
        <ele>6.5</ele>
        <time>2021-07-11T09:41:08Z</time>
      </trkpt>
      <trkpt lat="47.76473" lon="-3.554">
        <ele>6.5</ele>
        <time>2021-07-11T09:41:09Z</time>
      </trkpt>
      <trkpt lat="47.76473" lon="-3.554">
        <ele>6.5</ele>
        <time>2021-07-11T09:41:10Z</time>
      </trkpt>
      <trkpt lat="47.76473" lon="-3.554">
        <ele>6.5</ele>
        <time>2021-07-11T09:41:11Z</time>
      </trkpt>
      <trkpt lat="47.76473" lon="-3.554">
        <ele>6.5</ele>
        <time>2021-07-11T09:41:12Z</time>
      </trkpt>
      <trkpt lat="47.76473" lon="-3.554">
        <ele>6.5</ele>
        <time>2021-07-11T09:41:13Z</time>
      </trkpt>
      <trkpt lat="47.76473" lon="-3.554">
        <ele>6.5</ele>
        <time>2021-07-11T09:41:14Z</time>
      </trkpt>
      <trkpt lat="47.76472" lon="-3.554">
        <ele>6.5</ele>
        <time>2021-07-11T09:41:15Z</time>
      </trkpt>
      <trkpt lat="47.76472" lon="-3.55401">
        <ele>6.6</ele>
        <time>2021-07-11T09:41:16Z</time>
      </trkpt>
      <trkpt lat="47.76471" lon="-3.55401">
        <ele>6.7</ele>
        <time>2021-07-11T09:41:17Z</time>
      </trkpt>
      <trkpt lat="47.7647" lon="-3.55401">
        <ele>6.7</ele>
        <time>2021-07-11T09:41:18Z</time>
      </trkpt>
      <trkpt lat="47.76469" lon="-3.55401">
        <ele>6.9</ele>
        <time>2021-07-11T09:41:19Z</time>
      </trkpt>
      <trkpt lat="47.76468" lon="-3.554">
        <ele>7</ele>
        <time>2021-07-11T09:41:20Z</time>
      </trkpt>
      <trkpt lat="47.76466" lon="-3.55399">
        <ele>7.2</ele>
        <time>2021-07-11T09:41:21Z</time>
      </trkpt>
      <trkpt lat="47.76464" lon="-3.554">
        <ele>7.4</ele>
        <time>2021-07-11T09:41:22Z</time>
      </trkpt>
      <trkpt lat="47.76462" lon="-3.55401">
        <ele>7.6</ele>
        <time>2021-07-11T09:41:23Z</time>
      </trkpt>
      <trkpt lat="47.76461" lon="-3.55401">
        <ele>7.7</ele>
        <time>2021-07-11T09:41:24Z</time>
      </trkpt>
      <trkpt lat="47.7646" lon="-3.55402">
        <ele>7.8</ele>
        <time>2021-07-11T09:41:25Z</time>
      </trkpt>
      <trkpt lat="47.76459" lon="-3.55403">
        <ele>7.8</ele>
        <time>2021-07-11T09:41:26Z</time>
      </trkpt>
      <trkpt lat="47.76459" lon="-3.55403">
        <ele>7.9</ele>
        <time>2021-07-11T09:41:27Z</time>
      </trkpt>
      <trkpt lat="47.76459" lon="-3.55403">
        <ele>7.9</ele>
        <time>2021-07-11T09:41:28Z</time>
      </trkpt>
      <trkpt lat="47.76459" lon="-3.55403">
        <ele>7.9</ele>
        <time>2021-07-11T09:41:29Z</time>
      </trkpt>
      <trkpt lat="47.76459" lon="-3.55403">
        <ele>7.9</ele>
        <time>2021-07-11T09:41:30Z</time>
      </trkpt>
      <trkpt lat="47.76459" lon="-3.55403">
        <ele>7.9</ele>
        <time>2021-07-11T09:41:31Z</time>
      </trkpt>
      <trkpt lat="47.76459" lon="-3.55404">
        <ele>7.9</ele>
        <time>2021-07-11T09:41:32Z</time>
      </trkpt>
      <trkpt lat="47.76458" lon="-3.55404">
        <ele>8</ele>
        <time>2021-07-11T09:41:33Z</time>
      </trkpt>
      <trkpt lat="47.76457" lon="-3.55405">
        <ele>8.1</ele>
        <time>2021-07-11T09:41:34Z</time>
      </trkpt>
      <trkpt lat="47.76454" lon="-3.55406">
        <ele>8.3</ele>
        <time>2021-07-11T09:41:35Z</time>
      </trkpt>
      <trkpt lat="47.76452" lon="-3.55408">
        <ele>8.5</ele>
        <time>2021-07-11T09:41:36Z</time>
      </trkpt>
      <trkpt lat="47.76451" lon="-3.5541">
        <ele>8.6</ele>
        <time>2021-07-11T09:41:37Z</time>
      </trkpt>
      <trkpt lat="47.7645" lon="-3.55411">
        <ele>8.8</ele>
        <time>2021-07-11T09:41:38Z</time>
      </trkpt>
      <trkpt lat="47.76447" lon="-3.55412">
        <ele>9.1</ele>
        <time>2021-07-11T09:41:39Z</time>
      </trkpt>
      <trkpt lat="47.76445" lon="-3.55412">
        <ele>9.2</ele>
        <time>2021-07-11T09:41:40Z</time>
      </trkpt>
      <trkpt lat="47.76444" lon="-3.55413">
        <ele>9.3</ele>
        <time>2021-07-11T09:41:41Z</time>
      </trkpt>
      <trkpt lat="47.76443" lon="-3.55413">
        <ele>9.4</ele>
        <time>2021-07-11T09:41:42Z</time>
      </trkpt>
      <trkpt lat="47.76441" lon="-3.55413">
        <ele>9.5</ele>
        <time>2021-07-11T09:41:43Z</time>
      </trkpt>
      <trkpt lat="47.7644" lon="-3.55413">
        <ele>9.6</ele>
        <time>2021-07-11T09:41:44Z</time>
      </trkpt>
      <trkpt lat="47.76438" lon="-3.55414">
        <ele>9.7</ele>
        <time>2021-07-11T09:41:45Z</time>
      </trkpt>
      <trkpt lat="47.76437" lon="-3.55414">
        <ele>9.8</ele>
        <time>2021-07-11T09:41:46Z</time>
      </trkpt>
      <trkpt lat="47.76435" lon="-3.55414">
        <ele>9.9</ele>
        <time>2021-07-11T09:41:47Z</time>
      </trkpt>
      <trkpt lat="47.76434" lon="-3.55414">
        <ele>10</ele>
        <time>2021-07-11T09:41:48Z</time>
      </trkpt>
      <trkpt lat="47.76433" lon="-3.55413">
        <ele>10</ele>
        <time>2021-07-11T09:41:49Z</time>
      </trkpt>
      <trkpt lat="47.76432" lon="-3.55413">
        <ele>10.1</ele>
        <time>2021-07-11T09:41:50Z</time>
      </trkpt>
      <trkpt lat="47.76431" lon="-3.55413">
        <ele>10.2</ele>
        <time>2021-07-11T09:41:51Z</time>
      </trkpt>
      <trkpt lat="47.7643" lon="-3.55413">
        <ele>10.3</ele>
        <time>2021-07-11T09:41:52Z</time>
      </trkpt>
      <trkpt lat="47.76429" lon="-3.55413">
        <ele>10.3</ele>
        <time>2021-07-11T09:41:53Z</time>
      </trkpt>
      <trkpt lat="47.76428" lon="-3.55413">
        <ele>10.4</ele>
        <time>2021-07-11T09:41:54Z</time>
      </trkpt>
      <trkpt lat="47.76427" lon="-3.55413">
        <ele>10.5</ele>
        <time>2021-07-11T09:41:55Z</time>
      </trkpt>
      <trkpt lat="47.76426" lon="-3.55412">
        <ele>10.5</ele>
        <time>2021-07-11T09:41:56Z</time>
      </trkpt>
      <trkpt lat="47.76425" lon="-3.55412">
        <ele>10.6</ele>
        <time>2021-07-11T09:41:57Z</time>
      </trkpt>
      <trkpt lat="47.76424" lon="-3.55412">
        <ele>10.7</ele>
        <time>2021-07-11T09:41:58Z</time>
      </trkpt>
      <trkpt lat="47.76423" lon="-3.55412">
        <ele>10.8</ele>
        <time>2021-07-11T09:41:59Z</time>
      </trkpt>
      <trkpt lat="47.76422" lon="-3.55412">
        <ele>10.8</ele>
        <time>2021-07-11T09:42:00Z</time>
      </trkpt>
      <trkpt lat="47.76421" lon="-3.55412">
        <ele>10.9</ele>
        <time>2021-07-11T09:42:01Z</time>
      </trkpt>
      <trkpt lat="47.7642" lon="-3.55412">
        <ele>11</ele>
        <time>2021-07-11T09:42:02Z</time>
      </trkpt>
      <trkpt lat="47.76419" lon="-3.55411">
        <ele>11.1</ele>
        <time>2021-07-11T09:42:03Z</time>
      </trkpt>
      <trkpt lat="47.76418" lon="-3.55411">
        <ele>11.1</ele>
        <time>2021-07-11T09:42:04Z</time>
      </trkpt>
      <trkpt lat="47.76417" lon="-3.55411">
        <ele>11.2</ele>
        <time>2021-07-11T09:42:05Z</time>
      </trkpt>
      <trkpt lat="47.76416" lon="-3.55411">
        <ele>11.3</ele>
        <time>2021-07-11T09:42:06Z</time>
      </trkpt>
      <trkpt lat="47.76415" lon="-3.55411">
        <ele>11.3</ele>
        <time>2021-07-11T09:42:07Z</time>
      </trkpt>
      <trkpt lat="47.76414" lon="-3.55411">
        <ele>11.8</ele>
        <time>2021-07-11T09:42:08Z</time>
      </trkpt>
      <trkpt lat="47.76413" lon="-3.55411">
        <ele>11.8</ele>
        <time>2021-07-11T09:42:09Z</time>
      </trkpt>
      <trkpt lat="47.76412" lon="-3.5541">
        <ele>11.8</ele>
        <time>2021-07-11T09:42:10Z</time>
      </trkpt>
      <trkpt lat="47.76411" lon="-3.5541">
        <ele>11.8</ele>
        <time>2021-07-11T09:42:11Z</time>
      </trkpt>
      <trkpt lat="47.7641" lon="-3.5541">
        <ele>11.8</ele>
        <time>2021-07-11T09:42:12Z</time>
      </trkpt>
      <trkpt lat="47.76409" lon="-3.5541">
        <ele>11.9</ele>
        <time>2021-07-11T09:42:13Z</time>
      </trkpt>
      <trkpt lat="47.76408" lon="-3.5541">
        <ele>11.9</ele>
        <time>2021-07-11T09:42:14Z</time>
      </trkpt>
      <trkpt lat="47.76408" lon="-3.5541">
        <ele>11.9</ele>
        <time>2021-07-11T09:42:15Z</time>
      </trkpt>
      <trkpt lat="47.76407" lon="-3.5541">
        <ele>11.9</ele>
        <time>2021-07-11T09:42:16Z</time>
      </trkpt>
      <trkpt lat="47.76406" lon="-3.55409">
        <ele>11.9</ele>
        <time>2021-07-11T09:42:17Z</time>
      </trkpt>
      <trkpt lat="47.76405" lon="-3.55409">
        <ele>11.9</ele>
        <time>2021-07-11T09:42:18Z</time>
      </trkpt>
      <trkpt lat="47.76405" lon="-3.55409">
        <ele>11.9</ele>
        <time>2021-07-11T09:42:19Z</time>
      </trkpt>
      <trkpt lat="47.76405" lon="-3.55407">
        <ele>12</ele>
        <time>2021-07-11T09:42:20Z</time>
      </trkpt>
      <trkpt lat="47.76404" lon="-3.55405">
        <ele>12</ele>
        <time>2021-07-11T09:42:21Z</time>
      </trkpt>
      <trkpt lat="47.76404" lon="-3.55404">
        <ele>12</ele>
        <time>2021-07-11T09:42:22Z</time>
      </trkpt>
      <trkpt lat="47.76404" lon="-3.55402">
        <ele>12</ele>
        <time>2021-07-11T09:42:23Z</time>
      </trkpt>
      <trkpt lat="47.76403" lon="-3.554">
        <ele>12</ele>
        <time>2021-07-11T09:42:24Z</time>
      </trkpt>
      <trkpt lat="47.76403" lon="-3.55399">
        <ele>12</ele>
        <time>2021-07-11T09:42:25Z</time>
      </trkpt>
      <trkpt lat="47.76403" lon="-3.55397">
        <ele>12</ele>
        <time>2021-07-11T09:42:26Z</time>
      </trkpt>
      <trkpt lat="47.76402" lon="-3.55396">
        <ele>12</ele>
        <time>2021-07-11T09:42:27Z</time>
      </trkpt>
      <trkpt lat="47.76402" lon="-3.55394">
        <ele>12</ele>
        <time>2021-07-11T09:42:28Z</time>
      </trkpt>
      <trkpt lat="47.76402" lon="-3.55392">
        <ele>12</ele>
        <time>2021-07-11T09:42:29Z</time>
      </trkpt>
      <trkpt lat="47.76401" lon="-3.55391">
        <ele>12</ele>
        <time>2021-07-11T09:42:30Z</time>
      </trkpt>
      <trkpt lat="47.76401" lon="-3.55389">
        <ele>12.1</ele>
        <time>2021-07-11T09:42:31Z</time>
      </trkpt>
      <trkpt lat="47.76401" lon="-3.55388">
        <ele>12.1</ele>
        <time>2021-07-11T09:42:32Z</time>
      </trkpt>
      <trkpt lat="47.764" lon="-3.55386">
        <ele>12.1</ele>
        <time>2021-07-11T09:42:33Z</time>
      </trkpt>
      <trkpt lat="47.764" lon="-3.55384">
        <ele>12.1</ele>
        <time>2021-07-11T09:42:34Z</time>
      </trkpt>
      <trkpt lat="47.76399" lon="-3.55383">
        <ele>12.1</ele>
        <time>2021-07-11T09:42:35Z</time>
      </trkpt>
      <trkpt lat="47.76399" lon="-3.55381">
        <ele>12.1</ele>
        <time>2021-07-11T09:42:36Z</time>
      </trkpt>
      <trkpt lat="47.76399" lon="-3.55379">
        <ele>12.1</ele>
        <time>2021-07-11T09:42:37Z</time>
      </trkpt>
      <trkpt lat="47.76398" lon="-3.55378">
        <ele>12.2</ele>
        <time>2021-07-11T09:42:38Z</time>
      </trkpt>
      <trkpt lat="47.76398" lon="-3.55376">
        <ele>12.2</ele>
        <time>2021-07-11T09:42:39Z</time>
      </trkpt>
      <trkpt lat="47.76398" lon="-3.55374">
        <ele>12.2</ele>
        <time>2021-07-11T09:42:40Z</time>
      </trkpt>
      <trkpt lat="47.76398" lon="-3.55373">
        <ele>12.2</ele>
        <time>2021-07-11T09:42:41Z</time>
      </trkpt>
      <trkpt lat="47.76397" lon="-3.55371">
        <ele>12.3</ele>
        <time>2021-07-11T09:42:42Z</time>
      </trkpt>
      <trkpt lat="47.76397" lon="-3.55369">
        <ele>12.3</ele>
        <time>2021-07-11T09:42:43Z</time>
      </trkpt>
      <trkpt lat="47.76397" lon="-3.55367">
        <ele>12.3</ele>
        <time>2021-07-11T09:42:44Z</time>
      </trkpt>
      <trkpt lat="47.76397" lon="-3.55365">
        <ele>12.3</ele>
        <time>2021-07-11T09:42:45Z</time>
      </trkpt>
      <trkpt lat="47.76397" lon="-3.55363">
        <ele>12.4</ele>
        <time>2021-07-11T09:42:46Z</time>
      </trkpt>
      <trkpt lat="47.76397" lon="-3.55362">
        <ele>12.4</ele>
        <time>2021-07-11T09:42:47Z</time>
      </trkpt>
      <trkpt lat="47.76397" lon="-3.5536">
        <ele>12.4</ele>
        <time>2021-07-11T09:42:48Z</time>
      </trkpt>
      <trkpt lat="47.76397" lon="-3.55358">
        <ele>12.5</ele>
        <time>2021-07-11T09:42:49Z</time>
      </trkpt>
      <trkpt lat="47.76397" lon="-3.55356">
        <ele>12.5</ele>
        <time>2021-07-11T09:42:50Z</time>
      </trkpt>
      <trkpt lat="47.76397" lon="-3.55354">
        <ele>12.6</ele>
        <time>2021-07-11T09:42:51Z</time>
      </trkpt>
      <trkpt lat="47.76397" lon="-3.55352">
        <ele>12.6</ele>
        <time>2021-07-11T09:42:52Z</time>
      </trkpt>
      <trkpt lat="47.76397" lon="-3.5535">
        <ele>12.6</ele>
        <time>2021-07-11T09:42:53Z</time>
      </trkpt>
      <trkpt lat="47.76396" lon="-3.55349">
        <ele>12.7</ele>
        <time>2021-07-11T09:42:54Z</time>
      </trkpt>
      <trkpt lat="47.76396" lon="-3.55347">
        <ele>12.7</ele>
        <time>2021-07-11T09:42:55Z</time>
      </trkpt>
      <trkpt lat="47.76396" lon="-3.55345">
        <ele>12.8</ele>
        <time>2021-07-11T09:42:56Z</time>
      </trkpt>
      <trkpt lat="47.76396" lon="-3.55343">
        <ele>12.8</ele>
        <time>2021-07-11T09:42:57Z</time>
      </trkpt>
      <trkpt lat="47.76396" lon="-3.55341">
        <ele>12.9</ele>
        <time>2021-07-11T09:42:58Z</time>
      </trkpt>
      <trkpt lat="47.76395" lon="-3.5534">
        <ele>12.9</ele>
        <time>2021-07-11T09:42:59Z</time>
      </trkpt>
      <trkpt lat="47.76395" lon="-3.55338">
        <ele>13</ele>
        <time>2021-07-11T09:43:00Z</time>
      </trkpt>
      <trkpt lat="47.76395" lon="-3.55336">
        <ele>13</ele>
        <time>2021-07-11T09:43:01Z</time>
      </trkpt>
      <trkpt lat="47.76394" lon="-3.55334">
        <ele>13.1</ele>
        <time>2021-07-11T09:43:02Z</time>
      </trkpt>
      <trkpt lat="47.76394" lon="-3.55333">
        <ele>13.1</ele>
        <time>2021-07-11T09:43:03Z</time>
      </trkpt>
      <trkpt lat="47.76394" lon="-3.55331">
        <ele>13.2</ele>
        <time>2021-07-11T09:43:04Z</time>
      </trkpt>
      <trkpt lat="47.76393" lon="-3.55329">
        <ele>13.2</ele>
        <time>2021-07-11T09:43:05Z</time>
      </trkpt>
      <trkpt lat="47.76393" lon="-3.55327">
        <ele>13.3</ele>
        <time>2021-07-11T09:43:06Z</time>
      </trkpt>
      <trkpt lat="47.76393" lon="-3.55325">
        <ele>13.3</ele>
        <time>2021-07-11T09:43:07Z</time>
      </trkpt>
      <trkpt lat="47.76392" lon="-3.55323">
        <ele>13.4</ele>
        <time>2021-07-11T09:43:08Z</time>
      </trkpt>
      <trkpt lat="47.76392" lon="-3.55321">
        <ele>13.5</ele>
        <time>2021-07-11T09:43:09Z</time>
      </trkpt>
      <trkpt lat="47.76392" lon="-3.5532">
        <ele>13.5</ele>
        <time>2021-07-11T09:43:10Z</time>
      </trkpt>
      <trkpt lat="47.76392" lon="-3.55318">
        <ele>13.6</ele>
        <time>2021-07-11T09:43:11Z</time>
      </trkpt>
      <trkpt lat="47.76391" lon="-3.55316">
        <ele>13.7</ele>
        <time>2021-07-11T09:43:12Z</time>
      </trkpt>
      <trkpt lat="47.76391" lon="-3.55314">
        <ele>13.7</ele>
        <time>2021-07-11T09:43:13Z</time>
      </trkpt>
      <trkpt lat="47.76391" lon="-3.55312">
        <ele>13.8</ele>
        <time>2021-07-11T09:43:14Z</time>
      </trkpt>
      <trkpt lat="47.7639" lon="-3.5531">
        <ele>13.9</ele>
        <time>2021-07-11T09:43:15Z</time>
      </trkpt>
      <trkpt lat="47.7639" lon="-3.55308">
        <ele>13.9</ele>
        <time>2021-07-11T09:43:16Z</time>
      </trkpt>
      <trkpt lat="47.76389" lon="-3.55307">
        <ele>14</ele>
        <time>2021-07-11T09:43:17Z</time>
      </trkpt>
      <trkpt lat="47.76389" lon="-3.55305">
        <ele>14</ele>
        <time>2021-07-11T09:43:18Z</time>
      </trkpt>
      <trkpt lat="47.76389" lon="-3.55303">
        <ele>14.1</ele>
        <time>2021-07-11T09:43:19Z</time>
      </trkpt>
      <trkpt lat="47.76388" lon="-3.55302">
        <ele>14.1</ele>
        <time>2021-07-11T09:43:20Z</time>
      </trkpt>
      <trkpt lat="47.76388" lon="-3.55301">
        <ele>14.2</ele>
        <time>2021-07-11T09:43:21Z</time>
      </trkpt>
      <trkpt lat="47.76387" lon="-3.553">
        <ele>14.2</ele>
        <time>2021-07-11T09:43:22Z</time>
      </trkpt>
      <trkpt lat="47.76387" lon="-3.55299">
        <ele>14.2</ele>
        <time>2021-07-11T09:43:23Z</time>
      </trkpt>
      <trkpt lat="47.76387" lon="-3.55299">
        <ele>14.2</ele>
        <time>2021-07-11T09:43:24Z</time>
      </trkpt>
      <trkpt lat="47.76387" lon="-3.55299">
        <ele>14.2</ele>
        <time>2021-07-11T09:43:25Z</time>
      </trkpt>
      <trkpt lat="47.76387" lon="-3.55299">
        <ele>14.2</ele>
        <time>2021-07-11T09:43:26Z</time>
      </trkpt>
      <trkpt lat="47.76387" lon="-3.55299">
        <ele>14.2</ele>
        <time>2021-07-11T09:43:27Z</time>
      </trkpt>
      <trkpt lat="47.76387" lon="-3.55298">
        <ele>14.2</ele>
        <time>2021-07-11T09:43:28Z</time>
      </trkpt>
      <trkpt lat="47.76386" lon="-3.55297">
        <ele>14.3</ele>
        <time>2021-07-11T09:43:29Z</time>
      </trkpt>
      <trkpt lat="47.76386" lon="-3.55295">
        <ele>14.4</ele>
        <time>2021-07-11T09:43:30Z</time>
      </trkpt>
      <trkpt lat="47.76385" lon="-3.55292">
        <ele>14.4</ele>
        <time>2021-07-11T09:43:31Z</time>
      </trkpt>
      <trkpt lat="47.76385" lon="-3.5529">
        <ele>14.5</ele>
        <time>2021-07-11T09:43:32Z</time>
      </trkpt>
      <trkpt lat="47.76385" lon="-3.55288">
        <ele>14.6</ele>
        <time>2021-07-11T09:43:33Z</time>
      </trkpt>
      <trkpt lat="47.76385" lon="-3.55286">
        <ele>14.6</ele>
        <time>2021-07-11T09:43:34Z</time>
      </trkpt>
      <trkpt lat="47.76385" lon="-3.55284">
        <ele>14.7</ele>
        <time>2021-07-11T09:43:35Z</time>
      </trkpt>
      <trkpt lat="47.76385" lon="-3.55282">
        <ele>14.8</ele>
        <time>2021-07-11T09:43:36Z</time>
      </trkpt>
      <trkpt lat="47.76385" lon="-3.55279">
        <ele>14.8</ele>
        <time>2021-07-11T09:43:37Z</time>
      </trkpt>
      <trkpt lat="47.76385" lon="-3.55277">
        <ele>14.9</ele>
        <time>2021-07-11T09:43:38Z</time>
      </trkpt>
      <trkpt lat="47.76385" lon="-3.55275">
        <ele>15</ele>
        <time>2021-07-11T09:43:39Z</time>
      </trkpt>
      <trkpt lat="47.76385" lon="-3.55273">
        <ele>15.1</ele>
        <time>2021-07-11T09:43:40Z</time>
      </trkpt>
      <trkpt lat="47.76384" lon="-3.55271">
        <ele>15.1</ele>
        <time>2021-07-11T09:43:41Z</time>
      </trkpt>
      <trkpt lat="47.76384" lon="-3.55269">
        <ele>15.2</ele>
        <time>2021-07-11T09:43:42Z</time>
      </trkpt>
      <trkpt lat="47.76383" lon="-3.55267">
        <ele>15.3</ele>
        <time>2021-07-11T09:43:43Z</time>
      </trkpt>
      <trkpt lat="47.76383" lon="-3.55266">
        <ele>15.3</ele>
        <time>2021-07-11T09:43:44Z</time>
      </trkpt>
      <trkpt lat="47.76382" lon="-3.55264">
        <ele>15.4</ele>
        <time>2021-07-11T09:43:45Z</time>
      </trkpt>
      <trkpt lat="47.76382" lon="-3.55262">
        <ele>15.4</ele>
        <time>2021-07-11T09:43:46Z</time>
      </trkpt>
      <trkpt lat="47.76382" lon="-3.55261">
        <ele>15.5</ele>
        <time>2021-07-11T09:43:47Z</time>
      </trkpt>
      <trkpt lat="47.76381" lon="-3.55261">
        <ele>15.5</ele>
        <time>2021-07-11T09:43:48Z</time>
      </trkpt>
      <trkpt lat="47.76381" lon="-3.55261">
        <ele>15.5</ele>
        <time>2021-07-11T09:43:49Z</time>
      </trkpt>
      <trkpt lat="47.76381" lon="-3.55261">
        <ele>15.5</ele>
        <time>2021-07-11T09:43:50Z</time>
      </trkpt>
      <trkpt lat="47.76381" lon="-3.5526">
        <ele>15.5</ele>
        <time>2021-07-11T09:43:51Z</time>
      </trkpt>
      <trkpt lat="47.76381" lon="-3.55258">
        <ele>15.6</ele>
        <time>2021-07-11T09:43:52Z</time>
      </trkpt>
      <trkpt lat="47.76381" lon="-3.55256">
        <ele>15.6</ele>
        <time>2021-07-11T09:43:53Z</time>
      </trkpt>
      <trkpt lat="47.76381" lon="-3.55254">
        <ele>15.7</ele>
        <time>2021-07-11T09:43:54Z</time>
      </trkpt>
      <trkpt lat="47.76381" lon="-3.55252">
        <ele>15.7</ele>
        <time>2021-07-11T09:43:55Z</time>
      </trkpt>
      <trkpt lat="47.76381" lon="-3.5525">
        <ele>15.8</ele>
        <time>2021-07-11T09:43:56Z</time>
      </trkpt>
      <trkpt lat="47.7638" lon="-3.55248">
        <ele>15.8</ele>
        <time>2021-07-11T09:43:57Z</time>
      </trkpt>
      <trkpt lat="47.7638" lon="-3.55246">
        <ele>15.9</ele>
        <time>2021-07-11T09:43:58Z</time>
      </trkpt>
      <trkpt lat="47.7638" lon="-3.55244">
        <ele>15.9</ele>
        <time>2021-07-11T09:43:59Z</time>
      </trkpt>
      <trkpt lat="47.7638" lon="-3.55242">
        <ele>15.9</ele>
        <time>2021-07-11T09:44:00Z</time>
      </trkpt>
      <trkpt lat="47.7638" lon="-3.5524">
        <ele>16</ele>
        <time>2021-07-11T09:44:01Z</time>
      </trkpt>
      <trkpt lat="47.7638" lon="-3.55238">
        <ele>16</ele>
        <time>2021-07-11T09:44:02Z</time>
      </trkpt>
      <trkpt lat="47.7638" lon="-3.55236">
        <ele>16.1</ele>
        <time>2021-07-11T09:44:03Z</time>
      </trkpt>
      <trkpt lat="47.76379" lon="-3.55233">
        <ele>16.1</ele>
        <time>2021-07-11T09:44:04Z</time>
      </trkpt>
      <trkpt lat="47.76379" lon="-3.55231">
        <ele>16.1</ele>
        <time>2021-07-11T09:44:05Z</time>
      </trkpt>
      <trkpt lat="47.76379" lon="-3.5523">
        <ele>16.2</ele>
        <time>2021-07-11T09:44:06Z</time>
      </trkpt>
      <trkpt lat="47.76379" lon="-3.55229">
        <ele>16.2</ele>
        <time>2021-07-11T09:44:07Z</time>
      </trkpt>
      <trkpt lat="47.76379" lon="-3.55227">
        <ele>16.2</ele>
        <time>2021-07-11T09:44:08Z</time>
      </trkpt>
      <trkpt lat="47.76379" lon="-3.55226">
        <ele>16.2</ele>
        <time>2021-07-11T09:44:09Z</time>
      </trkpt>
      <trkpt lat="47.76379" lon="-3.55225">
        <ele>16.2</ele>
        <time>2021-07-11T09:44:10Z</time>
      </trkpt>
      <trkpt lat="47.76379" lon="-3.55223">
        <ele>16.3</ele>
        <time>2021-07-11T09:44:11Z</time>
      </trkpt>
      <trkpt lat="47.76379" lon="-3.55222">
        <ele>16.3</ele>
        <time>2021-07-11T09:44:12Z</time>
      </trkpt>
      <trkpt lat="47.76379" lon="-3.55221">
        <ele>16.3</ele>
        <time>2021-07-11T09:44:13Z</time>
      </trkpt>
      <trkpt lat="47.76379" lon="-3.55219">
        <ele>16.3</ele>
        <time>2021-07-11T09:44:14Z</time>
      </trkpt>
      <trkpt lat="47.76379" lon="-3.55218">
        <ele>16.3</ele>
        <time>2021-07-11T09:44:15Z</time>
      </trkpt>
      <trkpt lat="47.76379" lon="-3.55217">
        <ele>16.4</ele>
        <time>2021-07-11T09:44:16Z</time>
      </trkpt>
      <trkpt lat="47.76379" lon="-3.55215">
        <ele>16.4</ele>
        <time>2021-07-11T09:44:17Z</time>
      </trkpt>
      <trkpt lat="47.76379" lon="-3.55214">
        <ele>16.4</ele>
        <time>2021-07-11T09:44:18Z</time>
      </trkpt>
      <trkpt lat="47.76379" lon="-3.55213">
        <ele>16.4</ele>
        <time>2021-07-11T09:44:19Z</time>
      </trkpt>
      <trkpt lat="47.76378" lon="-3.55211">
        <ele>16.5</ele>
        <time>2021-07-11T09:44:20Z</time>
      </trkpt>
      <trkpt lat="47.76378" lon="-3.5521">
        <ele>16.5</ele>
        <time>2021-07-11T09:44:21Z</time>
      </trkpt>
      <trkpt lat="47.76378" lon="-3.55209">
        <ele>16.5</ele>
        <time>2021-07-11T09:44:22Z</time>
      </trkpt>
      <trkpt lat="47.76378" lon="-3.55208">
        <ele>16.5</ele>
        <time>2021-07-11T09:44:23Z</time>
      </trkpt>
      <trkpt lat="47.76378" lon="-3.55206">
        <ele>16.5</ele>
        <time>2021-07-11T09:44:24Z</time>
      </trkpt>
      <trkpt lat="47.76378" lon="-3.55205">
        <ele>16.6</ele>
        <time>2021-07-11T09:44:25Z</time>
      </trkpt>
      <trkpt lat="47.76378" lon="-3.55204">
        <ele>16.6</ele>
        <time>2021-07-11T09:44:26Z</time>
      </trkpt>
      <trkpt lat="47.76378" lon="-3.55202">
        <ele>16.6</ele>
        <time>2021-07-11T09:44:27Z</time>
      </trkpt>
      <trkpt lat="47.76379" lon="-3.552">
        <ele>16.6</ele>
        <time>2021-07-11T09:44:28Z</time>
      </trkpt>
      <trkpt lat="47.76379" lon="-3.55199">
        <ele>16.7</ele>
        <time>2021-07-11T09:44:29Z</time>
      </trkpt>
      <trkpt lat="47.7638" lon="-3.55199">
        <ele>16.7</ele>
        <time>2021-07-11T09:44:30Z</time>
      </trkpt>
      <trkpt lat="47.7638" lon="-3.55198">
        <ele>16.7</ele>
        <time>2021-07-11T09:44:31Z</time>
      </trkpt>
      <trkpt lat="47.7638" lon="-3.55197">
        <ele>16.7</ele>
        <time>2021-07-11T09:44:32Z</time>
      </trkpt>
      <trkpt lat="47.76381" lon="-3.55196">
        <ele>16.7</ele>
        <time>2021-07-11T09:44:33Z</time>
      </trkpt>
      <trkpt lat="47.76381" lon="-3.55195">
        <ele>16.7</ele>
        <time>2021-07-11T09:44:34Z</time>
      </trkpt>
      <trkpt lat="47.76382" lon="-3.55195">
        <ele>16.7</ele>
        <time>2021-07-11T09:44:35Z</time>
      </trkpt>
      <trkpt lat="47.76382" lon="-3.55194">
        <ele>16.7</ele>
        <time>2021-07-11T09:44:36Z</time>
      </trkpt>
      <trkpt lat="47.76383" lon="-3.55193">
        <ele>16.7</ele>
        <time>2021-07-11T09:44:37Z</time>
      </trkpt>
      <trkpt lat="47.76383" lon="-3.55192">
        <ele>16.7</ele>
        <time>2021-07-11T09:44:38Z</time>
      </trkpt>
      <trkpt lat="47.76384" lon="-3.55191">
        <ele>16.7</ele>
        <time>2021-07-11T09:44:39Z</time>
      </trkpt>
      <trkpt lat="47.76384" lon="-3.5519">
        <ele>16.7</ele>
        <time>2021-07-11T09:44:40Z</time>
      </trkpt>
      <trkpt lat="47.76384" lon="-3.5519">
        <ele>16.7</ele>
        <time>2021-07-11T09:44:41Z</time>
      </trkpt>
      <trkpt lat="47.76385" lon="-3.55189">
        <ele>16.7</ele>
        <time>2021-07-11T09:44:42Z</time>
      </trkpt>
      <trkpt lat="47.76385" lon="-3.55188">
        <ele>16.7</ele>
        <time>2021-07-11T09:44:43Z</time>
      </trkpt>
      <trkpt lat="47.76386" lon="-3.55187">
        <ele>16.8</ele>
        <time>2021-07-11T09:44:44Z</time>
      </trkpt>
      <trkpt lat="47.76386" lon="-3.55186">
        <ele>16.8</ele>
        <time>2021-07-11T09:44:45Z</time>
      </trkpt>
      <trkpt lat="47.76387" lon="-3.55185">
        <ele>16.8</ele>
        <time>2021-07-11T09:44:46Z</time>
      </trkpt>
      <trkpt lat="47.76387" lon="-3.55185">
        <ele>16.8</ele>
        <time>2021-07-11T09:44:47Z</time>
      </trkpt>
      <trkpt lat="47.76387" lon="-3.55184">
        <ele>16.8</ele>
        <time>2021-07-11T09:44:48Z</time>
      </trkpt>
      <trkpt lat="47.76388" lon="-3.55183">
        <ele>16.8</ele>
        <time>2021-07-11T09:44:49Z</time>
      </trkpt>
      <trkpt lat="47.76388" lon="-3.55182">
        <ele>16.8</ele>
        <time>2021-07-11T09:44:50Z</time>
      </trkpt>
      <trkpt lat="47.76389" lon="-3.55181">
        <ele>16.8</ele>
        <time>2021-07-11T09:44:51Z</time>
      </trkpt>
      <trkpt lat="47.76389" lon="-3.5518">
        <ele>16.8</ele>
        <time>2021-07-11T09:44:52Z</time>
      </trkpt>
      <trkpt lat="47.7639" lon="-3.5518">
        <ele>16.8</ele>
        <time>2021-07-11T09:44:53Z</time>
      </trkpt>
      <trkpt lat="47.7639" lon="-3.55179">
        <ele>16.8</ele>
        <time>2021-07-11T09:44:54Z</time>
      </trkpt>
      <trkpt lat="47.76391" lon="-3.55178">
        <ele>16.8</ele>
        <time>2021-07-11T09:44:55Z</time>
      </trkpt>
      <trkpt lat="47.76391" lon="-3.55177">
        <ele>16.8</ele>
        <time>2021-07-11T09:44:56Z</time>
      </trkpt>
      <trkpt lat="47.76391" lon="-3.55176">
        <ele>16.8</ele>
        <time>2021-07-11T09:44:57Z</time>
      </trkpt>
      <trkpt lat="47.76392" lon="-3.55175">
        <ele>16.8</ele>
        <time>2021-07-11T09:44:58Z</time>
      </trkpt>
      <trkpt lat="47.76392" lon="-3.55175">
        <ele>16.8</ele>
        <time>2021-07-11T09:44:59Z</time>
      </trkpt>
      <trkpt lat="47.76394" lon="-3.55174">
        <ele>16.8</ele>
        <time>2021-07-11T09:45:00Z</time>
      </trkpt>
      <trkpt lat="47.76395" lon="-3.55173">
        <ele>16.8</ele>
        <time>2021-07-11T09:45:01Z</time>
      </trkpt>
      <trkpt lat="47.76397" lon="-3.55173">
        <ele>16.8</ele>
        <time>2021-07-11T09:45:02Z</time>
      </trkpt>
      <trkpt lat="47.76398" lon="-3.55172">
        <ele>16.8</ele>
        <time>2021-07-11T09:45:03Z</time>
      </trkpt>
      <trkpt lat="47.76399" lon="-3.55172">
        <ele>16.8</ele>
        <time>2021-07-11T09:45:04Z</time>
      </trkpt>
      <trkpt lat="47.76401" lon="-3.55171">
        <ele>16.7</ele>
        <time>2021-07-11T09:45:05Z</time>
      </trkpt>
      <trkpt lat="47.76403" lon="-3.55171">
        <ele>16.6</ele>
        <time>2021-07-11T09:45:06Z</time>
      </trkpt>
      <trkpt lat="47.76404" lon="-3.5517">
        <ele>16.6</ele>
        <time>2021-07-11T09:45:07Z</time>
      </trkpt>
      <trkpt lat="47.76406" lon="-3.5517">
        <ele>16.5</ele>
        <time>2021-07-11T09:45:08Z</time>
      </trkpt>
      <trkpt lat="47.76407" lon="-3.55169">
        <ele>16.5</ele>
        <time>2021-07-11T09:45:09Z</time>
      </trkpt>
      <trkpt lat="47.76408" lon="-3.55169">
        <ele>16.4</ele>
        <time>2021-07-11T09:45:10Z</time>
      </trkpt>
      <trkpt lat="47.76409" lon="-3.55169">
        <ele>16.4</ele>
        <time>2021-07-11T09:45:11Z</time>
      </trkpt>
      <trkpt lat="47.7641" lon="-3.55169">
        <ele>16.3</ele>
        <time>2021-07-11T09:45:12Z</time>
      </trkpt>
      <trkpt lat="47.7641" lon="-3.55169">
        <ele>16.3</ele>
        <time>2021-07-11T09:45:13Z</time>
      </trkpt>
      <trkpt lat="47.7641" lon="-3.55169">
        <ele>16.3</ele>
        <time>2021-07-11T09:45:14Z</time>
      </trkpt>
      <trkpt lat="47.7641" lon="-3.55169">
        <ele>16.3</ele>
        <time>2021-07-11T09:45:15Z</time>
      </trkpt>
      <trkpt lat="47.76411" lon="-3.55169">
        <ele>16.3</ele>
        <time>2021-07-11T09:45:16Z</time>
      </trkpt>
      <trkpt lat="47.76411" lon="-3.55169">
        <ele>16.3</ele>
        <time>2021-07-11T09:45:17Z</time>
      </trkpt>
      <trkpt lat="47.76411" lon="-3.55169">
        <ele>16.3</ele>
        <time>2021-07-11T09:45:18Z</time>
      </trkpt>
      <trkpt lat="47.76412" lon="-3.55169">
        <ele>16.2</ele>
        <time>2021-07-11T09:45:19Z</time>
      </trkpt>
      <trkpt lat="47.76416" lon="-3.55168">
        <ele>16</ele>
        <time>2021-07-11T09:45:20Z</time>
      </trkpt>
      <trkpt lat="47.76419" lon="-3.55168">
        <ele>15.8</ele>
        <time>2021-07-11T09:45:21Z</time>
      </trkpt>
      <trkpt lat="47.76422" lon="-3.55167">
        <ele>15.6</ele>
        <time>2021-07-11T09:45:22Z</time>
      </trkpt>
      <trkpt lat="47.76423" lon="-3.55167">
        <ele>15.5</ele>
        <time>2021-07-11T09:45:23Z</time>
      </trkpt>
      <trkpt lat="47.76424" lon="-3.55167">
        <ele>15.5</ele>
        <time>2021-07-11T09:45:24Z</time>
      </trkpt>
      <trkpt lat="47.76424" lon="-3.55167">
        <ele>15.5</ele>
        <time>2021-07-11T09:45:25Z</time>
      </trkpt>
      <trkpt lat="47.76425" lon="-3.55167">
        <ele>15.4</ele>
        <time>2021-07-11T09:45:26Z</time>
      </trkpt>
      <trkpt lat="47.76426" lon="-3.55167">
        <ele>15.3</ele>
        <time>2021-07-11T09:45:27Z</time>
      </trkpt>
      <trkpt lat="47.76428" lon="-3.55167">
        <ele>15.2</ele>
        <time>2021-07-11T09:45:28Z</time>
      </trkpt>
      <trkpt lat="47.76429" lon="-3.55167">
        <ele>15.1</ele>
        <time>2021-07-11T09:45:29Z</time>
      </trkpt>
      <trkpt lat="47.7643" lon="-3.55166">
        <ele>15</ele>
        <time>2021-07-11T09:45:30Z</time>
      </trkpt>
      <trkpt lat="47.76431" lon="-3.55166">
        <ele>14.9</ele>
        <time>2021-07-11T09:45:31Z</time>
      </trkpt>
      <trkpt lat="47.76432" lon="-3.55166">
        <ele>14.8</ele>
        <time>2021-07-11T09:45:32Z</time>
      </trkpt>
      <trkpt lat="47.76433" lon="-3.55166">
        <ele>14.7</ele>
        <time>2021-07-11T09:45:33Z</time>
      </trkpt>
      <trkpt lat="47.76434" lon="-3.55166">
        <ele>14.6</ele>
        <time>2021-07-11T09:45:34Z</time>
      </trkpt>
      <trkpt lat="47.76435" lon="-3.55166">
        <ele>14.5</ele>
        <time>2021-07-11T09:45:35Z</time>
      </trkpt>
      <trkpt lat="47.76437" lon="-3.55165">
        <ele>14.3</ele>
        <time>2021-07-11T09:45:36Z</time>
      </trkpt>
      <trkpt lat="47.76438" lon="-3.55165">
        <ele>14.2</ele>
        <time>2021-07-11T09:45:37Z</time>
      </trkpt>
      <trkpt lat="47.7644" lon="-3.55165">
        <ele>14</ele>
        <time>2021-07-11T09:45:38Z</time>
      </trkpt>
      <trkpt lat="47.76441" lon="-3.55164">
        <ele>13.8</ele>
        <time>2021-07-11T09:45:39Z</time>
      </trkpt>
      <trkpt lat="47.76442" lon="-3.55164">
        <ele>13.7</ele>
        <time>2021-07-11T09:45:40Z</time>
      </trkpt>
      <trkpt lat="47.76443" lon="-3.55164">
        <ele>13.6</ele>
        <time>2021-07-11T09:45:41Z</time>
      </trkpt>
      <trkpt lat="47.76444" lon="-3.55164">
        <ele>13.5</ele>
        <time>2021-07-11T09:45:42Z</time>
      </trkpt>
      <trkpt lat="47.76445" lon="-3.55163">
        <ele>13.4</ele>
        <time>2021-07-11T09:45:43Z</time>
      </trkpt>
      <trkpt lat="47.76447" lon="-3.55163">
        <ele>13.2</ele>
        <time>2021-07-11T09:45:44Z</time>
      </trkpt>
      <trkpt lat="47.76448" lon="-3.55163">
        <ele>13.1</ele>
        <time>2021-07-11T09:45:45Z</time>
      </trkpt>
      <trkpt lat="47.76449" lon="-3.55162">
        <ele>12.9</ele>
        <time>2021-07-11T09:45:46Z</time>
      </trkpt>
      <trkpt lat="47.7645" lon="-3.55162">
        <ele>12.8</ele>
        <time>2021-07-11T09:45:47Z</time>
      </trkpt>
      <trkpt lat="47.76451" lon="-3.55162">
        <ele>12.6</ele>
        <time>2021-07-11T09:45:48Z</time>
      </trkpt>
      <trkpt lat="47.76452" lon="-3.55161">
        <ele>12.5</ele>
        <time>2021-07-11T09:45:49Z</time>
      </trkpt>
      <trkpt lat="47.76453" lon="-3.55161">
        <ele>12.4</ele>
        <time>2021-07-11T09:45:50Z</time>
      </trkpt>
      <trkpt lat="47.76454" lon="-3.55161">
        <ele>12.2</ele>
        <time>2021-07-11T09:45:51Z</time>
      </trkpt>
      <trkpt lat="47.76456" lon="-3.5516">
        <ele>12.1</ele>
        <time>2021-07-11T09:45:52Z</time>
      </trkpt>
      <trkpt lat="47.76457" lon="-3.5516">
        <ele>11.9</ele>
        <time>2021-07-11T09:45:53Z</time>
      </trkpt>
      <trkpt lat="47.76458" lon="-3.5516">
        <ele>11.8</ele>
        <time>2021-07-11T09:45:54Z</time>
      </trkpt>
      <trkpt lat="47.76459" lon="-3.55159">
        <ele>11.7</ele>
        <time>2021-07-11T09:45:55Z</time>
      </trkpt>
      <trkpt lat="47.7646" lon="-3.55159">
        <ele>11.5</ele>
        <time>2021-07-11T09:45:56Z</time>
      </trkpt>
      <trkpt lat="47.76462" lon="-3.55159">
        <ele>11.3</ele>
        <time>2021-07-11T09:45:57Z</time>
      </trkpt>
      <trkpt lat="47.76463" lon="-3.55159">
        <ele>11.2</ele>
        <time>2021-07-11T09:45:58Z</time>
      </trkpt>
      <trkpt lat="47.76464" lon="-3.55159">
        <ele>11</ele>
        <time>2021-07-11T09:45:59Z</time>
      </trkpt>
      <trkpt lat="47.76465" lon="-3.55159">
        <ele>10.9</ele>
        <time>2021-07-11T09:46:00Z</time>
      </trkpt>
      <trkpt lat="47.76466" lon="-3.55158">
        <ele>10.8</ele>
        <time>2021-07-11T09:46:01Z</time>
      </trkpt>
      <trkpt lat="47.76467" lon="-3.55158">
        <ele>10.7</ele>
        <time>2021-07-11T09:46:02Z</time>
      </trkpt>
      <trkpt lat="47.76469" lon="-3.55158">
        <ele>10.5</ele>
        <time>2021-07-11T09:46:03Z</time>
      </trkpt>
      <trkpt lat="47.7647" lon="-3.55158">
        <ele>10.3</ele>
        <time>2021-07-11T09:46:04Z</time>
      </trkpt>
      <trkpt lat="47.76471" lon="-3.55158">
        <ele>10.3</ele>
        <time>2021-07-11T09:46:05Z</time>
      </trkpt>
      <trkpt lat="47.76472" lon="-3.55158">
        <ele>10.2</ele>
        <time>2021-07-11T09:46:06Z</time>
      </trkpt>
      <trkpt lat="47.76473" lon="-3.55158">
        <ele>10.1</ele>
        <time>2021-07-11T09:46:07Z</time>
      </trkpt>
      <trkpt lat="47.76474" lon="-3.55158">
        <ele>10</ele>
        <time>2021-07-11T09:46:08Z</time>
      </trkpt>
      <trkpt lat="47.76475" lon="-3.55158">
        <ele>9.9</ele>
        <time>2021-07-11T09:46:09Z</time>
      </trkpt>
      <trkpt lat="47.76476" lon="-3.55158">
        <ele>9.8</ele>
        <time>2021-07-11T09:46:10Z</time>
      </trkpt>
      <trkpt lat="47.76477" lon="-3.55158">
        <ele>9.8</ele>
        <time>2021-07-11T09:46:11Z</time>
      </trkpt>
      <trkpt lat="47.76478" lon="-3.55158">
        <ele>9.7</ele>
        <time>2021-07-11T09:46:12Z</time>
      </trkpt>
      <trkpt lat="47.76479" lon="-3.55158">
        <ele>9.6</ele>
        <time>2021-07-11T09:46:13Z</time>
      </trkpt>
      <trkpt lat="47.7648" lon="-3.55158">
        <ele>9.6</ele>
        <time>2021-07-11T09:46:14Z</time>
      </trkpt>
      <trkpt lat="47.76481" lon="-3.55158">
        <ele>9.5</ele>
        <time>2021-07-11T09:46:15Z</time>
      </trkpt>
      <trkpt lat="47.76483" lon="-3.55158">
        <ele>9.4</ele>
        <time>2021-07-11T09:46:16Z</time>
      </trkpt>
      <trkpt lat="47.76485" lon="-3.55158">
        <ele>9.4</ele>
        <time>2021-07-11T09:46:17Z</time>
      </trkpt>
      <trkpt lat="47.76486" lon="-3.55158">
        <ele>9.5</ele>
        <time>2021-07-11T09:46:18Z</time>
      </trkpt>
      <trkpt lat="47.76487" lon="-3.55158">
        <ele>9.6</ele>
        <time>2021-07-11T09:46:19Z</time>
      </trkpt>
      <trkpt lat="47.76488" lon="-3.55158">
        <ele>9.6</ele>
        <time>2021-07-11T09:46:20Z</time>
      </trkpt>
      <trkpt lat="47.76489" lon="-3.55158">
        <ele>9.7</ele>
        <time>2021-07-11T09:46:21Z</time>
      </trkpt>
      <trkpt lat="47.7649" lon="-3.55158">
        <ele>9.7</ele>
        <time>2021-07-11T09:46:22Z</time>
      </trkpt>
      <trkpt lat="47.76492" lon="-3.55158">
        <ele>9.8</ele>
        <time>2021-07-11T09:46:23Z</time>
      </trkpt>
      <trkpt lat="47.76493" lon="-3.55158">
        <ele>9.9</ele>
        <time>2021-07-11T09:46:24Z</time>
      </trkpt>
      <trkpt lat="47.76494" lon="-3.55159">
        <ele>9.9</ele>
        <time>2021-07-11T09:46:25Z</time>
      </trkpt>
      <trkpt lat="47.76495" lon="-3.55159">
        <ele>10</ele>
        <time>2021-07-11T09:46:26Z</time>
      </trkpt>
      <trkpt lat="47.76496" lon="-3.55159">
        <ele>10.1</ele>
        <time>2021-07-11T09:46:27Z</time>
      </trkpt>
      <trkpt lat="47.76497" lon="-3.55159">
        <ele>10.2</ele>
        <time>2021-07-11T09:46:28Z</time>
      </trkpt>
      <trkpt lat="47.76498" lon="-3.55158">
        <ele>10.2</ele>
        <time>2021-07-11T09:46:29Z</time>
      </trkpt>
      <trkpt lat="47.76498" lon="-3.55158">
        <ele>10.2</ele>
        <time>2021-07-11T09:46:30Z</time>
      </trkpt>
      <trkpt lat="47.76499" lon="-3.55158">
        <ele>10.3</ele>
        <time>2021-07-11T09:46:31Z</time>
      </trkpt>
      <trkpt lat="47.765" lon="-3.55157">
        <ele>10.4</ele>
        <time>2021-07-11T09:46:32Z</time>
      </trkpt>
      <trkpt lat="47.76502" lon="-3.55156">
        <ele>10.6</ele>
        <time>2021-07-11T09:46:33Z</time>
      </trkpt>
      <trkpt lat="47.76503" lon="-3.55155">
        <ele>10.7</ele>
        <time>2021-07-11T09:46:34Z</time>
      </trkpt>
      <trkpt lat="47.76505" lon="-3.55154">
        <ele>10.8</ele>
        <time>2021-07-11T09:46:35Z</time>
      </trkpt>
      <trkpt lat="47.76506" lon="-3.55152">
        <ele>10.9</ele>
        <time>2021-07-11T09:46:36Z</time>
      </trkpt>
      <trkpt lat="47.76507" lon="-3.55151">
        <ele>11.1</ele>
        <time>2021-07-11T09:46:37Z</time>
      </trkpt>
      <trkpt lat="47.76508" lon="-3.5515">
        <ele>11.2</ele>
        <time>2021-07-11T09:46:38Z</time>
      </trkpt>
      <trkpt lat="47.76509" lon="-3.55148">
        <ele>11.2</ele>
        <time>2021-07-11T09:46:39Z</time>
      </trkpt>
      <trkpt lat="47.76509" lon="-3.55147">
        <ele>11.3</ele>
        <time>2021-07-11T09:46:40Z</time>
      </trkpt>
      <trkpt lat="47.76509" lon="-3.55147">
        <ele>11.3</ele>
        <time>2021-07-11T09:46:41Z</time>
      </trkpt>
      <trkpt lat="47.7651" lon="-3.55146">
        <ele>11.4</ele>
        <time>2021-07-11T09:46:42Z</time>
      </trkpt>
      <trkpt lat="47.7651" lon="-3.55146">
        <ele>11.4</ele>
        <time>2021-07-11T09:46:43Z</time>
      </trkpt>
      <trkpt lat="47.7651" lon="-3.55145">
        <ele>11.4</ele>
        <time>2021-07-11T09:46:44Z</time>
      </trkpt>
      <trkpt lat="47.76511" lon="-3.55144">
        <ele>11.5</ele>
        <time>2021-07-11T09:46:45Z</time>
      </trkpt>
      <trkpt lat="47.76512" lon="-3.55142">
        <ele>11.6</ele>
        <time>2021-07-11T09:46:46Z</time>
      </trkpt>
      <trkpt lat="47.76513" lon="-3.55141">
        <ele>11.7</ele>
        <time>2021-07-11T09:46:47Z</time>
      </trkpt>
      <trkpt lat="47.76514" lon="-3.5514">
        <ele>11.8</ele>
        <time>2021-07-11T09:46:48Z</time>
      </trkpt>
      <trkpt lat="47.76515" lon="-3.55139">
        <ele>11.9</ele>
        <time>2021-07-11T09:46:49Z</time>
      </trkpt>
      <trkpt lat="47.76516" lon="-3.55138">
        <ele>11.9</ele>
        <time>2021-07-11T09:46:50Z</time>
      </trkpt>
      <trkpt lat="47.76517" lon="-3.55137">
        <ele>12</ele>
        <time>2021-07-11T09:46:51Z</time>
      </trkpt>
      <trkpt lat="47.76518" lon="-3.55136">
        <ele>12.1</ele>
        <time>2021-07-11T09:46:52Z</time>
      </trkpt>
      <trkpt lat="47.7652" lon="-3.55135">
        <ele>12.2</ele>
        <time>2021-07-11T09:46:53Z</time>
      </trkpt>
      <trkpt lat="47.76521" lon="-3.55134">
        <ele>12.2</ele>
        <time>2021-07-11T09:46:54Z</time>
      </trkpt>
      <trkpt lat="47.76522" lon="-3.55132">
        <ele>12.3</ele>
        <time>2021-07-11T09:46:55Z</time>
      </trkpt>
      <trkpt lat="47.76523" lon="-3.55131">
        <ele>12.4</ele>
        <time>2021-07-11T09:46:56Z</time>
      </trkpt>
      <trkpt lat="47.76524" lon="-3.5513">
        <ele>12.4</ele>
        <time>2021-07-11T09:46:57Z</time>
      </trkpt>
      <trkpt lat="47.76525" lon="-3.55129">
        <ele>12.5</ele>
        <time>2021-07-11T09:46:58Z</time>
      </trkpt>
      <trkpt lat="47.76526" lon="-3.55128">
        <ele>12.5</ele>
        <time>2021-07-11T09:46:59Z</time>
      </trkpt>
      <trkpt lat="47.76527" lon="-3.55127">
        <ele>12.5</ele>
        <time>2021-07-11T09:47:00Z</time>
      </trkpt>
      <trkpt lat="47.76528" lon="-3.55126">
        <ele>12.5</ele>
        <time>2021-07-11T09:47:01Z</time>
      </trkpt>
      <trkpt lat="47.76529" lon="-3.55125">
        <ele>12.6</ele>
        <time>2021-07-11T09:47:02Z</time>
      </trkpt>
      <trkpt lat="47.7653" lon="-3.55125">
        <ele>12.6</ele>
        <time>2021-07-11T09:47:03Z</time>
      </trkpt>
      <trkpt lat="47.76531" lon="-3.55124">
        <ele>12.6</ele>
        <time>2021-07-11T09:47:04Z</time>
      </trkpt>
      <trkpt lat="47.76533" lon="-3.55123">
        <ele>12.6</ele>
        <time>2021-07-11T09:47:05Z</time>
      </trkpt>
      <trkpt lat="47.76534" lon="-3.55122">
        <ele>12.6</ele>
        <time>2021-07-11T09:47:06Z</time>
      </trkpt>
      <trkpt lat="47.76535" lon="-3.55122">
        <ele>12.7</ele>
        <time>2021-07-11T09:47:07Z</time>
      </trkpt>
      <trkpt lat="47.76536" lon="-3.55121">
        <ele>12.7</ele>
        <time>2021-07-11T09:47:08Z</time>
      </trkpt>
      <trkpt lat="47.76538" lon="-3.5512">
        <ele>12.7</ele>
        <time>2021-07-11T09:47:09Z</time>
      </trkpt>
      <trkpt lat="47.76539" lon="-3.5512">
        <ele>12.7</ele>
        <time>2021-07-11T09:47:10Z</time>
      </trkpt>
      <trkpt lat="47.76541" lon="-3.55119">
        <ele>12.7</ele>
        <time>2021-07-11T09:47:11Z</time>
      </trkpt>
      <trkpt lat="47.76542" lon="-3.55118">
        <ele>12.8</ele>
        <time>2021-07-11T09:47:12Z</time>
      </trkpt>
      <trkpt lat="47.76543" lon="-3.55117">
        <ele>12.8</ele>
        <time>2021-07-11T09:47:13Z</time>
      </trkpt>
      <trkpt lat="47.76545" lon="-3.55117">
        <ele>12.8</ele>
        <time>2021-07-11T09:47:14Z</time>
      </trkpt>
      <trkpt lat="47.76546" lon="-3.55116">
        <ele>12.8</ele>
        <time>2021-07-11T09:47:15Z</time>
      </trkpt>
      <trkpt lat="47.76548" lon="-3.55115">
        <ele>12.8</ele>
        <time>2021-07-11T09:47:16Z</time>
      </trkpt>
      <trkpt lat="47.76549" lon="-3.55114">
        <ele>12.9</ele>
        <time>2021-07-11T09:47:17Z</time>
      </trkpt>
      <trkpt lat="47.7655" lon="-3.55113">
        <ele>12.9</ele>
        <time>2021-07-11T09:47:18Z</time>
      </trkpt>
      <trkpt lat="47.76552" lon="-3.55112">
        <ele>12.9</ele>
        <time>2021-07-11T09:47:19Z</time>
      </trkpt>
      <trkpt lat="47.76553" lon="-3.55111">
        <ele>12.9</ele>
        <time>2021-07-11T09:47:20Z</time>
      </trkpt>
      <trkpt lat="47.76554" lon="-3.5511">
        <ele>12.9</ele>
        <time>2021-07-11T09:47:21Z</time>
      </trkpt>
      <trkpt lat="47.76554" lon="-3.5511">
        <ele>12.9</ele>
        <time>2021-07-11T09:47:22Z</time>
      </trkpt>
      <trkpt lat="47.76554" lon="-3.5511">
        <ele>12.9</ele>
        <time>2021-07-11T09:47:23Z</time>
      </trkpt>
      <trkpt lat="47.76555" lon="-3.55109">
        <ele>12.9</ele>
        <time>2021-07-11T09:47:24Z</time>
      </trkpt>
      <trkpt lat="47.76556" lon="-3.55108">
        <ele>13</ele>
        <time>2021-07-11T09:47:25Z</time>
      </trkpt>
      <trkpt lat="47.76557" lon="-3.55107">
        <ele>13</ele>
        <time>2021-07-11T09:47:26Z</time>
      </trkpt>
      <trkpt lat="47.76559" lon="-3.55106">
        <ele>13</ele>
        <time>2021-07-11T09:47:27Z</time>
      </trkpt>
      <trkpt lat="47.7656" lon="-3.55104">
        <ele>13</ele>
        <time>2021-07-11T09:47:28Z</time>
      </trkpt>
      <trkpt lat="47.76562" lon="-3.55103">
        <ele>13</ele>
        <time>2021-07-11T09:47:29Z</time>
      </trkpt>
      <trkpt lat="47.76563" lon="-3.55102">
        <ele>13.1</ele>
        <time>2021-07-11T09:47:30Z</time>
      </trkpt>
      <trkpt lat="47.76564" lon="-3.55101">
        <ele>13.1</ele>
        <time>2021-07-11T09:47:31Z</time>
      </trkpt>
      <trkpt lat="47.76565" lon="-3.551">
        <ele>13.1</ele>
        <time>2021-07-11T09:47:32Z</time>
      </trkpt>
      <trkpt lat="47.76566" lon="-3.55099">
        <ele>13.1</ele>
        <time>2021-07-11T09:47:33Z</time>
      </trkpt>
      <trkpt lat="47.76567" lon="-3.55097">
        <ele>13.1</ele>
        <time>2021-07-11T09:47:34Z</time>
      </trkpt>
      <trkpt lat="47.76568" lon="-3.55096">
        <ele>13.1</ele>
        <time>2021-07-11T09:47:35Z</time>
      </trkpt>
      <trkpt lat="47.76569" lon="-3.55094">
        <ele>13.2</ele>
        <time>2021-07-11T09:47:36Z</time>
      </trkpt>
      <trkpt lat="47.7657" lon="-3.55092">
        <ele>13.2</ele>
        <time>2021-07-11T09:47:37Z</time>
      </trkpt>
      <trkpt lat="47.76571" lon="-3.5509">
        <ele>13.2</ele>
        <time>2021-07-11T09:47:38Z</time>
      </trkpt>
      <trkpt lat="47.76572" lon="-3.55089">
        <ele>13.2</ele>
        <time>2021-07-11T09:47:39Z</time>
      </trkpt>
      <trkpt lat="47.76573" lon="-3.55087">
        <ele>13.2</ele>
        <time>2021-07-11T09:47:40Z</time>
      </trkpt>
      <trkpt lat="47.76574" lon="-3.55086">
        <ele>13.2</ele>
        <time>2021-07-11T09:47:41Z</time>
      </trkpt>
      <trkpt lat="47.76574" lon="-3.55084">
        <ele>13.3</ele>
        <time>2021-07-11T09:47:42Z</time>
      </trkpt>
      <trkpt lat="47.76575" lon="-3.55083">
        <ele>13.3</ele>
        <time>2021-07-11T09:47:43Z</time>
      </trkpt>
      <trkpt lat="47.76576" lon="-3.55081">
        <ele>13.3</ele>
        <time>2021-07-11T09:47:44Z</time>
      </trkpt>
      <trkpt lat="47.76576" lon="-3.5508">
        <ele>13.3</ele>
        <time>2021-07-11T09:47:45Z</time>
      </trkpt>
      <trkpt lat="47.76577" lon="-3.55078">
        <ele>13.3</ele>
        <time>2021-07-11T09:47:46Z</time>
      </trkpt>
      <trkpt lat="47.76578" lon="-3.55077">
        <ele>13.3</ele>
        <time>2021-07-11T09:47:47Z</time>
      </trkpt>
      <trkpt lat="47.76578" lon="-3.55075">
        <ele>13.4</ele>
        <time>2021-07-11T09:47:48Z</time>
      </trkpt>
      <trkpt lat="47.76579" lon="-3.55074">
        <ele>13.4</ele>
        <time>2021-07-11T09:47:49Z</time>
      </trkpt>
      <trkpt lat="47.7658" lon="-3.55073">
        <ele>13.4</ele>
        <time>2021-07-11T09:47:50Z</time>
      </trkpt>
      <trkpt lat="47.7658" lon="-3.55071">
        <ele>13.4</ele>
        <time>2021-07-11T09:47:51Z</time>
      </trkpt>
      <trkpt lat="47.76581" lon="-3.5507">
        <ele>13.4</ele>
        <time>2021-07-11T09:47:52Z</time>
      </trkpt>
      <trkpt lat="47.76582" lon="-3.55068">
        <ele>13.4</ele>
        <time>2021-07-11T09:47:53Z</time>
      </trkpt>
      <trkpt lat="47.76582" lon="-3.55067">
        <ele>13.5</ele>
        <time>2021-07-11T09:47:54Z</time>
      </trkpt>
      <trkpt lat="47.76583" lon="-3.55065">
        <ele>13.5</ele>
        <time>2021-07-11T09:47:55Z</time>
      </trkpt>
      <trkpt lat="47.76584" lon="-3.55063">
        <ele>13.5</ele>
        <time>2021-07-11T09:47:56Z</time>
      </trkpt>
      <trkpt lat="47.76585" lon="-3.55062">
        <ele>13.5</ele>
        <time>2021-07-11T09:47:57Z</time>
      </trkpt>
      <trkpt lat="47.76586" lon="-3.5506">
        <ele>13.5</ele>
        <time>2021-07-11T09:47:58Z</time>
      </trkpt>
      <trkpt lat="47.76586" lon="-3.55058">
        <ele>13.6</ele>
        <time>2021-07-11T09:47:59Z</time>
      </trkpt>
      <trkpt lat="47.76587" lon="-3.55057">
        <ele>13.6</ele>
        <time>2021-07-11T09:48:00Z</time>
      </trkpt>
      <trkpt lat="47.76588" lon="-3.55055">
        <ele>13.6</ele>
        <time>2021-07-11T09:48:01Z</time>
      </trkpt>
      <trkpt lat="47.76589" lon="-3.55054">
        <ele>13.6</ele>
        <time>2021-07-11T09:48:02Z</time>
      </trkpt>
      <trkpt lat="47.76589" lon="-3.55052">
        <ele>13.6</ele>
        <time>2021-07-11T09:48:03Z</time>
      </trkpt>
      <trkpt lat="47.76591" lon="-3.5505">
        <ele>13.6</ele>
        <time>2021-07-11T09:48:04Z</time>
      </trkpt>
      <trkpt lat="47.76591" lon="-3.55049">
        <ele>13.7</ele>
        <time>2021-07-11T09:48:05Z</time>
      </trkpt>
      <trkpt lat="47.76592" lon="-3.55048">
        <ele>13.7</ele>
        <time>2021-07-11T09:48:06Z</time>
      </trkpt>
      <trkpt lat="47.76592" lon="-3.55047">
        <ele>13.7</ele>
        <time>2021-07-11T09:48:07Z</time>
      </trkpt>
      <trkpt lat="47.76593" lon="-3.55046">
        <ele>13.7</ele>
        <time>2021-07-11T09:48:08Z</time>
      </trkpt>
      <trkpt lat="47.76593" lon="-3.55045">
        <ele>13.7</ele>
        <time>2021-07-11T09:48:09Z</time>
      </trkpt>
      <trkpt lat="47.76594" lon="-3.55044">
        <ele>13.7</ele>
        <time>2021-07-11T09:48:10Z</time>
      </trkpt>
      <trkpt lat="47.76594" lon="-3.55043">
        <ele>13.7</ele>
        <time>2021-07-11T09:48:11Z</time>
      </trkpt>
      <trkpt lat="47.76595" lon="-3.55041">
        <ele>13.7</ele>
        <time>2021-07-11T09:48:12Z</time>
      </trkpt>
      <trkpt lat="47.76595" lon="-3.5504">
        <ele>13.7</ele>
        <time>2021-07-11T09:48:13Z</time>
      </trkpt>
      <trkpt lat="47.76596" lon="-3.55039">
        <ele>13.7</ele>
        <time>2021-07-11T09:48:14Z</time>
      </trkpt>
      <trkpt lat="47.76596" lon="-3.55038">
        <ele>13.7</ele>
        <time>2021-07-11T09:48:15Z</time>
      </trkpt>
      <trkpt lat="47.76597" lon="-3.55037">
        <ele>13.8</ele>
        <time>2021-07-11T09:48:16Z</time>
      </trkpt>
      <trkpt lat="47.76597" lon="-3.55036">
        <ele>13.8</ele>
        <time>2021-07-11T09:48:17Z</time>
      </trkpt>
      <trkpt lat="47.76598" lon="-3.55035">
        <ele>13.8</ele>
        <time>2021-07-11T09:48:18Z</time>
      </trkpt>
      <trkpt lat="47.76598" lon="-3.55034">
        <ele>13.8</ele>
        <time>2021-07-11T09:48:19Z</time>
      </trkpt>
      <trkpt lat="47.76599" lon="-3.55033">
        <ele>13.8</ele>
        <time>2021-07-11T09:48:20Z</time>
      </trkpt>
      <trkpt lat="47.76599" lon="-3.55032">
        <ele>13.8</ele>
        <time>2021-07-11T09:48:21Z</time>
      </trkpt>
      <trkpt lat="47.766" lon="-3.55031">
        <ele>13.8</ele>
        <time>2021-07-11T09:48:22Z</time>
      </trkpt>
      <trkpt lat="47.766" lon="-3.5503">
        <ele>13.8</ele>
        <time>2021-07-11T09:48:23Z</time>
      </trkpt>
      <trkpt lat="47.76601" lon="-3.55029">
        <ele>13.8</ele>
        <time>2021-07-11T09:48:24Z</time>
      </trkpt>
      <trkpt lat="47.76601" lon="-3.55028">
        <ele>13.8</ele>
        <time>2021-07-11T09:48:25Z</time>
      </trkpt>
      <trkpt lat="47.76602" lon="-3.55027">
        <ele>13.9</ele>
        <time>2021-07-11T09:48:26Z</time>
      </trkpt>
      <trkpt lat="47.76602" lon="-3.55026">
        <ele>13.9</ele>
        <time>2021-07-11T09:48:27Z</time>
      </trkpt>
      <trkpt lat="47.76603" lon="-3.55025">
        <ele>13.9</ele>
        <time>2021-07-11T09:48:28Z</time>
      </trkpt>
      <trkpt lat="47.76603" lon="-3.55024">
        <ele>13.9</ele>
        <time>2021-07-11T09:48:29Z</time>
      </trkpt>
      <trkpt lat="47.76604" lon="-3.55023">
        <ele>13.9</ele>
        <time>2021-07-11T09:48:30Z</time>
      </trkpt>
      <trkpt lat="47.76604" lon="-3.55022">
        <ele>13.9</ele>
        <time>2021-07-11T09:48:31Z</time>
      </trkpt>
      <trkpt lat="47.76605" lon="-3.55021">
        <ele>13.9</ele>
        <time>2021-07-11T09:48:32Z</time>
      </trkpt>
      <trkpt lat="47.76605" lon="-3.5502">
        <ele>13.9</ele>
        <time>2021-07-11T09:48:33Z</time>
      </trkpt>
      <trkpt lat="47.76606" lon="-3.55019">
        <ele>13.9</ele>
        <time>2021-07-11T09:48:34Z</time>
      </trkpt>
      <trkpt lat="47.76606" lon="-3.55018">
        <ele>13.9</ele>
        <time>2021-07-11T09:48:35Z</time>
      </trkpt>
      <trkpt lat="47.76607" lon="-3.55017">
        <ele>13.9</ele>
        <time>2021-07-11T09:48:36Z</time>
      </trkpt>
      <trkpt lat="47.76607" lon="-3.55015">
        <ele>14</ele>
        <time>2021-07-11T09:48:37Z</time>
      </trkpt>
      <trkpt lat="47.76608" lon="-3.55014">
        <ele>14</ele>
        <time>2021-07-11T09:48:38Z</time>
      </trkpt>
      <trkpt lat="47.76608" lon="-3.55013">
        <ele>14</ele>
        <time>2021-07-11T09:48:39Z</time>
      </trkpt>
      <trkpt lat="47.76609" lon="-3.55012">
        <ele>14</ele>
        <time>2021-07-11T09:48:40Z</time>
      </trkpt>
      <trkpt lat="47.76609" lon="-3.55011">
        <ele>14</ele>
        <time>2021-07-11T09:48:41Z</time>
      </trkpt>
      <trkpt lat="47.7661" lon="-3.55009">
        <ele>14</ele>
        <time>2021-07-11T09:48:42Z</time>
      </trkpt>
      <trkpt lat="47.76611" lon="-3.55008">
        <ele>14</ele>
        <time>2021-07-11T09:48:43Z</time>
      </trkpt>
      <trkpt lat="47.76611" lon="-3.55007">
        <ele>14</ele>
        <time>2021-07-11T09:48:44Z</time>
      </trkpt>
      <trkpt lat="47.76612" lon="-3.55006">
        <ele>14</ele>
        <time>2021-07-11T09:48:45Z</time>
      </trkpt>
      <trkpt lat="47.76612" lon="-3.55005">
        <ele>14</ele>
        <time>2021-07-11T09:48:46Z</time>
      </trkpt>
      <trkpt lat="47.76613" lon="-3.55003">
        <ele>14</ele>
        <time>2021-07-11T09:48:47Z</time>
      </trkpt>
      <trkpt lat="47.76614" lon="-3.55002">
        <ele>14</ele>
        <time>2021-07-11T09:48:48Z</time>
      </trkpt>
      <trkpt lat="47.76614" lon="-3.55001">
        <ele>14.1</ele>
        <time>2021-07-11T09:48:49Z</time>
      </trkpt>
      <trkpt lat="47.76615" lon="-3.55">
        <ele>14.1</ele>
        <time>2021-07-11T09:48:50Z</time>
      </trkpt>
      <trkpt lat="47.76616" lon="-3.54998">
        <ele>14.1</ele>
        <time>2021-07-11T09:48:51Z</time>
      </trkpt>
      <trkpt lat="47.76616" lon="-3.54997">
        <ele>14.1</ele>
        <time>2021-07-11T09:48:52Z</time>
      </trkpt>
      <trkpt lat="47.76617" lon="-3.54996">
        <ele>14.1</ele>
        <time>2021-07-11T09:48:53Z</time>
      </trkpt>
      <trkpt lat="47.76617" lon="-3.54995">
        <ele>14.1</ele>
        <time>2021-07-11T09:48:54Z</time>
      </trkpt>
      <trkpt lat="47.76618" lon="-3.54994">
        <ele>14.1</ele>
        <time>2021-07-11T09:48:55Z</time>
      </trkpt>
      <trkpt lat="47.76619" lon="-3.54992">
        <ele>14.1</ele>
        <time>2021-07-11T09:48:56Z</time>
      </trkpt>
      <trkpt lat="47.76619" lon="-3.54991">
        <ele>14.1</ele>
        <time>2021-07-11T09:48:57Z</time>
      </trkpt>
      <trkpt lat="47.76621" lon="-3.54988">
        <ele>14.1</ele>
        <time>2021-07-11T09:48:58Z</time>
      </trkpt>
      <trkpt lat="47.76622" lon="-3.54986">
        <ele>14.1</ele>
        <time>2021-07-11T09:48:59Z</time>
      </trkpt>
      <trkpt lat="47.76623" lon="-3.54985">
        <ele>14.1</ele>
        <time>2021-07-11T09:49:00Z</time>
      </trkpt>
      <trkpt lat="47.76623" lon="-3.54983">
        <ele>14.1</ele>
        <time>2021-07-11T09:49:01Z</time>
      </trkpt>
      <trkpt lat="47.76624" lon="-3.54981">
        <ele>14.1</ele>
        <time>2021-07-11T09:49:02Z</time>
      </trkpt>
      <trkpt lat="47.76625" lon="-3.5498">
        <ele>14.1</ele>
        <time>2021-07-11T09:49:03Z</time>
      </trkpt>
      <trkpt lat="47.76626" lon="-3.54978">
        <ele>14.1</ele>
        <time>2021-07-11T09:49:04Z</time>
      </trkpt>
      <trkpt lat="47.76627" lon="-3.54977">
        <ele>14.1</ele>
        <time>2021-07-11T09:49:05Z</time>
      </trkpt>
      <trkpt lat="47.76627" lon="-3.54975">
        <ele>14.1</ele>
        <time>2021-07-11T09:49:06Z</time>
      </trkpt>
      <trkpt lat="47.76628" lon="-3.54974">
        <ele>14.1</ele>
        <time>2021-07-11T09:49:07Z</time>
      </trkpt>
      <trkpt lat="47.7663" lon="-3.5497">
        <ele>14.1</ele>
        <time>2021-07-11T09:49:08Z</time>
      </trkpt>
      <trkpt lat="47.7663" lon="-3.54969">
        <ele>14.1</ele>
        <time>2021-07-11T09:49:09Z</time>
      </trkpt>
      <trkpt lat="47.76631" lon="-3.54968">
        <ele>14.1</ele>
        <time>2021-07-11T09:49:10Z</time>
      </trkpt>
      <trkpt lat="47.76631" lon="-3.54966">
        <ele>14.1</ele>
        <time>2021-07-11T09:49:11Z</time>
      </trkpt>
      <trkpt lat="47.76632" lon="-3.54965">
        <ele>14.1</ele>
        <time>2021-07-11T09:49:12Z</time>
      </trkpt>
      <trkpt lat="47.76633" lon="-3.54963">
        <ele>14.1</ele>
        <time>2021-07-11T09:49:13Z</time>
      </trkpt>
      <trkpt lat="47.76633" lon="-3.54962">
        <ele>14.1</ele>
        <time>2021-07-11T09:49:14Z</time>
      </trkpt>
      <trkpt lat="47.76634" lon="-3.5496">
        <ele>14.1</ele>
        <time>2021-07-11T09:49:15Z</time>
      </trkpt>
      <trkpt lat="47.76634" lon="-3.54958">
        <ele>14.1</ele>
        <time>2021-07-11T09:49:16Z</time>
      </trkpt>
      <trkpt lat="47.76635" lon="-3.54957">
        <ele>14.1</ele>
        <time>2021-07-11T09:49:17Z</time>
      </trkpt>
      <trkpt lat="47.76635" lon="-3.54955">
        <ele>14</ele>
        <time>2021-07-11T09:49:18Z</time>
      </trkpt>
      <trkpt lat="47.76636" lon="-3.54954">
        <ele>14</ele>
        <time>2021-07-11T09:49:19Z</time>
      </trkpt>
      <trkpt lat="47.76636" lon="-3.54952">
        <ele>14</ele>
        <time>2021-07-11T09:49:20Z</time>
      </trkpt>
      <trkpt lat="47.76637" lon="-3.54951">
        <ele>14</ele>
        <time>2021-07-11T09:49:21Z</time>
      </trkpt>
      <trkpt lat="47.76637" lon="-3.5495">
        <ele>14</ele>
        <time>2021-07-11T09:49:22Z</time>
      </trkpt>
      <trkpt lat="47.76638" lon="-3.54948">
        <ele>13.9</ele>
        <time>2021-07-11T09:49:23Z</time>
      </trkpt>
      <trkpt lat="47.76639" lon="-3.54947">
        <ele>13.9</ele>
        <time>2021-07-11T09:49:24Z</time>
      </trkpt>
      <trkpt lat="47.76639" lon="-3.54946">
        <ele>13.9</ele>
        <time>2021-07-11T09:49:25Z</time>
      </trkpt>
      <trkpt lat="47.7664" lon="-3.54944">
        <ele>13.9</ele>
        <time>2021-07-11T09:49:26Z</time>
      </trkpt>
      <trkpt lat="47.76641" lon="-3.54943">
        <ele>13.8</ele>
        <time>2021-07-11T09:49:27Z</time>
      </trkpt>
      <trkpt lat="47.76641" lon="-3.54941">
        <ele>13.8</ele>
        <time>2021-07-11T09:49:28Z</time>
      </trkpt>
      <trkpt lat="47.76642" lon="-3.5494">
        <ele>13.8</ele>
        <time>2021-07-11T09:49:29Z</time>
      </trkpt>
      <trkpt lat="47.76642" lon="-3.54938">
        <ele>13.7</ele>
        <time>2021-07-11T09:49:30Z</time>
      </trkpt>
      <trkpt lat="47.76642" lon="-3.54935">
        <ele>13.7</ele>
        <time>2021-07-11T09:49:31Z</time>
      </trkpt>
      <trkpt lat="47.76642" lon="-3.54933">
        <ele>13.7</ele>
        <time>2021-07-11T09:49:32Z</time>
      </trkpt>
      <trkpt lat="47.76642" lon="-3.54931">
        <ele>13.6</ele>
        <time>2021-07-11T09:49:33Z</time>
      </trkpt>
      <trkpt lat="47.76642" lon="-3.54929">
        <ele>13.6</ele>
        <time>2021-07-11T09:49:34Z</time>
      </trkpt>
      <trkpt lat="47.76642" lon="-3.54927">
        <ele>13.6</ele>
        <time>2021-07-11T09:49:35Z</time>
      </trkpt>
      <trkpt lat="47.76641" lon="-3.54926">
        <ele>13.6</ele>
        <time>2021-07-11T09:49:36Z</time>
      </trkpt>
      <trkpt lat="47.76641" lon="-3.54925">
        <ele>13.6</ele>
        <time>2021-07-11T09:49:37Z</time>
      </trkpt>
      <trkpt lat="47.76641" lon="-3.54924">
        <ele>13.5</ele>
        <time>2021-07-11T09:49:38Z</time>
      </trkpt>
      <trkpt lat="47.76641" lon="-3.54923">
        <ele>13.5</ele>
        <time>2021-07-11T09:49:39Z</time>
      </trkpt>
      <trkpt lat="47.76641" lon="-3.54921">
        <ele>13.5</ele>
        <time>2021-07-11T09:49:40Z</time>
      </trkpt>
      <trkpt lat="47.76642" lon="-3.5492">
        <ele>13.5</ele>
        <time>2021-07-11T09:49:41Z</time>
      </trkpt>
      <trkpt lat="47.76642" lon="-3.54918">
        <ele>13.5</ele>
        <time>2021-07-11T09:49:42Z</time>
      </trkpt>
      <trkpt lat="47.76643" lon="-3.54916">
        <ele>13.4</ele>
        <time>2021-07-11T09:49:43Z</time>
      </trkpt>
      <trkpt lat="47.76643" lon="-3.54914">
        <ele>13.4</ele>
        <time>2021-07-11T09:49:44Z</time>
      </trkpt>
      <trkpt lat="47.76644" lon="-3.54912">
        <ele>13.4</ele>
        <time>2021-07-11T09:49:45Z</time>
      </trkpt>
      <trkpt lat="47.76644" lon="-3.5491">
        <ele>13.4</ele>
        <time>2021-07-11T09:49:46Z</time>
      </trkpt>
      <trkpt lat="47.76645" lon="-3.54909">
        <ele>13.4</ele>
        <time>2021-07-11T09:49:47Z</time>
      </trkpt>
      <trkpt lat="47.76645" lon="-3.54907">
        <ele>13.4</ele>
        <time>2021-07-11T09:49:48Z</time>
      </trkpt>
      <trkpt lat="47.76646" lon="-3.54905">
        <ele>13.4</ele>
        <time>2021-07-11T09:49:49Z</time>
      </trkpt>
      <trkpt lat="47.76646" lon="-3.54903">
        <ele>13.3</ele>
        <time>2021-07-11T09:49:50Z</time>
      </trkpt>
      <trkpt lat="47.76646" lon="-3.54902">
        <ele>13.3</ele>
        <time>2021-07-11T09:49:51Z</time>
      </trkpt>
      <trkpt lat="47.76647" lon="-3.549">
        <ele>13.3</ele>
        <time>2021-07-11T09:49:52Z</time>
      </trkpt>
      <trkpt lat="47.76647" lon="-3.54899">
        <ele>13.3</ele>
        <time>2021-07-11T09:49:53Z</time>
      </trkpt>
      <trkpt lat="47.76647" lon="-3.54897">
        <ele>13.3</ele>
        <time>2021-07-11T09:49:54Z</time>
      </trkpt>
      <trkpt lat="47.76647" lon="-3.54895">
        <ele>13.3</ele>
        <time>2021-07-11T09:49:55Z</time>
      </trkpt>
      <trkpt lat="47.76647" lon="-3.54894">
        <ele>13.3</ele>
        <time>2021-07-11T09:49:56Z</time>
      </trkpt>
      <trkpt lat="47.76647" lon="-3.54894">
        <ele>13.3</ele>
        <time>2021-07-11T09:49:57Z</time>
      </trkpt>
      <trkpt lat="47.76648" lon="-3.54893">
        <ele>13.3</ele>
        <time>2021-07-11T09:49:58Z</time>
      </trkpt>
      <trkpt lat="47.76648" lon="-3.54892">
        <ele>13.3</ele>
        <time>2021-07-11T09:49:59Z</time>
      </trkpt>
      <trkpt lat="47.76648" lon="-3.54892">
        <ele>13.3</ele>
        <time>2021-07-11T09:50:00Z</time>
      </trkpt>
      <trkpt lat="47.76648" lon="-3.54891">
        <ele>13.3</ele>
        <time>2021-07-11T09:50:01Z</time>
      </trkpt>
      <trkpt lat="47.76648" lon="-3.5489">
        <ele>13.3</ele>
        <time>2021-07-11T09:50:02Z</time>
      </trkpt>
      <trkpt lat="47.76648" lon="-3.54889">
        <ele>13.3</ele>
        <time>2021-07-11T09:50:03Z</time>
      </trkpt>
      <trkpt lat="47.76648" lon="-3.54889">
        <ele>13.3</ele>
        <time>2021-07-11T09:50:04Z</time>
      </trkpt>
      <trkpt lat="47.76648" lon="-3.54888">
        <ele>13.3</ele>
        <time>2021-07-11T09:50:05Z</time>
      </trkpt>
      <trkpt lat="47.76648" lon="-3.54887">
        <ele>13.3</ele>
        <time>2021-07-11T09:50:06Z</time>
      </trkpt>
      <trkpt lat="47.76648" lon="-3.54887">
        <ele>13.3</ele>
        <time>2021-07-11T09:50:07Z</time>
      </trkpt>
      <trkpt lat="47.76648" lon="-3.54886">
        <ele>13.3</ele>
        <time>2021-07-11T09:50:08Z</time>
      </trkpt>
      <trkpt lat="47.76648" lon="-3.54885">
        <ele>13.3</ele>
        <time>2021-07-11T09:50:09Z</time>
      </trkpt>
      <trkpt lat="47.76648" lon="-3.54885">
        <ele>13.3</ele>
        <time>2021-07-11T09:50:10Z</time>
      </trkpt>
      <trkpt lat="47.76648" lon="-3.54884">
        <ele>13.3</ele>
        <time>2021-07-11T09:50:11Z</time>
      </trkpt>
      <trkpt lat="47.76649" lon="-3.54883">
        <ele>13.3</ele>
        <time>2021-07-11T09:50:12Z</time>
      </trkpt>
      <trkpt lat="47.76649" lon="-3.54883">
        <ele>13.3</ele>
        <time>2021-07-11T09:50:13Z</time>
      </trkpt>
      <trkpt lat="47.76649" lon="-3.54882">
        <ele>13.3</ele>
        <time>2021-07-11T09:50:14Z</time>
      </trkpt>
      <trkpt lat="47.76649" lon="-3.54881">
        <ele>13.3</ele>
        <time>2021-07-11T09:50:15Z</time>
      </trkpt>
      <trkpt lat="47.76649" lon="-3.54881">
        <ele>13.3</ele>
        <time>2021-07-11T09:50:16Z</time>
      </trkpt>
      <trkpt lat="47.76649" lon="-3.5488">
        <ele>13.3</ele>
        <time>2021-07-11T09:50:17Z</time>
      </trkpt>
      <trkpt lat="47.76649" lon="-3.54879">
        <ele>13.3</ele>
        <time>2021-07-11T09:50:18Z</time>
      </trkpt>
      <trkpt lat="47.76649" lon="-3.54879">
        <ele>13.3</ele>
        <time>2021-07-11T09:50:19Z</time>
      </trkpt>
      <trkpt lat="47.76649" lon="-3.54878">
        <ele>13.3</ele>
        <time>2021-07-11T09:50:20Z</time>
      </trkpt>
      <trkpt lat="47.76649" lon="-3.54877">
        <ele>13.3</ele>
        <time>2021-07-11T09:50:21Z</time>
      </trkpt>
      <trkpt lat="47.76649" lon="-3.54877">
        <ele>13.3</ele>
        <time>2021-07-11T09:50:22Z</time>
      </trkpt>
      <trkpt lat="47.76649" lon="-3.54876">
        <ele>13.3</ele>
        <time>2021-07-11T09:50:23Z</time>
      </trkpt>
      <trkpt lat="47.76649" lon="-3.54875">
        <ele>13.3</ele>
        <time>2021-07-11T09:50:24Z</time>
      </trkpt>
      <trkpt lat="47.76649" lon="-3.54875">
        <ele>13.3</ele>
        <time>2021-07-11T09:50:25Z</time>
      </trkpt>
      <trkpt lat="47.7665" lon="-3.54874">
        <ele>13.3</ele>
        <time>2021-07-11T09:50:26Z</time>
      </trkpt>
      <trkpt lat="47.7665" lon="-3.54873">
        <ele>13.3</ele>
        <time>2021-07-11T09:50:27Z</time>
      </trkpt>
      <trkpt lat="47.7665" lon="-3.54873">
        <ele>13.3</ele>
        <time>2021-07-11T09:50:28Z</time>
      </trkpt>
      <trkpt lat="47.7665" lon="-3.54872">
        <ele>13.3</ele>
        <time>2021-07-11T09:50:29Z</time>
      </trkpt>
      <trkpt lat="47.7665" lon="-3.54871">
        <ele>13.3</ele>
        <time>2021-07-11T09:50:30Z</time>
      </trkpt>
      <trkpt lat="47.7665" lon="-3.54871">
        <ele>13.3</ele>
        <time>2021-07-11T09:50:31Z</time>
      </trkpt>
      <trkpt lat="47.7665" lon="-3.5487">
        <ele>13.3</ele>
        <time>2021-07-11T09:50:32Z</time>
      </trkpt>
      <trkpt lat="47.7665" lon="-3.54869">
        <ele>13.3</ele>
        <time>2021-07-11T09:50:33Z</time>
      </trkpt>
      <trkpt lat="47.7665" lon="-3.54869">
        <ele>13.3</ele>
        <time>2021-07-11T09:50:34Z</time>
      </trkpt>
      <trkpt lat="47.7665" lon="-3.54868">
        <ele>13.3</ele>
        <time>2021-07-11T09:50:35Z</time>
      </trkpt>
      <trkpt lat="47.7665" lon="-3.54867">
        <ele>13.3</ele>
        <time>2021-07-11T09:50:36Z</time>
      </trkpt>
      <trkpt lat="47.7665" lon="-3.54867">
        <ele>13.3</ele>
        <time>2021-07-11T09:50:37Z</time>
      </trkpt>
      <trkpt lat="47.7665" lon="-3.54866">
        <ele>13.3</ele>
        <time>2021-07-11T09:50:38Z</time>
      </trkpt>
      <trkpt lat="47.76651" lon="-3.54865">
        <ele>13.3</ele>
        <time>2021-07-11T09:50:39Z</time>
      </trkpt>
      <trkpt lat="47.76651" lon="-3.54865">
        <ele>13.3</ele>
        <time>2021-07-11T09:50:40Z</time>
      </trkpt>
      <trkpt lat="47.76651" lon="-3.54864">
        <ele>13.3</ele>
        <time>2021-07-11T09:50:41Z</time>
      </trkpt>
      <trkpt lat="47.76651" lon="-3.54863">
        <ele>15.1</ele>
        <time>2021-07-11T09:50:42Z</time>
      </trkpt>
      <trkpt lat="47.76651" lon="-3.54863">
        <ele>15.1</ele>
        <time>2021-07-11T09:50:43Z</time>
      </trkpt>
      <trkpt lat="47.76651" lon="-3.54862">
        <ele>15.1</ele>
        <time>2021-07-11T09:50:44Z</time>
      </trkpt>
      <trkpt lat="47.76651" lon="-3.54861">
        <ele>15.1</ele>
        <time>2021-07-11T09:50:45Z</time>
      </trkpt>
      <trkpt lat="47.76651" lon="-3.54861">
        <ele>15.1</ele>
        <time>2021-07-11T09:50:46Z</time>
      </trkpt>
      <trkpt lat="47.76651" lon="-3.5486">
        <ele>15.1</ele>
        <time>2021-07-11T09:50:47Z</time>
      </trkpt>
      <trkpt lat="47.76651" lon="-3.54859">
        <ele>15.1</ele>
        <time>2021-07-11T09:50:48Z</time>
      </trkpt>
      <trkpt lat="47.76651" lon="-3.54858">
        <ele>15.1</ele>
        <time>2021-07-11T09:50:49Z</time>
      </trkpt>
      <trkpt lat="47.76651" lon="-3.54858">
        <ele>15.1</ele>
        <time>2021-07-11T09:50:50Z</time>
      </trkpt>
      <trkpt lat="47.76651" lon="-3.54857">
        <ele>15.1</ele>
        <time>2021-07-11T09:50:51Z</time>
      </trkpt>
      <trkpt lat="47.76651" lon="-3.54856">
        <ele>15.1</ele>
        <time>2021-07-11T09:50:52Z</time>
      </trkpt>
      <trkpt lat="47.76652" lon="-3.54856">
        <ele>15.1</ele>
        <time>2021-07-11T09:50:53Z</time>
      </trkpt>
      <trkpt lat="47.76652" lon="-3.54855">
        <ele>15.1</ele>
        <time>2021-07-11T09:50:54Z</time>
      </trkpt>
      <trkpt lat="47.76652" lon="-3.54854">
        <ele>15.1</ele>
        <time>2021-07-11T09:50:55Z</time>
      </trkpt>
      <trkpt lat="47.76652" lon="-3.54854">
        <ele>15.1</ele>
        <time>2021-07-11T09:50:56Z</time>
      </trkpt>
      <trkpt lat="47.76652" lon="-3.54853">
        <ele>15.1</ele>
        <time>2021-07-11T09:50:57Z</time>
      </trkpt>
      <trkpt lat="47.76652" lon="-3.54852">
        <ele>15.1</ele>
        <time>2021-07-11T09:50:58Z</time>
      </trkpt>
      <trkpt lat="47.76652" lon="-3.54852">
        <ele>15.1</ele>
        <time>2021-07-11T09:50:59Z</time>
      </trkpt>
      <trkpt lat="47.76652" lon="-3.54851">
        <ele>15.1</ele>
        <time>2021-07-11T09:51:00Z</time>
      </trkpt>
      <trkpt lat="47.76652" lon="-3.5485">
        <ele>15.1</ele>
        <time>2021-07-11T09:51:01Z</time>
      </trkpt>
      <trkpt lat="47.76652" lon="-3.5485">
        <ele>15.1</ele>
        <time>2021-07-11T09:51:02Z</time>
      </trkpt>
      <trkpt lat="47.76652" lon="-3.54849">
        <ele>15.1</ele>
        <time>2021-07-11T09:51:03Z</time>
      </trkpt>
      <trkpt lat="47.76652" lon="-3.54848">
        <ele>15.1</ele>
        <time>2021-07-11T09:51:04Z</time>
      </trkpt>
      <trkpt lat="47.76652" lon="-3.54848">
        <ele>15.1</ele>
        <time>2021-07-11T09:51:05Z</time>
      </trkpt>
      <trkpt lat="47.76652" lon="-3.54847">
        <ele>15.1</ele>
        <time>2021-07-11T09:51:06Z</time>
      </trkpt>
      <trkpt lat="47.76653" lon="-3.54846">
        <ele>15.1</ele>
        <time>2021-07-11T09:51:07Z</time>
      </trkpt>
      <trkpt lat="47.76653" lon="-3.54846">
        <ele>15.1</ele>
        <time>2021-07-11T09:51:08Z</time>
      </trkpt>
      <trkpt lat="47.76653" lon="-3.54845">
        <ele>15.1</ele>
        <time>2021-07-11T09:51:09Z</time>
      </trkpt>
      <trkpt lat="47.76653" lon="-3.54844">
        <ele>15.1</ele>
        <time>2021-07-11T09:51:10Z</time>
      </trkpt>
      <trkpt lat="47.76653" lon="-3.54844">
        <ele>15.1</ele>
        <time>2021-07-11T09:51:11Z</time>
      </trkpt>
      <trkpt lat="47.76653" lon="-3.54843">
        <ele>15.1</ele>
        <time>2021-07-11T09:51:12Z</time>
      </trkpt>
      <trkpt lat="47.76653" lon="-3.54842">
        <ele>15.1</ele>
        <time>2021-07-11T09:51:13Z</time>
      </trkpt>
      <trkpt lat="47.76653" lon="-3.54842">
        <ele>15.1</ele>
        <time>2021-07-11T09:51:14Z</time>
      </trkpt>
      <trkpt lat="47.76653" lon="-3.54841">
        <ele>15.1</ele>
        <time>2021-07-11T09:51:15Z</time>
      </trkpt>
      <trkpt lat="47.76653" lon="-3.5484">
        <ele>15.1</ele>
        <time>2021-07-11T09:51:16Z</time>
      </trkpt>
      <trkpt lat="47.76653" lon="-3.5484">
        <ele>15.1</ele>
        <time>2021-07-11T09:51:17Z</time>
      </trkpt>
      <trkpt lat="47.76653" lon="-3.54839">
        <ele>15.1</ele>
        <time>2021-07-11T09:51:18Z</time>
      </trkpt>
      <trkpt lat="47.76653" lon="-3.54838">
        <ele>15.1</ele>
        <time>2021-07-11T09:51:19Z</time>
      </trkpt>
      <trkpt lat="47.76653" lon="-3.54838">
        <ele>15.1</ele>
        <time>2021-07-11T09:51:20Z</time>
      </trkpt>
      <trkpt lat="47.76654" lon="-3.54837">
        <ele>15.1</ele>
        <time>2021-07-11T09:51:21Z</time>
      </trkpt>
      <trkpt lat="47.76654" lon="-3.54836">
        <ele>15.1</ele>
        <time>2021-07-11T09:51:22Z</time>
      </trkpt>
      <trkpt lat="47.76654" lon="-3.54836">
        <ele>15.1</ele>
        <time>2021-07-11T09:51:23Z</time>
      </trkpt>
      <trkpt lat="47.76654" lon="-3.54835">
        <ele>15.1</ele>
        <time>2021-07-11T09:51:24Z</time>
      </trkpt>
      <trkpt lat="47.76654" lon="-3.54834">
        <ele>15.1</ele>
        <time>2021-07-11T09:51:25Z</time>
      </trkpt>
      <trkpt lat="47.76654" lon="-3.54834">
        <ele>15.1</ele>
        <time>2021-07-11T09:51:26Z</time>
      </trkpt>
      <trkpt lat="47.76654" lon="-3.54833">
        <ele>15.1</ele>
        <time>2021-07-11T09:51:27Z</time>
      </trkpt>
      <trkpt lat="47.76654" lon="-3.54832">
        <ele>15.1</ele>
        <time>2021-07-11T09:51:28Z</time>
      </trkpt>
      <trkpt lat="47.76654" lon="-3.54832">
        <ele>15.1</ele>
        <time>2021-07-11T09:51:29Z</time>
      </trkpt>
      <trkpt lat="47.76654" lon="-3.54831">
        <ele>15.1</ele>
        <time>2021-07-11T09:51:30Z</time>
      </trkpt>
      <trkpt lat="47.76654" lon="-3.5483">
        <ele>15.1</ele>
        <time>2021-07-11T09:51:31Z</time>
      </trkpt>
      <trkpt lat="47.76654" lon="-3.54829">
        <ele>15.1</ele>
        <time>2021-07-11T09:51:32Z</time>
      </trkpt>
      <trkpt lat="47.76654" lon="-3.54829">
        <ele>15.1</ele>
        <time>2021-07-11T09:51:33Z</time>
      </trkpt>
      <trkpt lat="47.76654" lon="-3.54828">
        <ele>15.1</ele>
        <time>2021-07-11T09:51:34Z</time>
      </trkpt>
      <trkpt lat="47.76655" lon="-3.54827">
        <ele>15.1</ele>
        <time>2021-07-11T09:51:35Z</time>
      </trkpt>
      <trkpt lat="47.76655" lon="-3.54827">
        <ele>15.1</ele>
        <time>2021-07-11T09:51:36Z</time>
      </trkpt>
      <trkpt lat="47.76655" lon="-3.54826">
        <ele>15.1</ele>
        <time>2021-07-11T09:51:37Z</time>
      </trkpt>
      <trkpt lat="47.76655" lon="-3.54825">
        <ele>15.1</ele>
        <time>2021-07-11T09:51:38Z</time>
      </trkpt>
      <trkpt lat="47.76655" lon="-3.54825">
        <ele>15.1</ele>
        <time>2021-07-11T09:51:39Z</time>
      </trkpt>
      <trkpt lat="47.76655" lon="-3.54824">
        <ele>15.1</ele>
        <time>2021-07-11T09:51:40Z</time>
      </trkpt>
      <trkpt lat="47.76655" lon="-3.54823">
        <ele>15.1</ele>
        <time>2021-07-11T09:51:41Z</time>
      </trkpt>
      <trkpt lat="47.76655" lon="-3.54823">
        <ele>15.1</ele>
        <time>2021-07-11T09:51:42Z</time>
      </trkpt>
      <trkpt lat="47.76655" lon="-3.54822">
        <ele>15.1</ele>
        <time>2021-07-11T09:51:43Z</time>
      </trkpt>
      <trkpt lat="47.76655" lon="-3.54821">
        <ele>15.1</ele>
        <time>2021-07-11T09:51:44Z</time>
      </trkpt>
      <trkpt lat="47.76655" lon="-3.54821">
        <ele>15.1</ele>
        <time>2021-07-11T09:51:45Z</time>
      </trkpt>
      <trkpt lat="47.76655" lon="-3.5482">
        <ele>15.1</ele>
        <time>2021-07-11T09:51:46Z</time>
      </trkpt>
      <trkpt lat="47.76655" lon="-3.54819">
        <ele>15.1</ele>
        <time>2021-07-11T09:51:47Z</time>
      </trkpt>
      <trkpt lat="47.76655" lon="-3.54819">
        <ele>15.1</ele>
        <time>2021-07-11T09:51:48Z</time>
      </trkpt>
      <trkpt lat="47.76656" lon="-3.54818">
        <ele>15.1</ele>
        <time>2021-07-11T09:51:49Z</time>
      </trkpt>
      <trkpt lat="47.76656" lon="-3.54817">
        <ele>15.1</ele>
        <time>2021-07-11T09:51:50Z</time>
      </trkpt>
      <trkpt lat="47.76656" lon="-3.54817">
        <ele>15.1</ele>
        <time>2021-07-11T09:51:51Z</time>
      </trkpt>
      <trkpt lat="47.76656" lon="-3.54816">
        <ele>15.1</ele>
        <time>2021-07-11T09:51:52Z</time>
      </trkpt>
      <trkpt lat="47.76656" lon="-3.54815">
        <ele>15.1</ele>
        <time>2021-07-11T09:51:53Z</time>
      </trkpt>
      <trkpt lat="47.76656" lon="-3.54815">
        <ele>15.2</ele>
        <time>2021-07-11T09:51:54Z</time>
      </trkpt>
      <trkpt lat="47.76656" lon="-3.54814">
        <ele>15.2</ele>
        <time>2021-07-11T09:51:55Z</time>
      </trkpt>
      <trkpt lat="47.76656" lon="-3.54813">
        <ele>15.2</ele>
        <time>2021-07-11T09:51:56Z</time>
      </trkpt>
      <trkpt lat="47.76656" lon="-3.54813">
        <ele>15.2</ele>
        <time>2021-07-11T09:51:57Z</time>
      </trkpt>
      <trkpt lat="47.76656" lon="-3.54808">
        <ele>15.2</ele>
        <time>2021-07-11T09:51:58Z</time>
      </trkpt>
      <trkpt lat="47.76656" lon="-3.54806">
        <ele>15.2</ele>
        <time>2021-07-11T09:51:59Z</time>
      </trkpt>
      <trkpt lat="47.76656" lon="-3.54804">
        <ele>15.2</ele>
        <time>2021-07-11T09:52:00Z</time>
      </trkpt>
      <trkpt lat="47.76656" lon="-3.54802">
        <ele>15.2</ele>
        <time>2021-07-11T09:52:01Z</time>
      </trkpt>
      <trkpt lat="47.76656" lon="-3.548">
        <ele>15.2</ele>
        <time>2021-07-11T09:52:02Z</time>
      </trkpt>
      <trkpt lat="47.76656" lon="-3.54798">
        <ele>15.2</ele>
        <time>2021-07-11T09:52:03Z</time>
      </trkpt>
      <trkpt lat="47.76656" lon="-3.54796">
        <ele>15.3</ele>
        <time>2021-07-11T09:52:04Z</time>
      </trkpt>
      <trkpt lat="47.76656" lon="-3.54794">
        <ele>15.3</ele>
        <time>2021-07-11T09:52:05Z</time>
      </trkpt>
      <trkpt lat="47.76656" lon="-3.54792">
        <ele>15.3</ele>
        <time>2021-07-11T09:52:06Z</time>
      </trkpt>
      <trkpt lat="47.76656" lon="-3.5479">
        <ele>15.3</ele>
        <time>2021-07-11T09:52:07Z</time>
      </trkpt>
      <trkpt lat="47.76656" lon="-3.54788">
        <ele>15.3</ele>
        <time>2021-07-11T09:52:08Z</time>
      </trkpt>
      <trkpt lat="47.76656" lon="-3.54786">
        <ele>15.3</ele>
        <time>2021-07-11T09:52:09Z</time>
      </trkpt>
      <trkpt lat="47.76656" lon="-3.54784">
        <ele>15.3</ele>
        <time>2021-07-11T09:52:10Z</time>
      </trkpt>
      <trkpt lat="47.76656" lon="-3.54782">
        <ele>15.4</ele>
        <time>2021-07-11T09:52:11Z</time>
      </trkpt>
      <trkpt lat="47.76656" lon="-3.5478">
        <ele>15.4</ele>
        <time>2021-07-11T09:52:12Z</time>
      </trkpt>
      <trkpt lat="47.76656" lon="-3.54778">
        <ele>15.4</ele>
        <time>2021-07-11T09:52:13Z</time>
      </trkpt>
      <trkpt lat="47.76656" lon="-3.54776">
        <ele>15.4</ele>
        <time>2021-07-11T09:52:14Z</time>
      </trkpt>
      <trkpt lat="47.76656" lon="-3.54774">
        <ele>15.4</ele>
        <time>2021-07-11T09:52:15Z</time>
      </trkpt>
      <trkpt lat="47.76656" lon="-3.54772">
        <ele>15.5</ele>
        <time>2021-07-11T09:52:16Z</time>
      </trkpt>
      <trkpt lat="47.76656" lon="-3.5477">
        <ele>15.5</ele>
        <time>2021-07-11T09:52:17Z</time>
      </trkpt>
      <trkpt lat="47.76656" lon="-3.54768">
        <ele>15.5</ele>
        <time>2021-07-11T09:52:18Z</time>
      </trkpt>
      <trkpt lat="47.76656" lon="-3.54766">
        <ele>15.5</ele>
        <time>2021-07-11T09:52:19Z</time>
      </trkpt>
      <trkpt lat="47.76656" lon="-3.54764">
        <ele>15.6</ele>
        <time>2021-07-11T09:52:20Z</time>
      </trkpt>
      <trkpt lat="47.76656" lon="-3.54763">
        <ele>15.6</ele>
        <time>2021-07-11T09:52:21Z</time>
      </trkpt>
      <trkpt lat="47.76656" lon="-3.54761">
        <ele>15.6</ele>
        <time>2021-07-11T09:52:22Z</time>
      </trkpt>
      <trkpt lat="47.76657" lon="-3.5476">
        <ele>15.6</ele>
        <time>2021-07-11T09:52:23Z</time>
      </trkpt>
      <trkpt lat="47.76657" lon="-3.54758">
        <ele>15.6</ele>
        <time>2021-07-11T09:52:24Z</time>
      </trkpt>
      <trkpt lat="47.76657" lon="-3.54757">
        <ele>15.6</ele>
        <time>2021-07-11T09:52:25Z</time>
      </trkpt>
      <trkpt lat="47.76657" lon="-3.54756">
        <ele>15.7</ele>
        <time>2021-07-11T09:52:26Z</time>
      </trkpt>
      <trkpt lat="47.76657" lon="-3.54754">
        <ele>15.7</ele>
        <time>2021-07-11T09:52:27Z</time>
      </trkpt>
      <trkpt lat="47.76657" lon="-3.54753">
        <ele>15.7</ele>
        <time>2021-07-11T09:52:28Z</time>
      </trkpt>
      <trkpt lat="47.76657" lon="-3.54751">
        <ele>15.7</ele>
        <time>2021-07-11T09:52:29Z</time>
      </trkpt>
      <trkpt lat="47.76657" lon="-3.5475">
        <ele>15.7</ele>
        <time>2021-07-11T09:52:30Z</time>
      </trkpt>
      <trkpt lat="47.76658" lon="-3.54748">
        <ele>15.8</ele>
        <time>2021-07-11T09:52:31Z</time>
      </trkpt>
      <trkpt lat="47.76658" lon="-3.54747">
        <ele>15.8</ele>
        <time>2021-07-11T09:52:32Z</time>
      </trkpt>
      <trkpt lat="47.76658" lon="-3.54745">
        <ele>15.8</ele>
        <time>2021-07-11T09:52:33Z</time>
      </trkpt>
      <trkpt lat="47.76658" lon="-3.54744">
        <ele>15.9</ele>
        <time>2021-07-11T09:52:34Z</time>
      </trkpt>
      <trkpt lat="47.76658" lon="-3.54743">
        <ele>15.9</ele>
        <time>2021-07-11T09:52:35Z</time>
      </trkpt>
      <trkpt lat="47.76658" lon="-3.54741">
        <ele>15.9</ele>
        <time>2021-07-11T09:52:36Z</time>
      </trkpt>
      <trkpt lat="47.76658" lon="-3.5474">
        <ele>16</ele>
        <time>2021-07-11T09:52:37Z</time>
      </trkpt>
      <trkpt lat="47.76659" lon="-3.54738">
        <ele>16</ele>
        <time>2021-07-11T09:52:38Z</time>
      </trkpt>
      <trkpt lat="47.76659" lon="-3.54737">
        <ele>16</ele>
        <time>2021-07-11T09:52:39Z</time>
      </trkpt>
      <trkpt lat="47.76659" lon="-3.54735">
        <ele>16.1</ele>
        <time>2021-07-11T09:52:40Z</time>
      </trkpt>
      <trkpt lat="47.76659" lon="-3.54734">
        <ele>16.1</ele>
        <time>2021-07-11T09:52:41Z</time>
      </trkpt>
      <trkpt lat="47.7666" lon="-3.54732">
        <ele>16.1</ele>
        <time>2021-07-11T09:52:42Z</time>
      </trkpt>
      <trkpt lat="47.7666" lon="-3.54731">
        <ele>16.1</ele>
        <time>2021-07-11T09:52:43Z</time>
      </trkpt>
      <trkpt lat="47.76661" lon="-3.5473">
        <ele>16.2</ele>
        <time>2021-07-11T09:52:44Z</time>
      </trkpt>
      <trkpt lat="47.76661" lon="-3.54728">
        <ele>16.2</ele>
        <time>2021-07-11T09:52:45Z</time>
      </trkpt>
      <trkpt lat="47.76661" lon="-3.54727">
        <ele>16.2</ele>
        <time>2021-07-11T09:52:46Z</time>
      </trkpt>
      <trkpt lat="47.76662" lon="-3.54725">
        <ele>16.3</ele>
        <time>2021-07-11T09:52:47Z</time>
      </trkpt>
      <trkpt lat="47.76662" lon="-3.54724">
        <ele>16.3</ele>
        <time>2021-07-11T09:52:48Z</time>
      </trkpt>
      <trkpt lat="47.76662" lon="-3.54722">
        <ele>16.3</ele>
        <time>2021-07-11T09:52:49Z</time>
      </trkpt>
      <trkpt lat="47.76663" lon="-3.5472">
        <ele>16.4</ele>
        <time>2021-07-11T09:52:50Z</time>
      </trkpt>
      <trkpt lat="47.76663" lon="-3.54718">
        <ele>16.4</ele>
        <time>2021-07-11T09:52:51Z</time>
      </trkpt>
      <trkpt lat="47.76663" lon="-3.54717">
        <ele>16.5</ele>
        <time>2021-07-11T09:52:52Z</time>
      </trkpt>
      <trkpt lat="47.76663" lon="-3.54715">
        <ele>16.5</ele>
        <time>2021-07-11T09:52:53Z</time>
      </trkpt>
      <trkpt lat="47.76663" lon="-3.54714">
        <ele>16.5</ele>
        <time>2021-07-11T09:52:54Z</time>
      </trkpt>
      <trkpt lat="47.76663" lon="-3.54713">
        <ele>16.5</ele>
        <time>2021-07-11T09:52:55Z</time>
      </trkpt>
      <trkpt lat="47.76664" lon="-3.54711">
        <ele>16.6</ele>
        <time>2021-07-11T09:52:56Z</time>
      </trkpt>
      <trkpt lat="47.76664" lon="-3.5471">
        <ele>16.6</ele>
        <time>2021-07-11T09:52:57Z</time>
      </trkpt>
      <trkpt lat="47.76665" lon="-3.54708">
        <ele>16.6</ele>
        <time>2021-07-11T09:52:58Z</time>
      </trkpt>
      <trkpt lat="47.76665" lon="-3.54707">
        <ele>16.7</ele>
        <time>2021-07-11T09:52:59Z</time>
      </trkpt>
      <trkpt lat="47.76666" lon="-3.54705">
        <ele>16.7</ele>
        <time>2021-07-11T09:53:00Z</time>
      </trkpt>
      <trkpt lat="47.76667" lon="-3.54704">
        <ele>16.8</ele>
        <time>2021-07-11T09:53:01Z</time>
      </trkpt>
      <trkpt lat="47.76668" lon="-3.54702">
        <ele>16.8</ele>
        <time>2021-07-11T09:53:02Z</time>
      </trkpt>
      <trkpt lat="47.76669" lon="-3.54701">
        <ele>16.8</ele>
        <time>2021-07-11T09:53:03Z</time>
      </trkpt>
      <trkpt lat="47.7667" lon="-3.54699">
        <ele>16.9</ele>
        <time>2021-07-11T09:53:04Z</time>
      </trkpt>
      <trkpt lat="47.7667" lon="-3.54697">
        <ele>16.9</ele>
        <time>2021-07-11T09:53:05Z</time>
      </trkpt>
      <trkpt lat="47.76671" lon="-3.54696">
        <ele>17</ele>
        <time>2021-07-11T09:53:06Z</time>
      </trkpt>
      <trkpt lat="47.76672" lon="-3.54694">
        <ele>17</ele>
        <time>2021-07-11T09:53:07Z</time>
      </trkpt>
      <trkpt lat="47.76673" lon="-3.54693">
        <ele>17</ele>
        <time>2021-07-11T09:53:08Z</time>
      </trkpt>
      <trkpt lat="47.76673" lon="-3.54691">
        <ele>17.1</ele>
        <time>2021-07-11T09:53:09Z</time>
      </trkpt>
      <trkpt lat="47.76674" lon="-3.5469">
        <ele>17.1</ele>
        <time>2021-07-11T09:53:10Z</time>
      </trkpt>
      <trkpt lat="47.76674" lon="-3.54688">
        <ele>17.2</ele>
        <time>2021-07-11T09:53:11Z</time>
      </trkpt>
      <trkpt lat="47.76675" lon="-3.54687">
        <ele>17.2</ele>
        <time>2021-07-11T09:53:12Z</time>
      </trkpt>
      <trkpt lat="47.76676" lon="-3.54686">
        <ele>17.3</ele>
        <time>2021-07-11T09:53:13Z</time>
      </trkpt>
      <trkpt lat="47.76676" lon="-3.54684">
        <ele>17.3</ele>
        <time>2021-07-11T09:53:14Z</time>
      </trkpt>
      <trkpt lat="47.76677" lon="-3.54683">
        <ele>17.4</ele>
        <time>2021-07-11T09:53:15Z</time>
      </trkpt>
      <trkpt lat="47.76677" lon="-3.54683">
        <ele>17.4</ele>
        <time>2021-07-11T09:53:16Z</time>
      </trkpt>
      <trkpt lat="47.76677" lon="-3.54683">
        <ele>17.4</ele>
        <time>2021-07-11T09:53:17Z</time>
      </trkpt>
      <trkpt lat="47.76677" lon="-3.54682">
        <ele>17.4</ele>
        <time>2021-07-11T09:53:18Z</time>
      </trkpt>
      <trkpt lat="47.76678" lon="-3.54682">
        <ele>17.4</ele>
        <time>2021-07-11T09:53:19Z</time>
      </trkpt>
      <trkpt lat="47.76678" lon="-3.54682">
        <ele>17.4</ele>
        <time>2021-07-11T09:53:20Z</time>
      </trkpt>
      <trkpt lat="47.76678" lon="-3.54681">
        <ele>17.4</ele>
        <time>2021-07-11T09:53:21Z</time>
      </trkpt>
      <trkpt lat="47.76678" lon="-3.54681">
        <ele>17.5</ele>
        <time>2021-07-11T09:53:22Z</time>
      </trkpt>
      <trkpt lat="47.76679" lon="-3.54681">
        <ele>17.5</ele>
        <time>2021-07-11T09:53:23Z</time>
      </trkpt>
      <trkpt lat="47.76679" lon="-3.5468">
        <ele>17.5</ele>
        <time>2021-07-11T09:53:24Z</time>
      </trkpt>
      <trkpt lat="47.76679" lon="-3.5468">
        <ele>17.5</ele>
        <time>2021-07-11T09:53:25Z</time>
      </trkpt>
      <trkpt lat="47.76679" lon="-3.54679">
        <ele>17.5</ele>
        <time>2021-07-11T09:53:26Z</time>
      </trkpt>
      <trkpt lat="47.7668" lon="-3.54679">
        <ele>17.5</ele>
        <time>2021-07-11T09:53:27Z</time>
      </trkpt>
      <trkpt lat="47.7668" lon="-3.54679">
        <ele>17.5</ele>
        <time>2021-07-11T09:53:28Z</time>
      </trkpt>
      <trkpt lat="47.7668" lon="-3.54678">
        <ele>17.6</ele>
        <time>2021-07-11T09:53:29Z</time>
      </trkpt>
      <trkpt lat="47.7668" lon="-3.54678">
        <ele>17.6</ele>
        <time>2021-07-11T09:53:30Z</time>
      </trkpt>
      <trkpt lat="47.76681" lon="-3.54678">
        <ele>17.6</ele>
        <time>2021-07-11T09:53:31Z</time>
      </trkpt>
      <trkpt lat="47.76681" lon="-3.54677">
        <ele>17.6</ele>
        <time>2021-07-11T09:53:32Z</time>
      </trkpt>
      <trkpt lat="47.76681" lon="-3.54677">
        <ele>17.6</ele>
        <time>2021-07-11T09:53:33Z</time>
      </trkpt>
      <trkpt lat="47.76681" lon="-3.54677">
        <ele>17.6</ele>
        <time>2021-07-11T09:53:34Z</time>
      </trkpt>
      <trkpt lat="47.76682" lon="-3.54676">
        <ele>17.7</ele>
        <time>2021-07-11T09:53:35Z</time>
      </trkpt>
      <trkpt lat="47.76682" lon="-3.54676">
        <ele>17.7</ele>
        <time>2021-07-11T09:53:36Z</time>
      </trkpt>
      <trkpt lat="47.76682" lon="-3.54675">
        <ele>17.7</ele>
        <time>2021-07-11T09:53:37Z</time>
      </trkpt>
      <trkpt lat="47.76682" lon="-3.54675">
        <ele>17.7</ele>
        <time>2021-07-11T09:53:38Z</time>
      </trkpt>
      <trkpt lat="47.76683" lon="-3.54675">
        <ele>17.7</ele>
        <time>2021-07-11T09:53:39Z</time>
      </trkpt>
      <trkpt lat="47.76683" lon="-3.54674">
        <ele>17.7</ele>
        <time>2021-07-11T09:53:40Z</time>
      </trkpt>
      <trkpt lat="47.76683" lon="-3.54674">
        <ele>17.8</ele>
        <time>2021-07-11T09:53:41Z</time>
      </trkpt>
      <trkpt lat="47.76683" lon="-3.54674">
        <ele>17.8</ele>
        <time>2021-07-11T09:53:42Z</time>
      </trkpt>
      <trkpt lat="47.76684" lon="-3.54673">
        <ele>17.8</ele>
        <time>2021-07-11T09:53:43Z</time>
      </trkpt>
      <trkpt lat="47.76684" lon="-3.54673">
        <ele>17.8</ele>
        <time>2021-07-11T09:53:44Z</time>
      </trkpt>
      <trkpt lat="47.76684" lon="-3.54673">
        <ele>17.8</ele>
        <time>2021-07-11T09:53:45Z</time>
      </trkpt>
      <trkpt lat="47.76685" lon="-3.54672">
        <ele>17.8</ele>
        <time>2021-07-11T09:53:46Z</time>
      </trkpt>
      <trkpt lat="47.76685" lon="-3.54672">
        <ele>17.8</ele>
        <time>2021-07-11T09:53:47Z</time>
      </trkpt>
      <trkpt lat="47.76685" lon="-3.54671">
        <ele>17.9</ele>
        <time>2021-07-11T09:53:48Z</time>
      </trkpt>
      <trkpt lat="47.76685" lon="-3.54671">
        <ele>17.9</ele>
        <time>2021-07-11T09:53:49Z</time>
      </trkpt>
      <trkpt lat="47.76686" lon="-3.54671">
        <ele>17.9</ele>
        <time>2021-07-11T09:53:50Z</time>
      </trkpt>
      <trkpt lat="47.76686" lon="-3.5467">
        <ele>17.9</ele>
        <time>2021-07-11T09:53:51Z</time>
      </trkpt>
      <trkpt lat="47.76686" lon="-3.5467">
        <ele>17.9</ele>
        <time>2021-07-11T09:53:52Z</time>
      </trkpt>
      <trkpt lat="47.76686" lon="-3.5467">
        <ele>17.9</ele>
        <time>2021-07-11T09:53:53Z</time>
      </trkpt>
      <trkpt lat="47.76687" lon="-3.54669">
        <ele>18</ele>
        <time>2021-07-11T09:53:54Z</time>
      </trkpt>
      <trkpt lat="47.76687" lon="-3.54669">
        <ele>18</ele>
        <time>2021-07-11T09:53:55Z</time>
      </trkpt>
      <trkpt lat="47.76687" lon="-3.54669">
        <ele>18</ele>
        <time>2021-07-11T09:53:56Z</time>
      </trkpt>
      <trkpt lat="47.76687" lon="-3.54668">
        <ele>18</ele>
        <time>2021-07-11T09:53:57Z</time>
      </trkpt>
      <trkpt lat="47.76688" lon="-3.54668">
        <ele>18</ele>
        <time>2021-07-11T09:53:58Z</time>
      </trkpt>
      <trkpt lat="47.76688" lon="-3.54667">
        <ele>18</ele>
        <time>2021-07-11T09:53:59Z</time>
      </trkpt>
      <trkpt lat="47.76688" lon="-3.54667">
        <ele>18</ele>
        <time>2021-07-11T09:54:00Z</time>
      </trkpt>
      <trkpt lat="47.76688" lon="-3.54667">
        <ele>18.1</ele>
        <time>2021-07-11T09:54:01Z</time>
      </trkpt>
      <trkpt lat="47.76689" lon="-3.54666">
        <ele>18.1</ele>
        <time>2021-07-11T09:54:02Z</time>
      </trkpt>
      <trkpt lat="47.76689" lon="-3.54666">
        <ele>18.1</ele>
        <time>2021-07-11T09:54:03Z</time>
      </trkpt>
      <trkpt lat="47.76689" lon="-3.54666">
        <ele>18.1</ele>
        <time>2021-07-11T09:54:04Z</time>
      </trkpt>
      <trkpt lat="47.76689" lon="-3.54665">
        <ele>18.1</ele>
        <time>2021-07-11T09:54:05Z</time>
      </trkpt>
      <trkpt lat="47.7669" lon="-3.54665">
        <ele>18.1</ele>
        <time>2021-07-11T09:54:06Z</time>
      </trkpt>
      <trkpt lat="47.7669" lon="-3.54665">
        <ele>18.2</ele>
        <time>2021-07-11T09:54:07Z</time>
      </trkpt>
      <trkpt lat="47.7669" lon="-3.54664">
        <ele>18.2</ele>
        <time>2021-07-11T09:54:08Z</time>
      </trkpt>
      <trkpt lat="47.7669" lon="-3.54664">
        <ele>18.2</ele>
        <time>2021-07-11T09:54:09Z</time>
      </trkpt>
      <trkpt lat="47.76691" lon="-3.54663">
        <ele>18.2</ele>
        <time>2021-07-11T09:54:10Z</time>
      </trkpt>
      <trkpt lat="47.76691" lon="-3.54663">
        <ele>18.2</ele>
        <time>2021-07-11T09:54:11Z</time>
      </trkpt>
      <trkpt lat="47.76691" lon="-3.54663">
        <ele>18.2</ele>
        <time>2021-07-11T09:54:12Z</time>
      </trkpt>
      <trkpt lat="47.76691" lon="-3.54662">
        <ele>18.2</ele>
        <time>2021-07-11T09:54:13Z</time>
      </trkpt>
      <trkpt lat="47.76692" lon="-3.54662">
        <ele>18.3</ele>
        <time>2021-07-11T09:54:14Z</time>
      </trkpt>
      <trkpt lat="47.76692" lon="-3.54662">
        <ele>18.3</ele>
        <time>2021-07-11T09:54:15Z</time>
      </trkpt>
      <trkpt lat="47.76692" lon="-3.54661">
        <ele>18.3</ele>
        <time>2021-07-11T09:54:16Z</time>
      </trkpt>
      <trkpt lat="47.76692" lon="-3.54661">
        <ele>18.3</ele>
        <time>2021-07-11T09:54:17Z</time>
      </trkpt>
      <trkpt lat="47.76693" lon="-3.54661">
        <ele>18.3</ele>
        <time>2021-07-11T09:54:18Z</time>
      </trkpt>
      <trkpt lat="47.76693" lon="-3.5466">
        <ele>18.3</ele>
        <time>2021-07-11T09:54:19Z</time>
      </trkpt>
      <trkpt lat="47.76693" lon="-3.5466">
        <ele>18.3</ele>
        <time>2021-07-11T09:54:20Z</time>
      </trkpt>
      <trkpt lat="47.76693" lon="-3.54659">
        <ele>18.4</ele>
        <time>2021-07-11T09:54:21Z</time>
      </trkpt>
      <trkpt lat="47.76694" lon="-3.54659">
        <ele>18.4</ele>
        <time>2021-07-11T09:54:22Z</time>
      </trkpt>
      <trkpt lat="47.76694" lon="-3.54659">
        <ele>18.4</ele>
        <time>2021-07-11T09:54:23Z</time>
      </trkpt>
      <trkpt lat="47.76694" lon="-3.54658">
        <ele>18.4</ele>
        <time>2021-07-11T09:54:24Z</time>
      </trkpt>
      <trkpt lat="47.76695" lon="-3.54658">
        <ele>18.4</ele>
        <time>2021-07-11T09:54:25Z</time>
      </trkpt>
      <trkpt lat="47.76695" lon="-3.54658">
        <ele>18.4</ele>
        <time>2021-07-11T09:54:26Z</time>
      </trkpt>
      <trkpt lat="47.76695" lon="-3.54657">
        <ele>18.5</ele>
        <time>2021-07-11T09:54:27Z</time>
      </trkpt>
      <trkpt lat="47.76695" lon="-3.54657">
        <ele>18.5</ele>
        <time>2021-07-11T09:54:28Z</time>
      </trkpt>
      <trkpt lat="47.76696" lon="-3.54657">
        <ele>18.5</ele>
        <time>2021-07-11T09:54:29Z</time>
      </trkpt>
      <trkpt lat="47.76696" lon="-3.54656">
        <ele>18.5</ele>
        <time>2021-07-11T09:54:30Z</time>
      </trkpt>
      <trkpt lat="47.76696" lon="-3.54656">
        <ele>18.5</ele>
        <time>2021-07-11T09:54:31Z</time>
      </trkpt>
      <trkpt lat="47.76696" lon="-3.54655">
        <ele>18.5</ele>
        <time>2021-07-11T09:54:32Z</time>
      </trkpt>
      <trkpt lat="47.76697" lon="-3.54655">
        <ele>18.5</ele>
        <time>2021-07-11T09:54:33Z</time>
      </trkpt>
      <trkpt lat="47.76697" lon="-3.54655">
        <ele>18.6</ele>
        <time>2021-07-11T09:54:34Z</time>
      </trkpt>
      <trkpt lat="47.76697" lon="-3.54654">
        <ele>18.6</ele>
        <time>2021-07-11T09:54:35Z</time>
      </trkpt>
      <trkpt lat="47.76697" lon="-3.54654">
        <ele>18.6</ele>
        <time>2021-07-11T09:54:36Z</time>
      </trkpt>
      <trkpt lat="47.76698" lon="-3.54654">
        <ele>18.6</ele>
        <time>2021-07-11T09:54:37Z</time>
      </trkpt>
      <trkpt lat="47.76698" lon="-3.54653">
        <ele>18.6</ele>
        <time>2021-07-11T09:54:38Z</time>
      </trkpt>
      <trkpt lat="47.76698" lon="-3.54653">
        <ele>18.6</ele>
        <time>2021-07-11T09:54:39Z</time>
      </trkpt>
      <trkpt lat="47.76698" lon="-3.54653">
        <ele>18.6</ele>
        <time>2021-07-11T09:54:40Z</time>
      </trkpt>
      <trkpt lat="47.76699" lon="-3.54652">
        <ele>18.7</ele>
        <time>2021-07-11T09:54:41Z</time>
      </trkpt>
      <trkpt lat="47.76699" lon="-3.54652">
        <ele>18.7</ele>
        <time>2021-07-11T09:54:42Z</time>
      </trkpt>
      <trkpt lat="47.76699" lon="-3.54652">
        <ele>18.7</ele>
        <time>2021-07-11T09:54:43Z</time>
      </trkpt>
      <trkpt lat="47.76699" lon="-3.54651">
        <ele>18.7</ele>
        <time>2021-07-11T09:54:44Z</time>
      </trkpt>
      <trkpt lat="47.767" lon="-3.54651">
        <ele>18.7</ele>
        <time>2021-07-11T09:54:45Z</time>
      </trkpt>
      <trkpt lat="47.767" lon="-3.5465">
        <ele>18.7</ele>
        <time>2021-07-11T09:54:46Z</time>
      </trkpt>
      <trkpt lat="47.767" lon="-3.5465">
        <ele>18.7</ele>
        <time>2021-07-11T09:54:47Z</time>
      </trkpt>
      <trkpt lat="47.767" lon="-3.5465">
        <ele>18.8</ele>
        <time>2021-07-11T09:54:48Z</time>
      </trkpt>
      <trkpt lat="47.76701" lon="-3.54649">
        <ele>18.8</ele>
        <time>2021-07-11T09:54:49Z</time>
      </trkpt>
      <trkpt lat="47.76701" lon="-3.54649">
        <ele>18.8</ele>
        <time>2021-07-11T09:54:50Z</time>
      </trkpt>
      <trkpt lat="47.76701" lon="-3.54649">
        <ele>18.8</ele>
        <time>2021-07-11T09:54:51Z</time>
      </trkpt>
      <trkpt lat="47.76701" lon="-3.54648">
        <ele>18.8</ele>
        <time>2021-07-11T09:54:52Z</time>
      </trkpt>
      <trkpt lat="47.76702" lon="-3.54648">
        <ele>18.8</ele>
        <time>2021-07-11T09:54:53Z</time>
      </trkpt>
      <trkpt lat="47.76702" lon="-3.54648">
        <ele>18.8</ele>
        <time>2021-07-11T09:54:54Z</time>
      </trkpt>
      <trkpt lat="47.76702" lon="-3.54647">
        <ele>18.9</ele>
        <time>2021-07-11T09:54:55Z</time>
      </trkpt>
      <trkpt lat="47.76702" lon="-3.54647">
        <ele>18.9</ele>
        <time>2021-07-11T09:54:56Z</time>
      </trkpt>
      <trkpt lat="47.76703" lon="-3.54646">
        <ele>18.9</ele>
        <time>2021-07-11T09:54:57Z</time>
      </trkpt>
      <trkpt lat="47.76703" lon="-3.54646">
        <ele>18.9</ele>
        <time>2021-07-11T09:54:58Z</time>
      </trkpt>
      <trkpt lat="47.76703" lon="-3.54646">
        <ele>18.9</ele>
        <time>2021-07-11T09:54:59Z</time>
      </trkpt>
      <trkpt lat="47.76703" lon="-3.54645">
        <ele>18.9</ele>
        <time>2021-07-11T09:55:00Z</time>
      </trkpt>
      <trkpt lat="47.76704" lon="-3.54645">
        <ele>18.9</ele>
        <time>2021-07-11T09:55:01Z</time>
      </trkpt>
      <trkpt lat="47.76704" lon="-3.54645">
        <ele>19</ele>
        <time>2021-07-11T09:55:02Z</time>
      </trkpt>
      <trkpt lat="47.76704" lon="-3.54644">
        <ele>19</ele>
        <time>2021-07-11T09:55:03Z</time>
      </trkpt>
      <trkpt lat="47.76705" lon="-3.54644">
        <ele>19</ele>
        <time>2021-07-11T09:55:04Z</time>
      </trkpt>
      <trkpt lat="47.76705" lon="-3.54644">
        <ele>19</ele>
        <time>2021-07-11T09:55:05Z</time>
      </trkpt>
      <trkpt lat="47.76705" lon="-3.54643">
        <ele>19</ele>
        <time>2021-07-11T09:55:06Z</time>
      </trkpt>
      <trkpt lat="47.76705" lon="-3.54643">
        <ele>19</ele>
        <time>2021-07-11T09:55:07Z</time>
      </trkpt>
      <trkpt lat="47.76706" lon="-3.54642">
        <ele>19</ele>
        <time>2021-07-11T09:55:08Z</time>
      </trkpt>
      <trkpt lat="47.76706" lon="-3.54642">
        <ele>19</ele>
        <time>2021-07-11T09:55:09Z</time>
      </trkpt>
      <trkpt lat="47.76706" lon="-3.54642">
        <ele>19.1</ele>
        <time>2021-07-11T09:55:10Z</time>
      </trkpt>
      <trkpt lat="47.76706" lon="-3.54641">
        <ele>19.1</ele>
        <time>2021-07-11T09:55:11Z</time>
      </trkpt>
      <trkpt lat="47.76707" lon="-3.54641">
        <ele>19.1</ele>
        <time>2021-07-11T09:55:12Z</time>
      </trkpt>
      <trkpt lat="47.76707" lon="-3.54641">
        <ele>19.1</ele>
        <time>2021-07-11T09:55:13Z</time>
      </trkpt>
      <trkpt lat="47.76707" lon="-3.5464">
        <ele>19.1</ele>
        <time>2021-07-11T09:55:14Z</time>
      </trkpt>
      <trkpt lat="47.76707" lon="-3.5464">
        <ele>19.1</ele>
        <time>2021-07-11T09:55:15Z</time>
      </trkpt>
      <trkpt lat="47.76708" lon="-3.5464">
        <ele>19.1</ele>
        <time>2021-07-11T09:55:16Z</time>
      </trkpt>
      <trkpt lat="47.76708" lon="-3.54639">
        <ele>19.1</ele>
        <time>2021-07-11T09:55:17Z</time>
      </trkpt>
      <trkpt lat="47.76708" lon="-3.54639">
        <ele>19.2</ele>
        <time>2021-07-11T09:55:18Z</time>
      </trkpt>
      <trkpt lat="47.76708" lon="-3.54638">
        <ele>19.2</ele>
        <time>2021-07-11T09:55:19Z</time>
      </trkpt>
      <trkpt lat="47.76709" lon="-3.54638">
        <ele>19.2</ele>
        <time>2021-07-11T09:55:20Z</time>
      </trkpt>
      <trkpt lat="47.76709" lon="-3.54638">
        <ele>19.2</ele>
        <time>2021-07-11T09:55:21Z</time>
      </trkpt>
      <trkpt lat="47.76709" lon="-3.54637">
        <ele>19.2</ele>
        <time>2021-07-11T09:55:22Z</time>
      </trkpt>
      <trkpt lat="47.76709" lon="-3.54637">
        <ele>19.2</ele>
        <time>2021-07-11T09:55:23Z</time>
      </trkpt>
      <trkpt lat="47.7671" lon="-3.54637">
        <ele>19.2</ele>
        <time>2021-07-11T09:55:24Z</time>
      </trkpt>
      <trkpt lat="47.7671" lon="-3.54636">
        <ele>19.2</ele>
        <time>2021-07-11T09:55:25Z</time>
      </trkpt>
      <trkpt lat="47.7671" lon="-3.54636">
        <ele>19.3</ele>
        <time>2021-07-11T09:55:26Z</time>
      </trkpt>
      <trkpt lat="47.7671" lon="-3.54636">
        <ele>19.3</ele>
        <time>2021-07-11T09:55:27Z</time>
      </trkpt>
      <trkpt lat="47.76711" lon="-3.54635">
        <ele>19.3</ele>
        <time>2021-07-11T09:55:28Z</time>
      </trkpt>
      <trkpt lat="47.76711" lon="-3.54635">
        <ele>19.3</ele>
        <time>2021-07-11T09:55:29Z</time>
      </trkpt>
      <trkpt lat="47.76711" lon="-3.54634">
        <ele>19.3</ele>
        <time>2021-07-11T09:55:30Z</time>
      </trkpt>
      <trkpt lat="47.76711" lon="-3.54634">
        <ele>19.3</ele>
        <time>2021-07-11T09:55:31Z</time>
      </trkpt>
      <trkpt lat="47.76712" lon="-3.54634">
        <ele>19.3</ele>
        <time>2021-07-11T09:55:32Z</time>
      </trkpt>
      <trkpt lat="47.76712" lon="-3.54633">
        <ele>19.3</ele>
        <time>2021-07-11T09:55:33Z</time>
      </trkpt>
      <trkpt lat="47.76712" lon="-3.54633">
        <ele>19.4</ele>
        <time>2021-07-11T09:55:34Z</time>
      </trkpt>
      <trkpt lat="47.76712" lon="-3.54633">
        <ele>19.4</ele>
        <time>2021-07-11T09:55:35Z</time>
      </trkpt>
      <trkpt lat="47.76713" lon="-3.54632">
        <ele>19.4</ele>
        <time>2021-07-11T09:55:36Z</time>
      </trkpt>
      <trkpt lat="47.76713" lon="-3.54632">
        <ele>19.4</ele>
        <time>2021-07-11T09:55:37Z</time>
      </trkpt>
      <trkpt lat="47.76713" lon="-3.54632">
        <ele>19.4</ele>
        <time>2021-07-11T09:55:38Z</time>
      </trkpt>
      <trkpt lat="47.76713" lon="-3.54631">
        <ele>19.4</ele>
        <time>2021-07-11T09:55:39Z</time>
      </trkpt>
      <trkpt lat="47.76714" lon="-3.54631">
        <ele>19.4</ele>
        <time>2021-07-11T09:55:40Z</time>
      </trkpt>
      <trkpt lat="47.76714" lon="-3.5463">
        <ele>19.4</ele>
        <time>2021-07-11T09:55:41Z</time>
      </trkpt>
      <trkpt lat="47.76714" lon="-3.5463">
        <ele>19.5</ele>
        <time>2021-07-11T09:55:42Z</time>
      </trkpt>
      <trkpt lat="47.76715" lon="-3.5463">
        <ele>19.5</ele>
        <time>2021-07-11T09:55:43Z</time>
      </trkpt>
      <trkpt lat="47.76715" lon="-3.54629">
        <ele>19.5</ele>
        <time>2021-07-11T09:55:44Z</time>
      </trkpt>
      <trkpt lat="47.76715" lon="-3.54629">
        <ele>19.5</ele>
        <time>2021-07-11T09:55:45Z</time>
      </trkpt>
      <trkpt lat="47.76715" lon="-3.54629">
        <ele>19.5</ele>
        <time>2021-07-11T09:55:46Z</time>
      </trkpt>
      <trkpt lat="47.76716" lon="-3.54628">
        <ele>19.5</ele>
        <time>2021-07-11T09:55:47Z</time>
      </trkpt>
      <trkpt lat="47.76716" lon="-3.54628">
        <ele>19.5</ele>
        <time>2021-07-11T09:55:48Z</time>
      </trkpt>
      <trkpt lat="47.76716" lon="-3.54628">
        <ele>19.6</ele>
        <time>2021-07-11T09:55:49Z</time>
      </trkpt>
      <trkpt lat="47.76716" lon="-3.54627">
        <ele>19.6</ele>
        <time>2021-07-11T09:55:50Z</time>
      </trkpt>
      <trkpt lat="47.76717" lon="-3.54627">
        <ele>19.6</ele>
        <time>2021-07-11T09:55:51Z</time>
      </trkpt>
      <trkpt lat="47.76717" lon="-3.54626">
        <ele>19.6</ele>
        <time>2021-07-11T09:55:52Z</time>
      </trkpt>
      <trkpt lat="47.76717" lon="-3.54626">
        <ele>19.6</ele>
        <time>2021-07-11T09:55:53Z</time>
      </trkpt>
      <trkpt lat="47.76717" lon="-3.54626">
        <ele>19.6</ele>
        <time>2021-07-11T09:55:54Z</time>
      </trkpt>
      <trkpt lat="47.76718" lon="-3.54625">
        <ele>19.6</ele>
        <time>2021-07-11T09:55:55Z</time>
      </trkpt>
      <trkpt lat="47.76718" lon="-3.54625">
        <ele>19.6</ele>
        <time>2021-07-11T09:55:56Z</time>
      </trkpt>
      <trkpt lat="47.76718" lon="-3.54625">
        <ele>19.7</ele>
        <time>2021-07-11T09:55:57Z</time>
      </trkpt>
      <trkpt lat="47.76718" lon="-3.54624">
        <ele>19.7</ele>
        <time>2021-07-11T09:55:58Z</time>
      </trkpt>
      <trkpt lat="47.76719" lon="-3.54624">
        <ele>19.7</ele>
        <time>2021-07-11T09:55:59Z</time>
      </trkpt>
      <trkpt lat="47.76719" lon="-3.54624">
        <ele>19.7</ele>
        <time>2021-07-11T09:56:00Z</time>
      </trkpt>
      <trkpt lat="47.76719" lon="-3.54623">
        <ele>19.7</ele>
        <time>2021-07-11T09:56:01Z</time>
      </trkpt>
      <trkpt lat="47.76719" lon="-3.54623">
        <ele>19.7</ele>
        <time>2021-07-11T09:56:02Z</time>
      </trkpt>
      <trkpt lat="47.7672" lon="-3.54622">
        <ele>19.7</ele>
        <time>2021-07-11T09:56:03Z</time>
      </trkpt>
      <trkpt lat="47.7672" lon="-3.54622">
        <ele>19.7</ele>
        <time>2021-07-11T09:56:04Z</time>
      </trkpt>
      <trkpt lat="47.7672" lon="-3.54622">
        <ele>19.7</ele>
        <time>2021-07-11T09:56:05Z</time>
      </trkpt>
      <trkpt lat="47.7672" lon="-3.54621">
        <ele>19.8</ele>
        <time>2021-07-11T09:56:06Z</time>
      </trkpt>
      <trkpt lat="47.76721" lon="-3.54621">
        <ele>19.8</ele>
        <time>2021-07-11T09:56:07Z</time>
      </trkpt>
      <trkpt lat="47.76721" lon="-3.54621">
        <ele>19.8</ele>
        <time>2021-07-11T09:56:08Z</time>
      </trkpt>
      <trkpt lat="47.76721" lon="-3.5462">
        <ele>19.8</ele>
        <time>2021-07-11T09:56:09Z</time>
      </trkpt>
      <trkpt lat="47.76721" lon="-3.5462">
        <ele>19.8</ele>
        <time>2021-07-11T09:56:10Z</time>
      </trkpt>
      <trkpt lat="47.76722" lon="-3.54619">
        <ele>19.8</ele>
        <time>2021-07-11T09:56:11Z</time>
      </trkpt>
      <trkpt lat="47.76723" lon="-3.54618">
        <ele>19.9</ele>
        <time>2021-07-11T09:56:12Z</time>
      </trkpt>
      <trkpt lat="47.76724" lon="-3.54616">
        <ele>19.9</ele>
        <time>2021-07-11T09:56:13Z</time>
      </trkpt>
      <trkpt lat="47.76724" lon="-3.54615">
        <ele>19.9</ele>
        <time>2021-07-11T09:56:14Z</time>
      </trkpt>
      <trkpt lat="47.76725" lon="-3.54614">
        <ele>20</ele>
        <time>2021-07-11T09:56:15Z</time>
      </trkpt>
      <trkpt lat="47.76726" lon="-3.54613">
        <ele>20</ele>
        <time>2021-07-11T09:56:16Z</time>
      </trkpt>
      <trkpt lat="47.76726" lon="-3.54612">
        <ele>20</ele>
        <time>2021-07-11T09:56:17Z</time>
      </trkpt>
      <trkpt lat="47.76727" lon="-3.54611">
        <ele>20.1</ele>
        <time>2021-07-11T09:56:18Z</time>
      </trkpt>
      <trkpt lat="47.76728" lon="-3.5461">
        <ele>20.1</ele>
        <time>2021-07-11T09:56:19Z</time>
      </trkpt>
      <trkpt lat="47.76728" lon="-3.54609">
        <ele>20.1</ele>
        <time>2021-07-11T09:56:20Z</time>
      </trkpt>
      <trkpt lat="47.76729" lon="-3.54608">
        <ele>20.2</ele>
        <time>2021-07-11T09:56:21Z</time>
      </trkpt>
      <trkpt lat="47.7673" lon="-3.54606">
        <ele>20.2</ele>
        <time>2021-07-11T09:56:22Z</time>
      </trkpt>
      <trkpt lat="47.7673" lon="-3.54606">
        <ele>20.2</ele>
        <time>2021-07-11T09:56:23Z</time>
      </trkpt>
      <trkpt lat="47.7673" lon="-3.54605">
        <ele>20.2</ele>
        <time>2021-07-11T09:56:24Z</time>
      </trkpt>
      <trkpt lat="47.76731" lon="-3.54605">
        <ele>20.2</ele>
        <time>2021-07-11T09:56:25Z</time>
      </trkpt>
      <trkpt lat="47.76732" lon="-3.54603">
        <ele>20.3</ele>
        <time>2021-07-11T09:56:26Z</time>
      </trkpt>
      <trkpt lat="47.76733" lon="-3.54602">
        <ele>20.3</ele>
        <time>2021-07-11T09:56:27Z</time>
      </trkpt>
      <trkpt lat="47.76734" lon="-3.546">
        <ele>20.4</ele>
        <time>2021-07-11T09:56:28Z</time>
      </trkpt>
      <trkpt lat="47.76735" lon="-3.54599">
        <ele>20.4</ele>
        <time>2021-07-11T09:56:29Z</time>
      </trkpt>
      <trkpt lat="47.76736" lon="-3.54597">
        <ele>20.5</ele>
        <time>2021-07-11T09:56:30Z</time>
      </trkpt>
      <trkpt lat="47.76737" lon="-3.54595">
        <ele>20.5</ele>
        <time>2021-07-11T09:56:31Z</time>
      </trkpt>
      <trkpt lat="47.76738" lon="-3.54594">
        <ele>20.5</ele>
        <time>2021-07-11T09:56:32Z</time>
      </trkpt>
      <trkpt lat="47.76739" lon="-3.54592">
        <ele>20.6</ele>
        <time>2021-07-11T09:56:33Z</time>
      </trkpt>
      <trkpt lat="47.7674" lon="-3.5459">
        <ele>20.6</ele>
        <time>2021-07-11T09:56:34Z</time>
      </trkpt>
      <trkpt lat="47.76741" lon="-3.54588">
        <ele>20.7</ele>
        <time>2021-07-11T09:56:35Z</time>
      </trkpt>
      <trkpt lat="47.76742" lon="-3.54587">
        <ele>20.7</ele>
        <time>2021-07-11T09:56:36Z</time>
      </trkpt>
      <trkpt lat="47.76742" lon="-3.54586">
        <ele>20.7</ele>
        <time>2021-07-11T09:56:37Z</time>
      </trkpt>
      <trkpt lat="47.76743" lon="-3.54585">
        <ele>20.8</ele>
        <time>2021-07-11T09:56:38Z</time>
      </trkpt>
      <trkpt lat="47.76744" lon="-3.54584">
        <ele>20.8</ele>
        <time>2021-07-11T09:56:39Z</time>
      </trkpt>
      <trkpt lat="47.76744" lon="-3.54582">
        <ele>20.8</ele>
        <time>2021-07-11T09:56:40Z</time>
      </trkpt>
      <trkpt lat="47.76745" lon="-3.54581">
        <ele>20.9</ele>
        <time>2021-07-11T09:56:41Z</time>
      </trkpt>
      <trkpt lat="47.76746" lon="-3.54579">
        <ele>20.9</ele>
        <time>2021-07-11T09:56:42Z</time>
      </trkpt>
      <trkpt lat="47.76747" lon="-3.54578">
        <ele>20.9</ele>
        <time>2021-07-11T09:56:43Z</time>
      </trkpt>
      <trkpt lat="47.76748" lon="-3.54577">
        <ele>21</ele>
        <time>2021-07-11T09:56:44Z</time>
      </trkpt>
      <trkpt lat="47.76748" lon="-3.54575">
        <ele>21</ele>
        <time>2021-07-11T09:56:45Z</time>
      </trkpt>
      <trkpt lat="47.76749" lon="-3.54574">
        <ele>21</ele>
        <time>2021-07-11T09:56:46Z</time>
      </trkpt>
      <trkpt lat="47.7675" lon="-3.54572">
        <ele>21.1</ele>
        <time>2021-07-11T09:56:47Z</time>
      </trkpt>
      <trkpt lat="47.76751" lon="-3.54571">
        <ele>21.1</ele>
        <time>2021-07-11T09:56:48Z</time>
      </trkpt>
      <trkpt lat="47.76752" lon="-3.5457">
        <ele>21.1</ele>
        <time>2021-07-11T09:56:49Z</time>
      </trkpt>
      <trkpt lat="47.76752" lon="-3.54568">
        <ele>21.1</ele>
        <time>2021-07-11T09:56:50Z</time>
      </trkpt>
      <trkpt lat="47.76753" lon="-3.54567">
        <ele>21.2</ele>
        <time>2021-07-11T09:56:51Z</time>
      </trkpt>
      <trkpt lat="47.76754" lon="-3.54565">
        <ele>21.2</ele>
        <time>2021-07-11T09:56:52Z</time>
      </trkpt>
      <trkpt lat="47.76755" lon="-3.54564">
        <ele>21.2</ele>
        <time>2021-07-11T09:56:53Z</time>
      </trkpt>
      <trkpt lat="47.76756" lon="-3.54563">
        <ele>21.3</ele>
        <time>2021-07-11T09:56:54Z</time>
      </trkpt>
      <trkpt lat="47.76757" lon="-3.54561">
        <ele>21.3</ele>
        <time>2021-07-11T09:56:55Z</time>
      </trkpt>
      <trkpt lat="47.76758" lon="-3.5456">
        <ele>21.3</ele>
        <time>2021-07-11T09:56:56Z</time>
      </trkpt>
      <trkpt lat="47.76759" lon="-3.54559">
        <ele>21.4</ele>
        <time>2021-07-11T09:56:57Z</time>
      </trkpt>
      <trkpt lat="47.7676" lon="-3.54558">
        <ele>21.4</ele>
        <time>2021-07-11T09:56:58Z</time>
      </trkpt>
      <trkpt lat="47.76761" lon="-3.54557">
        <ele>21.4</ele>
        <time>2021-07-11T09:56:59Z</time>
      </trkpt>
      <trkpt lat="47.76762" lon="-3.54555">
        <ele>21.4</ele>
        <time>2021-07-11T09:57:00Z</time>
      </trkpt>
      <trkpt lat="47.76763" lon="-3.54554">
        <ele>21.5</ele>
        <time>2021-07-11T09:57:01Z</time>
      </trkpt>
      <trkpt lat="47.76764" lon="-3.54553">
        <ele>21.5</ele>
        <time>2021-07-11T09:57:02Z</time>
      </trkpt>
      <trkpt lat="47.76765" lon="-3.54552">
        <ele>21.5</ele>
        <time>2021-07-11T09:57:03Z</time>
      </trkpt>
      <trkpt lat="47.76767" lon="-3.54551">
        <ele>21.5</ele>
        <time>2021-07-11T09:57:04Z</time>
      </trkpt>
      <trkpt lat="47.76768" lon="-3.5455">
        <ele>21.6</ele>
        <time>2021-07-11T09:57:05Z</time>
      </trkpt>
      <trkpt lat="47.76769" lon="-3.54548">
        <ele>21.6</ele>
        <time>2021-07-11T09:57:06Z</time>
      </trkpt>
      <trkpt lat="47.7677" lon="-3.54547">
        <ele>21.6</ele>
        <time>2021-07-11T09:57:07Z</time>
      </trkpt>
      <trkpt lat="47.76771" lon="-3.54546">
        <ele>21.7</ele>
        <time>2021-07-11T09:57:08Z</time>
      </trkpt>
      <trkpt lat="47.76773" lon="-3.54544">
        <ele>21.7</ele>
        <time>2021-07-11T09:57:09Z</time>
      </trkpt>
      <trkpt lat="47.76774" lon="-3.54543">
        <ele>21.7</ele>
        <time>2021-07-11T09:57:10Z</time>
      </trkpt>
      <trkpt lat="47.76775" lon="-3.54541">
        <ele>21.7</ele>
        <time>2021-07-11T09:57:11Z</time>
      </trkpt>
      <trkpt lat="47.76776" lon="-3.54539">
        <ele>21.8</ele>
        <time>2021-07-11T09:57:12Z</time>
      </trkpt>
      <trkpt lat="47.76777" lon="-3.54538">
        <ele>21.8</ele>
        <time>2021-07-11T09:57:13Z</time>
      </trkpt>
      <trkpt lat="47.76778" lon="-3.54536">
        <ele>21.8</ele>
        <time>2021-07-11T09:57:14Z</time>
      </trkpt>
      <trkpt lat="47.76779" lon="-3.54535">
        <ele>21.9</ele>
        <time>2021-07-11T09:57:15Z</time>
      </trkpt>
      <trkpt lat="47.7678" lon="-3.54534">
        <ele>21.9</ele>
        <time>2021-07-11T09:57:16Z</time>
      </trkpt>
      <trkpt lat="47.76781" lon="-3.54533">
        <ele>21.9</ele>
        <time>2021-07-11T09:57:17Z</time>
      </trkpt>
      <trkpt lat="47.76782" lon="-3.54532">
        <ele>21.9</ele>
        <time>2021-07-11T09:57:18Z</time>
      </trkpt>
      <trkpt lat="47.76783" lon="-3.54531">
        <ele>21.9</ele>
        <time>2021-07-11T09:57:19Z</time>
      </trkpt>
      <trkpt lat="47.76784" lon="-3.5453">
        <ele>22</ele>
        <time>2021-07-11T09:57:20Z</time>
      </trkpt>
      <trkpt lat="47.76785" lon="-3.54529">
        <ele>22</ele>
        <time>2021-07-11T09:57:21Z</time>
      </trkpt>
      <trkpt lat="47.76786" lon="-3.54528">
        <ele>22</ele>
        <time>2021-07-11T09:57:22Z</time>
      </trkpt>
      <trkpt lat="47.76787" lon="-3.54527">
        <ele>22</ele>
        <time>2021-07-11T09:57:23Z</time>
      </trkpt>
      <trkpt lat="47.76788" lon="-3.54525">
        <ele>22.1</ele>
        <time>2021-07-11T09:57:24Z</time>
      </trkpt>
      <trkpt lat="47.76789" lon="-3.54524">
        <ele>22.1</ele>
        <time>2021-07-11T09:57:25Z</time>
      </trkpt>
      <trkpt lat="47.7679" lon="-3.54523">
        <ele>22.1</ele>
        <time>2021-07-11T09:57:26Z</time>
      </trkpt>
      <trkpt lat="47.76791" lon="-3.54522">
        <ele>22.2</ele>
        <time>2021-07-11T09:57:27Z</time>
      </trkpt>
      <trkpt lat="47.76792" lon="-3.54521">
        <ele>22.2</ele>
        <time>2021-07-11T09:57:28Z</time>
      </trkpt>
      <trkpt lat="47.76792" lon="-3.5452">
        <ele>22.2</ele>
        <time>2021-07-11T09:57:29Z</time>
      </trkpt>
      <trkpt lat="47.76793" lon="-3.54519">
        <ele>22.2</ele>
        <time>2021-07-11T09:57:30Z</time>
      </trkpt>
      <trkpt lat="47.76794" lon="-3.54518">
        <ele>22.3</ele>
        <time>2021-07-11T09:57:31Z</time>
      </trkpt>
      <trkpt lat="47.76795" lon="-3.54517">
        <ele>22.3</ele>
        <time>2021-07-11T09:57:32Z</time>
      </trkpt>
      <trkpt lat="47.76796" lon="-3.54516">
        <ele>22.3</ele>
        <time>2021-07-11T09:57:33Z</time>
      </trkpt>
      <trkpt lat="47.76797" lon="-3.54515">
        <ele>22.4</ele>
        <time>2021-07-11T09:57:34Z</time>
      </trkpt>
      <trkpt lat="47.76798" lon="-3.54514">
        <ele>22.4</ele>
        <time>2021-07-11T09:57:35Z</time>
      </trkpt>
      <trkpt lat="47.76799" lon="-3.54513">
        <ele>22.4</ele>
        <time>2021-07-11T09:57:36Z</time>
      </trkpt>
      <trkpt lat="47.768" lon="-3.54512">
        <ele>22.4</ele>
        <time>2021-07-11T09:57:37Z</time>
      </trkpt>
      <trkpt lat="47.76801" lon="-3.5451">
        <ele>22.5</ele>
        <time>2021-07-11T09:57:38Z</time>
      </trkpt>
      <trkpt lat="47.76802" lon="-3.54509">
        <ele>22.5</ele>
        <time>2021-07-11T09:57:39Z</time>
      </trkpt>
      <trkpt lat="47.76803" lon="-3.54508">
        <ele>22.5</ele>
        <time>2021-07-11T09:57:40Z</time>
      </trkpt>
      <trkpt lat="47.76804" lon="-3.54507">
        <ele>22.6</ele>
        <time>2021-07-11T09:57:41Z</time>
      </trkpt>
      <trkpt lat="47.76805" lon="-3.54506">
        <ele>22.6</ele>
        <time>2021-07-11T09:57:42Z</time>
      </trkpt>
      <trkpt lat="47.76806" lon="-3.54505">
        <ele>22.6</ele>
        <time>2021-07-11T09:57:43Z</time>
      </trkpt>
      <trkpt lat="47.76807" lon="-3.54504">
        <ele>22.6</ele>
        <time>2021-07-11T09:57:44Z</time>
      </trkpt>
      <trkpt lat="47.76807" lon="-3.54503">
        <ele>22.7</ele>
        <time>2021-07-11T09:57:45Z</time>
      </trkpt>
      <trkpt lat="47.76808" lon="-3.54502">
        <ele>22.7</ele>
        <time>2021-07-11T09:57:46Z</time>
      </trkpt>
      <trkpt lat="47.76809" lon="-3.54501">
        <ele>22.7</ele>
        <time>2021-07-11T09:57:47Z</time>
      </trkpt>
      <trkpt lat="47.7681" lon="-3.545">
        <ele>22.8</ele>
        <time>2021-07-11T09:57:48Z</time>
      </trkpt>
      <trkpt lat="47.76811" lon="-3.54499">
        <ele>22.8</ele>
        <time>2021-07-11T09:57:49Z</time>
      </trkpt>
      <trkpt lat="47.76812" lon="-3.54498">
        <ele>22.8</ele>
        <time>2021-07-11T09:57:50Z</time>
      </trkpt>
      <trkpt lat="47.76813" lon="-3.54497">
        <ele>22.9</ele>
        <time>2021-07-11T09:57:51Z</time>
      </trkpt>
      <trkpt lat="47.76814" lon="-3.54496">
        <ele>22.9</ele>
        <time>2021-07-11T09:57:52Z</time>
      </trkpt>
      <trkpt lat="47.76815" lon="-3.54494">
        <ele>22.9</ele>
        <time>2021-07-11T09:57:53Z</time>
      </trkpt>
      <trkpt lat="47.76816" lon="-3.54493">
        <ele>23</ele>
        <time>2021-07-11T09:57:54Z</time>
      </trkpt>
      <trkpt lat="47.76817" lon="-3.54492">
        <ele>23</ele>
        <time>2021-07-11T09:57:55Z</time>
      </trkpt>
      <trkpt lat="47.76818" lon="-3.54491">
        <ele>23</ele>
        <time>2021-07-11T09:57:56Z</time>
      </trkpt>
      <trkpt lat="47.76819" lon="-3.5449">
        <ele>23</ele>
        <time>2021-07-11T09:57:57Z</time>
      </trkpt>
      <trkpt lat="47.7682" lon="-3.54489">
        <ele>23.1</ele>
        <time>2021-07-11T09:57:58Z</time>
      </trkpt>
      <trkpt lat="47.76821" lon="-3.54488">
        <ele>23.1</ele>
        <time>2021-07-11T09:57:59Z</time>
      </trkpt>
      <trkpt lat="47.76822" lon="-3.54487">
        <ele>23.1</ele>
        <time>2021-07-11T09:58:00Z</time>
      </trkpt>
      <trkpt lat="47.76823" lon="-3.54484">
        <ele>23.2</ele>
        <time>2021-07-11T09:58:01Z</time>
      </trkpt>
      <trkpt lat="47.76824" lon="-3.54483">
        <ele>23.2</ele>
        <time>2021-07-11T09:58:02Z</time>
      </trkpt>
      <trkpt lat="47.76825" lon="-3.54482">
        <ele>23.2</ele>
        <time>2021-07-11T09:58:03Z</time>
      </trkpt>
      <trkpt lat="47.76826" lon="-3.54481">
        <ele>23.2</ele>
        <time>2021-07-11T09:58:04Z</time>
      </trkpt>
      <trkpt lat="47.76827" lon="-3.5448">
        <ele>23.3</ele>
        <time>2021-07-11T09:58:05Z</time>
      </trkpt>
      <trkpt lat="47.76828" lon="-3.54479">
        <ele>23.3</ele>
        <time>2021-07-11T09:58:06Z</time>
      </trkpt>
      <trkpt lat="47.76829" lon="-3.54478">
        <ele>23.3</ele>
        <time>2021-07-11T09:58:07Z</time>
      </trkpt>
      <trkpt lat="47.76829" lon="-3.54477">
        <ele>23.3</ele>
        <time>2021-07-11T09:58:08Z</time>
      </trkpt>
      <trkpt lat="47.7683" lon="-3.54476">
        <ele>23.4</ele>
        <time>2021-07-11T09:58:09Z</time>
      </trkpt>
      <trkpt lat="47.76831" lon="-3.54474">
        <ele>23.4</ele>
        <time>2021-07-11T09:58:10Z</time>
      </trkpt>
      <trkpt lat="47.76833" lon="-3.54472">
        <ele>23.4</ele>
        <time>2021-07-11T09:58:11Z</time>
      </trkpt>
      <trkpt lat="47.76834" lon="-3.54471">
        <ele>23.4</ele>
        <time>2021-07-11T09:58:12Z</time>
      </trkpt>
      <trkpt lat="47.76835" lon="-3.5447">
        <ele>23.5</ele>
        <time>2021-07-11T09:58:13Z</time>
      </trkpt>
      <trkpt lat="47.76836" lon="-3.54469">
        <ele>23.5</ele>
        <time>2021-07-11T09:58:14Z</time>
      </trkpt>
      <trkpt lat="47.76837" lon="-3.54468">
        <ele>23.5</ele>
        <time>2021-07-11T09:58:15Z</time>
      </trkpt>
      <trkpt lat="47.76838" lon="-3.54467">
        <ele>23.6</ele>
        <time>2021-07-11T09:58:16Z</time>
      </trkpt>
      <trkpt lat="47.7684" lon="-3.54466">
        <ele>23.6</ele>
        <time>2021-07-11T09:58:17Z</time>
      </trkpt>
      <trkpt lat="47.76841" lon="-3.54466">
        <ele>23.6</ele>
        <time>2021-07-11T09:58:18Z</time>
      </trkpt>
      <trkpt lat="47.76842" lon="-3.54465">
        <ele>23.6</ele>
        <time>2021-07-11T09:58:19Z</time>
      </trkpt>
      <trkpt lat="47.76843" lon="-3.54465">
        <ele>23.7</ele>
        <time>2021-07-11T09:58:20Z</time>
      </trkpt>
      <trkpt lat="47.76844" lon="-3.54465">
        <ele>23.7</ele>
        <time>2021-07-11T09:58:21Z</time>
      </trkpt>
      <trkpt lat="47.76845" lon="-3.54464">
        <ele>23.7</ele>
        <time>2021-07-11T09:58:22Z</time>
      </trkpt>
      <trkpt lat="47.76846" lon="-3.54464">
        <ele>23.7</ele>
        <time>2021-07-11T09:58:23Z</time>
      </trkpt>
      <trkpt lat="47.76847" lon="-3.54463">
        <ele>23.8</ele>
        <time>2021-07-11T09:58:24Z</time>
      </trkpt>
      <trkpt lat="47.76848" lon="-3.54462">
        <ele>23.8</ele>
        <time>2021-07-11T09:58:25Z</time>
      </trkpt>
      <trkpt lat="47.76848" lon="-3.54462">
        <ele>23.8</ele>
        <time>2021-07-11T09:58:26Z</time>
      </trkpt>
      <trkpt lat="47.76849" lon="-3.54461">
        <ele>23.8</ele>
        <time>2021-07-11T09:58:27Z</time>
      </trkpt>
      <trkpt lat="47.7685" lon="-3.5446">
        <ele>23.9</ele>
        <time>2021-07-11T09:58:28Z</time>
      </trkpt>
      <trkpt lat="47.76851" lon="-3.5446">
        <ele>23.9</ele>
        <time>2021-07-11T09:58:29Z</time>
      </trkpt>
      <trkpt lat="47.76852" lon="-3.54459">
        <ele>23.9</ele>
        <time>2021-07-11T09:58:30Z</time>
      </trkpt>
      <trkpt lat="47.76853" lon="-3.54458">
        <ele>23.9</ele>
        <time>2021-07-11T09:58:31Z</time>
      </trkpt>
      <trkpt lat="47.76854" lon="-3.54458">
        <ele>24</ele>
        <time>2021-07-11T09:58:32Z</time>
      </trkpt>
      <trkpt lat="47.76855" lon="-3.54457">
        <ele>24</ele>
        <time>2021-07-11T09:58:33Z</time>
      </trkpt>
      <trkpt lat="47.76856" lon="-3.54456">
        <ele>24</ele>
        <time>2021-07-11T09:58:34Z</time>
      </trkpt>
      <trkpt lat="47.76857" lon="-3.54456">
        <ele>24</ele>
        <time>2021-07-11T09:58:35Z</time>
      </trkpt>
      <trkpt lat="47.76858" lon="-3.54455">
        <ele>24.1</ele>
        <time>2021-07-11T09:58:36Z</time>
      </trkpt>
      <trkpt lat="47.76859" lon="-3.54454">
        <ele>24.1</ele>
        <time>2021-07-11T09:58:37Z</time>
      </trkpt>
      <trkpt lat="47.7686" lon="-3.54452">
        <ele>24.1</ele>
        <time>2021-07-11T09:58:38Z</time>
      </trkpt>
      <trkpt lat="47.76861" lon="-3.54451">
        <ele>24.2</ele>
        <time>2021-07-11T09:58:39Z</time>
      </trkpt>
      <trkpt lat="47.76862" lon="-3.5445">
        <ele>24.2</ele>
        <time>2021-07-11T09:58:40Z</time>
      </trkpt>
      <trkpt lat="47.76863" lon="-3.54449">
        <ele>24.3</ele>
        <time>2021-07-11T09:58:41Z</time>
      </trkpt>
      <trkpt lat="47.76864" lon="-3.54448">
        <ele>24.3</ele>
        <time>2021-07-11T09:58:42Z</time>
      </trkpt>
      <trkpt lat="47.76865" lon="-3.54446">
        <ele>24.3</ele>
        <time>2021-07-11T09:58:43Z</time>
      </trkpt>
      <trkpt lat="47.76867" lon="-3.54445">
        <ele>24.4</ele>
        <time>2021-07-11T09:58:44Z</time>
      </trkpt>
      <trkpt lat="47.76868" lon="-3.54444">
        <ele>24.4</ele>
        <time>2021-07-11T09:58:45Z</time>
      </trkpt>
      <trkpt lat="47.76869" lon="-3.54443">
        <ele>24.5</ele>
        <time>2021-07-11T09:58:46Z</time>
      </trkpt>
      <trkpt lat="47.7687" lon="-3.54442">
        <ele>24.5</ele>
        <time>2021-07-11T09:58:47Z</time>
      </trkpt>
      <trkpt lat="47.76872" lon="-3.54441">
        <ele>24.5</ele>
        <time>2021-07-11T09:58:48Z</time>
      </trkpt>
      <trkpt lat="47.76873" lon="-3.5444">
        <ele>24.6</ele>
        <time>2021-07-11T09:58:49Z</time>
      </trkpt>
      <trkpt lat="47.76874" lon="-3.54439">
        <ele>24.6</ele>
        <time>2021-07-11T09:58:50Z</time>
      </trkpt>
      <trkpt lat="47.76876" lon="-3.54438">
        <ele>24.7</ele>
        <time>2021-07-11T09:58:51Z</time>
      </trkpt>
      <trkpt lat="47.76877" lon="-3.54437">
        <ele>24.7</ele>
        <time>2021-07-11T09:58:52Z</time>
      </trkpt>
      <trkpt lat="47.76878" lon="-3.54436">
        <ele>24.8</ele>
        <time>2021-07-11T09:58:53Z</time>
      </trkpt>
      <trkpt lat="47.76879" lon="-3.54435">
        <ele>24.8</ele>
        <time>2021-07-11T09:58:54Z</time>
      </trkpt>
      <trkpt lat="47.7688" lon="-3.54434">
        <ele>24.8</ele>
        <time>2021-07-11T09:58:55Z</time>
      </trkpt>
      <trkpt lat="47.76881" lon="-3.54433">
        <ele>24.9</ele>
        <time>2021-07-11T09:58:56Z</time>
      </trkpt>
      <trkpt lat="47.76882" lon="-3.54432">
        <ele>24.9</ele>
        <time>2021-07-11T09:58:57Z</time>
      </trkpt>
      <trkpt lat="47.76884" lon="-3.54431">
        <ele>25</ele>
        <time>2021-07-11T09:58:58Z</time>
      </trkpt>
      <trkpt lat="47.76885" lon="-3.5443">
        <ele>25</ele>
        <time>2021-07-11T09:58:59Z</time>
      </trkpt>
      <trkpt lat="47.76886" lon="-3.54429">
        <ele>25</ele>
        <time>2021-07-11T09:59:00Z</time>
      </trkpt>
      <trkpt lat="47.76887" lon="-3.54428">
        <ele>25.1</ele>
        <time>2021-07-11T09:59:01Z</time>
      </trkpt>
      <trkpt lat="47.76888" lon="-3.54427">
        <ele>25.1</ele>
        <time>2021-07-11T09:59:02Z</time>
      </trkpt>
      <trkpt lat="47.7689" lon="-3.54425">
        <ele>25.2</ele>
        <time>2021-07-11T09:59:03Z</time>
      </trkpt>
      <trkpt lat="47.76891" lon="-3.54424">
        <ele>25.2</ele>
        <time>2021-07-11T09:59:04Z</time>
      </trkpt>
      <trkpt lat="47.76892" lon="-3.54422">
        <ele>25.3</ele>
        <time>2021-07-11T09:59:05Z</time>
      </trkpt>
      <trkpt lat="47.76893" lon="-3.54421">
        <ele>25.3</ele>
        <time>2021-07-11T09:59:06Z</time>
      </trkpt>
      <trkpt lat="47.76894" lon="-3.5442">
        <ele>25.4</ele>
        <time>2021-07-11T09:59:07Z</time>
      </trkpt>
      <trkpt lat="47.76895" lon="-3.54419">
        <ele>25.4</ele>
        <time>2021-07-11T09:59:08Z</time>
      </trkpt>
      <trkpt lat="47.76896" lon="-3.54418">
        <ele>25.4</ele>
        <time>2021-07-11T09:59:09Z</time>
      </trkpt>
      <trkpt lat="47.76896" lon="-3.54417">
        <ele>25.4</ele>
        <time>2021-07-11T09:59:10Z</time>
      </trkpt>
      <trkpt lat="47.76896" lon="-3.54417">
        <ele>25.5</ele>
        <time>2021-07-11T09:59:11Z</time>
      </trkpt>
      <trkpt lat="47.76896" lon="-3.54416">
        <ele>25.5</ele>
        <time>2021-07-11T09:59:12Z</time>
      </trkpt>
      <trkpt lat="47.76897" lon="-3.54415">
        <ele>25.5</ele>
        <time>2021-07-11T09:59:13Z</time>
      </trkpt>
      <trkpt lat="47.76899" lon="-3.54412">
        <ele>25.6</ele>
        <time>2021-07-11T09:59:14Z</time>
      </trkpt>
      <trkpt lat="47.76901" lon="-3.5441">
        <ele>25.7</ele>
        <time>2021-07-11T09:59:15Z</time>
      </trkpt>
      <trkpt lat="47.76902" lon="-3.54409">
        <ele>25.7</ele>
        <time>2021-07-11T09:59:16Z</time>
      </trkpt>
      <trkpt lat="47.76903" lon="-3.54407">
        <ele>25.8</ele>
        <time>2021-07-11T09:59:17Z</time>
      </trkpt>
      <trkpt lat="47.76904" lon="-3.54406">
        <ele>25.8</ele>
        <time>2021-07-11T09:59:18Z</time>
      </trkpt>
      <trkpt lat="47.76905" lon="-3.54405">
        <ele>25.8</ele>
        <time>2021-07-11T09:59:19Z</time>
      </trkpt>
      <trkpt lat="47.76906" lon="-3.54404">
        <ele>25.9</ele>
        <time>2021-07-11T09:59:20Z</time>
      </trkpt>
      <trkpt lat="47.76907" lon="-3.54403">
        <ele>25.9</ele>
        <time>2021-07-11T09:59:21Z</time>
      </trkpt>
      <trkpt lat="47.76908" lon="-3.54402">
        <ele>25.9</ele>
        <time>2021-07-11T09:59:22Z</time>
      </trkpt>
      <trkpt lat="47.7691" lon="-3.54401">
        <ele>26</ele>
        <time>2021-07-11T09:59:23Z</time>
      </trkpt>
      <trkpt lat="47.76911" lon="-3.54399">
        <ele>26</ele>
        <time>2021-07-11T09:59:24Z</time>
      </trkpt>
      <trkpt lat="47.76912" lon="-3.54398">
        <ele>26.1</ele>
        <time>2021-07-11T09:59:25Z</time>
      </trkpt>
      <trkpt lat="47.76913" lon="-3.54397">
        <ele>26.1</ele>
        <time>2021-07-11T09:59:26Z</time>
      </trkpt>
      <trkpt lat="47.76914" lon="-3.54396">
        <ele>26.2</ele>
        <time>2021-07-11T09:59:27Z</time>
      </trkpt>
      <trkpt lat="47.76915" lon="-3.54395">
        <ele>26.2</ele>
        <time>2021-07-11T09:59:28Z</time>
      </trkpt>
      <trkpt lat="47.76916" lon="-3.54395">
        <ele>26.2</ele>
        <time>2021-07-11T09:59:29Z</time>
      </trkpt>
      <trkpt lat="47.76916" lon="-3.54394">
        <ele>26.2</ele>
        <time>2021-07-11T09:59:30Z</time>
      </trkpt>
      <trkpt lat="47.76916" lon="-3.54394">
        <ele>26.2</ele>
        <time>2021-07-11T09:59:31Z</time>
      </trkpt>
      <trkpt lat="47.76916" lon="-3.54394">
        <ele>26.2</ele>
        <time>2021-07-11T09:59:32Z</time>
      </trkpt>
      <trkpt lat="47.76917" lon="-3.54394">
        <ele>26.3</ele>
        <time>2021-07-11T09:59:33Z</time>
      </trkpt>
      <trkpt lat="47.76917" lon="-3.54393">
        <ele>26.3</ele>
        <time>2021-07-11T09:59:34Z</time>
      </trkpt>
      <trkpt lat="47.76919" lon="-3.54391">
        <ele>26.3</ele>
        <time>2021-07-11T09:59:35Z</time>
      </trkpt>
      <trkpt lat="47.76921" lon="-3.54389">
        <ele>26.4</ele>
        <time>2021-07-11T09:59:36Z</time>
      </trkpt>
      <trkpt lat="47.76924" lon="-3.54387">
        <ele>26.5</ele>
        <time>2021-07-11T09:59:37Z</time>
      </trkpt>
      <trkpt lat="47.76925" lon="-3.54386">
        <ele>26.6</ele>
        <time>2021-07-11T09:59:38Z</time>
      </trkpt>
      <trkpt lat="47.76927" lon="-3.54385">
        <ele>26.6</ele>
        <time>2021-07-11T09:59:39Z</time>
      </trkpt>
      <trkpt lat="47.76929" lon="-3.54383">
        <ele>26.7</ele>
        <time>2021-07-11T09:59:40Z</time>
      </trkpt>
      <trkpt lat="47.7693" lon="-3.54382">
        <ele>26.7</ele>
        <time>2021-07-11T09:59:41Z</time>
      </trkpt>
      <trkpt lat="47.76931" lon="-3.54381">
        <ele>26.8</ele>
        <time>2021-07-11T09:59:42Z</time>
      </trkpt>
      <trkpt lat="47.76932" lon="-3.5438">
        <ele>26.8</ele>
        <time>2021-07-11T09:59:43Z</time>
      </trkpt>
      <trkpt lat="47.76933" lon="-3.54379">
        <ele>26.9</ele>
        <time>2021-07-11T09:59:44Z</time>
      </trkpt>
      <trkpt lat="47.76934" lon="-3.54378">
        <ele>26.9</ele>
        <time>2021-07-11T09:59:45Z</time>
      </trkpt>
      <trkpt lat="47.76935" lon="-3.54377">
        <ele>26.9</ele>
        <time>2021-07-11T09:59:46Z</time>
      </trkpt>
      <trkpt lat="47.76937" lon="-3.54376">
        <ele>27</ele>
        <time>2021-07-11T09:59:47Z</time>
      </trkpt>
      <trkpt lat="47.76939" lon="-3.54374">
        <ele>27.1</ele>
        <time>2021-07-11T09:59:48Z</time>
      </trkpt>
      <trkpt lat="47.76939" lon="-3.54372">
        <ele>27.1</ele>
        <time>2021-07-11T09:59:49Z</time>
      </trkpt>
      <trkpt lat="47.7694" lon="-3.54371">
        <ele>27.1</ele>
        <time>2021-07-11T09:59:50Z</time>
      </trkpt>
      <trkpt lat="47.76941" lon="-3.5437">
        <ele>27.2</ele>
        <time>2021-07-11T09:59:51Z</time>
      </trkpt>
      <trkpt lat="47.76942" lon="-3.54369">
        <ele>27.2</ele>
        <time>2021-07-11T09:59:52Z</time>
      </trkpt>
      <trkpt lat="47.76944" lon="-3.54367">
        <ele>27.3</ele>
        <time>2021-07-11T09:59:53Z</time>
      </trkpt>
      <trkpt lat="47.76945" lon="-3.54366">
        <ele>27.3</ele>
        <time>2021-07-11T09:59:54Z</time>
      </trkpt>
      <trkpt lat="47.76946" lon="-3.54366">
        <ele>27.3</ele>
        <time>2021-07-11T09:59:55Z</time>
      </trkpt>
      <trkpt lat="47.76946" lon="-3.54365">
        <ele>27.4</ele>
        <time>2021-07-11T09:59:56Z</time>
      </trkpt>
      <trkpt lat="47.76947" lon="-3.54364">
        <ele>27.4</ele>
        <time>2021-07-11T09:59:57Z</time>
      </trkpt>
      <trkpt lat="47.76948" lon="-3.54363">
        <ele>27.4</ele>
        <time>2021-07-11T09:59:58Z</time>
      </trkpt>
      <trkpt lat="47.76949" lon="-3.54362">
        <ele>27.4</ele>
        <time>2021-07-11T09:59:59Z</time>
      </trkpt>
      <trkpt lat="47.7695" lon="-3.54362">
        <ele>27.5</ele>
        <time>2021-07-11T10:00:00Z</time>
      </trkpt>
      <trkpt lat="47.76951" lon="-3.54361">
        <ele>27.5</ele>
        <time>2021-07-11T10:00:01Z</time>
      </trkpt>
      <trkpt lat="47.76952" lon="-3.5436">
        <ele>27.5</ele>
        <time>2021-07-11T10:00:02Z</time>
      </trkpt>
      <trkpt lat="47.76953" lon="-3.54359">
        <ele>27.5</ele>
        <time>2021-07-11T10:00:03Z</time>
      </trkpt>
      <trkpt lat="47.76953" lon="-3.54358">
        <ele>27.6</ele>
        <time>2021-07-11T10:00:04Z</time>
      </trkpt>
      <trkpt lat="47.76954" lon="-3.54358">
        <ele>27.6</ele>
        <time>2021-07-11T10:00:05Z</time>
      </trkpt>
      <trkpt lat="47.76955" lon="-3.54357">
        <ele>27.6</ele>
        <time>2021-07-11T10:00:06Z</time>
      </trkpt>
      <trkpt lat="47.76956" lon="-3.54356">
        <ele>27.6</ele>
        <time>2021-07-11T10:00:07Z</time>
      </trkpt>
      <trkpt lat="47.76957" lon="-3.54355">
        <ele>27.7</ele>
        <time>2021-07-11T10:00:08Z</time>
      </trkpt>
      <trkpt lat="47.76958" lon="-3.54354">
        <ele>27.7</ele>
        <time>2021-07-11T10:00:09Z</time>
      </trkpt>
      <trkpt lat="47.76959" lon="-3.54354">
        <ele>27.7</ele>
        <time>2021-07-11T10:00:10Z</time>
      </trkpt>
      <trkpt lat="47.7696" lon="-3.54353">
        <ele>27.8</ele>
        <time>2021-07-11T10:00:11Z</time>
      </trkpt>
      <trkpt lat="47.76961" lon="-3.54352">
        <ele>27.8</ele>
        <time>2021-07-11T10:00:12Z</time>
      </trkpt>
      <trkpt lat="47.76962" lon="-3.54352">
        <ele>27.8</ele>
        <time>2021-07-11T10:00:13Z</time>
      </trkpt>
      <trkpt lat="47.76964" lon="-3.54351">
        <ele>27.8</ele>
        <time>2021-07-11T10:00:14Z</time>
      </trkpt>
      <trkpt lat="47.76965" lon="-3.5435">
        <ele>27.8</ele>
        <time>2021-07-11T10:00:15Z</time>
      </trkpt>
      <trkpt lat="47.76966" lon="-3.54349">
        <ele>27.8</ele>
        <time>2021-07-11T10:00:16Z</time>
      </trkpt>
      <trkpt lat="47.76968" lon="-3.54349">
        <ele>27.8</ele>
        <time>2021-07-11T10:00:17Z</time>
      </trkpt>
      <trkpt lat="47.76969" lon="-3.54348">
        <ele>27.9</ele>
        <time>2021-07-11T10:00:18Z</time>
      </trkpt>
      <trkpt lat="47.7697" lon="-3.54347">
        <ele>27.9</ele>
        <time>2021-07-11T10:00:19Z</time>
      </trkpt>
      <trkpt lat="47.76971" lon="-3.54347">
        <ele>27.9</ele>
        <time>2021-07-11T10:00:20Z</time>
      </trkpt>
      <trkpt lat="47.76973" lon="-3.54346">
        <ele>27.9</ele>
        <time>2021-07-11T10:00:21Z</time>
      </trkpt>
      <trkpt lat="47.76974" lon="-3.54345">
        <ele>27.9</ele>
        <time>2021-07-11T10:00:22Z</time>
      </trkpt>
      <trkpt lat="47.76975" lon="-3.54345">
        <ele>27.9</ele>
        <time>2021-07-11T10:00:23Z</time>
      </trkpt>
      <trkpt lat="47.76976" lon="-3.54344">
        <ele>28</ele>
        <time>2021-07-11T10:00:24Z</time>
      </trkpt>
      <trkpt lat="47.76978" lon="-3.54343">
        <ele>28</ele>
        <time>2021-07-11T10:00:25Z</time>
      </trkpt>
      <trkpt lat="47.76979" lon="-3.54343">
        <ele>28</ele>
        <time>2021-07-11T10:00:26Z</time>
      </trkpt>
      <trkpt lat="47.7698" lon="-3.54342">
        <ele>28</ele>
        <time>2021-07-11T10:00:27Z</time>
      </trkpt>
      <trkpt lat="47.76982" lon="-3.54341">
        <ele>28.1</ele>
        <time>2021-07-11T10:00:28Z</time>
      </trkpt>
      <trkpt lat="47.76983" lon="-3.54341">
        <ele>28.1</ele>
        <time>2021-07-11T10:00:29Z</time>
      </trkpt>
      <trkpt lat="47.76984" lon="-3.5434">
        <ele>28.1</ele>
        <time>2021-07-11T10:00:30Z</time>
      </trkpt>
      <trkpt lat="47.76985" lon="-3.54339">
        <ele>28.2</ele>
        <time>2021-07-11T10:00:31Z</time>
      </trkpt>
      <trkpt lat="47.76987" lon="-3.54339">
        <ele>28.2</ele>
        <time>2021-07-11T10:00:32Z</time>
      </trkpt>
      <trkpt lat="47.76988" lon="-3.54338">
        <ele>28.2</ele>
        <time>2021-07-11T10:00:33Z</time>
      </trkpt>
      <trkpt lat="47.76989" lon="-3.54337">
        <ele>28.2</ele>
        <time>2021-07-11T10:00:34Z</time>
      </trkpt>
      <trkpt lat="47.76991" lon="-3.54337">
        <ele>28.3</ele>
        <time>2021-07-11T10:00:35Z</time>
      </trkpt>
      <trkpt lat="47.76993" lon="-3.54336">
        <ele>28.3</ele>
        <time>2021-07-11T10:00:36Z</time>
      </trkpt>
      <trkpt lat="47.76994" lon="-3.54335">
        <ele>28.3</ele>
        <time>2021-07-11T10:00:37Z</time>
      </trkpt>
      <trkpt lat="47.76995" lon="-3.54335">
        <ele>28.4</ele>
        <time>2021-07-11T10:00:38Z</time>
      </trkpt>
      <trkpt lat="47.76996" lon="-3.54335">
        <ele>28.4</ele>
        <time>2021-07-11T10:00:39Z</time>
      </trkpt>
      <trkpt lat="47.76997" lon="-3.54334">
        <ele>28.4</ele>
        <time>2021-07-11T10:00:40Z</time>
      </trkpt>
      <trkpt lat="47.76999" lon="-3.54334">
        <ele>28.4</ele>
        <time>2021-07-11T10:00:41Z</time>
      </trkpt>
      <trkpt lat="47.77" lon="-3.54333">
        <ele>28.4</ele>
        <time>2021-07-11T10:00:42Z</time>
      </trkpt>
      <trkpt lat="47.77001" lon="-3.54332">
        <ele>28.5</ele>
        <time>2021-07-11T10:00:43Z</time>
      </trkpt>
      <trkpt lat="47.77002" lon="-3.54332">
        <ele>28.5</ele>
        <time>2021-07-11T10:00:44Z</time>
      </trkpt>
      <trkpt lat="47.77004" lon="-3.54331">
        <ele>28.5</ele>
        <time>2021-07-11T10:00:45Z</time>
      </trkpt>
      <trkpt lat="47.77005" lon="-3.5433">
        <ele>28.6</ele>
        <time>2021-07-11T10:00:46Z</time>
      </trkpt>
      <trkpt lat="47.77006" lon="-3.5433">
        <ele>28.6</ele>
        <time>2021-07-11T10:00:47Z</time>
      </trkpt>
      <trkpt lat="47.77008" lon="-3.54329">
        <ele>28.6</ele>
        <time>2021-07-11T10:00:48Z</time>
      </trkpt>
      <trkpt lat="47.77009" lon="-3.54329">
        <ele>28.6</ele>
        <time>2021-07-11T10:00:49Z</time>
      </trkpt>
      <trkpt lat="47.7701" lon="-3.54329">
        <ele>28.7</ele>
        <time>2021-07-11T10:00:50Z</time>
      </trkpt>
      <trkpt lat="47.77011" lon="-3.54329">
        <ele>28.7</ele>
        <time>2021-07-11T10:00:51Z</time>
      </trkpt>
      <trkpt lat="47.77013" lon="-3.54328">
        <ele>28.7</ele>
        <time>2021-07-11T10:00:52Z</time>
      </trkpt>
      <trkpt lat="47.77014" lon="-3.54327">
        <ele>28.8</ele>
        <time>2021-07-11T10:00:53Z</time>
      </trkpt>
      <trkpt lat="47.77015" lon="-3.54326">
        <ele>28.8</ele>
        <time>2021-07-11T10:00:54Z</time>
      </trkpt>
      <trkpt lat="47.77017" lon="-3.54326">
        <ele>28.8</ele>
        <time>2021-07-11T10:00:55Z</time>
      </trkpt>
      <trkpt lat="47.77018" lon="-3.54325">
        <ele>28.9</ele>
        <time>2021-07-11T10:00:56Z</time>
      </trkpt>
      <trkpt lat="47.77019" lon="-3.54325">
        <ele>28.9</ele>
        <time>2021-07-11T10:00:57Z</time>
      </trkpt>
      <trkpt lat="47.77021" lon="-3.54324">
        <ele>28.9</ele>
        <time>2021-07-11T10:00:58Z</time>
      </trkpt>
      <trkpt lat="47.77022" lon="-3.54323">
        <ele>29</ele>
        <time>2021-07-11T10:00:59Z</time>
      </trkpt>
      <trkpt lat="47.77023" lon="-3.54323">
        <ele>29</ele>
        <time>2021-07-11T10:01:00Z</time>
      </trkpt>
      <trkpt lat="47.77024" lon="-3.54322">
        <ele>29.1</ele>
        <time>2021-07-11T10:01:01Z</time>
      </trkpt>
      <trkpt lat="47.77026" lon="-3.54321">
        <ele>29.1</ele>
        <time>2021-07-11T10:01:02Z</time>
      </trkpt>
      <trkpt lat="47.77027" lon="-3.54321">
        <ele>29.1</ele>
        <time>2021-07-11T10:01:03Z</time>
      </trkpt>
      <trkpt lat="47.77028" lon="-3.5432">
        <ele>29.2</ele>
        <time>2021-07-11T10:01:04Z</time>
      </trkpt>
      <trkpt lat="47.7703" lon="-3.5432">
        <ele>29.2</ele>
        <time>2021-07-11T10:01:05Z</time>
      </trkpt>
      <trkpt lat="47.77031" lon="-3.54319">
        <ele>29.2</ele>
        <time>2021-07-11T10:01:06Z</time>
      </trkpt>
      <trkpt lat="47.77032" lon="-3.54318">
        <ele>29.3</ele>
        <time>2021-07-11T10:01:07Z</time>
      </trkpt>
      <trkpt lat="47.77033" lon="-3.54318">
        <ele>29.3</ele>
        <time>2021-07-11T10:01:08Z</time>
      </trkpt>
      <trkpt lat="47.77036" lon="-3.54317">
        <ele>29.4</ele>
        <time>2021-07-11T10:01:09Z</time>
      </trkpt>
      <trkpt lat="47.77037" lon="-3.54316">
        <ele>29.4</ele>
        <time>2021-07-11T10:01:10Z</time>
      </trkpt>
      <trkpt lat="47.77037" lon="-3.54316">
        <ele>29.4</ele>
        <time>2021-07-11T10:01:11Z</time>
      </trkpt>
      <trkpt lat="47.77039" lon="-3.54315">
        <ele>29.4</ele>
        <time>2021-07-11T10:01:12Z</time>
      </trkpt>
      <trkpt lat="47.7704" lon="-3.54314">
        <ele>29.5</ele>
        <time>2021-07-11T10:01:13Z</time>
      </trkpt>
      <trkpt lat="47.77042" lon="-3.54313">
        <ele>29.5</ele>
        <time>2021-07-11T10:01:14Z</time>
      </trkpt>
      <trkpt lat="47.77043" lon="-3.54313">
        <ele>29.6</ele>
        <time>2021-07-11T10:01:15Z</time>
      </trkpt>
      <trkpt lat="47.77044" lon="-3.54313">
        <ele>29.6</ele>
        <time>2021-07-11T10:01:16Z</time>
      </trkpt>
      <trkpt lat="47.77045" lon="-3.54312">
        <ele>29.6</ele>
        <time>2021-07-11T10:01:17Z</time>
      </trkpt>
      <trkpt lat="47.77047" lon="-3.54312">
        <ele>29.7</ele>
        <time>2021-07-11T10:01:18Z</time>
      </trkpt>
      <trkpt lat="47.77048" lon="-3.54311">
        <ele>29.7</ele>
        <time>2021-07-11T10:01:19Z</time>
      </trkpt>
      <trkpt lat="47.77049" lon="-3.54311">
        <ele>29.7</ele>
        <time>2021-07-11T10:01:20Z</time>
      </trkpt>
      <trkpt lat="47.7705" lon="-3.5431">
        <ele>29.8</ele>
        <time>2021-07-11T10:01:21Z</time>
      </trkpt>
      <trkpt lat="47.77052" lon="-3.5431">
        <ele>29.8</ele>
        <time>2021-07-11T10:01:22Z</time>
      </trkpt>
      <trkpt lat="47.77053" lon="-3.54309">
        <ele>29.8</ele>
        <time>2021-07-11T10:01:23Z</time>
      </trkpt>
      <trkpt lat="47.77054" lon="-3.54309">
        <ele>29.9</ele>
        <time>2021-07-11T10:01:24Z</time>
      </trkpt>
      <trkpt lat="47.77055" lon="-3.54308">
        <ele>29.9</ele>
        <time>2021-07-11T10:01:25Z</time>
      </trkpt>
      <trkpt lat="47.77057" lon="-3.54308">
        <ele>29.9</ele>
        <time>2021-07-11T10:01:26Z</time>
      </trkpt>
      <trkpt lat="47.77058" lon="-3.54307">
        <ele>30</ele>
        <time>2021-07-11T10:01:27Z</time>
      </trkpt>
      <trkpt lat="47.77059" lon="-3.54307">
        <ele>30</ele>
        <time>2021-07-11T10:01:28Z</time>
      </trkpt>
      <trkpt lat="47.7706" lon="-3.54306">
        <ele>30.1</ele>
        <time>2021-07-11T10:01:29Z</time>
      </trkpt>
      <trkpt lat="47.77062" lon="-3.54306">
        <ele>30.1</ele>
        <time>2021-07-11T10:01:30Z</time>
      </trkpt>
      <trkpt lat="47.77063" lon="-3.54305">
        <ele>30.1</ele>
        <time>2021-07-11T10:01:31Z</time>
      </trkpt>
      <trkpt lat="47.77064" lon="-3.54305">
        <ele>30.2</ele>
        <time>2021-07-11T10:01:32Z</time>
      </trkpt>
      <trkpt lat="47.77065" lon="-3.54304">
        <ele>30.2</ele>
        <time>2021-07-11T10:01:33Z</time>
      </trkpt>
      <trkpt lat="47.77066" lon="-3.54304">
        <ele>30.2</ele>
        <time>2021-07-11T10:01:34Z</time>
      </trkpt>
      <trkpt lat="47.77068" lon="-3.54303">
        <ele>30.3</ele>
        <time>2021-07-11T10:01:35Z</time>
      </trkpt>
      <trkpt lat="47.77069" lon="-3.54303">
        <ele>30.3</ele>
        <time>2021-07-11T10:01:36Z</time>
      </trkpt>
      <trkpt lat="47.7707" lon="-3.54302">
        <ele>30.4</ele>
        <time>2021-07-11T10:01:37Z</time>
      </trkpt>
      <trkpt lat="47.77071" lon="-3.54302">
        <ele>30.4</ele>
        <time>2021-07-11T10:01:38Z</time>
      </trkpt>
      <trkpt lat="47.77073" lon="-3.54301">
        <ele>30.4</ele>
        <time>2021-07-11T10:01:39Z</time>
      </trkpt>
      <trkpt lat="47.77074" lon="-3.54301">
        <ele>30.5</ele>
        <time>2021-07-11T10:01:40Z</time>
      </trkpt>
      <trkpt lat="47.77075" lon="-3.54301">
        <ele>30.5</ele>
        <time>2021-07-11T10:01:41Z</time>
      </trkpt>
      <trkpt lat="47.77076" lon="-3.543">
        <ele>30.6</ele>
        <time>2021-07-11T10:01:42Z</time>
      </trkpt>
      <trkpt lat="47.77078" lon="-3.543">
        <ele>30.6</ele>
        <time>2021-07-11T10:01:43Z</time>
      </trkpt>
      <trkpt lat="47.77079" lon="-3.54299">
        <ele>30.7</ele>
        <time>2021-07-11T10:01:44Z</time>
      </trkpt>
      <trkpt lat="47.7708" lon="-3.54299">
        <ele>30.7</ele>
        <time>2021-07-11T10:01:45Z</time>
      </trkpt>
      <trkpt lat="47.77081" lon="-3.54298">
        <ele>30.8</ele>
        <time>2021-07-11T10:01:46Z</time>
      </trkpt>
      <trkpt lat="47.77082" lon="-3.54298">
        <ele>30.8</ele>
        <time>2021-07-11T10:01:47Z</time>
      </trkpt>
      <trkpt lat="47.77084" lon="-3.54297">
        <ele>30.9</ele>
        <time>2021-07-11T10:01:48Z</time>
      </trkpt>
      <trkpt lat="47.77085" lon="-3.54297">
        <ele>30.9</ele>
        <time>2021-07-11T10:01:49Z</time>
      </trkpt>
      <trkpt lat="47.77086" lon="-3.54296">
        <ele>31</ele>
        <time>2021-07-11T10:01:50Z</time>
      </trkpt>
      <trkpt lat="47.77087" lon="-3.54296">
        <ele>31</ele>
        <time>2021-07-11T10:01:51Z</time>
      </trkpt>
      <trkpt lat="47.77089" lon="-3.54295">
        <ele>31.1</ele>
        <time>2021-07-11T10:01:52Z</time>
      </trkpt>
      <trkpt lat="47.7709" lon="-3.54295">
        <ele>31.2</ele>
        <time>2021-07-11T10:01:53Z</time>
      </trkpt>
      <trkpt lat="47.77091" lon="-3.54294">
        <ele>31.2</ele>
        <time>2021-07-11T10:01:54Z</time>
      </trkpt>
      <trkpt lat="47.77092" lon="-3.54294">
        <ele>31.3</ele>
        <time>2021-07-11T10:01:55Z</time>
      </trkpt>
      <trkpt lat="47.77094" lon="-3.54293">
        <ele>31.3</ele>
        <time>2021-07-11T10:01:56Z</time>
      </trkpt>
      <trkpt lat="47.77096" lon="-3.54293">
        <ele>31.5</ele>
        <time>2021-07-11T10:01:57Z</time>
      </trkpt>
      <trkpt lat="47.77098" lon="-3.54293">
        <ele>31.5</ele>
        <time>2021-07-11T10:01:58Z</time>
      </trkpt>
      <trkpt lat="47.77099" lon="-3.54293">
        <ele>31.6</ele>
        <time>2021-07-11T10:01:59Z</time>
      </trkpt>
      <trkpt lat="47.771" lon="-3.54292">
        <ele>31.7</ele>
        <time>2021-07-11T10:02:00Z</time>
      </trkpt>
      <trkpt lat="47.77101" lon="-3.54292">
        <ele>31.7</ele>
        <time>2021-07-11T10:02:01Z</time>
      </trkpt>
      <trkpt lat="47.77103" lon="-3.54292">
        <ele>31.8</ele>
        <time>2021-07-11T10:02:02Z</time>
      </trkpt>
      <trkpt lat="47.77103" lon="-3.54292">
        <ele>31.8</ele>
        <time>2021-07-11T10:02:03Z</time>
      </trkpt>
      <trkpt lat="47.77104" lon="-3.54292">
        <ele>31.8</ele>
        <time>2021-07-11T10:02:04Z</time>
      </trkpt>
      <trkpt lat="47.77104" lon="-3.54292">
        <ele>31.8</ele>
        <time>2021-07-11T10:02:05Z</time>
      </trkpt>
      <trkpt lat="47.77104" lon="-3.54292">
        <ele>31.8</ele>
        <time>2021-07-11T10:02:06Z</time>
      </trkpt>
      <trkpt lat="47.77104" lon="-3.54292">
        <ele>31.8</ele>
        <time>2021-07-11T10:02:07Z</time>
      </trkpt>
      <trkpt lat="47.77104" lon="-3.54292">
        <ele>31.8</ele>
        <time>2021-07-11T10:02:08Z</time>
      </trkpt>
      <trkpt lat="47.77104" lon="-3.54292">
        <ele>31.9</ele>
        <time>2021-07-11T10:02:09Z</time>
      </trkpt>
      <trkpt lat="47.77104" lon="-3.54292">
        <ele>31.9</ele>
        <time>2021-07-11T10:02:10Z</time>
      </trkpt>
      <trkpt lat="47.77105" lon="-3.54292">
        <ele>31.9</ele>
        <time>2021-07-11T10:02:11Z</time>
      </trkpt>
      <trkpt lat="47.7711" lon="-3.54291">
        <ele>32.2</ele>
        <time>2021-07-11T10:02:12Z</time>
      </trkpt>
      <trkpt lat="47.77113" lon="-3.54291">
        <ele>32.3</ele>
        <time>2021-07-11T10:02:13Z</time>
      </trkpt>
      <trkpt lat="47.77116" lon="-3.54291">
        <ele>32.5</ele>
        <time>2021-07-11T10:02:14Z</time>
      </trkpt>
      <trkpt lat="47.77117" lon="-3.54291">
        <ele>32.5</ele>
        <time>2021-07-11T10:02:15Z</time>
      </trkpt>
      <trkpt lat="47.77119" lon="-3.54291">
        <ele>32.6</ele>
        <time>2021-07-11T10:02:16Z</time>
      </trkpt>
      <trkpt lat="47.77119" lon="-3.5429">
        <ele>32.7</ele>
        <time>2021-07-11T10:02:17Z</time>
      </trkpt>
      <trkpt lat="47.7712" lon="-3.5429">
        <ele>32.7</ele>
        <time>2021-07-11T10:02:18Z</time>
      </trkpt>
      <trkpt lat="47.7712" lon="-3.5429">
        <ele>32.7</ele>
        <time>2021-07-11T10:02:19Z</time>
      </trkpt>
      <trkpt lat="47.77121" lon="-3.5429">
        <ele>32.7</ele>
        <time>2021-07-11T10:02:20Z</time>
      </trkpt>
      <trkpt lat="47.77124" lon="-3.5429">
        <ele>32.9</ele>
        <time>2021-07-11T10:02:21Z</time>
      </trkpt>
      <trkpt lat="47.77127" lon="-3.5429">
        <ele>33.1</ele>
        <time>2021-07-11T10:02:22Z</time>
      </trkpt>
      <trkpt lat="47.77129" lon="-3.5429">
        <ele>33.2</ele>
        <time>2021-07-11T10:02:23Z</time>
      </trkpt>
      <trkpt lat="47.77131" lon="-3.5429">
        <ele>33.3</ele>
        <time>2021-07-11T10:02:24Z</time>
      </trkpt>
      <trkpt lat="47.77132" lon="-3.5429">
        <ele>33.4</ele>
        <time>2021-07-11T10:02:25Z</time>
      </trkpt>
      <trkpt lat="47.77135" lon="-3.54291">
        <ele>33.5</ele>
        <time>2021-07-11T10:02:26Z</time>
      </trkpt>
      <trkpt lat="47.77136" lon="-3.54291">
        <ele>33.6</ele>
        <time>2021-07-11T10:02:27Z</time>
      </trkpt>
      <trkpt lat="47.77137" lon="-3.54291">
        <ele>33.7</ele>
        <time>2021-07-11T10:02:28Z</time>
      </trkpt>
      <trkpt lat="47.77138" lon="-3.54291">
        <ele>33.7</ele>
        <time>2021-07-11T10:02:29Z</time>
      </trkpt>
      <trkpt lat="47.77139" lon="-3.54291">
        <ele>33.8</ele>
        <time>2021-07-11T10:02:30Z</time>
      </trkpt>
      <trkpt lat="47.7714" lon="-3.54291">
        <ele>33.8</ele>
        <time>2021-07-11T10:02:31Z</time>
      </trkpt>
      <trkpt lat="47.77141" lon="-3.54291">
        <ele>33.9</ele>
        <time>2021-07-11T10:02:32Z</time>
      </trkpt>
      <trkpt lat="47.77142" lon="-3.54291">
        <ele>34</ele>
        <time>2021-07-11T10:02:33Z</time>
      </trkpt>
      <trkpt lat="47.77143" lon="-3.54291">
        <ele>34</ele>
        <time>2021-07-11T10:02:34Z</time>
      </trkpt>
      <trkpt lat="47.77145" lon="-3.54292">
        <ele>34.2</ele>
        <time>2021-07-11T10:02:35Z</time>
      </trkpt>
      <trkpt lat="47.77146" lon="-3.54293">
        <ele>34.2</ele>
        <time>2021-07-11T10:02:36Z</time>
      </trkpt>
      <trkpt lat="47.77147" lon="-3.54293">
        <ele>34.3</ele>
        <time>2021-07-11T10:02:37Z</time>
      </trkpt>
      <trkpt lat="47.77148" lon="-3.54293">
        <ele>34.3</ele>
        <time>2021-07-11T10:02:38Z</time>
      </trkpt>
      <trkpt lat="47.77149" lon="-3.54294">
        <ele>34.4</ele>
        <time>2021-07-11T10:02:39Z</time>
      </trkpt>
      <trkpt lat="47.7715" lon="-3.54294">
        <ele>34.5</ele>
        <time>2021-07-11T10:02:40Z</time>
      </trkpt>
      <trkpt lat="47.77153" lon="-3.54295">
        <ele>34.6</ele>
        <time>2021-07-11T10:02:41Z</time>
      </trkpt>
      <trkpt lat="47.77154" lon="-3.54295">
        <ele>34.7</ele>
        <time>2021-07-11T10:02:42Z</time>
      </trkpt>
      <trkpt lat="47.77155" lon="-3.54295">
        <ele>34.7</ele>
        <time>2021-07-11T10:02:43Z</time>
      </trkpt>
      <trkpt lat="47.77156" lon="-3.54296">
        <ele>34.8</ele>
        <time>2021-07-11T10:02:44Z</time>
      </trkpt>
      <trkpt lat="47.77157" lon="-3.54296">
        <ele>34.8</ele>
        <time>2021-07-11T10:02:45Z</time>
      </trkpt>
      <trkpt lat="47.77157" lon="-3.54296">
        <ele>34.9</ele>
        <time>2021-07-11T10:02:46Z</time>
      </trkpt>
      <trkpt lat="47.77158" lon="-3.54296">
        <ele>35</ele>
        <time>2021-07-11T10:02:47Z</time>
      </trkpt>
      <trkpt lat="47.77159" lon="-3.54297">
        <ele>35</ele>
        <time>2021-07-11T10:02:48Z</time>
      </trkpt>
      <trkpt lat="47.7716" lon="-3.54297">
        <ele>35.1</ele>
        <time>2021-07-11T10:02:49Z</time>
      </trkpt>
      <trkpt lat="47.77161" lon="-3.54297">
        <ele>35.1</ele>
        <time>2021-07-11T10:02:50Z</time>
      </trkpt>
      <trkpt lat="47.77163" lon="-3.54298">
        <ele>35.2</ele>
        <time>2021-07-11T10:02:51Z</time>
      </trkpt>
      <trkpt lat="47.77164" lon="-3.54298">
        <ele>35.3</ele>
        <time>2021-07-11T10:02:52Z</time>
      </trkpt>
      <trkpt lat="47.77166" lon="-3.54299">
        <ele>35.4</ele>
        <time>2021-07-11T10:02:53Z</time>
      </trkpt>
      <trkpt lat="47.77167" lon="-3.54299">
        <ele>35.5</ele>
        <time>2021-07-11T10:02:54Z</time>
      </trkpt>
      <trkpt lat="47.77168" lon="-3.543">
        <ele>35.6</ele>
        <time>2021-07-11T10:02:55Z</time>
      </trkpt>
      <trkpt lat="47.7717" lon="-3.54301">
        <ele>35.7</ele>
        <time>2021-07-11T10:02:56Z</time>
      </trkpt>
      <trkpt lat="47.77171" lon="-3.54302">
        <ele>35.8</ele>
        <time>2021-07-11T10:02:57Z</time>
      </trkpt>
      <trkpt lat="47.77172" lon="-3.54303">
        <ele>35.8</ele>
        <time>2021-07-11T10:02:58Z</time>
      </trkpt>
      <trkpt lat="47.77173" lon="-3.54303">
        <ele>35.9</ele>
        <time>2021-07-11T10:02:59Z</time>
      </trkpt>
      <trkpt lat="47.77175" lon="-3.54304">
        <ele>36</ele>
        <time>2021-07-11T10:03:00Z</time>
      </trkpt>
      <trkpt lat="47.77176" lon="-3.54305">
        <ele>36.1</ele>
        <time>2021-07-11T10:03:01Z</time>
      </trkpt>
      <trkpt lat="47.77177" lon="-3.54306">
        <ele>36.2</ele>
        <time>2021-07-11T10:03:02Z</time>
      </trkpt>
      <trkpt lat="47.77178" lon="-3.54306">
        <ele>36.2</ele>
        <time>2021-07-11T10:03:03Z</time>
      </trkpt>
      <trkpt lat="47.7718" lon="-3.54307">
        <ele>36.3</ele>
        <time>2021-07-11T10:03:04Z</time>
      </trkpt>
      <trkpt lat="47.77181" lon="-3.54308">
        <ele>36.4</ele>
        <time>2021-07-11T10:03:05Z</time>
      </trkpt>
      <trkpt lat="47.77182" lon="-3.54308">
        <ele>36.5</ele>
        <time>2021-07-11T10:03:06Z</time>
      </trkpt>
      <trkpt lat="47.77183" lon="-3.54309">
        <ele>36.6</ele>
        <time>2021-07-11T10:03:07Z</time>
      </trkpt>
      <trkpt lat="47.77184" lon="-3.5431">
        <ele>36.6</ele>
        <time>2021-07-11T10:03:08Z</time>
      </trkpt>
      <trkpt lat="47.77186" lon="-3.54311">
        <ele>36.7</ele>
        <time>2021-07-11T10:03:09Z</time>
      </trkpt>
      <trkpt lat="47.77187" lon="-3.54311">
        <ele>36.8</ele>
        <time>2021-07-11T10:03:10Z</time>
      </trkpt>
      <trkpt lat="47.77188" lon="-3.54312">
        <ele>36.9</ele>
        <time>2021-07-11T10:03:11Z</time>
      </trkpt>
      <trkpt lat="47.77189" lon="-3.54313">
        <ele>36.9</ele>
        <time>2021-07-11T10:03:12Z</time>
      </trkpt>
      <trkpt lat="47.7719" lon="-3.54314">
        <ele>37</ele>
        <time>2021-07-11T10:03:13Z</time>
      </trkpt>
      <trkpt lat="47.77192" lon="-3.54314">
        <ele>37.1</ele>
        <time>2021-07-11T10:03:14Z</time>
      </trkpt>
      <trkpt lat="47.77193" lon="-3.54315">
        <ele>37.1</ele>
        <time>2021-07-11T10:03:15Z</time>
      </trkpt>
      <trkpt lat="47.77194" lon="-3.54316">
        <ele>37.2</ele>
        <time>2021-07-11T10:03:16Z</time>
      </trkpt>
      <trkpt lat="47.77195" lon="-3.54317">
        <ele>37.3</ele>
        <time>2021-07-11T10:03:17Z</time>
      </trkpt>
      <trkpt lat="47.77196" lon="-3.54318">
        <ele>37.3</ele>
        <time>2021-07-11T10:03:18Z</time>
      </trkpt>
      <trkpt lat="47.77197" lon="-3.54319">
        <ele>37.4</ele>
        <time>2021-07-11T10:03:19Z</time>
      </trkpt>
      <trkpt lat="47.77199" lon="-3.5432">
        <ele>37.5</ele>
        <time>2021-07-11T10:03:20Z</time>
      </trkpt>
      <trkpt lat="47.772" lon="-3.54321">
        <ele>37.5</ele>
        <time>2021-07-11T10:03:21Z</time>
      </trkpt>
      <trkpt lat="47.77201" lon="-3.54321">
        <ele>37.6</ele>
        <time>2021-07-11T10:03:22Z</time>
      </trkpt>
      <trkpt lat="47.77202" lon="-3.54322">
        <ele>37.7</ele>
        <time>2021-07-11T10:03:23Z</time>
      </trkpt>
      <trkpt lat="47.77203" lon="-3.54323">
        <ele>37.7</ele>
        <time>2021-07-11T10:03:24Z</time>
      </trkpt>
      <trkpt lat="47.77204" lon="-3.54324">
        <ele>37.8</ele>
        <time>2021-07-11T10:03:25Z</time>
      </trkpt>
      <trkpt lat="47.77206" lon="-3.54325">
        <ele>37.9</ele>
        <time>2021-07-11T10:03:26Z</time>
      </trkpt>
      <trkpt lat="47.77207" lon="-3.54326">
        <ele>37.9</ele>
        <time>2021-07-11T10:03:27Z</time>
      </trkpt>
      <trkpt lat="47.77208" lon="-3.54327">
        <ele>37.9</ele>
        <time>2021-07-11T10:03:28Z</time>
      </trkpt>
      <trkpt lat="47.77209" lon="-3.54327">
        <ele>38</ele>
        <time>2021-07-11T10:03:29Z</time>
      </trkpt>
      <trkpt lat="47.7721" lon="-3.54328">
        <ele>38</ele>
        <time>2021-07-11T10:03:30Z</time>
      </trkpt>
      <trkpt lat="47.77212" lon="-3.54329">
        <ele>38</ele>
        <time>2021-07-11T10:03:31Z</time>
      </trkpt>
      <trkpt lat="47.77213" lon="-3.54329">
        <ele>38</ele>
        <time>2021-07-11T10:03:32Z</time>
      </trkpt>
      <trkpt lat="47.77214" lon="-3.5433">
        <ele>38</ele>
        <time>2021-07-11T10:03:33Z</time>
      </trkpt>
      <trkpt lat="47.77215" lon="-3.5433">
        <ele>38.1</ele>
        <time>2021-07-11T10:03:34Z</time>
      </trkpt>
      <trkpt lat="47.77217" lon="-3.5433">
        <ele>38.1</ele>
        <time>2021-07-11T10:03:35Z</time>
      </trkpt>
      <trkpt lat="47.77218" lon="-3.54331">
        <ele>38.1</ele>
        <time>2021-07-11T10:03:36Z</time>
      </trkpt>
      <trkpt lat="47.77219" lon="-3.54331">
        <ele>38.1</ele>
        <time>2021-07-11T10:03:37Z</time>
      </trkpt>
      <trkpt lat="47.7722" lon="-3.54331">
        <ele>38.1</ele>
        <time>2021-07-11T10:03:38Z</time>
      </trkpt>
      <trkpt lat="47.77221" lon="-3.54332">
        <ele>38.2</ele>
        <time>2021-07-11T10:03:39Z</time>
      </trkpt>
      <trkpt lat="47.77221" lon="-3.54333">
        <ele>38.2</ele>
        <time>2021-07-11T10:03:40Z</time>
      </trkpt>
      <trkpt lat="47.77221" lon="-3.54334">
        <ele>38.2</ele>
        <time>2021-07-11T10:03:41Z</time>
      </trkpt>
      <trkpt lat="47.77222" lon="-3.54335">
        <ele>38.2</ele>
        <time>2021-07-11T10:03:42Z</time>
      </trkpt>
      <trkpt lat="47.77222" lon="-3.54336">
        <ele>38.2</ele>
        <time>2021-07-11T10:03:43Z</time>
      </trkpt>
      <trkpt lat="47.77222" lon="-3.54336">
        <ele>38.2</ele>
        <time>2021-07-11T10:03:44Z</time>
      </trkpt>
      <trkpt lat="47.77222" lon="-3.54337">
        <ele>38.2</ele>
        <time>2021-07-11T10:03:45Z</time>
      </trkpt>
      <trkpt lat="47.77222" lon="-3.54338">
        <ele>38.2</ele>
        <time>2021-07-11T10:03:46Z</time>
      </trkpt>
      <trkpt lat="47.77222" lon="-3.54339">
        <ele>38.2</ele>
        <time>2021-07-11T10:03:47Z</time>
      </trkpt>
      <trkpt lat="47.77222" lon="-3.5434">
        <ele>38.3</ele>
        <time>2021-07-11T10:03:48Z</time>
      </trkpt>
      <trkpt lat="47.77222" lon="-3.54341">
        <ele>38.3</ele>
        <time>2021-07-11T10:03:49Z</time>
      </trkpt>
      <trkpt lat="47.77222" lon="-3.54341">
        <ele>38.3</ele>
        <time>2021-07-11T10:03:50Z</time>
      </trkpt>
      <trkpt lat="47.77222" lon="-3.54342">
        <ele>38.3</ele>
        <time>2021-07-11T10:03:51Z</time>
      </trkpt>
      <trkpt lat="47.77222" lon="-3.54343">
        <ele>38.3</ele>
        <time>2021-07-11T10:03:52Z</time>
      </trkpt>
      <trkpt lat="47.77222" lon="-3.54344">
        <ele>38.3</ele>
        <time>2021-07-11T10:03:53Z</time>
      </trkpt>
      <trkpt lat="47.77222" lon="-3.54345">
        <ele>38.3</ele>
        <time>2021-07-11T10:03:54Z</time>
      </trkpt>
      <trkpt lat="47.77222" lon="-3.54345">
        <ele>38.3</ele>
        <time>2021-07-11T10:03:55Z</time>
      </trkpt>
      <trkpt lat="47.77222" lon="-3.54346">
        <ele>38.3</ele>
        <time>2021-07-11T10:03:56Z</time>
      </trkpt>
      <trkpt lat="47.77223" lon="-3.54347">
        <ele>38.3</ele>
        <time>2021-07-11T10:03:57Z</time>
      </trkpt>
      <trkpt lat="47.77223" lon="-3.54348">
        <ele>38.3</ele>
        <time>2021-07-11T10:03:58Z</time>
      </trkpt>
      <trkpt lat="47.77223" lon="-3.54349">
        <ele>38.4</ele>
        <time>2021-07-11T10:03:59Z</time>
      </trkpt>
      <trkpt lat="47.77223" lon="-3.54349">
        <ele>38.4</ele>
        <time>2021-07-11T10:04:00Z</time>
      </trkpt>
      <trkpt lat="47.77223" lon="-3.5435">
        <ele>38.4</ele>
        <time>2021-07-11T10:04:01Z</time>
      </trkpt>
      <trkpt lat="47.77223" lon="-3.54351">
        <ele>38.4</ele>
        <time>2021-07-11T10:04:02Z</time>
      </trkpt>
      <trkpt lat="47.77223" lon="-3.54352">
        <ele>38.4</ele>
        <time>2021-07-11T10:04:03Z</time>
      </trkpt>
      <trkpt lat="47.77223" lon="-3.54353">
        <ele>38.4</ele>
        <time>2021-07-11T10:04:04Z</time>
      </trkpt>
      <trkpt lat="47.77223" lon="-3.54353">
        <ele>38.4</ele>
        <time>2021-07-11T10:04:05Z</time>
      </trkpt>
      <trkpt lat="47.77223" lon="-3.54354">
        <ele>38.4</ele>
        <time>2021-07-11T10:04:06Z</time>
      </trkpt>
      <trkpt lat="47.77223" lon="-3.54355">
        <ele>38.4</ele>
        <time>2021-07-11T10:04:07Z</time>
      </trkpt>
      <trkpt lat="47.77223" lon="-3.54356">
        <ele>38.4</ele>
        <time>2021-07-11T10:04:08Z</time>
      </trkpt>
      <trkpt lat="47.77223" lon="-3.54357">
        <ele>38.5</ele>
        <time>2021-07-11T10:04:09Z</time>
      </trkpt>
      <trkpt lat="47.77222" lon="-3.54359">
        <ele>38.5</ele>
        <time>2021-07-11T10:04:10Z</time>
      </trkpt>
      <trkpt lat="47.77222" lon="-3.5436">
        <ele>38.5</ele>
        <time>2021-07-11T10:04:11Z</time>
      </trkpt>
      <trkpt lat="47.77221" lon="-3.54361">
        <ele>38.5</ele>
        <time>2021-07-11T10:04:12Z</time>
      </trkpt>
      <trkpt lat="47.77221" lon="-3.54362">
        <ele>38.5</ele>
        <time>2021-07-11T10:04:13Z</time>
      </trkpt>
      <trkpt lat="47.77221" lon="-3.54363">
        <ele>38.5</ele>
        <time>2021-07-11T10:04:14Z</time>
      </trkpt>
      <trkpt lat="47.7722" lon="-3.54363">
        <ele>38.5</ele>
        <time>2021-07-11T10:04:15Z</time>
      </trkpt>
      <trkpt lat="47.7722" lon="-3.54364">
        <ele>38.5</ele>
        <time>2021-07-11T10:04:16Z</time>
      </trkpt>
      <trkpt lat="47.7722" lon="-3.54364">
        <ele>38.5</ele>
        <time>2021-07-11T10:04:17Z</time>
      </trkpt>
      <trkpt lat="47.7722" lon="-3.54364">
        <ele>38.5</ele>
        <time>2021-07-11T10:04:18Z</time>
      </trkpt>
      <trkpt lat="47.7722" lon="-3.54364">
        <ele>38.5</ele>
        <time>2021-07-11T10:04:19Z</time>
      </trkpt>
      <trkpt lat="47.7722" lon="-3.54364">
        <ele>38.5</ele>
        <time>2021-07-11T10:04:20Z</time>
      </trkpt>
      <trkpt lat="47.7722" lon="-3.54364">
        <ele>38.5</ele>
        <time>2021-07-11T10:04:21Z</time>
      </trkpt>
      <trkpt lat="47.7722" lon="-3.54364">
        <ele>38.5</ele>
        <time>2021-07-11T10:04:22Z</time>
      </trkpt>
      <trkpt lat="47.7722" lon="-3.54364">
        <ele>38.5</ele>
        <time>2021-07-11T10:04:23Z</time>
      </trkpt>
      <trkpt lat="47.7722" lon="-3.54364">
        <ele>38.5</ele>
        <time>2021-07-11T10:04:24Z</time>
      </trkpt>
      <trkpt lat="47.7722" lon="-3.54364">
        <ele>38.5</ele>
        <time>2021-07-11T10:04:25Z</time>
      </trkpt>
      <trkpt lat="47.7722" lon="-3.54364">
        <ele>38.5</ele>
        <time>2021-07-11T10:04:26Z</time>
      </trkpt>
      <trkpt lat="47.7722" lon="-3.54364">
        <ele>38.5</ele>
        <time>2021-07-11T10:04:27Z</time>
      </trkpt>
      <trkpt lat="47.7722" lon="-3.54364">
        <ele>38.5</ele>
        <time>2021-07-11T10:04:28Z</time>
      </trkpt>
      <trkpt lat="47.7722" lon="-3.54364">
        <ele>38.5</ele>
        <time>2021-07-11T10:04:29Z</time>
      </trkpt>
      <trkpt lat="47.7722" lon="-3.54364">
        <ele>38.5</ele>
        <time>2021-07-11T10:04:30Z</time>
      </trkpt>
      <trkpt lat="47.7722" lon="-3.54364">
        <ele>38.5</ele>
        <time>2021-07-11T10:04:31Z</time>
      </trkpt>
      <trkpt lat="47.7722" lon="-3.54364">
        <ele>38.5</ele>
        <time>2021-07-11T10:04:32Z</time>
      </trkpt>
      <trkpt lat="47.7722" lon="-3.54364">
        <ele>38.5</ele>
        <time>2021-07-11T10:04:33Z</time>
      </trkpt>
      <trkpt lat="47.7722" lon="-3.54364">
        <ele>38.5</ele>
        <time>2021-07-11T10:04:34Z</time>
      </trkpt>
      <trkpt lat="47.7722" lon="-3.54364">
        <ele>38.5</ele>
        <time>2021-07-11T10:04:35Z</time>
      </trkpt>
      <trkpt lat="47.7722" lon="-3.54364">
        <ele>38.5</ele>
        <time>2021-07-11T10:04:36Z</time>
      </trkpt>
      <trkpt lat="47.7722" lon="-3.54364">
        <ele>38.5</ele>
        <time>2021-07-11T10:04:37Z</time>
      </trkpt>
      <trkpt lat="47.7722" lon="-3.54364">
        <ele>38.5</ele>
        <time>2021-07-11T10:04:38Z</time>
      </trkpt>
      <trkpt lat="47.7722" lon="-3.54364">
        <ele>38.5</ele>
        <time>2021-07-11T10:04:39Z</time>
      </trkpt>
      <trkpt lat="47.7722" lon="-3.54364">
        <ele>38.5</ele>
        <time>2021-07-11T10:04:40Z</time>
      </trkpt>
      <trkpt lat="47.7722" lon="-3.54364">
        <ele>38.5</ele>
        <time>2021-07-11T10:04:41Z</time>
      </trkpt>
      <trkpt lat="47.7722" lon="-3.54364">
        <ele>38.5</ele>
        <time>2021-07-11T10:04:42Z</time>
      </trkpt>
      <trkpt lat="47.7722" lon="-3.54364">
        <ele>38.5</ele>
        <time>2021-07-11T10:04:43Z</time>
      </trkpt>
      <trkpt lat="47.7722" lon="-3.54364">
        <ele>38.5</ele>
        <time>2021-07-11T10:04:44Z</time>
      </trkpt>
      <trkpt lat="47.7722" lon="-3.54364">
        <ele>38.5</ele>
        <time>2021-07-11T10:04:45Z</time>
      </trkpt>
      <trkpt lat="47.7722" lon="-3.54364">
        <ele>38.5</ele>
        <time>2021-07-11T10:04:46Z</time>
      </trkpt>
      <trkpt lat="47.7722" lon="-3.54364">
        <ele>38.5</ele>
        <time>2021-07-11T10:04:47Z</time>
      </trkpt>
      <trkpt lat="47.7722" lon="-3.54364">
        <ele>38.5</ele>
        <time>2021-07-11T10:04:48Z</time>
      </trkpt>
      <trkpt lat="47.7722" lon="-3.54364">
        <ele>38.5</ele>
        <time>2021-07-11T10:04:49Z</time>
      </trkpt>
      <trkpt lat="47.7722" lon="-3.54364">
        <ele>38.5</ele>
        <time>2021-07-11T10:04:50Z</time>
      </trkpt>
      <trkpt lat="47.7722" lon="-3.54364">
        <ele>38.5</ele>
        <time>2021-07-11T10:04:51Z</time>
      </trkpt>
      <trkpt lat="47.7722" lon="-3.54364">
        <ele>38.5</ele>
        <time>2021-07-11T10:04:52Z</time>
      </trkpt>
      <trkpt lat="47.7722" lon="-3.54364">
        <ele>38.5</ele>
        <time>2021-07-11T10:04:53Z</time>
      </trkpt>
      <trkpt lat="47.7722" lon="-3.54364">
        <ele>38.5</ele>
        <time>2021-07-11T10:04:54Z</time>
      </trkpt>
      <trkpt lat="47.7722" lon="-3.54364">
        <ele>38.5</ele>
        <time>2021-07-11T10:04:55Z</time>
      </trkpt>
      <trkpt lat="47.7722" lon="-3.54364">
        <ele>38.5</ele>
        <time>2021-07-11T10:04:56Z</time>
      </trkpt>
      <trkpt lat="47.7722" lon="-3.54364">
        <ele>38.5</ele>
        <time>2021-07-11T10:04:57Z</time>
      </trkpt>
      <trkpt lat="47.7722" lon="-3.54364">
        <ele>38.5</ele>
        <time>2021-07-11T10:04:58Z</time>
      </trkpt>
      <trkpt lat="47.7722" lon="-3.54364">
        <ele>38.5</ele>
        <time>2021-07-11T10:04:59Z</time>
      </trkpt>
      <trkpt lat="47.7722" lon="-3.54364">
        <ele>38.5</ele>
        <time>2021-07-11T10:05:00Z</time>
      </trkpt>
      <trkpt lat="47.7722" lon="-3.54364">
        <ele>38.5</ele>
        <time>2021-07-11T10:05:01Z</time>
      </trkpt>
      <trkpt lat="47.7722" lon="-3.54364">
        <ele>38.5</ele>
        <time>2021-07-11T10:05:02Z</time>
      </trkpt>
      <trkpt lat="47.7722" lon="-3.54364">
        <ele>38.5</ele>
        <time>2021-07-11T10:05:03Z</time>
      </trkpt>
      <trkpt lat="47.7722" lon="-3.54364">
        <ele>38.5</ele>
        <time>2021-07-11T10:05:04Z</time>
      </trkpt>
      <trkpt lat="47.7722" lon="-3.54364">
        <ele>38.5</ele>
        <time>2021-07-11T10:05:05Z</time>
      </trkpt>
      <trkpt lat="47.7722" lon="-3.54364">
        <ele>38.5</ele>
        <time>2021-07-11T10:05:06Z</time>
      </trkpt>
      <trkpt lat="47.7722" lon="-3.54364">
        <ele>38.5</ele>
        <time>2021-07-11T10:05:07Z</time>
      </trkpt>
      <trkpt lat="47.7722" lon="-3.54364">
        <ele>38.5</ele>
        <time>2021-07-11T10:05:08Z</time>
      </trkpt>
      <trkpt lat="47.7722" lon="-3.54364">
        <ele>38.5</ele>
        <time>2021-07-11T10:05:09Z</time>
      </trkpt>
      <trkpt lat="47.7722" lon="-3.54364">
        <ele>38.5</ele>
        <time>2021-07-11T10:05:10Z</time>
      </trkpt>
      <trkpt lat="47.7722" lon="-3.54364">
        <ele>38.5</ele>
        <time>2021-07-11T10:05:11Z</time>
      </trkpt>
      <trkpt lat="47.7722" lon="-3.54364">
        <ele>38.5</ele>
        <time>2021-07-11T10:05:12Z</time>
      </trkpt>
      <trkpt lat="47.7722" lon="-3.54364">
        <ele>38.5</ele>
        <time>2021-07-11T10:05:13Z</time>
      </trkpt>
      <trkpt lat="47.7722" lon="-3.54364">
        <ele>38.5</ele>
        <time>2021-07-11T10:05:14Z</time>
      </trkpt>
      <trkpt lat="47.7722" lon="-3.54364">
        <ele>38.5</ele>
        <time>2021-07-11T10:05:15Z</time>
      </trkpt>
      <trkpt lat="47.7722" lon="-3.54364">
        <ele>38.5</ele>
        <time>2021-07-11T10:05:16Z</time>
      </trkpt>
      <trkpt lat="47.7722" lon="-3.54364">
        <ele>38.5</ele>
        <time>2021-07-11T10:05:17Z</time>
      </trkpt>
      <trkpt lat="47.7722" lon="-3.54364">
        <ele>38.5</ele>
        <time>2021-07-11T10:05:18Z</time>
      </trkpt>
      <trkpt lat="47.7722" lon="-3.54364">
        <ele>38.5</ele>
        <time>2021-07-11T10:05:19Z</time>
      </trkpt>
      <trkpt lat="47.7722" lon="-3.54364">
        <ele>38.5</ele>
        <time>2021-07-11T10:05:20Z</time>
      </trkpt>
      <trkpt lat="47.7722" lon="-3.54364">
        <ele>38.5</ele>
        <time>2021-07-11T10:05:21Z</time>
      </trkpt>
      <trkpt lat="47.7722" lon="-3.54364">
        <ele>38.5</ele>
        <time>2021-07-11T10:05:22Z</time>
      </trkpt>
      <trkpt lat="47.7722" lon="-3.54364">
        <ele>38.5</ele>
        <time>2021-07-11T10:05:23Z</time>
      </trkpt>
      <trkpt lat="47.7722" lon="-3.54364">
        <ele>38.5</ele>
        <time>2021-07-11T10:05:24Z</time>
      </trkpt>
      <trkpt lat="47.7722" lon="-3.54364">
        <ele>38.5</ele>
        <time>2021-07-11T10:05:25Z</time>
      </trkpt>
      <trkpt lat="47.7722" lon="-3.54364">
        <ele>38.5</ele>
        <time>2021-07-11T10:05:26Z</time>
      </trkpt>
      <trkpt lat="47.7722" lon="-3.54364">
        <ele>38.5</ele>
        <time>2021-07-11T10:05:27Z</time>
      </trkpt>
      <trkpt lat="47.7722" lon="-3.54364">
        <ele>38.5</ele>
        <time>2021-07-11T10:05:28Z</time>
      </trkpt>
      <trkpt lat="47.7722" lon="-3.54364">
        <ele>38.5</ele>
        <time>2021-07-11T10:05:29Z</time>
      </trkpt>
      <trkpt lat="47.7722" lon="-3.54364">
        <ele>38.5</ele>
        <time>2021-07-11T10:05:30Z</time>
      </trkpt>
      <trkpt lat="47.7722" lon="-3.54364">
        <ele>38.5</ele>
        <time>2021-07-11T10:05:31Z</time>
      </trkpt>
      <trkpt lat="47.7722" lon="-3.54364">
        <ele>38.5</ele>
        <time>2021-07-11T10:05:32Z</time>
      </trkpt>
      <trkpt lat="47.7722" lon="-3.54364">
        <ele>38.5</ele>
        <time>2021-07-11T10:05:33Z</time>
      </trkpt>
      <trkpt lat="47.7722" lon="-3.54364">
        <ele>38.5</ele>
        <time>2021-07-11T10:05:34Z</time>
      </trkpt>
      <trkpt lat="47.7722" lon="-3.54364">
        <ele>38.5</ele>
        <time>2021-07-11T10:05:35Z</time>
      </trkpt>
      <trkpt lat="47.7722" lon="-3.54364">
        <ele>38.5</ele>
        <time>2021-07-11T10:05:36Z</time>
      </trkpt>
      <trkpt lat="47.7722" lon="-3.54364">
        <ele>38.5</ele>
        <time>2021-07-11T10:05:37Z</time>
      </trkpt>
      <trkpt lat="47.7722" lon="-3.54364">
        <ele>38.5</ele>
        <time>2021-07-11T10:05:38Z</time>
      </trkpt>
      <trkpt lat="47.7722" lon="-3.54364">
        <ele>38.5</ele>
        <time>2021-07-11T10:05:39Z</time>
      </trkpt>
      <trkpt lat="47.7722" lon="-3.54364">
        <ele>38.5</ele>
        <time>2021-07-11T10:05:40Z</time>
      </trkpt>
      <trkpt lat="47.7722" lon="-3.54364">
        <ele>38.5</ele>
        <time>2021-07-11T10:05:41Z</time>
      </trkpt>
      <trkpt lat="47.7722" lon="-3.54364">
        <ele>38.5</ele>
        <time>2021-07-11T10:05:42Z</time>
      </trkpt>
      <trkpt lat="47.7722" lon="-3.54364">
        <ele>38.5</ele>
        <time>2021-07-11T10:05:43Z</time>
      </trkpt>
      <trkpt lat="47.7722" lon="-3.54364">
        <ele>38.5</ele>
        <time>2021-07-11T10:05:44Z</time>
      </trkpt>
      <trkpt lat="47.7722" lon="-3.54364">
        <ele>38.5</ele>
        <time>2021-07-11T10:05:45Z</time>
      </trkpt>
      <trkpt lat="47.7722" lon="-3.54364">
        <ele>38.5</ele>
        <time>2021-07-11T10:05:46Z</time>
      </trkpt>
      <trkpt lat="47.7722" lon="-3.54364">
        <ele>38.5</ele>
        <time>2021-07-11T10:05:47Z</time>
      </trkpt>
      <trkpt lat="47.7722" lon="-3.54364">
        <ele>38.5</ele>
        <time>2021-07-11T10:05:48Z</time>
      </trkpt>
      <trkpt lat="47.7722" lon="-3.54364">
        <ele>38.5</ele>
        <time>2021-07-11T10:05:49Z</time>
      </trkpt>
      <trkpt lat="47.7722" lon="-3.54364">
        <ele>38.5</ele>
        <time>2021-07-11T10:05:50Z</time>
      </trkpt>
      <trkpt lat="47.7722" lon="-3.54364">
        <ele>38.5</ele>
        <time>2021-07-11T10:05:51Z</time>
      </trkpt>
      <trkpt lat="47.7722" lon="-3.54364">
        <ele>38.5</ele>
        <time>2021-07-11T10:05:52Z</time>
      </trkpt>
      <trkpt lat="47.7722" lon="-3.54364">
        <ele>38.5</ele>
        <time>2021-07-11T10:05:53Z</time>
      </trkpt>
      <trkpt lat="47.7722" lon="-3.54364">
        <ele>38.5</ele>
        <time>2021-07-11T10:05:54Z</time>
      </trkpt>
      <trkpt lat="47.7722" lon="-3.54364">
        <ele>38.5</ele>
        <time>2021-07-11T10:05:55Z</time>
      </trkpt>
      <trkpt lat="47.7722" lon="-3.54364">
        <ele>38.5</ele>
        <time>2021-07-11T10:05:56Z</time>
      </trkpt>
      <trkpt lat="47.7722" lon="-3.54364">
        <ele>38.5</ele>
        <time>2021-07-11T10:05:57Z</time>
      </trkpt>
      <trkpt lat="47.7722" lon="-3.54364">
        <ele>38.5</ele>
        <time>2021-07-11T10:05:58Z</time>
      </trkpt>
      <trkpt lat="47.7722" lon="-3.54364">
        <ele>38.5</ele>
        <time>2021-07-11T10:05:59Z</time>
      </trkpt>
      <trkpt lat="47.7722" lon="-3.54364">
        <ele>38.5</ele>
        <time>2021-07-11T10:06:00Z</time>
      </trkpt>
      <trkpt lat="47.7722" lon="-3.54364">
        <ele>38.5</ele>
        <time>2021-07-11T10:06:01Z</time>
      </trkpt>
      <trkpt lat="47.7722" lon="-3.54364">
        <ele>38.5</ele>
        <time>2021-07-11T10:06:02Z</time>
      </trkpt>
      <trkpt lat="47.7722" lon="-3.54364">
        <ele>38.5</ele>
        <time>2021-07-11T10:06:03Z</time>
      </trkpt>
      <trkpt lat="47.77211" lon="-3.54374">
        <ele>38.5</ele>
        <time>2021-07-11T08:28:38Z</time>
      </trkpt>
      <trkpt lat="47.77211" lon="-3.54374">
        <ele>38.5</ele>
        <time>2021-07-11T08:28:37Z</time>
      </trkpt>
      <trkpt lat="47.77212" lon="-3.54375">
        <ele>38.5</ele>
        <time>2021-07-11T08:28:36Z</time>
      </trkpt>
      <trkpt lat="47.77212" lon="-3.54375">
        <ele>38.5</ele>
        <time>2021-07-11T08:28:35Z</time>
      </trkpt>
      <trkpt lat="47.77212" lon="-3.54375">
        <ele>38.5</ele>
        <time>2021-07-11T08:28:34Z</time>
      </trkpt>
      <trkpt lat="47.77213" lon="-3.54375">
        <ele>38.4</ele>
        <time>2021-07-11T08:28:33Z</time>
      </trkpt>
      <trkpt lat="47.77213" lon="-3.54374">
        <ele>38.4</ele>
        <time>2021-07-11T08:28:32Z</time>
      </trkpt>
      <trkpt lat="47.77213" lon="-3.54374">
        <ele>38.4</ele>
        <time>2021-07-11T08:28:31Z</time>
      </trkpt>
      <trkpt lat="47.77214" lon="-3.54374">
        <ele>38.4</ele>
        <time>2021-07-11T08:28:30Z</time>
      </trkpt>
      <trkpt lat="47.77214" lon="-3.54373">
        <ele>38.4</ele>
        <time>2021-07-11T08:28:29Z</time>
      </trkpt>
      <trkpt lat="47.77214" lon="-3.54373">
        <ele>38.3</ele>
        <time>2021-07-11T08:28:28Z</time>
      </trkpt>
      <trkpt lat="47.77215" lon="-3.54373">
        <ele>38.3</ele>
        <time>2021-07-11T08:28:27Z</time>
      </trkpt>
      <trkpt lat="47.77215" lon="-3.54372">
        <ele>38.3</ele>
        <time>2021-07-11T08:28:26Z</time>
      </trkpt>
      <trkpt lat="47.77216" lon="-3.54372">
        <ele>38.3</ele>
        <time>2021-07-11T08:28:25Z</time>
      </trkpt>
      <trkpt lat="47.77216" lon="-3.54372">
        <ele>38.3</ele>
        <time>2021-07-11T08:28:24Z</time>
      </trkpt>
      <trkpt lat="47.77216" lon="-3.54372">
        <ele>38.3</ele>
        <time>2021-07-11T08:28:23Z</time>
      </trkpt>
      <trkpt lat="47.77217" lon="-3.54372">
        <ele>38.2</ele>
        <time>2021-07-11T08:28:22Z</time>
      </trkpt>
      <trkpt lat="47.77218" lon="-3.54372">
        <ele>38.2</ele>
        <time>2021-07-11T08:28:21Z</time>
      </trkpt>
      <trkpt lat="47.77218" lon="-3.54372">
        <ele>38.2</ele>
        <time>2021-07-11T08:28:20Z</time>
      </trkpt>
      <trkpt lat="47.77219" lon="-3.54373">
        <ele>38.1</ele>
        <time>2021-07-11T08:28:19Z</time>
      </trkpt>
      <trkpt lat="47.77219" lon="-3.54373">
        <ele>38.1</ele>
        <time>2021-07-11T08:28:18Z</time>
      </trkpt>
      <trkpt lat="47.7722" lon="-3.54374">
        <ele>38.1</ele>
        <time>2021-07-11T08:28:17Z</time>
      </trkpt>
      <trkpt lat="47.77221" lon="-3.54375">
        <ele>38</ele>
        <time>2021-07-11T08:28:16Z</time>
      </trkpt>
      <trkpt lat="47.77221" lon="-3.54376">
        <ele>38</ele>
        <time>2021-07-11T08:28:15Z</time>
      </trkpt>
      <trkpt lat="47.77221" lon="-3.54377">
        <ele>38</ele>
        <time>2021-07-11T08:28:14Z</time>
      </trkpt>
      <trkpt lat="47.77222" lon="-3.54379">
        <ele>37.9</ele>
        <time>2021-07-11T08:28:13Z</time>
      </trkpt>
      <trkpt lat="47.77221" lon="-3.5438">
        <ele>37.9</ele>
        <time>2021-07-11T08:28:12Z</time>
      </trkpt>
      <trkpt lat="47.77221" lon="-3.54382">
        <ele>37.8</ele>
        <time>2021-07-11T08:28:11Z</time>
      </trkpt>
      <trkpt lat="47.77221" lon="-3.54383">
        <ele>37.8</ele>
        <time>2021-07-11T08:28:10Z</time>
      </trkpt>
      <trkpt lat="47.7722" lon="-3.54385">
        <ele>37.7</ele>
        <time>2021-07-11T08:28:09Z</time>
      </trkpt>
      <trkpt lat="47.7722" lon="-3.54387">
        <ele>37.6</ele>
        <time>2021-07-11T08:28:08Z</time>
      </trkpt>
      <trkpt lat="47.77219" lon="-3.54389">
        <ele>37.6</ele>
        <time>2021-07-11T08:28:07Z</time>
      </trkpt>
      <trkpt lat="47.77219" lon="-3.54391">
        <ele>37.5</ele>
        <time>2021-07-11T08:28:06Z</time>
      </trkpt>
      <trkpt lat="47.77218" lon="-3.54393">
        <ele>37.4</ele>
        <time>2021-07-11T08:28:05Z</time>
      </trkpt>
      <trkpt lat="47.77217" lon="-3.54395">
        <ele>37.4</ele>
        <time>2021-07-11T08:28:04Z</time>
      </trkpt>
      <trkpt lat="47.77217" lon="-3.54397">
        <ele>37.3</ele>
        <time>2021-07-11T08:28:03Z</time>
      </trkpt>
      <trkpt lat="47.77216" lon="-3.54399">
        <ele>37.2</ele>
        <time>2021-07-11T08:28:02Z</time>
      </trkpt>
      <trkpt lat="47.77215" lon="-3.544">
        <ele>37.1</ele>
        <time>2021-07-11T08:28:01Z</time>
      </trkpt>
      <trkpt lat="47.77215" lon="-3.54402">
        <ele>37.1</ele>
        <time>2021-07-11T08:28:00Z</time>
      </trkpt>
      <trkpt lat="47.77215" lon="-3.54404">
        <ele>37</ele>
        <time>2021-07-11T08:27:59Z</time>
      </trkpt>
      <trkpt lat="47.77214" lon="-3.54406">
        <ele>36.9</ele>
        <time>2021-07-11T08:27:58Z</time>
      </trkpt>
      <trkpt lat="47.77214" lon="-3.54408">
        <ele>36.9</ele>
        <time>2021-07-11T08:27:57Z</time>
      </trkpt>
      <trkpt lat="47.77214" lon="-3.54409">
        <ele>36.8</ele>
        <time>2021-07-11T08:27:56Z</time>
      </trkpt>
      <trkpt lat="47.77214" lon="-3.54411">
        <ele>36.7</ele>
        <time>2021-07-11T08:27:55Z</time>
      </trkpt>
      <trkpt lat="47.77214" lon="-3.54413">
        <ele>36.7</ele>
        <time>2021-07-11T08:27:54Z</time>
      </trkpt>
      <trkpt lat="47.77213" lon="-3.54415">
        <ele>36.6</ele>
        <time>2021-07-11T08:27:53Z</time>
      </trkpt>
      <trkpt lat="47.77213" lon="-3.54416">
        <ele>36.5</ele>
        <time>2021-07-11T08:27:52Z</time>
      </trkpt>
      <trkpt lat="47.77213" lon="-3.54418">
        <ele>36.5</ele>
        <time>2021-07-11T08:27:51Z</time>
      </trkpt>
      <trkpt lat="47.77213" lon="-3.5442">
        <ele>36.4</ele>
        <time>2021-07-11T08:27:50Z</time>
      </trkpt>
      <trkpt lat="47.77213" lon="-3.54422">
        <ele>36.3</ele>
        <time>2021-07-11T08:27:49Z</time>
      </trkpt>
      <trkpt lat="47.77212" lon="-3.54423">
        <ele>36.3</ele>
        <time>2021-07-11T08:27:48Z</time>
      </trkpt>
      <trkpt lat="47.77212" lon="-3.54425">
        <ele>36.2</ele>
        <time>2021-07-11T08:27:47Z</time>
      </trkpt>
      <trkpt lat="47.77211" lon="-3.54427">
        <ele>36.1</ele>
        <time>2021-07-11T08:27:46Z</time>
      </trkpt>
      <trkpt lat="47.77211" lon="-3.54429">
        <ele>36.1</ele>
        <time>2021-07-11T08:27:45Z</time>
      </trkpt>
      <trkpt lat="47.7721" lon="-3.54431">
        <ele>36</ele>
        <time>2021-07-11T08:27:44Z</time>
      </trkpt>
      <trkpt lat="47.7721" lon="-3.54433">
        <ele>35.9</ele>
        <time>2021-07-11T08:27:43Z</time>
      </trkpt>
      <trkpt lat="47.77209" lon="-3.54434">
        <ele>35.8</ele>
        <time>2021-07-11T08:27:42Z</time>
      </trkpt>
      <trkpt lat="47.77209" lon="-3.54436">
        <ele>35.7</ele>
        <time>2021-07-11T08:27:41Z</time>
      </trkpt>
      <trkpt lat="47.77208" lon="-3.54438">
        <ele>35.7</ele>
        <time>2021-07-11T08:27:40Z</time>
      </trkpt>
      <trkpt lat="47.77207" lon="-3.5444">
        <ele>35.6</ele>
        <time>2021-07-11T08:27:39Z</time>
      </trkpt>
      <trkpt lat="47.77207" lon="-3.54442">
        <ele>35.5</ele>
        <time>2021-07-11T08:27:38Z</time>
      </trkpt>
      <trkpt lat="47.77206" lon="-3.54444">
        <ele>35.4</ele>
        <time>2021-07-11T08:27:37Z</time>
      </trkpt>
      <trkpt lat="47.77206" lon="-3.54446">
        <ele>35.3</ele>
        <time>2021-07-11T08:27:36Z</time>
      </trkpt>
      <trkpt lat="47.77206" lon="-3.54448">
        <ele>35.3</ele>
        <time>2021-07-11T08:27:35Z</time>
      </trkpt>
      <trkpt lat="47.77206" lon="-3.5445">
        <ele>35.2</ele>
        <time>2021-07-11T08:27:34Z</time>
      </trkpt>
      <trkpt lat="47.77205" lon="-3.54452">
        <ele>35.1</ele>
        <time>2021-07-11T08:27:33Z</time>
      </trkpt>
      <trkpt lat="47.77205" lon="-3.54453">
        <ele>35</ele>
        <time>2021-07-11T08:27:32Z</time>
      </trkpt>
      <trkpt lat="47.77205" lon="-3.54455">
        <ele>35</ele>
        <time>2021-07-11T08:27:31Z</time>
      </trkpt>
      <trkpt lat="47.77205" lon="-3.54457">
        <ele>34.9</ele>
        <time>2021-07-11T08:27:30Z</time>
      </trkpt>
      <trkpt lat="47.77204" lon="-3.54459">
        <ele>34.8</ele>
        <time>2021-07-11T08:27:29Z</time>
      </trkpt>
      <trkpt lat="47.77204" lon="-3.54461">
        <ele>34.7</ele>
        <time>2021-07-11T08:27:28Z</time>
      </trkpt>
      <trkpt lat="47.77203" lon="-3.54463">
        <ele>34.7</ele>
        <time>2021-07-11T08:27:27Z</time>
      </trkpt>
      <trkpt lat="47.77202" lon="-3.54465">
        <ele>34.6</ele>
        <time>2021-07-11T08:27:26Z</time>
      </trkpt>
      <trkpt lat="47.77202" lon="-3.54466">
        <ele>34.5</ele>
        <time>2021-07-11T08:27:25Z</time>
      </trkpt>
      <trkpt lat="47.77201" lon="-3.54468">
        <ele>34.4</ele>
        <time>2021-07-11T08:27:24Z</time>
      </trkpt>
      <trkpt lat="47.772" lon="-3.5447">
        <ele>34.3</ele>
        <time>2021-07-11T08:27:23Z</time>
      </trkpt>
      <trkpt lat="47.77199" lon="-3.54471">
        <ele>34.2</ele>
        <time>2021-07-11T08:27:22Z</time>
      </trkpt>
      <trkpt lat="47.77198" lon="-3.54473">
        <ele>34.2</ele>
        <time>2021-07-11T08:27:21Z</time>
      </trkpt>
      <trkpt lat="47.77197" lon="-3.54475">
        <ele>34</ele>
        <time>2021-07-11T08:27:20Z</time>
      </trkpt>
      <trkpt lat="47.77197" lon="-3.54476">
        <ele>33.9</ele>
        <time>2021-07-11T08:27:19Z</time>
      </trkpt>
      <trkpt lat="47.77196" lon="-3.54478">
        <ele>33.8</ele>
        <time>2021-07-11T08:27:18Z</time>
      </trkpt>
      <trkpt lat="47.77195" lon="-3.54479">
        <ele>33.6</ele>
        <time>2021-07-11T08:27:17Z</time>
      </trkpt>
      <trkpt lat="47.77194" lon="-3.5448">
        <ele>33.5</ele>
        <time>2021-07-11T08:27:16Z</time>
      </trkpt>
      <trkpt lat="47.77193" lon="-3.54482">
        <ele>33.4</ele>
        <time>2021-07-11T08:27:15Z</time>
      </trkpt>
      <trkpt lat="47.77192" lon="-3.54483">
        <ele>33.3</ele>
        <time>2021-07-11T08:27:14Z</time>
      </trkpt>
      <trkpt lat="47.77191" lon="-3.54485">
        <ele>33.2</ele>
        <time>2021-07-11T08:27:13Z</time>
      </trkpt>
      <trkpt lat="47.7719" lon="-3.54486">
        <ele>33.1</ele>
        <time>2021-07-11T08:27:12Z</time>
      </trkpt>
      <trkpt lat="47.7719" lon="-3.54488">
        <ele>33</ele>
        <time>2021-07-11T08:27:11Z</time>
      </trkpt>
      <trkpt lat="47.77189" lon="-3.54489">
        <ele>32.9</ele>
        <time>2021-07-11T08:27:10Z</time>
      </trkpt>
      <trkpt lat="47.77188" lon="-3.54491">
        <ele>32.8</ele>
        <time>2021-07-11T08:27:09Z</time>
      </trkpt>
      <trkpt lat="47.77187" lon="-3.54492">
        <ele>32.7</ele>
        <time>2021-07-11T08:27:08Z</time>
      </trkpt>
      <trkpt lat="47.77187" lon="-3.54494">
        <ele>32.6</ele>
        <time>2021-07-11T08:27:07Z</time>
      </trkpt>
      <trkpt lat="47.77186" lon="-3.54495">
        <ele>32.4</ele>
        <time>2021-07-11T08:27:06Z</time>
      </trkpt>
      <trkpt lat="47.77185" lon="-3.54497">
        <ele>32.3</ele>
        <time>2021-07-11T08:27:05Z</time>
      </trkpt>
      <trkpt lat="47.77184" lon="-3.54499">
        <ele>32.2</ele>
        <time>2021-07-11T08:27:04Z</time>
      </trkpt>
      <trkpt lat="47.77184" lon="-3.545">
        <ele>32.1</ele>
        <time>2021-07-11T08:27:03Z</time>
      </trkpt>
      <trkpt lat="47.77183" lon="-3.54502">
        <ele>32</ele>
        <time>2021-07-11T08:27:02Z</time>
      </trkpt>
      <trkpt lat="47.77182" lon="-3.54504">
        <ele>31.9</ele>
        <time>2021-07-11T08:27:01Z</time>
      </trkpt>
      <trkpt lat="47.77181" lon="-3.54505">
        <ele>31.9</ele>
        <time>2021-07-11T08:27:00Z</time>
      </trkpt>
      <trkpt lat="47.7718" lon="-3.54507">
        <ele>31.7</ele>
        <time>2021-07-11T08:26:59Z</time>
      </trkpt>
      <trkpt lat="47.7718" lon="-3.54509">
        <ele>31.6</ele>
        <time>2021-07-11T08:26:58Z</time>
      </trkpt>
      <trkpt lat="47.77179" lon="-3.54511">
        <ele>31.5</ele>
        <time>2021-07-11T08:26:57Z</time>
      </trkpt>
      <trkpt lat="47.77178" lon="-3.54512">
        <ele>31.4</ele>
        <time>2021-07-11T08:26:56Z</time>
      </trkpt>
      <trkpt lat="47.77177" lon="-3.54514">
        <ele>31.3</ele>
        <time>2021-07-11T08:26:55Z</time>
      </trkpt>
      <trkpt lat="47.77176" lon="-3.54516">
        <ele>31.2</ele>
        <time>2021-07-11T08:26:54Z</time>
      </trkpt>
      <trkpt lat="47.77175" lon="-3.54518">
        <ele>31.1</ele>
        <time>2021-07-11T08:26:53Z</time>
      </trkpt>
      <trkpt lat="47.77174" lon="-3.54519">
        <ele>31</ele>
        <time>2021-07-11T08:26:52Z</time>
      </trkpt>
      <trkpt lat="47.77173" lon="-3.54521">
        <ele>30.9</ele>
        <time>2021-07-11T08:26:51Z</time>
      </trkpt>
      <trkpt lat="47.77172" lon="-3.54523">
        <ele>30.8</ele>
        <time>2021-07-11T08:26:50Z</time>
      </trkpt>
      <trkpt lat="47.77171" lon="-3.54525">
        <ele>30.7</ele>
        <time>2021-07-11T08:26:49Z</time>
      </trkpt>
      <trkpt lat="47.7717" lon="-3.54526">
        <ele>30.6</ele>
        <time>2021-07-11T08:26:48Z</time>
      </trkpt>
      <trkpt lat="47.7717" lon="-3.54528">
        <ele>30.5</ele>
        <time>2021-07-11T08:26:47Z</time>
      </trkpt>
      <trkpt lat="47.77169" lon="-3.5453">
        <ele>30.5</ele>
        <time>2021-07-11T08:26:46Z</time>
      </trkpt>
      <trkpt lat="47.77168" lon="-3.54532">
        <ele>30.4</ele>
        <time>2021-07-11T08:26:45Z</time>
      </trkpt>
      <trkpt lat="47.77168" lon="-3.54534">
        <ele>30.3</ele>
        <time>2021-07-11T08:26:44Z</time>
      </trkpt>
      <trkpt lat="47.77167" lon="-3.54536">
        <ele>30.2</ele>
        <time>2021-07-11T08:26:43Z</time>
      </trkpt>
      <trkpt lat="47.77167" lon="-3.54537">
        <ele>30.1</ele>
        <time>2021-07-11T08:26:42Z</time>
      </trkpt>
      <trkpt lat="47.77167" lon="-3.54539">
        <ele>30.1</ele>
        <time>2021-07-11T08:26:41Z</time>
      </trkpt>
      <trkpt lat="47.77167" lon="-3.54541">
        <ele>30</ele>
        <time>2021-07-11T08:26:40Z</time>
      </trkpt>
      <trkpt lat="47.77166" lon="-3.54543">
        <ele>29.9</ele>
        <time>2021-07-11T08:26:39Z</time>
      </trkpt>
      <trkpt lat="47.77166" lon="-3.54545">
        <ele>29.8</ele>
        <time>2021-07-11T08:26:38Z</time>
      </trkpt>
      <trkpt lat="47.77166" lon="-3.54547">
        <ele>29.8</ele>
        <time>2021-07-11T08:26:37Z</time>
      </trkpt>
      <trkpt lat="47.77166" lon="-3.54549">
        <ele>29.5</ele>
        <time>2021-07-11T08:26:36Z</time>
      </trkpt>
      <trkpt lat="47.77165" lon="-3.54551">
        <ele>29.5</ele>
        <time>2021-07-11T08:26:35Z</time>
      </trkpt>
      <trkpt lat="47.77165" lon="-3.54553">
        <ele>29.5</ele>
        <time>2021-07-11T08:26:34Z</time>
      </trkpt>
      <trkpt lat="47.77165" lon="-3.54554">
        <ele>29.5</ele>
        <time>2021-07-11T08:26:33Z</time>
      </trkpt>
      <trkpt lat="47.77165" lon="-3.54556">
        <ele>29.4</ele>
        <time>2021-07-11T08:26:32Z</time>
      </trkpt>
      <trkpt lat="47.77164" lon="-3.54558">
        <ele>29.2</ele>
        <time>2021-07-11T08:26:31Z</time>
      </trkpt>
      <trkpt lat="47.77164" lon="-3.5456">
        <ele>29.1</ele>
        <time>2021-07-11T08:26:30Z</time>
      </trkpt>
      <trkpt lat="47.77163" lon="-3.54562">
        <ele>29</ele>
        <time>2021-07-11T08:26:29Z</time>
      </trkpt>
      <trkpt lat="47.77163" lon="-3.54563">
        <ele>28.8</ele>
        <time>2021-07-11T08:26:28Z</time>
      </trkpt>
      <trkpt lat="47.77162" lon="-3.54565">
        <ele>28.7</ele>
        <time>2021-07-11T08:26:27Z</time>
      </trkpt>
      <trkpt lat="47.77162" lon="-3.54567">
        <ele>28.6</ele>
        <time>2021-07-11T08:26:26Z</time>
      </trkpt>
      <trkpt lat="47.77161" lon="-3.54568">
        <ele>28.5</ele>
        <time>2021-07-11T08:26:25Z</time>
      </trkpt>
      <trkpt lat="47.77161" lon="-3.5457">
        <ele>28.3</ele>
        <time>2021-07-11T08:26:24Z</time>
      </trkpt>
      <trkpt lat="47.7716" lon="-3.54571">
        <ele>28.2</ele>
        <time>2021-07-11T08:26:23Z</time>
      </trkpt>
      <trkpt lat="47.77159" lon="-3.54573">
        <ele>28</ele>
        <time>2021-07-11T08:26:22Z</time>
      </trkpt>
      <trkpt lat="47.77159" lon="-3.54574">
        <ele>27.9</ele>
        <time>2021-07-11T08:26:21Z</time>
      </trkpt>
      <trkpt lat="47.77158" lon="-3.54576">
        <ele>27.8</ele>
        <time>2021-07-11T08:26:20Z</time>
      </trkpt>
      <trkpt lat="47.77157" lon="-3.54577">
        <ele>27.6</ele>
        <time>2021-07-11T08:26:19Z</time>
      </trkpt>
      <trkpt lat="47.77157" lon="-3.54579">
        <ele>27.5</ele>
        <time>2021-07-11T08:26:18Z</time>
      </trkpt>
      <trkpt lat="47.77156" lon="-3.5458">
        <ele>27.4</ele>
        <time>2021-07-11T08:26:17Z</time>
      </trkpt>
      <trkpt lat="47.77155" lon="-3.54581">
        <ele>27.3</ele>
        <time>2021-07-11T08:26:16Z</time>
      </trkpt>
      <trkpt lat="47.77155" lon="-3.54583">
        <ele>27.1</ele>
        <time>2021-07-11T08:26:15Z</time>
      </trkpt>
      <trkpt lat="47.77154" lon="-3.54584">
        <ele>27</ele>
        <time>2021-07-11T08:26:14Z</time>
      </trkpt>
      <trkpt lat="47.77153" lon="-3.54585">
        <ele>26.9</ele>
        <time>2021-07-11T08:26:13Z</time>
      </trkpt>
      <trkpt lat="47.77153" lon="-3.54586">
        <ele>26.8</ele>
        <time>2021-07-11T08:26:12Z</time>
      </trkpt>
      <trkpt lat="47.77152" lon="-3.54588">
        <ele>26.7</ele>
        <time>2021-07-11T08:26:11Z</time>
      </trkpt>
      <trkpt lat="47.77151" lon="-3.54589">
        <ele>26.5</ele>
        <time>2021-07-11T08:26:10Z</time>
      </trkpt>
      <trkpt lat="47.77151" lon="-3.5459">
        <ele>26.4</ele>
        <time>2021-07-11T08:26:09Z</time>
      </trkpt>
      <trkpt lat="47.7715" lon="-3.54592">
        <ele>26.3</ele>
        <time>2021-07-11T08:26:08Z</time>
      </trkpt>
      <trkpt lat="47.7715" lon="-3.54593">
        <ele>26.2</ele>
        <time>2021-07-11T08:26:07Z</time>
      </trkpt>
      <trkpt lat="47.77149" lon="-3.54594">
        <ele>26</ele>
        <time>2021-07-11T08:26:06Z</time>
      </trkpt>
      <trkpt lat="47.77149" lon="-3.54596">
        <ele>25.9</ele>
        <time>2021-07-11T08:26:05Z</time>
      </trkpt>
      <trkpt lat="47.77148" lon="-3.54597">
        <ele>25.8</ele>
        <time>2021-07-11T08:26:04Z</time>
      </trkpt>
      <trkpt lat="47.77148" lon="-3.54599">
        <ele>25.7</ele>
        <time>2021-07-11T08:26:03Z</time>
      </trkpt>
      <trkpt lat="47.77147" lon="-3.546">
        <ele>25.6</ele>
        <time>2021-07-11T08:26:02Z</time>
      </trkpt>
      <trkpt lat="47.77147" lon="-3.54602">
        <ele>25.5</ele>
        <time>2021-07-11T08:26:01Z</time>
      </trkpt>
      <trkpt lat="47.77146" lon="-3.54603">
        <ele>25.3</ele>
        <time>2021-07-11T08:26:00Z</time>
      </trkpt>
      <trkpt lat="47.77146" lon="-3.54605">
        <ele>25.2</ele>
        <time>2021-07-11T08:25:59Z</time>
      </trkpt>
      <trkpt lat="47.77145" lon="-3.54607">
        <ele>25.1</ele>
        <time>2021-07-11T08:25:58Z</time>
      </trkpt>
      <trkpt lat="47.77145" lon="-3.54608">
        <ele>24.9</ele>
        <time>2021-07-11T08:25:57Z</time>
      </trkpt>
      <trkpt lat="47.77144" lon="-3.5461">
        <ele>24.8</ele>
        <time>2021-07-11T08:25:56Z</time>
      </trkpt>
      <trkpt lat="47.77144" lon="-3.54612">
        <ele>24.7</ele>
        <time>2021-07-11T08:25:55Z</time>
      </trkpt>
      <trkpt lat="47.77143" lon="-3.54613">
        <ele>24.6</ele>
        <time>2021-07-11T08:25:54Z</time>
      </trkpt>
      <trkpt lat="47.77143" lon="-3.54615">
        <ele>24.5</ele>
        <time>2021-07-11T08:25:53Z</time>
      </trkpt>
      <trkpt lat="47.77142" lon="-3.54617">
        <ele>24.3</ele>
        <time>2021-07-11T08:25:52Z</time>
      </trkpt>
      <trkpt lat="47.77142" lon="-3.54619">
        <ele>24.2</ele>
        <time>2021-07-11T08:25:51Z</time>
      </trkpt>
      <trkpt lat="47.77141" lon="-3.54621">
        <ele>24.1</ele>
        <time>2021-07-11T08:25:50Z</time>
      </trkpt>
      <trkpt lat="47.77141" lon="-3.54623">
        <ele>23.9</ele>
        <time>2021-07-11T08:25:49Z</time>
      </trkpt>
      <trkpt lat="47.77141" lon="-3.54624">
        <ele>23.8</ele>
        <time>2021-07-11T08:25:48Z</time>
      </trkpt>
      <trkpt lat="47.7714" lon="-3.54626">
        <ele>23.7</ele>
        <time>2021-07-11T08:25:47Z</time>
      </trkpt>
      <trkpt lat="47.7714" lon="-3.54628">
        <ele>23.5</ele>
        <time>2021-07-11T08:25:46Z</time>
      </trkpt>
      <trkpt lat="47.77139" lon="-3.5463">
        <ele>23.4</ele>
        <time>2021-07-11T08:25:45Z</time>
      </trkpt>
      <trkpt lat="47.77139" lon="-3.54632">
        <ele>23.3</ele>
        <time>2021-07-11T08:25:44Z</time>
      </trkpt>
      <trkpt lat="47.77138" lon="-3.54634">
        <ele>23.1</ele>
        <time>2021-07-11T08:25:43Z</time>
      </trkpt>
      <trkpt lat="47.77138" lon="-3.54636">
        <ele>23</ele>
        <time>2021-07-11T08:25:42Z</time>
      </trkpt>
      <trkpt lat="47.77137" lon="-3.54638">
        <ele>22.9</ele>
        <time>2021-07-11T08:25:41Z</time>
      </trkpt>
      <trkpt lat="47.77137" lon="-3.54639">
        <ele>22.7</ele>
        <time>2021-07-11T08:25:40Z</time>
      </trkpt>
      <trkpt lat="47.77136" lon="-3.54641">
        <ele>22.6</ele>
        <time>2021-07-11T08:25:39Z</time>
      </trkpt>
      <trkpt lat="47.77135" lon="-3.54643">
        <ele>22.5</ele>
        <time>2021-07-11T08:25:38Z</time>
      </trkpt>
      <trkpt lat="47.77135" lon="-3.54645">
        <ele>22.3</ele>
        <time>2021-07-11T08:25:37Z</time>
      </trkpt>
      <trkpt lat="47.77134" lon="-3.54647">
        <ele>22.2</ele>
        <time>2021-07-11T08:25:36Z</time>
      </trkpt>
      <trkpt lat="47.77134" lon="-3.54649">
        <ele>22.1</ele>
        <time>2021-07-11T08:25:35Z</time>
      </trkpt>
      <trkpt lat="47.77133" lon="-3.54651">
        <ele>22</ele>
        <time>2021-07-11T08:25:34Z</time>
      </trkpt>
      <trkpt lat="47.77133" lon="-3.54653">
        <ele>21.8</ele>
        <time>2021-07-11T08:25:33Z</time>
      </trkpt>
      <trkpt lat="47.77132" lon="-3.54654">
        <ele>21.7</ele>
        <time>2021-07-11T08:25:32Z</time>
      </trkpt>
      <trkpt lat="47.77132" lon="-3.54656">
        <ele>21.6</ele>
        <time>2021-07-11T08:25:31Z</time>
      </trkpt>
      <trkpt lat="47.77132" lon="-3.54658">
        <ele>21.5</ele>
        <time>2021-07-11T08:25:30Z</time>
      </trkpt>
      <trkpt lat="47.77131" lon="-3.5466">
        <ele>21.4</ele>
        <time>2021-07-11T08:25:29Z</time>
      </trkpt>
      <trkpt lat="47.77131" lon="-3.54662">
        <ele>21.3</ele>
        <time>2021-07-11T08:25:28Z</time>
      </trkpt>
      <trkpt lat="47.77131" lon="-3.54664">
        <ele>21.2</ele>
        <time>2021-07-11T08:25:27Z</time>
      </trkpt>
      <trkpt lat="47.7713" lon="-3.54666">
        <ele>21.1</ele>
        <time>2021-07-11T08:25:26Z</time>
      </trkpt>
      <trkpt lat="47.7713" lon="-3.54668">
        <ele>21</ele>
        <time>2021-07-11T08:25:25Z</time>
      </trkpt>
      <trkpt lat="47.7713" lon="-3.54669">
        <ele>20.9</ele>
        <time>2021-07-11T08:25:24Z</time>
      </trkpt>
      <trkpt lat="47.7713" lon="-3.54671">
        <ele>20.8</ele>
        <time>2021-07-11T08:25:23Z</time>
      </trkpt>
      <trkpt lat="47.7713" lon="-3.54673">
        <ele>20.7</ele>
        <time>2021-07-11T08:25:22Z</time>
      </trkpt>
      <trkpt lat="47.7713" lon="-3.54675">
        <ele>20.6</ele>
        <time>2021-07-11T08:25:21Z</time>
      </trkpt>
      <trkpt lat="47.77129" lon="-3.54677">
        <ele>20.5</ele>
        <time>2021-07-11T08:25:20Z</time>
      </trkpt>
      <trkpt lat="47.77129" lon="-3.54679">
        <ele>20.4</ele>
        <time>2021-07-11T08:25:19Z</time>
      </trkpt>
      <trkpt lat="47.77129" lon="-3.54681">
        <ele>20.3</ele>
        <time>2021-07-11T08:25:18Z</time>
      </trkpt>
      <trkpt lat="47.77128" lon="-3.54682">
        <ele>20.2</ele>
        <time>2021-07-11T08:25:17Z</time>
      </trkpt>
      <trkpt lat="47.77128" lon="-3.54684">
        <ele>20.1</ele>
        <time>2021-07-11T08:25:16Z</time>
      </trkpt>
      <trkpt lat="47.77127" lon="-3.54686">
        <ele>20</ele>
        <time>2021-07-11T08:25:15Z</time>
      </trkpt>
      <trkpt lat="47.77127" lon="-3.54688">
        <ele>19.9</ele>
        <time>2021-07-11T08:25:14Z</time>
      </trkpt>
      <trkpt lat="47.77126" lon="-3.5469">
        <ele>19.8</ele>
        <time>2021-07-11T08:25:13Z</time>
      </trkpt>
      <trkpt lat="47.77125" lon="-3.54692">
        <ele>19.6</ele>
        <time>2021-07-11T08:25:12Z</time>
      </trkpt>
      <trkpt lat="47.77123" lon="-3.54695">
        <ele>19.5</ele>
        <time>2021-07-11T08:25:11Z</time>
      </trkpt>
      <trkpt lat="47.77122" lon="-3.54697">
        <ele>19.3</ele>
        <time>2021-07-11T08:25:10Z</time>
      </trkpt>
      <trkpt lat="47.77121" lon="-3.54699">
        <ele>19.2</ele>
        <time>2021-07-11T08:25:09Z</time>
      </trkpt>
      <trkpt lat="47.7712" lon="-3.547">
        <ele>19.1</ele>
        <time>2021-07-11T08:25:08Z</time>
      </trkpt>
      <trkpt lat="47.77119" lon="-3.54701">
        <ele>19.1</ele>
        <time>2021-07-11T08:25:07Z</time>
      </trkpt>
      <trkpt lat="47.77118" lon="-3.54702">
        <ele>19</ele>
        <time>2021-07-11T08:25:06Z</time>
      </trkpt>
      <trkpt lat="47.77116" lon="-3.54704">
        <ele>18.9</ele>
        <time>2021-07-11T08:25:05Z</time>
      </trkpt>
      <trkpt lat="47.77114" lon="-3.54705">
        <ele>18.8</ele>
        <time>2021-07-11T08:25:04Z</time>
      </trkpt>
      <trkpt lat="47.77113" lon="-3.54706">
        <ele>18.7</ele>
        <time>2021-07-11T08:25:03Z</time>
      </trkpt>
      <trkpt lat="47.77111" lon="-3.54707">
        <ele>18.6</ele>
        <time>2021-07-11T08:25:02Z</time>
      </trkpt>
      <trkpt lat="47.7711" lon="-3.54709">
        <ele>18.6</ele>
        <time>2021-07-11T08:25:01Z</time>
      </trkpt>
      <trkpt lat="47.77109" lon="-3.5471">
        <ele>18.5</ele>
        <time>2021-07-11T08:25:00Z</time>
      </trkpt>
      <trkpt lat="47.77108" lon="-3.54711">
        <ele>18.4</ele>
        <time>2021-07-11T08:24:59Z</time>
      </trkpt>
      <trkpt lat="47.77107" lon="-3.54712">
        <ele>18.4</ele>
        <time>2021-07-11T08:24:58Z</time>
      </trkpt>
      <trkpt lat="47.77106" lon="-3.54713">
        <ele>18.3</ele>
        <time>2021-07-11T08:24:57Z</time>
      </trkpt>
      <trkpt lat="47.77105" lon="-3.54714">
        <ele>18.2</ele>
        <time>2021-07-11T08:24:56Z</time>
      </trkpt>
      <trkpt lat="47.77103" lon="-3.54715">
        <ele>18.2</ele>
        <time>2021-07-11T08:24:55Z</time>
      </trkpt>
      <trkpt lat="47.77102" lon="-3.54715">
        <ele>18.1</ele>
        <time>2021-07-11T08:24:54Z</time>
      </trkpt>
      <trkpt lat="47.77101" lon="-3.54716">
        <ele>18.1</ele>
        <time>2021-07-11T08:24:53Z</time>
      </trkpt>
      <trkpt lat="47.77099" lon="-3.54717">
        <ele>18</ele>
        <time>2021-07-11T08:24:52Z</time>
      </trkpt>
      <trkpt lat="47.77098" lon="-3.54718">
        <ele>17.9</ele>
        <time>2021-07-11T08:24:51Z</time>
      </trkpt>
      <trkpt lat="47.77097" lon="-3.54718">
        <ele>17.9</ele>
        <time>2021-07-11T08:24:50Z</time>
      </trkpt>
      <trkpt lat="47.77095" lon="-3.54719">
        <ele>17.8</ele>
        <time>2021-07-11T08:24:49Z</time>
      </trkpt>
      <trkpt lat="47.77094" lon="-3.5472">
        <ele>17.7</ele>
        <time>2021-07-11T08:24:48Z</time>
      </trkpt>
      <trkpt lat="47.77091" lon="-3.54721">
        <ele>17.6</ele>
        <time>2021-07-11T08:24:47Z</time>
      </trkpt>
      <trkpt lat="47.7709" lon="-3.54722">
        <ele>17.6</ele>
        <time>2021-07-11T08:24:46Z</time>
      </trkpt>
      <trkpt lat="47.77089" lon="-3.54723">
        <ele>17.5</ele>
        <time>2021-07-11T08:24:45Z</time>
      </trkpt>
      <trkpt lat="47.77088" lon="-3.54723">
        <ele>17.5</ele>
        <time>2021-07-11T08:24:44Z</time>
      </trkpt>
      <trkpt lat="47.77087" lon="-3.54724">
        <ele>17.4</ele>
        <time>2021-07-11T08:24:43Z</time>
      </trkpt>
      <trkpt lat="47.77086" lon="-3.54725">
        <ele>17.4</ele>
        <time>2021-07-11T08:24:42Z</time>
      </trkpt>
      <trkpt lat="47.77085" lon="-3.54725">
        <ele>17.4</ele>
        <time>2021-07-11T08:24:41Z</time>
      </trkpt>
      <trkpt lat="47.77084" lon="-3.54726">
        <ele>17.3</ele>
        <time>2021-07-11T08:24:40Z</time>
      </trkpt>
      <trkpt lat="47.77082" lon="-3.54727">
        <ele>17.3</ele>
        <time>2021-07-11T08:24:39Z</time>
      </trkpt>
      <trkpt lat="47.77081" lon="-3.54728">
        <ele>17.3</ele>
        <time>2021-07-11T08:24:38Z</time>
      </trkpt>
      <trkpt lat="47.7708" lon="-3.54728">
        <ele>17.2</ele>
        <time>2021-07-11T08:24:37Z</time>
      </trkpt>
      <trkpt lat="47.77078" lon="-3.54729">
        <ele>17.2</ele>
        <time>2021-07-11T08:24:36Z</time>
      </trkpt>
      <trkpt lat="47.77077" lon="-3.5473">
        <ele>17.1</ele>
        <time>2021-07-11T08:24:35Z</time>
      </trkpt>
      <trkpt lat="47.77075" lon="-3.5473">
        <ele>17.1</ele>
        <time>2021-07-11T08:24:34Z</time>
      </trkpt>
      <trkpt lat="47.77073" lon="-3.54731">
        <ele>17</ele>
        <time>2021-07-11T08:24:33Z</time>
      </trkpt>
      <trkpt lat="47.77072" lon="-3.54732">
        <ele>17</ele>
        <time>2021-07-11T08:24:32Z</time>
      </trkpt>
      <trkpt lat="47.7707" lon="-3.54732">
        <ele>16.9</ele>
        <time>2021-07-11T08:24:31Z</time>
      </trkpt>
      <trkpt lat="47.77069" lon="-3.54733">
        <ele>16.9</ele>
        <time>2021-07-11T08:24:30Z</time>
      </trkpt>
      <trkpt lat="47.77067" lon="-3.54733">
        <ele>16.8</ele>
        <time>2021-07-11T08:24:29Z</time>
      </trkpt>
      <trkpt lat="47.77066" lon="-3.54734">
        <ele>16.8</ele>
        <time>2021-07-11T08:24:28Z</time>
      </trkpt>
      <trkpt lat="47.77064" lon="-3.54734">
        <ele>16.7</ele>
        <time>2021-07-11T08:24:27Z</time>
      </trkpt>
      <trkpt lat="47.77063" lon="-3.54735">
        <ele>16.7</ele>
        <time>2021-07-11T08:24:26Z</time>
      </trkpt>
      <trkpt lat="47.77062" lon="-3.54735">
        <ele>16.7</ele>
        <time>2021-07-11T08:24:25Z</time>
      </trkpt>
      <trkpt lat="47.77061" lon="-3.54736">
        <ele>16.6</ele>
        <time>2021-07-11T08:24:24Z</time>
      </trkpt>
      <trkpt lat="47.7706" lon="-3.54736">
        <ele>16.6</ele>
        <time>2021-07-11T08:24:23Z</time>
      </trkpt>
      <trkpt lat="47.77059" lon="-3.54737">
        <ele>16.6</ele>
        <time>2021-07-11T08:24:22Z</time>
      </trkpt>
      <trkpt lat="47.77058" lon="-3.54738">
        <ele>16.5</ele>
        <time>2021-07-11T08:24:21Z</time>
      </trkpt>
      <trkpt lat="47.77057" lon="-3.54739">
        <ele>16.5</ele>
        <time>2021-07-11T08:24:20Z</time>
      </trkpt>
      <trkpt lat="47.77056" lon="-3.54739">
        <ele>16.5</ele>
        <time>2021-07-11T08:24:19Z</time>
      </trkpt>
      <trkpt lat="47.77055" lon="-3.5474">
        <ele>16.4</ele>
        <time>2021-07-11T08:24:18Z</time>
      </trkpt>
      <trkpt lat="47.77054" lon="-3.54741">
        <ele>16.4</ele>
        <time>2021-07-11T08:24:17Z</time>
      </trkpt>
      <trkpt lat="47.77054" lon="-3.54742">
        <ele>16.4</ele>
        <time>2021-07-11T08:24:16Z</time>
      </trkpt>
      <trkpt lat="47.77053" lon="-3.54743">
        <ele>16.3</ele>
        <time>2021-07-11T08:24:15Z</time>
      </trkpt>
      <trkpt lat="47.77052" lon="-3.54745">
        <ele>16.3</ele>
        <time>2021-07-11T08:24:14Z</time>
      </trkpt>
      <trkpt lat="47.77051" lon="-3.54746">
        <ele>16.3</ele>
        <time>2021-07-11T08:24:13Z</time>
      </trkpt>
      <trkpt lat="47.77051" lon="-3.54747">
        <ele>16.2</ele>
        <time>2021-07-11T08:24:12Z</time>
      </trkpt>
      <trkpt lat="47.7705" lon="-3.54748">
        <ele>16.2</ele>
        <time>2021-07-11T08:24:11Z</time>
      </trkpt>
      <trkpt lat="47.77049" lon="-3.5475">
        <ele>16.2</ele>
        <time>2021-07-11T08:24:10Z</time>
      </trkpt>
      <trkpt lat="47.77048" lon="-3.54751">
        <ele>16.1</ele>
        <time>2021-07-11T08:24:09Z</time>
      </trkpt>
      <trkpt lat="47.77047" lon="-3.54753">
        <ele>16.1</ele>
        <time>2021-07-11T08:24:08Z</time>
      </trkpt>
      <trkpt lat="47.77046" lon="-3.54754">
        <ele>16.1</ele>
        <time>2021-07-11T08:24:07Z</time>
      </trkpt>
      <trkpt lat="47.77045" lon="-3.54756">
        <ele>16.1</ele>
        <time>2021-07-11T08:24:06Z</time>
      </trkpt>
      <trkpt lat="47.77044" lon="-3.54757">
        <ele>16</ele>
        <time>2021-07-11T08:24:05Z</time>
      </trkpt>
      <trkpt lat="47.77043" lon="-3.54758">
        <ele>16</ele>
        <time>2021-07-11T08:24:04Z</time>
      </trkpt>
      <trkpt lat="47.77042" lon="-3.5476">
        <ele>16</ele>
        <time>2021-07-11T08:24:03Z</time>
      </trkpt>
      <trkpt lat="47.77041" lon="-3.54761">
        <ele>16</ele>
        <time>2021-07-11T08:24:02Z</time>
      </trkpt>
      <trkpt lat="47.7704" lon="-3.54762">
        <ele>15.9</ele>
        <time>2021-07-11T08:24:01Z</time>
      </trkpt>
      <trkpt lat="47.77039" lon="-3.54764">
        <ele>15.9</ele>
        <time>2021-07-11T08:24:00Z</time>
      </trkpt>
      <trkpt lat="47.77038" lon="-3.54765">
        <ele>15.9</ele>
        <time>2021-07-11T08:23:59Z</time>
      </trkpt>
      <trkpt lat="47.77036" lon="-3.54766">
        <ele>15.9</ele>
        <time>2021-07-11T08:23:58Z</time>
      </trkpt>
      <trkpt lat="47.77035" lon="-3.54767">
        <ele>15.8</ele>
        <time>2021-07-11T08:23:57Z</time>
      </trkpt>
      <trkpt lat="47.77033" lon="-3.54768">
        <ele>15.8</ele>
        <time>2021-07-11T08:23:56Z</time>
      </trkpt>
      <trkpt lat="47.77032" lon="-3.54769">
        <ele>15.8</ele>
        <time>2021-07-11T08:23:55Z</time>
      </trkpt>
      <trkpt lat="47.7703" lon="-3.5477">
        <ele>15.8</ele>
        <time>2021-07-11T08:23:54Z</time>
      </trkpt>
      <trkpt lat="47.77029" lon="-3.5477">
        <ele>15.8</ele>
        <time>2021-07-11T08:23:53Z</time>
      </trkpt>
      <trkpt lat="47.77027" lon="-3.54771">
        <ele>15.7</ele>
        <time>2021-07-11T08:23:52Z</time>
      </trkpt>
      <trkpt lat="47.77026" lon="-3.54772">
        <ele>15.7</ele>
        <time>2021-07-11T08:23:51Z</time>
      </trkpt>
      <trkpt lat="47.77024" lon="-3.54773">
        <ele>15.7</ele>
        <time>2021-07-11T08:23:50Z</time>
      </trkpt>
      <trkpt lat="47.77023" lon="-3.54774">
        <ele>15.7</ele>
        <time>2021-07-11T08:23:49Z</time>
      </trkpt>
      <trkpt lat="47.77022" lon="-3.54774">
        <ele>15.6</ele>
        <time>2021-07-11T08:23:48Z</time>
      </trkpt>
      <trkpt lat="47.7702" lon="-3.54775">
        <ele>15.6</ele>
        <time>2021-07-11T08:23:47Z</time>
      </trkpt>
      <trkpt lat="47.77019" lon="-3.54776">
        <ele>15.6</ele>
        <time>2021-07-11T08:23:46Z</time>
      </trkpt>
      <trkpt lat="47.77018" lon="-3.54777">
        <ele>15.6</ele>
        <time>2021-07-11T08:23:45Z</time>
      </trkpt>
      <trkpt lat="47.77017" lon="-3.54778">
        <ele>15.5</ele>
        <time>2021-07-11T08:23:44Z</time>
      </trkpt>
      <trkpt lat="47.77015" lon="-3.54779">
        <ele>15.5</ele>
        <time>2021-07-11T08:23:43Z</time>
      </trkpt>
      <trkpt lat="47.77014" lon="-3.5478">
        <ele>15.5</ele>
        <time>2021-07-11T08:23:42Z</time>
      </trkpt>
      <trkpt lat="47.77013" lon="-3.54781">
        <ele>15.5</ele>
        <time>2021-07-11T08:23:41Z</time>
      </trkpt>
      <trkpt lat="47.77012" lon="-3.54782">
        <ele>15.4</ele>
        <time>2021-07-11T08:23:40Z</time>
      </trkpt>
      <trkpt lat="47.77011" lon="-3.54784">
        <ele>15.4</ele>
        <time>2021-07-11T08:23:39Z</time>
      </trkpt>
      <trkpt lat="47.7701" lon="-3.54785">
        <ele>15.4</ele>
        <time>2021-07-11T08:23:38Z</time>
      </trkpt>
      <trkpt lat="47.77009" lon="-3.54786">
        <ele>15.4</ele>
        <time>2021-07-11T08:23:37Z</time>
      </trkpt>
      <trkpt lat="47.77008" lon="-3.54787">
        <ele>15.3</ele>
        <time>2021-07-11T08:23:36Z</time>
      </trkpt>
      <trkpt lat="47.77007" lon="-3.54788">
        <ele>15.3</ele>
        <time>2021-07-11T08:23:35Z</time>
      </trkpt>
      <trkpt lat="47.77006" lon="-3.54789">
        <ele>15.3</ele>
        <time>2021-07-11T08:23:34Z</time>
      </trkpt>
      <trkpt lat="47.77005" lon="-3.5479">
        <ele>15.3</ele>
        <time>2021-07-11T08:23:33Z</time>
      </trkpt>
      <trkpt lat="47.77003" lon="-3.54792">
        <ele>15.3</ele>
        <time>2021-07-11T08:23:32Z</time>
      </trkpt>
      <trkpt lat="47.77002" lon="-3.54793">
        <ele>15.2</ele>
        <time>2021-07-11T08:23:31Z</time>
      </trkpt>
      <trkpt lat="47.77001" lon="-3.54794">
        <ele>15.2</ele>
        <time>2021-07-11T08:23:30Z</time>
      </trkpt>
      <trkpt lat="47.77" lon="-3.54795">
        <ele>15.2</ele>
        <time>2021-07-11T08:23:29Z</time>
      </trkpt>
      <trkpt lat="47.76998" lon="-3.54796">
        <ele>15.2</ele>
        <time>2021-07-11T08:23:28Z</time>
      </trkpt>
      <trkpt lat="47.76997" lon="-3.54798">
        <ele>15.2</ele>
        <time>2021-07-11T08:23:27Z</time>
      </trkpt>
      <trkpt lat="47.76996" lon="-3.54799">
        <ele>15.2</ele>
        <time>2021-07-11T08:23:26Z</time>
      </trkpt>
      <trkpt lat="47.76994" lon="-3.548">
        <ele>15.2</ele>
        <time>2021-07-11T08:23:25Z</time>
      </trkpt>
      <trkpt lat="47.76993" lon="-3.54801">
        <ele>15.2</ele>
        <time>2021-07-11T08:23:24Z</time>
      </trkpt>
      <trkpt lat="47.76992" lon="-3.54802">
        <ele>15.2</ele>
        <time>2021-07-11T08:23:23Z</time>
      </trkpt>
      <trkpt lat="47.76991" lon="-3.54803">
        <ele>15.2</ele>
        <time>2021-07-11T08:23:22Z</time>
      </trkpt>
      <trkpt lat="47.7699" lon="-3.54804">
        <ele>15.2</ele>
        <time>2021-07-11T08:23:21Z</time>
      </trkpt>
      <trkpt lat="47.76988" lon="-3.54805">
        <ele>15.2</ele>
        <time>2021-07-11T08:23:20Z</time>
      </trkpt>
      <trkpt lat="47.76987" lon="-3.54806">
        <ele>15.2</ele>
        <time>2021-07-11T08:23:19Z</time>
      </trkpt>
      <trkpt lat="47.76986" lon="-3.54807">
        <ele>15.2</ele>
        <time>2021-07-11T08:23:18Z</time>
      </trkpt>
      <trkpt lat="47.76985" lon="-3.54808">
        <ele>15.3</ele>
        <time>2021-07-11T08:23:17Z</time>
      </trkpt>
      <trkpt lat="47.76983" lon="-3.54809">
        <ele>15.3</ele>
        <time>2021-07-11T08:23:16Z</time>
      </trkpt>
      <trkpt lat="47.76982" lon="-3.5481">
        <ele>15.3</ele>
        <time>2021-07-11T08:23:15Z</time>
      </trkpt>
      <trkpt lat="47.76981" lon="-3.54811">
        <ele>15.3</ele>
        <time>2021-07-11T08:23:14Z</time>
      </trkpt>
      <trkpt lat="47.7698" lon="-3.54812">
        <ele>15.3</ele>
        <time>2021-07-11T08:23:13Z</time>
      </trkpt>
      <trkpt lat="47.76979" lon="-3.54813">
        <ele>15.4</ele>
        <time>2021-07-11T08:23:12Z</time>
      </trkpt>
      <trkpt lat="47.76976" lon="-3.54814">
        <ele>15.4</ele>
        <time>2021-07-11T08:23:11Z</time>
      </trkpt>
      <trkpt lat="47.76974" lon="-3.54814">
        <ele>15.4</ele>
        <time>2021-07-11T08:23:10Z</time>
      </trkpt>
      <trkpt lat="47.76973" lon="-3.54814">
        <ele>15.5</ele>
        <time>2021-07-11T08:23:09Z</time>
      </trkpt>
      <trkpt lat="47.76971" lon="-3.54814">
        <ele>15.5</ele>
        <time>2021-07-11T08:23:08Z</time>
      </trkpt>
      <trkpt lat="47.7697" lon="-3.54815">
        <ele>15.5</ele>
        <time>2021-07-11T08:23:07Z</time>
      </trkpt>
      <trkpt lat="47.76969" lon="-3.54815">
        <ele>15.5</ele>
        <time>2021-07-11T08:23:06Z</time>
      </trkpt>
      <trkpt lat="47.76967" lon="-3.54815">
        <ele>15.5</ele>
        <time>2021-07-11T08:23:05Z</time>
      </trkpt>
      <trkpt lat="47.76966" lon="-3.54815">
        <ele>15.5</ele>
        <time>2021-07-11T08:23:04Z</time>
      </trkpt>
      <trkpt lat="47.76965" lon="-3.54815">
        <ele>15.5</ele>
        <time>2021-07-11T08:23:03Z</time>
      </trkpt>
      <trkpt lat="47.76964" lon="-3.54815">
        <ele>15.5</ele>
        <time>2021-07-11T08:23:02Z</time>
      </trkpt>
      <trkpt lat="47.76963" lon="-3.54815">
        <ele>15.5</ele>
        <time>2021-07-11T08:23:01Z</time>
      </trkpt>
      <trkpt lat="47.76962" lon="-3.54815">
        <ele>15.5</ele>
        <time>2021-07-11T08:23:00Z</time>
      </trkpt>
      <trkpt lat="47.76961" lon="-3.54815">
        <ele>15.5</ele>
        <time>2021-07-11T08:22:59Z</time>
      </trkpt>
      <trkpt lat="47.76959" lon="-3.54815">
        <ele>15.5</ele>
        <time>2021-07-11T08:22:58Z</time>
      </trkpt>
      <trkpt lat="47.76958" lon="-3.54815">
        <ele>15.4</ele>
        <time>2021-07-11T08:22:57Z</time>
      </trkpt>
      <trkpt lat="47.76957" lon="-3.54815">
        <ele>15.4</ele>
        <time>2021-07-11T08:22:56Z</time>
      </trkpt>
      <trkpt lat="47.76956" lon="-3.54815">
        <ele>15.4</ele>
        <time>2021-07-11T08:22:55Z</time>
      </trkpt>
      <trkpt lat="47.76955" lon="-3.54815">
        <ele>15.3</ele>
        <time>2021-07-11T08:22:54Z</time>
      </trkpt>
      <trkpt lat="47.76954" lon="-3.54815">
        <ele>15.3</ele>
        <time>2021-07-11T08:22:53Z</time>
      </trkpt>
      <trkpt lat="47.76952" lon="-3.54815">
        <ele>15.2</ele>
        <time>2021-07-11T08:22:52Z</time>
      </trkpt>
      <trkpt lat="47.76951" lon="-3.54815">
        <ele>15.2</ele>
        <time>2021-07-11T08:22:51Z</time>
      </trkpt>
      <trkpt lat="47.7695" lon="-3.54815">
        <ele>15.1</ele>
        <time>2021-07-11T08:22:50Z</time>
      </trkpt>
      <trkpt lat="47.76948" lon="-3.54816">
        <ele>15</ele>
        <time>2021-07-11T08:22:49Z</time>
      </trkpt>
      <trkpt lat="47.76947" lon="-3.54816">
        <ele>15</ele>
        <time>2021-07-11T08:22:48Z</time>
      </trkpt>
      <trkpt lat="47.76946" lon="-3.54817">
        <ele>14.9</ele>
        <time>2021-07-11T08:22:47Z</time>
      </trkpt>
      <trkpt lat="47.76944" lon="-3.54818">
        <ele>14.8</ele>
        <time>2021-07-11T08:22:46Z</time>
      </trkpt>
      <trkpt lat="47.76943" lon="-3.54818">
        <ele>14.7</ele>
        <time>2021-07-11T08:22:45Z</time>
      </trkpt>
      <trkpt lat="47.76941" lon="-3.54819">
        <ele>14.6</ele>
        <time>2021-07-11T08:22:44Z</time>
      </trkpt>
      <trkpt lat="47.7694" lon="-3.5482">
        <ele>14.5</ele>
        <time>2021-07-11T08:22:43Z</time>
      </trkpt>
      <trkpt lat="47.76939" lon="-3.5482">
        <ele>14.5</ele>
        <time>2021-07-11T08:22:42Z</time>
      </trkpt>
      <trkpt lat="47.76937" lon="-3.54821">
        <ele>14.4</ele>
        <time>2021-07-11T08:22:41Z</time>
      </trkpt>
      <trkpt lat="47.76936" lon="-3.54821">
        <ele>14.3</ele>
        <time>2021-07-11T08:22:40Z</time>
      </trkpt>
      <trkpt lat="47.76935" lon="-3.54821">
        <ele>14.2</ele>
        <time>2021-07-11T08:22:39Z</time>
      </trkpt>
      <trkpt lat="47.76933" lon="-3.54822">
        <ele>14.1</ele>
        <time>2021-07-11T08:22:38Z</time>
      </trkpt>
      <trkpt lat="47.76932" lon="-3.54822">
        <ele>14</ele>
        <time>2021-07-11T08:22:37Z</time>
      </trkpt>
      <trkpt lat="47.76931" lon="-3.54822">
        <ele>14</ele>
        <time>2021-07-11T08:22:36Z</time>
      </trkpt>
      <trkpt lat="47.76929" lon="-3.54822">
        <ele>13.9</ele>
        <time>2021-07-11T08:22:35Z</time>
      </trkpt>
      <trkpt lat="47.76928" lon="-3.54822">
        <ele>13.8</ele>
        <time>2021-07-11T08:22:34Z</time>
      </trkpt>
      <trkpt lat="47.76927" lon="-3.54822">
        <ele>13.7</ele>
        <time>2021-07-11T08:22:33Z</time>
      </trkpt>
      <trkpt lat="47.76925" lon="-3.54822">
        <ele>13.6</ele>
        <time>2021-07-11T08:22:32Z</time>
      </trkpt>
      <trkpt lat="47.76924" lon="-3.54822">
        <ele>13.5</ele>
        <time>2021-07-11T08:22:31Z</time>
      </trkpt>
      <trkpt lat="47.76922" lon="-3.54822">
        <ele>13.4</ele>
        <time>2021-07-11T08:22:30Z</time>
      </trkpt>
      <trkpt lat="47.76921" lon="-3.54822">
        <ele>13.3</ele>
        <time>2021-07-11T08:22:29Z</time>
      </trkpt>
      <trkpt lat="47.7692" lon="-3.54822">
        <ele>13.3</ele>
        <time>2021-07-11T08:22:28Z</time>
      </trkpt>
      <trkpt lat="47.76918" lon="-3.54822">
        <ele>13.2</ele>
        <time>2021-07-11T08:22:27Z</time>
      </trkpt>
      <trkpt lat="47.76917" lon="-3.54822">
        <ele>13.1</ele>
        <time>2021-07-11T08:22:26Z</time>
      </trkpt>
      <trkpt lat="47.76915" lon="-3.54822">
        <ele>13</ele>
        <time>2021-07-11T08:22:25Z</time>
      </trkpt>
      <trkpt lat="47.76914" lon="-3.54822">
        <ele>12.9</ele>
        <time>2021-07-11T08:22:24Z</time>
      </trkpt>
      <trkpt lat="47.76912" lon="-3.54822">
        <ele>12.9</ele>
        <time>2021-07-11T08:22:23Z</time>
      </trkpt>
      <trkpt lat="47.7691" lon="-3.54822">
        <ele>12.8</ele>
        <time>2021-07-11T08:22:22Z</time>
      </trkpt>
      <trkpt lat="47.76909" lon="-3.54822">
        <ele>12.8</ele>
        <time>2021-07-11T08:22:21Z</time>
      </trkpt>
      <trkpt lat="47.76907" lon="-3.54822">
        <ele>12.7</ele>
        <time>2021-07-11T08:22:20Z</time>
      </trkpt>
      <trkpt lat="47.76906" lon="-3.54822">
        <ele>12.7</ele>
        <time>2021-07-11T08:22:19Z</time>
      </trkpt>
      <trkpt lat="47.76904" lon="-3.54821">
        <ele>12.7</ele>
        <time>2021-07-11T08:22:18Z</time>
      </trkpt>
      <trkpt lat="47.76903" lon="-3.54821">
        <ele>12.6</ele>
        <time>2021-07-11T08:22:17Z</time>
      </trkpt>
      <trkpt lat="47.76901" lon="-3.54821">
        <ele>12.6</ele>
        <time>2021-07-11T08:22:16Z</time>
      </trkpt>
      <trkpt lat="47.769" lon="-3.54821">
        <ele>12.6</ele>
        <time>2021-07-11T08:22:15Z</time>
      </trkpt>
      <trkpt lat="47.76899" lon="-3.54821">
        <ele>12.6</ele>
        <time>2021-07-11T08:22:14Z</time>
      </trkpt>
      <trkpt lat="47.76897" lon="-3.5482">
        <ele>12.6</ele>
        <time>2021-07-11T08:22:13Z</time>
      </trkpt>
      <trkpt lat="47.76896" lon="-3.5482">
        <ele>12.6</ele>
        <time>2021-07-11T08:22:12Z</time>
      </trkpt>
      <trkpt lat="47.76894" lon="-3.5482">
        <ele>12.6</ele>
        <time>2021-07-11T08:22:11Z</time>
      </trkpt>
      <trkpt lat="47.76893" lon="-3.54819">
        <ele>12.6</ele>
        <time>2021-07-11T08:22:10Z</time>
      </trkpt>
      <trkpt lat="47.76891" lon="-3.54819">
        <ele>12.6</ele>
        <time>2021-07-11T08:22:09Z</time>
      </trkpt>
      <trkpt lat="47.7689" lon="-3.54819">
        <ele>12.6</ele>
        <time>2021-07-11T08:22:08Z</time>
      </trkpt>
      <trkpt lat="47.76889" lon="-3.54818">
        <ele>12.7</ele>
        <time>2021-07-11T08:22:07Z</time>
      </trkpt>
      <trkpt lat="47.76887" lon="-3.54818">
        <ele>12.7</ele>
        <time>2021-07-11T08:22:06Z</time>
      </trkpt>
      <trkpt lat="47.76886" lon="-3.54818">
        <ele>12.7</ele>
        <time>2021-07-11T08:22:05Z</time>
      </trkpt>
      <trkpt lat="47.76885" lon="-3.54817">
        <ele>12.7</ele>
        <time>2021-07-11T08:22:04Z</time>
      </trkpt>
      <trkpt lat="47.76883" lon="-3.54817">
        <ele>12.8</ele>
        <time>2021-07-11T08:22:03Z</time>
      </trkpt>
      <trkpt lat="47.76882" lon="-3.54817">
        <ele>12.8</ele>
        <time>2021-07-11T08:22:02Z</time>
      </trkpt>
      <trkpt lat="47.76881" lon="-3.54816">
        <ele>12.8</ele>
        <time>2021-07-11T08:22:01Z</time>
      </trkpt>
      <trkpt lat="47.7688" lon="-3.54816">
        <ele>12.9</ele>
        <time>2021-07-11T08:22:00Z</time>
      </trkpt>
      <trkpt lat="47.76878" lon="-3.54816">
        <ele>12.9</ele>
        <time>2021-07-11T08:21:59Z</time>
      </trkpt>
      <trkpt lat="47.76877" lon="-3.54816">
        <ele>12.9</ele>
        <time>2021-07-11T08:21:58Z</time>
      </trkpt>
      <trkpt lat="47.76876" lon="-3.54815">
        <ele>13</ele>
        <time>2021-07-11T08:21:57Z</time>
      </trkpt>
      <trkpt lat="47.76875" lon="-3.54815">
        <ele>13</ele>
        <time>2021-07-11T08:21:56Z</time>
      </trkpt>
      <trkpt lat="47.76873" lon="-3.54815">
        <ele>13</ele>
        <time>2021-07-11T08:21:55Z</time>
      </trkpt>
      <trkpt lat="47.76872" lon="-3.54815">
        <ele>13.1</ele>
        <time>2021-07-11T08:21:54Z</time>
      </trkpt>
      <trkpt lat="47.76871" lon="-3.54814">
        <ele>13.1</ele>
        <time>2021-07-11T08:21:53Z</time>
      </trkpt>
      <trkpt lat="47.76869" lon="-3.54814">
        <ele>13.1</ele>
        <time>2021-07-11T08:21:52Z</time>
      </trkpt>
      <trkpt lat="47.76868" lon="-3.54814">
        <ele>13.1</ele>
        <time>2021-07-11T08:21:51Z</time>
      </trkpt>
      <trkpt lat="47.76867" lon="-3.54814">
        <ele>13.2</ele>
        <time>2021-07-11T08:21:50Z</time>
      </trkpt>
      <trkpt lat="47.76865" lon="-3.54814">
        <ele>13.2</ele>
        <time>2021-07-11T08:21:49Z</time>
      </trkpt>
      <trkpt lat="47.76864" lon="-3.54814">
        <ele>13.2</ele>
        <time>2021-07-11T08:21:48Z</time>
      </trkpt>
      <trkpt lat="47.76863" lon="-3.54814">
        <ele>13.3</ele>
        <time>2021-07-11T08:21:47Z</time>
      </trkpt>
      <trkpt lat="47.76861" lon="-3.54814">
        <ele>13.3</ele>
        <time>2021-07-11T08:21:46Z</time>
      </trkpt>
      <trkpt lat="47.7686" lon="-3.54813">
        <ele>13.3</ele>
        <time>2021-07-11T08:21:45Z</time>
      </trkpt>
      <trkpt lat="47.76859" lon="-3.54813">
        <ele>13.3</ele>
        <time>2021-07-11T08:21:44Z</time>
      </trkpt>
      <trkpt lat="47.76857" lon="-3.54813">
        <ele>13.4</ele>
        <time>2021-07-11T08:21:43Z</time>
      </trkpt>
      <trkpt lat="47.76856" lon="-3.54813">
        <ele>13.4</ele>
        <time>2021-07-11T08:21:42Z</time>
      </trkpt>
      <trkpt lat="47.76854" lon="-3.54813">
        <ele>13.4</ele>
        <time>2021-07-11T08:21:41Z</time>
      </trkpt>
      <trkpt lat="47.76853" lon="-3.54813">
        <ele>13.5</ele>
        <time>2021-07-11T08:21:40Z</time>
      </trkpt>
      <trkpt lat="47.76851" lon="-3.54813">
        <ele>13.5</ele>
        <time>2021-07-11T08:21:39Z</time>
      </trkpt>
      <trkpt lat="47.7685" lon="-3.54813">
        <ele>13.5</ele>
        <time>2021-07-11T08:21:38Z</time>
      </trkpt>
      <trkpt lat="47.76848" lon="-3.54813">
        <ele>13.6</ele>
        <time>2021-07-11T08:21:37Z</time>
      </trkpt>
      <trkpt lat="47.76847" lon="-3.54813">
        <ele>13.6</ele>
        <time>2021-07-11T08:21:36Z</time>
      </trkpt>
      <trkpt lat="47.76846" lon="-3.54813">
        <ele>13.7</ele>
        <time>2021-07-11T08:21:35Z</time>
      </trkpt>
      <trkpt lat="47.76844" lon="-3.54812">
        <ele>13.7</ele>
        <time>2021-07-11T08:21:34Z</time>
      </trkpt>
      <trkpt lat="47.76843" lon="-3.54812">
        <ele>13.7</ele>
        <time>2021-07-11T08:21:33Z</time>
      </trkpt>
      <trkpt lat="47.76841" lon="-3.54812">
        <ele>13.8</ele>
        <time>2021-07-11T08:21:32Z</time>
      </trkpt>
      <trkpt lat="47.7684" lon="-3.54812">
        <ele>13.8</ele>
        <time>2021-07-11T08:21:31Z</time>
      </trkpt>
      <trkpt lat="47.76839" lon="-3.54812">
        <ele>13.9</ele>
        <time>2021-07-11T08:21:30Z</time>
      </trkpt>
      <trkpt lat="47.76837" lon="-3.54812">
        <ele>13.9</ele>
        <time>2021-07-11T08:21:29Z</time>
      </trkpt>
      <trkpt lat="47.76836" lon="-3.54811">
        <ele>14</ele>
        <time>2021-07-11T08:21:28Z</time>
      </trkpt>
      <trkpt lat="47.76835" lon="-3.54811">
        <ele>14</ele>
        <time>2021-07-11T08:21:27Z</time>
      </trkpt>
      <trkpt lat="47.76833" lon="-3.54811">
        <ele>14.1</ele>
        <time>2021-07-11T08:21:26Z</time>
      </trkpt>
      <trkpt lat="47.76832" lon="-3.54811">
        <ele>14.2</ele>
        <time>2021-07-11T08:21:25Z</time>
      </trkpt>
      <trkpt lat="47.76831" lon="-3.54811">
        <ele>14.2</ele>
        <time>2021-07-11T08:21:24Z</time>
      </trkpt>
      <trkpt lat="47.7683" lon="-3.5481">
        <ele>14.3</ele>
        <time>2021-07-11T08:21:23Z</time>
      </trkpt>
      <trkpt lat="47.76829" lon="-3.5481">
        <ele>14.4</ele>
        <time>2021-07-11T08:21:22Z</time>
      </trkpt>
      <trkpt lat="47.76827" lon="-3.5481">
        <ele>14.4</ele>
        <time>2021-07-11T08:21:21Z</time>
      </trkpt>
      <trkpt lat="47.76826" lon="-3.5481">
        <ele>14.5</ele>
        <time>2021-07-11T08:21:20Z</time>
      </trkpt>
      <trkpt lat="47.76824" lon="-3.5481">
        <ele>14.6</ele>
        <time>2021-07-11T08:21:19Z</time>
      </trkpt>
      <trkpt lat="47.76823" lon="-3.5481">
        <ele>14.7</ele>
        <time>2021-07-11T08:21:18Z</time>
      </trkpt>
      <trkpt lat="47.76822" lon="-3.54811">
        <ele>14.8</ele>
        <time>2021-07-11T08:21:17Z</time>
      </trkpt>
      <trkpt lat="47.76821" lon="-3.54811">
        <ele>14.8</ele>
        <time>2021-07-11T08:21:16Z</time>
      </trkpt>
      <trkpt lat="47.7682" lon="-3.54812">
        <ele>14.9</ele>
        <time>2021-07-11T08:21:15Z</time>
      </trkpt>
      <trkpt lat="47.76819" lon="-3.54813">
        <ele>15</ele>
        <time>2021-07-11T08:21:14Z</time>
      </trkpt>
      <trkpt lat="47.76818" lon="-3.54815">
        <ele>15.1</ele>
        <time>2021-07-11T08:21:13Z</time>
      </trkpt>
      <trkpt lat="47.76818" lon="-3.54816">
        <ele>15.1</ele>
        <time>2021-07-11T08:21:12Z</time>
      </trkpt>
      <trkpt lat="47.76818" lon="-3.54818">
        <ele>15.2</ele>
        <time>2021-07-11T08:21:11Z</time>
      </trkpt>
      <trkpt lat="47.76818" lon="-3.5482">
        <ele>15.8</ele>
        <time>2021-07-11T08:21:10Z</time>
      </trkpt>
      <trkpt lat="47.76818" lon="-3.54823">
        <ele>15.8</ele>
        <time>2021-07-11T08:21:09Z</time>
      </trkpt>
      <trkpt lat="47.76818" lon="-3.54825">
        <ele>15.8</ele>
        <time>2021-07-11T08:21:08Z</time>
      </trkpt>
      <trkpt lat="47.76818" lon="-3.54827">
        <ele>15.7</ele>
        <time>2021-07-11T08:21:07Z</time>
      </trkpt>
      <trkpt lat="47.76818" lon="-3.54829">
        <ele>15.7</ele>
        <time>2021-07-11T08:21:06Z</time>
      </trkpt>
      <trkpt lat="47.76818" lon="-3.54831">
        <ele>15.7</ele>
        <time>2021-07-11T08:21:05Z</time>
      </trkpt>
      <trkpt lat="47.76818" lon="-3.54833">
        <ele>15.7</ele>
        <time>2021-07-11T08:21:04Z</time>
      </trkpt>
      <trkpt lat="47.76817" lon="-3.54835">
        <ele>15.7</ele>
        <time>2021-07-11T08:21:03Z</time>
      </trkpt>
      <trkpt lat="47.76817" lon="-3.54837">
        <ele>15.7</ele>
        <time>2021-07-11T08:21:02Z</time>
      </trkpt>
      <trkpt lat="47.76817" lon="-3.54839">
        <ele>15.7</ele>
        <time>2021-07-11T08:21:01Z</time>
      </trkpt>
      <trkpt lat="47.76816" lon="-3.54841">
        <ele>15.7</ele>
        <time>2021-07-11T08:21:00Z</time>
      </trkpt>
      <trkpt lat="47.76815" lon="-3.54843">
        <ele>15.7</ele>
        <time>2021-07-11T08:20:59Z</time>
      </trkpt>
      <trkpt lat="47.76815" lon="-3.54845">
        <ele>15.7</ele>
        <time>2021-07-11T08:20:58Z</time>
      </trkpt>
      <trkpt lat="47.76814" lon="-3.54847">
        <ele>15.7</ele>
        <time>2021-07-11T08:20:57Z</time>
      </trkpt>
      <trkpt lat="47.76813" lon="-3.54849">
        <ele>15.7</ele>
        <time>2021-07-11T08:20:56Z</time>
      </trkpt>
      <trkpt lat="47.76813" lon="-3.54851">
        <ele>15.7</ele>
        <time>2021-07-11T08:20:55Z</time>
      </trkpt>
      <trkpt lat="47.76812" lon="-3.54854">
        <ele>15.7</ele>
        <time>2021-07-11T08:20:54Z</time>
      </trkpt>
      <trkpt lat="47.76812" lon="-3.54856">
        <ele>15.7</ele>
        <time>2021-07-11T08:20:53Z</time>
      </trkpt>
      <trkpt lat="47.76811" lon="-3.54859">
        <ele>15.7</ele>
        <time>2021-07-11T08:20:52Z</time>
      </trkpt>
      <trkpt lat="47.76811" lon="-3.54861">
        <ele>15.7</ele>
        <time>2021-07-11T08:20:51Z</time>
      </trkpt>
      <trkpt lat="47.7681" lon="-3.54863">
        <ele>15.7</ele>
        <time>2021-07-11T08:20:50Z</time>
      </trkpt>
      <trkpt lat="47.7681" lon="-3.54866">
        <ele>15.7</ele>
        <time>2021-07-11T08:20:49Z</time>
      </trkpt>
      <trkpt lat="47.76809" lon="-3.54868">
        <ele>15.6</ele>
        <time>2021-07-11T08:20:48Z</time>
      </trkpt>
      <trkpt lat="47.76808" lon="-3.5487">
        <ele>15.6</ele>
        <time>2021-07-11T08:20:47Z</time>
      </trkpt>
      <trkpt lat="47.76807" lon="-3.54872">
        <ele>15.6</ele>
        <time>2021-07-11T08:20:46Z</time>
      </trkpt>
      <trkpt lat="47.76806" lon="-3.54874">
        <ele>15.6</ele>
        <time>2021-07-11T08:20:45Z</time>
      </trkpt>
      <trkpt lat="47.76805" lon="-3.54875">
        <ele>15.6</ele>
        <time>2021-07-11T08:20:44Z</time>
      </trkpt>
      <trkpt lat="47.76804" lon="-3.54876">
        <ele>15.6</ele>
        <time>2021-07-11T08:20:43Z</time>
      </trkpt>
      <trkpt lat="47.76803" lon="-3.54876">
        <ele>15.6</ele>
        <time>2021-07-11T08:20:42Z</time>
      </trkpt>
      <trkpt lat="47.76801" lon="-3.54878">
        <ele>15.6</ele>
        <time>2021-07-11T08:20:41Z</time>
      </trkpt>
      <trkpt lat="47.76799" lon="-3.54878">
        <ele>15.7</ele>
        <time>2021-07-11T08:20:40Z</time>
      </trkpt>
      <trkpt lat="47.76797" lon="-3.54879">
        <ele>15.7</ele>
        <time>2021-07-11T08:20:39Z</time>
      </trkpt>
      <trkpt lat="47.76796" lon="-3.54879">
        <ele>15.7</ele>
        <time>2021-07-11T08:20:38Z</time>
      </trkpt>
      <trkpt lat="47.76794" lon="-3.54879">
        <ele>15.7</ele>
        <time>2021-07-11T08:20:37Z</time>
      </trkpt>
      <trkpt lat="47.76792" lon="-3.54879">
        <ele>15.7</ele>
        <time>2021-07-11T08:20:36Z</time>
      </trkpt>
      <trkpt lat="47.76791" lon="-3.54879">
        <ele>15.8</ele>
        <time>2021-07-11T08:20:35Z</time>
      </trkpt>
      <trkpt lat="47.76789" lon="-3.54879">
        <ele>15.8</ele>
        <time>2021-07-11T08:20:34Z</time>
      </trkpt>
      <trkpt lat="47.76788" lon="-3.5488">
        <ele>15.8</ele>
        <time>2021-07-11T08:20:33Z</time>
      </trkpt>
      <trkpt lat="47.76787" lon="-3.5488">
        <ele>15.8</ele>
        <time>2021-07-11T08:20:32Z</time>
      </trkpt>
      <trkpt lat="47.76785" lon="-3.5488">
        <ele>15.8</ele>
        <time>2021-07-11T08:20:31Z</time>
      </trkpt>
      <trkpt lat="47.76784" lon="-3.54879">
        <ele>15.8</ele>
        <time>2021-07-11T08:20:30Z</time>
      </trkpt>
      <trkpt lat="47.76782" lon="-3.54879">
        <ele>15.8</ele>
        <time>2021-07-11T08:20:29Z</time>
      </trkpt>
      <trkpt lat="47.76781" lon="-3.54879">
        <ele>15.8</ele>
        <time>2021-07-11T08:20:28Z</time>
      </trkpt>
      <trkpt lat="47.7678" lon="-3.54879">
        <ele>15.8</ele>
        <time>2021-07-11T08:20:27Z</time>
      </trkpt>
      <trkpt lat="47.76778" lon="-3.54879">
        <ele>15.9</ele>
        <time>2021-07-11T08:20:26Z</time>
      </trkpt>
      <trkpt lat="47.76777" lon="-3.54879">
        <ele>15.9</ele>
        <time>2021-07-11T08:20:25Z</time>
      </trkpt>
      <trkpt lat="47.76775" lon="-3.54879">
        <ele>15.9</ele>
        <time>2021-07-11T08:20:24Z</time>
      </trkpt>
      <trkpt lat="47.76774" lon="-3.54879">
        <ele>15.9</ele>
        <time>2021-07-11T08:20:23Z</time>
      </trkpt>
      <trkpt lat="47.76773" lon="-3.54879">
        <ele>15.9</ele>
        <time>2021-07-11T08:20:22Z</time>
      </trkpt>
      <trkpt lat="47.76771" lon="-3.54879">
        <ele>15.9</ele>
        <time>2021-07-11T08:20:21Z</time>
      </trkpt>
      <trkpt lat="47.7677" lon="-3.54879">
        <ele>15.9</ele>
        <time>2021-07-11T08:20:20Z</time>
      </trkpt>
      <trkpt lat="47.76768" lon="-3.54879">
        <ele>15.9</ele>
        <time>2021-07-11T08:20:19Z</time>
      </trkpt>
      <trkpt lat="47.76767" lon="-3.54879">
        <ele>15.9</ele>
        <time>2021-07-11T08:20:18Z</time>
      </trkpt>
      <trkpt lat="47.76766" lon="-3.54879">
        <ele>15.9</ele>
        <time>2021-07-11T08:20:17Z</time>
      </trkpt>
      <trkpt lat="47.76764" lon="-3.54879">
        <ele>15.9</ele>
        <time>2021-07-11T08:20:16Z</time>
      </trkpt>
      <trkpt lat="47.76763" lon="-3.54879">
        <ele>15.9</ele>
        <time>2021-07-11T08:20:15Z</time>
      </trkpt>
      <trkpt lat="47.76761" lon="-3.54879">
        <ele>15.9</ele>
        <time>2021-07-11T08:20:14Z</time>
      </trkpt>
      <trkpt lat="47.7676" lon="-3.54879">
        <ele>15.9</ele>
        <time>2021-07-11T08:20:13Z</time>
      </trkpt>
      <trkpt lat="47.76758" lon="-3.54878">
        <ele>15.9</ele>
        <time>2021-07-11T08:20:12Z</time>
      </trkpt>
      <trkpt lat="47.76757" lon="-3.54878">
        <ele>15.9</ele>
        <time>2021-07-11T08:20:11Z</time>
      </trkpt>
      <trkpt lat="47.76755" lon="-3.54878">
        <ele>15.9</ele>
        <time>2021-07-11T08:20:10Z</time>
      </trkpt>
      <trkpt lat="47.76754" lon="-3.54878">
        <ele>15.9</ele>
        <time>2021-07-11T08:20:09Z</time>
      </trkpt>
      <trkpt lat="47.76752" lon="-3.54878">
        <ele>15.9</ele>
        <time>2021-07-11T08:20:08Z</time>
      </trkpt>
      <trkpt lat="47.76751" lon="-3.54878">
        <ele>15.9</ele>
        <time>2021-07-11T08:20:07Z</time>
      </trkpt>
      <trkpt lat="47.76749" lon="-3.54878">
        <ele>15.9</ele>
        <time>2021-07-11T08:20:06Z</time>
      </trkpt>
      <trkpt lat="47.76748" lon="-3.54877">
        <ele>15.9</ele>
        <time>2021-07-11T08:20:05Z</time>
      </trkpt>
      <trkpt lat="47.76746" lon="-3.54877">
        <ele>15.9</ele>
        <time>2021-07-11T08:20:04Z</time>
      </trkpt>
      <trkpt lat="47.76745" lon="-3.54877">
        <ele>15.9</ele>
        <time>2021-07-11T08:20:03Z</time>
      </trkpt>
      <trkpt lat="47.76743" lon="-3.54877">
        <ele>15.9</ele>
        <time>2021-07-11T08:20:02Z</time>
      </trkpt>
      <trkpt lat="47.76742" lon="-3.54876">
        <ele>15.9</ele>
        <time>2021-07-11T08:20:01Z</time>
      </trkpt>
      <trkpt lat="47.7674" lon="-3.54876">
        <ele>15.9</ele>
        <time>2021-07-11T08:20:00Z</time>
      </trkpt>
      <trkpt lat="47.76739" lon="-3.54876">
        <ele>15.9</ele>
        <time>2021-07-11T08:19:59Z</time>
      </trkpt>
      <trkpt lat="47.76737" lon="-3.54876">
        <ele>15.8</ele>
        <time>2021-07-11T08:19:58Z</time>
      </trkpt>
      <trkpt lat="47.76736" lon="-3.54875">
        <ele>15.8</ele>
        <time>2021-07-11T08:19:57Z</time>
      </trkpt>
      <trkpt lat="47.76734" lon="-3.54875">
        <ele>15.8</ele>
        <time>2021-07-11T08:19:56Z</time>
      </trkpt>
      <trkpt lat="47.76733" lon="-3.54874">
        <ele>15.8</ele>
        <time>2021-07-11T08:19:55Z</time>
      </trkpt>
      <trkpt lat="47.76731" lon="-3.54874">
        <ele>15.8</ele>
        <time>2021-07-11T08:19:54Z</time>
      </trkpt>
      <trkpt lat="47.7673" lon="-3.54874">
        <ele>15.8</ele>
        <time>2021-07-11T08:19:53Z</time>
      </trkpt>
      <trkpt lat="47.76728" lon="-3.54873">
        <ele>15.8</ele>
        <time>2021-07-11T08:19:52Z</time>
      </trkpt>
      <trkpt lat="47.76727" lon="-3.54873">
        <ele>15.8</ele>
        <time>2021-07-11T08:19:51Z</time>
      </trkpt>
      <trkpt lat="47.76725" lon="-3.54873">
        <ele>15.8</ele>
        <time>2021-07-11T08:19:50Z</time>
      </trkpt>
      <trkpt lat="47.76724" lon="-3.54873">
        <ele>15.8</ele>
        <time>2021-07-11T08:19:49Z</time>
      </trkpt>
      <trkpt lat="47.76722" lon="-3.54872">
        <ele>15.8</ele>
        <time>2021-07-11T08:19:48Z</time>
      </trkpt>
      <trkpt lat="47.7672" lon="-3.54872">
        <ele>15.7</ele>
        <time>2021-07-11T08:19:47Z</time>
      </trkpt>
      <trkpt lat="47.76719" lon="-3.54872">
        <ele>15.7</ele>
        <time>2021-07-11T08:19:46Z</time>
      </trkpt>
      <trkpt lat="47.76717" lon="-3.54872">
        <ele>15.7</ele>
        <time>2021-07-11T08:19:45Z</time>
      </trkpt>
      <trkpt lat="47.76716" lon="-3.54872">
        <ele>15.7</ele>
        <time>2021-07-11T08:19:44Z</time>
      </trkpt>
      <trkpt lat="47.76714" lon="-3.54872">
        <ele>15.7</ele>
        <time>2021-07-11T08:19:43Z</time>
      </trkpt>
      <trkpt lat="47.76713" lon="-3.54872">
        <ele>15.7</ele>
        <time>2021-07-11T08:19:42Z</time>
      </trkpt>
      <trkpt lat="47.76711" lon="-3.54873">
        <ele>15.7</ele>
        <time>2021-07-11T08:19:41Z</time>
      </trkpt>
      <trkpt lat="47.7671" lon="-3.54873">
        <ele>15.7</ele>
        <time>2021-07-11T08:19:40Z</time>
      </trkpt>
      <trkpt lat="47.76708" lon="-3.54873">
        <ele>15.6</ele>
        <time>2021-07-11T08:19:39Z</time>
      </trkpt>
      <trkpt lat="47.76706" lon="-3.54873">
        <ele>15.6</ele>
        <time>2021-07-11T08:19:38Z</time>
      </trkpt>
      <trkpt lat="47.76705" lon="-3.54873">
        <ele>15.6</ele>
        <time>2021-07-11T08:19:37Z</time>
      </trkpt>
      <trkpt lat="47.76703" lon="-3.54873">
        <ele>15.6</ele>
        <time>2021-07-11T08:19:36Z</time>
      </trkpt>
      <trkpt lat="47.76702" lon="-3.54874">
        <ele>15.6</ele>
        <time>2021-07-11T08:19:35Z</time>
      </trkpt>
      <trkpt lat="47.767" lon="-3.54874">
        <ele>15.5</ele>
        <time>2021-07-11T08:19:34Z</time>
      </trkpt>
      <trkpt lat="47.76699" lon="-3.54874">
        <ele>15.5</ele>
        <time>2021-07-11T08:19:33Z</time>
      </trkpt>
      <trkpt lat="47.76698" lon="-3.54873">
        <ele>15.5</ele>
        <time>2021-07-11T08:19:32Z</time>
      </trkpt>
      <trkpt lat="47.76696" lon="-3.54873">
        <ele>15.5</ele>
        <time>2021-07-11T08:19:31Z</time>
      </trkpt>
      <trkpt lat="47.76695" lon="-3.54873">
        <ele>15.5</ele>
        <time>2021-07-11T08:19:30Z</time>
      </trkpt>
      <trkpt lat="47.76693" lon="-3.54873">
        <ele>15.4</ele>
        <time>2021-07-11T08:19:29Z</time>
      </trkpt>
      <trkpt lat="47.76692" lon="-3.54873">
        <ele>15.4</ele>
        <time>2021-07-11T08:19:28Z</time>
      </trkpt>
      <trkpt lat="47.76691" lon="-3.54873">
        <ele>15.4</ele>
        <time>2021-07-11T08:19:27Z</time>
      </trkpt>
      <trkpt lat="47.76689" lon="-3.54872">
        <ele>15.4</ele>
        <time>2021-07-11T08:19:26Z</time>
      </trkpt>
      <trkpt lat="47.76688" lon="-3.54872">
        <ele>15.4</ele>
        <time>2021-07-11T08:19:25Z</time>
      </trkpt>
      <trkpt lat="47.76686" lon="-3.54872">
        <ele>15.4</ele>
        <time>2021-07-11T08:19:24Z</time>
      </trkpt>
      <trkpt lat="47.76685" lon="-3.54872">
        <ele>15.3</ele>
        <time>2021-07-11T08:19:23Z</time>
      </trkpt>
      <trkpt lat="47.76683" lon="-3.54873">
        <ele>15.3</ele>
        <time>2021-07-11T08:19:22Z</time>
      </trkpt>
      <trkpt lat="47.76682" lon="-3.54873">
        <ele>15.3</ele>
        <time>2021-07-11T08:19:21Z</time>
      </trkpt>
      <trkpt lat="47.76681" lon="-3.54872">
        <ele>15.3</ele>
        <time>2021-07-11T08:19:20Z</time>
      </trkpt>
      <trkpt lat="47.76679" lon="-3.54872">
        <ele>15.3</ele>
        <time>2021-07-11T08:19:19Z</time>
      </trkpt>
      <trkpt lat="47.76678" lon="-3.54872">
        <ele>15.3</ele>
        <time>2021-07-11T08:19:18Z</time>
      </trkpt>
      <trkpt lat="47.76677" lon="-3.54872">
        <ele>15.3</ele>
        <time>2021-07-11T08:19:17Z</time>
      </trkpt>
      <trkpt lat="47.76673" lon="-3.54872">
        <ele>15.3</ele>
        <time>2021-07-11T08:19:16Z</time>
      </trkpt>
      <trkpt lat="47.76672" lon="-3.54871">
        <ele>15.3</ele>
        <time>2021-07-11T08:19:15Z</time>
      </trkpt>
      <trkpt lat="47.7667" lon="-3.5487">
        <ele>15.3</ele>
        <time>2021-07-11T08:19:14Z</time>
      </trkpt>
      <trkpt lat="47.76669" lon="-3.54869">
        <ele>15.2</ele>
        <time>2021-07-11T08:19:13Z</time>
      </trkpt>
      <trkpt lat="47.76667" lon="-3.54868">
        <ele>15.2</ele>
        <time>2021-07-11T08:19:12Z</time>
      </trkpt>
      <trkpt lat="47.76666" lon="-3.54867">
        <ele>15.2</ele>
        <time>2021-07-11T08:19:11Z</time>
      </trkpt>
      <trkpt lat="47.76665" lon="-3.54865">
        <ele>15.2</ele>
        <time>2021-07-11T08:19:10Z</time>
      </trkpt>
      <trkpt lat="47.76664" lon="-3.54863">
        <ele>15.1</ele>
        <time>2021-07-11T08:19:09Z</time>
      </trkpt>
      <trkpt lat="47.76663" lon="-3.54861">
        <ele>15.1</ele>
        <time>2021-07-11T08:19:08Z</time>
      </trkpt>
      <trkpt lat="47.76663" lon="-3.54859">
        <ele>15.1</ele>
        <time>2021-07-11T08:19:07Z</time>
      </trkpt>
      <trkpt lat="47.76662" lon="-3.54856">
        <ele>15.1</ele>
        <time>2021-07-11T08:19:06Z</time>
      </trkpt>
      <trkpt lat="47.76662" lon="-3.54853">
        <ele>15.1</ele>
        <time>2021-07-11T08:19:05Z</time>
      </trkpt>
      <trkpt lat="47.76662" lon="-3.54851">
        <ele>15.1</ele>
        <time>2021-07-11T08:19:04Z</time>
      </trkpt>
      <trkpt lat="47.76662" lon="-3.54849">
        <ele>15.1</ele>
        <time>2021-07-11T08:19:03Z</time>
      </trkpt>
      <trkpt lat="47.76662" lon="-3.54848">
        <ele>15.1</ele>
        <time>2021-07-11T08:19:02Z</time>
      </trkpt>
      <trkpt lat="47.76662" lon="-3.54847">
        <ele>15.1</ele>
        <time>2021-07-11T08:19:01Z</time>
      </trkpt>
      <trkpt lat="47.76662" lon="-3.54847">
        <ele>15.1</ele>
        <time>2021-07-11T08:19:00Z</time>
      </trkpt>
      <trkpt lat="47.76662" lon="-3.54847">
        <ele>15.1</ele>
        <time>2021-07-11T08:18:59Z</time>
      </trkpt>
      <trkpt lat="47.76661" lon="-3.54846">
        <ele>15.1</ele>
        <time>2021-07-11T08:18:58Z</time>
      </trkpt>
      <trkpt lat="47.76661" lon="-3.54844">
        <ele>15.1</ele>
        <time>2021-07-11T08:18:57Z</time>
      </trkpt>
      <trkpt lat="47.76661" lon="-3.54842">
        <ele>15.1</ele>
        <time>2021-07-11T08:18:56Z</time>
      </trkpt>
      <trkpt lat="47.76661" lon="-3.5484">
        <ele>15.1</ele>
        <time>2021-07-11T08:18:55Z</time>
      </trkpt>
      <trkpt lat="47.76661" lon="-3.54837">
        <ele>15.1</ele>
        <time>2021-07-11T08:18:54Z</time>
      </trkpt>
      <trkpt lat="47.76661" lon="-3.54835">
        <ele>15.1</ele>
        <time>2021-07-11T08:18:53Z</time>
      </trkpt>
      <trkpt lat="47.76661" lon="-3.54833">
        <ele>15.1</ele>
        <time>2021-07-11T08:18:52Z</time>
      </trkpt>
      <trkpt lat="47.7666" lon="-3.54831">
        <ele>15.1</ele>
        <time>2021-07-11T08:18:51Z</time>
      </trkpt>
      <trkpt lat="47.7666" lon="-3.54829">
        <ele>15.1</ele>
        <time>2021-07-11T08:18:50Z</time>
      </trkpt>
      <trkpt lat="47.7666" lon="-3.54827">
        <ele>15.1</ele>
        <time>2021-07-11T08:18:49Z</time>
      </trkpt>
      <trkpt lat="47.7666" lon="-3.54825">
        <ele>15.1</ele>
        <time>2021-07-11T08:18:48Z</time>
      </trkpt>
      <trkpt lat="47.7666" lon="-3.54823">
        <ele>15.1</ele>
        <time>2021-07-11T08:18:47Z</time>
      </trkpt>
      <trkpt lat="47.7666" lon="-3.54821">
        <ele>15.1</ele>
        <time>2021-07-11T08:18:46Z</time>
      </trkpt>
      <trkpt lat="47.7666" lon="-3.54819">
        <ele>15.1</ele>
        <time>2021-07-11T08:18:45Z</time>
      </trkpt>
      <trkpt lat="47.76659" lon="-3.54817">
        <ele>15.1</ele>
        <time>2021-07-11T08:18:44Z</time>
      </trkpt>
      <trkpt lat="47.76659" lon="-3.54815">
        <ele>15.1</ele>
        <time>2021-07-11T08:18:43Z</time>
      </trkpt>
      <trkpt lat="47.76659" lon="-3.54813">
        <ele>15.2</ele>
        <time>2021-07-11T08:18:42Z</time>
      </trkpt>
      <trkpt lat="47.76659" lon="-3.54811">
        <ele>15.2</ele>
        <time>2021-07-11T08:18:41Z</time>
      </trkpt>
      <trkpt lat="47.76659" lon="-3.54809">
        <ele>15.2</ele>
        <time>2021-07-11T08:18:40Z</time>
      </trkpt>
      <trkpt lat="47.76659" lon="-3.54807">
        <ele>15.2</ele>
        <time>2021-07-11T08:18:39Z</time>
      </trkpt>
      <trkpt lat="47.76658" lon="-3.54804">
        <ele>15.2</ele>
        <time>2021-07-11T08:18:38Z</time>
      </trkpt>
      <trkpt lat="47.76658" lon="-3.54802">
        <ele>15.2</ele>
        <time>2021-07-11T08:18:37Z</time>
      </trkpt>
      <trkpt lat="47.76658" lon="-3.54799">
        <ele>15.2</ele>
        <time>2021-07-11T08:18:36Z</time>
      </trkpt>
      <trkpt lat="47.76658" lon="-3.54797">
        <ele>15.3</ele>
        <time>2021-07-11T08:18:35Z</time>
      </trkpt>
      <trkpt lat="47.76657" lon="-3.54794">
        <ele>15.3</ele>
        <time>2021-07-11T08:18:34Z</time>
      </trkpt>
      <trkpt lat="47.76657" lon="-3.54792">
        <ele>15.3</ele>
        <time>2021-07-11T08:18:33Z</time>
      </trkpt>
      <trkpt lat="47.76657" lon="-3.54789">
        <ele>15.3</ele>
        <time>2021-07-11T08:18:32Z</time>
      </trkpt>
      <trkpt lat="47.76656" lon="-3.54786">
        <ele>15.3</ele>
        <time>2021-07-11T08:18:31Z</time>
      </trkpt>
      <trkpt lat="47.76656" lon="-3.54784">
        <ele>15.3</ele>
        <time>2021-07-11T08:18:30Z</time>
      </trkpt>
      <trkpt lat="47.76656" lon="-3.54781">
        <ele>15.4</ele>
        <time>2021-07-11T08:18:29Z</time>
      </trkpt>
      <trkpt lat="47.76655" lon="-3.54779">
        <ele>15.4</ele>
        <time>2021-07-11T08:18:28Z</time>
      </trkpt>
      <trkpt lat="47.76655" lon="-3.54776">
        <ele>15.4</ele>
        <time>2021-07-11T08:18:27Z</time>
      </trkpt>
      <trkpt lat="47.76654" lon="-3.54773">
        <ele>15.4</ele>
        <time>2021-07-11T08:18:26Z</time>
      </trkpt>
      <trkpt lat="47.76654" lon="-3.54771">
        <ele>15.5</ele>
        <time>2021-07-11T08:18:25Z</time>
      </trkpt>
      <trkpt lat="47.76653" lon="-3.54768">
        <ele>15.5</ele>
        <time>2021-07-11T08:18:24Z</time>
      </trkpt>
      <trkpt lat="47.76653" lon="-3.54766">
        <ele>15.5</ele>
        <time>2021-07-11T08:18:23Z</time>
      </trkpt>
      <trkpt lat="47.76653" lon="-3.54764">
        <ele>15.5</ele>
        <time>2021-07-11T08:18:22Z</time>
      </trkpt>
      <trkpt lat="47.76654" lon="-3.54762">
        <ele>15.6</ele>
        <time>2021-07-11T08:18:21Z</time>
      </trkpt>
      <trkpt lat="47.76654" lon="-3.54761">
        <ele>15.6</ele>
        <time>2021-07-11T08:18:20Z</time>
      </trkpt>
      <trkpt lat="47.76654" lon="-3.54759">
        <ele>15.6</ele>
        <time>2021-07-11T08:18:19Z</time>
      </trkpt>
      <trkpt lat="47.76655" lon="-3.54758">
        <ele>15.6</ele>
        <time>2021-07-11T08:18:18Z</time>
      </trkpt>
      <trkpt lat="47.76655" lon="-3.54756">
        <ele>15.7</ele>
        <time>2021-07-11T08:18:17Z</time>
      </trkpt>
      <trkpt lat="47.76655" lon="-3.54754">
        <ele>15.7</ele>
        <time>2021-07-11T08:18:16Z</time>
      </trkpt>
      <trkpt lat="47.76656" lon="-3.54753">
        <ele>15.7</ele>
        <time>2021-07-11T08:18:15Z</time>
      </trkpt>
      <trkpt lat="47.76656" lon="-3.54751">
        <ele>15.7</ele>
        <time>2021-07-11T08:18:14Z</time>
      </trkpt>
      <trkpt lat="47.76656" lon="-3.54749">
        <ele>15.7</ele>
        <time>2021-07-11T08:18:13Z</time>
      </trkpt>
      <trkpt lat="47.76657" lon="-3.54748">
        <ele>15.8</ele>
        <time>2021-07-11T08:18:12Z</time>
      </trkpt>
      <trkpt lat="47.76657" lon="-3.54746">
        <ele>15.8</ele>
        <time>2021-07-11T08:18:11Z</time>
      </trkpt>
      <trkpt lat="47.76657" lon="-3.54745">
        <ele>15.9</ele>
        <time>2021-07-11T08:18:10Z</time>
      </trkpt>
      <trkpt lat="47.76658" lon="-3.54743">
        <ele>15.9</ele>
        <time>2021-07-11T08:18:09Z</time>
      </trkpt>
      <trkpt lat="47.76658" lon="-3.54741">
        <ele>15.9</ele>
        <time>2021-07-11T08:18:08Z</time>
      </trkpt>
      <trkpt lat="47.76658" lon="-3.5474">
        <ele>16</ele>
        <time>2021-07-11T08:18:07Z</time>
      </trkpt>
      <trkpt lat="47.76659" lon="-3.54738">
        <ele>16</ele>
        <time>2021-07-11T08:18:06Z</time>
      </trkpt>
      <trkpt lat="47.76659" lon="-3.54736">
        <ele>16</ele>
        <time>2021-07-11T08:18:05Z</time>
      </trkpt>
      <trkpt lat="47.76659" lon="-3.54735">
        <ele>16.1</ele>
        <time>2021-07-11T08:18:04Z</time>
      </trkpt>
      <trkpt lat="47.7666" lon="-3.54733">
        <ele>16.1</ele>
        <time>2021-07-11T08:18:03Z</time>
      </trkpt>
      <trkpt lat="47.7666" lon="-3.54731">
        <ele>16.1</ele>
        <time>2021-07-11T08:18:02Z</time>
      </trkpt>
      <trkpt lat="47.7666" lon="-3.5473">
        <ele>16.2</ele>
        <time>2021-07-11T08:18:01Z</time>
      </trkpt>
      <trkpt lat="47.76661" lon="-3.54728">
        <ele>16.2</ele>
        <time>2021-07-11T08:18:00Z</time>
      </trkpt>
      <trkpt lat="47.76661" lon="-3.54727">
        <ele>16.2</ele>
        <time>2021-07-11T08:17:59Z</time>
      </trkpt>
      <trkpt lat="47.76661" lon="-3.54725">
        <ele>16.3</ele>
        <time>2021-07-11T08:17:58Z</time>
      </trkpt>
      <trkpt lat="47.76662" lon="-3.54723">
        <ele>16.3</ele>
        <time>2021-07-11T08:17:57Z</time>
      </trkpt>
      <trkpt lat="47.76662" lon="-3.54722">
        <ele>16.3</ele>
        <time>2021-07-11T08:17:56Z</time>
      </trkpt>
      <trkpt lat="47.76662" lon="-3.5472">
        <ele>16.4</ele>
        <time>2021-07-11T08:17:55Z</time>
      </trkpt>
      <trkpt lat="47.76663" lon="-3.54718">
        <ele>16.4</ele>
        <time>2021-07-11T08:17:54Z</time>
      </trkpt>
      <trkpt lat="47.76663" lon="-3.54717">
        <ele>16.4</ele>
        <time>2021-07-11T08:17:53Z</time>
      </trkpt>
      <trkpt lat="47.76663" lon="-3.54715">
        <ele>16.5</ele>
        <time>2021-07-11T08:17:52Z</time>
      </trkpt>
      <trkpt lat="47.76664" lon="-3.54714">
        <ele>16.5</ele>
        <time>2021-07-11T08:17:51Z</time>
      </trkpt>
      <trkpt lat="47.76664" lon="-3.54712">
        <ele>16.6</ele>
        <time>2021-07-11T08:17:50Z</time>
      </trkpt>
      <trkpt lat="47.76664" lon="-3.5471">
        <ele>16.6</ele>
        <time>2021-07-11T08:17:49Z</time>
      </trkpt>
      <trkpt lat="47.76665" lon="-3.54709">
        <ele>16.6</ele>
        <time>2021-07-11T08:17:48Z</time>
      </trkpt>
      <trkpt lat="47.76665" lon="-3.54707">
        <ele>16.7</ele>
        <time>2021-07-11T08:17:47Z</time>
      </trkpt>
      <trkpt lat="47.76666" lon="-3.54704">
        <ele>16.8</ele>
        <time>2021-07-11T08:17:46Z</time>
      </trkpt>
      <trkpt lat="47.76667" lon="-3.54702">
        <ele>16.8</ele>
        <time>2021-07-11T08:17:45Z</time>
      </trkpt>
      <trkpt lat="47.76668" lon="-3.547">
        <ele>16.8</ele>
        <time>2021-07-11T08:17:44Z</time>
      </trkpt>
      <trkpt lat="47.76669" lon="-3.54699">
        <ele>16.9</ele>
        <time>2021-07-11T08:17:43Z</time>
      </trkpt>
      <trkpt lat="47.7667" lon="-3.54697">
        <ele>16.9</ele>
        <time>2021-07-11T08:17:42Z</time>
      </trkpt>
      <trkpt lat="47.7667" lon="-3.54695">
        <ele>16.9</ele>
        <time>2021-07-11T08:17:41Z</time>
      </trkpt>
      <trkpt lat="47.76671" lon="-3.54694">
        <ele>17</ele>
        <time>2021-07-11T08:17:40Z</time>
      </trkpt>
      <trkpt lat="47.76671" lon="-3.54692">
        <ele>17</ele>
        <time>2021-07-11T08:17:39Z</time>
      </trkpt>
      <trkpt lat="47.76671" lon="-3.54691">
        <ele>17.1</ele>
        <time>2021-07-11T08:17:38Z</time>
      </trkpt>
      <trkpt lat="47.76671" lon="-3.54689">
        <ele>17.1</ele>
        <time>2021-07-11T08:17:37Z</time>
      </trkpt>
      <trkpt lat="47.7667" lon="-3.54687">
        <ele>17.1</ele>
        <time>2021-07-11T08:17:36Z</time>
      </trkpt>
      <trkpt lat="47.7667" lon="-3.54686">
        <ele>17.2</ele>
        <time>2021-07-11T08:17:35Z</time>
      </trkpt>
      <trkpt lat="47.76669" lon="-3.54684">
        <ele>17.2</ele>
        <time>2021-07-11T08:17:34Z</time>
      </trkpt>
      <trkpt lat="47.76669" lon="-3.54681">
        <ele>17.2</ele>
        <time>2021-07-11T08:17:33Z</time>
      </trkpt>
      <trkpt lat="47.76668" lon="-3.54679">
        <ele>17.3</ele>
        <time>2021-07-11T08:17:32Z</time>
      </trkpt>
      <trkpt lat="47.76668" lon="-3.54676">
        <ele>17.3</ele>
        <time>2021-07-11T08:17:31Z</time>
      </trkpt>
      <trkpt lat="47.76667" lon="-3.54674">
        <ele>17.4</ele>
        <time>2021-07-11T08:17:30Z</time>
      </trkpt>
      <trkpt lat="47.76667" lon="-3.54671">
        <ele>17.4</ele>
        <time>2021-07-11T08:17:29Z</time>
      </trkpt>
      <trkpt lat="47.76666" lon="-3.54668">
        <ele>17.5</ele>
        <time>2021-07-11T08:17:28Z</time>
      </trkpt>
      <trkpt lat="47.76666" lon="-3.54666">
        <ele>17.5</ele>
        <time>2021-07-11T08:17:27Z</time>
      </trkpt>
      <trkpt lat="47.76665" lon="-3.54665">
        <ele>17.5</ele>
        <time>2021-07-11T08:17:26Z</time>
      </trkpt>
      <trkpt lat="47.76665" lon="-3.54663">
        <ele>17.5</ele>
        <time>2021-07-11T08:17:25Z</time>
      </trkpt>
      <trkpt lat="47.76664" lon="-3.54662">
        <ele>17.6</ele>
        <time>2021-07-11T08:17:24Z</time>
      </trkpt>
      <trkpt lat="47.76663" lon="-3.54661">
        <ele>17.6</ele>
        <time>2021-07-11T08:17:23Z</time>
      </trkpt>
      <trkpt lat="47.76662" lon="-3.5466">
        <ele>17.6</ele>
        <time>2021-07-11T08:17:22Z</time>
      </trkpt>
      <trkpt lat="47.76661" lon="-3.54659">
        <ele>17.6</ele>
        <time>2021-07-11T08:17:21Z</time>
      </trkpt>
      <trkpt lat="47.76661" lon="-3.54657">
        <ele>17.6</ele>
        <time>2021-07-11T08:17:20Z</time>
      </trkpt>
      <trkpt lat="47.7666" lon="-3.54656">
        <ele>17.6</ele>
        <time>2021-07-11T08:17:19Z</time>
      </trkpt>
      <trkpt lat="47.76659" lon="-3.54654">
        <ele>17.7</ele>
        <time>2021-07-11T08:17:18Z</time>
      </trkpt>
      <trkpt lat="47.76658" lon="-3.54653">
        <ele>17.7</ele>
        <time>2021-07-11T08:17:17Z</time>
      </trkpt>
      <trkpt lat="47.76657" lon="-3.54651">
        <ele>17.7</ele>
        <time>2021-07-11T08:17:16Z</time>
      </trkpt>
      <trkpt lat="47.76656" lon="-3.54649">
        <ele>17.7</ele>
        <time>2021-07-11T08:17:15Z</time>
      </trkpt>
      <trkpt lat="47.76655" lon="-3.54647">
        <ele>17.7</ele>
        <time>2021-07-11T08:17:14Z</time>
      </trkpt>
      <trkpt lat="47.76655" lon="-3.54645">
        <ele>17.7</ele>
        <time>2021-07-11T08:17:13Z</time>
      </trkpt>
      <trkpt lat="47.76654" lon="-3.54643">
        <ele>17.7</ele>
        <time>2021-07-11T08:17:12Z</time>
      </trkpt>
      <trkpt lat="47.76653" lon="-3.54641">
        <ele>17.7</ele>
        <time>2021-07-11T08:17:11Z</time>
      </trkpt>
      <trkpt lat="47.76652" lon="-3.54639">
        <ele>17.8</ele>
        <time>2021-07-11T08:17:10Z</time>
      </trkpt>
      <trkpt lat="47.76652" lon="-3.54637">
        <ele>17.8</ele>
        <time>2021-07-11T08:17:09Z</time>
      </trkpt>
      <trkpt lat="47.76651" lon="-3.54635">
        <ele>17.8</ele>
        <time>2021-07-11T08:17:08Z</time>
      </trkpt>
      <trkpt lat="47.7665" lon="-3.54633">
        <ele>17.8</ele>
        <time>2021-07-11T08:17:07Z</time>
      </trkpt>
      <trkpt lat="47.7665" lon="-3.54631">
        <ele>17.8</ele>
        <time>2021-07-11T08:17:06Z</time>
      </trkpt>
      <trkpt lat="47.76649" lon="-3.5463">
        <ele>17.8</ele>
        <time>2021-07-11T08:17:05Z</time>
      </trkpt>
      <trkpt lat="47.76648" lon="-3.54628">
        <ele>17.7</ele>
        <time>2021-07-11T08:17:04Z</time>
      </trkpt>
      <trkpt lat="47.76648" lon="-3.54626">
        <ele>17.7</ele>
        <time>2021-07-11T08:17:03Z</time>
      </trkpt>
      <trkpt lat="47.76647" lon="-3.54624">
        <ele>17.7</ele>
        <time>2021-07-11T08:17:02Z</time>
      </trkpt>
      <trkpt lat="47.76646" lon="-3.54622">
        <ele>17.7</ele>
        <time>2021-07-11T08:17:01Z</time>
      </trkpt>
      <trkpt lat="47.76646" lon="-3.5462">
        <ele>17.7</ele>
        <time>2021-07-11T08:17:00Z</time>
      </trkpt>
      <trkpt lat="47.76645" lon="-3.54619">
        <ele>17.7</ele>
        <time>2021-07-11T08:16:59Z</time>
      </trkpt>
      <trkpt lat="47.76644" lon="-3.54617">
        <ele>17.7</ele>
        <time>2021-07-11T08:16:58Z</time>
      </trkpt>
      <trkpt lat="47.76643" lon="-3.54615">
        <ele>17.7</ele>
        <time>2021-07-11T08:16:57Z</time>
      </trkpt>
      <trkpt lat="47.76643" lon="-3.54614">
        <ele>17.7</ele>
        <time>2021-07-11T08:16:56Z</time>
      </trkpt>
      <trkpt lat="47.76642" lon="-3.54612">
        <ele>17.7</ele>
        <time>2021-07-11T08:16:55Z</time>
      </trkpt>
      <trkpt lat="47.76641" lon="-3.5461">
        <ele>17.7</ele>
        <time>2021-07-11T08:16:54Z</time>
      </trkpt>
      <trkpt lat="47.7664" lon="-3.54609">
        <ele>17.7</ele>
        <time>2021-07-11T08:16:53Z</time>
      </trkpt>
      <trkpt lat="47.76639" lon="-3.54607">
        <ele>17.6</ele>
        <time>2021-07-11T08:16:52Z</time>
      </trkpt>
      <trkpt lat="47.76639" lon="-3.54605">
        <ele>17.6</ele>
        <time>2021-07-11T08:16:51Z</time>
      </trkpt>
      <trkpt lat="47.76638" lon="-3.54604">
        <ele>17.6</ele>
        <time>2021-07-11T08:16:50Z</time>
      </trkpt>
      <trkpt lat="47.76637" lon="-3.54602">
        <ele>17.6</ele>
        <time>2021-07-11T08:16:49Z</time>
      </trkpt>
      <trkpt lat="47.76636" lon="-3.546">
        <ele>17.6</ele>
        <time>2021-07-11T08:16:48Z</time>
      </trkpt>
      <trkpt lat="47.76636" lon="-3.54598">
        <ele>17.6</ele>
        <time>2021-07-11T08:16:47Z</time>
      </trkpt>
      <trkpt lat="47.76635" lon="-3.54596">
        <ele>17.6</ele>
        <time>2021-07-11T08:16:46Z</time>
      </trkpt>
      <trkpt lat="47.76634" lon="-3.54594">
        <ele>17.6</ele>
        <time>2021-07-11T08:16:45Z</time>
      </trkpt>
      <trkpt lat="47.76633" lon="-3.54592">
        <ele>17.6</ele>
        <time>2021-07-11T08:16:44Z</time>
      </trkpt>
      <trkpt lat="47.76633" lon="-3.5459">
        <ele>17.5</ele>
        <time>2021-07-11T08:16:43Z</time>
      </trkpt>
      <trkpt lat="47.76632" lon="-3.54588">
        <ele>17.5</ele>
        <time>2021-07-11T08:16:42Z</time>
      </trkpt>
      <trkpt lat="47.76631" lon="-3.54586">
        <ele>17.5</ele>
        <time>2021-07-11T08:16:41Z</time>
      </trkpt>
      <trkpt lat="47.7663" lon="-3.54584">
        <ele>17.5</ele>
        <time>2021-07-11T08:16:40Z</time>
      </trkpt>
      <trkpt lat="47.7663" lon="-3.54582">
        <ele>17.5</ele>
        <time>2021-07-11T08:16:39Z</time>
      </trkpt>
      <trkpt lat="47.76629" lon="-3.5458">
        <ele>17.5</ele>
        <time>2021-07-11T08:16:38Z</time>
      </trkpt>
      <trkpt lat="47.76628" lon="-3.54578">
        <ele>17.5</ele>
        <time>2021-07-11T08:16:37Z</time>
      </trkpt>
      <trkpt lat="47.76628" lon="-3.54576">
        <ele>17.4</ele>
        <time>2021-07-11T08:16:36Z</time>
      </trkpt>
      <trkpt lat="47.76627" lon="-3.54574">
        <ele>17.4</ele>
        <time>2021-07-11T08:16:35Z</time>
      </trkpt>
      <trkpt lat="47.76626" lon="-3.54572">
        <ele>17.4</ele>
        <time>2021-07-11T08:16:34Z</time>
      </trkpt>
      <trkpt lat="47.76626" lon="-3.54569">
        <ele>17.4</ele>
        <time>2021-07-11T08:16:33Z</time>
      </trkpt>
      <trkpt lat="47.76625" lon="-3.54567">
        <ele>17.4</ele>
        <time>2021-07-11T08:16:32Z</time>
      </trkpt>
      <trkpt lat="47.76625" lon="-3.54565">
        <ele>17.3</ele>
        <time>2021-07-11T08:16:31Z</time>
      </trkpt>
      <trkpt lat="47.76624" lon="-3.54563">
        <ele>17.3</ele>
        <time>2021-07-11T08:16:30Z</time>
      </trkpt>
      <trkpt lat="47.76623" lon="-3.54561">
        <ele>17.3</ele>
        <time>2021-07-11T08:16:29Z</time>
      </trkpt>
      <trkpt lat="47.76623" lon="-3.54558">
        <ele>17.2</ele>
        <time>2021-07-11T08:16:28Z</time>
      </trkpt>
      <trkpt lat="47.76622" lon="-3.54556">
        <ele>17.2</ele>
        <time>2021-07-11T08:16:27Z</time>
      </trkpt>
      <trkpt lat="47.76622" lon="-3.54554">
        <ele>17.1</ele>
        <time>2021-07-11T08:16:26Z</time>
      </trkpt>
      <trkpt lat="47.76621" lon="-3.54552">
        <ele>17.1</ele>
        <time>2021-07-11T08:16:25Z</time>
      </trkpt>
      <trkpt lat="47.7662" lon="-3.5455">
        <ele>17</ele>
        <time>2021-07-11T08:16:24Z</time>
      </trkpt>
      <trkpt lat="47.7662" lon="-3.54548">
        <ele>17</ele>
        <time>2021-07-11T08:16:23Z</time>
      </trkpt>
      <trkpt lat="47.76619" lon="-3.54546">
        <ele>16.9</ele>
        <time>2021-07-11T08:16:22Z</time>
      </trkpt>
      <trkpt lat="47.76619" lon="-3.54544">
        <ele>16.9</ele>
        <time>2021-07-11T08:16:21Z</time>
      </trkpt>
      <trkpt lat="47.76618" lon="-3.54542">
        <ele>16.8</ele>
        <time>2021-07-11T08:16:20Z</time>
      </trkpt>
      <trkpt lat="47.76617" lon="-3.5454">
        <ele>16.8</ele>
        <time>2021-07-11T08:16:19Z</time>
      </trkpt>
      <trkpt lat="47.76617" lon="-3.54538">
        <ele>16.7</ele>
        <time>2021-07-11T08:16:18Z</time>
      </trkpt>
      <trkpt lat="47.76616" lon="-3.54537">
        <ele>16.6</ele>
        <time>2021-07-11T08:16:17Z</time>
      </trkpt>
      <trkpt lat="47.76615" lon="-3.54535">
        <ele>16.6</ele>
        <time>2021-07-11T08:16:16Z</time>
      </trkpt>
      <trkpt lat="47.76613" lon="-3.54534">
        <ele>16.5</ele>
        <time>2021-07-11T08:16:15Z</time>
      </trkpt>
      <trkpt lat="47.76612" lon="-3.54533">
        <ele>16.4</ele>
        <time>2021-07-11T08:16:14Z</time>
      </trkpt>
      <trkpt lat="47.76611" lon="-3.54532">
        <ele>16.4</ele>
        <time>2021-07-11T08:16:13Z</time>
      </trkpt>
      <trkpt lat="47.7661" lon="-3.54531">
        <ele>16.3</ele>
        <time>2021-07-11T08:16:12Z</time>
      </trkpt>
      <trkpt lat="47.76608" lon="-3.5453">
        <ele>16.2</ele>
        <time>2021-07-11T08:16:11Z</time>
      </trkpt>
      <trkpt lat="47.76607" lon="-3.54529">
        <ele>16.1</ele>
        <time>2021-07-11T08:16:10Z</time>
      </trkpt>
      <trkpt lat="47.76605" lon="-3.54528">
        <ele>16.1</ele>
        <time>2021-07-11T08:16:09Z</time>
      </trkpt>
      <trkpt lat="47.76604" lon="-3.54527">
        <ele>16</ele>
        <time>2021-07-11T08:16:08Z</time>
      </trkpt>
      <trkpt lat="47.76603" lon="-3.54525">
        <ele>15.9</ele>
        <time>2021-07-11T08:16:07Z</time>
      </trkpt>
      <trkpt lat="47.76601" lon="-3.54524">
        <ele>15.8</ele>
        <time>2021-07-11T08:16:06Z</time>
      </trkpt>
      <trkpt lat="47.766" lon="-3.54523">
        <ele>15.7</ele>
        <time>2021-07-11T08:16:05Z</time>
      </trkpt>
      <trkpt lat="47.76599" lon="-3.54521">
        <ele>15.7</ele>
        <time>2021-07-11T08:16:04Z</time>
      </trkpt>
      <trkpt lat="47.76598" lon="-3.5452">
        <ele>15.6</ele>
        <time>2021-07-11T08:16:03Z</time>
      </trkpt>
      <trkpt lat="47.76596" lon="-3.54519">
        <ele>15.5</ele>
        <time>2021-07-11T08:16:02Z</time>
      </trkpt>
      <trkpt lat="47.76595" lon="-3.54518">
        <ele>15.5</ele>
        <time>2021-07-11T08:16:01Z</time>
      </trkpt>
      <trkpt lat="47.76594" lon="-3.54517">
        <ele>15.4</ele>
        <time>2021-07-11T08:16:00Z</time>
      </trkpt>
      <trkpt lat="47.76593" lon="-3.54515">
        <ele>15.3</ele>
        <time>2021-07-11T08:15:59Z</time>
      </trkpt>
      <trkpt lat="47.76592" lon="-3.54514">
        <ele>15.2</ele>
        <time>2021-07-11T08:15:58Z</time>
      </trkpt>
      <trkpt lat="47.76591" lon="-3.54512">
        <ele>15.2</ele>
        <time>2021-07-11T08:15:57Z</time>
      </trkpt>
      <trkpt lat="47.76589" lon="-3.54511">
        <ele>15.1</ele>
        <time>2021-07-11T08:15:56Z</time>
      </trkpt>
      <trkpt lat="47.76588" lon="-3.54509">
        <ele>15</ele>
        <time>2021-07-11T08:15:55Z</time>
      </trkpt>
      <trkpt lat="47.76587" lon="-3.54507">
        <ele>14.9</ele>
        <time>2021-07-11T08:15:54Z</time>
      </trkpt>
      <trkpt lat="47.76585" lon="-3.54506">
        <ele>14.8</ele>
        <time>2021-07-11T08:15:53Z</time>
      </trkpt>
      <trkpt lat="47.76584" lon="-3.54504">
        <ele>14.7</ele>
        <time>2021-07-11T08:15:52Z</time>
      </trkpt>
      <trkpt lat="47.76583" lon="-3.54503">
        <ele>14.6</ele>
        <time>2021-07-11T08:15:51Z</time>
      </trkpt>
      <trkpt lat="47.76581" lon="-3.54502">
        <ele>14.5</ele>
        <time>2021-07-11T08:15:50Z</time>
      </trkpt>
      <trkpt lat="47.7658" lon="-3.54501">
        <ele>14.4</ele>
        <time>2021-07-11T08:15:49Z</time>
      </trkpt>
      <trkpt lat="47.76579" lon="-3.545">
        <ele>14.4</ele>
        <time>2021-07-11T08:15:48Z</time>
      </trkpt>
      <trkpt lat="47.76577" lon="-3.54499">
        <ele>14.3</ele>
        <time>2021-07-11T08:15:47Z</time>
      </trkpt>
      <trkpt lat="47.76576" lon="-3.54498">
        <ele>14.2</ele>
        <time>2021-07-11T08:15:46Z</time>
      </trkpt>
      <trkpt lat="47.76575" lon="-3.54497">
        <ele>14.1</ele>
        <time>2021-07-11T08:15:45Z</time>
      </trkpt>
      <trkpt lat="47.76574" lon="-3.54496">
        <ele>14</ele>
        <time>2021-07-11T08:15:44Z</time>
      </trkpt>
      <trkpt lat="47.76572" lon="-3.54495">
        <ele>14</ele>
        <time>2021-07-11T08:15:43Z</time>
      </trkpt>
      <trkpt lat="47.76571" lon="-3.54494">
        <ele>13.9</ele>
        <time>2021-07-11T08:15:42Z</time>
      </trkpt>
      <trkpt lat="47.7657" lon="-3.54493">
        <ele>13.8</ele>
        <time>2021-07-11T08:15:41Z</time>
      </trkpt>
      <trkpt lat="47.76568" lon="-3.54491">
        <ele>13.7</ele>
        <time>2021-07-11T08:15:40Z</time>
      </trkpt>
      <trkpt lat="47.76567" lon="-3.5449">
        <ele>13.6</ele>
        <time>2021-07-11T08:15:39Z</time>
      </trkpt>
      <trkpt lat="47.76566" lon="-3.54489">
        <ele>13.6</ele>
        <time>2021-07-11T08:15:38Z</time>
      </trkpt>
      <trkpt lat="47.76565" lon="-3.54488">
        <ele>13.5</ele>
        <time>2021-07-11T08:15:37Z</time>
      </trkpt>
      <trkpt lat="47.76564" lon="-3.54487">
        <ele>13.4</ele>
        <time>2021-07-11T08:15:36Z</time>
      </trkpt>
      <trkpt lat="47.76563" lon="-3.54485">
        <ele>13.3</ele>
        <time>2021-07-11T08:15:35Z</time>
      </trkpt>
      <trkpt lat="47.76562" lon="-3.54484">
        <ele>13.3</ele>
        <time>2021-07-11T08:15:34Z</time>
      </trkpt>
      <trkpt lat="47.7656" lon="-3.54483">
        <ele>13.2</ele>
        <time>2021-07-11T08:15:33Z</time>
      </trkpt>
      <trkpt lat="47.76559" lon="-3.54482">
        <ele>13.1</ele>
        <time>2021-07-11T08:15:32Z</time>
      </trkpt>
      <trkpt lat="47.76559" lon="-3.5448">
        <ele>13.1</ele>
        <time>2021-07-11T08:15:31Z</time>
      </trkpt>
      <trkpt lat="47.76559" lon="-3.54478">
        <ele>13</ele>
        <time>2021-07-11T08:15:30Z</time>
      </trkpt>
      <trkpt lat="47.7656" lon="-3.54477">
        <ele>13</ele>
        <time>2021-07-11T08:15:29Z</time>
      </trkpt>
      <trkpt lat="47.7656" lon="-3.54475">
        <ele>12.9</ele>
        <time>2021-07-11T08:15:28Z</time>
      </trkpt>
      <trkpt lat="47.7656" lon="-3.54473">
        <ele>12.9</ele>
        <time>2021-07-11T08:15:27Z</time>
      </trkpt>
      <trkpt lat="47.7656" lon="-3.54471">
        <ele>12.6</ele>
        <time>2021-07-11T08:15:26Z</time>
      </trkpt>
      <trkpt lat="47.7656" lon="-3.5447">
        <ele>12.7</ele>
        <time>2021-07-11T08:15:25Z</time>
      </trkpt>
      <trkpt lat="47.7656" lon="-3.54468">
        <ele>12.7</ele>
        <time>2021-07-11T08:15:24Z</time>
      </trkpt>
      <trkpt lat="47.76561" lon="-3.54466">
        <ele>12.7</ele>
        <time>2021-07-11T08:15:23Z</time>
      </trkpt>
      <trkpt lat="47.76561" lon="-3.54464">
        <ele>12.7</ele>
        <time>2021-07-11T08:15:22Z</time>
      </trkpt>
      <trkpt lat="47.76561" lon="-3.54463">
        <ele>12.7</ele>
        <time>2021-07-11T08:15:21Z</time>
      </trkpt>
      <trkpt lat="47.76561" lon="-3.54461">
        <ele>12.7</ele>
        <time>2021-07-11T08:15:20Z</time>
      </trkpt>
      <trkpt lat="47.76561" lon="-3.54459">
        <ele>12.7</ele>
        <time>2021-07-11T08:15:19Z</time>
      </trkpt>
      <trkpt lat="47.76561" lon="-3.54457">
        <ele>12.8</ele>
        <time>2021-07-11T08:15:18Z</time>
      </trkpt>
      <trkpt lat="47.76561" lon="-3.54456">
        <ele>12.8</ele>
        <time>2021-07-11T08:15:17Z</time>
      </trkpt>
      <trkpt lat="47.76562" lon="-3.54454">
        <ele>12.8</ele>
        <time>2021-07-11T08:15:16Z</time>
      </trkpt>
      <trkpt lat="47.76562" lon="-3.54452">
        <ele>12.8</ele>
        <time>2021-07-11T08:15:15Z</time>
      </trkpt>
      <trkpt lat="47.76562" lon="-3.5445">
        <ele>12.8</ele>
        <time>2021-07-11T08:15:14Z</time>
      </trkpt>
      <trkpt lat="47.76562" lon="-3.54449">
        <ele>12.8</ele>
        <time>2021-07-11T08:15:13Z</time>
      </trkpt>
      <trkpt lat="47.76562" lon="-3.54447">
        <ele>12.8</ele>
        <time>2021-07-11T08:15:12Z</time>
      </trkpt>
      <trkpt lat="47.76562" lon="-3.54445">
        <ele>12.8</ele>
        <time>2021-07-11T08:15:11Z</time>
      </trkpt>
      <trkpt lat="47.76563" lon="-3.54443">
        <ele>12.8</ele>
        <time>2021-07-11T08:15:10Z</time>
      </trkpt>
      <trkpt lat="47.76563" lon="-3.54442">
        <ele>12.8</ele>
        <time>2021-07-11T08:15:09Z</time>
      </trkpt>
      <trkpt lat="47.76564" lon="-3.54438">
        <ele>12.9</ele>
        <time>2021-07-11T08:15:08Z</time>
      </trkpt>
      <trkpt lat="47.76565" lon="-3.54437">
        <ele>12.9</ele>
        <time>2021-07-11T08:15:07Z</time>
      </trkpt>
      <trkpt lat="47.76566" lon="-3.54436">
        <ele>12.9</ele>
        <time>2021-07-11T08:15:06Z</time>
      </trkpt>
      <trkpt lat="47.76567" lon="-3.54434">
        <ele>12.9</ele>
        <time>2021-07-11T08:15:05Z</time>
      </trkpt>
      <trkpt lat="47.76569" lon="-3.54433">
        <ele>12.9</ele>
        <time>2021-07-11T08:15:04Z</time>
      </trkpt>
      <trkpt lat="47.7657" lon="-3.54432">
        <ele>12.9</ele>
        <time>2021-07-11T08:15:03Z</time>
      </trkpt>
      <trkpt lat="47.76571" lon="-3.54431">
        <ele>12.9</ele>
        <time>2021-07-11T08:15:02Z</time>
      </trkpt>
      <trkpt lat="47.76573" lon="-3.54429">
        <ele>12.9</ele>
        <time>2021-07-11T08:15:01Z</time>
      </trkpt>
      <trkpt lat="47.76574" lon="-3.54428">
        <ele>13</ele>
        <time>2021-07-11T08:15:00Z</time>
      </trkpt>
      <trkpt lat="47.76575" lon="-3.54426">
        <ele>13</ele>
        <time>2021-07-11T08:14:59Z</time>
      </trkpt>
      <trkpt lat="47.76576" lon="-3.54424">
        <ele>13</ele>
        <time>2021-07-11T08:14:58Z</time>
      </trkpt>
      <trkpt lat="47.76577" lon="-3.54422">
        <ele>13</ele>
        <time>2021-07-11T08:14:57Z</time>
      </trkpt>
      <trkpt lat="47.76577" lon="-3.54421">
        <ele>13</ele>
        <time>2021-07-11T08:14:56Z</time>
      </trkpt>
      <trkpt lat="47.76577" lon="-3.54419">
        <ele>13</ele>
        <time>2021-07-11T08:14:55Z</time>
      </trkpt>
      <trkpt lat="47.76577" lon="-3.54417">
        <ele>12.9</ele>
        <time>2021-07-11T08:14:54Z</time>
      </trkpt>
      <trkpt lat="47.76577" lon="-3.54415">
        <ele>12.9</ele>
        <time>2021-07-11T08:14:53Z</time>
      </trkpt>
      <trkpt lat="47.76576" lon="-3.54413">
        <ele>12.9</ele>
        <time>2021-07-11T08:14:52Z</time>
      </trkpt>
      <trkpt lat="47.76575" lon="-3.54412">
        <ele>12.8</ele>
        <time>2021-07-11T08:14:51Z</time>
      </trkpt>
      <trkpt lat="47.76573" lon="-3.5441">
        <ele>12.8</ele>
        <time>2021-07-11T08:14:50Z</time>
      </trkpt>
      <trkpt lat="47.76572" lon="-3.54409">
        <ele>12.8</ele>
        <time>2021-07-11T08:14:49Z</time>
      </trkpt>
      <trkpt lat="47.7657" lon="-3.54408">
        <ele>12.7</ele>
        <time>2021-07-11T08:14:48Z</time>
      </trkpt>
      <trkpt lat="47.76569" lon="-3.54407">
        <ele>12.7</ele>
        <time>2021-07-11T08:14:47Z</time>
      </trkpt>
      <trkpt lat="47.76568" lon="-3.54406">
        <ele>12.6</ele>
        <time>2021-07-11T08:14:46Z</time>
      </trkpt>
      <trkpt lat="47.76566" lon="-3.54405">
        <ele>12.6</ele>
        <time>2021-07-11T08:14:45Z</time>
      </trkpt>
      <trkpt lat="47.76565" lon="-3.54404">
        <ele>12.6</ele>
        <time>2021-07-11T08:14:44Z</time>
      </trkpt>
      <trkpt lat="47.76564" lon="-3.54403">
        <ele>12.6</ele>
        <time>2021-07-11T08:14:43Z</time>
      </trkpt>
      <trkpt lat="47.76563" lon="-3.54402">
        <ele>12.5</ele>
        <time>2021-07-11T08:14:42Z</time>
      </trkpt>
      <trkpt lat="47.76561" lon="-3.54402">
        <ele>12.5</ele>
        <time>2021-07-11T08:14:41Z</time>
      </trkpt>
      <trkpt lat="47.7656" lon="-3.54401">
        <ele>12.5</ele>
        <time>2021-07-11T08:14:40Z</time>
      </trkpt>
      <trkpt lat="47.76559" lon="-3.544">
        <ele>12.5</ele>
        <time>2021-07-11T08:14:39Z</time>
      </trkpt>
      <trkpt lat="47.76557" lon="-3.544">
        <ele>12.4</ele>
        <time>2021-07-11T08:14:38Z</time>
      </trkpt>
      <trkpt lat="47.76556" lon="-3.54399">
        <ele>12.4</ele>
        <time>2021-07-11T08:14:37Z</time>
      </trkpt>
      <trkpt lat="47.76554" lon="-3.54399">
        <ele>12.4</ele>
        <time>2021-07-11T08:14:36Z</time>
      </trkpt>
      <trkpt lat="47.76553" lon="-3.54398">
        <ele>12.4</ele>
        <time>2021-07-11T08:14:35Z</time>
      </trkpt>
      <trkpt lat="47.76551" lon="-3.54398">
        <ele>12.4</ele>
        <time>2021-07-11T08:14:34Z</time>
      </trkpt>
      <trkpt lat="47.7655" lon="-3.54398">
        <ele>12.3</ele>
        <time>2021-07-11T08:14:33Z</time>
      </trkpt>
      <trkpt lat="47.76548" lon="-3.54398">
        <ele>12.3</ele>
        <time>2021-07-11T08:14:32Z</time>
      </trkpt>
      <trkpt lat="47.76547" lon="-3.54398">
        <ele>12.3</ele>
        <time>2021-07-11T08:14:31Z</time>
      </trkpt>
      <trkpt lat="47.76545" lon="-3.54397">
        <ele>12.3</ele>
        <time>2021-07-11T08:14:30Z</time>
      </trkpt>
      <trkpt lat="47.76543" lon="-3.54397">
        <ele>12.3</ele>
        <time>2021-07-11T08:14:29Z</time>
      </trkpt>
      <trkpt lat="47.76542" lon="-3.54397">
        <ele>12.3</ele>
        <time>2021-07-11T08:14:28Z</time>
      </trkpt>
      <trkpt lat="47.7654" lon="-3.54397">
        <ele>12.3</ele>
        <time>2021-07-11T08:14:27Z</time>
      </trkpt>
      <trkpt lat="47.76538" lon="-3.54398">
        <ele>12.2</ele>
        <time>2021-07-11T08:14:26Z</time>
      </trkpt>
      <trkpt lat="47.76537" lon="-3.54398">
        <ele>12.2</ele>
        <time>2021-07-11T08:14:25Z</time>
      </trkpt>
      <trkpt lat="47.76535" lon="-3.54398">
        <ele>12.2</ele>
        <time>2021-07-11T08:14:24Z</time>
      </trkpt>
      <trkpt lat="47.76533" lon="-3.54398">
        <ele>12.2</ele>
        <time>2021-07-11T08:14:23Z</time>
      </trkpt>
      <trkpt lat="47.76531" lon="-3.54398">
        <ele>12.2</ele>
        <time>2021-07-11T08:14:22Z</time>
      </trkpt>
      <trkpt lat="47.7653" lon="-3.54398">
        <ele>12.2</ele>
        <time>2021-07-11T08:14:21Z</time>
      </trkpt>
      <trkpt lat="47.76528" lon="-3.54398">
        <ele>12.2</ele>
        <time>2021-07-11T08:14:20Z</time>
      </trkpt>
      <trkpt lat="47.76527" lon="-3.54398">
        <ele>12.2</ele>
        <time>2021-07-11T08:14:19Z</time>
      </trkpt>
      <trkpt lat="47.76525" lon="-3.54398">
        <ele>12.2</ele>
        <time>2021-07-11T08:14:18Z</time>
      </trkpt>
      <trkpt lat="47.76524" lon="-3.54398">
        <ele>12.2</ele>
        <time>2021-07-11T08:14:17Z</time>
      </trkpt>
      <trkpt lat="47.76523" lon="-3.54398">
        <ele>12.1</ele>
        <time>2021-07-11T08:14:16Z</time>
      </trkpt>
      <trkpt lat="47.76521" lon="-3.54397">
        <ele>12.1</ele>
        <time>2021-07-11T08:14:15Z</time>
      </trkpt>
      <trkpt lat="47.7652" lon="-3.54397">
        <ele>12.1</ele>
        <time>2021-07-11T08:14:14Z</time>
      </trkpt>
      <trkpt lat="47.76519" lon="-3.54396">
        <ele>12.1</ele>
        <time>2021-07-11T08:14:13Z</time>
      </trkpt>
      <trkpt lat="47.76518" lon="-3.54396">
        <ele>12.1</ele>
        <time>2021-07-11T08:14:12Z</time>
      </trkpt>
      <trkpt lat="47.76517" lon="-3.54395">
        <ele>12.1</ele>
        <time>2021-07-11T08:14:11Z</time>
      </trkpt>
      <trkpt lat="47.76516" lon="-3.54395">
        <ele>12.1</ele>
        <time>2021-07-11T08:14:10Z</time>
      </trkpt>
      <trkpt lat="47.76515" lon="-3.54394">
        <ele>12.1</ele>
        <time>2021-07-11T08:14:09Z</time>
      </trkpt>
      <trkpt lat="47.76514" lon="-3.54394">
        <ele>12.1</ele>
        <time>2021-07-11T08:14:08Z</time>
      </trkpt>
      <trkpt lat="47.76513" lon="-3.54393">
        <ele>12</ele>
        <time>2021-07-11T08:14:07Z</time>
      </trkpt>
      <trkpt lat="47.76512" lon="-3.54393">
        <ele>12</ele>
        <time>2021-07-11T08:14:06Z</time>
      </trkpt>
      <trkpt lat="47.76511" lon="-3.54393">
        <ele>12</ele>
        <time>2021-07-11T08:14:05Z</time>
      </trkpt>
      <trkpt lat="47.76509" lon="-3.54393">
        <ele>12</ele>
        <time>2021-07-11T08:14:04Z</time>
      </trkpt>
      <trkpt lat="47.76508" lon="-3.54393">
        <ele>12</ele>
        <time>2021-07-11T08:14:03Z</time>
      </trkpt>
      <trkpt lat="47.76506" lon="-3.54394">
        <ele>12</ele>
        <time>2021-07-11T08:14:02Z</time>
      </trkpt>
      <trkpt lat="47.76504" lon="-3.54395">
        <ele>11.9</ele>
        <time>2021-07-11T08:14:01Z</time>
      </trkpt>
      <trkpt lat="47.76502" lon="-3.54395">
        <ele>11.9</ele>
        <time>2021-07-11T08:14:00Z</time>
      </trkpt>
      <trkpt lat="47.765" lon="-3.54396">
        <ele>11.9</ele>
        <time>2021-07-11T08:13:59Z</time>
      </trkpt>
      <trkpt lat="47.76499" lon="-3.54396">
        <ele>11.9</ele>
        <time>2021-07-11T08:13:58Z</time>
      </trkpt>
      <trkpt lat="47.76497" lon="-3.54396">
        <ele>11.9</ele>
        <time>2021-07-11T08:13:57Z</time>
      </trkpt>
      <trkpt lat="47.76495" lon="-3.54396">
        <ele>11.9</ele>
        <time>2021-07-11T08:13:56Z</time>
      </trkpt>
      <trkpt lat="47.76494" lon="-3.54396">
        <ele>11.8</ele>
        <time>2021-07-11T08:13:55Z</time>
      </trkpt>
      <trkpt lat="47.76492" lon="-3.54396">
        <ele>11.8</ele>
        <time>2021-07-11T08:13:54Z</time>
      </trkpt>
      <trkpt lat="47.76491" lon="-3.54395">
        <ele>11.8</ele>
        <time>2021-07-11T08:13:53Z</time>
      </trkpt>
      <trkpt lat="47.76489" lon="-3.54395">
        <ele>11.8</ele>
        <time>2021-07-11T08:13:52Z</time>
      </trkpt>
      <trkpt lat="47.76488" lon="-3.54395">
        <ele>11.8</ele>
        <time>2021-07-11T08:13:51Z</time>
      </trkpt>
      <trkpt lat="47.76486" lon="-3.54395">
        <ele>11.7</ele>
        <time>2021-07-11T08:13:50Z</time>
      </trkpt>
      <trkpt lat="47.76485" lon="-3.54395">
        <ele>11.7</ele>
        <time>2021-07-11T08:13:49Z</time>
      </trkpt>
      <trkpt lat="47.76484" lon="-3.54395">
        <ele>11.7</ele>
        <time>2021-07-11T08:13:48Z</time>
      </trkpt>
      <trkpt lat="47.76482" lon="-3.54395">
        <ele>11.7</ele>
        <time>2021-07-11T08:13:47Z</time>
      </trkpt>
      <trkpt lat="47.76481" lon="-3.54395">
        <ele>11.7</ele>
        <time>2021-07-11T08:13:46Z</time>
      </trkpt>
      <trkpt lat="47.76479" lon="-3.54395">
        <ele>11.6</ele>
        <time>2021-07-11T08:13:45Z</time>
      </trkpt>
      <trkpt lat="47.76478" lon="-3.54395">
        <ele>11.6</ele>
        <time>2021-07-11T08:13:44Z</time>
      </trkpt>
      <trkpt lat="47.76477" lon="-3.54395">
        <ele>11.6</ele>
        <time>2021-07-11T08:13:43Z</time>
      </trkpt>
      <trkpt lat="47.76475" lon="-3.54396">
        <ele>11.6</ele>
        <time>2021-07-11T08:13:42Z</time>
      </trkpt>
      <trkpt lat="47.76474" lon="-3.54396">
        <ele>11.5</ele>
        <time>2021-07-11T08:13:41Z</time>
      </trkpt>
      <trkpt lat="47.76473" lon="-3.54395">
        <ele>11.5</ele>
        <time>2021-07-11T08:13:40Z</time>
      </trkpt>
      <trkpt lat="47.76471" lon="-3.54395">
        <ele>11.5</ele>
        <time>2021-07-11T08:13:39Z</time>
      </trkpt>
      <trkpt lat="47.7647" lon="-3.54395">
        <ele>11.5</ele>
        <time>2021-07-11T08:13:38Z</time>
      </trkpt>
      <trkpt lat="47.76468" lon="-3.54394">
        <ele>11.5</ele>
        <time>2021-07-11T08:13:37Z</time>
      </trkpt>
      <trkpt lat="47.76467" lon="-3.54393">
        <ele>11.4</ele>
        <time>2021-07-11T08:13:36Z</time>
      </trkpt>
      <trkpt lat="47.76466" lon="-3.54392">
        <ele>11.4</ele>
        <time>2021-07-11T08:13:35Z</time>
      </trkpt>
      <trkpt lat="47.76464" lon="-3.54391">
        <ele>11.4</ele>
        <time>2021-07-11T08:13:34Z</time>
      </trkpt>
      <trkpt lat="47.76463" lon="-3.54389">
        <ele>11.3</ele>
        <time>2021-07-11T08:13:33Z</time>
      </trkpt>
      <trkpt lat="47.76462" lon="-3.54388">
        <ele>11.3</ele>
        <time>2021-07-11T08:13:32Z</time>
      </trkpt>
      <trkpt lat="47.7646" lon="-3.54386">
        <ele>11.2</ele>
        <time>2021-07-11T08:13:31Z</time>
      </trkpt>
      <trkpt lat="47.76459" lon="-3.54385">
        <ele>11.2</ele>
        <time>2021-07-11T08:13:30Z</time>
      </trkpt>
      <trkpt lat="47.76458" lon="-3.54383">
        <ele>11.1</ele>
        <time>2021-07-11T08:13:29Z</time>
      </trkpt>
      <trkpt lat="47.76457" lon="-3.54382">
        <ele>11.1</ele>
        <time>2021-07-11T08:13:28Z</time>
      </trkpt>
      <trkpt lat="47.76456" lon="-3.5438">
        <ele>11</ele>
        <time>2021-07-11T08:13:27Z</time>
      </trkpt>
      <trkpt lat="47.76456" lon="-3.54378">
        <ele>11</ele>
        <time>2021-07-11T08:13:26Z</time>
      </trkpt>
      <trkpt lat="47.76455" lon="-3.54377">
        <ele>10.9</ele>
        <time>2021-07-11T08:13:25Z</time>
      </trkpt>
      <trkpt lat="47.76454" lon="-3.54375">
        <ele>10.9</ele>
        <time>2021-07-11T08:13:24Z</time>
      </trkpt>
      <trkpt lat="47.76454" lon="-3.54374">
        <ele>10.9</ele>
        <time>2021-07-11T08:13:23Z</time>
      </trkpt>
      <trkpt lat="47.76454" lon="-3.54372">
        <ele>10.8</ele>
        <time>2021-07-11T08:13:22Z</time>
      </trkpt>
      <trkpt lat="47.76453" lon="-3.54371">
        <ele>10.8</ele>
        <time>2021-07-11T08:13:21Z</time>
      </trkpt>
      <trkpt lat="47.76453" lon="-3.54369">
        <ele>10.8</ele>
        <time>2021-07-11T08:13:20Z</time>
      </trkpt>
      <trkpt lat="47.76453" lon="-3.54368">
        <ele>10.7</ele>
        <time>2021-07-11T08:13:19Z</time>
      </trkpt>
      <trkpt lat="47.76453" lon="-3.54366">
        <ele>10.7</ele>
        <time>2021-07-11T08:13:18Z</time>
      </trkpt>
      <trkpt lat="47.76453" lon="-3.54364">
        <ele>10.7</ele>
        <time>2021-07-11T08:13:17Z</time>
      </trkpt>
      <trkpt lat="47.76454" lon="-3.54363">
        <ele>10.7</ele>
        <time>2021-07-11T08:13:16Z</time>
      </trkpt>
      <trkpt lat="47.76454" lon="-3.54361">
        <ele>10.6</ele>
        <time>2021-07-11T08:13:15Z</time>
      </trkpt>
      <trkpt lat="47.76454" lon="-3.54359">
        <ele>10.6</ele>
        <time>2021-07-11T08:13:14Z</time>
      </trkpt>
      <trkpt lat="47.76454" lon="-3.54357">
        <ele>10.6</ele>
        <time>2021-07-11T08:13:13Z</time>
      </trkpt>
      <trkpt lat="47.76455" lon="-3.54355">
        <ele>10.5</ele>
        <time>2021-07-11T08:13:12Z</time>
      </trkpt>
      <trkpt lat="47.76455" lon="-3.54354">
        <ele>10.5</ele>
        <time>2021-07-11T08:13:11Z</time>
      </trkpt>
      <trkpt lat="47.76456" lon="-3.54351">
        <ele>10.4</ele>
        <time>2021-07-11T08:13:10Z</time>
      </trkpt>
      <trkpt lat="47.76457" lon="-3.54349">
        <ele>10.4</ele>
        <time>2021-07-11T08:13:09Z</time>
      </trkpt>
      <trkpt lat="47.76457" lon="-3.54347">
        <ele>10.3</ele>
        <time>2021-07-11T08:13:08Z</time>
      </trkpt>
      <trkpt lat="47.76458" lon="-3.54345">
        <ele>10.3</ele>
        <time>2021-07-11T08:13:07Z</time>
      </trkpt>
      <trkpt lat="47.76459" lon="-3.54343">
        <ele>10.3</ele>
        <time>2021-07-11T08:13:06Z</time>
      </trkpt>
      <trkpt lat="47.76459" lon="-3.54341">
        <ele>10.2</ele>
        <time>2021-07-11T08:13:05Z</time>
      </trkpt>
      <trkpt lat="47.7646" lon="-3.54339">
        <ele>10.2</ele>
        <time>2021-07-11T08:13:04Z</time>
      </trkpt>
      <trkpt lat="47.76461" lon="-3.54337">
        <ele>10.1</ele>
        <time>2021-07-11T08:13:03Z</time>
      </trkpt>
      <trkpt lat="47.76461" lon="-3.54335">
        <ele>10.1</ele>
        <time>2021-07-11T08:13:02Z</time>
      </trkpt>
      <trkpt lat="47.76462" lon="-3.54332">
        <ele>10</ele>
        <time>2021-07-11T08:13:01Z</time>
      </trkpt>
      <trkpt lat="47.76462" lon="-3.5433">
        <ele>10</ele>
        <time>2021-07-11T08:13:00Z</time>
      </trkpt>
      <trkpt lat="47.76462" lon="-3.54328">
        <ele>10</ele>
        <time>2021-07-11T08:12:59Z</time>
      </trkpt>
      <trkpt lat="47.76462" lon="-3.54327">
        <ele>9.9</ele>
        <time>2021-07-11T08:12:58Z</time>
      </trkpt>
      <trkpt lat="47.76462" lon="-3.54325">
        <ele>9.9</ele>
        <time>2021-07-11T08:12:57Z</time>
      </trkpt>
      <trkpt lat="47.76462" lon="-3.54323">
        <ele>9.9</ele>
        <time>2021-07-11T08:12:56Z</time>
      </trkpt>
      <trkpt lat="47.76462" lon="-3.54321">
        <ele>9.8</ele>
        <time>2021-07-11T08:12:55Z</time>
      </trkpt>
      <trkpt lat="47.76463" lon="-3.54319">
        <ele>9.8</ele>
        <time>2021-07-11T08:12:54Z</time>
      </trkpt>
      <trkpt lat="47.76463" lon="-3.54317">
        <ele>9.8</ele>
        <time>2021-07-11T08:12:53Z</time>
      </trkpt>
      <trkpt lat="47.76463" lon="-3.54316">
        <ele>9.7</ele>
        <time>2021-07-11T08:12:52Z</time>
      </trkpt>
      <trkpt lat="47.76464" lon="-3.54314">
        <ele>9.7</ele>
        <time>2021-07-11T08:12:51Z</time>
      </trkpt>
      <trkpt lat="47.76464" lon="-3.54312">
        <ele>9.7</ele>
        <time>2021-07-11T08:12:50Z</time>
      </trkpt>
      <trkpt lat="47.76464" lon="-3.5431">
        <ele>9.6</ele>
        <time>2021-07-11T08:12:49Z</time>
      </trkpt>
      <trkpt lat="47.76465" lon="-3.54309">
        <ele>9.6</ele>
        <time>2021-07-11T08:12:48Z</time>
      </trkpt>
      <trkpt lat="47.76465" lon="-3.54307">
        <ele>9.6</ele>
        <time>2021-07-11T08:12:47Z</time>
      </trkpt>
      <trkpt lat="47.76466" lon="-3.54305">
        <ele>9.6</ele>
        <time>2021-07-11T08:12:46Z</time>
      </trkpt>
      <trkpt lat="47.76466" lon="-3.54303">
        <ele>9.5</ele>
        <time>2021-07-11T08:12:45Z</time>
      </trkpt>
      <trkpt lat="47.76466" lon="-3.54301">
        <ele>9.5</ele>
        <time>2021-07-11T08:12:44Z</time>
      </trkpt>
      <trkpt lat="47.76467" lon="-3.54299">
        <ele>9.5</ele>
        <time>2021-07-11T08:12:43Z</time>
      </trkpt>
      <trkpt lat="47.76467" lon="-3.54297">
        <ele>9.5</ele>
        <time>2021-07-11T08:12:42Z</time>
      </trkpt>
      <trkpt lat="47.76467" lon="-3.54295">
        <ele>9.5</ele>
        <time>2021-07-11T08:12:41Z</time>
      </trkpt>
      <trkpt lat="47.76467" lon="-3.54293">
        <ele>9.5</ele>
        <time>2021-07-11T08:12:40Z</time>
      </trkpt>
      <trkpt lat="47.76466" lon="-3.54291">
        <ele>9.5</ele>
        <time>2021-07-11T08:12:39Z</time>
      </trkpt>
      <trkpt lat="47.76466" lon="-3.54289">
        <ele>9.5</ele>
        <time>2021-07-11T08:12:38Z</time>
      </trkpt>
      <trkpt lat="47.76466" lon="-3.54288">
        <ele>9.5</ele>
        <time>2021-07-11T08:12:37Z</time>
      </trkpt>
      <trkpt lat="47.76465" lon="-3.54286">
        <ele>9.6</ele>
        <time>2021-07-11T08:12:36Z</time>
      </trkpt>
      <trkpt lat="47.76464" lon="-3.54284">
        <ele>9.6</ele>
        <time>2021-07-11T08:12:35Z</time>
      </trkpt>
      <trkpt lat="47.76464" lon="-3.54283">
        <ele>9.6</ele>
        <time>2021-07-11T08:12:34Z</time>
      </trkpt>
      <trkpt lat="47.76463" lon="-3.54281">
        <ele>9.6</ele>
        <time>2021-07-11T08:12:33Z</time>
      </trkpt>
      <trkpt lat="47.76462" lon="-3.5428">
        <ele>9.7</ele>
        <time>2021-07-11T08:12:32Z</time>
      </trkpt>
      <trkpt lat="47.76462" lon="-3.54278">
        <ele>9.7</ele>
        <time>2021-07-11T08:12:31Z</time>
      </trkpt>
      <trkpt lat="47.76461" lon="-3.54277">
        <ele>9.7</ele>
        <time>2021-07-11T08:12:30Z</time>
      </trkpt>
      <trkpt lat="47.7646" lon="-3.54275">
        <ele>9.8</ele>
        <time>2021-07-11T08:12:29Z</time>
      </trkpt>
      <trkpt lat="47.76459" lon="-3.54273">
        <ele>9.8</ele>
        <time>2021-07-11T08:12:28Z</time>
      </trkpt>
      <trkpt lat="47.76458" lon="-3.54271">
        <ele>9.9</ele>
        <time>2021-07-11T08:12:27Z</time>
      </trkpt>
      <trkpt lat="47.76457" lon="-3.54269">
        <ele>10</ele>
        <time>2021-07-11T08:12:26Z</time>
      </trkpt>
      <trkpt lat="47.76456" lon="-3.54267">
        <ele>10.1</ele>
        <time>2021-07-11T08:12:25Z</time>
      </trkpt>
      <trkpt lat="47.76455" lon="-3.54265">
        <ele>10.1</ele>
        <time>2021-07-11T08:12:24Z</time>
      </trkpt>
      <trkpt lat="47.76454" lon="-3.54263">
        <ele>10.2</ele>
        <time>2021-07-11T08:12:23Z</time>
      </trkpt>
      <trkpt lat="47.76453" lon="-3.54261">
        <ele>10.3</ele>
        <time>2021-07-11T08:12:22Z</time>
      </trkpt>
      <trkpt lat="47.76452" lon="-3.54259">
        <ele>10.4</ele>
        <time>2021-07-11T08:12:21Z</time>
      </trkpt>
      <trkpt lat="47.76451" lon="-3.54257">
        <ele>10.5</ele>
        <time>2021-07-11T08:12:20Z</time>
      </trkpt>
      <trkpt lat="47.7645" lon="-3.54255">
        <ele>10.6</ele>
        <time>2021-07-11T08:12:19Z</time>
      </trkpt>
      <trkpt lat="47.76448" lon="-3.54254">
        <ele>10.7</ele>
        <time>2021-07-11T08:12:18Z</time>
      </trkpt>
      <trkpt lat="47.76447" lon="-3.54253">
        <ele>10.8</ele>
        <time>2021-07-11T08:12:17Z</time>
      </trkpt>
      <trkpt lat="47.76446" lon="-3.54251">
        <ele>10.9</ele>
        <time>2021-07-11T08:12:16Z</time>
      </trkpt>
      <trkpt lat="47.76444" lon="-3.5425">
        <ele>11</ele>
        <time>2021-07-11T08:12:15Z</time>
      </trkpt>
      <trkpt lat="47.76443" lon="-3.54249">
        <ele>11.1</ele>
        <time>2021-07-11T08:12:14Z</time>
      </trkpt>
      <trkpt lat="47.76442" lon="-3.54248">
        <ele>11.2</ele>
        <time>2021-07-11T08:12:13Z</time>
      </trkpt>
      <trkpt lat="47.7644" lon="-3.54246">
        <ele>11.4</ele>
        <time>2021-07-11T08:12:12Z</time>
      </trkpt>
      <trkpt lat="47.76439" lon="-3.54245">
        <ele>11.5</ele>
        <time>2021-07-11T08:12:11Z</time>
      </trkpt>
      <trkpt lat="47.76438" lon="-3.54244">
        <ele>11.6</ele>
        <time>2021-07-11T08:12:10Z</time>
      </trkpt>
      <trkpt lat="47.76437" lon="-3.54242">
        <ele>11.8</ele>
        <time>2021-07-11T08:12:09Z</time>
      </trkpt>
      <trkpt lat="47.76435" lon="-3.54241">
        <ele>11.9</ele>
        <time>2021-07-11T08:12:08Z</time>
      </trkpt>
      <trkpt lat="47.76434" lon="-3.54239">
        <ele>12.1</ele>
        <time>2021-07-11T08:12:07Z</time>
      </trkpt>
      <trkpt lat="47.76433" lon="-3.54238">
        <ele>12.2</ele>
        <time>2021-07-11T08:12:06Z</time>
      </trkpt>
      <trkpt lat="47.76432" lon="-3.54236">
        <ele>12.3</ele>
        <time>2021-07-11T08:12:05Z</time>
      </trkpt>
      <trkpt lat="47.76431" lon="-3.54234">
        <ele>12.5</ele>
        <time>2021-07-11T08:12:04Z</time>
      </trkpt>
      <trkpt lat="47.7643" lon="-3.54233">
        <ele>12.6</ele>
        <time>2021-07-11T08:12:03Z</time>
      </trkpt>
      <trkpt lat="47.76429" lon="-3.54231">
        <ele>12.8</ele>
        <time>2021-07-11T08:12:02Z</time>
      </trkpt>
      <trkpt lat="47.76428" lon="-3.54229">
        <ele>12.9</ele>
        <time>2021-07-11T08:12:01Z</time>
      </trkpt>
      <trkpt lat="47.76427" lon="-3.54228">
        <ele>13</ele>
        <time>2021-07-11T08:12:00Z</time>
      </trkpt>
      <trkpt lat="47.76426" lon="-3.54226">
        <ele>13.1</ele>
        <time>2021-07-11T08:11:59Z</time>
      </trkpt>
      <trkpt lat="47.76425" lon="-3.54225">
        <ele>13.2</ele>
        <time>2021-07-11T08:11:58Z</time>
      </trkpt>
      <trkpt lat="47.76424" lon="-3.54223">
        <ele>13.4</ele>
        <time>2021-07-11T08:11:57Z</time>
      </trkpt>
      <trkpt lat="47.76423" lon="-3.54222">
        <ele>13.5</ele>
        <time>2021-07-11T08:11:56Z</time>
      </trkpt>
      <trkpt lat="47.76422" lon="-3.54221">
        <ele>13.6</ele>
        <time>2021-07-11T08:11:55Z</time>
      </trkpt>
      <trkpt lat="47.76421" lon="-3.54219">
        <ele>13.7</ele>
        <time>2021-07-11T08:11:54Z</time>
      </trkpt>
      <trkpt lat="47.7642" lon="-3.54218">
        <ele>13.8</ele>
        <time>2021-07-11T08:11:53Z</time>
      </trkpt>
      <trkpt lat="47.76419" lon="-3.54216">
        <ele>13.9</ele>
        <time>2021-07-11T08:11:52Z</time>
      </trkpt>
      <trkpt lat="47.76418" lon="-3.54215">
        <ele>14</ele>
        <time>2021-07-11T08:11:51Z</time>
      </trkpt>
      <trkpt lat="47.76417" lon="-3.54213">
        <ele>14</ele>
        <time>2021-07-11T08:11:50Z</time>
      </trkpt>
      <trkpt lat="47.76416" lon="-3.54212">
        <ele>14.1</ele>
        <time>2021-07-11T08:11:49Z</time>
      </trkpt>
      <trkpt lat="47.76414" lon="-3.5421">
        <ele>14.2</ele>
        <time>2021-07-11T08:11:48Z</time>
      </trkpt>
      <trkpt lat="47.76413" lon="-3.54209">
        <ele>14.2</ele>
        <time>2021-07-11T08:11:47Z</time>
      </trkpt>
      <trkpt lat="47.76412" lon="-3.54209">
        <ele>14.2</ele>
        <time>2021-07-11T08:11:46Z</time>
      </trkpt>
      <trkpt lat="47.76411" lon="-3.54208">
        <ele>14.2</ele>
        <time>2021-07-11T08:11:45Z</time>
      </trkpt>
      <trkpt lat="47.7641" lon="-3.54208">
        <ele>14.3</ele>
        <time>2021-07-11T08:11:44Z</time>
      </trkpt>
      <trkpt lat="47.76409" lon="-3.54208">
        <ele>14.3</ele>
        <time>2021-07-11T08:11:43Z</time>
      </trkpt>
      <trkpt lat="47.76408" lon="-3.54208">
        <ele>14.3</ele>
        <time>2021-07-11T08:11:42Z</time>
      </trkpt>
      <trkpt lat="47.76407" lon="-3.54207">
        <ele>14.3</ele>
        <time>2021-07-11T08:11:41Z</time>
      </trkpt>
      <trkpt lat="47.76406" lon="-3.54207">
        <ele>14.3</ele>
        <time>2021-07-11T08:11:40Z</time>
      </trkpt>
      <trkpt lat="47.76405" lon="-3.54207">
        <ele>14.3</ele>
        <time>2021-07-11T08:11:39Z</time>
      </trkpt>
      <trkpt lat="47.76404" lon="-3.54207">
        <ele>14.3</ele>
        <time>2021-07-11T08:11:38Z</time>
      </trkpt>
      <trkpt lat="47.76404" lon="-3.54206">
        <ele>14.3</ele>
        <time>2021-07-11T08:11:37Z</time>
      </trkpt>
      <trkpt lat="47.76403" lon="-3.54206">
        <ele>14.2</ele>
        <time>2021-07-11T08:11:36Z</time>
      </trkpt>
      <trkpt lat="47.76402" lon="-3.54206">
        <ele>14.2</ele>
        <time>2021-07-11T08:11:35Z</time>
      </trkpt>
      <trkpt lat="47.76401" lon="-3.54206">
        <ele>14.2</ele>
        <time>2021-07-11T08:11:34Z</time>
      </trkpt>
      <trkpt lat="47.764" lon="-3.54205">
        <ele>14.2</ele>
        <time>2021-07-11T08:11:33Z</time>
      </trkpt>
      <trkpt lat="47.76399" lon="-3.54205">
        <ele>14.2</ele>
        <time>2021-07-11T08:11:32Z</time>
      </trkpt>
      <trkpt lat="47.76398" lon="-3.54205">
        <ele>14.1</ele>
        <time>2021-07-11T08:11:31Z</time>
      </trkpt>
      <trkpt lat="47.76396" lon="-3.54206">
        <ele>14.1</ele>
        <time>2021-07-11T08:11:30Z</time>
      </trkpt>
      <trkpt lat="47.76395" lon="-3.54208">
        <ele>14.1</ele>
        <time>2021-07-11T08:11:29Z</time>
      </trkpt>
      <trkpt lat="47.76394" lon="-3.5421">
        <ele>14</ele>
        <time>2021-07-11T08:11:28Z</time>
      </trkpt>
      <trkpt lat="47.76393" lon="-3.54212">
        <ele>14</ele>
        <time>2021-07-11T08:11:27Z</time>
      </trkpt>
      <trkpt lat="47.76392" lon="-3.54214">
        <ele>14</ele>
        <time>2021-07-11T08:11:26Z</time>
      </trkpt>
      <trkpt lat="47.76391" lon="-3.54215">
        <ele>13.9</ele>
        <time>2021-07-11T08:11:25Z</time>
      </trkpt>
      <trkpt lat="47.7639" lon="-3.54217">
        <ele>13.9</ele>
        <time>2021-07-11T08:11:24Z</time>
      </trkpt>
      <trkpt lat="47.76388" lon="-3.54218">
        <ele>13.9</ele>
        <time>2021-07-11T08:11:23Z</time>
      </trkpt>
      <trkpt lat="47.76387" lon="-3.54219">
        <ele>13.9</ele>
        <time>2021-07-11T08:11:22Z</time>
      </trkpt>
      <trkpt lat="47.76386" lon="-3.5422">
        <ele>13.9</ele>
        <time>2021-07-11T08:11:21Z</time>
      </trkpt>
      <trkpt lat="47.76385" lon="-3.5422">
        <ele>13.9</ele>
        <time>2021-07-11T08:11:20Z</time>
      </trkpt>
      <trkpt lat="47.76384" lon="-3.5422">
        <ele>13.9</ele>
        <time>2021-07-11T08:11:19Z</time>
      </trkpt>
      <trkpt lat="47.76382" lon="-3.54219">
        <ele>13.9</ele>
        <time>2021-07-11T08:11:18Z</time>
      </trkpt>
      <trkpt lat="47.76381" lon="-3.54218">
        <ele>13.9</ele>
        <time>2021-07-11T08:11:17Z</time>
      </trkpt>
      <trkpt lat="47.7638" lon="-3.54217">
        <ele>14</ele>
        <time>2021-07-11T08:11:16Z</time>
      </trkpt>
      <trkpt lat="47.76378" lon="-3.54215">
        <ele>14</ele>
        <time>2021-07-11T08:11:15Z</time>
      </trkpt>
      <trkpt lat="47.76377" lon="-3.54213">
        <ele>14</ele>
        <time>2021-07-11T08:11:14Z</time>
      </trkpt>
      <trkpt lat="47.76376" lon="-3.54211">
        <ele>14.1</ele>
        <time>2021-07-11T08:11:13Z</time>
      </trkpt>
      <trkpt lat="47.76375" lon="-3.54209">
        <ele>14.1</ele>
        <time>2021-07-11T08:11:12Z</time>
      </trkpt>
      <trkpt lat="47.76374" lon="-3.54207">
        <ele>14.2</ele>
        <time>2021-07-11T08:11:11Z</time>
      </trkpt>
      <trkpt lat="47.76374" lon="-3.54205">
        <ele>14.2</ele>
        <time>2021-07-11T08:11:10Z</time>
      </trkpt>
      <trkpt lat="47.76373" lon="-3.54203">
        <ele>14.3</ele>
        <time>2021-07-11T08:11:09Z</time>
      </trkpt>
      <trkpt lat="47.76373" lon="-3.54201">
        <ele>14.3</ele>
        <time>2021-07-11T08:11:08Z</time>
      </trkpt>
      <trkpt lat="47.76372" lon="-3.54199">
        <ele>14.3</ele>
        <time>2021-07-11T08:11:07Z</time>
      </trkpt>
      <trkpt lat="47.76372" lon="-3.54197">
        <ele>14.3</ele>
        <time>2021-07-11T08:11:06Z</time>
      </trkpt>
      <trkpt lat="47.76372" lon="-3.54196">
        <ele>14.4</ele>
        <time>2021-07-11T08:11:05Z</time>
      </trkpt>
      <trkpt lat="47.76371" lon="-3.54194">
        <ele>14.4</ele>
        <time>2021-07-11T08:11:04Z</time>
      </trkpt>
      <trkpt lat="47.7637" lon="-3.54192">
        <ele>14.4</ele>
        <time>2021-07-11T08:11:03Z</time>
      </trkpt>
      <trkpt lat="47.76369" lon="-3.5419">
        <ele>14.4</ele>
        <time>2021-07-11T08:11:02Z</time>
      </trkpt>
      <trkpt lat="47.76368" lon="-3.54189">
        <ele>14.4</ele>
        <time>2021-07-11T08:11:01Z</time>
      </trkpt>
      <trkpt lat="47.76367" lon="-3.54187">
        <ele>14.4</ele>
        <time>2021-07-11T08:11:00Z</time>
      </trkpt>
      <trkpt lat="47.76366" lon="-3.54185">
        <ele>14.4</ele>
        <time>2021-07-11T08:10:59Z</time>
      </trkpt>
      <trkpt lat="47.76364" lon="-3.54184">
        <ele>14.3</ele>
        <time>2021-07-11T08:10:58Z</time>
      </trkpt>
      <trkpt lat="47.76363" lon="-3.54183">
        <ele>14.3</ele>
        <time>2021-07-11T08:10:57Z</time>
      </trkpt>
      <trkpt lat="47.76363" lon="-3.54183">
        <ele>14.3</ele>
        <time>2021-07-11T08:10:56Z</time>
      </trkpt>
      <trkpt lat="47.76362" lon="-3.54182">
        <ele>14.3</ele>
        <time>2021-07-11T08:10:55Z</time>
      </trkpt>
      <trkpt lat="47.76362" lon="-3.54182">
        <ele>14.3</ele>
        <time>2021-07-11T08:10:54Z</time>
      </trkpt>
      <trkpt lat="47.76361" lon="-3.5418">
        <ele>14.2</ele>
        <time>2021-07-11T08:10:53Z</time>
      </trkpt>
      <trkpt lat="47.7636" lon="-3.54179">
        <ele>14.2</ele>
        <time>2021-07-11T08:10:52Z</time>
      </trkpt>
      <trkpt lat="47.76359" lon="-3.54178">
        <ele>14.1</ele>
        <time>2021-07-11T08:10:51Z</time>
      </trkpt>
      <trkpt lat="47.76358" lon="-3.54178">
        <ele>14.1</ele>
        <time>2021-07-11T08:10:50Z</time>
      </trkpt>
      <trkpt lat="47.76357" lon="-3.54177">
        <ele>14.1</ele>
        <time>2021-07-11T08:10:49Z</time>
      </trkpt>
      <trkpt lat="47.76356" lon="-3.54176">
        <ele>14</ele>
        <time>2021-07-11T08:10:48Z</time>
      </trkpt>
      <trkpt lat="47.76355" lon="-3.54175">
        <ele>14</ele>
        <time>2021-07-11T08:10:47Z</time>
      </trkpt>
      <trkpt lat="47.76353" lon="-3.54174">
        <ele>13.9</ele>
        <time>2021-07-11T08:10:46Z</time>
      </trkpt>
      <trkpt lat="47.76352" lon="-3.54172">
        <ele>13.8</ele>
        <time>2021-07-11T08:10:45Z</time>
      </trkpt>
      <trkpt lat="47.76351" lon="-3.54171">
        <ele>13.8</ele>
        <time>2021-07-11T08:10:44Z</time>
      </trkpt>
      <trkpt lat="47.76349" lon="-3.5417">
        <ele>13.7</ele>
        <time>2021-07-11T08:10:43Z</time>
      </trkpt>
      <trkpt lat="47.76348" lon="-3.54168">
        <ele>13.7</ele>
        <time>2021-07-11T08:10:42Z</time>
      </trkpt>
      <trkpt lat="47.76347" lon="-3.54166">
        <ele>13.6</ele>
        <time>2021-07-11T08:10:41Z</time>
      </trkpt>
      <trkpt lat="47.76346" lon="-3.54164">
        <ele>13.6</ele>
        <time>2021-07-11T08:10:40Z</time>
      </trkpt>
      <trkpt lat="47.76346" lon="-3.54162">
        <ele>13.5</ele>
        <time>2021-07-11T08:10:39Z</time>
      </trkpt>
      <trkpt lat="47.76346" lon="-3.5416">
        <ele>13.5</ele>
        <time>2021-07-11T08:10:38Z</time>
      </trkpt>
      <trkpt lat="47.76345" lon="-3.54158">
        <ele>13.5</ele>
        <time>2021-07-11T08:10:37Z</time>
      </trkpt>
      <trkpt lat="47.76346" lon="-3.54156">
        <ele>13.5</ele>
        <time>2021-07-11T08:10:36Z</time>
      </trkpt>
      <trkpt lat="47.76346" lon="-3.54154">
        <ele>13.4</ele>
        <time>2021-07-11T08:10:35Z</time>
      </trkpt>
      <trkpt lat="47.76346" lon="-3.54151">
        <ele>13.4</ele>
        <time>2021-07-11T08:10:34Z</time>
      </trkpt>
      <trkpt lat="47.76346" lon="-3.54149">
        <ele>13.4</ele>
        <time>2021-07-11T08:10:33Z</time>
      </trkpt>
      <trkpt lat="47.76347" lon="-3.54147">
        <ele>13.4</ele>
        <time>2021-07-11T08:10:32Z</time>
      </trkpt>
      <trkpt lat="47.76347" lon="-3.54145">
        <ele>13.4</ele>
        <time>2021-07-11T08:10:31Z</time>
      </trkpt>
      <trkpt lat="47.76348" lon="-3.54144">
        <ele>13.4</ele>
        <time>2021-07-11T08:10:30Z</time>
      </trkpt>
      <trkpt lat="47.76349" lon="-3.54142">
        <ele>13.4</ele>
        <time>2021-07-11T08:10:29Z</time>
      </trkpt>
      <trkpt lat="47.76349" lon="-3.5414">
        <ele>13.4</ele>
        <time>2021-07-11T08:10:28Z</time>
      </trkpt>
      <trkpt lat="47.7635" lon="-3.54138">
        <ele>13.4</ele>
        <time>2021-07-11T08:10:27Z</time>
      </trkpt>
      <trkpt lat="47.7635" lon="-3.54136">
        <ele>13.4</ele>
        <time>2021-07-11T08:10:26Z</time>
      </trkpt>
      <trkpt lat="47.76351" lon="-3.54135">
        <ele>13.3</ele>
        <time>2021-07-11T08:10:25Z</time>
      </trkpt>
      <trkpt lat="47.76352" lon="-3.54133">
        <ele>13.3</ele>
        <time>2021-07-11T08:10:24Z</time>
      </trkpt>
      <trkpt lat="47.76352" lon="-3.54131">
        <ele>13.3</ele>
        <time>2021-07-11T08:10:23Z</time>
      </trkpt>
      <trkpt lat="47.76353" lon="-3.54129">
        <ele>13.3</ele>
        <time>2021-07-11T08:10:22Z</time>
      </trkpt>
      <trkpt lat="47.76353" lon="-3.54127">
        <ele>13.3</ele>
        <time>2021-07-11T08:10:21Z</time>
      </trkpt>
      <trkpt lat="47.76354" lon="-3.54125">
        <ele>13.3</ele>
        <time>2021-07-11T08:10:20Z</time>
      </trkpt>
      <trkpt lat="47.76354" lon="-3.54124">
        <ele>13.3</ele>
        <time>2021-07-11T08:10:19Z</time>
      </trkpt>
      <trkpt lat="47.76355" lon="-3.54122">
        <ele>13.3</ele>
        <time>2021-07-11T08:10:18Z</time>
      </trkpt>
      <trkpt lat="47.76355" lon="-3.54121">
        <ele>13.3</ele>
        <time>2021-07-11T08:10:17Z</time>
      </trkpt>
      <trkpt lat="47.76355" lon="-3.54119">
        <ele>13.3</ele>
        <time>2021-07-11T08:10:16Z</time>
      </trkpt>
      <trkpt lat="47.76356" lon="-3.54119">
        <ele>13.3</ele>
        <time>2021-07-11T08:10:15Z</time>
      </trkpt>
      <trkpt lat="47.76356" lon="-3.54119">
        <ele>13.3</ele>
        <time>2021-07-11T08:10:14Z</time>
      </trkpt>
      <trkpt lat="47.76356" lon="-3.54118">
        <ele>13.3</ele>
        <time>2021-07-11T08:10:13Z</time>
      </trkpt>
      <trkpt lat="47.76356" lon="-3.54118">
        <ele>13.3</ele>
        <time>2021-07-11T08:10:12Z</time>
      </trkpt>
      <trkpt lat="47.76356" lon="-3.54117">
        <ele>13.3</ele>
        <time>2021-07-11T08:10:11Z</time>
      </trkpt>
      <trkpt lat="47.76356" lon="-3.54115">
        <ele>13.2</ele>
        <time>2021-07-11T08:10:10Z</time>
      </trkpt>
      <trkpt lat="47.76356" lon="-3.54113">
        <ele>13.2</ele>
        <time>2021-07-11T08:10:09Z</time>
      </trkpt>
      <trkpt lat="47.76356" lon="-3.54112">
        <ele>13.2</ele>
        <time>2021-07-11T08:10:08Z</time>
      </trkpt>
      <trkpt lat="47.76357" lon="-3.5411">
        <ele>13.2</ele>
        <time>2021-07-11T08:10:07Z</time>
      </trkpt>
      <trkpt lat="47.76357" lon="-3.54108">
        <ele>13.2</ele>
        <time>2021-07-11T08:10:06Z</time>
      </trkpt>
      <trkpt lat="47.76357" lon="-3.54106">
        <ele>13.2</ele>
        <time>2021-07-11T08:10:05Z</time>
      </trkpt>
      <trkpt lat="47.76357" lon="-3.54104">
        <ele>13.2</ele>
        <time>2021-07-11T08:10:04Z</time>
      </trkpt>
      <trkpt lat="47.76357" lon="-3.54102">
        <ele>13.2</ele>
        <time>2021-07-11T08:10:03Z</time>
      </trkpt>
      <trkpt lat="47.76358" lon="-3.541">
        <ele>13.1</ele>
        <time>2021-07-11T08:10:02Z</time>
      </trkpt>
      <trkpt lat="47.76358" lon="-3.54098">
        <ele>13.1</ele>
        <time>2021-07-11T08:10:01Z</time>
      </trkpt>
      <trkpt lat="47.76358" lon="-3.54096">
        <ele>13.1</ele>
        <time>2021-07-11T08:10:00Z</time>
      </trkpt>
      <trkpt lat="47.76358" lon="-3.54094">
        <ele>13.1</ele>
        <time>2021-07-11T08:09:59Z</time>
      </trkpt>
      <trkpt lat="47.76359" lon="-3.54093">
        <ele>13.1</ele>
        <time>2021-07-11T08:09:58Z</time>
      </trkpt>
      <trkpt lat="47.76359" lon="-3.54091">
        <ele>13.1</ele>
        <time>2021-07-11T08:09:57Z</time>
      </trkpt>
      <trkpt lat="47.76359" lon="-3.54089">
        <ele>13</ele>
        <time>2021-07-11T08:09:56Z</time>
      </trkpt>
      <trkpt lat="47.76359" lon="-3.54087">
        <ele>13</ele>
        <time>2021-07-11T08:09:55Z</time>
      </trkpt>
      <trkpt lat="47.76359" lon="-3.54084">
        <ele>13</ele>
        <time>2021-07-11T08:09:54Z</time>
      </trkpt>
      <trkpt lat="47.76359" lon="-3.54082">
        <ele>13</ele>
        <time>2021-07-11T08:09:53Z</time>
      </trkpt>
      <trkpt lat="47.76359" lon="-3.5408">
        <ele>13</ele>
        <time>2021-07-11T08:09:52Z</time>
      </trkpt>
      <trkpt lat="47.76359" lon="-3.54078">
        <ele>12.9</ele>
        <time>2021-07-11T08:09:51Z</time>
      </trkpt>
      <trkpt lat="47.76359" lon="-3.54076">
        <ele>12.9</ele>
        <time>2021-07-11T08:09:50Z</time>
      </trkpt>
      <trkpt lat="47.76358" lon="-3.54074">
        <ele>12.9</ele>
        <time>2021-07-11T08:09:49Z</time>
      </trkpt>
      <trkpt lat="47.76358" lon="-3.54071">
        <ele>12.9</ele>
        <time>2021-07-11T08:09:48Z</time>
      </trkpt>
      <trkpt lat="47.76357" lon="-3.54069">
        <ele>12.8</ele>
        <time>2021-07-11T08:09:47Z</time>
      </trkpt>
      <trkpt lat="47.76357" lon="-3.54067">
        <ele>12.8</ele>
        <time>2021-07-11T08:09:46Z</time>
      </trkpt>
      <trkpt lat="47.76356" lon="-3.54065">
        <ele>12.8</ele>
        <time>2021-07-11T08:09:45Z</time>
      </trkpt>
      <trkpt lat="47.76355" lon="-3.54064">
        <ele>12.8</ele>
        <time>2021-07-11T08:09:44Z</time>
      </trkpt>
      <trkpt lat="47.76354" lon="-3.54063">
        <ele>12.8</ele>
        <time>2021-07-11T08:09:43Z</time>
      </trkpt>
      <trkpt lat="47.76353" lon="-3.54062">
        <ele>12.9</ele>
        <time>2021-07-11T08:09:42Z</time>
      </trkpt>
      <trkpt lat="47.76351" lon="-3.54061">
        <ele>12.9</ele>
        <time>2021-07-11T08:09:41Z</time>
      </trkpt>
      <trkpt lat="47.7635" lon="-3.5406">
        <ele>12.9</ele>
        <time>2021-07-11T08:09:40Z</time>
      </trkpt>
      <trkpt lat="47.76349" lon="-3.54059">
        <ele>12.9</ele>
        <time>2021-07-11T08:09:39Z</time>
      </trkpt>
      <trkpt lat="47.76349" lon="-3.54057">
        <ele>13</ele>
        <time>2021-07-11T08:09:38Z</time>
      </trkpt>
      <trkpt lat="47.76348" lon="-3.54056">
        <ele>13</ele>
        <time>2021-07-11T08:09:37Z</time>
      </trkpt>
      <trkpt lat="47.76347" lon="-3.54054">
        <ele>13</ele>
        <time>2021-07-11T08:09:36Z</time>
      </trkpt>
      <trkpt lat="47.76346" lon="-3.54053">
        <ele>13.1</ele>
        <time>2021-07-11T08:09:35Z</time>
      </trkpt>
      <trkpt lat="47.76346" lon="-3.54051">
        <ele>13.2</ele>
        <time>2021-07-11T08:09:34Z</time>
      </trkpt>
      <trkpt lat="47.76345" lon="-3.5405">
        <ele>13.2</ele>
        <time>2021-07-11T08:09:33Z</time>
      </trkpt>
      <trkpt lat="47.76344" lon="-3.54048">
        <ele>13.3</ele>
        <time>2021-07-11T08:09:32Z</time>
      </trkpt>
      <trkpt lat="47.76343" lon="-3.54047">
        <ele>13.4</ele>
        <time>2021-07-11T08:09:31Z</time>
      </trkpt>
      <trkpt lat="47.76342" lon="-3.54045">
        <ele>13.4</ele>
        <time>2021-07-11T08:09:30Z</time>
      </trkpt>
      <trkpt lat="47.76342" lon="-3.54044">
        <ele>13.5</ele>
        <time>2021-07-11T08:09:29Z</time>
      </trkpt>
      <trkpt lat="47.76341" lon="-3.54042">
        <ele>13.6</ele>
        <time>2021-07-11T08:09:28Z</time>
      </trkpt>
      <trkpt lat="47.7634" lon="-3.54041">
        <ele>13.6</ele>
        <time>2021-07-11T08:09:27Z</time>
      </trkpt>
      <trkpt lat="47.76339" lon="-3.54039">
        <ele>13.7</ele>
        <time>2021-07-11T08:09:26Z</time>
      </trkpt>
      <trkpt lat="47.76339" lon="-3.54038">
        <ele>13.8</ele>
        <time>2021-07-11T08:09:25Z</time>
      </trkpt>
      <trkpt lat="47.76338" lon="-3.54036">
        <ele>13.9</ele>
        <time>2021-07-11T08:09:24Z</time>
      </trkpt>
      <trkpt lat="47.76337" lon="-3.54035">
        <ele>14</ele>
        <time>2021-07-11T08:09:23Z</time>
      </trkpt>
      <trkpt lat="47.76336" lon="-3.54033">
        <ele>14</ele>
        <time>2021-07-11T08:09:22Z</time>
      </trkpt>
      <trkpt lat="47.76336" lon="-3.54032">
        <ele>14.1</ele>
        <time>2021-07-11T08:09:21Z</time>
      </trkpt>
      <trkpt lat="47.76335" lon="-3.5403">
        <ele>14.2</ele>
        <time>2021-07-11T08:09:20Z</time>
      </trkpt>
      <trkpt lat="47.76334" lon="-3.54029">
        <ele>14.3</ele>
        <time>2021-07-11T08:09:19Z</time>
      </trkpt>
      <trkpt lat="47.76333" lon="-3.54027">
        <ele>14.4</ele>
        <time>2021-07-11T08:09:18Z</time>
      </trkpt>
      <trkpt lat="47.76332" lon="-3.54026">
        <ele>14.5</ele>
        <time>2021-07-11T08:09:17Z</time>
      </trkpt>
      <trkpt lat="47.76332" lon="-3.54024">
        <ele>14.6</ele>
        <time>2021-07-11T08:09:16Z</time>
      </trkpt>
      <trkpt lat="47.76331" lon="-3.54023">
        <ele>14.6</ele>
        <time>2021-07-11T08:09:15Z</time>
      </trkpt>
      <trkpt lat="47.7633" lon="-3.54021">
        <ele>14.7</ele>
        <time>2021-07-11T08:09:14Z</time>
      </trkpt>
      <trkpt lat="47.76329" lon="-3.5402">
        <ele>14.8</ele>
        <time>2021-07-11T08:09:13Z</time>
      </trkpt>
      <trkpt lat="47.76329" lon="-3.54018">
        <ele>14.9</ele>
        <time>2021-07-11T08:09:12Z</time>
      </trkpt>
      <trkpt lat="47.76328" lon="-3.54017">
        <ele>15</ele>
        <time>2021-07-11T08:09:11Z</time>
      </trkpt>
      <trkpt lat="47.76327" lon="-3.54015">
        <ele>15.1</ele>
        <time>2021-07-11T08:09:10Z</time>
      </trkpt>
      <trkpt lat="47.76326" lon="-3.54012">
        <ele>15.3</ele>
        <time>2021-07-11T08:09:09Z</time>
      </trkpt>
      <trkpt lat="47.76325" lon="-3.5401">
        <ele>15.4</ele>
        <time>2021-07-11T08:09:08Z</time>
      </trkpt>
      <trkpt lat="47.76324" lon="-3.54008">
        <ele>15.5</ele>
        <time>2021-07-11T08:09:07Z</time>
      </trkpt>
      <trkpt lat="47.76324" lon="-3.54006">
        <ele>15.6</ele>
        <time>2021-07-11T08:09:06Z</time>
      </trkpt>
      <trkpt lat="47.76323" lon="-3.54005">
        <ele>15.7</ele>
        <time>2021-07-11T08:09:05Z</time>
      </trkpt>
      <trkpt lat="47.76322" lon="-3.54003">
        <ele>15.8</ele>
        <time>2021-07-11T08:09:04Z</time>
      </trkpt>
      <trkpt lat="47.76321" lon="-3.54001">
        <ele>15.9</ele>
        <time>2021-07-11T08:09:03Z</time>
      </trkpt>
      <trkpt lat="47.7632" lon="-3.53999">
        <ele>16</ele>
        <time>2021-07-11T08:09:02Z</time>
      </trkpt>
      <trkpt lat="47.76319" lon="-3.53998">
        <ele>16</ele>
        <time>2021-07-11T08:09:01Z</time>
      </trkpt>
      <trkpt lat="47.76318" lon="-3.53996">
        <ele>16.1</ele>
        <time>2021-07-11T08:09:00Z</time>
      </trkpt>
      <trkpt lat="47.76317" lon="-3.53995">
        <ele>16.2</ele>
        <time>2021-07-11T08:08:59Z</time>
      </trkpt>
      <trkpt lat="47.76316" lon="-3.53993">
        <ele>16.3</ele>
        <time>2021-07-11T08:08:58Z</time>
      </trkpt>
      <trkpt lat="47.76315" lon="-3.53992">
        <ele>16.3</ele>
        <time>2021-07-11T08:08:57Z</time>
      </trkpt>
      <trkpt lat="47.76314" lon="-3.53991">
        <ele>16.4</ele>
        <time>2021-07-11T08:08:56Z</time>
      </trkpt>
      <trkpt lat="47.76313" lon="-3.53989">
        <ele>16.5</ele>
        <time>2021-07-11T08:08:55Z</time>
      </trkpt>
      <trkpt lat="47.76312" lon="-3.53988">
        <ele>16.5</ele>
        <time>2021-07-11T08:08:54Z</time>
      </trkpt>
      <trkpt lat="47.76312" lon="-3.53987">
        <ele>16.6</ele>
        <time>2021-07-11T08:08:53Z</time>
      </trkpt>
      <trkpt lat="47.76311" lon="-3.53986">
        <ele>16.6</ele>
        <time>2021-07-11T08:08:52Z</time>
      </trkpt>
      <trkpt lat="47.7631" lon="-3.53984">
        <ele>16.7</ele>
        <time>2021-07-11T08:08:51Z</time>
      </trkpt>
      <trkpt lat="47.76309" lon="-3.53983">
        <ele>16.7</ele>
        <time>2021-07-11T08:08:50Z</time>
      </trkpt>
      <trkpt lat="47.76308" lon="-3.53982">
        <ele>16.7</ele>
        <time>2021-07-11T08:08:49Z</time>
      </trkpt>
      <trkpt lat="47.76307" lon="-3.53981">
        <ele>16.7</ele>
        <time>2021-07-11T08:08:48Z</time>
      </trkpt>
      <trkpt lat="47.76306" lon="-3.53979">
        <ele>16.7</ele>
        <time>2021-07-11T08:08:47Z</time>
      </trkpt>
      <trkpt lat="47.76305" lon="-3.53978">
        <ele>16.8</ele>
        <time>2021-07-11T08:08:46Z</time>
      </trkpt>
      <trkpt lat="47.76304" lon="-3.53977">
        <ele>16.8</ele>
        <time>2021-07-11T08:08:45Z</time>
      </trkpt>
      <trkpt lat="47.76303" lon="-3.53975">
        <ele>16.8</ele>
        <time>2021-07-11T08:08:44Z</time>
      </trkpt>
      <trkpt lat="47.76302" lon="-3.53974">
        <ele>16.8</ele>
        <time>2021-07-11T08:08:43Z</time>
      </trkpt>
      <trkpt lat="47.76301" lon="-3.53972">
        <ele>16.7</ele>
        <time>2021-07-11T08:08:42Z</time>
      </trkpt>
      <trkpt lat="47.763" lon="-3.5397">
        <ele>16.7</ele>
        <time>2021-07-11T08:08:41Z</time>
      </trkpt>
      <trkpt lat="47.76299" lon="-3.53969">
        <ele>16.7</ele>
        <time>2021-07-11T08:08:40Z</time>
      </trkpt>
      <trkpt lat="47.76298" lon="-3.53967">
        <ele>16.6</ele>
        <time>2021-07-11T08:08:39Z</time>
      </trkpt>
      <trkpt lat="47.76297" lon="-3.53965">
        <ele>16.6</ele>
        <time>2021-07-11T08:08:38Z</time>
      </trkpt>
      <trkpt lat="47.76296" lon="-3.53964">
        <ele>16.6</ele>
        <time>2021-07-11T08:08:37Z</time>
      </trkpt>
      <trkpt lat="47.76295" lon="-3.53962">
        <ele>16.5</ele>
        <time>2021-07-11T08:08:36Z</time>
      </trkpt>
      <trkpt lat="47.76294" lon="-3.5396">
        <ele>16.4</ele>
        <time>2021-07-11T08:08:35Z</time>
      </trkpt>
      <trkpt lat="47.76293" lon="-3.53959">
        <ele>16.4</ele>
        <time>2021-07-11T08:08:34Z</time>
      </trkpt>
      <trkpt lat="47.76292" lon="-3.53957">
        <ele>16.3</ele>
        <time>2021-07-11T08:08:33Z</time>
      </trkpt>
      <trkpt lat="47.76291" lon="-3.53955">
        <ele>16.2</ele>
        <time>2021-07-11T08:08:32Z</time>
      </trkpt>
      <trkpt lat="47.76289" lon="-3.53954">
        <ele>16.1</ele>
        <time>2021-07-11T08:08:31Z</time>
      </trkpt>
      <trkpt lat="47.76289" lon="-3.53952">
        <ele>16.1</ele>
        <time>2021-07-11T08:08:30Z</time>
      </trkpt>
      <trkpt lat="47.76289" lon="-3.5395">
        <ele>16</ele>
        <time>2021-07-11T08:08:29Z</time>
      </trkpt>
      <trkpt lat="47.76289" lon="-3.53948">
        <ele>16</ele>
        <time>2021-07-11T08:08:28Z</time>
      </trkpt>
      <trkpt lat="47.76289" lon="-3.53947">
        <ele>15.9</ele>
        <time>2021-07-11T08:08:27Z</time>
      </trkpt>
      <trkpt lat="47.76289" lon="-3.53945">
        <ele>15.8</ele>
        <time>2021-07-11T08:08:26Z</time>
      </trkpt>
      <trkpt lat="47.76289" lon="-3.53943">
        <ele>15.8</ele>
        <time>2021-07-11T08:08:25Z</time>
      </trkpt>
      <trkpt lat="47.76289" lon="-3.53941">
        <ele>15.7</ele>
        <time>2021-07-11T08:08:24Z</time>
      </trkpt>
      <trkpt lat="47.76288" lon="-3.5394">
        <ele>15.7</ele>
        <time>2021-07-11T08:08:23Z</time>
      </trkpt>
      <trkpt lat="47.76288" lon="-3.53938">
        <ele>15.6</ele>
        <time>2021-07-11T08:08:22Z</time>
      </trkpt>
      <trkpt lat="47.76288" lon="-3.53936">
        <ele>15.5</ele>
        <time>2021-07-11T08:08:21Z</time>
      </trkpt>
      <trkpt lat="47.76288" lon="-3.53934">
        <ele>15.5</ele>
        <time>2021-07-11T08:08:20Z</time>
      </trkpt>
      <trkpt lat="47.76288" lon="-3.53932">
        <ele>15.4</ele>
        <time>2021-07-11T08:08:19Z</time>
      </trkpt>
      <trkpt lat="47.76288" lon="-3.53931">
        <ele>15.3</ele>
        <time>2021-07-11T08:08:18Z</time>
      </trkpt>
      <trkpt lat="47.76288" lon="-3.53929">
        <ele>15.3</ele>
        <time>2021-07-11T08:08:17Z</time>
      </trkpt>
      <trkpt lat="47.76288" lon="-3.53927">
        <ele>15.2</ele>
        <time>2021-07-11T08:08:16Z</time>
      </trkpt>
      <trkpt lat="47.76287" lon="-3.53925">
        <ele>15.1</ele>
        <time>2021-07-11T08:08:15Z</time>
      </trkpt>
      <trkpt lat="47.76287" lon="-3.53924">
        <ele>15.1</ele>
        <time>2021-07-11T08:08:14Z</time>
      </trkpt>
      <trkpt lat="47.76287" lon="-3.53922">
        <ele>15</ele>
        <time>2021-07-11T08:08:13Z</time>
      </trkpt>
      <trkpt lat="47.76288" lon="-3.53918">
        <ele>14.9</ele>
        <time>2021-07-11T08:08:12Z</time>
      </trkpt>
      <trkpt lat="47.76289" lon="-3.53917">
        <ele>14.8</ele>
        <time>2021-07-11T08:08:11Z</time>
      </trkpt>
      <trkpt lat="47.76289" lon="-3.53915">
        <ele>14.8</ele>
        <time>2021-07-11T08:08:10Z</time>
      </trkpt>
      <trkpt lat="47.76289" lon="-3.53913">
        <ele>14.7</ele>
        <time>2021-07-11T08:08:09Z</time>
      </trkpt>
      <trkpt lat="47.76289" lon="-3.53911">
        <ele>14.7</ele>
        <time>2021-07-11T08:08:08Z</time>
      </trkpt>
      <trkpt lat="47.76289" lon="-3.5391">
        <ele>14.6</ele>
        <time>2021-07-11T08:08:07Z</time>
      </trkpt>
      <trkpt lat="47.7629" lon="-3.53908">
        <ele>14.6</ele>
        <time>2021-07-11T08:08:06Z</time>
      </trkpt>
      <trkpt lat="47.7629" lon="-3.53906">
        <ele>14.5</ele>
        <time>2021-07-11T08:08:05Z</time>
      </trkpt>
      <trkpt lat="47.7629" lon="-3.53904">
        <ele>14.4</ele>
        <time>2021-07-11T08:08:04Z</time>
      </trkpt>
      <trkpt lat="47.7629" lon="-3.53903">
        <ele>14.4</ele>
        <time>2021-07-11T08:08:03Z</time>
      </trkpt>
      <trkpt lat="47.7629" lon="-3.53901">
        <ele>14.3</ele>
        <time>2021-07-11T08:08:02Z</time>
      </trkpt>
      <trkpt lat="47.7629" lon="-3.53899">
        <ele>14.3</ele>
        <time>2021-07-11T08:08:01Z</time>
      </trkpt>
      <trkpt lat="47.7629" lon="-3.53898">
        <ele>14.2</ele>
        <time>2021-07-11T08:08:00Z</time>
      </trkpt>
      <trkpt lat="47.7629" lon="-3.53896">
        <ele>14.2</ele>
        <time>2021-07-11T08:07:59Z</time>
      </trkpt>
      <trkpt lat="47.76291" lon="-3.53894">
        <ele>14.1</ele>
        <time>2021-07-11T08:07:58Z</time>
      </trkpt>
      <trkpt lat="47.76291" lon="-3.53892">
        <ele>14.1</ele>
        <time>2021-07-11T08:07:57Z</time>
      </trkpt>
      <trkpt lat="47.76291" lon="-3.53891">
        <ele>14</ele>
        <time>2021-07-11T08:07:56Z</time>
      </trkpt>
      <trkpt lat="47.76291" lon="-3.53889">
        <ele>13.9</ele>
        <time>2021-07-11T08:07:55Z</time>
      </trkpt>
      <trkpt lat="47.76291" lon="-3.53887">
        <ele>13.9</ele>
        <time>2021-07-11T08:07:54Z</time>
      </trkpt>
      <trkpt lat="47.76291" lon="-3.53886">
        <ele>13.8</ele>
        <time>2021-07-11T08:07:53Z</time>
      </trkpt>
      <trkpt lat="47.76291" lon="-3.53884">
        <ele>13.7</ele>
        <time>2021-07-11T08:07:52Z</time>
      </trkpt>
      <trkpt lat="47.76292" lon="-3.53882">
        <ele>13.6</ele>
        <time>2021-07-11T08:07:51Z</time>
      </trkpt>
      <trkpt lat="47.76292" lon="-3.5388">
        <ele>13.6</ele>
        <time>2021-07-11T08:07:50Z</time>
      </trkpt>
      <trkpt lat="47.76292" lon="-3.53879">
        <ele>13.5</ele>
        <time>2021-07-11T08:07:49Z</time>
      </trkpt>
      <trkpt lat="47.76292" lon="-3.53877">
        <ele>13.4</ele>
        <time>2021-07-11T08:07:48Z</time>
      </trkpt>
      <trkpt lat="47.76292" lon="-3.53875">
        <ele>13.4</ele>
        <time>2021-07-11T08:07:47Z</time>
      </trkpt>
      <trkpt lat="47.76292" lon="-3.53874">
        <ele>13.3</ele>
        <time>2021-07-11T08:07:46Z</time>
      </trkpt>
      <trkpt lat="47.76292" lon="-3.53872">
        <ele>13.2</ele>
        <time>2021-07-11T08:07:45Z</time>
      </trkpt>
      <trkpt lat="47.76292" lon="-3.5387">
        <ele>13.2</ele>
        <time>2021-07-11T08:07:44Z</time>
      </trkpt>
      <trkpt lat="47.76293" lon="-3.53868">
        <ele>13.1</ele>
        <time>2021-07-11T08:07:43Z</time>
      </trkpt>
      <trkpt lat="47.76293" lon="-3.53867">
        <ele>13</ele>
        <time>2021-07-11T08:07:42Z</time>
      </trkpt>
      <trkpt lat="47.76293" lon="-3.53865">
        <ele>13</ele>
        <time>2021-07-11T08:07:41Z</time>
      </trkpt>
      <trkpt lat="47.76293" lon="-3.53863">
        <ele>12.9</ele>
        <time>2021-07-11T08:07:40Z</time>
      </trkpt>
      <trkpt lat="47.76293" lon="-3.53861">
        <ele>12.9</ele>
        <time>2021-07-11T08:07:39Z</time>
      </trkpt>
      <trkpt lat="47.76293" lon="-3.5386">
        <ele>12.9</ele>
        <time>2021-07-11T08:07:38Z</time>
      </trkpt>
      <trkpt lat="47.76293" lon="-3.53858">
        <ele>12.8</ele>
        <time>2021-07-11T08:07:37Z</time>
      </trkpt>
      <trkpt lat="47.76294" lon="-3.53856">
        <ele>12.8</ele>
        <time>2021-07-11T08:07:36Z</time>
      </trkpt>
      <trkpt lat="47.76294" lon="-3.53855">
        <ele>12.7</ele>
        <time>2021-07-11T08:07:35Z</time>
      </trkpt>
      <trkpt lat="47.76294" lon="-3.53851">
        <ele>12.7</ele>
        <time>2021-07-11T08:07:34Z</time>
      </trkpt>
      <trkpt lat="47.76295" lon="-3.53848">
        <ele>12.7</ele>
        <time>2021-07-11T08:07:33Z</time>
      </trkpt>
      <trkpt lat="47.76296" lon="-3.53846">
        <ele>12.6</ele>
        <time>2021-07-11T08:07:32Z</time>
      </trkpt>
      <trkpt lat="47.76296" lon="-3.53844">
        <ele>12.6</ele>
        <time>2021-07-11T08:07:31Z</time>
      </trkpt>
      <trkpt lat="47.76297" lon="-3.53842">
        <ele>12.6</ele>
        <time>2021-07-11T08:07:30Z</time>
      </trkpt>
      <trkpt lat="47.76297" lon="-3.53839">
        <ele>12.6</ele>
        <time>2021-07-11T08:07:29Z</time>
      </trkpt>
      <trkpt lat="47.76298" lon="-3.53837">
        <ele>12.6</ele>
        <time>2021-07-11T08:07:28Z</time>
      </trkpt>
      <trkpt lat="47.76298" lon="-3.53835">
        <ele>12.6</ele>
        <time>2021-07-11T08:07:27Z</time>
      </trkpt>
      <trkpt lat="47.76299" lon="-3.53833">
        <ele>12.6</ele>
        <time>2021-07-11T08:07:26Z</time>
      </trkpt>
      <trkpt lat="47.763" lon="-3.53831">
        <ele>12.6</ele>
        <time>2021-07-11T08:07:25Z</time>
      </trkpt>
      <trkpt lat="47.76301" lon="-3.53829">
        <ele>12.6</ele>
        <time>2021-07-11T08:07:24Z</time>
      </trkpt>
      <trkpt lat="47.76302" lon="-3.53827">
        <ele>12.6</ele>
        <time>2021-07-11T08:07:23Z</time>
      </trkpt>
      <trkpt lat="47.76303" lon="-3.53826">
        <ele>12.7</ele>
        <time>2021-07-11T08:07:22Z</time>
      </trkpt>
      <trkpt lat="47.76304" lon="-3.53824">
        <ele>12.7</ele>
        <time>2021-07-11T08:07:21Z</time>
      </trkpt>
      <trkpt lat="47.76306" lon="-3.53823">
        <ele>12.7</ele>
        <time>2021-07-11T08:07:20Z</time>
      </trkpt>
      <trkpt lat="47.76307" lon="-3.53822">
        <ele>12.8</ele>
        <time>2021-07-11T08:07:19Z</time>
      </trkpt>
      <trkpt lat="47.76308" lon="-3.53821">
        <ele>12.8</ele>
        <time>2021-07-11T08:07:18Z</time>
      </trkpt>
      <trkpt lat="47.7631" lon="-3.5382">
        <ele>12.9</ele>
        <time>2021-07-11T08:07:17Z</time>
      </trkpt>
      <trkpt lat="47.76311" lon="-3.53819">
        <ele>12.9</ele>
        <time>2021-07-11T08:07:16Z</time>
      </trkpt>
      <trkpt lat="47.76312" lon="-3.53818">
        <ele>13</ele>
        <time>2021-07-11T08:07:15Z</time>
      </trkpt>
      <trkpt lat="47.76313" lon="-3.53817">
        <ele>13</ele>
        <time>2021-07-11T08:07:14Z</time>
      </trkpt>
      <trkpt lat="47.76314" lon="-3.53816">
        <ele>13</ele>
        <time>2021-07-11T08:07:13Z</time>
      </trkpt>
      <trkpt lat="47.76315" lon="-3.53816">
        <ele>13.1</ele>
        <time>2021-07-11T08:07:12Z</time>
      </trkpt>
      <trkpt lat="47.76316" lon="-3.53815">
        <ele>13.1</ele>
        <time>2021-07-11T08:07:11Z</time>
      </trkpt>
      <trkpt lat="47.76317" lon="-3.53815">
        <ele>13.1</ele>
        <time>2021-07-11T08:07:10Z</time>
      </trkpt>
      <trkpt lat="47.76319" lon="-3.53815">
        <ele>13.2</ele>
        <time>2021-07-11T08:07:09Z</time>
      </trkpt>
      <trkpt lat="47.7632" lon="-3.53814">
        <ele>13.2</ele>
        <time>2021-07-11T08:07:08Z</time>
      </trkpt>
      <trkpt lat="47.76321" lon="-3.53814">
        <ele>13.2</ele>
        <time>2021-07-11T08:07:07Z</time>
      </trkpt>
      <trkpt lat="47.76322" lon="-3.53814">
        <ele>13.2</ele>
        <time>2021-07-11T08:07:06Z</time>
      </trkpt>
      <trkpt lat="47.76323" lon="-3.53814">
        <ele>13.3</ele>
        <time>2021-07-11T08:07:05Z</time>
      </trkpt>
      <trkpt lat="47.76324" lon="-3.53814">
        <ele>13.3</ele>
        <time>2021-07-11T08:07:04Z</time>
      </trkpt>
      <trkpt lat="47.76325" lon="-3.53815">
        <ele>13.3</ele>
        <time>2021-07-11T08:07:03Z</time>
      </trkpt>
      <trkpt lat="47.76326" lon="-3.53815">
        <ele>13.3</ele>
        <time>2021-07-11T08:07:02Z</time>
      </trkpt>
      <trkpt lat="47.76327" lon="-3.53815">
        <ele>13.3</ele>
        <time>2021-07-11T08:07:01Z</time>
      </trkpt>
      <trkpt lat="47.76329" lon="-3.53815">
        <ele>13.3</ele>
        <time>2021-07-11T08:07:00Z</time>
      </trkpt>
      <trkpt lat="47.7633" lon="-3.53816">
        <ele>13.3</ele>
        <time>2021-07-11T08:06:59Z</time>
      </trkpt>
      <trkpt lat="47.76331" lon="-3.53816">
        <ele>13.3</ele>
        <time>2021-07-11T08:06:58Z</time>
      </trkpt>
      <trkpt lat="47.76332" lon="-3.53816">
        <ele>13.2</ele>
        <time>2021-07-11T08:06:57Z</time>
      </trkpt>
      <trkpt lat="47.76334" lon="-3.53816">
        <ele>13.2</ele>
        <time>2021-07-11T08:06:56Z</time>
      </trkpt>
      <trkpt lat="47.76335" lon="-3.53816">
        <ele>13.2</ele>
        <time>2021-07-11T08:06:55Z</time>
      </trkpt>
      <trkpt lat="47.76336" lon="-3.53816">
        <ele>13.1</ele>
        <time>2021-07-11T08:06:54Z</time>
      </trkpt>
      <trkpt lat="47.76338" lon="-3.53816">
        <ele>13.1</ele>
        <time>2021-07-11T08:06:53Z</time>
      </trkpt>
      <trkpt lat="47.7634" lon="-3.53816">
        <ele>13</ele>
        <time>2021-07-11T08:06:52Z</time>
      </trkpt>
      <trkpt lat="47.76341" lon="-3.53816">
        <ele>12.9</ele>
        <time>2021-07-11T08:06:51Z</time>
      </trkpt>
      <trkpt lat="47.76343" lon="-3.53816">
        <ele>12.9</ele>
        <time>2021-07-11T08:06:50Z</time>
      </trkpt>
      <trkpt lat="47.76345" lon="-3.53816">
        <ele>12.8</ele>
        <time>2021-07-11T08:06:49Z</time>
      </trkpt>
      <trkpt lat="47.76347" lon="-3.53816">
        <ele>12.7</ele>
        <time>2021-07-11T08:06:48Z</time>
      </trkpt>
      <trkpt lat="47.76348" lon="-3.53816">
        <ele>12.7</ele>
        <time>2021-07-11T08:06:47Z</time>
      </trkpt>
      <trkpt lat="47.7635" lon="-3.53817">
        <ele>12.6</ele>
        <time>2021-07-11T08:06:46Z</time>
      </trkpt>
      <trkpt lat="47.76351" lon="-3.53818">
        <ele>12.5</ele>
        <time>2021-07-11T08:06:45Z</time>
      </trkpt>
      <trkpt lat="47.76352" lon="-3.53819">
        <ele>12.5</ele>
        <time>2021-07-11T08:06:44Z</time>
      </trkpt>
      <trkpt lat="47.76353" lon="-3.5382">
        <ele>12.4</ele>
        <time>2021-07-11T08:06:43Z</time>
      </trkpt>
      <trkpt lat="47.76354" lon="-3.53821">
        <ele>12.4</ele>
        <time>2021-07-11T08:06:42Z</time>
      </trkpt>
      <trkpt lat="47.76355" lon="-3.53822">
        <ele>12.4</ele>
        <time>2021-07-11T08:06:41Z</time>
      </trkpt>
      <trkpt lat="47.76356" lon="-3.53823">
        <ele>12.3</ele>
        <time>2021-07-11T08:06:40Z</time>
      </trkpt>
      <trkpt lat="47.76357" lon="-3.53825">
        <ele>12.3</ele>
        <time>2021-07-11T08:06:39Z</time>
      </trkpt>
      <trkpt lat="47.76358" lon="-3.53826">
        <ele>12.3</ele>
        <time>2021-07-11T08:06:38Z</time>
      </trkpt>
      <trkpt lat="47.76358" lon="-3.53828">
        <ele>12.3</ele>
        <time>2021-07-11T08:06:37Z</time>
      </trkpt>
      <trkpt lat="47.76359" lon="-3.53829">
        <ele>12.2</ele>
        <time>2021-07-11T08:06:36Z</time>
      </trkpt>
      <trkpt lat="47.7636" lon="-3.53831">
        <ele>12.2</ele>
        <time>2021-07-11T08:06:35Z</time>
      </trkpt>
      <trkpt lat="47.76361" lon="-3.53833">
        <ele>12.2</ele>
        <time>2021-07-11T08:06:34Z</time>
      </trkpt>
      <trkpt lat="47.76362" lon="-3.53834">
        <ele>12.2</ele>
        <time>2021-07-11T08:06:33Z</time>
      </trkpt>
      <trkpt lat="47.76363" lon="-3.53836">
        <ele>12.2</ele>
        <time>2021-07-11T08:06:32Z</time>
      </trkpt>
      <trkpt lat="47.76364" lon="-3.53837">
        <ele>12.2</ele>
        <time>2021-07-11T08:06:31Z</time>
      </trkpt>
      <trkpt lat="47.76365" lon="-3.53839">
        <ele>12.2</ele>
        <time>2021-07-11T08:06:30Z</time>
      </trkpt>
      <trkpt lat="47.76366" lon="-3.5384">
        <ele>12.2</ele>
        <time>2021-07-11T08:06:29Z</time>
      </trkpt>
      <trkpt lat="47.76367" lon="-3.53842">
        <ele>12.2</ele>
        <time>2021-07-11T08:06:28Z</time>
      </trkpt>
      <trkpt lat="47.76368" lon="-3.53843">
        <ele>12.1</ele>
        <time>2021-07-11T08:06:27Z</time>
      </trkpt>
      <trkpt lat="47.76369" lon="-3.53844">
        <ele>12.1</ele>
        <time>2021-07-11T08:06:26Z</time>
      </trkpt>
      <trkpt lat="47.7637" lon="-3.53845">
        <ele>12.1</ele>
        <time>2021-07-11T08:06:25Z</time>
      </trkpt>
      <trkpt lat="47.76371" lon="-3.53847">
        <ele>12.1</ele>
        <time>2021-07-11T08:06:24Z</time>
      </trkpt>
      <trkpt lat="47.76372" lon="-3.53848">
        <ele>12.1</ele>
        <time>2021-07-11T08:06:23Z</time>
      </trkpt>
      <trkpt lat="47.76373" lon="-3.53849">
        <ele>12.1</ele>
        <time>2021-07-11T08:06:22Z</time>
      </trkpt>
      <trkpt lat="47.76374" lon="-3.5385">
        <ele>12.1</ele>
        <time>2021-07-11T08:06:21Z</time>
      </trkpt>
      <trkpt lat="47.76375" lon="-3.53851">
        <ele>12.1</ele>
        <time>2021-07-11T08:06:20Z</time>
      </trkpt>
      <trkpt lat="47.76376" lon="-3.53853">
        <ele>12.1</ele>
        <time>2021-07-11T08:06:19Z</time>
      </trkpt>
      <trkpt lat="47.76377" lon="-3.53854">
        <ele>12.1</ele>
        <time>2021-07-11T08:06:18Z</time>
      </trkpt>
      <trkpt lat="47.76378" lon="-3.53855">
        <ele>12.1</ele>
        <time>2021-07-11T08:06:17Z</time>
      </trkpt>
      <trkpt lat="47.76379" lon="-3.53856">
        <ele>12.1</ele>
        <time>2021-07-11T08:06:16Z</time>
      </trkpt>
      <trkpt lat="47.7638" lon="-3.53858">
        <ele>12.1</ele>
        <time>2021-07-11T08:06:15Z</time>
      </trkpt>
      <trkpt lat="47.76382" lon="-3.5386">
        <ele>12.1</ele>
        <time>2021-07-11T08:06:14Z</time>
      </trkpt>
      <trkpt lat="47.76383" lon="-3.5386">
        <ele>12.1</ele>
        <time>2021-07-11T08:06:13Z</time>
      </trkpt>
      <trkpt lat="47.76385" lon="-3.5386">
        <ele>12.1</ele>
        <time>2021-07-11T08:06:12Z</time>
      </trkpt>
      <trkpt lat="47.76386" lon="-3.53861">
        <ele>12</ele>
        <time>2021-07-11T08:06:11Z</time>
      </trkpt>
      <trkpt lat="47.76388" lon="-3.53861">
        <ele>12</ele>
        <time>2021-07-11T08:06:10Z</time>
      </trkpt>
      <trkpt lat="47.76389" lon="-3.53861">
        <ele>12</ele>
        <time>2021-07-11T08:06:09Z</time>
      </trkpt>
      <trkpt lat="47.76391" lon="-3.53861">
        <ele>12</ele>
        <time>2021-07-11T08:06:08Z</time>
      </trkpt>
      <trkpt lat="47.76392" lon="-3.53861">
        <ele>12</ele>
        <time>2021-07-11T08:06:07Z</time>
      </trkpt>
      <trkpt lat="47.76394" lon="-3.53861">
        <ele>12</ele>
        <time>2021-07-11T08:06:06Z</time>
      </trkpt>
      <trkpt lat="47.76395" lon="-3.53861">
        <ele>11.9</ele>
        <time>2021-07-11T08:06:05Z</time>
      </trkpt>
      <trkpt lat="47.76397" lon="-3.53861">
        <ele>11.9</ele>
        <time>2021-07-11T08:06:04Z</time>
      </trkpt>
      <trkpt lat="47.76398" lon="-3.53861">
        <ele>11.9</ele>
        <time>2021-07-11T08:06:03Z</time>
      </trkpt>
      <trkpt lat="47.764" lon="-3.53861">
        <ele>11.9</ele>
        <time>2021-07-11T08:06:02Z</time>
      </trkpt>
      <trkpt lat="47.76401" lon="-3.53861">
        <ele>11.9</ele>
        <time>2021-07-11T08:06:01Z</time>
      </trkpt>
      <trkpt lat="47.76402" lon="-3.53861">
        <ele>11.9</ele>
        <time>2021-07-11T08:06:00Z</time>
      </trkpt>
      <trkpt lat="47.76404" lon="-3.53861">
        <ele>11.8</ele>
        <time>2021-07-11T08:05:59Z</time>
      </trkpt>
      <trkpt lat="47.76405" lon="-3.53862">
        <ele>11.8</ele>
        <time>2021-07-11T08:05:58Z</time>
      </trkpt>
      <trkpt lat="47.76407" lon="-3.53862">
        <ele>11.8</ele>
        <time>2021-07-11T08:05:57Z</time>
      </trkpt>
      <trkpt lat="47.76408" lon="-3.53862">
        <ele>11.8</ele>
        <time>2021-07-11T08:05:56Z</time>
      </trkpt>
      <trkpt lat="47.76409" lon="-3.53862">
        <ele>11.8</ele>
        <time>2021-07-11T08:05:55Z</time>
      </trkpt>
      <trkpt lat="47.76411" lon="-3.53863">
        <ele>11.8</ele>
        <time>2021-07-11T08:05:54Z</time>
      </trkpt>
      <trkpt lat="47.76412" lon="-3.53863">
        <ele>11.8</ele>
        <time>2021-07-11T08:05:53Z</time>
      </trkpt>
      <trkpt lat="47.76414" lon="-3.53864">
        <ele>11.8</ele>
        <time>2021-07-11T08:05:52Z</time>
      </trkpt>
      <trkpt lat="47.76415" lon="-3.53864">
        <ele>11.7</ele>
        <time>2021-07-11T08:05:51Z</time>
      </trkpt>
      <trkpt lat="47.76416" lon="-3.53865">
        <ele>11.7</ele>
        <time>2021-07-11T08:05:50Z</time>
      </trkpt>
      <trkpt lat="47.76418" lon="-3.53866">
        <ele>11.7</ele>
        <time>2021-07-11T08:05:49Z</time>
      </trkpt>
      <trkpt lat="47.76419" lon="-3.53866">
        <ele>11.7</ele>
        <time>2021-07-11T08:05:48Z</time>
      </trkpt>
      <trkpt lat="47.7642" lon="-3.53867">
        <ele>11.7</ele>
        <time>2021-07-11T08:05:47Z</time>
      </trkpt>
      <trkpt lat="47.76422" lon="-3.53868">
        <ele>11.7</ele>
        <time>2021-07-11T08:05:46Z</time>
      </trkpt>
      <trkpt lat="47.76423" lon="-3.53869">
        <ele>11.7</ele>
        <time>2021-07-11T08:05:45Z</time>
      </trkpt>
      <trkpt lat="47.76424" lon="-3.5387">
        <ele>11.7</ele>
        <time>2021-07-11T08:05:44Z</time>
      </trkpt>
      <trkpt lat="47.76425" lon="-3.5387">
        <ele>11.7</ele>
        <time>2021-07-11T08:05:43Z</time>
      </trkpt>
      <trkpt lat="47.76427" lon="-3.5387">
        <ele>11.7</ele>
        <time>2021-07-11T08:05:42Z</time>
      </trkpt>
      <trkpt lat="47.76428" lon="-3.53871">
        <ele>11.7</ele>
        <time>2021-07-11T08:05:41Z</time>
      </trkpt>
      <trkpt lat="47.76429" lon="-3.53871">
        <ele>11.7</ele>
        <time>2021-07-11T08:05:40Z</time>
      </trkpt>
      <trkpt lat="47.7643" lon="-3.53871">
        <ele>11.7</ele>
        <time>2021-07-11T08:05:39Z</time>
      </trkpt>
      <trkpt lat="47.76431" lon="-3.53871">
        <ele>11.7</ele>
        <time>2021-07-11T08:05:38Z</time>
      </trkpt>
      <trkpt lat="47.76432" lon="-3.53872">
        <ele>11.7</ele>
        <time>2021-07-11T08:05:37Z</time>
      </trkpt>
      <trkpt lat="47.76433" lon="-3.53872">
        <ele>11.7</ele>
        <time>2021-07-11T08:05:36Z</time>
      </trkpt>
      <trkpt lat="47.76434" lon="-3.53872">
        <ele>11.7</ele>
        <time>2021-07-11T08:05:35Z</time>
      </trkpt>
      <trkpt lat="47.76436" lon="-3.53873">
        <ele>11.7</ele>
        <time>2021-07-11T08:05:34Z</time>
      </trkpt>
      <trkpt lat="47.76437" lon="-3.53873">
        <ele>11.7</ele>
        <time>2021-07-11T08:05:33Z</time>
      </trkpt>
      <trkpt lat="47.76438" lon="-3.53873">
        <ele>11.7</ele>
        <time>2021-07-11T08:05:32Z</time>
      </trkpt>
      <trkpt lat="47.76439" lon="-3.53873">
        <ele>11.7</ele>
        <time>2021-07-11T08:05:31Z</time>
      </trkpt>
      <trkpt lat="47.7644" lon="-3.53874">
        <ele>11.7</ele>
        <time>2021-07-11T08:05:30Z</time>
      </trkpt>
      <trkpt lat="47.76441" lon="-3.53874">
        <ele>11.7</ele>
        <time>2021-07-11T08:05:29Z</time>
      </trkpt>
      <trkpt lat="47.76442" lon="-3.53874">
        <ele>11.7</ele>
        <time>2021-07-11T08:05:28Z</time>
      </trkpt>
      <trkpt lat="47.76443" lon="-3.53875">
        <ele>11.7</ele>
        <time>2021-07-11T08:05:27Z</time>
      </trkpt>
      <trkpt lat="47.76445" lon="-3.53873">
        <ele>11.7</ele>
        <time>2021-07-11T08:05:26Z</time>
      </trkpt>
      <trkpt lat="47.76446" lon="-3.53871">
        <ele>11.7</ele>
        <time>2021-07-11T08:05:25Z</time>
      </trkpt>
      <trkpt lat="47.76448" lon="-3.53871">
        <ele>11.7</ele>
        <time>2021-07-11T08:05:24Z</time>
      </trkpt>
      <trkpt lat="47.76449" lon="-3.53871">
        <ele>11.7</ele>
        <time>2021-07-11T08:05:23Z</time>
      </trkpt>
      <trkpt lat="47.7645" lon="-3.5387">
        <ele>11.7</ele>
        <time>2021-07-11T08:05:22Z</time>
      </trkpt>
      <trkpt lat="47.76451" lon="-3.5387">
        <ele>11.7</ele>
        <time>2021-07-11T08:05:21Z</time>
      </trkpt>
      <trkpt lat="47.76452" lon="-3.53869">
        <ele>11.7</ele>
        <time>2021-07-11T08:05:20Z</time>
      </trkpt>
      <trkpt lat="47.76454" lon="-3.53869">
        <ele>11.7</ele>
        <time>2021-07-11T08:05:19Z</time>
      </trkpt>
      <trkpt lat="47.76455" lon="-3.53869">
        <ele>11.7</ele>
        <time>2021-07-11T08:05:18Z</time>
      </trkpt>
      <trkpt lat="47.76456" lon="-3.53868">
        <ele>11.7</ele>
        <time>2021-07-11T08:05:17Z</time>
      </trkpt>
      <trkpt lat="47.76457" lon="-3.53868">
        <ele>11.7</ele>
        <time>2021-07-11T08:05:16Z</time>
      </trkpt>
      <trkpt lat="47.76458" lon="-3.53867">
        <ele>11.7</ele>
        <time>2021-07-11T08:05:15Z</time>
      </trkpt>
      <trkpt lat="47.7646" lon="-3.53867">
        <ele>11.7</ele>
        <time>2021-07-11T08:05:14Z</time>
      </trkpt>
      <trkpt lat="47.76461" lon="-3.53867">
        <ele>11.7</ele>
        <time>2021-07-11T08:05:13Z</time>
      </trkpt>
      <trkpt lat="47.76462" lon="-3.53866">
        <ele>11.7</ele>
        <time>2021-07-11T08:05:12Z</time>
      </trkpt>
      <trkpt lat="47.76463" lon="-3.53866">
        <ele>11.7</ele>
        <time>2021-07-11T08:05:11Z</time>
      </trkpt>
      <trkpt lat="47.76464" lon="-3.53866">
        <ele>11.7</ele>
        <time>2021-07-11T08:05:10Z</time>
      </trkpt>
      <trkpt lat="47.76466" lon="-3.53865">
        <ele>11.7</ele>
        <time>2021-07-11T08:05:09Z</time>
      </trkpt>
      <trkpt lat="47.76467" lon="-3.53865">
        <ele>11.7</ele>
        <time>2021-07-11T08:05:08Z</time>
      </trkpt>
      <trkpt lat="47.76468" lon="-3.53864">
        <ele>11.7</ele>
        <time>2021-07-11T08:05:07Z</time>
      </trkpt>
      <trkpt lat="47.76469" lon="-3.53864">
        <ele>11.7</ele>
        <time>2021-07-11T08:05:06Z</time>
      </trkpt>
      <trkpt lat="47.7647" lon="-3.53864">
        <ele>11.7</ele>
        <time>2021-07-11T08:05:05Z</time>
      </trkpt>
      <trkpt lat="47.76472" lon="-3.53863">
        <ele>11.7</ele>
        <time>2021-07-11T08:05:04Z</time>
      </trkpt>
      <trkpt lat="47.76473" lon="-3.53863">
        <ele>11.7</ele>
        <time>2021-07-11T08:05:03Z</time>
      </trkpt>
      <trkpt lat="47.76474" lon="-3.53862">
        <ele>11.7</ele>
        <time>2021-07-11T08:05:02Z</time>
      </trkpt>
      <trkpt lat="47.76477" lon="-3.53863">
        <ele>11.7</ele>
        <time>2021-07-11T08:05:01Z</time>
      </trkpt>
      <trkpt lat="47.76478" lon="-3.53863">
        <ele>11.7</ele>
        <time>2021-07-11T08:05:00Z</time>
      </trkpt>
      <trkpt lat="47.76479" lon="-3.53863">
        <ele>11.8</ele>
        <time>2021-07-11T08:04:59Z</time>
      </trkpt>
      <trkpt lat="47.7648" lon="-3.53863">
        <ele>11.8</ele>
        <time>2021-07-11T08:04:58Z</time>
      </trkpt>
      <trkpt lat="47.76482" lon="-3.53864">
        <ele>11.8</ele>
        <time>2021-07-11T08:04:57Z</time>
      </trkpt>
      <trkpt lat="47.76483" lon="-3.53864">
        <ele>11.8</ele>
        <time>2021-07-11T08:04:56Z</time>
      </trkpt>
      <trkpt lat="47.76484" lon="-3.53864">
        <ele>11.8</ele>
        <time>2021-07-11T08:04:55Z</time>
      </trkpt>
      <trkpt lat="47.76486" lon="-3.53863">
        <ele>11.8</ele>
        <time>2021-07-11T08:04:54Z</time>
      </trkpt>
      <trkpt lat="47.76487" lon="-3.53863">
        <ele>11.9</ele>
        <time>2021-07-11T08:04:53Z</time>
      </trkpt>
      <trkpt lat="47.76488" lon="-3.53863">
        <ele>11.9</ele>
        <time>2021-07-11T08:04:52Z</time>
      </trkpt>
      <trkpt lat="47.76489" lon="-3.53863">
        <ele>11.9</ele>
        <time>2021-07-11T08:04:51Z</time>
      </trkpt>
      <trkpt lat="47.76491" lon="-3.53862">
        <ele>12</ele>
        <time>2021-07-11T08:04:50Z</time>
      </trkpt>
      <trkpt lat="47.76492" lon="-3.53862">
        <ele>12</ele>
        <time>2021-07-11T08:04:49Z</time>
      </trkpt>
      <trkpt lat="47.76493" lon="-3.53861">
        <ele>12.1</ele>
        <time>2021-07-11T08:04:48Z</time>
      </trkpt>
      <trkpt lat="47.76494" lon="-3.5386">
        <ele>12.1</ele>
        <time>2021-07-11T08:04:47Z</time>
      </trkpt>
      <trkpt lat="47.76495" lon="-3.5386">
        <ele>12.1</ele>
        <time>2021-07-11T08:04:46Z</time>
      </trkpt>
      <trkpt lat="47.76497" lon="-3.53859">
        <ele>12.2</ele>
        <time>2021-07-11T08:04:45Z</time>
      </trkpt>
      <trkpt lat="47.76498" lon="-3.53858">
        <ele>12.2</ele>
        <time>2021-07-11T08:04:44Z</time>
      </trkpt>
      <trkpt lat="47.76499" lon="-3.53857">
        <ele>12.3</ele>
        <time>2021-07-11T08:04:43Z</time>
      </trkpt>
      <trkpt lat="47.765" lon="-3.53855">
        <ele>12.3</ele>
        <time>2021-07-11T08:04:42Z</time>
      </trkpt>
      <trkpt lat="47.76501" lon="-3.53854">
        <ele>12.4</ele>
        <time>2021-07-11T08:04:41Z</time>
      </trkpt>
      <trkpt lat="47.76502" lon="-3.53853">
        <ele>12.4</ele>
        <time>2021-07-11T08:04:40Z</time>
      </trkpt>
      <trkpt lat="47.76503" lon="-3.53851">
        <ele>12.5</ele>
        <time>2021-07-11T08:04:39Z</time>
      </trkpt>
      <trkpt lat="47.76504" lon="-3.5385">
        <ele>12.5</ele>
        <time>2021-07-11T08:04:38Z</time>
      </trkpt>
      <trkpt lat="47.76505" lon="-3.53848">
        <ele>12.6</ele>
        <time>2021-07-11T08:04:37Z</time>
      </trkpt>
      <trkpt lat="47.76506" lon="-3.53847">
        <ele>12.7</ele>
        <time>2021-07-11T08:04:36Z</time>
      </trkpt>
      <trkpt lat="47.76507" lon="-3.53845">
        <ele>12.7</ele>
        <time>2021-07-11T08:04:35Z</time>
      </trkpt>
      <trkpt lat="47.76508" lon="-3.53843">
        <ele>12.8</ele>
        <time>2021-07-11T08:04:34Z</time>
      </trkpt>
      <trkpt lat="47.76509" lon="-3.53841">
        <ele>12.9</ele>
        <time>2021-07-11T08:04:33Z</time>
      </trkpt>
      <trkpt lat="47.7651" lon="-3.53839">
        <ele>12.9</ele>
        <time>2021-07-11T08:04:32Z</time>
      </trkpt>
      <trkpt lat="47.76511" lon="-3.53837">
        <ele>13</ele>
        <time>2021-07-11T08:04:31Z</time>
      </trkpt>
      <trkpt lat="47.76512" lon="-3.53835">
        <ele>13.1</ele>
        <time>2021-07-11T08:04:30Z</time>
      </trkpt>
      <trkpt lat="47.76513" lon="-3.53833">
        <ele>13.1</ele>
        <time>2021-07-11T08:04:29Z</time>
      </trkpt>
      <trkpt lat="47.76514" lon="-3.53831">
        <ele>13.2</ele>
        <time>2021-07-11T08:04:28Z</time>
      </trkpt>
      <trkpt lat="47.76515" lon="-3.53829">
        <ele>13.2</ele>
        <time>2021-07-11T08:04:27Z</time>
      </trkpt>
      <trkpt lat="47.76516" lon="-3.53828">
        <ele>13.3</ele>
        <time>2021-07-11T08:04:26Z</time>
      </trkpt>
      <trkpt lat="47.76517" lon="-3.53827">
        <ele>13.3</ele>
        <time>2021-07-11T08:04:25Z</time>
      </trkpt>
      <trkpt lat="47.76518" lon="-3.53826">
        <ele>13.4</ele>
        <time>2021-07-11T08:04:24Z</time>
      </trkpt>
      <trkpt lat="47.76519" lon="-3.53825">
        <ele>13.4</ele>
        <time>2021-07-11T08:04:23Z</time>
      </trkpt>
      <trkpt lat="47.7652" lon="-3.53824">
        <ele>13.4</ele>
        <time>2021-07-11T08:04:22Z</time>
      </trkpt>
      <trkpt lat="47.76521" lon="-3.53824">
        <ele>13.5</ele>
        <time>2021-07-11T08:04:21Z</time>
      </trkpt>
      <trkpt lat="47.76522" lon="-3.53823">
        <ele>13.5</ele>
        <time>2021-07-11T08:04:20Z</time>
      </trkpt>
      <trkpt lat="47.76523" lon="-3.53822">
        <ele>13.5</ele>
        <time>2021-07-11T08:04:19Z</time>
      </trkpt>
      <trkpt lat="47.76524" lon="-3.53821">
        <ele>13.6</ele>
        <time>2021-07-11T08:04:18Z</time>
      </trkpt>
      <trkpt lat="47.76525" lon="-3.53819">
        <ele>13.6</ele>
        <time>2021-07-11T08:04:17Z</time>
      </trkpt>
      <trkpt lat="47.76526" lon="-3.53818">
        <ele>13.6</ele>
        <time>2021-07-11T08:04:16Z</time>
      </trkpt>
      <trkpt lat="47.76527" lon="-3.53816">
        <ele>13.7</ele>
        <time>2021-07-11T08:04:15Z</time>
      </trkpt>
      <trkpt lat="47.76528" lon="-3.53815">
        <ele>13.7</ele>
        <time>2021-07-11T08:04:14Z</time>
      </trkpt>
      <trkpt lat="47.76529" lon="-3.53813">
        <ele>13.8</ele>
        <time>2021-07-11T08:04:13Z</time>
      </trkpt>
      <trkpt lat="47.7653" lon="-3.53811">
        <ele>13.8</ele>
        <time>2021-07-11T08:04:12Z</time>
      </trkpt>
      <trkpt lat="47.76531" lon="-3.53809">
        <ele>13.9</ele>
        <time>2021-07-11T08:04:11Z</time>
      </trkpt>
      <trkpt lat="47.76533" lon="-3.53808">
        <ele>13.9</ele>
        <time>2021-07-11T08:04:10Z</time>
      </trkpt>
      <trkpt lat="47.76534" lon="-3.53806">
        <ele>13.9</ele>
        <time>2021-07-11T08:04:09Z</time>
      </trkpt>
      <trkpt lat="47.76535" lon="-3.53805">
        <ele>14</ele>
        <time>2021-07-11T08:04:08Z</time>
      </trkpt>
      <trkpt lat="47.76536" lon="-3.53804">
        <ele>14</ele>
        <time>2021-07-11T08:04:07Z</time>
      </trkpt>
      <trkpt lat="47.76538" lon="-3.53804">
        <ele>14.1</ele>
        <time>2021-07-11T08:04:06Z</time>
      </trkpt>
      <trkpt lat="47.76539" lon="-3.53803">
        <ele>14.1</ele>
        <time>2021-07-11T08:04:05Z</time>
      </trkpt>
      <trkpt lat="47.7654" lon="-3.53804">
        <ele>14.1</ele>
        <time>2021-07-11T08:04:04Z</time>
      </trkpt>
      <trkpt lat="47.76541" lon="-3.53804">
        <ele>14.2</ele>
        <time>2021-07-11T08:04:03Z</time>
      </trkpt>
      <trkpt lat="47.76543" lon="-3.53805">
        <ele>14.2</ele>
        <time>2021-07-11T08:04:02Z</time>
      </trkpt>
      <trkpt lat="47.76544" lon="-3.53805">
        <ele>14.2</ele>
        <time>2021-07-11T08:04:01Z</time>
      </trkpt>
      <trkpt lat="47.76545" lon="-3.53806">
        <ele>14.3</ele>
        <time>2021-07-11T08:04:00Z</time>
      </trkpt>
      <trkpt lat="47.76547" lon="-3.53807">
        <ele>14.3</ele>
        <time>2021-07-11T08:03:59Z</time>
      </trkpt>
      <trkpt lat="47.76548" lon="-3.53807">
        <ele>14.3</ele>
        <time>2021-07-11T08:03:58Z</time>
      </trkpt>
      <trkpt lat="47.76549" lon="-3.53808">
        <ele>14.4</ele>
        <time>2021-07-11T08:03:57Z</time>
      </trkpt>
      <trkpt lat="47.7655" lon="-3.53808">
        <ele>14.4</ele>
        <time>2021-07-11T08:03:56Z</time>
      </trkpt>
      <trkpt lat="47.76552" lon="-3.53808">
        <ele>14.4</ele>
        <time>2021-07-11T08:03:55Z</time>
      </trkpt>
      <trkpt lat="47.76553" lon="-3.53807">
        <ele>14.5</ele>
        <time>2021-07-11T08:03:54Z</time>
      </trkpt>
      <trkpt lat="47.76554" lon="-3.53807">
        <ele>14.5</ele>
        <time>2021-07-11T08:03:53Z</time>
      </trkpt>
      <trkpt lat="47.76555" lon="-3.53806">
        <ele>14.5</ele>
        <time>2021-07-11T08:03:52Z</time>
      </trkpt>
      <trkpt lat="47.76557" lon="-3.53804">
        <ele>14.6</ele>
        <time>2021-07-11T08:03:51Z</time>
      </trkpt>
      <trkpt lat="47.76558" lon="-3.53803">
        <ele>14.6</ele>
        <time>2021-07-11T08:03:50Z</time>
      </trkpt>
      <trkpt lat="47.76559" lon="-3.53801">
        <ele>14.7</ele>
        <time>2021-07-11T08:03:49Z</time>
      </trkpt>
      <trkpt lat="47.7656" lon="-3.538">
        <ele>14.7</ele>
        <time>2021-07-11T08:03:48Z</time>
      </trkpt>
      <trkpt lat="47.76561" lon="-3.53798">
        <ele>14.7</ele>
        <time>2021-07-11T08:03:47Z</time>
      </trkpt>
      <trkpt lat="47.76563" lon="-3.53796">
        <ele>14.8</ele>
        <time>2021-07-11T08:03:46Z</time>
      </trkpt>
      <trkpt lat="47.76564" lon="-3.53794">
        <ele>14.8</ele>
        <time>2021-07-11T08:03:45Z</time>
      </trkpt>
      <trkpt lat="47.76565" lon="-3.53792">
        <ele>14.8</ele>
        <time>2021-07-11T08:03:44Z</time>
      </trkpt>
      <trkpt lat="47.76566" lon="-3.5379">
        <ele>14.9</ele>
        <time>2021-07-11T08:03:43Z</time>
      </trkpt>
      <trkpt lat="47.76567" lon="-3.53789">
        <ele>14.9</ele>
        <time>2021-07-11T08:03:42Z</time>
      </trkpt>
      <trkpt lat="47.76568" lon="-3.53787">
        <ele>14.9</ele>
        <time>2021-07-11T08:03:41Z</time>
      </trkpt>
      <trkpt lat="47.76569" lon="-3.53785">
        <ele>15</ele>
        <time>2021-07-11T08:03:40Z</time>
      </trkpt>
      <trkpt lat="47.7657" lon="-3.53784">
        <ele>15</ele>
        <time>2021-07-11T08:03:39Z</time>
      </trkpt>
      <trkpt lat="47.76571" lon="-3.53783">
        <ele>15</ele>
        <time>2021-07-11T08:03:38Z</time>
      </trkpt>
      <trkpt lat="47.76573" lon="-3.53782">
        <ele>15</ele>
        <time>2021-07-11T08:03:37Z</time>
      </trkpt>
      <trkpt lat="47.76574" lon="-3.53781">
        <ele>15.1</ele>
        <time>2021-07-11T08:03:36Z</time>
      </trkpt>
      <trkpt lat="47.76575" lon="-3.5378">
        <ele>15.1</ele>
        <time>2021-07-11T08:03:35Z</time>
      </trkpt>
      <trkpt lat="47.76576" lon="-3.53779">
        <ele>15.1</ele>
        <time>2021-07-11T08:03:34Z</time>
      </trkpt>
      <trkpt lat="47.76578" lon="-3.53779">
        <ele>15.2</ele>
        <time>2021-07-11T08:03:33Z</time>
      </trkpt>
      <trkpt lat="47.76579" lon="-3.53778">
        <ele>15.2</ele>
        <time>2021-07-11T08:03:32Z</time>
      </trkpt>
      <trkpt lat="47.76581" lon="-3.53778">
        <ele>15.2</ele>
        <time>2021-07-11T08:03:31Z</time>
      </trkpt>
      <trkpt lat="47.76582" lon="-3.53777">
        <ele>15.2</ele>
        <time>2021-07-11T08:03:30Z</time>
      </trkpt>
      <trkpt lat="47.76583" lon="-3.53777">
        <ele>15.3</ele>
        <time>2021-07-11T08:03:29Z</time>
      </trkpt>
      <trkpt lat="47.76585" lon="-3.53777">
        <ele>15.3</ele>
        <time>2021-07-11T08:03:28Z</time>
      </trkpt>
      <trkpt lat="47.76586" lon="-3.53776">
        <ele>15.3</ele>
        <time>2021-07-11T08:03:27Z</time>
      </trkpt>
      <trkpt lat="47.76587" lon="-3.53776">
        <ele>15.3</ele>
        <time>2021-07-11T08:03:26Z</time>
      </trkpt>
      <trkpt lat="47.76588" lon="-3.53775">
        <ele>15.4</ele>
        <time>2021-07-11T08:03:25Z</time>
      </trkpt>
      <trkpt lat="47.76589" lon="-3.53774">
        <ele>15.4</ele>
        <time>2021-07-11T08:03:24Z</time>
      </trkpt>
      <trkpt lat="47.7659" lon="-3.53774">
        <ele>15.4</ele>
        <time>2021-07-11T08:03:23Z</time>
      </trkpt>
      <trkpt lat="47.76591" lon="-3.53773">
        <ele>15.4</ele>
        <time>2021-07-11T08:03:22Z</time>
      </trkpt>
      <trkpt lat="47.76592" lon="-3.53772">
        <ele>15.4</ele>
        <time>2021-07-11T08:03:21Z</time>
      </trkpt>
      <trkpt lat="47.76593" lon="-3.53771">
        <ele>15.5</ele>
        <time>2021-07-11T08:03:20Z</time>
      </trkpt>
      <trkpt lat="47.76594" lon="-3.53771">
        <ele>15.5</ele>
        <time>2021-07-11T08:03:19Z</time>
      </trkpt>
      <trkpt lat="47.76595" lon="-3.5377">
        <ele>15.5</ele>
        <time>2021-07-11T08:03:18Z</time>
      </trkpt>
      <trkpt lat="47.76596" lon="-3.53769">
        <ele>15.5</ele>
        <time>2021-07-11T08:03:17Z</time>
      </trkpt>
      <trkpt lat="47.76597" lon="-3.53768">
        <ele>15.5</ele>
        <time>2021-07-11T08:03:16Z</time>
      </trkpt>
      <trkpt lat="47.76599" lon="-3.53766">
        <ele>15.5</ele>
        <time>2021-07-11T08:03:15Z</time>
      </trkpt>
      <trkpt lat="47.766" lon="-3.53765">
        <ele>15.6</ele>
        <time>2021-07-11T08:03:14Z</time>
      </trkpt>
      <trkpt lat="47.76601" lon="-3.53764">
        <ele>15.6</ele>
        <time>2021-07-11T08:03:13Z</time>
      </trkpt>
      <trkpt lat="47.76602" lon="-3.53763">
        <ele>15.6</ele>
        <time>2021-07-11T08:03:12Z</time>
      </trkpt>
      <trkpt lat="47.76603" lon="-3.53761">
        <ele>15.6</ele>
        <time>2021-07-11T08:03:11Z</time>
      </trkpt>
      <trkpt lat="47.76604" lon="-3.5376">
        <ele>15.6</ele>
        <time>2021-07-11T08:03:10Z</time>
      </trkpt>
      <trkpt lat="47.76605" lon="-3.53758">
        <ele>15.6</ele>
        <time>2021-07-11T08:03:09Z</time>
      </trkpt>
      <trkpt lat="47.76606" lon="-3.53757">
        <ele>15.7</ele>
        <time>2021-07-11T08:03:08Z</time>
      </trkpt>
      <trkpt lat="47.76607" lon="-3.53755">
        <ele>15.7</ele>
        <time>2021-07-11T08:03:07Z</time>
      </trkpt>
      <trkpt lat="47.76607" lon="-3.53753">
        <ele>15.7</ele>
        <time>2021-07-11T08:03:06Z</time>
      </trkpt>
      <trkpt lat="47.76608" lon="-3.53752">
        <ele>15.7</ele>
        <time>2021-07-11T08:03:05Z</time>
      </trkpt>
      <trkpt lat="47.76609" lon="-3.5375">
        <ele>15.7</ele>
        <time>2021-07-11T08:03:04Z</time>
      </trkpt>
      <trkpt lat="47.76609" lon="-3.53748">
        <ele>15.7</ele>
        <time>2021-07-11T08:03:03Z</time>
      </trkpt>
      <trkpt lat="47.76609" lon="-3.53746">
        <ele>15.7</ele>
        <time>2021-07-11T08:03:02Z</time>
      </trkpt>
      <trkpt lat="47.76609" lon="-3.53744">
        <ele>15.7</ele>
        <time>2021-07-11T08:03:01Z</time>
      </trkpt>
      <trkpt lat="47.76609" lon="-3.53742">
        <ele>15.7</ele>
        <time>2021-07-11T08:03:00Z</time>
      </trkpt>
      <trkpt lat="47.76609" lon="-3.5374">
        <ele>15.7</ele>
        <time>2021-07-11T08:02:59Z</time>
      </trkpt>
      <trkpt lat="47.76609" lon="-3.53738">
        <ele>15.7</ele>
        <time>2021-07-11T08:02:58Z</time>
      </trkpt>
      <trkpt lat="47.76609" lon="-3.53736">
        <ele>15.7</ele>
        <time>2021-07-11T08:02:57Z</time>
      </trkpt>
      <trkpt lat="47.76609" lon="-3.53734">
        <ele>15.7</ele>
        <time>2021-07-11T08:02:56Z</time>
      </trkpt>
      <trkpt lat="47.76609" lon="-3.53732">
        <ele>15.7</ele>
        <time>2021-07-11T08:02:55Z</time>
      </trkpt>
      <trkpt lat="47.76609" lon="-3.5373">
        <ele>15.7</ele>
        <time>2021-07-11T08:02:54Z</time>
      </trkpt>
      <trkpt lat="47.76609" lon="-3.53728">
        <ele>15.7</ele>
        <time>2021-07-11T08:02:53Z</time>
      </trkpt>
      <trkpt lat="47.76609" lon="-3.53726">
        <ele>15.7</ele>
        <time>2021-07-11T08:02:52Z</time>
      </trkpt>
      <trkpt lat="47.76609" lon="-3.53724">
        <ele>15.7</ele>
        <time>2021-07-11T08:02:51Z</time>
      </trkpt>
      <trkpt lat="47.76609" lon="-3.53722">
        <ele>15.6</ele>
        <time>2021-07-11T08:02:50Z</time>
      </trkpt>
      <trkpt lat="47.76609" lon="-3.5372">
        <ele>15.6</ele>
        <time>2021-07-11T08:02:49Z</time>
      </trkpt>
      <trkpt lat="47.76609" lon="-3.53718">
        <ele>15.6</ele>
        <time>2021-07-11T08:02:48Z</time>
      </trkpt>
      <trkpt lat="47.7661" lon="-3.53716">
        <ele>15.6</ele>
        <time>2021-07-11T08:02:47Z</time>
      </trkpt>
      <trkpt lat="47.7661" lon="-3.53714">
        <ele>15.6</ele>
        <time>2021-07-11T08:02:46Z</time>
      </trkpt>
      <trkpt lat="47.76611" lon="-3.53712">
        <ele>15.6</ele>
        <time>2021-07-11T08:02:45Z</time>
      </trkpt>
      <trkpt lat="47.76611" lon="-3.53711">
        <ele>15.5</ele>
        <time>2021-07-11T08:02:44Z</time>
      </trkpt>
      <trkpt lat="47.76612" lon="-3.53709">
        <ele>15.5</ele>
        <time>2021-07-11T08:02:43Z</time>
      </trkpt>
      <trkpt lat="47.76612" lon="-3.53707">
        <ele>15.5</ele>
        <time>2021-07-11T08:02:42Z</time>
      </trkpt>
      <trkpt lat="47.76613" lon="-3.53705">
        <ele>15.5</ele>
        <time>2021-07-11T08:02:41Z</time>
      </trkpt>
      <trkpt lat="47.76614" lon="-3.53703">
        <ele>15.5</ele>
        <time>2021-07-11T08:02:40Z</time>
      </trkpt>
      <trkpt lat="47.76615" lon="-3.53702">
        <ele>15.4</ele>
        <time>2021-07-11T08:02:39Z</time>
      </trkpt>
      <trkpt lat="47.76615" lon="-3.537">
        <ele>15.4</ele>
        <time>2021-07-11T08:02:38Z</time>
      </trkpt>
      <trkpt lat="47.76616" lon="-3.53698">
        <ele>15.4</ele>
        <time>2021-07-11T08:02:37Z</time>
      </trkpt>
      <trkpt lat="47.76617" lon="-3.53696">
        <ele>15.4</ele>
        <time>2021-07-11T08:02:36Z</time>
      </trkpt>
      <trkpt lat="47.76618" lon="-3.53695">
        <ele>15.4</ele>
        <time>2021-07-11T08:02:35Z</time>
      </trkpt>
      <trkpt lat="47.76619" lon="-3.53693">
        <ele>15.4</ele>
        <time>2021-07-11T08:02:34Z</time>
      </trkpt>
      <trkpt lat="47.76619" lon="-3.53691">
        <ele>15.4</ele>
        <time>2021-07-11T08:02:33Z</time>
      </trkpt>
      <trkpt lat="47.7662" lon="-3.53689">
        <ele>15.4</ele>
        <time>2021-07-11T08:02:32Z</time>
      </trkpt>
      <trkpt lat="47.76621" lon="-3.53687">
        <ele>15.3</ele>
        <time>2021-07-11T08:02:31Z</time>
      </trkpt>
      <trkpt lat="47.76622" lon="-3.53685">
        <ele>15.3</ele>
        <time>2021-07-11T08:02:30Z</time>
      </trkpt>
      <trkpt lat="47.76622" lon="-3.53683">
        <ele>15.3</ele>
        <time>2021-07-11T08:02:29Z</time>
      </trkpt>
      <trkpt lat="47.76623" lon="-3.53681">
        <ele>15.3</ele>
        <time>2021-07-11T08:02:28Z</time>
      </trkpt>
      <trkpt lat="47.76624" lon="-3.53679">
        <ele>15.3</ele>
        <time>2021-07-11T08:02:27Z</time>
      </trkpt>
      <trkpt lat="47.76624" lon="-3.53677">
        <ele>15.3</ele>
        <time>2021-07-11T08:02:26Z</time>
      </trkpt>
      <trkpt lat="47.76625" lon="-3.53675">
        <ele>15.3</ele>
        <time>2021-07-11T08:02:25Z</time>
      </trkpt>
      <trkpt lat="47.76625" lon="-3.53673">
        <ele>15.3</ele>
        <time>2021-07-11T08:02:24Z</time>
      </trkpt>
      <trkpt lat="47.76625" lon="-3.5367">
        <ele>15.3</ele>
        <time>2021-07-11T08:02:23Z</time>
      </trkpt>
      <trkpt lat="47.76625" lon="-3.53668">
        <ele>15.3</ele>
        <time>2021-07-11T08:02:22Z</time>
      </trkpt>
      <trkpt lat="47.76626" lon="-3.53666">
        <ele>15.3</ele>
        <time>2021-07-11T08:02:21Z</time>
      </trkpt>
      <trkpt lat="47.76626" lon="-3.53664">
        <ele>15.3</ele>
        <time>2021-07-11T08:02:20Z</time>
      </trkpt>
      <trkpt lat="47.76627" lon="-3.53661">
        <ele>15.3</ele>
        <time>2021-07-11T08:02:19Z</time>
      </trkpt>
      <trkpt lat="47.76627" lon="-3.53659">
        <ele>15.3</ele>
        <time>2021-07-11T08:02:18Z</time>
      </trkpt>
      <trkpt lat="47.76628" lon="-3.53657">
        <ele>15.3</ele>
        <time>2021-07-11T08:02:17Z</time>
      </trkpt>
      <trkpt lat="47.76629" lon="-3.53655">
        <ele>15.3</ele>
        <time>2021-07-11T08:02:16Z</time>
      </trkpt>
      <trkpt lat="47.7663" lon="-3.53653">
        <ele>15.3</ele>
        <time>2021-07-11T08:02:15Z</time>
      </trkpt>
      <trkpt lat="47.76631" lon="-3.53652">
        <ele>15.3</ele>
        <time>2021-07-11T08:02:14Z</time>
      </trkpt>
      <trkpt lat="47.76631" lon="-3.5365">
        <ele>15.3</ele>
        <time>2021-07-11T08:02:13Z</time>
      </trkpt>
      <trkpt lat="47.76632" lon="-3.53648">
        <ele>15.3</ele>
        <time>2021-07-11T08:02:12Z</time>
      </trkpt>
      <trkpt lat="47.76633" lon="-3.53646">
        <ele>15.3</ele>
        <time>2021-07-11T08:02:11Z</time>
      </trkpt>
      <trkpt lat="47.76633" lon="-3.53644">
        <ele>15.3</ele>
        <time>2021-07-11T08:02:10Z</time>
      </trkpt>
      <trkpt lat="47.76633" lon="-3.53642">
        <ele>15.3</ele>
        <time>2021-07-11T08:02:09Z</time>
      </trkpt>
      <trkpt lat="47.76634" lon="-3.5364">
        <ele>15.3</ele>
        <time>2021-07-11T08:02:08Z</time>
      </trkpt>
      <trkpt lat="47.76634" lon="-3.53638">
        <ele>15.3</ele>
        <time>2021-07-11T08:02:07Z</time>
      </trkpt>
      <trkpt lat="47.76634" lon="-3.53636">
        <ele>15.3</ele>
        <time>2021-07-11T08:02:06Z</time>
      </trkpt>
      <trkpt lat="47.76634" lon="-3.53633">
        <ele>15.3</ele>
        <time>2021-07-11T08:02:05Z</time>
      </trkpt>
      <trkpt lat="47.76634" lon="-3.53631">
        <ele>15.3</ele>
        <time>2021-07-11T08:02:04Z</time>
      </trkpt>
      <trkpt lat="47.76634" lon="-3.53629">
        <ele>15.3</ele>
        <time>2021-07-11T08:02:03Z</time>
      </trkpt>
      <trkpt lat="47.76634" lon="-3.53627">
        <ele>15.3</ele>
        <time>2021-07-11T08:02:02Z</time>
      </trkpt>
      <trkpt lat="47.76634" lon="-3.53625">
        <ele>15.2</ele>
        <time>2021-07-11T08:02:01Z</time>
      </trkpt>
      <trkpt lat="47.76634" lon="-3.53623">
        <ele>15.2</ele>
        <time>2021-07-11T08:02:00Z</time>
      </trkpt>
      <trkpt lat="47.76634" lon="-3.53621">
        <ele>15.2</ele>
        <time>2021-07-11T08:01:59Z</time>
      </trkpt>
      <trkpt lat="47.76634" lon="-3.53619">
        <ele>15.2</ele>
        <time>2021-07-11T08:01:58Z</time>
      </trkpt>
      <trkpt lat="47.76634" lon="-3.53617">
        <ele>15.2</ele>
        <time>2021-07-11T08:01:57Z</time>
      </trkpt>
      <trkpt lat="47.76634" lon="-3.53615">
        <ele>15.2</ele>
        <time>2021-07-11T08:01:56Z</time>
      </trkpt>
      <trkpt lat="47.76635" lon="-3.53613">
        <ele>15.2</ele>
        <time>2021-07-11T08:01:55Z</time>
      </trkpt>
      <trkpt lat="47.76635" lon="-3.53611">
        <ele>15.1</ele>
        <time>2021-07-11T08:01:54Z</time>
      </trkpt>
      <trkpt lat="47.76635" lon="-3.53609">
        <ele>15.1</ele>
        <time>2021-07-11T08:01:53Z</time>
      </trkpt>
      <trkpt lat="47.76636" lon="-3.53607">
        <ele>15.1</ele>
        <time>2021-07-11T08:01:52Z</time>
      </trkpt>
      <trkpt lat="47.76636" lon="-3.53605">
        <ele>15.1</ele>
        <time>2021-07-11T08:01:51Z</time>
      </trkpt>
      <trkpt lat="47.76637" lon="-3.53603">
        <ele>15.1</ele>
        <time>2021-07-11T08:01:50Z</time>
      </trkpt>
      <trkpt lat="47.76637" lon="-3.53601">
        <ele>15.1</ele>
        <time>2021-07-11T08:01:49Z</time>
      </trkpt>
      <trkpt lat="47.76638" lon="-3.53599">
        <ele>15</ele>
        <time>2021-07-11T08:01:48Z</time>
      </trkpt>
      <trkpt lat="47.76638" lon="-3.53598">
        <ele>15</ele>
        <time>2021-07-11T08:01:47Z</time>
      </trkpt>
      <trkpt lat="47.76639" lon="-3.53596">
        <ele>15</ele>
        <time>2021-07-11T08:01:46Z</time>
      </trkpt>
      <trkpt lat="47.76639" lon="-3.53594">
        <ele>15</ele>
        <time>2021-07-11T08:01:45Z</time>
      </trkpt>
      <trkpt lat="47.7664" lon="-3.53592">
        <ele>15</ele>
        <time>2021-07-11T08:01:44Z</time>
      </trkpt>
      <trkpt lat="47.7664" lon="-3.5359">
        <ele>14.9</ele>
        <time>2021-07-11T08:01:43Z</time>
      </trkpt>
      <trkpt lat="47.76641" lon="-3.53588">
        <ele>14.9</ele>
        <time>2021-07-11T08:01:42Z</time>
      </trkpt>
      <trkpt lat="47.76641" lon="-3.53586">
        <ele>14.9</ele>
        <time>2021-07-11T08:01:41Z</time>
      </trkpt>
      <trkpt lat="47.76642" lon="-3.53584">
        <ele>14.9</ele>
        <time>2021-07-11T08:01:40Z</time>
      </trkpt>
      <trkpt lat="47.76642" lon="-3.53582">
        <ele>14.8</ele>
        <time>2021-07-11T08:01:39Z</time>
      </trkpt>
      <trkpt lat="47.76642" lon="-3.5358">
        <ele>14.8</ele>
        <time>2021-07-11T08:01:38Z</time>
      </trkpt>
      <trkpt lat="47.76643" lon="-3.53578">
        <ele>14.8</ele>
        <time>2021-07-11T08:01:37Z</time>
      </trkpt>
      <trkpt lat="47.76643" lon="-3.53576">
        <ele>14.8</ele>
        <time>2021-07-11T08:01:36Z</time>
      </trkpt>
      <trkpt lat="47.76643" lon="-3.53574">
        <ele>14.7</ele>
        <time>2021-07-11T08:01:35Z</time>
      </trkpt>
      <trkpt lat="47.76644" lon="-3.53572">
        <ele>14.7</ele>
        <time>2021-07-11T08:01:34Z</time>
      </trkpt>
      <trkpt lat="47.76644" lon="-3.5357">
        <ele>14.7</ele>
        <time>2021-07-11T08:01:33Z</time>
      </trkpt>
      <trkpt lat="47.76644" lon="-3.53568">
        <ele>14.6</ele>
        <time>2021-07-11T08:01:32Z</time>
      </trkpt>
      <trkpt lat="47.76644" lon="-3.53565">
        <ele>14.6</ele>
        <time>2021-07-11T08:01:31Z</time>
      </trkpt>
      <trkpt lat="47.76644" lon="-3.53563">
        <ele>14.6</ele>
        <time>2021-07-11T08:01:30Z</time>
      </trkpt>
      <trkpt lat="47.76644" lon="-3.53561">
        <ele>14.5</ele>
        <time>2021-07-11T08:01:29Z</time>
      </trkpt>
      <trkpt lat="47.76644" lon="-3.53559">
        <ele>14.5</ele>
        <time>2021-07-11T08:01:28Z</time>
      </trkpt>
      <trkpt lat="47.76644" lon="-3.53557">
        <ele>14.5</ele>
        <time>2021-07-11T08:01:27Z</time>
      </trkpt>
      <trkpt lat="47.76645" lon="-3.53555">
        <ele>14.4</ele>
        <time>2021-07-11T08:01:26Z</time>
      </trkpt>
      <trkpt lat="47.76645" lon="-3.53552">
        <ele>14.4</ele>
        <time>2021-07-11T08:01:25Z</time>
      </trkpt>
      <trkpt lat="47.76645" lon="-3.5355">
        <ele>14.4</ele>
        <time>2021-07-11T08:01:24Z</time>
      </trkpt>
      <trkpt lat="47.76646" lon="-3.53548">
        <ele>14.4</ele>
        <time>2021-07-11T08:01:23Z</time>
      </trkpt>
      <trkpt lat="47.76646" lon="-3.53545">
        <ele>14.4</ele>
        <time>2021-07-11T08:01:22Z</time>
      </trkpt>
      <trkpt lat="47.76647" lon="-3.53543">
        <ele>14.3</ele>
        <time>2021-07-11T08:01:21Z</time>
      </trkpt>
      <trkpt lat="47.76647" lon="-3.53541">
        <ele>14.3</ele>
        <time>2021-07-11T08:01:20Z</time>
      </trkpt>
      <trkpt lat="47.76648" lon="-3.53538">
        <ele>14.3</ele>
        <time>2021-07-11T08:01:19Z</time>
      </trkpt>
      <trkpt lat="47.76649" lon="-3.53536">
        <ele>14.3</ele>
        <time>2021-07-11T08:01:18Z</time>
      </trkpt>
      <trkpt lat="47.7665" lon="-3.53534">
        <ele>14.4</ele>
        <time>2021-07-11T08:01:17Z</time>
      </trkpt>
      <trkpt lat="47.76651" lon="-3.53532">
        <ele>14.4</ele>
        <time>2021-07-11T08:01:16Z</time>
      </trkpt>
      <trkpt lat="47.76652" lon="-3.5353">
        <ele>14.4</ele>
        <time>2021-07-11T08:01:15Z</time>
      </trkpt>
      <trkpt lat="47.76653" lon="-3.53529">
        <ele>14.4</ele>
        <time>2021-07-11T08:01:14Z</time>
      </trkpt>
      <trkpt lat="47.76654" lon="-3.53528">
        <ele>14.5</ele>
        <time>2021-07-11T08:01:13Z</time>
      </trkpt>
      <trkpt lat="47.76655" lon="-3.53526">
        <ele>14.5</ele>
        <time>2021-07-11T08:01:12Z</time>
      </trkpt>
      <trkpt lat="47.76656" lon="-3.53525">
        <ele>14.6</ele>
        <time>2021-07-11T08:01:11Z</time>
      </trkpt>
      <trkpt lat="47.76657" lon="-3.53524">
        <ele>14.6</ele>
        <time>2021-07-11T08:01:10Z</time>
      </trkpt>
      <trkpt lat="47.76658" lon="-3.53524">
        <ele>14.7</ele>
        <time>2021-07-11T08:01:09Z</time>
      </trkpt>
      <trkpt lat="47.76659" lon="-3.53522">
        <ele>14.7</ele>
        <time>2021-07-11T08:01:08Z</time>
      </trkpt>
      <trkpt lat="47.7666" lon="-3.53521">
        <ele>14.8</ele>
        <time>2021-07-11T08:01:07Z</time>
      </trkpt>
      <trkpt lat="47.7666" lon="-3.5352">
        <ele>14.8</ele>
        <time>2021-07-11T08:01:06Z</time>
      </trkpt>
      <trkpt lat="47.76661" lon="-3.53519">
        <ele>14.9</ele>
        <time>2021-07-11T08:01:05Z</time>
      </trkpt>
      <trkpt lat="47.76662" lon="-3.53518">
        <ele>14.9</ele>
        <time>2021-07-11T08:01:04Z</time>
      </trkpt>
      <trkpt lat="47.76663" lon="-3.53517">
        <ele>15</ele>
        <time>2021-07-11T08:01:03Z</time>
      </trkpt>
      <trkpt lat="47.76663" lon="-3.53515">
        <ele>15</ele>
        <time>2021-07-11T08:01:02Z</time>
      </trkpt>
      <trkpt lat="47.76664" lon="-3.53514">
        <ele>15.1</ele>
        <time>2021-07-11T08:01:01Z</time>
      </trkpt>
      <trkpt lat="47.76665" lon="-3.53513">
        <ele>15.1</ele>
        <time>2021-07-11T08:01:00Z</time>
      </trkpt>
      <trkpt lat="47.76666" lon="-3.53512">
        <ele>15.2</ele>
        <time>2021-07-11T08:00:59Z</time>
      </trkpt>
      <trkpt lat="47.76666" lon="-3.53511">
        <ele>15.2</ele>
        <time>2021-07-11T08:00:58Z</time>
      </trkpt>
      <trkpt lat="47.76667" lon="-3.5351">
        <ele>15.3</ele>
        <time>2021-07-11T08:00:57Z</time>
      </trkpt>
      <trkpt lat="47.76668" lon="-3.53508">
        <ele>15.3</ele>
        <time>2021-07-11T08:00:56Z</time>
      </trkpt>
      <trkpt lat="47.76669" lon="-3.53507">
        <ele>15.4</ele>
        <time>2021-07-11T08:00:55Z</time>
      </trkpt>
      <trkpt lat="47.76669" lon="-3.53506">
        <ele>15.4</ele>
        <time>2021-07-11T08:00:54Z</time>
      </trkpt>
      <trkpt lat="47.7667" lon="-3.53505">
        <ele>15.5</ele>
        <time>2021-07-11T08:00:53Z</time>
      </trkpt>
      <trkpt lat="47.76671" lon="-3.53504">
        <ele>15.5</ele>
        <time>2021-07-11T08:00:52Z</time>
      </trkpt>
      <trkpt lat="47.76672" lon="-3.53503">
        <ele>15.5</ele>
        <time>2021-07-11T08:00:51Z</time>
      </trkpt>
      <trkpt lat="47.76672" lon="-3.53501">
        <ele>15.5</ele>
        <time>2021-07-11T08:00:50Z</time>
      </trkpt>
      <trkpt lat="47.76673" lon="-3.535">
        <ele>15.6</ele>
        <time>2021-07-11T08:00:49Z</time>
      </trkpt>
      <trkpt lat="47.76674" lon="-3.53497">
        <ele>15.6</ele>
        <time>2021-07-11T08:00:48Z</time>
      </trkpt>
      <trkpt lat="47.76674" lon="-3.53495">
        <ele>15.6</ele>
        <time>2021-07-11T08:00:47Z</time>
      </trkpt>
      <trkpt lat="47.76674" lon="-3.53493">
        <ele>15.6</ele>
        <time>2021-07-11T08:00:46Z</time>
      </trkpt>
      <trkpt lat="47.76674" lon="-3.5349">
        <ele>15.6</ele>
        <time>2021-07-11T08:00:45Z</time>
      </trkpt>
      <trkpt lat="47.76674" lon="-3.53488">
        <ele>15.5</ele>
        <time>2021-07-11T08:00:44Z</time>
      </trkpt>
      <trkpt lat="47.76675" lon="-3.53486">
        <ele>15.5</ele>
        <time>2021-07-11T08:00:43Z</time>
      </trkpt>
      <trkpt lat="47.76675" lon="-3.53484">
        <ele>15.5</ele>
        <time>2021-07-11T08:00:42Z</time>
      </trkpt>
      <trkpt lat="47.76675" lon="-3.53482">
        <ele>15.5</ele>
        <time>2021-07-11T08:00:41Z</time>
      </trkpt>
      <trkpt lat="47.76676" lon="-3.5348">
        <ele>15.4</ele>
        <time>2021-07-11T08:00:40Z</time>
      </trkpt>
      <trkpt lat="47.76677" lon="-3.53478">
        <ele>15.4</ele>
        <time>2021-07-11T08:00:39Z</time>
      </trkpt>
      <trkpt lat="47.76677" lon="-3.53476">
        <ele>15.4</ele>
        <time>2021-07-11T08:00:38Z</time>
      </trkpt>
      <trkpt lat="47.76678" lon="-3.53474">
        <ele>15.4</ele>
        <time>2021-07-11T08:00:37Z</time>
      </trkpt>
      <trkpt lat="47.76679" lon="-3.53473">
        <ele>15.4</ele>
        <time>2021-07-11T08:00:36Z</time>
      </trkpt>
      <trkpt lat="47.7668" lon="-3.53471">
        <ele>15.4</ele>
        <time>2021-07-11T08:00:35Z</time>
      </trkpt>
      <trkpt lat="47.76681" lon="-3.5347">
        <ele>15.3</ele>
        <time>2021-07-11T08:00:34Z</time>
      </trkpt>
      <trkpt lat="47.76682" lon="-3.53468">
        <ele>15.3</ele>
        <time>2021-07-11T08:00:33Z</time>
      </trkpt>
      <trkpt lat="47.76683" lon="-3.53467">
        <ele>15.3</ele>
        <time>2021-07-11T08:00:32Z</time>
      </trkpt>
      <trkpt lat="47.76684" lon="-3.53466">
        <ele>15.3</ele>
        <time>2021-07-11T08:00:31Z</time>
      </trkpt>
      <trkpt lat="47.76686" lon="-3.53466">
        <ele>15.4</ele>
        <time>2021-07-11T08:00:30Z</time>
      </trkpt>
      <trkpt lat="47.76687" lon="-3.53465">
        <ele>15.4</ele>
        <time>2021-07-11T08:00:29Z</time>
      </trkpt>
      <trkpt lat="47.76688" lon="-3.53465">
        <ele>15.4</ele>
        <time>2021-07-11T08:00:28Z</time>
      </trkpt>
      <trkpt lat="47.76689" lon="-3.53464">
        <ele>15.4</ele>
        <time>2021-07-11T08:00:27Z</time>
      </trkpt>
      <trkpt lat="47.76691" lon="-3.53464">
        <ele>15.4</ele>
        <time>2021-07-11T08:00:26Z</time>
      </trkpt>
      <trkpt lat="47.76692" lon="-3.53463">
        <ele>15.4</ele>
        <time>2021-07-11T08:00:25Z</time>
      </trkpt>
      <trkpt lat="47.76693" lon="-3.53463">
        <ele>15.4</ele>
        <time>2021-07-11T08:00:24Z</time>
      </trkpt>
      <trkpt lat="47.76694" lon="-3.53462">
        <ele>15.4</ele>
        <time>2021-07-11T08:00:23Z</time>
      </trkpt>
      <trkpt lat="47.76695" lon="-3.53462">
        <ele>15.4</ele>
        <time>2021-07-11T08:00:22Z</time>
      </trkpt>
      <trkpt lat="47.76696" lon="-3.53461">
        <ele>15.5</ele>
        <time>2021-07-11T08:00:21Z</time>
      </trkpt>
      <trkpt lat="47.76697" lon="-3.53461">
        <ele>15.5</ele>
        <time>2021-07-11T08:00:20Z</time>
      </trkpt>
      <trkpt lat="47.76699" lon="-3.5346">
        <ele>15.5</ele>
        <time>2021-07-11T08:00:19Z</time>
      </trkpt>
      <trkpt lat="47.767" lon="-3.5346">
        <ele>15.5</ele>
        <time>2021-07-11T08:00:18Z</time>
      </trkpt>
      <trkpt lat="47.76701" lon="-3.53459">
        <ele>15.5</ele>
        <time>2021-07-11T08:00:17Z</time>
      </trkpt>
      <trkpt lat="47.76702" lon="-3.53458">
        <ele>15.5</ele>
        <time>2021-07-11T08:00:16Z</time>
      </trkpt>
      <trkpt lat="47.76704" lon="-3.53457">
        <ele>15.6</ele>
        <time>2021-07-11T08:00:15Z</time>
      </trkpt>
      <trkpt lat="47.76705" lon="-3.53456">
        <ele>15.6</ele>
        <time>2021-07-11T08:00:14Z</time>
      </trkpt>
      <trkpt lat="47.76706" lon="-3.53454">
        <ele>15.6</ele>
        <time>2021-07-11T08:00:13Z</time>
      </trkpt>
      <trkpt lat="47.76708" lon="-3.53453">
        <ele>15.6</ele>
        <time>2021-07-11T08:00:12Z</time>
      </trkpt>
      <trkpt lat="47.76709" lon="-3.53452">
        <ele>15.6</ele>
        <time>2021-07-11T08:00:11Z</time>
      </trkpt>
      <trkpt lat="47.7671" lon="-3.5345">
        <ele>15.6</ele>
        <time>2021-07-11T08:00:10Z</time>
      </trkpt>
      <trkpt lat="47.76711" lon="-3.53449">
        <ele>15.5</ele>
        <time>2021-07-11T08:00:09Z</time>
      </trkpt>
      <trkpt lat="47.76713" lon="-3.53448">
        <ele>15.5</ele>
        <time>2021-07-11T08:00:08Z</time>
      </trkpt>
      <trkpt lat="47.76714" lon="-3.53446">
        <ele>15.5</ele>
        <time>2021-07-11T08:00:07Z</time>
      </trkpt>
      <trkpt lat="47.76715" lon="-3.53444">
        <ele>15.4</ele>
        <time>2021-07-11T08:00:06Z</time>
      </trkpt>
      <trkpt lat="47.76716" lon="-3.53443">
        <ele>15.4</ele>
        <time>2021-07-11T08:00:05Z</time>
      </trkpt>
      <trkpt lat="47.76716" lon="-3.53441">
        <ele>15.3</ele>
        <time>2021-07-11T08:00:04Z</time>
      </trkpt>
      <trkpt lat="47.76717" lon="-3.53439">
        <ele>15.3</ele>
        <time>2021-07-11T08:00:03Z</time>
      </trkpt>
      <trkpt lat="47.76718" lon="-3.53437">
        <ele>15.2</ele>
        <time>2021-07-11T08:00:02Z</time>
      </trkpt>
      <trkpt lat="47.76718" lon="-3.53436">
        <ele>15.2</ele>
        <time>2021-07-11T08:00:01Z</time>
      </trkpt>
      <trkpt lat="47.76719" lon="-3.53434">
        <ele>15.1</ele>
        <time>2021-07-11T08:00:00Z</time>
      </trkpt>
      <trkpt lat="47.76719" lon="-3.53432">
        <ele>15</ele>
        <time>2021-07-11T07:59:59Z</time>
      </trkpt>
      <trkpt lat="47.76719" lon="-3.5343">
        <ele>15</ele>
        <time>2021-07-11T07:59:58Z</time>
      </trkpt>
      <trkpt lat="47.76719" lon="-3.53429">
        <ele>14.9</ele>
        <time>2021-07-11T07:59:57Z</time>
      </trkpt>
      <trkpt lat="47.76719" lon="-3.53427">
        <ele>14.8</ele>
        <time>2021-07-11T07:59:56Z</time>
      </trkpt>
      <trkpt lat="47.76719" lon="-3.53425">
        <ele>14.7</ele>
        <time>2021-07-11T07:59:55Z</time>
      </trkpt>
      <trkpt lat="47.76718" lon="-3.53423">
        <ele>14.6</ele>
        <time>2021-07-11T07:59:54Z</time>
      </trkpt>
      <trkpt lat="47.76718" lon="-3.53422">
        <ele>14.6</ele>
        <time>2021-07-11T07:59:53Z</time>
      </trkpt>
      <trkpt lat="47.76717" lon="-3.5342">
        <ele>14.5</ele>
        <time>2021-07-11T07:59:52Z</time>
      </trkpt>
      <trkpt lat="47.76716" lon="-3.53419">
        <ele>14.4</ele>
        <time>2021-07-11T07:59:51Z</time>
      </trkpt>
      <trkpt lat="47.76716" lon="-3.53417">
        <ele>14.3</ele>
        <time>2021-07-11T07:59:50Z</time>
      </trkpt>
      <trkpt lat="47.76715" lon="-3.53416">
        <ele>14.2</ele>
        <time>2021-07-11T07:59:49Z</time>
      </trkpt>
      <trkpt lat="47.76714" lon="-3.53414">
        <ele>14.1</ele>
        <time>2021-07-11T07:59:48Z</time>
      </trkpt>
      <trkpt lat="47.76713" lon="-3.53413">
        <ele>14</ele>
        <time>2021-07-11T07:59:47Z</time>
      </trkpt>
      <trkpt lat="47.76712" lon="-3.53411">
        <ele>13.9</ele>
        <time>2021-07-11T07:59:46Z</time>
      </trkpt>
      <trkpt lat="47.76711" lon="-3.5341">
        <ele>13.8</ele>
        <time>2021-07-11T07:59:45Z</time>
      </trkpt>
      <trkpt lat="47.7671" lon="-3.53408">
        <ele>13.7</ele>
        <time>2021-07-11T07:59:44Z</time>
      </trkpt>
      <trkpt lat="47.7671" lon="-3.53407">
        <ele>13.6</ele>
        <time>2021-07-11T07:59:43Z</time>
      </trkpt>
      <trkpt lat="47.76709" lon="-3.53405">
        <ele>13.5</ele>
        <time>2021-07-11T07:59:42Z</time>
      </trkpt>
      <trkpt lat="47.76709" lon="-3.53403">
        <ele>13.4</ele>
        <time>2021-07-11T07:59:41Z</time>
      </trkpt>
      <trkpt lat="47.76709" lon="-3.53402">
        <ele>13.3</ele>
        <time>2021-07-11T07:59:40Z</time>
      </trkpt>
      <trkpt lat="47.76709" lon="-3.534">
        <ele>13.2</ele>
        <time>2021-07-11T07:59:39Z</time>
      </trkpt>
      <trkpt lat="47.76709" lon="-3.53398">
        <ele>13.1</ele>
        <time>2021-07-11T07:59:38Z</time>
      </trkpt>
      <trkpt lat="47.76709" lon="-3.53396">
        <ele>13.1</ele>
        <time>2021-07-11T07:59:37Z</time>
      </trkpt>
      <trkpt lat="47.76709" lon="-3.53394">
        <ele>13</ele>
        <time>2021-07-11T07:59:36Z</time>
      </trkpt>
      <trkpt lat="47.7671" lon="-3.53393">
        <ele>12.9</ele>
        <time>2021-07-11T07:59:35Z</time>
      </trkpt>
      <trkpt lat="47.7671" lon="-3.53391">
        <ele>12.8</ele>
        <time>2021-07-11T07:59:34Z</time>
      </trkpt>
      <trkpt lat="47.7671" lon="-3.5339">
        <ele>12.8</ele>
        <time>2021-07-11T07:59:33Z</time>
      </trkpt>
      <trkpt lat="47.76711" lon="-3.53388">
        <ele>12.7</ele>
        <time>2021-07-11T07:59:32Z</time>
      </trkpt>
      <trkpt lat="47.76711" lon="-3.53387">
        <ele>12.7</ele>
        <time>2021-07-11T07:59:31Z</time>
      </trkpt>
      <trkpt lat="47.76712" lon="-3.53386">
        <ele>12.6</ele>
        <time>2021-07-11T07:59:30Z</time>
      </trkpt>
      <trkpt lat="47.76712" lon="-3.53385">
        <ele>12.6</ele>
        <time>2021-07-11T07:59:29Z</time>
      </trkpt>
      <trkpt lat="47.76712" lon="-3.53383">
        <ele>12.5</ele>
        <time>2021-07-11T07:59:28Z</time>
      </trkpt>
      <trkpt lat="47.76713" lon="-3.53382">
        <ele>12.5</ele>
        <time>2021-07-11T07:59:27Z</time>
      </trkpt>
      <trkpt lat="47.76714" lon="-3.5338">
        <ele>12.4</ele>
        <time>2021-07-11T07:59:26Z</time>
      </trkpt>
      <trkpt lat="47.76714" lon="-3.53379">
        <ele>12.4</ele>
        <time>2021-07-11T07:59:25Z</time>
      </trkpt>
      <trkpt lat="47.76715" lon="-3.53377">
        <ele>12.4</ele>
        <time>2021-07-11T07:59:24Z</time>
      </trkpt>
      <trkpt lat="47.76716" lon="-3.53376">
        <ele>12.3</ele>
        <time>2021-07-11T07:59:23Z</time>
      </trkpt>
      <trkpt lat="47.76716" lon="-3.53375">
        <ele>12.3</ele>
        <time>2021-07-11T07:59:22Z</time>
      </trkpt>
      <trkpt lat="47.76717" lon="-3.53373">
        <ele>12.3</ele>
        <time>2021-07-11T07:59:21Z</time>
      </trkpt>
      <trkpt lat="47.76718" lon="-3.53372">
        <ele>12.2</ele>
        <time>2021-07-11T07:59:20Z</time>
      </trkpt>
      <trkpt lat="47.76719" lon="-3.53371">
        <ele>12.2</ele>
        <time>2021-07-11T07:59:19Z</time>
      </trkpt>
      <trkpt lat="47.7672" lon="-3.5337">
        <ele>12.2</ele>
        <time>2021-07-11T07:59:18Z</time>
      </trkpt>
      <trkpt lat="47.76721" lon="-3.53368">
        <ele>12.2</ele>
        <time>2021-07-11T07:59:17Z</time>
      </trkpt>
      <trkpt lat="47.76723" lon="-3.53367">
        <ele>12.2</ele>
        <time>2021-07-11T07:59:16Z</time>
      </trkpt>
      <trkpt lat="47.76724" lon="-3.53367">
        <ele>12.2</ele>
        <time>2021-07-11T07:59:15Z</time>
      </trkpt>
      <trkpt lat="47.76725" lon="-3.53367">
        <ele>12.2</ele>
        <time>2021-07-11T07:59:14Z</time>
      </trkpt>
      <trkpt lat="47.76726" lon="-3.53367">
        <ele>12.3</ele>
        <time>2021-07-11T07:59:13Z</time>
      </trkpt>
      <trkpt lat="47.76728" lon="-3.53368">
        <ele>12.3</ele>
        <time>2021-07-11T07:59:12Z</time>
      </trkpt>
      <trkpt lat="47.76729" lon="-3.53368">
        <ele>12.4</ele>
        <time>2021-07-11T07:59:11Z</time>
      </trkpt>
      <trkpt lat="47.7673" lon="-3.53369">
        <ele>12.4</ele>
        <time>2021-07-11T07:59:10Z</time>
      </trkpt>
      <trkpt lat="47.76732" lon="-3.53369">
        <ele>12.5</ele>
        <time>2021-07-11T07:59:09Z</time>
      </trkpt>
      <trkpt lat="47.76733" lon="-3.5337">
        <ele>12.5</ele>
        <time>2021-07-11T07:59:08Z</time>
      </trkpt>
      <trkpt lat="47.76734" lon="-3.5337">
        <ele>12.6</ele>
        <time>2021-07-11T07:59:07Z</time>
      </trkpt>
      <trkpt lat="47.76735" lon="-3.53371">
        <ele>12.6</ele>
        <time>2021-07-11T07:59:06Z</time>
      </trkpt>
      <trkpt lat="47.76736" lon="-3.53371">
        <ele>12.6</ele>
        <time>2021-07-11T07:59:05Z</time>
      </trkpt>
      <trkpt lat="47.76737" lon="-3.53371">
        <ele>12.7</ele>
        <time>2021-07-11T07:59:04Z</time>
      </trkpt>
      <trkpt lat="47.76738" lon="-3.53372">
        <ele>12.8</ele>
        <time>2021-07-11T07:59:03Z</time>
      </trkpt>
      <trkpt lat="47.76739" lon="-3.53372">
        <ele>12.8</ele>
        <time>2021-07-11T07:59:02Z</time>
      </trkpt>
      <trkpt lat="47.76741" lon="-3.53373">
        <ele>12.9</ele>
        <time>2021-07-11T07:59:01Z</time>
      </trkpt>
      <trkpt lat="47.76742" lon="-3.53373">
        <ele>12.9</ele>
        <time>2021-07-11T07:59:00Z</time>
      </trkpt>
      <trkpt lat="47.76743" lon="-3.53374">
        <ele>13</ele>
        <time>2021-07-11T07:58:59Z</time>
      </trkpt>
      <trkpt lat="47.76744" lon="-3.53374">
        <ele>13.1</ele>
        <time>2021-07-11T07:58:58Z</time>
      </trkpt>
      <trkpt lat="47.76746" lon="-3.53375">
        <ele>13.2</ele>
        <time>2021-07-11T07:58:57Z</time>
      </trkpt>
      <trkpt lat="47.76747" lon="-3.53376">
        <ele>13.2</ele>
        <time>2021-07-11T07:58:56Z</time>
      </trkpt>
      <trkpt lat="47.76748" lon="-3.53376">
        <ele>13.3</ele>
        <time>2021-07-11T07:58:55Z</time>
      </trkpt>
      <trkpt lat="47.7675" lon="-3.53377">
        <ele>13.4</ele>
        <time>2021-07-11T07:58:54Z</time>
      </trkpt>
      <trkpt lat="47.76751" lon="-3.53378">
        <ele>13.5</ele>
        <time>2021-07-11T07:58:53Z</time>
      </trkpt>
      <trkpt lat="47.76753" lon="-3.53378">
        <ele>13.6</ele>
        <time>2021-07-11T07:58:52Z</time>
      </trkpt>
      <trkpt lat="47.76754" lon="-3.53379">
        <ele>13.6</ele>
        <time>2021-07-11T07:58:51Z</time>
      </trkpt>
      <trkpt lat="47.76755" lon="-3.53379">
        <ele>13.7</ele>
        <time>2021-07-11T07:58:50Z</time>
      </trkpt>
      <trkpt lat="47.76757" lon="-3.5338">
        <ele>13.8</ele>
        <time>2021-07-11T07:58:49Z</time>
      </trkpt>
      <trkpt lat="47.76758" lon="-3.5338">
        <ele>13.9</ele>
        <time>2021-07-11T07:58:48Z</time>
      </trkpt>
      <trkpt lat="47.76759" lon="-3.53381">
        <ele>13.9</ele>
        <time>2021-07-11T07:58:47Z</time>
      </trkpt>
      <trkpt lat="47.76761" lon="-3.53381">
        <ele>14</ele>
        <time>2021-07-11T07:58:46Z</time>
      </trkpt>
      <trkpt lat="47.76762" lon="-3.53382">
        <ele>14.1</ele>
        <time>2021-07-11T07:58:45Z</time>
      </trkpt>
      <trkpt lat="47.76763" lon="-3.53382">
        <ele>14.2</ele>
        <time>2021-07-11T07:58:44Z</time>
      </trkpt>
      <trkpt lat="47.76765" lon="-3.53383">
        <ele>14.3</ele>
        <time>2021-07-11T07:58:43Z</time>
      </trkpt>
      <trkpt lat="47.76766" lon="-3.53383">
        <ele>14.3</ele>
        <time>2021-07-11T07:58:42Z</time>
      </trkpt>
      <trkpt lat="47.76767" lon="-3.53384">
        <ele>14.4</ele>
        <time>2021-07-11T07:58:41Z</time>
      </trkpt>
      <trkpt lat="47.76769" lon="-3.53384">
        <ele>14.4</ele>
        <time>2021-07-11T07:58:40Z</time>
      </trkpt>
      <trkpt lat="47.7677" lon="-3.53385">
        <ele>14.5</ele>
        <time>2021-07-11T07:58:39Z</time>
      </trkpt>
      <trkpt lat="47.76771" lon="-3.53385">
        <ele>14.5</ele>
        <time>2021-07-11T07:58:38Z</time>
      </trkpt>
      <trkpt lat="47.76773" lon="-3.53386">
        <ele>14.5</ele>
        <time>2021-07-11T07:58:37Z</time>
      </trkpt>
      <trkpt lat="47.76774" lon="-3.53387">
        <ele>14.6</ele>
        <time>2021-07-11T07:58:36Z</time>
      </trkpt>
      <trkpt lat="47.76775" lon="-3.53388">
        <ele>14.6</ele>
        <time>2021-07-11T07:58:35Z</time>
      </trkpt>
      <trkpt lat="47.76777" lon="-3.53388">
        <ele>14.6</ele>
        <time>2021-07-11T07:58:34Z</time>
      </trkpt>
      <trkpt lat="47.76778" lon="-3.53389">
        <ele>14.7</ele>
        <time>2021-07-11T07:58:33Z</time>
      </trkpt>
      <trkpt lat="47.76779" lon="-3.5339">
        <ele>14.7</ele>
        <time>2021-07-11T07:58:32Z</time>
      </trkpt>
      <trkpt lat="47.76781" lon="-3.53391">
        <ele>14.7</ele>
        <time>2021-07-11T07:58:31Z</time>
      </trkpt>
      <trkpt lat="47.76782" lon="-3.53392">
        <ele>14.7</ele>
        <time>2021-07-11T07:58:30Z</time>
      </trkpt>
      <trkpt lat="47.76783" lon="-3.53393">
        <ele>14.7</ele>
        <time>2021-07-11T07:58:29Z</time>
      </trkpt>
      <trkpt lat="47.76784" lon="-3.53394">
        <ele>14.8</ele>
        <time>2021-07-11T07:58:28Z</time>
      </trkpt>
      <trkpt lat="47.76786" lon="-3.53395">
        <ele>14.8</ele>
        <time>2021-07-11T07:58:27Z</time>
      </trkpt>
      <trkpt lat="47.76787" lon="-3.53395">
        <ele>14.8</ele>
        <time>2021-07-11T07:58:26Z</time>
      </trkpt>
      <trkpt lat="47.76788" lon="-3.53396">
        <ele>14.8</ele>
        <time>2021-07-11T07:58:25Z</time>
      </trkpt>
      <trkpt lat="47.76789" lon="-3.53397">
        <ele>14.8</ele>
        <time>2021-07-11T07:58:24Z</time>
      </trkpt>
      <trkpt lat="47.76791" lon="-3.53398">
        <ele>14.8</ele>
        <time>2021-07-11T07:58:23Z</time>
      </trkpt>
      <trkpt lat="47.76792" lon="-3.53398">
        <ele>14.8</ele>
        <time>2021-07-11T07:58:22Z</time>
      </trkpt>
      <trkpt lat="47.76793" lon="-3.53399">
        <ele>14.9</ele>
        <time>2021-07-11T07:58:21Z</time>
      </trkpt>
      <trkpt lat="47.76794" lon="-3.53399">
        <ele>14.9</ele>
        <time>2021-07-11T07:58:20Z</time>
      </trkpt>
      <trkpt lat="47.76795" lon="-3.53399">
        <ele>14.9</ele>
        <time>2021-07-11T07:58:19Z</time>
      </trkpt>
      <trkpt lat="47.76796" lon="-3.53399">
        <ele>14.9</ele>
        <time>2021-07-11T07:58:18Z</time>
      </trkpt>
      <trkpt lat="47.76797" lon="-3.53399">
        <ele>14.9</ele>
        <time>2021-07-11T07:58:17Z</time>
      </trkpt>
      <trkpt lat="47.76798" lon="-3.53399">
        <ele>14.9</ele>
        <time>2021-07-11T07:58:16Z</time>
      </trkpt>
      <trkpt lat="47.76799" lon="-3.53399">
        <ele>14.6</ele>
        <time>2021-07-11T07:58:15Z</time>
      </trkpt>
      <trkpt lat="47.768" lon="-3.53399">
        <ele>14.5</ele>
        <time>2021-07-11T07:58:14Z</time>
      </trkpt>
      <trkpt lat="47.76801" lon="-3.53398">
        <ele>14.4</ele>
        <time>2021-07-11T07:58:13Z</time>
      </trkpt>
      <trkpt lat="47.76802" lon="-3.53397">
        <ele>14.3</ele>
        <time>2021-07-11T07:58:12Z</time>
      </trkpt>
      <trkpt lat="47.76803" lon="-3.53396">
        <ele>14.3</ele>
        <time>2021-07-11T07:58:11Z</time>
      </trkpt>
      <trkpt lat="47.76804" lon="-3.53395">
        <ele>14.2</ele>
        <time>2021-07-11T07:58:10Z</time>
      </trkpt>
      <trkpt lat="47.76804" lon="-3.53394">
        <ele>14.1</ele>
        <time>2021-07-11T07:58:09Z</time>
      </trkpt>
      <trkpt lat="47.76805" lon="-3.53392">
        <ele>14</ele>
        <time>2021-07-11T07:58:08Z</time>
      </trkpt>
      <trkpt lat="47.76806" lon="-3.53391">
        <ele>13.9</ele>
        <time>2021-07-11T07:58:07Z</time>
      </trkpt>
      <trkpt lat="47.76806" lon="-3.53389">
        <ele>13.7</ele>
        <time>2021-07-11T07:58:06Z</time>
      </trkpt>
      <trkpt lat="47.76807" lon="-3.53387">
        <ele>13.6</ele>
        <time>2021-07-11T07:58:05Z</time>
      </trkpt>
      <trkpt lat="47.76807" lon="-3.53385">
        <ele>13.5</ele>
        <time>2021-07-11T07:58:04Z</time>
      </trkpt>
      <trkpt lat="47.76807" lon="-3.53383">
        <ele>13.4</ele>
        <time>2021-07-11T07:58:03Z</time>
      </trkpt>
      <trkpt lat="47.76808" lon="-3.53381">
        <ele>13.3</ele>
        <time>2021-07-11T07:58:02Z</time>
      </trkpt>
      <trkpt lat="47.76808" lon="-3.53379">
        <ele>13.2</ele>
        <time>2021-07-11T07:58:01Z</time>
      </trkpt>
      <trkpt lat="47.76808" lon="-3.53377">
        <ele>13</ele>
        <time>2021-07-11T07:58:00Z</time>
      </trkpt>
      <trkpt lat="47.76809" lon="-3.53375">
        <ele>12.9</ele>
        <time>2021-07-11T07:57:59Z</time>
      </trkpt>
      <trkpt lat="47.76809" lon="-3.53374">
        <ele>12.8</ele>
        <time>2021-07-11T07:57:58Z</time>
      </trkpt>
      <trkpt lat="47.7681" lon="-3.53372">
        <ele>12.7</ele>
        <time>2021-07-11T07:57:57Z</time>
      </trkpt>
      <trkpt lat="47.7681" lon="-3.53371">
        <ele>12.6</ele>
        <time>2021-07-11T07:57:56Z</time>
      </trkpt>
      <trkpt lat="47.76811" lon="-3.53369">
        <ele>12.5</ele>
        <time>2021-07-11T07:57:55Z</time>
      </trkpt>
      <trkpt lat="47.76811" lon="-3.53367">
        <ele>12.4</ele>
        <time>2021-07-11T07:57:54Z</time>
      </trkpt>
      <trkpt lat="47.76812" lon="-3.53366">
        <ele>12.3</ele>
        <time>2021-07-11T07:57:53Z</time>
      </trkpt>
      <trkpt lat="47.76812" lon="-3.53364">
        <ele>12.2</ele>
        <time>2021-07-11T07:57:52Z</time>
      </trkpt>
      <trkpt lat="47.76813" lon="-3.53362">
        <ele>12.1</ele>
        <time>2021-07-11T07:57:51Z</time>
      </trkpt>
      <trkpt lat="47.76813" lon="-3.5336">
        <ele>11.9</ele>
        <time>2021-07-11T07:57:50Z</time>
      </trkpt>
      <trkpt lat="47.76813" lon="-3.53358">
        <ele>11.8</ele>
        <time>2021-07-11T07:57:49Z</time>
      </trkpt>
      <trkpt lat="47.76814" lon="-3.53356">
        <ele>11.7</ele>
        <time>2021-07-11T07:57:48Z</time>
      </trkpt>
      <trkpt lat="47.76814" lon="-3.53354">
        <ele>11.6</ele>
        <time>2021-07-11T07:57:47Z</time>
      </trkpt>
      <trkpt lat="47.76814" lon="-3.53352">
        <ele>11.5</ele>
        <time>2021-07-11T07:57:46Z</time>
      </trkpt>
      <trkpt lat="47.76815" lon="-3.5335">
        <ele>11.3</ele>
        <time>2021-07-11T07:57:45Z</time>
      </trkpt>
      <trkpt lat="47.76815" lon="-3.53348">
        <ele>11.2</ele>
        <time>2021-07-11T07:57:44Z</time>
      </trkpt>
      <trkpt lat="47.76816" lon="-3.53347">
        <ele>11.1</ele>
        <time>2021-07-11T07:57:43Z</time>
      </trkpt>
      <trkpt lat="47.76816" lon="-3.53345">
        <ele>11</ele>
        <time>2021-07-11T07:57:42Z</time>
      </trkpt>
      <trkpt lat="47.76817" lon="-3.53343">
        <ele>10.9</ele>
        <time>2021-07-11T07:57:41Z</time>
      </trkpt>
      <trkpt lat="47.76817" lon="-3.53341">
        <ele>10.8</ele>
        <time>2021-07-11T07:57:40Z</time>
      </trkpt>
      <trkpt lat="47.76818" lon="-3.5334">
        <ele>10.7</ele>
        <time>2021-07-11T07:57:39Z</time>
      </trkpt>
      <trkpt lat="47.76818" lon="-3.53338">
        <ele>10.6</ele>
        <time>2021-07-11T07:57:38Z</time>
      </trkpt>
      <trkpt lat="47.76819" lon="-3.53336">
        <ele>10.4</ele>
        <time>2021-07-11T07:57:37Z</time>
      </trkpt>
      <trkpt lat="47.76819" lon="-3.53334">
        <ele>10.3</ele>
        <time>2021-07-11T07:57:36Z</time>
      </trkpt>
      <trkpt lat="47.7682" lon="-3.53333">
        <ele>10.2</ele>
        <time>2021-07-11T07:57:35Z</time>
      </trkpt>
      <trkpt lat="47.7682" lon="-3.53331">
        <ele>10.1</ele>
        <time>2021-07-11T07:57:34Z</time>
      </trkpt>
      <trkpt lat="47.76821" lon="-3.53329">
        <ele>10</ele>
        <time>2021-07-11T07:57:33Z</time>
      </trkpt>
      <trkpt lat="47.76822" lon="-3.53327">
        <ele>9.9</ele>
        <time>2021-07-11T07:57:32Z</time>
      </trkpt>
      <trkpt lat="47.76822" lon="-3.53326">
        <ele>9.7</ele>
        <time>2021-07-11T07:57:31Z</time>
      </trkpt>
      <trkpt lat="47.76823" lon="-3.53324">
        <ele>9.6</ele>
        <time>2021-07-11T07:57:30Z</time>
      </trkpt>
      <trkpt lat="47.76823" lon="-3.53322">
        <ele>9.5</ele>
        <time>2021-07-11T07:57:29Z</time>
      </trkpt>
      <trkpt lat="47.76824" lon="-3.5332">
        <ele>9.4</ele>
        <time>2021-07-11T07:57:28Z</time>
      </trkpt>
      <trkpt lat="47.76825" lon="-3.53319">
        <ele>9.3</ele>
        <time>2021-07-11T07:57:27Z</time>
      </trkpt>
      <trkpt lat="47.76825" lon="-3.53317">
        <ele>9.1</ele>
        <time>2021-07-11T07:57:26Z</time>
      </trkpt>
      <trkpt lat="47.76826" lon="-3.53315">
        <ele>9</ele>
        <time>2021-07-11T07:57:25Z</time>
      </trkpt>
      <trkpt lat="47.76827" lon="-3.53313">
        <ele>8.9</ele>
        <time>2021-07-11T07:57:24Z</time>
      </trkpt>
      <trkpt lat="47.76827" lon="-3.53311">
        <ele>8.7</ele>
        <time>2021-07-11T07:57:23Z</time>
      </trkpt>
      <trkpt lat="47.76828" lon="-3.53309">
        <ele>8.6</ele>
        <time>2021-07-11T07:57:22Z</time>
      </trkpt>
      <trkpt lat="47.76829" lon="-3.53308">
        <ele>8.5</ele>
        <time>2021-07-11T07:57:21Z</time>
      </trkpt>
      <trkpt lat="47.76829" lon="-3.53306">
        <ele>8.4</ele>
        <time>2021-07-11T07:57:20Z</time>
      </trkpt>
      <trkpt lat="47.7683" lon="-3.53304">
        <ele>8.2</ele>
        <time>2021-07-11T07:57:19Z</time>
      </trkpt>
      <trkpt lat="47.76831" lon="-3.53302">
        <ele>8.1</ele>
        <time>2021-07-11T07:57:18Z</time>
      </trkpt>
      <trkpt lat="47.76832" lon="-3.533">
        <ele>7.9</ele>
        <time>2021-07-11T07:57:17Z</time>
      </trkpt>
      <trkpt lat="47.76832" lon="-3.53298">
        <ele>7.8</ele>
        <time>2021-07-11T07:57:16Z</time>
      </trkpt>
      <trkpt lat="47.76833" lon="-3.53296">
        <ele>7.7</ele>
        <time>2021-07-11T07:57:15Z</time>
      </trkpt>
      <trkpt lat="47.76834" lon="-3.53295">
        <ele>7.5</ele>
        <time>2021-07-11T07:57:14Z</time>
      </trkpt>
      <trkpt lat="47.76834" lon="-3.53293">
        <ele>7.4</ele>
        <time>2021-07-11T07:57:13Z</time>
      </trkpt>
      <trkpt lat="47.76835" lon="-3.53291">
        <ele>7.3</ele>
        <time>2021-07-11T07:57:12Z</time>
      </trkpt>
      <trkpt lat="47.76836" lon="-3.53289">
        <ele>7.2</ele>
        <time>2021-07-11T07:57:11Z</time>
      </trkpt>
      <trkpt lat="47.76837" lon="-3.53288">
        <ele>7</ele>
        <time>2021-07-11T07:57:10Z</time>
      </trkpt>
      <trkpt lat="47.76837" lon="-3.53286">
        <ele>6.9</ele>
        <time>2021-07-11T07:57:09Z</time>
      </trkpt>
      <trkpt lat="47.76838" lon="-3.53284">
        <ele>6.8</ele>
        <time>2021-07-11T07:57:08Z</time>
      </trkpt>
      <trkpt lat="47.76839" lon="-3.53282">
        <ele>6.7</ele>
        <time>2021-07-11T07:57:07Z</time>
      </trkpt>
      <trkpt lat="47.7684" lon="-3.53281">
        <ele>6.6</ele>
        <time>2021-07-11T07:57:06Z</time>
      </trkpt>
      <trkpt lat="47.76841" lon="-3.53279">
        <ele>6.4</ele>
        <time>2021-07-11T07:57:05Z</time>
      </trkpt>
      <trkpt lat="47.76841" lon="-3.53277">
        <ele>6.3</ele>
        <time>2021-07-11T07:57:04Z</time>
      </trkpt>
      <trkpt lat="47.76842" lon="-3.53276">
        <ele>6.2</ele>
        <time>2021-07-11T07:57:03Z</time>
      </trkpt>
      <trkpt lat="47.76843" lon="-3.53274">
        <ele>6.1</ele>
        <time>2021-07-11T07:57:02Z</time>
      </trkpt>
      <trkpt lat="47.76844" lon="-3.53272">
        <ele>5.9</ele>
        <time>2021-07-11T07:57:01Z</time>
      </trkpt>
      <trkpt lat="47.76844" lon="-3.53271">
        <ele>5.8</ele>
        <time>2021-07-11T07:57:00Z</time>
      </trkpt>
      <trkpt lat="47.76845" lon="-3.53269">
        <ele>5.7</ele>
        <time>2021-07-11T07:56:59Z</time>
      </trkpt>
      <trkpt lat="47.76846" lon="-3.53267">
        <ele>5.6</ele>
        <time>2021-07-11T07:56:58Z</time>
      </trkpt>
      <trkpt lat="47.76847" lon="-3.53265">
        <ele>5.5</ele>
        <time>2021-07-11T07:56:57Z</time>
      </trkpt>
      <trkpt lat="47.76848" lon="-3.53264">
        <ele>5.4</ele>
        <time>2021-07-11T07:56:56Z</time>
      </trkpt>
      <trkpt lat="47.76848" lon="-3.53262">
        <ele>5.3</ele>
        <time>2021-07-11T07:56:55Z</time>
      </trkpt>
      <trkpt lat="47.76849" lon="-3.5326">
        <ele>5.2</ele>
        <time>2021-07-11T07:56:54Z</time>
      </trkpt>
      <trkpt lat="47.76851" lon="-3.53258">
        <ele>5</ele>
        <time>2021-07-11T07:56:53Z</time>
      </trkpt>
      <trkpt lat="47.76852" lon="-3.53258">
        <ele>4.9</ele>
        <time>2021-07-11T07:56:52Z</time>
      </trkpt>
      <trkpt lat="47.76853" lon="-3.53258">
        <ele>4.9</ele>
        <time>2021-07-11T07:56:51Z</time>
      </trkpt>
      <trkpt lat="47.76854" lon="-3.53257">
        <ele>4.8</ele>
        <time>2021-07-11T07:56:50Z</time>
      </trkpt>
      <trkpt lat="47.76855" lon="-3.53256">
        <ele>4.7</ele>
        <time>2021-07-11T07:56:49Z</time>
      </trkpt>
      <trkpt lat="47.76856" lon="-3.53256">
        <ele>4.6</ele>
        <time>2021-07-11T07:56:48Z</time>
      </trkpt>
      <trkpt lat="47.76857" lon="-3.53255">
        <ele>4.5</ele>
        <time>2021-07-11T07:56:47Z</time>
      </trkpt>
      <trkpt lat="47.76859" lon="-3.53253">
        <ele>4.5</ele>
        <time>2021-07-11T07:56:46Z</time>
      </trkpt>
      <trkpt lat="47.7686" lon="-3.53252">
        <ele>4.4</ele>
        <time>2021-07-11T07:56:45Z</time>
      </trkpt>
      <trkpt lat="47.76861" lon="-3.53251">
        <ele>4.4</ele>
        <time>2021-07-11T07:56:44Z</time>
      </trkpt>
      <trkpt lat="47.76862" lon="-3.53249">
        <ele>4.4</ele>
        <time>2021-07-11T07:56:43Z</time>
      </trkpt>
      <trkpt lat="47.76864" lon="-3.53248">
        <ele>4.3</ele>
        <time>2021-07-11T07:56:42Z</time>
      </trkpt>
      <trkpt lat="47.76865" lon="-3.53247">
        <ele>4.3</ele>
        <time>2021-07-11T07:56:41Z</time>
      </trkpt>
      <trkpt lat="47.76866" lon="-3.53246">
        <ele>4.3</ele>
        <time>2021-07-11T07:56:40Z</time>
      </trkpt>
      <trkpt lat="47.76867" lon="-3.53245">
        <ele>4.3</ele>
        <time>2021-07-11T07:56:39Z</time>
      </trkpt>
      <trkpt lat="47.76868" lon="-3.53244">
        <ele>4.2</ele>
        <time>2021-07-11T07:56:38Z</time>
      </trkpt>
      <trkpt lat="47.7687" lon="-3.53243">
        <ele>4.2</ele>
        <time>2021-07-11T07:56:37Z</time>
      </trkpt>
      <trkpt lat="47.76871" lon="-3.53242">
        <ele>4.2</ele>
        <time>2021-07-11T07:56:36Z</time>
      </trkpt>
      <trkpt lat="47.76872" lon="-3.53241">
        <ele>4.2</ele>
        <time>2021-07-11T07:56:35Z</time>
      </trkpt>
      <trkpt lat="47.76873" lon="-3.5324">
        <ele>4.1</ele>
        <time>2021-07-11T07:56:34Z</time>
      </trkpt>
      <trkpt lat="47.76874" lon="-3.53239">
        <ele>4.1</ele>
        <time>2021-07-11T07:56:33Z</time>
      </trkpt>
      <trkpt lat="47.76876" lon="-3.53238">
        <ele>4.1</ele>
        <time>2021-07-11T07:56:32Z</time>
      </trkpt>
      <trkpt lat="47.76877" lon="-3.53237">
        <ele>4.1</ele>
        <time>2021-07-11T07:56:31Z</time>
      </trkpt>
      <trkpt lat="47.76878" lon="-3.53236">
        <ele>4</ele>
        <time>2021-07-11T07:56:30Z</time>
      </trkpt>
      <trkpt lat="47.76879" lon="-3.53235">
        <ele>4</ele>
        <time>2021-07-11T07:56:29Z</time>
      </trkpt>
      <trkpt lat="47.76881" lon="-3.53234">
        <ele>4</ele>
        <time>2021-07-11T07:56:28Z</time>
      </trkpt>
      <trkpt lat="47.76882" lon="-3.53233">
        <ele>4</ele>
        <time>2021-07-11T07:56:27Z</time>
      </trkpt>
      <trkpt lat="47.76883" lon="-3.53232">
        <ele>3.9</ele>
        <time>2021-07-11T07:56:26Z</time>
      </trkpt>
      <trkpt lat="47.76885" lon="-3.53231">
        <ele>3.9</ele>
        <time>2021-07-11T07:56:25Z</time>
      </trkpt>
      <trkpt lat="47.76886" lon="-3.5323">
        <ele>3.9</ele>
        <time>2021-07-11T07:56:24Z</time>
      </trkpt>
      <trkpt lat="47.76887" lon="-3.53229">
        <ele>3.9</ele>
        <time>2021-07-11T07:56:23Z</time>
      </trkpt>
      <trkpt lat="47.76889" lon="-3.53228">
        <ele>3.9</ele>
        <time>2021-07-11T07:56:22Z</time>
      </trkpt>
      <trkpt lat="47.7689" lon="-3.53227">
        <ele>3.9</ele>
        <time>2021-07-11T07:56:21Z</time>
      </trkpt>
      <trkpt lat="47.76891" lon="-3.53226">
        <ele>3.9</ele>
        <time>2021-07-11T07:56:20Z</time>
      </trkpt>
      <trkpt lat="47.76893" lon="-3.53225">
        <ele>3.9</ele>
        <time>2021-07-11T07:56:19Z</time>
      </trkpt>
      <trkpt lat="47.76894" lon="-3.53224">
        <ele>3.9</ele>
        <time>2021-07-11T07:56:18Z</time>
      </trkpt>
      <trkpt lat="47.76895" lon="-3.53224">
        <ele>3.9</ele>
        <time>2021-07-11T07:56:17Z</time>
      </trkpt>
      <trkpt lat="47.76897" lon="-3.53223">
        <ele>3.9</ele>
        <time>2021-07-11T07:56:16Z</time>
      </trkpt>
      <trkpt lat="47.76898" lon="-3.53222">
        <ele>3.9</ele>
        <time>2021-07-11T07:56:15Z</time>
      </trkpt>
      <trkpt lat="47.769" lon="-3.53221">
        <ele>3.9</ele>
        <time>2021-07-11T07:56:14Z</time>
      </trkpt>
      <trkpt lat="47.76901" lon="-3.53221">
        <ele>3.9</ele>
        <time>2021-07-11T07:56:13Z</time>
      </trkpt>
      <trkpt lat="47.76903" lon="-3.5322">
        <ele>3.9</ele>
        <time>2021-07-11T07:56:12Z</time>
      </trkpt>
      <trkpt lat="47.76904" lon="-3.53219">
        <ele>3.9</ele>
        <time>2021-07-11T07:56:11Z</time>
      </trkpt>
      <trkpt lat="47.76905" lon="-3.53219">
        <ele>3.9</ele>
        <time>2021-07-11T07:56:10Z</time>
      </trkpt>
      <trkpt lat="47.76907" lon="-3.53218">
        <ele>3.9</ele>
        <time>2021-07-11T07:56:09Z</time>
      </trkpt>
      <trkpt lat="47.76908" lon="-3.53218">
        <ele>3.9</ele>
        <time>2021-07-11T07:56:08Z</time>
      </trkpt>
      <trkpt lat="47.7691" lon="-3.53217">
        <ele>3.9</ele>
        <time>2021-07-11T07:56:07Z</time>
      </trkpt>
      <trkpt lat="47.76911" lon="-3.53217">
        <ele>3.9</ele>
        <time>2021-07-11T07:56:06Z</time>
      </trkpt>
      <trkpt lat="47.76912" lon="-3.53217">
        <ele>3.9</ele>
        <time>2021-07-11T07:56:05Z</time>
      </trkpt>
      <trkpt lat="47.76914" lon="-3.53216">
        <ele>3.9</ele>
        <time>2021-07-11T07:56:04Z</time>
      </trkpt>
      <trkpt lat="47.76915" lon="-3.53216">
        <ele>4</ele>
        <time>2021-07-11T07:56:03Z</time>
      </trkpt>
      <trkpt lat="47.76916" lon="-3.53216">
        <ele>4</ele>
        <time>2021-07-11T07:56:02Z</time>
      </trkpt>
      <trkpt lat="47.76918" lon="-3.53216">
        <ele>4</ele>
        <time>2021-07-11T07:56:01Z</time>
      </trkpt>
      <trkpt lat="47.76919" lon="-3.53216">
        <ele>4</ele>
        <time>2021-07-11T07:56:00Z</time>
      </trkpt>
      <trkpt lat="47.76921" lon="-3.53216">
        <ele>4</ele>
        <time>2021-07-11T07:55:59Z</time>
      </trkpt>
      <trkpt lat="47.76922" lon="-3.53215">
        <ele>4</ele>
        <time>2021-07-11T07:55:58Z</time>
      </trkpt>
      <trkpt lat="47.76923" lon="-3.53215">
        <ele>4</ele>
        <time>2021-07-11T07:55:57Z</time>
      </trkpt>
      <trkpt lat="47.76925" lon="-3.53215">
        <ele>4</ele>
        <time>2021-07-11T07:55:56Z</time>
      </trkpt>
      <trkpt lat="47.76926" lon="-3.53215">
        <ele>4</ele>
        <time>2021-07-11T07:55:55Z</time>
      </trkpt>
      <trkpt lat="47.76928" lon="-3.53215">
        <ele>4</ele>
        <time>2021-07-11T07:55:54Z</time>
      </trkpt>
      <trkpt lat="47.76929" lon="-3.53215">
        <ele>4</ele>
        <time>2021-07-11T07:55:53Z</time>
      </trkpt>
      <trkpt lat="47.76931" lon="-3.53215">
        <ele>4</ele>
        <time>2021-07-11T07:55:52Z</time>
      </trkpt>
      <trkpt lat="47.76932" lon="-3.53215">
        <ele>4</ele>
        <time>2021-07-11T07:55:51Z</time>
      </trkpt>
      <trkpt lat="47.76934" lon="-3.53214">
        <ele>4</ele>
        <time>2021-07-11T07:55:50Z</time>
      </trkpt>
      <trkpt lat="47.76935" lon="-3.53214">
        <ele>4</ele>
        <time>2021-07-11T07:55:49Z</time>
      </trkpt>
      <trkpt lat="47.76937" lon="-3.53214">
        <ele>4</ele>
        <time>2021-07-11T07:55:48Z</time>
      </trkpt>
      <trkpt lat="47.76938" lon="-3.53214">
        <ele>4</ele>
        <time>2021-07-11T07:55:47Z</time>
      </trkpt>
      <trkpt lat="47.7694" lon="-3.53214">
        <ele>4.1</ele>
        <time>2021-07-11T07:55:46Z</time>
      </trkpt>
      <trkpt lat="47.76942" lon="-3.53213">
        <ele>4.1</ele>
        <time>2021-07-11T07:55:45Z</time>
      </trkpt>
      <trkpt lat="47.76943" lon="-3.53213">
        <ele>4.1</ele>
        <time>2021-07-11T07:55:44Z</time>
      </trkpt>
      <trkpt lat="47.76945" lon="-3.53213">
        <ele>4.1</ele>
        <time>2021-07-11T07:55:43Z</time>
      </trkpt>
      <trkpt lat="47.76946" lon="-3.53213">
        <ele>4.1</ele>
        <time>2021-07-11T07:55:42Z</time>
      </trkpt>
      <trkpt lat="47.76948" lon="-3.53213">
        <ele>4.1</ele>
        <time>2021-07-11T07:55:41Z</time>
      </trkpt>
      <trkpt lat="47.7695" lon="-3.53212">
        <ele>4.1</ele>
        <time>2021-07-11T07:55:40Z</time>
      </trkpt>
      <trkpt lat="47.76951" lon="-3.53212">
        <ele>4.1</ele>
        <time>2021-07-11T07:55:39Z</time>
      </trkpt>
      <trkpt lat="47.76953" lon="-3.53212">
        <ele>4.1</ele>
        <time>2021-07-11T07:55:38Z</time>
      </trkpt>
      <trkpt lat="47.76954" lon="-3.53212">
        <ele>4.1</ele>
        <time>2021-07-11T07:55:37Z</time>
      </trkpt>
      <trkpt lat="47.76956" lon="-3.53213">
        <ele>4.1</ele>
        <time>2021-07-11T07:55:36Z</time>
      </trkpt>
      <trkpt lat="47.76957" lon="-3.53213">
        <ele>4.2</ele>
        <time>2021-07-11T07:55:35Z</time>
      </trkpt>
      <trkpt lat="47.76959" lon="-3.53213">
        <ele>4.2</ele>
        <time>2021-07-11T07:55:34Z</time>
      </trkpt>
      <trkpt lat="47.7696" lon="-3.53213">
        <ele>4.3</ele>
        <time>2021-07-11T07:55:33Z</time>
      </trkpt>
      <trkpt lat="47.76961" lon="-3.53213">
        <ele>4.3</ele>
        <time>2021-07-11T07:55:32Z</time>
      </trkpt>
      <trkpt lat="47.76963" lon="-3.53214">
        <ele>4.4</ele>
        <time>2021-07-11T07:55:31Z</time>
      </trkpt>
      <trkpt lat="47.76964" lon="-3.53214">
        <ele>4.4</ele>
        <time>2021-07-11T07:55:30Z</time>
      </trkpt>
      <trkpt lat="47.76966" lon="-3.53214">
        <ele>4.5</ele>
        <time>2021-07-11T07:55:29Z</time>
      </trkpt>
      <trkpt lat="47.76967" lon="-3.53214">
        <ele>4.6</ele>
        <time>2021-07-11T07:55:28Z</time>
      </trkpt>
      <trkpt lat="47.76969" lon="-3.53215">
        <ele>4.6</ele>
        <time>2021-07-11T07:55:27Z</time>
      </trkpt>
      <trkpt lat="47.76971" lon="-3.53215">
        <ele>4.7</ele>
        <time>2021-07-11T07:55:26Z</time>
      </trkpt>
      <trkpt lat="47.76972" lon="-3.53215">
        <ele>4.8</ele>
        <time>2021-07-11T07:55:25Z</time>
      </trkpt>
      <trkpt lat="47.76974" lon="-3.53216">
        <ele>4.9</ele>
        <time>2021-07-11T07:55:24Z</time>
      </trkpt>
      <trkpt lat="47.76975" lon="-3.53216">
        <ele>5</ele>
        <time>2021-07-11T07:55:23Z</time>
      </trkpt>
      <trkpt lat="47.76977" lon="-3.53216">
        <ele>5.1</ele>
        <time>2021-07-11T07:55:22Z</time>
      </trkpt>
      <trkpt lat="47.76978" lon="-3.53216">
        <ele>5.1</ele>
        <time>2021-07-11T07:55:21Z</time>
      </trkpt>
      <trkpt lat="47.7698" lon="-3.53217">
        <ele>5.2</ele>
        <time>2021-07-11T07:55:20Z</time>
      </trkpt>
      <trkpt lat="47.76982" lon="-3.53217">
        <ele>5.3</ele>
        <time>2021-07-11T07:55:19Z</time>
      </trkpt>
      <trkpt lat="47.76983" lon="-3.53217">
        <ele>5.4</ele>
        <time>2021-07-11T07:55:18Z</time>
      </trkpt>
      <trkpt lat="47.76985" lon="-3.53218">
        <ele>5.5</ele>
        <time>2021-07-11T07:55:17Z</time>
      </trkpt>
      <trkpt lat="47.76986" lon="-3.53218">
        <ele>5.6</ele>
        <time>2021-07-11T07:55:16Z</time>
      </trkpt>
      <trkpt lat="47.76988" lon="-3.53218">
        <ele>5.7</ele>
        <time>2021-07-11T07:55:15Z</time>
      </trkpt>
      <trkpt lat="47.76989" lon="-3.53219">
        <ele>5.8</ele>
        <time>2021-07-11T07:55:14Z</time>
      </trkpt>
      <trkpt lat="47.7699" lon="-3.53219">
        <ele>5.9</ele>
        <time>2021-07-11T07:55:13Z</time>
      </trkpt>
      <trkpt lat="47.76992" lon="-3.53219">
        <ele>6</ele>
        <time>2021-07-11T07:55:12Z</time>
      </trkpt>
      <trkpt lat="47.76993" lon="-3.5322">
        <ele>6</ele>
        <time>2021-07-11T07:55:11Z</time>
      </trkpt>
      <trkpt lat="47.76994" lon="-3.53221">
        <ele>6.1</ele>
        <time>2021-07-11T07:55:10Z</time>
      </trkpt>
      <trkpt lat="47.76996" lon="-3.53221">
        <ele>6.2</ele>
        <time>2021-07-11T07:55:09Z</time>
      </trkpt>
      <trkpt lat="47.76997" lon="-3.53222">
        <ele>6.3</ele>
        <time>2021-07-11T07:55:08Z</time>
      </trkpt>
      <trkpt lat="47.76998" lon="-3.53223">
        <ele>6.5</ele>
        <time>2021-07-11T07:55:07Z</time>
      </trkpt>
      <trkpt lat="47.77" lon="-3.53223">
        <ele>6.5</ele>
        <time>2021-07-11T07:55:06Z</time>
      </trkpt>
      <trkpt lat="47.77001" lon="-3.53224">
        <ele>6.6</ele>
        <time>2021-07-11T07:55:05Z</time>
      </trkpt>
      <trkpt lat="47.77002" lon="-3.53225">
        <ele>6.7</ele>
        <time>2021-07-11T07:55:04Z</time>
      </trkpt>
      <trkpt lat="47.77004" lon="-3.53226">
        <ele>6.8</ele>
        <time>2021-07-11T07:55:03Z</time>
      </trkpt>
      <trkpt lat="47.77006" lon="-3.53227">
        <ele>6.9</ele>
        <time>2021-07-11T07:55:02Z</time>
      </trkpt>
      <trkpt lat="47.77007" lon="-3.53229">
        <ele>7</ele>
        <time>2021-07-11T07:55:01Z</time>
      </trkpt>
      <trkpt lat="47.77009" lon="-3.5323">
        <ele>7.1</ele>
        <time>2021-07-11T07:55:00Z</time>
      </trkpt>
      <trkpt lat="47.77011" lon="-3.53231">
        <ele>7.2</ele>
        <time>2021-07-11T07:54:59Z</time>
      </trkpt>
      <trkpt lat="47.77012" lon="-3.53232">
        <ele>7.2</ele>
        <time>2021-07-11T07:54:58Z</time>
      </trkpt>
      <trkpt lat="47.77012" lon="-3.53232">
        <ele>7.3</ele>
        <time>2021-07-11T07:54:57Z</time>
      </trkpt>
      <trkpt lat="47.77012" lon="-3.53232">
        <ele>7.3</ele>
        <time>2021-07-11T07:54:56Z</time>
      </trkpt>
      <trkpt lat="47.77012" lon="-3.53233">
        <ele>7.3</ele>
        <time>2021-07-11T07:54:55Z</time>
      </trkpt>
      <trkpt lat="47.77013" lon="-3.53233">
        <ele>7.3</ele>
        <time>2021-07-11T07:54:54Z</time>
      </trkpt>
      <trkpt lat="47.77014" lon="-3.53234">
        <ele>7.4</ele>
        <time>2021-07-11T07:54:53Z</time>
      </trkpt>
      <trkpt lat="47.77016" lon="-3.53235">
        <ele>7.5</ele>
        <time>2021-07-11T07:54:52Z</time>
      </trkpt>
      <trkpt lat="47.77017" lon="-3.53235">
        <ele>7.6</ele>
        <time>2021-07-11T07:54:51Z</time>
      </trkpt>
      <trkpt lat="47.77018" lon="-3.53236">
        <ele>7.7</ele>
        <time>2021-07-11T07:54:50Z</time>
      </trkpt>
      <trkpt lat="47.77019" lon="-3.53236">
        <ele>7.8</ele>
        <time>2021-07-11T07:54:49Z</time>
      </trkpt>
      <trkpt lat="47.7702" lon="-3.53236">
        <ele>7.9</ele>
        <time>2021-07-11T07:54:48Z</time>
      </trkpt>
      <trkpt lat="47.77022" lon="-3.53237">
        <ele>8</ele>
        <time>2021-07-11T07:54:47Z</time>
      </trkpt>
      <trkpt lat="47.77023" lon="-3.53237">
        <ele>8.1</ele>
        <time>2021-07-11T07:54:46Z</time>
      </trkpt>
      <trkpt lat="47.77025" lon="-3.53238">
        <ele>8.2</ele>
        <time>2021-07-11T07:54:45Z</time>
      </trkpt>
      <trkpt lat="47.77026" lon="-3.53239">
        <ele>8.3</ele>
        <time>2021-07-11T07:54:44Z</time>
      </trkpt>
      <trkpt lat="47.77028" lon="-3.53239">
        <ele>8.5</ele>
        <time>2021-07-11T07:54:43Z</time>
      </trkpt>
      <trkpt lat="47.77029" lon="-3.5324">
        <ele>8.6</ele>
        <time>2021-07-11T07:54:42Z</time>
      </trkpt>
      <trkpt lat="47.77031" lon="-3.53241">
        <ele>8.7</ele>
        <time>2021-07-11T07:54:41Z</time>
      </trkpt>
      <trkpt lat="47.77032" lon="-3.53242">
        <ele>8.9</ele>
        <time>2021-07-11T07:54:40Z</time>
      </trkpt>
      <trkpt lat="47.77034" lon="-3.53243">
        <ele>9</ele>
        <time>2021-07-11T07:54:39Z</time>
      </trkpt>
      <trkpt lat="47.77035" lon="-3.53243">
        <ele>9.1</ele>
        <time>2021-07-11T07:54:38Z</time>
      </trkpt>
      <trkpt lat="47.77037" lon="-3.53244">
        <ele>9.3</ele>
        <time>2021-07-11T07:54:37Z</time>
      </trkpt>
      <trkpt lat="47.77038" lon="-3.53245">
        <ele>9.4</ele>
        <time>2021-07-11T07:54:36Z</time>
      </trkpt>
      <trkpt lat="47.77039" lon="-3.53245">
        <ele>9.5</ele>
        <time>2021-07-11T07:54:35Z</time>
      </trkpt>
      <trkpt lat="47.7704" lon="-3.53246">
        <ele>9.6</ele>
        <time>2021-07-11T07:54:34Z</time>
      </trkpt>
      <trkpt lat="47.77041" lon="-3.53246">
        <ele>9.7</ele>
        <time>2021-07-11T07:54:33Z</time>
      </trkpt>
      <trkpt lat="47.77042" lon="-3.53247">
        <ele>9.8</ele>
        <time>2021-07-11T07:54:32Z</time>
      </trkpt>
      <trkpt lat="47.77043" lon="-3.53248">
        <ele>9.9</ele>
        <time>2021-07-11T07:54:31Z</time>
      </trkpt>
      <trkpt lat="47.77044" lon="-3.53248">
        <ele>10</ele>
        <time>2021-07-11T07:54:30Z</time>
      </trkpt>
      <trkpt lat="47.77045" lon="-3.53249">
        <ele>10.1</ele>
        <time>2021-07-11T07:54:29Z</time>
      </trkpt>
      <trkpt lat="47.77046" lon="-3.5325">
        <ele>10.2</ele>
        <time>2021-07-11T07:54:28Z</time>
      </trkpt>
      <trkpt lat="47.77047" lon="-3.53251">
        <ele>10.3</ele>
        <time>2021-07-11T07:54:27Z</time>
      </trkpt>
      <trkpt lat="47.77049" lon="-3.53253">
        <ele>10.4</ele>
        <time>2021-07-11T07:54:26Z</time>
      </trkpt>
      <trkpt lat="47.7705" lon="-3.53254">
        <ele>10.6</ele>
        <time>2021-07-11T07:54:25Z</time>
      </trkpt>
      <trkpt lat="47.77051" lon="-3.53255">
        <ele>10.7</ele>
        <time>2021-07-11T07:54:24Z</time>
      </trkpt>
      <trkpt lat="47.77052" lon="-3.53256">
        <ele>10.8</ele>
        <time>2021-07-11T07:54:23Z</time>
      </trkpt>
      <trkpt lat="47.77053" lon="-3.53257">
        <ele>10.9</ele>
        <time>2021-07-11T07:54:22Z</time>
      </trkpt>
      <trkpt lat="47.77054" lon="-3.53258">
        <ele>11</ele>
        <time>2021-07-11T07:54:21Z</time>
      </trkpt>
      <trkpt lat="47.77056" lon="-3.53259">
        <ele>11.2</ele>
        <time>2021-07-11T07:54:20Z</time>
      </trkpt>
      <trkpt lat="47.77057" lon="-3.5326">
        <ele>11.3</ele>
        <time>2021-07-11T07:54:19Z</time>
      </trkpt>
      <trkpt lat="47.77058" lon="-3.53261">
        <ele>11.4</ele>
        <time>2021-07-11T07:54:18Z</time>
      </trkpt>
      <trkpt lat="47.77059" lon="-3.53262">
        <ele>11.5</ele>
        <time>2021-07-11T07:54:17Z</time>
      </trkpt>
      <trkpt lat="47.7706" lon="-3.53263">
        <ele>11.6</ele>
        <time>2021-07-11T07:54:16Z</time>
      </trkpt>
      <trkpt lat="47.77061" lon="-3.53263">
        <ele>11.8</ele>
        <time>2021-07-11T07:54:15Z</time>
      </trkpt>
      <trkpt lat="47.77063" lon="-3.53264">
        <ele>11.9</ele>
        <time>2021-07-11T07:54:14Z</time>
      </trkpt>
      <trkpt lat="47.77064" lon="-3.53265">
        <ele>12</ele>
        <time>2021-07-11T07:54:13Z</time>
      </trkpt>
      <trkpt lat="47.77065" lon="-3.53266">
        <ele>12.1</ele>
        <time>2021-07-11T07:54:12Z</time>
      </trkpt>
      <trkpt lat="47.77066" lon="-3.53266">
        <ele>12.2</ele>
        <time>2021-07-11T07:54:11Z</time>
      </trkpt>
      <trkpt lat="47.77067" lon="-3.53267">
        <ele>12.3</ele>
        <time>2021-07-11T07:54:10Z</time>
      </trkpt>
      <trkpt lat="47.77069" lon="-3.53267">
        <ele>12.5</ele>
        <time>2021-07-11T07:54:09Z</time>
      </trkpt>
      <trkpt lat="47.7707" lon="-3.53268">
        <ele>12.6</ele>
        <time>2021-07-11T07:54:08Z</time>
      </trkpt>
      <trkpt lat="47.77071" lon="-3.53269">
        <ele>12.7</ele>
        <time>2021-07-11T07:54:07Z</time>
      </trkpt>
      <trkpt lat="47.77072" lon="-3.53269">
        <ele>12.8</ele>
        <time>2021-07-11T07:54:06Z</time>
      </trkpt>
      <trkpt lat="47.77073" lon="-3.5327">
        <ele>13</ele>
        <time>2021-07-11T07:54:05Z</time>
      </trkpt>
      <trkpt lat="47.77075" lon="-3.5327">
        <ele>13.1</ele>
        <time>2021-07-11T07:54:04Z</time>
      </trkpt>
      <trkpt lat="47.77076" lon="-3.53271">
        <ele>13.2</ele>
        <time>2021-07-11T07:54:03Z</time>
      </trkpt>
      <trkpt lat="47.77077" lon="-3.53271">
        <ele>13.3</ele>
        <time>2021-07-11T07:54:02Z</time>
      </trkpt>
      <trkpt lat="47.77078" lon="-3.53272">
        <ele>13.5</ele>
        <time>2021-07-11T07:54:01Z</time>
      </trkpt>
      <trkpt lat="47.7708" lon="-3.53272">
        <ele>13.6</ele>
        <time>2021-07-11T07:54:00Z</time>
      </trkpt>
      <trkpt lat="47.77081" lon="-3.53273">
        <ele>13.7</ele>
        <time>2021-07-11T07:53:59Z</time>
      </trkpt>
      <trkpt lat="47.77082" lon="-3.53273">
        <ele>13.8</ele>
        <time>2021-07-11T07:53:58Z</time>
      </trkpt>
      <trkpt lat="47.77083" lon="-3.53274">
        <ele>13.9</ele>
        <time>2021-07-11T07:53:57Z</time>
      </trkpt>
      <trkpt lat="47.77085" lon="-3.53274">
        <ele>14.1</ele>
        <time>2021-07-11T07:53:56Z</time>
      </trkpt>
      <trkpt lat="47.77086" lon="-3.53275">
        <ele>14.2</ele>
        <time>2021-07-11T07:53:55Z</time>
      </trkpt>
      <trkpt lat="47.77087" lon="-3.53275">
        <ele>14.3</ele>
        <time>2021-07-11T07:53:54Z</time>
      </trkpt>
      <trkpt lat="47.77088" lon="-3.53276">
        <ele>14.4</ele>
        <time>2021-07-11T07:53:53Z</time>
      </trkpt>
      <trkpt lat="47.7709" lon="-3.53276">
        <ele>14.6</ele>
        <time>2021-07-11T07:53:52Z</time>
      </trkpt>
      <trkpt lat="47.77091" lon="-3.53277">
        <ele>14.7</ele>
        <time>2021-07-11T07:53:51Z</time>
      </trkpt>
      <trkpt lat="47.77092" lon="-3.53278">
        <ele>14.8</ele>
        <time>2021-07-11T07:53:50Z</time>
      </trkpt>
      <trkpt lat="47.77094" lon="-3.53278">
        <ele>14.9</ele>
        <time>2021-07-11T07:53:49Z</time>
      </trkpt>
      <trkpt lat="47.77095" lon="-3.53279">
        <ele>15</ele>
        <time>2021-07-11T07:53:48Z</time>
      </trkpt>
      <trkpt lat="47.77097" lon="-3.5328">
        <ele>15.2</ele>
        <time>2021-07-11T07:53:47Z</time>
      </trkpt>
      <trkpt lat="47.77098" lon="-3.5328">
        <ele>15.3</ele>
        <time>2021-07-11T07:53:46Z</time>
      </trkpt>
      <trkpt lat="47.771" lon="-3.53281">
        <ele>15.4</ele>
        <time>2021-07-11T07:53:45Z</time>
      </trkpt>
      <trkpt lat="47.77101" lon="-3.53282">
        <ele>15.5</ele>
        <time>2021-07-11T07:53:44Z</time>
      </trkpt>
      <trkpt lat="47.77103" lon="-3.53282">
        <ele>15.6</ele>
        <time>2021-07-11T07:53:43Z</time>
      </trkpt>
      <trkpt lat="47.77104" lon="-3.53282">
        <ele>15.7</ele>
        <time>2021-07-11T07:53:42Z</time>
      </trkpt>
      <trkpt lat="47.77105" lon="-3.53282">
        <ele>15.8</ele>
        <time>2021-07-11T07:53:41Z</time>
      </trkpt>
      <trkpt lat="47.77106" lon="-3.53282">
        <ele>15.9</ele>
        <time>2021-07-11T07:53:40Z</time>
      </trkpt>
      <trkpt lat="47.77108" lon="-3.53282">
        <ele>15.9</ele>
        <time>2021-07-11T07:53:39Z</time>
      </trkpt>
      <trkpt lat="47.77108" lon="-3.53281">
        <ele>15.8</ele>
        <time>2021-07-11T07:53:38Z</time>
      </trkpt>
      <trkpt lat="47.77109" lon="-3.53279">
        <ele>15.8</ele>
        <time>2021-07-11T07:53:37Z</time>
      </trkpt>
      <trkpt lat="47.7711" lon="-3.53278">
        <ele>15.8</ele>
        <time>2021-07-11T07:53:36Z</time>
      </trkpt>
      <trkpt lat="47.77111" lon="-3.53277">
        <ele>15.7</ele>
        <time>2021-07-11T07:53:35Z</time>
      </trkpt>
      <trkpt lat="47.77112" lon="-3.53275">
        <ele>15.7</ele>
        <time>2021-07-11T07:53:34Z</time>
      </trkpt>
      <trkpt lat="47.77113" lon="-3.53274">
        <ele>15.6</ele>
        <time>2021-07-11T07:53:33Z</time>
      </trkpt>
      <trkpt lat="47.77114" lon="-3.53272">
        <ele>15.6</ele>
        <time>2021-07-11T07:53:32Z</time>
      </trkpt>
      <trkpt lat="47.77115" lon="-3.53271">
        <ele>15.5</ele>
        <time>2021-07-11T07:53:31Z</time>
      </trkpt>
      <trkpt lat="47.77116" lon="-3.53269">
        <ele>15.4</ele>
        <time>2021-07-11T07:53:30Z</time>
      </trkpt>
      <trkpt lat="47.77117" lon="-3.53268">
        <ele>15.3</ele>
        <time>2021-07-11T07:53:29Z</time>
      </trkpt>
      <trkpt lat="47.77118" lon="-3.53267">
        <ele>15.2</ele>
        <time>2021-07-11T07:53:28Z</time>
      </trkpt>
      <trkpt lat="47.77119" lon="-3.53266">
        <ele>15.1</ele>
        <time>2021-07-11T07:53:27Z</time>
      </trkpt>
      <trkpt lat="47.7712" lon="-3.53264">
        <ele>15</ele>
        <time>2021-07-11T07:53:26Z</time>
      </trkpt>
      <trkpt lat="47.77121" lon="-3.53263">
        <ele>15</ele>
        <time>2021-07-11T07:53:25Z</time>
      </trkpt>
      <trkpt lat="47.77121" lon="-3.53261">
        <ele>14.9</ele>
        <time>2021-07-11T07:53:24Z</time>
      </trkpt>
      <trkpt lat="47.77122" lon="-3.5326">
        <ele>14.8</ele>
        <time>2021-07-11T07:53:23Z</time>
      </trkpt>
      <trkpt lat="47.77122" lon="-3.53259">
        <ele>14.7</ele>
        <time>2021-07-11T07:53:22Z</time>
      </trkpt>
      <trkpt lat="47.77123" lon="-3.53257">
        <ele>14.6</ele>
        <time>2021-07-11T07:53:21Z</time>
      </trkpt>
      <trkpt lat="47.77123" lon="-3.53256">
        <ele>14.5</ele>
        <time>2021-07-11T07:53:20Z</time>
      </trkpt>
      <trkpt lat="47.77124" lon="-3.53254">
        <ele>14.4</ele>
        <time>2021-07-11T07:53:19Z</time>
      </trkpt>
      <trkpt lat="47.77124" lon="-3.53253">
        <ele>14.3</ele>
        <time>2021-07-11T07:53:18Z</time>
      </trkpt>
      <trkpt lat="47.77125" lon="-3.53251">
        <ele>14.2</ele>
        <time>2021-07-11T07:53:17Z</time>
      </trkpt>
      <trkpt lat="47.77126" lon="-3.5325">
        <ele>14.1</ele>
        <time>2021-07-11T07:53:16Z</time>
      </trkpt>
      <trkpt lat="47.77127" lon="-3.53249">
        <ele>14</ele>
        <time>2021-07-11T07:53:15Z</time>
      </trkpt>
      <trkpt lat="47.77128" lon="-3.53248">
        <ele>13.9</ele>
        <time>2021-07-11T07:53:14Z</time>
      </trkpt>
      <trkpt lat="47.77129" lon="-3.53247">
        <ele>13.8</ele>
        <time>2021-07-11T07:53:13Z</time>
      </trkpt>
      <trkpt lat="47.7713" lon="-3.53246">
        <ele>13.9</ele>
        <time>2021-07-11T07:53:12Z</time>
      </trkpt>
      <trkpt lat="47.77131" lon="-3.53246">
        <ele>13.9</ele>
        <time>2021-07-11T07:53:11Z</time>
      </trkpt>
      <trkpt lat="47.77132" lon="-3.53245">
        <ele>14</ele>
        <time>2021-07-11T07:53:10Z</time>
      </trkpt>
      <trkpt lat="47.77134" lon="-3.53245">
        <ele>14</ele>
        <time>2021-07-11T07:53:09Z</time>
      </trkpt>
      <trkpt lat="47.77135" lon="-3.53246">
        <ele>14.1</ele>
        <time>2021-07-11T07:53:08Z</time>
      </trkpt>
      <trkpt lat="47.77136" lon="-3.53246">
        <ele>14.1</ele>
        <time>2021-07-11T07:53:07Z</time>
      </trkpt>
      <trkpt lat="47.77137" lon="-3.53247">
        <ele>14.2</ele>
        <time>2021-07-11T07:53:06Z</time>
      </trkpt>
      <trkpt lat="47.77138" lon="-3.53248">
        <ele>14.2</ele>
        <time>2021-07-11T07:53:05Z</time>
      </trkpt>
      <trkpt lat="47.77139" lon="-3.5325">
        <ele>14.2</ele>
        <time>2021-07-11T07:53:04Z</time>
      </trkpt>
      <trkpt lat="47.7714" lon="-3.53251">
        <ele>14.2</ele>
        <time>2021-07-11T07:53:03Z</time>
      </trkpt>
      <trkpt lat="47.77141" lon="-3.53253">
        <ele>14.2</ele>
        <time>2021-07-11T07:53:02Z</time>
      </trkpt>
      <trkpt lat="47.77142" lon="-3.53254">
        <ele>14.3</ele>
        <time>2021-07-11T07:53:01Z</time>
      </trkpt>
      <trkpt lat="47.77143" lon="-3.53255">
        <ele>14.3</ele>
        <time>2021-07-11T07:53:00Z</time>
      </trkpt>
      <trkpt lat="47.77144" lon="-3.53257">
        <ele>14.3</ele>
        <time>2021-07-11T07:52:59Z</time>
      </trkpt>
      <trkpt lat="47.77146" lon="-3.53258">
        <ele>14.3</ele>
        <time>2021-07-11T07:52:58Z</time>
      </trkpt>
      <trkpt lat="47.77147" lon="-3.53259">
        <ele>14.3</ele>
        <time>2021-07-11T07:52:57Z</time>
      </trkpt>
      <trkpt lat="47.77148" lon="-3.5326">
        <ele>14.3</ele>
        <time>2021-07-11T07:52:56Z</time>
      </trkpt>
      <trkpt lat="47.77149" lon="-3.53261">
        <ele>14.2</ele>
        <time>2021-07-11T07:52:55Z</time>
      </trkpt>
      <trkpt lat="47.7715" lon="-3.53262">
        <ele>14.2</ele>
        <time>2021-07-11T07:52:54Z</time>
      </trkpt>
      <trkpt lat="47.77152" lon="-3.53263">
        <ele>14.2</ele>
        <time>2021-07-11T07:52:53Z</time>
      </trkpt>
      <trkpt lat="47.77153" lon="-3.53264">
        <ele>14.2</ele>
        <time>2021-07-11T07:52:52Z</time>
      </trkpt>
      <trkpt lat="47.77154" lon="-3.53266">
        <ele>14.2</ele>
        <time>2021-07-11T07:52:51Z</time>
      </trkpt>
      <trkpt lat="47.77155" lon="-3.53267">
        <ele>14.2</ele>
        <time>2021-07-11T07:52:50Z</time>
      </trkpt>
      <trkpt lat="47.77156" lon="-3.53268">
        <ele>14.2</ele>
        <time>2021-07-11T07:52:49Z</time>
      </trkpt>
      <trkpt lat="47.77157" lon="-3.53269">
        <ele>14.2</ele>
        <time>2021-07-11T07:52:48Z</time>
      </trkpt>
      <trkpt lat="47.77158" lon="-3.5327">
        <ele>14.2</ele>
        <time>2021-07-11T07:52:47Z</time>
      </trkpt>
      <trkpt lat="47.77159" lon="-3.53271">
        <ele>14.2</ele>
        <time>2021-07-11T07:52:46Z</time>
      </trkpt>
      <trkpt lat="47.7716" lon="-3.53272">
        <ele>14.1</ele>
        <time>2021-07-11T07:52:45Z</time>
      </trkpt>
      <trkpt lat="47.77161" lon="-3.53274">
        <ele>14.1</ele>
        <time>2021-07-11T07:52:44Z</time>
      </trkpt>
      <trkpt lat="47.77162" lon="-3.53275">
        <ele>14.1</ele>
        <time>2021-07-11T07:52:43Z</time>
      </trkpt>
      <trkpt lat="47.77163" lon="-3.53276">
        <ele>14.1</ele>
        <time>2021-07-11T07:52:42Z</time>
      </trkpt>
      <trkpt lat="47.77164" lon="-3.53278">
        <ele>14.1</ele>
        <time>2021-07-11T07:52:41Z</time>
      </trkpt>
      <trkpt lat="47.77164" lon="-3.53279">
        <ele>14.1</ele>
        <time>2021-07-11T07:52:40Z</time>
      </trkpt>
      <trkpt lat="47.77165" lon="-3.5328">
        <ele>14.1</ele>
        <time>2021-07-11T07:52:39Z</time>
      </trkpt>
      <trkpt lat="47.77166" lon="-3.53282">
        <ele>14.1</ele>
        <time>2021-07-11T07:52:38Z</time>
      </trkpt>
      <trkpt lat="47.77166" lon="-3.53284">
        <ele>14.1</ele>
        <time>2021-07-11T07:52:37Z</time>
      </trkpt>
      <trkpt lat="47.77167" lon="-3.53285">
        <ele>14.1</ele>
        <time>2021-07-11T07:52:36Z</time>
      </trkpt>
      <trkpt lat="47.77167" lon="-3.53287">
        <ele>14</ele>
        <time>2021-07-11T07:52:35Z</time>
      </trkpt>
      <trkpt lat="47.77168" lon="-3.53289">
        <ele>14</ele>
        <time>2021-07-11T07:52:34Z</time>
      </trkpt>
      <trkpt lat="47.77168" lon="-3.5329">
        <ele>14</ele>
        <time>2021-07-11T07:52:33Z</time>
      </trkpt>
      <trkpt lat="47.77169" lon="-3.53292">
        <ele>14</ele>
        <time>2021-07-11T07:52:32Z</time>
      </trkpt>
      <trkpt lat="47.77169" lon="-3.53294">
        <ele>14</ele>
        <time>2021-07-11T07:52:31Z</time>
      </trkpt>
      <trkpt lat="47.77169" lon="-3.53296">
        <ele>14</ele>
        <time>2021-07-11T07:52:30Z</time>
      </trkpt>
      <trkpt lat="47.7717" lon="-3.53298">
        <ele>13.9</ele>
        <time>2021-07-11T07:52:29Z</time>
      </trkpt>
      <trkpt lat="47.7717" lon="-3.533">
        <ele>13.9</ele>
        <time>2021-07-11T07:52:28Z</time>
      </trkpt>
      <trkpt lat="47.77171" lon="-3.53302">
        <ele>13.9</ele>
        <time>2021-07-11T07:52:27Z</time>
      </trkpt>
      <trkpt lat="47.77171" lon="-3.53304">
        <ele>13.9</ele>
        <time>2021-07-11T07:52:26Z</time>
      </trkpt>
      <trkpt lat="47.77171" lon="-3.53305">
        <ele>13.8</ele>
        <time>2021-07-11T07:52:25Z</time>
      </trkpt>
      <trkpt lat="47.77172" lon="-3.53307">
        <ele>13.8</ele>
        <time>2021-07-11T07:52:24Z</time>
      </trkpt>
      <trkpt lat="47.77172" lon="-3.53309">
        <ele>13.8</ele>
        <time>2021-07-11T07:52:23Z</time>
      </trkpt>
      <trkpt lat="47.77172" lon="-3.53311">
        <ele>13.7</ele>
        <time>2021-07-11T07:52:22Z</time>
      </trkpt>
      <trkpt lat="47.77173" lon="-3.53313">
        <ele>13.7</ele>
        <time>2021-07-11T07:52:21Z</time>
      </trkpt>
      <trkpt lat="47.77173" lon="-3.53315">
        <ele>13.6</ele>
        <time>2021-07-11T07:52:20Z</time>
      </trkpt>
      <trkpt lat="47.77174" lon="-3.53316">
        <ele>13.6</ele>
        <time>2021-07-11T07:52:19Z</time>
      </trkpt>
      <trkpt lat="47.77174" lon="-3.53318">
        <ele>13.5</ele>
        <time>2021-07-11T07:52:18Z</time>
      </trkpt>
      <trkpt lat="47.77175" lon="-3.5332">
        <ele>13.5</ele>
        <time>2021-07-11T07:52:17Z</time>
      </trkpt>
      <trkpt lat="47.77175" lon="-3.53321">
        <ele>13.5</ele>
        <time>2021-07-11T07:52:16Z</time>
      </trkpt>
      <trkpt lat="47.77176" lon="-3.53323">
        <ele>13.4</ele>
        <time>2021-07-11T07:52:15Z</time>
      </trkpt>
      <trkpt lat="47.77177" lon="-3.53324">
        <ele>13.4</ele>
        <time>2021-07-11T07:52:14Z</time>
      </trkpt>
      <trkpt lat="47.77177" lon="-3.53326">
        <ele>13.3</ele>
        <time>2021-07-11T07:52:13Z</time>
      </trkpt>
      <trkpt lat="47.77178" lon="-3.53327">
        <ele>13.3</ele>
        <time>2021-07-11T07:52:12Z</time>
      </trkpt>
      <trkpt lat="47.77179" lon="-3.53328">
        <ele>13.2</ele>
        <time>2021-07-11T07:52:11Z</time>
      </trkpt>
      <trkpt lat="47.7718" lon="-3.53329">
        <ele>13.2</ele>
        <time>2021-07-11T07:52:10Z</time>
      </trkpt>
      <trkpt lat="47.77181" lon="-3.5333">
        <ele>13.1</ele>
        <time>2021-07-11T07:52:09Z</time>
      </trkpt>
      <trkpt lat="47.77182" lon="-3.53332">
        <ele>13.1</ele>
        <time>2021-07-11T07:52:08Z</time>
      </trkpt>
      <trkpt lat="47.77184" lon="-3.53333">
        <ele>13</ele>
        <time>2021-07-11T07:52:07Z</time>
      </trkpt>
      <trkpt lat="47.77185" lon="-3.53334">
        <ele>13</ele>
        <time>2021-07-11T07:52:06Z</time>
      </trkpt>
      <trkpt lat="47.77186" lon="-3.53335">
        <ele>13</ele>
        <time>2021-07-11T07:52:05Z</time>
      </trkpt>
      <trkpt lat="47.77188" lon="-3.53335">
        <ele>12.9</ele>
        <time>2021-07-11T07:52:04Z</time>
      </trkpt>
      <trkpt lat="47.77189" lon="-3.53336">
        <ele>12.9</ele>
        <time>2021-07-11T07:52:03Z</time>
      </trkpt>
      <trkpt lat="47.77191" lon="-3.53337">
        <ele>12.8</ele>
        <time>2021-07-11T07:52:02Z</time>
      </trkpt>
      <trkpt lat="47.77192" lon="-3.53338">
        <ele>12.8</ele>
        <time>2021-07-11T07:52:01Z</time>
      </trkpt>
      <trkpt lat="47.77194" lon="-3.53339">
        <ele>12.8</ele>
        <time>2021-07-11T07:52:00Z</time>
      </trkpt>
      <trkpt lat="47.77195" lon="-3.53339">
        <ele>12.7</ele>
        <time>2021-07-11T07:51:59Z</time>
      </trkpt>
      <trkpt lat="47.77197" lon="-3.53339">
        <ele>12.7</ele>
        <time>2021-07-11T07:51:58Z</time>
      </trkpt>
      <trkpt lat="47.77198" lon="-3.53339">
        <ele>12.7</ele>
        <time>2021-07-11T07:51:57Z</time>
      </trkpt>
      <trkpt lat="47.77199" lon="-3.53339">
        <ele>12.7</ele>
        <time>2021-07-11T07:51:56Z</time>
      </trkpt>
      <trkpt lat="47.772" lon="-3.53339">
        <ele>12.7</ele>
        <time>2021-07-11T07:51:55Z</time>
      </trkpt>
      <trkpt lat="47.77201" lon="-3.53339">
        <ele>12.7</ele>
        <time>2021-07-11T07:51:54Z</time>
      </trkpt>
      <trkpt lat="47.77202" lon="-3.53339">
        <ele>12.7</ele>
        <time>2021-07-11T07:51:53Z</time>
      </trkpt>
      <trkpt lat="47.77204" lon="-3.53338">
        <ele>12.7</ele>
        <time>2021-07-11T07:51:52Z</time>
      </trkpt>
      <trkpt lat="47.77205" lon="-3.53339">
        <ele>12.7</ele>
        <time>2021-07-11T07:51:51Z</time>
      </trkpt>
      <trkpt lat="47.77206" lon="-3.53339">
        <ele>12.6</ele>
        <time>2021-07-11T07:51:50Z</time>
      </trkpt>
      <trkpt lat="47.77207" lon="-3.53339">
        <ele>12.6</ele>
        <time>2021-07-11T07:51:49Z</time>
      </trkpt>
      <trkpt lat="47.77209" lon="-3.5334">
        <ele>12.6</ele>
        <time>2021-07-11T07:51:48Z</time>
      </trkpt>
      <trkpt lat="47.7721" lon="-3.53341">
        <ele>12.6</ele>
        <time>2021-07-11T07:51:47Z</time>
      </trkpt>
      <trkpt lat="47.77212" lon="-3.53342">
        <ele>12.7</ele>
        <time>2021-07-11T07:51:46Z</time>
      </trkpt>
      <trkpt lat="47.77213" lon="-3.53343">
        <ele>12.7</ele>
        <time>2021-07-11T07:51:45Z</time>
      </trkpt>
      <trkpt lat="47.77215" lon="-3.53344">
        <ele>12.7</ele>
        <time>2021-07-11T07:51:44Z</time>
      </trkpt>
      <trkpt lat="47.77216" lon="-3.53345">
        <ele>12.7</ele>
        <time>2021-07-11T07:51:43Z</time>
      </trkpt>
      <trkpt lat="47.77217" lon="-3.53346">
        <ele>12.8</ele>
        <time>2021-07-11T07:51:42Z</time>
      </trkpt>
      <trkpt lat="47.77219" lon="-3.53347">
        <ele>12.8</ele>
        <time>2021-07-11T07:51:41Z</time>
      </trkpt>
      <trkpt lat="47.7722" lon="-3.53348">
        <ele>12.8</ele>
        <time>2021-07-11T07:51:40Z</time>
      </trkpt>
      <trkpt lat="47.77221" lon="-3.53349">
        <ele>12.9</ele>
        <time>2021-07-11T07:51:39Z</time>
      </trkpt>
      <trkpt lat="47.77223" lon="-3.5335">
        <ele>12.9</ele>
        <time>2021-07-11T07:51:38Z</time>
      </trkpt>
      <trkpt lat="47.77224" lon="-3.5335">
        <ele>13</ele>
        <time>2021-07-11T07:51:37Z</time>
      </trkpt>
      <trkpt lat="47.77225" lon="-3.53351">
        <ele>13</ele>
        <time>2021-07-11T07:51:36Z</time>
      </trkpt>
      <trkpt lat="47.77226" lon="-3.53352">
        <ele>13.1</ele>
        <time>2021-07-11T07:51:35Z</time>
      </trkpt>
      <trkpt lat="47.77227" lon="-3.53353">
        <ele>13.1</ele>
        <time>2021-07-11T07:51:34Z</time>
      </trkpt>
      <trkpt lat="47.77228" lon="-3.53354">
        <ele>13.2</ele>
        <time>2021-07-11T07:51:33Z</time>
      </trkpt>
      <trkpt lat="47.77229" lon="-3.53354">
        <ele>13.2</ele>
        <time>2021-07-11T07:51:32Z</time>
      </trkpt>
      <trkpt lat="47.7723" lon="-3.53355">
        <ele>13.3</ele>
        <time>2021-07-11T07:51:31Z</time>
      </trkpt>
      <trkpt lat="47.77231" lon="-3.53355">
        <ele>13.4</ele>
        <time>2021-07-11T07:51:30Z</time>
      </trkpt>
      <trkpt lat="47.77232" lon="-3.53356">
        <ele>13.4</ele>
        <time>2021-07-11T07:51:29Z</time>
      </trkpt>
      <trkpt lat="47.77233" lon="-3.53356">
        <ele>13.5</ele>
        <time>2021-07-11T07:51:28Z</time>
      </trkpt>
      <trkpt lat="47.77235" lon="-3.53357">
        <ele>13.5</ele>
        <time>2021-07-11T07:51:27Z</time>
      </trkpt>
      <trkpt lat="47.77236" lon="-3.53357">
        <ele>13.6</ele>
        <time>2021-07-11T07:51:26Z</time>
      </trkpt>
      <trkpt lat="47.77237" lon="-3.53358">
        <ele>13.6</ele>
        <time>2021-07-11T07:51:25Z</time>
      </trkpt>
      <trkpt lat="47.77238" lon="-3.53358">
        <ele>13.7</ele>
        <time>2021-07-11T07:51:24Z</time>
      </trkpt>
      <trkpt lat="47.77239" lon="-3.53358">
        <ele>13.7</ele>
        <time>2021-07-11T07:51:23Z</time>
      </trkpt>
      <trkpt lat="47.7724" lon="-3.53358">
        <ele>13.8</ele>
        <time>2021-07-11T07:51:22Z</time>
      </trkpt>
      <trkpt lat="47.77242" lon="-3.53359">
        <ele>13.9</ele>
        <time>2021-07-11T07:51:21Z</time>
      </trkpt>
      <trkpt lat="47.77243" lon="-3.53359">
        <ele>13.9</ele>
        <time>2021-07-11T07:51:20Z</time>
      </trkpt>
      <trkpt lat="47.77244" lon="-3.53359">
        <ele>14</ele>
        <time>2021-07-11T07:51:19Z</time>
      </trkpt>
      <trkpt lat="47.77245" lon="-3.53359">
        <ele>14</ele>
        <time>2021-07-11T07:51:18Z</time>
      </trkpt>
      <trkpt lat="47.77247" lon="-3.53359">
        <ele>14.1</ele>
        <time>2021-07-11T07:51:17Z</time>
      </trkpt>
      <trkpt lat="47.77248" lon="-3.5336">
        <ele>14.1</ele>
        <time>2021-07-11T07:51:16Z</time>
      </trkpt>
      <trkpt lat="47.77249" lon="-3.5336">
        <ele>14.2</ele>
        <time>2021-07-11T07:51:15Z</time>
      </trkpt>
      <trkpt lat="47.7725" lon="-3.5336">
        <ele>14.2</ele>
        <time>2021-07-11T07:51:14Z</time>
      </trkpt>
      <trkpt lat="47.77252" lon="-3.5336">
        <ele>14.2</ele>
        <time>2021-07-11T07:51:13Z</time>
      </trkpt>
      <trkpt lat="47.77253" lon="-3.53361">
        <ele>14.3</ele>
        <time>2021-07-11T07:51:12Z</time>
      </trkpt>
      <trkpt lat="47.77254" lon="-3.53361">
        <ele>14.3</ele>
        <time>2021-07-11T07:51:11Z</time>
      </trkpt>
      <trkpt lat="47.77255" lon="-3.53361">
        <ele>14.3</ele>
        <time>2021-07-11T07:51:10Z</time>
      </trkpt>
      <trkpt lat="47.77256" lon="-3.53362">
        <ele>14.3</ele>
        <time>2021-07-11T07:51:09Z</time>
      </trkpt>
      <trkpt lat="47.77257" lon="-3.53362">
        <ele>14.4</ele>
        <time>2021-07-11T07:51:08Z</time>
      </trkpt>
      <trkpt lat="47.77259" lon="-3.53363">
        <ele>14.4</ele>
        <time>2021-07-11T07:51:07Z</time>
      </trkpt>
      <trkpt lat="47.7726" lon="-3.53363">
        <ele>14.4</ele>
        <time>2021-07-11T07:51:06Z</time>
      </trkpt>
      <trkpt lat="47.77261" lon="-3.53364">
        <ele>14.4</ele>
        <time>2021-07-11T07:51:05Z</time>
      </trkpt>
      <trkpt lat="47.77262" lon="-3.53365">
        <ele>14.4</ele>
        <time>2021-07-11T07:51:04Z</time>
      </trkpt>
      <trkpt lat="47.77263" lon="-3.53365">
        <ele>14.4</ele>
        <time>2021-07-11T07:51:03Z</time>
      </trkpt>
      <trkpt lat="47.77264" lon="-3.53366">
        <ele>14.4</ele>
        <time>2021-07-11T07:51:02Z</time>
      </trkpt>
      <trkpt lat="47.77265" lon="-3.53367">
        <ele>14.4</ele>
        <time>2021-07-11T07:51:01Z</time>
      </trkpt>
      <trkpt lat="47.77266" lon="-3.53367">
        <ele>14.4</ele>
        <time>2021-07-11T07:51:00Z</time>
      </trkpt>
      <trkpt lat="47.77267" lon="-3.53368">
        <ele>14.4</ele>
        <time>2021-07-11T07:50:59Z</time>
      </trkpt>
      <trkpt lat="47.77268" lon="-3.53369">
        <ele>14.4</ele>
        <time>2021-07-11T07:50:58Z</time>
      </trkpt>
      <trkpt lat="47.77269" lon="-3.53369">
        <ele>14.3</ele>
        <time>2021-07-11T07:50:57Z</time>
      </trkpt>
      <trkpt lat="47.7727" lon="-3.5337">
        <ele>13.8</ele>
        <time>2021-07-11T07:50:56Z</time>
      </trkpt>
      <trkpt lat="47.77271" lon="-3.5337">
        <ele>13.6</ele>
        <time>2021-07-11T07:50:55Z</time>
      </trkpt>
      <trkpt lat="47.77272" lon="-3.5337">
        <ele>13.4</ele>
        <time>2021-07-11T07:50:54Z</time>
      </trkpt>
      <trkpt lat="47.77273" lon="-3.5337">
        <ele>13.3</ele>
        <time>2021-07-11T07:50:53Z</time>
      </trkpt>
      <trkpt lat="47.77274" lon="-3.5337">
        <ele>13.1</ele>
        <time>2021-07-11T07:50:52Z</time>
      </trkpt>
      <trkpt lat="47.77275" lon="-3.53369">
        <ele>12.9</ele>
        <time>2021-07-11T07:50:51Z</time>
      </trkpt>
      <trkpt lat="47.77275" lon="-3.53369">
        <ele>12.7</ele>
        <time>2021-07-11T07:50:50Z</time>
      </trkpt>
      <trkpt lat="47.77276" lon="-3.53368">
        <ele>12.6</ele>
        <time>2021-07-11T07:50:49Z</time>
      </trkpt>
      <trkpt lat="47.77277" lon="-3.53368">
        <ele>12.4</ele>
        <time>2021-07-11T07:50:48Z</time>
      </trkpt>
      <trkpt lat="47.77278" lon="-3.53367">
        <ele>12.2</ele>
        <time>2021-07-11T07:50:47Z</time>
      </trkpt>
      <trkpt lat="47.77278" lon="-3.53367">
        <ele>12.1</ele>
        <time>2021-07-11T07:50:46Z</time>
      </trkpt>
      <trkpt lat="47.77279" lon="-3.53367">
        <ele>11.9</ele>
        <time>2021-07-11T07:50:45Z</time>
      </trkpt>
      <trkpt lat="47.7728" lon="-3.53367">
        <ele>11.8</ele>
        <time>2021-07-11T07:50:44Z</time>
      </trkpt>
      <trkpt lat="47.7728" lon="-3.53367">
        <ele>11.6</ele>
        <time>2021-07-11T07:50:43Z</time>
      </trkpt>
      <trkpt lat="47.77281" lon="-3.53367">
        <ele>11.5</ele>
        <time>2021-07-11T07:50:42Z</time>
      </trkpt>
      <trkpt lat="47.77282" lon="-3.53367">
        <ele>11.3</ele>
        <time>2021-07-11T07:50:41Z</time>
      </trkpt>
      <trkpt lat="47.77283" lon="-3.53367">
        <ele>11.2</ele>
        <time>2021-07-11T07:50:40Z</time>
      </trkpt>
      <trkpt lat="47.77283" lon="-3.53367">
        <ele>11</ele>
        <time>2021-07-11T07:50:39Z</time>
      </trkpt>
      <trkpt lat="47.77284" lon="-3.53367">
        <ele>10.8</ele>
        <time>2021-07-11T07:50:38Z</time>
      </trkpt>
      <trkpt lat="47.77285" lon="-3.53367">
        <ele>10.6</ele>
        <time>2021-07-11T07:50:37Z</time>
      </trkpt>
      <trkpt lat="47.77286" lon="-3.53368">
        <ele>10.5</ele>
        <time>2021-07-11T07:50:36Z</time>
      </trkpt>
      <trkpt lat="47.77287" lon="-3.53368">
        <ele>10.3</ele>
        <time>2021-07-11T07:50:35Z</time>
      </trkpt>
      <trkpt lat="47.77288" lon="-3.53368">
        <ele>10.2</ele>
        <time>2021-07-11T07:50:34Z</time>
      </trkpt>
      <trkpt lat="47.77288" lon="-3.53368">
        <ele>10</ele>
        <time>2021-07-11T07:50:33Z</time>
      </trkpt>
      <trkpt lat="47.77289" lon="-3.53368">
        <ele>9.9</ele>
        <time>2021-07-11T07:50:32Z</time>
      </trkpt>
      <trkpt lat="47.7729" lon="-3.53368">
        <ele>9.7</ele>
        <time>2021-07-11T07:50:31Z</time>
      </trkpt>
      <trkpt lat="47.77291" lon="-3.53369">
        <ele>9.6</ele>
        <time>2021-07-11T07:50:30Z</time>
      </trkpt>
      <trkpt lat="47.77292" lon="-3.53369">
        <ele>9.4</ele>
        <time>2021-07-11T07:50:29Z</time>
      </trkpt>
      <trkpt lat="47.77293" lon="-3.53368">
        <ele>9.3</ele>
        <time>2021-07-11T07:50:28Z</time>
      </trkpt>
      <trkpt lat="47.77294" lon="-3.53368">
        <ele>9.2</ele>
        <time>2021-07-11T07:50:27Z</time>
      </trkpt>
      <trkpt lat="47.77295" lon="-3.53368">
        <ele>9</ele>
        <time>2021-07-11T07:50:26Z</time>
      </trkpt>
      <trkpt lat="47.77296" lon="-3.53368">
        <ele>8.9</ele>
        <time>2021-07-11T07:50:25Z</time>
      </trkpt>
      <trkpt lat="47.77298" lon="-3.53367">
        <ele>8.9</ele>
        <time>2021-07-11T07:50:24Z</time>
      </trkpt>
      <trkpt lat="47.77299" lon="-3.53367">
        <ele>8.8</ele>
        <time>2021-07-11T07:50:23Z</time>
      </trkpt>
      <trkpt lat="47.773" lon="-3.53366">
        <ele>8.7</ele>
        <time>2021-07-11T07:50:22Z</time>
      </trkpt>
      <trkpt lat="47.77301" lon="-3.53366">
        <ele>8.7</ele>
        <time>2021-07-11T07:50:21Z</time>
      </trkpt>
      <trkpt lat="47.77303" lon="-3.53365">
        <ele>8.7</ele>
        <time>2021-07-11T07:50:20Z</time>
      </trkpt>
      <trkpt lat="47.77304" lon="-3.53364">
        <ele>8.7</ele>
        <time>2021-07-11T07:50:19Z</time>
      </trkpt>
      <trkpt lat="47.77305" lon="-3.53364">
        <ele>8.8</ele>
        <time>2021-07-11T07:50:18Z</time>
      </trkpt>
      <trkpt lat="47.77306" lon="-3.53363">
        <ele>8.8</ele>
        <time>2021-07-11T07:50:17Z</time>
      </trkpt>
      <trkpt lat="47.77308" lon="-3.53362">
        <ele>8.9</ele>
        <time>2021-07-11T07:50:16Z</time>
      </trkpt>
      <trkpt lat="47.77309" lon="-3.53361">
        <ele>9</ele>
        <time>2021-07-11T07:50:15Z</time>
      </trkpt>
      <trkpt lat="47.7731" lon="-3.53361">
        <ele>9.1</ele>
        <time>2021-07-11T07:50:14Z</time>
      </trkpt>
      <trkpt lat="47.77311" lon="-3.5336">
        <ele>9.2</ele>
        <time>2021-07-11T07:50:13Z</time>
      </trkpt>
      <trkpt lat="47.77312" lon="-3.53359">
        <ele>9.4</ele>
        <time>2021-07-11T07:50:12Z</time>
      </trkpt>
      <trkpt lat="47.77312" lon="-3.53359">
        <ele>9.4</ele>
        <time>2021-07-11T07:50:11Z</time>
      </trkpt>
      <trkpt lat="47.77313" lon="-3.53359">
        <ele>9.5</ele>
        <time>2021-07-11T07:50:10Z</time>
      </trkpt>
      <trkpt lat="47.77313" lon="-3.53358">
        <ele>9.6</ele>
        <time>2021-07-11T07:50:09Z</time>
      </trkpt>
      <trkpt lat="47.77314" lon="-3.53358">
        <ele>9.6</ele>
        <time>2021-07-11T07:50:08Z</time>
      </trkpt>
      <trkpt lat="47.77314" lon="-3.53358">
        <ele>9.6</ele>
        <time>2021-07-11T07:50:07Z</time>
      </trkpt>
      <trkpt lat="47.77314" lon="-3.53358">
        <ele>9.7</ele>
        <time>2021-07-11T07:50:06Z</time>
      </trkpt>
      <trkpt lat="47.77314" lon="-3.53358">
        <ele>9.7</ele>
        <time>2021-07-11T07:50:05Z</time>
      </trkpt>
      <trkpt lat="47.77314" lon="-3.53359">
        <ele>9.7</ele>
        <time>2021-07-11T07:50:04Z</time>
      </trkpt>
      <trkpt lat="47.77315" lon="-3.53359">
        <ele>9.8</ele>
        <time>2021-07-11T07:50:03Z</time>
      </trkpt>
      <trkpt lat="47.77315" lon="-3.53359">
        <ele>9.9</ele>
        <time>2021-07-11T07:50:02Z</time>
      </trkpt>
      <trkpt lat="47.77316" lon="-3.53359">
        <ele>9.9</ele>
        <time>2021-07-11T07:50:01Z</time>
      </trkpt>
      <trkpt lat="47.77317" lon="-3.53359">
        <ele>10</ele>
        <time>2021-07-11T07:50:00Z</time>
      </trkpt>
      <trkpt lat="47.77317" lon="-3.53359">
        <ele>10.1</ele>
        <time>2021-07-11T07:49:59Z</time>
      </trkpt>
      <trkpt lat="47.77318" lon="-3.53359">
        <ele>10.2</ele>
        <time>2021-07-11T07:49:58Z</time>
      </trkpt>
      <trkpt lat="47.77319" lon="-3.53359">
        <ele>10.3</ele>
        <time>2021-07-11T07:49:57Z</time>
      </trkpt>
      <trkpt lat="47.77319" lon="-3.53359">
        <ele>10.4</ele>
        <time>2021-07-11T07:49:56Z</time>
      </trkpt>
      <trkpt lat="47.7732" lon="-3.53359">
        <ele>10.5</ele>
        <time>2021-07-11T07:49:55Z</time>
      </trkpt>
      <trkpt lat="47.77321" lon="-3.53359">
        <ele>10.6</ele>
        <time>2021-07-11T07:49:54Z</time>
      </trkpt>
      <trkpt lat="47.77322" lon="-3.53359">
        <ele>10.7</ele>
        <time>2021-07-11T07:49:53Z</time>
      </trkpt>
      <trkpt lat="47.77322" lon="-3.53359">
        <ele>10.8</ele>
        <time>2021-07-11T07:49:52Z</time>
      </trkpt>
      <trkpt lat="47.77323" lon="-3.53358">
        <ele>10.9</ele>
        <time>2021-07-11T07:49:51Z</time>
      </trkpt>
      <trkpt lat="47.77324" lon="-3.53358">
        <ele>11</ele>
        <time>2021-07-11T07:49:50Z</time>
      </trkpt>
      <trkpt lat="47.77325" lon="-3.53358">
        <ele>11.1</ele>
        <time>2021-07-11T07:49:49Z</time>
      </trkpt>
      <trkpt lat="47.77326" lon="-3.53358">
        <ele>11.2</ele>
        <time>2021-07-11T07:49:48Z</time>
      </trkpt>
      <trkpt lat="47.77327" lon="-3.53358">
        <ele>11.3</ele>
        <time>2021-07-11T07:49:47Z</time>
      </trkpt>
      <trkpt lat="47.77328" lon="-3.53358">
        <ele>11.4</ele>
        <time>2021-07-11T07:49:46Z</time>
      </trkpt>
      <trkpt lat="47.77329" lon="-3.53358">
        <ele>11.5</ele>
        <time>2021-07-11T07:49:45Z</time>
      </trkpt>
      <trkpt lat="47.7733" lon="-3.53358">
        <ele>11.7</ele>
        <time>2021-07-11T07:49:44Z</time>
      </trkpt>
      <trkpt lat="47.77331" lon="-3.53358">
        <ele>11.8</ele>
        <time>2021-07-11T07:49:43Z</time>
      </trkpt>
      <trkpt lat="47.77332" lon="-3.53358">
        <ele>11.8</ele>
        <time>2021-07-11T07:49:42Z</time>
      </trkpt>
      <trkpt lat="47.77334" lon="-3.53358">
        <ele>11.9</ele>
        <time>2021-07-11T07:49:41Z</time>
      </trkpt>
      <trkpt lat="47.77335" lon="-3.53358">
        <ele>12</ele>
        <time>2021-07-11T07:49:40Z</time>
      </trkpt>
      <trkpt lat="47.77337" lon="-3.53358">
        <ele>12.1</ele>
        <time>2021-07-11T07:49:39Z</time>
      </trkpt>
      <trkpt lat="47.77338" lon="-3.53358">
        <ele>12.1</ele>
        <time>2021-07-11T07:49:38Z</time>
      </trkpt>
      <trkpt lat="47.77339" lon="-3.53358">
        <ele>12.1</ele>
        <time>2021-07-11T07:49:37Z</time>
      </trkpt>
      <trkpt lat="47.77341" lon="-3.53358">
        <ele>12.1</ele>
        <time>2021-07-11T07:49:36Z</time>
      </trkpt>
      <trkpt lat="47.77342" lon="-3.53358">
        <ele>12.1</ele>
        <time>2021-07-11T07:49:35Z</time>
      </trkpt>
      <trkpt lat="47.77343" lon="-3.53358">
        <ele>12</ele>
        <time>2021-07-11T07:49:34Z</time>
      </trkpt>
      <trkpt lat="47.77345" lon="-3.53357">
        <ele>12</ele>
        <time>2021-07-11T07:49:33Z</time>
      </trkpt>
      <trkpt lat="47.77346" lon="-3.53357">
        <ele>12</ele>
        <time>2021-07-11T07:49:32Z</time>
      </trkpt>
      <trkpt lat="47.77347" lon="-3.53357">
        <ele>11.9</ele>
        <time>2021-07-11T07:49:31Z</time>
      </trkpt>
      <trkpt lat="47.77348" lon="-3.53357">
        <ele>11.8</ele>
        <time>2021-07-11T07:49:30Z</time>
      </trkpt>
      <trkpt lat="47.77349" lon="-3.53357">
        <ele>11.8</ele>
        <time>2021-07-11T07:49:29Z</time>
      </trkpt>
      <trkpt lat="47.7735" lon="-3.53356">
        <ele>11.7</ele>
        <time>2021-07-11T07:49:28Z</time>
      </trkpt>
      <trkpt lat="47.77351" lon="-3.53356">
        <ele>11.6</ele>
        <time>2021-07-11T07:49:27Z</time>
      </trkpt>
      <trkpt lat="47.77352" lon="-3.53355">
        <ele>11.5</ele>
        <time>2021-07-11T07:49:26Z</time>
      </trkpt>
      <trkpt lat="47.77353" lon="-3.53355">
        <ele>11.4</ele>
        <time>2021-07-11T07:49:25Z</time>
      </trkpt>
      <trkpt lat="47.77354" lon="-3.53355">
        <ele>11.4</ele>
        <time>2021-07-11T07:49:24Z</time>
      </trkpt>
      <trkpt lat="47.77355" lon="-3.53354">
        <ele>11.3</ele>
        <time>2021-07-11T07:49:23Z</time>
      </trkpt>
      <trkpt lat="47.77356" lon="-3.53354">
        <ele>11.2</ele>
        <time>2021-07-11T07:49:22Z</time>
      </trkpt>
      <trkpt lat="47.77357" lon="-3.53353">
        <ele>11.1</ele>
        <time>2021-07-11T07:49:21Z</time>
      </trkpt>
      <trkpt lat="47.77358" lon="-3.53353">
        <ele>11</ele>
        <time>2021-07-11T07:49:20Z</time>
      </trkpt>
      <trkpt lat="47.77359" lon="-3.53352">
        <ele>10.9</ele>
        <time>2021-07-11T07:49:19Z</time>
      </trkpt>
      <trkpt lat="47.77361" lon="-3.53352">
        <ele>10.8</ele>
        <time>2021-07-11T07:49:18Z</time>
      </trkpt>
      <trkpt lat="47.77362" lon="-3.53352">
        <ele>10.7</ele>
        <time>2021-07-11T07:49:17Z</time>
      </trkpt>
      <trkpt lat="47.77363" lon="-3.53351">
        <ele>10.6</ele>
        <time>2021-07-11T07:49:16Z</time>
      </trkpt>
      <trkpt lat="47.77365" lon="-3.53351">
        <ele>10.5</ele>
        <time>2021-07-11T07:49:15Z</time>
      </trkpt>
      <trkpt lat="47.77366" lon="-3.53351">
        <ele>10.4</ele>
        <time>2021-07-11T07:49:14Z</time>
      </trkpt>
      <trkpt lat="47.77368" lon="-3.53351">
        <ele>10.3</ele>
        <time>2021-07-11T07:49:13Z</time>
      </trkpt>
      <trkpt lat="47.77369" lon="-3.5335">
        <ele>10.3</ele>
        <time>2021-07-11T07:49:12Z</time>
      </trkpt>
      <trkpt lat="47.77371" lon="-3.5335">
        <ele>10.2</ele>
        <time>2021-07-11T07:49:11Z</time>
      </trkpt>
      <trkpt lat="47.77373" lon="-3.5335">
        <ele>10.1</ele>
        <time>2021-07-11T07:49:10Z</time>
      </trkpt>
      <trkpt lat="47.77374" lon="-3.5335">
        <ele>10.1</ele>
        <time>2021-07-11T07:49:09Z</time>
      </trkpt>
      <trkpt lat="47.77376" lon="-3.53349">
        <ele>10.1</ele>
        <time>2021-07-11T07:49:08Z</time>
      </trkpt>
      <trkpt lat="47.77377" lon="-3.53349">
        <ele>10</ele>
        <time>2021-07-11T07:49:07Z</time>
      </trkpt>
      <trkpt lat="47.77379" lon="-3.53349">
        <ele>10</ele>
        <time>2021-07-11T07:49:06Z</time>
      </trkpt>
      <trkpt lat="47.7738" lon="-3.53349">
        <ele>10</ele>
        <time>2021-07-11T07:49:05Z</time>
      </trkpt>
      <trkpt lat="47.77382" lon="-3.53349">
        <ele>10</ele>
        <time>2021-07-11T07:49:04Z</time>
      </trkpt>
      <trkpt lat="47.77383" lon="-3.53348">
        <ele>10</ele>
        <time>2021-07-11T07:49:03Z</time>
      </trkpt>
      <trkpt lat="47.77385" lon="-3.53348">
        <ele>10</ele>
        <time>2021-07-11T07:49:02Z</time>
      </trkpt>
      <trkpt lat="47.77386" lon="-3.53348">
        <ele>10</ele>
        <time>2021-07-11T07:49:01Z</time>
      </trkpt>
      <trkpt lat="47.77387" lon="-3.53348">
        <ele>10</ele>
        <time>2021-07-11T07:49:00Z</time>
      </trkpt>
      <trkpt lat="47.77389" lon="-3.53348">
        <ele>10</ele>
        <time>2021-07-11T07:48:59Z</time>
      </trkpt>
      <trkpt lat="47.7739" lon="-3.53348">
        <ele>10</ele>
        <time>2021-07-11T07:48:58Z</time>
      </trkpt>
      <trkpt lat="47.77392" lon="-3.53347">
        <ele>10</ele>
        <time>2021-07-11T07:48:57Z</time>
      </trkpt>
      <trkpt lat="47.77393" lon="-3.53347">
        <ele>10</ele>
        <time>2021-07-11T07:48:56Z</time>
      </trkpt>
      <trkpt lat="47.77394" lon="-3.53347">
        <ele>10</ele>
        <time>2021-07-11T07:48:55Z</time>
      </trkpt>
      <trkpt lat="47.77396" lon="-3.53347">
        <ele>10.1</ele>
        <time>2021-07-11T07:48:54Z</time>
      </trkpt>
      <trkpt lat="47.77397" lon="-3.53347">
        <ele>10.1</ele>
        <time>2021-07-11T07:48:53Z</time>
      </trkpt>
      <trkpt lat="47.77398" lon="-3.53347">
        <ele>10.1</ele>
        <time>2021-07-11T07:48:52Z</time>
      </trkpt>
      <trkpt lat="47.774" lon="-3.53347">
        <ele>10.1</ele>
        <time>2021-07-11T07:48:51Z</time>
      </trkpt>
      <trkpt lat="47.77401" lon="-3.53347">
        <ele>10.1</ele>
        <time>2021-07-11T07:48:50Z</time>
      </trkpt>
      <trkpt lat="47.77403" lon="-3.53347">
        <ele>10.2</ele>
        <time>2021-07-11T07:48:49Z</time>
      </trkpt>
      <trkpt lat="47.77404" lon="-3.53347">
        <ele>10.2</ele>
        <time>2021-07-11T07:48:48Z</time>
      </trkpt>
      <trkpt lat="47.77405" lon="-3.53347">
        <ele>10.2</ele>
        <time>2021-07-11T07:48:47Z</time>
      </trkpt>
      <trkpt lat="47.77407" lon="-3.53347">
        <ele>10.2</ele>
        <time>2021-07-11T07:48:46Z</time>
      </trkpt>
      <trkpt lat="47.77408" lon="-3.53347">
        <ele>10.3</ele>
        <time>2021-07-11T07:48:45Z</time>
      </trkpt>
      <trkpt lat="47.7741" lon="-3.53347">
        <ele>10.3</ele>
        <time>2021-07-11T07:48:44Z</time>
      </trkpt>
      <trkpt lat="47.77411" lon="-3.53347">
        <ele>10.3</ele>
        <time>2021-07-11T07:48:43Z</time>
      </trkpt>
      <trkpt lat="47.77412" lon="-3.53347">
        <ele>10.4</ele>
        <time>2021-07-11T07:48:42Z</time>
      </trkpt>
      <trkpt lat="47.77413" lon="-3.53348">
        <ele>10.4</ele>
        <time>2021-07-11T07:48:41Z</time>
      </trkpt>
      <trkpt lat="47.77415" lon="-3.53348">
        <ele>10.4</ele>
        <time>2021-07-11T07:48:40Z</time>
      </trkpt>
      <trkpt lat="47.77416" lon="-3.53349">
        <ele>10.4</ele>
        <time>2021-07-11T07:48:39Z</time>
      </trkpt>
      <trkpt lat="47.77417" lon="-3.53349">
        <ele>10.5</ele>
        <time>2021-07-11T07:48:38Z</time>
      </trkpt>
      <trkpt lat="47.77418" lon="-3.5335">
        <ele>10.5</ele>
        <time>2021-07-11T07:48:37Z</time>
      </trkpt>
      <trkpt lat="47.77419" lon="-3.53351">
        <ele>10.5</ele>
        <time>2021-07-11T07:48:36Z</time>
      </trkpt>
      <trkpt lat="47.7742" lon="-3.53351">
        <ele>10.6</ele>
        <time>2021-07-11T07:48:35Z</time>
      </trkpt>
      <trkpt lat="47.77421" lon="-3.53352">
        <ele>10.6</ele>
        <time>2021-07-11T07:48:34Z</time>
      </trkpt>
      <trkpt lat="47.77422" lon="-3.53353">
        <ele>10.6</ele>
        <time>2021-07-11T07:48:33Z</time>
      </trkpt>
      <trkpt lat="47.77423" lon="-3.53354">
        <ele>10.6</ele>
        <time>2021-07-11T07:48:32Z</time>
      </trkpt>
      <trkpt lat="47.77424" lon="-3.53355">
        <ele>10.6</ele>
        <time>2021-07-11T07:48:31Z</time>
      </trkpt>
      <trkpt lat="47.77425" lon="-3.53356">
        <ele>10.7</ele>
        <time>2021-07-11T07:48:30Z</time>
      </trkpt>
      <trkpt lat="47.77425" lon="-3.53357">
        <ele>10.7</ele>
        <time>2021-07-11T07:48:29Z</time>
      </trkpt>
      <trkpt lat="47.77426" lon="-3.53357">
        <ele>10.7</ele>
        <time>2021-07-11T07:48:28Z</time>
      </trkpt>
      <trkpt lat="47.77428" lon="-3.53359">
        <ele>10.7</ele>
        <time>2021-07-11T07:48:27Z</time>
      </trkpt>
      <trkpt lat="47.7743" lon="-3.5336">
        <ele>10.7</ele>
        <time>2021-07-11T07:48:26Z</time>
      </trkpt>
      <trkpt lat="47.77431" lon="-3.53362">
        <ele>10.7</ele>
        <time>2021-07-11T07:48:25Z</time>
      </trkpt>
      <trkpt lat="47.77432" lon="-3.53363">
        <ele>10.7</ele>
        <time>2021-07-11T07:48:24Z</time>
      </trkpt>
      <trkpt lat="47.77433" lon="-3.53364">
        <ele>10.7</ele>
        <time>2021-07-11T07:48:23Z</time>
      </trkpt>
      <trkpt lat="47.77434" lon="-3.53366">
        <ele>10.7</ele>
        <time>2021-07-11T07:48:22Z</time>
      </trkpt>
      <trkpt lat="47.77436" lon="-3.53367">
        <ele>10.7</ele>
        <time>2021-07-11T07:48:21Z</time>
      </trkpt>
      <trkpt lat="47.77437" lon="-3.53369">
        <ele>10.7</ele>
        <time>2021-07-11T07:48:20Z</time>
      </trkpt>
      <trkpt lat="47.77438" lon="-3.53371">
        <ele>10.7</ele>
        <time>2021-07-11T07:48:19Z</time>
      </trkpt>
      <trkpt lat="47.77439" lon="-3.53373">
        <ele>10.6</ele>
        <time>2021-07-11T07:48:18Z</time>
      </trkpt>
      <trkpt lat="47.7744" lon="-3.53375">
        <ele>10.6</ele>
        <time>2021-07-11T07:48:17Z</time>
      </trkpt>
      <trkpt lat="47.7744" lon="-3.53376">
        <ele>10.6</ele>
        <time>2021-07-11T07:48:16Z</time>
      </trkpt>
      <trkpt lat="47.77441" lon="-3.53378">
        <ele>10.6</ele>
        <time>2021-07-11T07:48:15Z</time>
      </trkpt>
      <trkpt lat="47.77442" lon="-3.5338">
        <ele>10.5</ele>
        <time>2021-07-11T07:48:14Z</time>
      </trkpt>
      <trkpt lat="47.77443" lon="-3.53381">
        <ele>10.5</ele>
        <time>2021-07-11T07:48:13Z</time>
      </trkpt>
      <trkpt lat="47.77443" lon="-3.53382">
        <ele>10.5</ele>
        <time>2021-07-11T07:48:12Z</time>
      </trkpt>
      <trkpt lat="47.77444" lon="-3.53384">
        <ele>10.4</ele>
        <time>2021-07-11T07:48:11Z</time>
      </trkpt>
      <trkpt lat="47.77444" lon="-3.53385">
        <ele>10.4</ele>
        <time>2021-07-11T07:48:10Z</time>
      </trkpt>
      <trkpt lat="47.77445" lon="-3.53386">
        <ele>10.4</ele>
        <time>2021-07-11T07:48:09Z</time>
      </trkpt>
      <trkpt lat="47.77445" lon="-3.53387">
        <ele>10.3</ele>
        <time>2021-07-11T07:48:08Z</time>
      </trkpt>
      <trkpt lat="47.77446" lon="-3.53388">
        <ele>10.3</ele>
        <time>2021-07-11T07:48:07Z</time>
      </trkpt>
      <trkpt lat="47.77447" lon="-3.53389">
        <ele>10.3</ele>
        <time>2021-07-11T07:48:06Z</time>
      </trkpt>
      <trkpt lat="47.77447" lon="-3.5339">
        <ele>10.2</ele>
        <time>2021-07-11T07:48:05Z</time>
      </trkpt>
      <trkpt lat="47.77448" lon="-3.53391">
        <ele>10.2</ele>
        <time>2021-07-11T07:48:04Z</time>
      </trkpt>
      <trkpt lat="47.77449" lon="-3.53392">
        <ele>10.1</ele>
        <time>2021-07-11T07:48:03Z</time>
      </trkpt>
      <trkpt lat="47.7745" lon="-3.53393">
        <ele>10.1</ele>
        <time>2021-07-11T07:48:02Z</time>
      </trkpt>
      <trkpt lat="47.77451" lon="-3.53394">
        <ele>10</ele>
        <time>2021-07-11T07:48:01Z</time>
      </trkpt>
      <trkpt lat="47.77452" lon="-3.53395">
        <ele>10</ele>
        <time>2021-07-11T07:48:00Z</time>
      </trkpt>
      <trkpt lat="47.77453" lon="-3.53395">
        <ele>9.9</ele>
        <time>2021-07-11T07:47:59Z</time>
      </trkpt>
      <trkpt lat="47.77454" lon="-3.53396">
        <ele>9.8</ele>
        <time>2021-07-11T07:47:58Z</time>
      </trkpt>
      <trkpt lat="47.77455" lon="-3.53397">
        <ele>9.7</ele>
        <time>2021-07-11T07:47:57Z</time>
      </trkpt>
      <trkpt lat="47.77456" lon="-3.53398">
        <ele>9.6</ele>
        <time>2021-07-11T07:47:56Z</time>
      </trkpt>
      <trkpt lat="47.77457" lon="-3.53398">
        <ele>9.5</ele>
        <time>2021-07-11T07:47:55Z</time>
      </trkpt>
      <trkpt lat="47.77459" lon="-3.53399">
        <ele>9.4</ele>
        <time>2021-07-11T07:47:54Z</time>
      </trkpt>
      <trkpt lat="47.7746" lon="-3.534">
        <ele>9.3</ele>
        <time>2021-07-11T07:47:53Z</time>
      </trkpt>
      <trkpt lat="47.77461" lon="-3.53401">
        <ele>9.2</ele>
        <time>2021-07-11T07:47:52Z</time>
      </trkpt>
      <trkpt lat="47.77462" lon="-3.53402">
        <ele>9.1</ele>
        <time>2021-07-11T07:47:51Z</time>
      </trkpt>
      <trkpt lat="47.77463" lon="-3.53403">
        <ele>9.1</ele>
        <time>2021-07-11T07:47:50Z</time>
      </trkpt>
      <trkpt lat="47.77464" lon="-3.53404">
        <ele>9</ele>
        <time>2021-07-11T07:47:49Z</time>
      </trkpt>
      <trkpt lat="47.77465" lon="-3.53405">
        <ele>8.9</ele>
        <time>2021-07-11T07:47:48Z</time>
      </trkpt>
      <trkpt lat="47.77466" lon="-3.53407">
        <ele>8.8</ele>
        <time>2021-07-11T07:47:47Z</time>
      </trkpt>
      <trkpt lat="47.77467" lon="-3.53408">
        <ele>8.7</ele>
        <time>2021-07-11T07:47:46Z</time>
      </trkpt>
      <trkpt lat="47.77468" lon="-3.5341">
        <ele>8.6</ele>
        <time>2021-07-11T07:47:45Z</time>
      </trkpt>
      <trkpt lat="47.77469" lon="-3.53411">
        <ele>8.5</ele>
        <time>2021-07-11T07:47:44Z</time>
      </trkpt>
      <trkpt lat="47.77469" lon="-3.53413">
        <ele>8.4</ele>
        <time>2021-07-11T07:47:43Z</time>
      </trkpt>
      <trkpt lat="47.7747" lon="-3.53414">
        <ele>8.3</ele>
        <time>2021-07-11T07:47:42Z</time>
      </trkpt>
      <trkpt lat="47.77471" lon="-3.53416">
        <ele>8.2</ele>
        <time>2021-07-11T07:47:41Z</time>
      </trkpt>
      <trkpt lat="47.77472" lon="-3.53418">
        <ele>8.1</ele>
        <time>2021-07-11T07:47:40Z</time>
      </trkpt>
      <trkpt lat="47.77472" lon="-3.5342">
        <ele>8</ele>
        <time>2021-07-11T07:47:39Z</time>
      </trkpt>
      <trkpt lat="47.77473" lon="-3.53422">
        <ele>7.9</ele>
        <time>2021-07-11T07:47:38Z</time>
      </trkpt>
      <trkpt lat="47.77474" lon="-3.53424">
        <ele>7.8</ele>
        <time>2021-07-11T07:47:37Z</time>
      </trkpt>
      <trkpt lat="47.77475" lon="-3.53426">
        <ele>7.7</ele>
        <time>2021-07-11T07:47:36Z</time>
      </trkpt>
      <trkpt lat="47.77475" lon="-3.53428">
        <ele>7.6</ele>
        <time>2021-07-11T07:47:35Z</time>
      </trkpt>
      <trkpt lat="47.77476" lon="-3.5343">
        <ele>7.6</ele>
        <time>2021-07-11T07:47:34Z</time>
      </trkpt>
      <trkpt lat="47.77477" lon="-3.53432">
        <ele>7.5</ele>
        <time>2021-07-11T07:47:33Z</time>
      </trkpt>
      <trkpt lat="47.77478" lon="-3.53434">
        <ele>7.4</ele>
        <time>2021-07-11T07:47:32Z</time>
      </trkpt>
      <trkpt lat="47.77479" lon="-3.53436">
        <ele>7.3</ele>
        <time>2021-07-11T07:47:31Z</time>
      </trkpt>
      <trkpt lat="47.77479" lon="-3.53439">
        <ele>7.3</ele>
        <time>2021-07-11T07:47:30Z</time>
      </trkpt>
      <trkpt lat="47.7748" lon="-3.53441">
        <ele>7.2</ele>
        <time>2021-07-11T07:47:29Z</time>
      </trkpt>
      <trkpt lat="47.7748" lon="-3.53443">
        <ele>7.1</ele>
        <time>2021-07-11T07:47:28Z</time>
      </trkpt>
      <trkpt lat="47.77481" lon="-3.53445">
        <ele>7.1</ele>
        <time>2021-07-11T07:47:27Z</time>
      </trkpt>
      <trkpt lat="47.77481" lon="-3.53447">
        <ele>7</ele>
        <time>2021-07-11T07:47:26Z</time>
      </trkpt>
      <trkpt lat="47.77482" lon="-3.53449">
        <ele>7</ele>
        <time>2021-07-11T07:47:25Z</time>
      </trkpt>
      <trkpt lat="47.77482" lon="-3.53451">
        <ele>6.9</ele>
        <time>2021-07-11T07:47:24Z</time>
      </trkpt>
      <trkpt lat="47.77482" lon="-3.53453">
        <ele>6.9</ele>
        <time>2021-07-11T07:47:23Z</time>
      </trkpt>
      <trkpt lat="47.77482" lon="-3.53455">
        <ele>6.9</ele>
        <time>2021-07-11T07:47:22Z</time>
      </trkpt>
      <trkpt lat="47.77482" lon="-3.53457">
        <ele>6.8</ele>
        <time>2021-07-11T07:47:21Z</time>
      </trkpt>
      <trkpt lat="47.77482" lon="-3.53459">
        <ele>6.8</ele>
        <time>2021-07-11T07:47:20Z</time>
      </trkpt>
      <trkpt lat="47.77483" lon="-3.53461">
        <ele>6.8</ele>
        <time>2021-07-11T07:47:19Z</time>
      </trkpt>
      <trkpt lat="47.77483" lon="-3.53463">
        <ele>6.7</ele>
        <time>2021-07-11T07:47:18Z</time>
      </trkpt>
      <trkpt lat="47.77484" lon="-3.53465">
        <ele>6.7</ele>
        <time>2021-07-11T07:47:17Z</time>
      </trkpt>
      <trkpt lat="47.77485" lon="-3.53467">
        <ele>6.7</ele>
        <time>2021-07-11T07:47:16Z</time>
      </trkpt>
      <trkpt lat="47.77486" lon="-3.5347">
        <ele>6.7</ele>
        <time>2021-07-11T07:47:15Z</time>
      </trkpt>
      <trkpt lat="47.77487" lon="-3.53472">
        <ele>6.7</ele>
        <time>2021-07-11T07:47:14Z</time>
      </trkpt>
      <trkpt lat="47.77487" lon="-3.53474">
        <ele>6.7</ele>
        <time>2021-07-11T07:47:13Z</time>
      </trkpt>
      <trkpt lat="47.77488" lon="-3.53477">
        <ele>6.7</ele>
        <time>2021-07-11T07:47:12Z</time>
      </trkpt>
      <trkpt lat="47.77488" lon="-3.53479">
        <ele>6.7</ele>
        <time>2021-07-11T07:47:11Z</time>
      </trkpt>
      <trkpt lat="47.77488" lon="-3.53481">
        <ele>6.7</ele>
        <time>2021-07-11T07:47:10Z</time>
      </trkpt>
      <trkpt lat="47.77487" lon="-3.53483">
        <ele>6.7</ele>
        <time>2021-07-11T07:47:09Z</time>
      </trkpt>
      <trkpt lat="47.77487" lon="-3.53485">
        <ele>6.8</ele>
        <time>2021-07-11T07:47:08Z</time>
      </trkpt>
      <trkpt lat="47.77486" lon="-3.53487">
        <ele>6.8</ele>
        <time>2021-07-11T07:47:07Z</time>
      </trkpt>
      <trkpt lat="47.77486" lon="-3.53489">
        <ele>6.9</ele>
        <time>2021-07-11T07:47:06Z</time>
      </trkpt>
      <trkpt lat="47.77485" lon="-3.53491">
        <ele>6.9</ele>
        <time>2021-07-11T07:47:05Z</time>
      </trkpt>
      <trkpt lat="47.77484" lon="-3.53493">
        <ele>7</ele>
        <time>2021-07-11T07:47:04Z</time>
      </trkpt>
      <trkpt lat="47.77483" lon="-3.53495">
        <ele>7.1</ele>
        <time>2021-07-11T07:47:03Z</time>
      </trkpt>
      <trkpt lat="47.77482" lon="-3.53497">
        <ele>7.1</ele>
        <time>2021-07-11T07:47:02Z</time>
      </trkpt>
      <trkpt lat="47.77481" lon="-3.53499">
        <ele>7.2</ele>
        <time>2021-07-11T07:47:01Z</time>
      </trkpt>
      <trkpt lat="47.77481" lon="-3.53501">
        <ele>7.3</ele>
        <time>2021-07-11T07:47:00Z</time>
      </trkpt>
      <trkpt lat="47.7748" lon="-3.53502">
        <ele>7.4</ele>
        <time>2021-07-11T07:46:59Z</time>
      </trkpt>
      <trkpt lat="47.77479" lon="-3.53504">
        <ele>7.4</ele>
        <time>2021-07-11T07:46:58Z</time>
      </trkpt>
      <trkpt lat="47.77479" lon="-3.53506">
        <ele>7.5</ele>
        <time>2021-07-11T07:46:57Z</time>
      </trkpt>
      <trkpt lat="47.77478" lon="-3.53508">
        <ele>7.6</ele>
        <time>2021-07-11T07:46:56Z</time>
      </trkpt>
      <trkpt lat="47.77478" lon="-3.53509">
        <ele>7.7</ele>
        <time>2021-07-11T07:46:55Z</time>
      </trkpt>
      <trkpt lat="47.77477" lon="-3.53511">
        <ele>7.7</ele>
        <time>2021-07-11T07:46:54Z</time>
      </trkpt>
      <trkpt lat="47.77477" lon="-3.53513">
        <ele>7.8</ele>
        <time>2021-07-11T07:46:53Z</time>
      </trkpt>
      <trkpt lat="47.77476" lon="-3.53514">
        <ele>7.8</ele>
        <time>2021-07-11T07:46:52Z</time>
      </trkpt>
      <trkpt lat="47.77476" lon="-3.53516">
        <ele>7.9</ele>
        <time>2021-07-11T07:46:51Z</time>
      </trkpt>
      <trkpt lat="47.77475" lon="-3.53518">
        <ele>8</ele>
        <time>2021-07-11T07:46:50Z</time>
      </trkpt>
      <trkpt lat="47.77475" lon="-3.5352">
        <ele>8</ele>
        <time>2021-07-11T07:46:49Z</time>
      </trkpt>
      <trkpt lat="47.77474" lon="-3.53522">
        <ele>8.1</ele>
        <time>2021-07-11T07:46:48Z</time>
      </trkpt>
      <trkpt lat="47.77474" lon="-3.53524">
        <ele>8.1</ele>
        <time>2021-07-11T07:46:47Z</time>
      </trkpt>
      <trkpt lat="47.77473" lon="-3.53526">
        <ele>8.2</ele>
        <time>2021-07-11T07:46:46Z</time>
      </trkpt>
      <trkpt lat="47.77472" lon="-3.53528">
        <ele>8.2</ele>
        <time>2021-07-11T07:46:45Z</time>
      </trkpt>
      <trkpt lat="47.77472" lon="-3.5353">
        <ele>8.2</ele>
        <time>2021-07-11T07:46:44Z</time>
      </trkpt>
      <trkpt lat="47.77471" lon="-3.53533">
        <ele>8.3</ele>
        <time>2021-07-11T07:46:43Z</time>
      </trkpt>
      <trkpt lat="47.77471" lon="-3.53535">
        <ele>8.3</ele>
        <time>2021-07-11T07:46:42Z</time>
      </trkpt>
      <trkpt lat="47.7747" lon="-3.53537">
        <ele>8.3</ele>
        <time>2021-07-11T07:46:41Z</time>
      </trkpt>
      <trkpt lat="47.7747" lon="-3.53539">
        <ele>8.3</ele>
        <time>2021-07-11T07:46:40Z</time>
      </trkpt>
      <trkpt lat="47.7747" lon="-3.53541">
        <ele>8.3</ele>
        <time>2021-07-11T07:46:39Z</time>
      </trkpt>
      <trkpt lat="47.7747" lon="-3.53543">
        <ele>8.3</ele>
        <time>2021-07-11T07:46:38Z</time>
      </trkpt>
      <trkpt lat="47.77471" lon="-3.53545">
        <ele>8.3</ele>
        <time>2021-07-11T07:46:37Z</time>
      </trkpt>
      <trkpt lat="47.77471" lon="-3.53547">
        <ele>8.3</ele>
        <time>2021-07-11T07:46:36Z</time>
      </trkpt>
      <trkpt lat="47.77471" lon="-3.53549">
        <ele>8.3</ele>
        <time>2021-07-11T07:46:35Z</time>
      </trkpt>
      <trkpt lat="47.77471" lon="-3.53551">
        <ele>8.3</ele>
        <time>2021-07-11T07:46:34Z</time>
      </trkpt>
      <trkpt lat="47.77471" lon="-3.53553">
        <ele>8.3</ele>
        <time>2021-07-11T07:46:33Z</time>
      </trkpt>
      <trkpt lat="47.77471" lon="-3.53555">
        <ele>8.2</ele>
        <time>2021-07-11T07:46:32Z</time>
      </trkpt>
      <trkpt lat="47.77471" lon="-3.53557">
        <ele>8.2</ele>
        <time>2021-07-11T07:46:31Z</time>
      </trkpt>
      <trkpt lat="47.77471" lon="-3.53559">
        <ele>8.2</ele>
        <time>2021-07-11T07:46:30Z</time>
      </trkpt>
      <trkpt lat="47.77471" lon="-3.53562">
        <ele>8.2</ele>
        <time>2021-07-11T07:46:29Z</time>
      </trkpt>
      <trkpt lat="47.7747" lon="-3.53564">
        <ele>8.2</ele>
        <time>2021-07-11T07:46:28Z</time>
      </trkpt>
      <trkpt lat="47.7747" lon="-3.53566">
        <ele>8.1</ele>
        <time>2021-07-11T07:46:27Z</time>
      </trkpt>
      <trkpt lat="47.7747" lon="-3.53568">
        <ele>8.1</ele>
        <time>2021-07-11T07:46:26Z</time>
      </trkpt>
      <trkpt lat="47.77469" lon="-3.5357">
        <ele>8.1</ele>
        <time>2021-07-11T07:46:25Z</time>
      </trkpt>
      <trkpt lat="47.77469" lon="-3.53572">
        <ele>8.1</ele>
        <time>2021-07-11T07:46:24Z</time>
      </trkpt>
      <trkpt lat="47.77469" lon="-3.53574">
        <ele>8.1</ele>
        <time>2021-07-11T07:46:23Z</time>
      </trkpt>
      <trkpt lat="47.77468" lon="-3.53576">
        <ele>8</ele>
        <time>2021-07-11T07:46:22Z</time>
      </trkpt>
      <trkpt lat="47.77468" lon="-3.53577">
        <ele>8</ele>
        <time>2021-07-11T07:46:21Z</time>
      </trkpt>
      <trkpt lat="47.77468" lon="-3.53579">
        <ele>8</ele>
        <time>2021-07-11T07:46:20Z</time>
      </trkpt>
      <trkpt lat="47.77467" lon="-3.53581">
        <ele>8</ele>
        <time>2021-07-11T07:46:19Z</time>
      </trkpt>
      <trkpt lat="47.77467" lon="-3.53582">
        <ele>8</ele>
        <time>2021-07-11T07:46:18Z</time>
      </trkpt>
      <trkpt lat="47.77467" lon="-3.53584">
        <ele>8</ele>
        <time>2021-07-11T07:46:17Z</time>
      </trkpt>
      <trkpt lat="47.77467" lon="-3.53586">
        <ele>8</ele>
        <time>2021-07-11T07:46:16Z</time>
      </trkpt>
      <trkpt lat="47.77467" lon="-3.53587">
        <ele>8</ele>
        <time>2021-07-11T07:46:15Z</time>
      </trkpt>
      <trkpt lat="47.77467" lon="-3.53589">
        <ele>7.9</ele>
        <time>2021-07-11T07:46:14Z</time>
      </trkpt>
      <trkpt lat="47.77467" lon="-3.53591">
        <ele>7.9</ele>
        <time>2021-07-11T07:46:13Z</time>
      </trkpt>
      <trkpt lat="47.77467" lon="-3.53593">
        <ele>7.9</ele>
        <time>2021-07-11T07:46:12Z</time>
      </trkpt>
      <trkpt lat="47.77467" lon="-3.53594">
        <ele>7.9</ele>
        <time>2021-07-11T07:46:11Z</time>
      </trkpt>
      <trkpt lat="47.77467" lon="-3.53596">
        <ele>7.9</ele>
        <time>2021-07-11T07:46:10Z</time>
      </trkpt>
      <trkpt lat="47.77467" lon="-3.53598">
        <ele>7.9</ele>
        <time>2021-07-11T07:46:09Z</time>
      </trkpt>
      <trkpt lat="47.77468" lon="-3.536">
        <ele>7.9</ele>
        <time>2021-07-11T07:46:08Z</time>
      </trkpt>
      <trkpt lat="47.77468" lon="-3.53602">
        <ele>7.8</ele>
        <time>2021-07-11T07:46:07Z</time>
      </trkpt>
      <trkpt lat="47.77468" lon="-3.53604">
        <ele>7.8</ele>
        <time>2021-07-11T07:46:06Z</time>
      </trkpt>
      <trkpt lat="47.77469" lon="-3.53606">
        <ele>7.8</ele>
        <time>2021-07-11T07:46:05Z</time>
      </trkpt>
      <trkpt lat="47.77469" lon="-3.53608">
        <ele>7.8</ele>
        <time>2021-07-11T07:46:04Z</time>
      </trkpt>
      <trkpt lat="47.77469" lon="-3.5361">
        <ele>7.7</ele>
        <time>2021-07-11T07:46:03Z</time>
      </trkpt>
      <trkpt lat="47.77469" lon="-3.53612">
        <ele>7.7</ele>
        <time>2021-07-11T07:46:02Z</time>
      </trkpt>
      <trkpt lat="47.77469" lon="-3.53614">
        <ele>7.7</ele>
        <time>2021-07-11T07:46:01Z</time>
      </trkpt>
      <trkpt lat="47.77469" lon="-3.53616">
        <ele>7.7</ele>
        <time>2021-07-11T07:46:00Z</time>
      </trkpt>
      <trkpt lat="47.77469" lon="-3.53618">
        <ele>7.6</ele>
        <time>2021-07-11T07:45:59Z</time>
      </trkpt>
      <trkpt lat="47.7747" lon="-3.5362">
        <ele>7.6</ele>
        <time>2021-07-11T07:45:58Z</time>
      </trkpt>
      <trkpt lat="47.7747" lon="-3.53622">
        <ele>7.6</ele>
        <time>2021-07-11T07:45:57Z</time>
      </trkpt>
      <trkpt lat="47.7747" lon="-3.53624">
        <ele>7.6</ele>
        <time>2021-07-11T07:45:56Z</time>
      </trkpt>
      <trkpt lat="47.7747" lon="-3.53626">
        <ele>7.5</ele>
        <time>2021-07-11T07:45:55Z</time>
      </trkpt>
      <trkpt lat="47.7747" lon="-3.53628">
        <ele>7.5</ele>
        <time>2021-07-11T07:45:54Z</time>
      </trkpt>
      <trkpt lat="47.7747" lon="-3.5363">
        <ele>7.5</ele>
        <time>2021-07-11T07:45:53Z</time>
      </trkpt>
      <trkpt lat="47.7747" lon="-3.53632">
        <ele>7.5</ele>
        <time>2021-07-11T07:45:52Z</time>
      </trkpt>
      <trkpt lat="47.7747" lon="-3.53634">
        <ele>7.5</ele>
        <time>2021-07-11T07:45:51Z</time>
      </trkpt>
      <trkpt lat="47.7747" lon="-3.53636">
        <ele>7.5</ele>
        <time>2021-07-11T07:45:50Z</time>
      </trkpt>
      <trkpt lat="47.7747" lon="-3.53638">
        <ele>7.5</ele>
        <time>2021-07-11T07:45:49Z</time>
      </trkpt>
      <trkpt lat="47.7747" lon="-3.5364">
        <ele>7.5</ele>
        <time>2021-07-11T07:45:48Z</time>
      </trkpt>
      <trkpt lat="47.7747" lon="-3.53642">
        <ele>7.5</ele>
        <time>2021-07-11T07:45:47Z</time>
      </trkpt>
      <trkpt lat="47.77471" lon="-3.53644">
        <ele>7.5</ele>
        <time>2021-07-11T07:45:46Z</time>
      </trkpt>
      <trkpt lat="47.77471" lon="-3.53646">
        <ele>7.5</ele>
        <time>2021-07-11T07:45:45Z</time>
      </trkpt>
      <trkpt lat="47.77471" lon="-3.53648">
        <ele>7.6</ele>
        <time>2021-07-11T07:45:44Z</time>
      </trkpt>
      <trkpt lat="47.7747" lon="-3.53652">
        <ele>7.7</ele>
        <time>2021-07-11T07:45:43Z</time>
      </trkpt>
      <trkpt lat="47.77469" lon="-3.53654">
        <ele>7.7</ele>
        <time>2021-07-11T07:45:42Z</time>
      </trkpt>
      <trkpt lat="47.77468" lon="-3.53656">
        <ele>7.8</ele>
        <time>2021-07-11T07:45:41Z</time>
      </trkpt>
      <trkpt lat="47.77467" lon="-3.53658">
        <ele>7.9</ele>
        <time>2021-07-11T07:45:40Z</time>
      </trkpt>
      <trkpt lat="47.77465" lon="-3.5366">
        <ele>8</ele>
        <time>2021-07-11T07:45:39Z</time>
      </trkpt>
      <trkpt lat="47.77464" lon="-3.53662">
        <ele>8.1</ele>
        <time>2021-07-11T07:45:38Z</time>
      </trkpt>
      <trkpt lat="47.77463" lon="-3.53664">
        <ele>8.2</ele>
        <time>2021-07-11T07:45:37Z</time>
      </trkpt>
      <trkpt lat="47.77463" lon="-3.53666">
        <ele>8.4</ele>
        <time>2021-07-11T07:45:36Z</time>
      </trkpt>
      <trkpt lat="47.77462" lon="-3.53667">
        <ele>8.5</ele>
        <time>2021-07-11T07:45:35Z</time>
      </trkpt>
      <trkpt lat="47.77461" lon="-3.53669">
        <ele>8.6</ele>
        <time>2021-07-11T07:45:34Z</time>
      </trkpt>
      <trkpt lat="47.77461" lon="-3.53671">
        <ele>8.7</ele>
        <time>2021-07-11T07:45:33Z</time>
      </trkpt>
      <trkpt lat="47.77461" lon="-3.53672">
        <ele>8.8</ele>
        <time>2021-07-11T07:45:32Z</time>
      </trkpt>
      <trkpt lat="47.7746" lon="-3.53674">
        <ele>8.9</ele>
        <time>2021-07-11T07:45:31Z</time>
      </trkpt>
      <trkpt lat="47.7746" lon="-3.53675">
        <ele>9</ele>
        <time>2021-07-11T07:45:30Z</time>
      </trkpt>
      <trkpt lat="47.7746" lon="-3.53676">
        <ele>9.1</ele>
        <time>2021-07-11T07:45:29Z</time>
      </trkpt>
      <trkpt lat="47.77459" lon="-3.53677">
        <ele>9.2</ele>
        <time>2021-07-11T07:45:28Z</time>
      </trkpt>
      <trkpt lat="47.77459" lon="-3.53678">
        <ele>9.2</ele>
        <time>2021-07-11T07:45:27Z</time>
      </trkpt>
      <trkpt lat="47.77459" lon="-3.53679">
        <ele>9.3</ele>
        <time>2021-07-11T07:45:26Z</time>
      </trkpt>
      <trkpt lat="47.77459" lon="-3.53681">
        <ele>9.4</ele>
        <time>2021-07-11T07:45:25Z</time>
      </trkpt>
      <trkpt lat="47.77459" lon="-3.53682">
        <ele>9.5</ele>
        <time>2021-07-11T07:45:24Z</time>
      </trkpt>
      <trkpt lat="47.7746" lon="-3.53684">
        <ele>9.7</ele>
        <time>2021-07-11T07:45:23Z</time>
      </trkpt>
      <trkpt lat="47.77461" lon="-3.53686">
        <ele>9.8</ele>
        <time>2021-07-11T07:45:22Z</time>
      </trkpt>
      <trkpt lat="47.77461" lon="-3.53688">
        <ele>9.9</ele>
        <time>2021-07-11T07:45:21Z</time>
      </trkpt>
      <trkpt lat="47.77462" lon="-3.53689">
        <ele>10</ele>
        <time>2021-07-11T07:45:20Z</time>
      </trkpt>
      <trkpt lat="47.77463" lon="-3.53689">
        <ele>10.1</ele>
        <time>2021-07-11T07:45:19Z</time>
      </trkpt>
      <trkpt lat="47.77464" lon="-3.53689">
        <ele>10.2</ele>
        <time>2021-07-11T07:45:18Z</time>
      </trkpt>
      <trkpt lat="47.77465" lon="-3.5369">
        <ele>10.2</ele>
        <time>2021-07-11T07:45:17Z</time>
      </trkpt>
      <trkpt lat="47.77465" lon="-3.5369">
        <ele>10.3</ele>
        <time>2021-07-11T07:45:16Z</time>
      </trkpt>
      <trkpt lat="47.77466" lon="-3.5369">
        <ele>10.4</ele>
        <time>2021-07-11T07:45:15Z</time>
      </trkpt>
      <trkpt lat="47.77467" lon="-3.5369">
        <ele>10.5</ele>
        <time>2021-07-11T07:45:14Z</time>
      </trkpt>
      <trkpt lat="47.77468" lon="-3.53691">
        <ele>10.6</ele>
        <time>2021-07-11T07:45:13Z</time>
      </trkpt>
      <trkpt lat="47.77469" lon="-3.53691">
        <ele>10.6</ele>
        <time>2021-07-11T07:45:12Z</time>
      </trkpt>
      <trkpt lat="47.77471" lon="-3.53692">
        <ele>10.7</ele>
        <time>2021-07-11T07:45:11Z</time>
      </trkpt>
      <trkpt lat="47.77472" lon="-3.53692">
        <ele>10.8</ele>
        <time>2021-07-11T07:45:10Z</time>
      </trkpt>
      <trkpt lat="47.77473" lon="-3.53693">
        <ele>10.8</ele>
        <time>2021-07-11T07:45:09Z</time>
      </trkpt>
      <trkpt lat="47.77474" lon="-3.53693">
        <ele>10.9</ele>
        <time>2021-07-11T07:45:08Z</time>
      </trkpt>
      <trkpt lat="47.77475" lon="-3.53694">
        <ele>11</ele>
        <time>2021-07-11T07:45:07Z</time>
      </trkpt>
      <trkpt lat="47.77476" lon="-3.53695">
        <ele>11</ele>
        <time>2021-07-11T07:45:06Z</time>
      </trkpt>
      <trkpt lat="47.77477" lon="-3.53695">
        <ele>11.1</ele>
        <time>2021-07-11T07:45:05Z</time>
      </trkpt>
      <trkpt lat="47.77477" lon="-3.53696">
        <ele>10.9</ele>
        <time>2021-07-11T07:45:04Z</time>
      </trkpt>
      <trkpt lat="47.77478" lon="-3.53697">
        <ele>10.8</ele>
        <time>2021-07-11T07:45:03Z</time>
      </trkpt>
      <trkpt lat="47.77479" lon="-3.53698">
        <ele>10.8</ele>
        <time>2021-07-11T07:45:02Z</time>
      </trkpt>
      <trkpt lat="47.7748" lon="-3.53699">
        <ele>10.7</ele>
        <time>2021-07-11T07:45:01Z</time>
      </trkpt>
      <trkpt lat="47.7748" lon="-3.53699">
        <ele>10.7</ele>
        <time>2021-07-11T07:45:00Z</time>
      </trkpt>
      <trkpt lat="47.77481" lon="-3.537">
        <ele>10.6</ele>
        <time>2021-07-11T07:44:59Z</time>
      </trkpt>
      <trkpt lat="47.77482" lon="-3.53701">
        <ele>10.6</ele>
        <time>2021-07-11T07:44:58Z</time>
      </trkpt>
      <trkpt lat="47.77482" lon="-3.53702">
        <ele>10.5</ele>
        <time>2021-07-11T07:44:57Z</time>
      </trkpt>
      <trkpt lat="47.77483" lon="-3.53704">
        <ele>10.4</ele>
        <time>2021-07-11T07:44:56Z</time>
      </trkpt>
      <trkpt lat="47.77483" lon="-3.53705">
        <ele>10.4</ele>
        <time>2021-07-11T07:44:55Z</time>
      </trkpt>
      <trkpt lat="47.77484" lon="-3.53706">
        <ele>10.3</ele>
        <time>2021-07-11T07:44:54Z</time>
      </trkpt>
      <trkpt lat="47.77484" lon="-3.53707">
        <ele>10.2</ele>
        <time>2021-07-11T07:44:53Z</time>
      </trkpt>
      <trkpt lat="47.77485" lon="-3.53708">
        <ele>10.2</ele>
        <time>2021-07-11T07:44:52Z</time>
      </trkpt>
      <trkpt lat="47.77486" lon="-3.5371">
        <ele>10</ele>
        <time>2021-07-11T07:44:51Z</time>
      </trkpt>
      <trkpt lat="47.77487" lon="-3.53711">
        <ele>9.9</ele>
        <time>2021-07-11T07:44:50Z</time>
      </trkpt>
      <trkpt lat="47.77487" lon="-3.53713">
        <ele>9.8</ele>
        <time>2021-07-11T07:44:49Z</time>
      </trkpt>
      <trkpt lat="47.77488" lon="-3.53714">
        <ele>9.7</ele>
        <time>2021-07-11T07:44:48Z</time>
      </trkpt>
      <trkpt lat="47.77489" lon="-3.53716">
        <ele>9.5</ele>
        <time>2021-07-11T07:44:47Z</time>
      </trkpt>
      <trkpt lat="47.7749" lon="-3.53717">
        <ele>9.4</ele>
        <time>2021-07-11T07:44:46Z</time>
      </trkpt>
      <trkpt lat="47.77491" lon="-3.53719">
        <ele>9.3</ele>
        <time>2021-07-11T07:44:45Z</time>
      </trkpt>
      <trkpt lat="47.77491" lon="-3.5372">
        <ele>9.1</ele>
        <time>2021-07-11T07:44:44Z</time>
      </trkpt>
      <trkpt lat="47.77492" lon="-3.53722">
        <ele>9</ele>
        <time>2021-07-11T07:44:43Z</time>
      </trkpt>
      <trkpt lat="47.77493" lon="-3.53723">
        <ele>8.9</ele>
        <time>2021-07-11T07:44:42Z</time>
      </trkpt>
      <trkpt lat="47.77494" lon="-3.53725">
        <ele>8.8</ele>
        <time>2021-07-11T07:44:41Z</time>
      </trkpt>
      <trkpt lat="47.77495" lon="-3.53726">
        <ele>8.6</ele>
        <time>2021-07-11T07:44:40Z</time>
      </trkpt>
      <trkpt lat="47.77495" lon="-3.53727">
        <ele>8.5</ele>
        <time>2021-07-11T07:44:39Z</time>
      </trkpt>
      <trkpt lat="47.77496" lon="-3.53729">
        <ele>8.4</ele>
        <time>2021-07-11T07:44:38Z</time>
      </trkpt>
      <trkpt lat="47.77497" lon="-3.5373">
        <ele>8.3</ele>
        <time>2021-07-11T07:44:37Z</time>
      </trkpt>
      <trkpt lat="47.77498" lon="-3.53731">
        <ele>8.1</ele>
        <time>2021-07-11T07:44:36Z</time>
      </trkpt>
      <trkpt lat="47.77499" lon="-3.53732">
        <ele>8</ele>
        <time>2021-07-11T07:44:35Z</time>
      </trkpt>
      <trkpt lat="47.775" lon="-3.53733">
        <ele>7.9</ele>
        <time>2021-07-11T07:44:34Z</time>
      </trkpt>
      <trkpt lat="47.775" lon="-3.53734">
        <ele>7.8</ele>
        <time>2021-07-11T07:44:33Z</time>
      </trkpt>
      <trkpt lat="47.77501" lon="-3.53736">
        <ele>7.7</ele>
        <time>2021-07-11T07:44:32Z</time>
      </trkpt>
      <trkpt lat="47.77502" lon="-3.53737">
        <ele>7.6</ele>
        <time>2021-07-11T07:44:31Z</time>
      </trkpt>
      <trkpt lat="47.77503" lon="-3.53738">
        <ele>7.5</ele>
        <time>2021-07-11T07:44:30Z</time>
      </trkpt>
      <trkpt lat="47.77504" lon="-3.53739">
        <ele>7.4</ele>
        <time>2021-07-11T07:44:29Z</time>
      </trkpt>
      <trkpt lat="47.77504" lon="-3.5374">
        <ele>7.3</ele>
        <time>2021-07-11T07:44:28Z</time>
      </trkpt>
      <trkpt lat="47.77505" lon="-3.53742">
        <ele>7.2</ele>
        <time>2021-07-11T07:44:27Z</time>
      </trkpt>
      <trkpt lat="47.77506" lon="-3.53743">
        <ele>7.1</ele>
        <time>2021-07-11T07:44:26Z</time>
      </trkpt>
      <trkpt lat="47.77507" lon="-3.53744">
        <ele>7</ele>
        <time>2021-07-11T07:44:25Z</time>
      </trkpt>
      <trkpt lat="47.77508" lon="-3.53746">
        <ele>6.9</ele>
        <time>2021-07-11T07:44:24Z</time>
      </trkpt>
      <trkpt lat="47.77509" lon="-3.53747">
        <ele>6.8</ele>
        <time>2021-07-11T07:44:23Z</time>
      </trkpt>
      <trkpt lat="47.77509" lon="-3.53749">
        <ele>6.7</ele>
        <time>2021-07-11T07:44:22Z</time>
      </trkpt>
      <trkpt lat="47.7751" lon="-3.5375">
        <ele>6.7</ele>
        <time>2021-07-11T07:44:21Z</time>
      </trkpt>
      <trkpt lat="47.77511" lon="-3.53752">
        <ele>6.6</ele>
        <time>2021-07-11T07:44:20Z</time>
      </trkpt>
      <trkpt lat="47.77512" lon="-3.53753">
        <ele>6.6</ele>
        <time>2021-07-11T07:44:19Z</time>
      </trkpt>
      <trkpt lat="47.77512" lon="-3.53754">
        <ele>6.5</ele>
        <time>2021-07-11T07:44:18Z</time>
      </trkpt>
      <trkpt lat="47.77513" lon="-3.53755">
        <ele>6.5</ele>
        <time>2021-07-11T07:44:17Z</time>
      </trkpt>
      <trkpt lat="47.77514" lon="-3.53757">
        <ele>6.4</ele>
        <time>2021-07-11T07:44:16Z</time>
      </trkpt>
      <trkpt lat="47.77515" lon="-3.53758">
        <ele>6.4</ele>
        <time>2021-07-11T07:44:15Z</time>
      </trkpt>
      <trkpt lat="47.77516" lon="-3.53759">
        <ele>6.3</ele>
        <time>2021-07-11T07:44:14Z</time>
      </trkpt>
      <trkpt lat="47.77517" lon="-3.53761">
        <ele>6.3</ele>
        <time>2021-07-11T07:44:13Z</time>
      </trkpt>
      <trkpt lat="47.77518" lon="-3.53762">
        <ele>6.2</ele>
        <time>2021-07-11T07:44:12Z</time>
      </trkpt>
      <trkpt lat="47.77519" lon="-3.53764">
        <ele>6.2</ele>
        <time>2021-07-11T07:44:11Z</time>
      </trkpt>
      <trkpt lat="47.7752" lon="-3.53766">
        <ele>6.2</ele>
        <time>2021-07-11T07:44:10Z</time>
      </trkpt>
      <trkpt lat="47.77521" lon="-3.53767">
        <ele>6.1</ele>
        <time>2021-07-11T07:44:09Z</time>
      </trkpt>
      <trkpt lat="47.77522" lon="-3.53769">
        <ele>6.1</ele>
        <time>2021-07-11T07:44:08Z</time>
      </trkpt>
      <trkpt lat="47.77523" lon="-3.5377">
        <ele>6.1</ele>
        <time>2021-07-11T07:44:07Z</time>
      </trkpt>
      <trkpt lat="47.77524" lon="-3.53771">
        <ele>6.1</ele>
        <time>2021-07-11T07:44:06Z</time>
      </trkpt>
      <trkpt lat="47.77524" lon="-3.53772">
        <ele>6.1</ele>
        <time>2021-07-11T07:44:05Z</time>
      </trkpt>
      <trkpt lat="47.77525" lon="-3.53773">
        <ele>6.1</ele>
        <time>2021-07-11T07:44:04Z</time>
      </trkpt>
      <trkpt lat="47.77525" lon="-3.53775">
        <ele>6.1</ele>
        <time>2021-07-11T07:44:03Z</time>
      </trkpt>
      <trkpt lat="47.77526" lon="-3.53776">
        <ele>6</ele>
        <time>2021-07-11T07:44:02Z</time>
      </trkpt>
      <trkpt lat="47.77527" lon="-3.53778">
        <ele>6</ele>
        <time>2021-07-11T07:44:01Z</time>
      </trkpt>
      <trkpt lat="47.77527" lon="-3.53779">
        <ele>6</ele>
        <time>2021-07-11T07:44:00Z</time>
      </trkpt>
      <trkpt lat="47.77528" lon="-3.53781">
        <ele>6</ele>
        <time>2021-07-11T07:43:59Z</time>
      </trkpt>
      <trkpt lat="47.77529" lon="-3.53783">
        <ele>6</ele>
        <time>2021-07-11T07:43:58Z</time>
      </trkpt>
      <trkpt lat="47.77529" lon="-3.53785">
        <ele>6.1</ele>
        <time>2021-07-11T07:43:57Z</time>
      </trkpt>
      <trkpt lat="47.7753" lon="-3.53787">
        <ele>6.1</ele>
        <time>2021-07-11T07:43:56Z</time>
      </trkpt>
      <trkpt lat="47.77531" lon="-3.53789">
        <ele>6.1</ele>
        <time>2021-07-11T07:43:55Z</time>
      </trkpt>
      <trkpt lat="47.77531" lon="-3.53791">
        <ele>6.1</ele>
        <time>2021-07-11T07:43:54Z</time>
      </trkpt>
      <trkpt lat="47.77532" lon="-3.53793">
        <ele>6.1</ele>
        <time>2021-07-11T07:43:53Z</time>
      </trkpt>
      <trkpt lat="47.77532" lon="-3.53795">
        <ele>6.1</ele>
        <time>2021-07-11T07:43:52Z</time>
      </trkpt>
      <trkpt lat="47.77533" lon="-3.53796">
        <ele>6.1</ele>
        <time>2021-07-11T07:43:51Z</time>
      </trkpt>
      <trkpt lat="47.77534" lon="-3.53798">
        <ele>6.1</ele>
        <time>2021-07-11T07:43:50Z</time>
      </trkpt>
      <trkpt lat="47.77534" lon="-3.538">
        <ele>6.1</ele>
        <time>2021-07-11T07:43:49Z</time>
      </trkpt>
      <trkpt lat="47.77535" lon="-3.53801">
        <ele>6.1</ele>
        <time>2021-07-11T07:43:48Z</time>
      </trkpt>
      <trkpt lat="47.77535" lon="-3.53803">
        <ele>6.1</ele>
        <time>2021-07-11T07:43:47Z</time>
      </trkpt>
      <trkpt lat="47.77536" lon="-3.53804">
        <ele>6.2</ele>
        <time>2021-07-11T07:43:46Z</time>
      </trkpt>
      <trkpt lat="47.77536" lon="-3.53806">
        <ele>6.2</ele>
        <time>2021-07-11T07:43:45Z</time>
      </trkpt>
      <trkpt lat="47.77537" lon="-3.53807">
        <ele>6.2</ele>
        <time>2021-07-11T07:43:44Z</time>
      </trkpt>
      <trkpt lat="47.77537" lon="-3.53809">
        <ele>6.2</ele>
        <time>2021-07-11T07:43:43Z</time>
      </trkpt>
      <trkpt lat="47.77537" lon="-3.5381">
        <ele>6.2</ele>
        <time>2021-07-11T07:43:42Z</time>
      </trkpt>
      <trkpt lat="47.77538" lon="-3.53813">
        <ele>6.2</ele>
        <time>2021-07-11T07:43:41Z</time>
      </trkpt>
      <trkpt lat="47.77538" lon="-3.53815">
        <ele>6.2</ele>
        <time>2021-07-11T07:43:40Z</time>
      </trkpt>
      <trkpt lat="47.77538" lon="-3.53817">
        <ele>6.2</ele>
        <time>2021-07-11T07:43:39Z</time>
      </trkpt>
      <trkpt lat="47.77538" lon="-3.53819">
        <ele>6.1</ele>
        <time>2021-07-11T07:43:38Z</time>
      </trkpt>
      <trkpt lat="47.77538" lon="-3.53822">
        <ele>6.1</ele>
        <time>2021-07-11T07:43:37Z</time>
      </trkpt>
      <trkpt lat="47.77539" lon="-3.53824">
        <ele>6.1</ele>
        <time>2021-07-11T07:43:36Z</time>
      </trkpt>
      <trkpt lat="47.7754" lon="-3.53826">
        <ele>6.1</ele>
        <time>2021-07-11T07:43:35Z</time>
      </trkpt>
      <trkpt lat="47.77541" lon="-3.53828">
        <ele>6.1</ele>
        <time>2021-07-11T07:43:34Z</time>
      </trkpt>
      <trkpt lat="47.77542" lon="-3.5383">
        <ele>6.1</ele>
        <time>2021-07-11T07:43:33Z</time>
      </trkpt>
      <trkpt lat="47.77543" lon="-3.53832">
        <ele>6.1</ele>
        <time>2021-07-11T07:43:32Z</time>
      </trkpt>
      <trkpt lat="47.77544" lon="-3.53835">
        <ele>6</ele>
        <time>2021-07-11T07:43:31Z</time>
      </trkpt>
      <trkpt lat="47.77545" lon="-3.53837">
        <ele>6</ele>
        <time>2021-07-11T07:43:30Z</time>
      </trkpt>
      <trkpt lat="47.77545" lon="-3.53839">
        <ele>6</ele>
        <time>2021-07-11T07:43:29Z</time>
      </trkpt>
      <trkpt lat="47.77546" lon="-3.5384">
        <ele>6</ele>
        <time>2021-07-11T07:43:28Z</time>
      </trkpt>
      <trkpt lat="47.77546" lon="-3.53842">
        <ele>6</ele>
        <time>2021-07-11T07:43:27Z</time>
      </trkpt>
      <trkpt lat="47.77546" lon="-3.53844">
        <ele>6</ele>
        <time>2021-07-11T07:43:26Z</time>
      </trkpt>
      <trkpt lat="47.77546" lon="-3.53845">
        <ele>6</ele>
        <time>2021-07-11T07:43:25Z</time>
      </trkpt>
      <trkpt lat="47.77546" lon="-3.53847">
        <ele>6</ele>
        <time>2021-07-11T07:43:24Z</time>
      </trkpt>
      <trkpt lat="47.77546" lon="-3.53848">
        <ele>6</ele>
        <time>2021-07-11T07:43:23Z</time>
      </trkpt>
      <trkpt lat="47.77546" lon="-3.53849">
        <ele>6</ele>
        <time>2021-07-11T07:43:22Z</time>
      </trkpt>
      <trkpt lat="47.77545" lon="-3.53851">
        <ele>6</ele>
        <time>2021-07-11T07:43:21Z</time>
      </trkpt>
      <trkpt lat="47.77545" lon="-3.53852">
        <ele>6</ele>
        <time>2021-07-11T07:43:20Z</time>
      </trkpt>
      <trkpt lat="47.77545" lon="-3.53853">
        <ele>6.1</ele>
        <time>2021-07-11T07:43:19Z</time>
      </trkpt>
      <trkpt lat="47.77544" lon="-3.53854">
        <ele>6.2</ele>
        <time>2021-07-11T07:43:18Z</time>
      </trkpt>
      <trkpt lat="47.77544" lon="-3.53855">
        <ele>6.3</ele>
        <time>2021-07-11T07:43:17Z</time>
      </trkpt>
      <trkpt lat="47.77544" lon="-3.53856">
        <ele>6.3</ele>
        <time>2021-07-11T07:43:16Z</time>
      </trkpt>
      <trkpt lat="47.77544" lon="-3.53857">
        <ele>6.4</ele>
        <time>2021-07-11T07:43:15Z</time>
      </trkpt>
      <trkpt lat="47.77543" lon="-3.53858">
        <ele>6.5</ele>
        <time>2021-07-11T07:43:14Z</time>
      </trkpt>
      <trkpt lat="47.77543" lon="-3.53859">
        <ele>6.6</ele>
        <time>2021-07-11T07:43:13Z</time>
      </trkpt>
      <trkpt lat="47.77543" lon="-3.5386">
        <ele>6.7</ele>
        <time>2021-07-11T07:43:12Z</time>
      </trkpt>
      <trkpt lat="47.77544" lon="-3.53861">
        <ele>6.8</ele>
        <time>2021-07-11T07:43:11Z</time>
      </trkpt>
      <trkpt lat="47.77544" lon="-3.53862">
        <ele>6.9</ele>
        <time>2021-07-11T07:43:10Z</time>
      </trkpt>
      <trkpt lat="47.77544" lon="-3.53864">
        <ele>7</ele>
        <time>2021-07-11T07:43:09Z</time>
      </trkpt>
      <trkpt lat="47.77545" lon="-3.53865">
        <ele>7.2</ele>
        <time>2021-07-11T07:43:08Z</time>
      </trkpt>
      <trkpt lat="47.77545" lon="-3.53866">
        <ele>7.3</ele>
        <time>2021-07-11T07:43:07Z</time>
      </trkpt>
      <trkpt lat="47.77545" lon="-3.53867">
        <ele>7.3</ele>
        <time>2021-07-11T07:43:06Z</time>
      </trkpt>
      <trkpt lat="47.77544" lon="-3.53867">
        <ele>7.4</ele>
        <time>2021-07-11T07:43:05Z</time>
      </trkpt>
      <trkpt lat="47.77544" lon="-3.53868">
        <ele>7.5</ele>
        <time>2021-07-11T07:43:04Z</time>
      </trkpt>
      <trkpt lat="47.77543" lon="-3.53868">
        <ele>7.7</ele>
        <time>2021-07-11T07:43:03Z</time>
      </trkpt>
      <trkpt lat="47.77542" lon="-3.53868">
        <ele>7.8</ele>
        <time>2021-07-11T07:43:02Z</time>
      </trkpt>
      <trkpt lat="47.77542" lon="-3.53869">
        <ele>7.9</ele>
        <time>2021-07-11T07:43:01Z</time>
      </trkpt>
      <trkpt lat="47.77541" lon="-3.5387">
        <ele>8</ele>
        <time>2021-07-11T07:43:00Z</time>
      </trkpt>
      <trkpt lat="47.77542" lon="-3.53871">
        <ele>8.2</ele>
        <time>2021-07-11T07:42:59Z</time>
      </trkpt>
      <trkpt lat="47.77542" lon="-3.53873">
        <ele>8.3</ele>
        <time>2021-07-11T07:42:58Z</time>
      </trkpt>
      <trkpt lat="47.77542" lon="-3.53874">
        <ele>8.5</ele>
        <time>2021-07-11T07:42:57Z</time>
      </trkpt>
      <trkpt lat="47.77542" lon="-3.53876">
        <ele>8.6</ele>
        <time>2021-07-11T07:42:56Z</time>
      </trkpt>
      <trkpt lat="47.77542" lon="-3.53877">
        <ele>8.8</ele>
        <time>2021-07-11T07:42:55Z</time>
      </trkpt>
      <trkpt lat="47.77542" lon="-3.53878">
        <ele>8.9</ele>
        <time>2021-07-11T07:42:54Z</time>
      </trkpt>
      <trkpt lat="47.77542" lon="-3.53879">
        <ele>9</ele>
        <time>2021-07-11T07:42:53Z</time>
      </trkpt>
      <trkpt lat="47.77541" lon="-3.5388">
        <ele>9.1</ele>
        <time>2021-07-11T07:42:52Z</time>
      </trkpt>
      <trkpt lat="47.77541" lon="-3.53881">
        <ele>9.2</ele>
        <time>2021-07-11T07:42:51Z</time>
      </trkpt>
      <trkpt lat="47.77541" lon="-3.53882">
        <ele>9.3</ele>
        <time>2021-07-11T07:42:50Z</time>
      </trkpt>
      <trkpt lat="47.7754" lon="-3.53883">
        <ele>9.5</ele>
        <time>2021-07-11T07:42:49Z</time>
      </trkpt>
      <trkpt lat="47.7754" lon="-3.53884">
        <ele>9.6</ele>
        <time>2021-07-11T07:42:48Z</time>
      </trkpt>
      <trkpt lat="47.77539" lon="-3.53885">
        <ele>9.7</ele>
        <time>2021-07-11T07:42:47Z</time>
      </trkpt>
      <trkpt lat="47.77538" lon="-3.53885">
        <ele>9.9</ele>
        <time>2021-07-11T07:42:46Z</time>
      </trkpt>
      <trkpt lat="47.77537" lon="-3.53886">
        <ele>10</ele>
        <time>2021-07-11T07:42:45Z</time>
      </trkpt>
      <trkpt lat="47.77537" lon="-3.53887">
        <ele>10.2</ele>
        <time>2021-07-11T07:42:44Z</time>
      </trkpt>
      <trkpt lat="47.77536" lon="-3.53888">
        <ele>10.3</ele>
        <time>2021-07-11T07:42:43Z</time>
      </trkpt>
      <trkpt lat="47.77535" lon="-3.53889">
        <ele>10.5</ele>
        <time>2021-07-11T07:42:42Z</time>
      </trkpt>
      <trkpt lat="47.77535" lon="-3.5389">
        <ele>10.6</ele>
        <time>2021-07-11T07:42:41Z</time>
      </trkpt>
      <trkpt lat="47.77534" lon="-3.5389">
        <ele>10.7</ele>
        <time>2021-07-11T07:42:40Z</time>
      </trkpt>
      <trkpt lat="47.77534" lon="-3.53891">
        <ele>10.7</ele>
        <time>2021-07-11T07:42:39Z</time>
      </trkpt>
      <trkpt lat="47.77533" lon="-3.53891">
        <ele>10.8</ele>
        <time>2021-07-11T07:42:38Z</time>
      </trkpt>
      <trkpt lat="47.77533" lon="-3.53891">
        <ele>10.8</ele>
        <time>2021-07-11T07:42:37Z</time>
      </trkpt>
      <trkpt lat="47.77533" lon="-3.53891">
        <ele>10.8</ele>
        <time>2021-07-11T07:42:36Z</time>
      </trkpt>
      <trkpt lat="47.77533" lon="-3.53891">
        <ele>10.8</ele>
        <time>2021-07-11T07:42:35Z</time>
      </trkpt>
      <trkpt lat="47.77533" lon="-3.53891">
        <ele>10.8</ele>
        <time>2021-07-11T07:42:34Z</time>
      </trkpt>
      <trkpt lat="47.77533" lon="-3.53891">
        <ele>10.8</ele>
        <time>2021-07-11T07:42:33Z</time>
      </trkpt>
      <trkpt lat="47.77533" lon="-3.53892">
        <ele>10.8</ele>
        <time>2021-07-11T07:42:32Z</time>
      </trkpt>
      <trkpt lat="47.77533" lon="-3.53892">
        <ele>10.9</ele>
        <time>2021-07-11T07:42:31Z</time>
      </trkpt>
      <trkpt lat="47.77533" lon="-3.53892">
        <ele>10.9</ele>
        <time>2021-07-11T07:42:30Z</time>
      </trkpt>
      <trkpt lat="47.77533" lon="-3.53893">
        <ele>10.9</ele>
        <time>2021-07-11T07:42:29Z</time>
      </trkpt>
      <trkpt lat="47.77532" lon="-3.53893">
        <ele>11</ele>
        <time>2021-07-11T07:42:28Z</time>
      </trkpt>
      <trkpt lat="47.77532" lon="-3.53894">
        <ele>11.1</ele>
        <time>2021-07-11T07:42:27Z</time>
      </trkpt>
      <trkpt lat="47.77532" lon="-3.53895">
        <ele>11.1</ele>
        <time>2021-07-11T07:42:26Z</time>
      </trkpt>
      <trkpt lat="47.77532" lon="-3.53896">
        <ele>11.2</ele>
        <time>2021-07-11T07:42:25Z</time>
      </trkpt>
      <trkpt lat="47.77531" lon="-3.53897">
        <ele>11.3</ele>
        <time>2021-07-11T07:42:24Z</time>
      </trkpt>
      <trkpt lat="47.77531" lon="-3.53898">
        <ele>11.3</ele>
        <time>2021-07-11T07:42:23Z</time>
      </trkpt>
      <trkpt lat="47.77531" lon="-3.53899">
        <ele>11.4</ele>
        <time>2021-07-11T07:42:22Z</time>
      </trkpt>
      <trkpt lat="47.77531" lon="-3.539">
        <ele>11.5</ele>
        <time>2021-07-11T07:42:21Z</time>
      </trkpt>
      <trkpt lat="47.77531" lon="-3.53902">
        <ele>11.6</ele>
        <time>2021-07-11T07:42:20Z</time>
      </trkpt>
      <trkpt lat="47.77531" lon="-3.53903">
        <ele>11.7</ele>
        <time>2021-07-11T07:42:19Z</time>
      </trkpt>
      <trkpt lat="47.7753" lon="-3.53905">
        <ele>11.7</ele>
        <time>2021-07-11T07:42:18Z</time>
      </trkpt>
      <trkpt lat="47.7753" lon="-3.53907">
        <ele>11.8</ele>
        <time>2021-07-11T07:42:17Z</time>
      </trkpt>
      <trkpt lat="47.7753" lon="-3.53908">
        <ele>11.9</ele>
        <time>2021-07-11T07:42:16Z</time>
      </trkpt>
      <trkpt lat="47.7753" lon="-3.5391">
        <ele>11.9</ele>
        <time>2021-07-11T07:42:15Z</time>
      </trkpt>
      <trkpt lat="47.7753" lon="-3.53912">
        <ele>12</ele>
        <time>2021-07-11T07:42:14Z</time>
      </trkpt>
      <trkpt lat="47.7753" lon="-3.53913">
        <ele>12</ele>
        <time>2021-07-11T07:42:13Z</time>
      </trkpt>
      <trkpt lat="47.7753" lon="-3.53915">
        <ele>12</ele>
        <time>2021-07-11T07:42:12Z</time>
      </trkpt>
      <trkpt lat="47.7753" lon="-3.53918">
        <ele>12.1</ele>
        <time>2021-07-11T07:42:11Z</time>
      </trkpt>
      <trkpt lat="47.7753" lon="-3.5392">
        <ele>12.1</ele>
        <time>2021-07-11T07:42:10Z</time>
      </trkpt>
      <trkpt lat="47.7753" lon="-3.53922">
        <ele>12.1</ele>
        <time>2021-07-11T07:42:09Z</time>
      </trkpt>
      <trkpt lat="47.7753" lon="-3.53925">
        <ele>12.2</ele>
        <time>2021-07-11T07:42:08Z</time>
      </trkpt>
      <trkpt lat="47.7753" lon="-3.53927">
        <ele>12.2</ele>
        <time>2021-07-11T07:42:07Z</time>
      </trkpt>
      <trkpt lat="47.7753" lon="-3.53929">
        <ele>12.2</ele>
        <time>2021-07-11T07:42:06Z</time>
      </trkpt>
      <trkpt lat="47.77529" lon="-3.53931">
        <ele>12.2</ele>
        <time>2021-07-11T07:42:05Z</time>
      </trkpt>
      <trkpt lat="47.77529" lon="-3.53933">
        <ele>12.2</ele>
        <time>2021-07-11T07:42:04Z</time>
      </trkpt>
      <trkpt lat="47.77529" lon="-3.53935">
        <ele>12.2</ele>
        <time>2021-07-11T07:42:03Z</time>
      </trkpt>
      <trkpt lat="47.77529" lon="-3.53937">
        <ele>12.2</ele>
        <time>2021-07-11T07:42:02Z</time>
      </trkpt>
      <trkpt lat="47.77529" lon="-3.53939">
        <ele>12.2</ele>
        <time>2021-07-11T07:42:01Z</time>
      </trkpt>
      <trkpt lat="47.77529" lon="-3.53941">
        <ele>12.1</ele>
        <time>2021-07-11T07:42:00Z</time>
      </trkpt>
      <trkpt lat="47.77529" lon="-3.53944">
        <ele>12.1</ele>
        <time>2021-07-11T07:41:59Z</time>
      </trkpt>
      <trkpt lat="47.77529" lon="-3.53946">
        <ele>12.1</ele>
        <time>2021-07-11T07:41:58Z</time>
      </trkpt>
      <trkpt lat="47.77529" lon="-3.53948">
        <ele>12.1</ele>
        <time>2021-07-11T07:41:57Z</time>
      </trkpt>
      <trkpt lat="47.77529" lon="-3.5395">
        <ele>12.1</ele>
        <time>2021-07-11T07:41:56Z</time>
      </trkpt>
      <trkpt lat="47.77529" lon="-3.53952">
        <ele>12.1</ele>
        <time>2021-07-11T07:41:55Z</time>
      </trkpt>
      <trkpt lat="47.77529" lon="-3.53953">
        <ele>12.1</ele>
        <time>2021-07-11T07:41:54Z</time>
      </trkpt>
      <trkpt lat="47.77529" lon="-3.53954">
        <ele>12.1</ele>
        <time>2021-07-11T07:41:53Z</time>
      </trkpt>
      <trkpt lat="47.77528" lon="-3.53955">
        <ele>12.1</ele>
        <time>2021-07-11T07:41:52Z</time>
      </trkpt>
      <trkpt lat="47.77528" lon="-3.53956">
        <ele>12.1</ele>
        <time>2021-07-11T07:41:51Z</time>
      </trkpt>
      <trkpt lat="47.77527" lon="-3.53957">
        <ele>12.1</ele>
        <time>2021-07-11T07:41:50Z</time>
      </trkpt>
      <trkpt lat="47.77527" lon="-3.53958">
        <ele>12.1</ele>
        <time>2021-07-11T07:41:49Z</time>
      </trkpt>
      <trkpt lat="47.77526" lon="-3.5396">
        <ele>12.1</ele>
        <time>2021-07-11T07:41:48Z</time>
      </trkpt>
      <trkpt lat="47.77526" lon="-3.53961">
        <ele>12.1</ele>
        <time>2021-07-11T07:41:47Z</time>
      </trkpt>
      <trkpt lat="47.77525" lon="-3.53963">
        <ele>12.1</ele>
        <time>2021-07-11T07:41:46Z</time>
      </trkpt>
      <trkpt lat="47.77525" lon="-3.53965">
        <ele>12.1</ele>
        <time>2021-07-11T07:41:45Z</time>
      </trkpt>
      <trkpt lat="47.77524" lon="-3.53967">
        <ele>12.1</ele>
        <time>2021-07-11T07:41:44Z</time>
      </trkpt>
      <trkpt lat="47.77523" lon="-3.53969">
        <ele>12.1</ele>
        <time>2021-07-11T07:41:43Z</time>
      </trkpt>
      <trkpt lat="47.77523" lon="-3.53971">
        <ele>12.1</ele>
        <time>2021-07-11T07:41:42Z</time>
      </trkpt>
      <trkpt lat="47.77523" lon="-3.53972">
        <ele>12.1</ele>
        <time>2021-07-11T07:41:41Z</time>
      </trkpt>
      <trkpt lat="47.77522" lon="-3.53974">
        <ele>12.1</ele>
        <time>2021-07-11T07:41:40Z</time>
      </trkpt>
      <trkpt lat="47.77522" lon="-3.53975">
        <ele>12.2</ele>
        <time>2021-07-11T07:41:39Z</time>
      </trkpt>
      <trkpt lat="47.77522" lon="-3.53976">
        <ele>12.2</ele>
        <time>2021-07-11T07:41:38Z</time>
      </trkpt>
      <trkpt lat="47.77521" lon="-3.53977">
        <ele>12.2</ele>
        <time>2021-07-11T07:41:37Z</time>
      </trkpt>
      <trkpt lat="47.77521" lon="-3.53978">
        <ele>12.2</ele>
        <time>2021-07-11T07:41:36Z</time>
      </trkpt>
      <trkpt lat="47.7752" lon="-3.53979">
        <ele>12.2</ele>
        <time>2021-07-11T07:41:35Z</time>
      </trkpt>
      <trkpt lat="47.77519" lon="-3.53981">
        <ele>12.3</ele>
        <time>2021-07-11T07:41:34Z</time>
      </trkpt>
      <trkpt lat="47.77518" lon="-3.53982">
        <ele>12.3</ele>
        <time>2021-07-11T07:41:33Z</time>
      </trkpt>
      <trkpt lat="47.77518" lon="-3.53984">
        <ele>12.3</ele>
        <time>2021-07-11T07:41:32Z</time>
      </trkpt>
      <trkpt lat="47.77516" lon="-3.53986">
        <ele>12.4</ele>
        <time>2021-07-11T07:41:31Z</time>
      </trkpt>
      <trkpt lat="47.77515" lon="-3.53988">
        <ele>12.5</ele>
        <time>2021-07-11T07:41:30Z</time>
      </trkpt>
      <trkpt lat="47.77515" lon="-3.53989">
        <ele>12.6</ele>
        <time>2021-07-11T07:41:29Z</time>
      </trkpt>
      <trkpt lat="47.77514" lon="-3.53991">
        <ele>12.6</ele>
        <time>2021-07-11T07:41:28Z</time>
      </trkpt>
      <trkpt lat="47.77513" lon="-3.53992">
        <ele>12.7</ele>
        <time>2021-07-11T07:41:27Z</time>
      </trkpt>
      <trkpt lat="47.77512" lon="-3.53993">
        <ele>12.7</ele>
        <time>2021-07-11T07:41:26Z</time>
      </trkpt>
      <trkpt lat="47.77512" lon="-3.53993">
        <ele>12.8</ele>
        <time>2021-07-11T07:41:25Z</time>
      </trkpt>
      <trkpt lat="47.77511" lon="-3.53994">
        <ele>12.9</ele>
        <time>2021-07-11T07:41:24Z</time>
      </trkpt>
      <trkpt lat="47.7751" lon="-3.53995">
        <ele>12.9</ele>
        <time>2021-07-11T07:41:23Z</time>
      </trkpt>
      <trkpt lat="47.77509" lon="-3.53995">
        <ele>13</ele>
        <time>2021-07-11T07:41:22Z</time>
      </trkpt>
      <trkpt lat="47.77508" lon="-3.53996">
        <ele>13.1</ele>
        <time>2021-07-11T07:41:21Z</time>
      </trkpt>
      <trkpt lat="47.77506" lon="-3.53996">
        <ele>13.2</ele>
        <time>2021-07-11T07:41:20Z</time>
      </trkpt>
      <trkpt lat="47.77505" lon="-3.53997">
        <ele>13.3</ele>
        <time>2021-07-11T07:41:19Z</time>
      </trkpt>
      <trkpt lat="47.77503" lon="-3.53998">
        <ele>13.5</ele>
        <time>2021-07-11T07:41:18Z</time>
      </trkpt>
      <trkpt lat="47.77502" lon="-3.53998">
        <ele>13.6</ele>
        <time>2021-07-11T07:41:17Z</time>
      </trkpt>
      <trkpt lat="47.775" lon="-3.53998">
        <ele>13.8</ele>
        <time>2021-07-11T07:41:16Z</time>
      </trkpt>
      <trkpt lat="47.77499" lon="-3.53999">
        <ele>13.9</ele>
        <time>2021-07-11T07:41:15Z</time>
      </trkpt>
      <trkpt lat="47.77498" lon="-3.53999">
        <ele>14</ele>
        <time>2021-07-11T07:41:14Z</time>
      </trkpt>
      <trkpt lat="47.77496" lon="-3.53999">
        <ele>14.2</ele>
        <time>2021-07-11T07:41:13Z</time>
      </trkpt>
      <trkpt lat="47.77495" lon="-3.53999">
        <ele>14.3</ele>
        <time>2021-07-11T07:41:12Z</time>
      </trkpt>
      <trkpt lat="47.77494" lon="-3.53999">
        <ele>14.4</ele>
        <time>2021-07-11T07:41:11Z</time>
      </trkpt>
      <trkpt lat="47.77493" lon="-3.53998">
        <ele>14.5</ele>
        <time>2021-07-11T07:41:10Z</time>
      </trkpt>
      <trkpt lat="47.77492" lon="-3.53998">
        <ele>14.6</ele>
        <time>2021-07-11T07:41:09Z</time>
      </trkpt>
      <trkpt lat="47.77491" lon="-3.53998">
        <ele>14.7</ele>
        <time>2021-07-11T07:41:08Z</time>
      </trkpt>
      <trkpt lat="47.7749" lon="-3.53998">
        <ele>14.8</ele>
        <time>2021-07-11T07:41:07Z</time>
      </trkpt>
      <trkpt lat="47.77488" lon="-3.53998">
        <ele>15</ele>
        <time>2021-07-11T07:41:06Z</time>
      </trkpt>
      <trkpt lat="47.77487" lon="-3.53998">
        <ele>15.1</ele>
        <time>2021-07-11T07:41:05Z</time>
      </trkpt>
      <trkpt lat="47.77486" lon="-3.53998">
        <ele>15.2</ele>
        <time>2021-07-11T07:41:04Z</time>
      </trkpt>
      <trkpt lat="47.77485" lon="-3.53998">
        <ele>15.3</ele>
        <time>2021-07-11T07:41:03Z</time>
      </trkpt>
      <trkpt lat="47.77484" lon="-3.53998">
        <ele>15.4</ele>
        <time>2021-07-11T07:41:02Z</time>
      </trkpt>
      <trkpt lat="47.77483" lon="-3.53998">
        <ele>15.5</ele>
        <time>2021-07-11T07:41:01Z</time>
      </trkpt>
      <trkpt lat="47.77482" lon="-3.53998">
        <ele>15.6</ele>
        <time>2021-07-11T07:41:00Z</time>
      </trkpt>
      <trkpt lat="47.77481" lon="-3.53998">
        <ele>15.7</ele>
        <time>2021-07-11T07:40:59Z</time>
      </trkpt>
      <trkpt lat="47.7748" lon="-3.53998">
        <ele>15.8</ele>
        <time>2021-07-11T07:40:58Z</time>
      </trkpt>
      <trkpt lat="47.77479" lon="-3.53998">
        <ele>15.9</ele>
        <time>2021-07-11T07:40:57Z</time>
      </trkpt>
      <trkpt lat="47.77479" lon="-3.53998">
        <ele>16</ele>
        <time>2021-07-11T07:40:56Z</time>
      </trkpt>
      <trkpt lat="47.77478" lon="-3.53999">
        <ele>16.1</ele>
        <time>2021-07-11T07:40:55Z</time>
      </trkpt>
      <trkpt lat="47.77477" lon="-3.53999">
        <ele>16.2</ele>
        <time>2021-07-11T07:40:54Z</time>
      </trkpt>
      <trkpt lat="47.77476" lon="-3.53999">
        <ele>16.3</ele>
        <time>2021-07-11T07:40:53Z</time>
      </trkpt>
      <trkpt lat="47.77475" lon="-3.53999">
        <ele>16.3</ele>
        <time>2021-07-11T07:40:52Z</time>
      </trkpt>
      <trkpt lat="47.77475" lon="-3.53999">
        <ele>16.4</ele>
        <time>2021-07-11T07:40:51Z</time>
      </trkpt>
      <trkpt lat="47.77474" lon="-3.54">
        <ele>16.5</ele>
        <time>2021-07-11T07:40:50Z</time>
      </trkpt>
      <trkpt lat="47.77473" lon="-3.54">
        <ele>16.6</ele>
        <time>2021-07-11T07:40:49Z</time>
      </trkpt>
      <trkpt lat="47.77472" lon="-3.54">
        <ele>16.7</ele>
        <time>2021-07-11T07:40:48Z</time>
      </trkpt>
      <trkpt lat="47.77472" lon="-3.54">
        <ele>16.7</ele>
        <time>2021-07-11T07:40:47Z</time>
      </trkpt>
      <trkpt lat="47.77471" lon="-3.54">
        <ele>16.8</ele>
        <time>2021-07-11T07:40:46Z</time>
      </trkpt>
      <trkpt lat="47.7747" lon="-3.54">
        <ele>16.9</ele>
        <time>2021-07-11T07:40:45Z</time>
      </trkpt>
      <trkpt lat="47.7747" lon="-3.54">
        <ele>17</ele>
        <time>2021-07-11T07:40:44Z</time>
      </trkpt>
      <trkpt lat="47.77469" lon="-3.54">
        <ele>17.1</ele>
        <time>2021-07-11T07:40:43Z</time>
      </trkpt>
      <trkpt lat="47.77468" lon="-3.54">
        <ele>17.2</ele>
        <time>2021-07-11T07:40:42Z</time>
      </trkpt>
      <trkpt lat="47.77467" lon="-3.54">
        <ele>17.3</ele>
        <time>2021-07-11T07:40:41Z</time>
      </trkpt>
      <trkpt lat="47.77466" lon="-3.54">
        <ele>17.4</ele>
        <time>2021-07-11T07:40:40Z</time>
      </trkpt>
      <trkpt lat="47.77466" lon="-3.54">
        <ele>17.5</ele>
        <time>2021-07-11T07:40:39Z</time>
      </trkpt>
      <trkpt lat="47.77465" lon="-3.54001">
        <ele>17.6</ele>
        <time>2021-07-11T07:40:38Z</time>
      </trkpt>
      <trkpt lat="47.77464" lon="-3.54001">
        <ele>17.7</ele>
        <time>2021-07-11T07:40:37Z</time>
      </trkpt>
      <trkpt lat="47.77463" lon="-3.54001">
        <ele>17.9</ele>
        <time>2021-07-11T07:40:36Z</time>
      </trkpt>
      <trkpt lat="47.77462" lon="-3.54001">
        <ele>18</ele>
        <time>2021-07-11T07:40:35Z</time>
      </trkpt>
      <trkpt lat="47.77461" lon="-3.54001">
        <ele>18.1</ele>
        <time>2021-07-11T07:40:34Z</time>
      </trkpt>
      <trkpt lat="47.7746" lon="-3.54002">
        <ele>18.3</ele>
        <time>2021-07-11T07:40:33Z</time>
      </trkpt>
      <trkpt lat="47.77459" lon="-3.54002">
        <ele>18.4</ele>
        <time>2021-07-11T07:40:32Z</time>
      </trkpt>
      <trkpt lat="47.77458" lon="-3.54002">
        <ele>18.5</ele>
        <time>2021-07-11T07:40:31Z</time>
      </trkpt>
      <trkpt lat="47.77457" lon="-3.54002">
        <ele>18.7</ele>
        <time>2021-07-11T07:40:30Z</time>
      </trkpt>
      <trkpt lat="47.77456" lon="-3.54002">
        <ele>18.8</ele>
        <time>2021-07-11T07:40:29Z</time>
      </trkpt>
      <trkpt lat="47.77455" lon="-3.54002">
        <ele>19</ele>
        <time>2021-07-11T07:40:28Z</time>
      </trkpt>
      <trkpt lat="47.77453" lon="-3.54002">
        <ele>19.2</ele>
        <time>2021-07-11T07:40:27Z</time>
      </trkpt>
      <trkpt lat="47.77452" lon="-3.54002">
        <ele>19.3</ele>
        <time>2021-07-11T07:40:26Z</time>
      </trkpt>
      <trkpt lat="47.77451" lon="-3.54002">
        <ele>19.5</ele>
        <time>2021-07-11T07:40:25Z</time>
      </trkpt>
      <trkpt lat="47.7745" lon="-3.54002">
        <ele>19.6</ele>
        <time>2021-07-11T07:40:24Z</time>
      </trkpt>
      <trkpt lat="47.77449" lon="-3.54002">
        <ele>19.8</ele>
        <time>2021-07-11T07:40:23Z</time>
      </trkpt>
      <trkpt lat="47.77448" lon="-3.54002">
        <ele>19.9</ele>
        <time>2021-07-11T07:40:22Z</time>
      </trkpt>
      <trkpt lat="47.77447" lon="-3.54002">
        <ele>20.1</ele>
        <time>2021-07-11T07:40:21Z</time>
      </trkpt>
      <trkpt lat="47.77446" lon="-3.54002">
        <ele>20.2</ele>
        <time>2021-07-11T07:40:20Z</time>
      </trkpt>
      <trkpt lat="47.77445" lon="-3.54002">
        <ele>20.4</ele>
        <time>2021-07-11T07:40:19Z</time>
      </trkpt>
      <trkpt lat="47.77444" lon="-3.54003">
        <ele>20.5</ele>
        <time>2021-07-11T07:40:18Z</time>
      </trkpt>
      <trkpt lat="47.77443" lon="-3.54003">
        <ele>20.7</ele>
        <time>2021-07-11T07:40:17Z</time>
      </trkpt>
      <trkpt lat="47.77441" lon="-3.54003">
        <ele>20.9</ele>
        <time>2021-07-11T07:40:16Z</time>
      </trkpt>
      <trkpt lat="47.7744" lon="-3.54004">
        <ele>21.1</ele>
        <time>2021-07-11T07:40:15Z</time>
      </trkpt>
      <trkpt lat="47.77439" lon="-3.54004">
        <ele>21.2</ele>
        <time>2021-07-11T07:40:14Z</time>
      </trkpt>
      <trkpt lat="47.77438" lon="-3.54004">
        <ele>21.4</ele>
        <time>2021-07-11T07:40:13Z</time>
      </trkpt>
      <trkpt lat="47.77436" lon="-3.54005">
        <ele>21.6</ele>
        <time>2021-07-11T07:40:12Z</time>
      </trkpt>
      <trkpt lat="47.77435" lon="-3.54005">
        <ele>21.7</ele>
        <time>2021-07-11T07:40:11Z</time>
      </trkpt>
      <trkpt lat="47.77434" lon="-3.54005">
        <ele>21.9</ele>
        <time>2021-07-11T07:40:10Z</time>
      </trkpt>
      <trkpt lat="47.77432" lon="-3.54005">
        <ele>22.1</ele>
        <time>2021-07-11T07:40:09Z</time>
      </trkpt>
      <trkpt lat="47.77431" lon="-3.54005">
        <ele>22.2</ele>
        <time>2021-07-11T07:40:08Z</time>
      </trkpt>
      <trkpt lat="47.7743" lon="-3.54005">
        <ele>22.4</ele>
        <time>2021-07-11T07:40:07Z</time>
      </trkpt>
      <trkpt lat="47.77429" lon="-3.54005">
        <ele>22.5</ele>
        <time>2021-07-11T07:40:06Z</time>
      </trkpt>
      <trkpt lat="47.77428" lon="-3.54005">
        <ele>22.7</ele>
        <time>2021-07-11T07:40:05Z</time>
      </trkpt>
      <trkpt lat="47.77427" lon="-3.54004">
        <ele>22.8</ele>
        <time>2021-07-11T07:40:04Z</time>
      </trkpt>
      <trkpt lat="47.77425" lon="-3.54004">
        <ele>23</ele>
        <time>2021-07-11T07:40:03Z</time>
      </trkpt>
      <trkpt lat="47.77424" lon="-3.54004">
        <ele>23.1</ele>
        <time>2021-07-11T07:40:02Z</time>
      </trkpt>
      <trkpt lat="47.77423" lon="-3.54004">
        <ele>23.3</ele>
        <time>2021-07-11T07:40:01Z</time>
      </trkpt>
      <trkpt lat="47.77422" lon="-3.54003">
        <ele>23.4</ele>
        <time>2021-07-11T07:40:00Z</time>
      </trkpt>
      <trkpt lat="47.77422" lon="-3.54003">
        <ele>23.5</ele>
        <time>2021-07-11T07:39:59Z</time>
      </trkpt>
      <trkpt lat="47.77421" lon="-3.54003">
        <ele>23.6</ele>
        <time>2021-07-11T07:39:58Z</time>
      </trkpt>
      <trkpt lat="47.7742" lon="-3.54002">
        <ele>23.7</ele>
        <time>2021-07-11T07:39:57Z</time>
      </trkpt>
      <trkpt lat="47.77419" lon="-3.54002">
        <ele>23.9</ele>
        <time>2021-07-11T07:39:56Z</time>
      </trkpt>
      <trkpt lat="47.77418" lon="-3.54002">
        <ele>24</ele>
        <time>2021-07-11T07:39:55Z</time>
      </trkpt>
      <trkpt lat="47.77416" lon="-3.54001">
        <ele>24.1</ele>
        <time>2021-07-11T07:39:54Z</time>
      </trkpt>
      <trkpt lat="47.77415" lon="-3.54001">
        <ele>24.3</ele>
        <time>2021-07-11T07:39:53Z</time>
      </trkpt>
      <trkpt lat="47.77414" lon="-3.54001">
        <ele>24.5</ele>
        <time>2021-07-11T07:39:52Z</time>
      </trkpt>
      <trkpt lat="47.77412" lon="-3.54">
        <ele>24.6</ele>
        <time>2021-07-11T07:39:51Z</time>
      </trkpt>
      <trkpt lat="47.77411" lon="-3.54">
        <ele>24.8</ele>
        <time>2021-07-11T07:39:50Z</time>
      </trkpt>
      <trkpt lat="47.7741" lon="-3.54">
        <ele>25</ele>
        <time>2021-07-11T07:39:49Z</time>
      </trkpt>
      <trkpt lat="47.77409" lon="-3.53999">
        <ele>25.1</ele>
        <time>2021-07-11T07:39:48Z</time>
      </trkpt>
      <trkpt lat="47.77408" lon="-3.53999">
        <ele>25.3</ele>
        <time>2021-07-11T07:39:47Z</time>
      </trkpt>
      <trkpt lat="47.77407" lon="-3.53998">
        <ele>25.4</ele>
        <time>2021-07-11T07:39:46Z</time>
      </trkpt>
      <trkpt lat="47.77406" lon="-3.53998">
        <ele>25.5</ele>
        <time>2021-07-11T07:39:45Z</time>
      </trkpt>
      <trkpt lat="47.77405" lon="-3.53998">
        <ele>25.6</ele>
        <time>2021-07-11T07:39:44Z</time>
      </trkpt>
      <trkpt lat="47.77404" lon="-3.53997">
        <ele>25.7</ele>
        <time>2021-07-11T07:39:43Z</time>
      </trkpt>
      <trkpt lat="47.77403" lon="-3.53997">
        <ele>25.8</ele>
        <time>2021-07-11T07:39:42Z</time>
      </trkpt>
      <trkpt lat="47.77403" lon="-3.53996">
        <ele>25.9</ele>
        <time>2021-07-11T07:39:41Z</time>
      </trkpt>
      <trkpt lat="47.77402" lon="-3.53996">
        <ele>26</ele>
        <time>2021-07-11T07:39:40Z</time>
      </trkpt>
      <trkpt lat="47.77402" lon="-3.53996">
        <ele>26.1</ele>
        <time>2021-07-11T07:39:39Z</time>
      </trkpt>
      <trkpt lat="47.77401" lon="-3.53995">
        <ele>26.2</ele>
        <time>2021-07-11T07:39:38Z</time>
      </trkpt>
      <trkpt lat="47.77401" lon="-3.53995">
        <ele>26.3</ele>
        <time>2021-07-11T07:39:37Z</time>
      </trkpt>
      <trkpt lat="47.774" lon="-3.53995">
        <ele>26.3</ele>
        <time>2021-07-11T07:39:36Z</time>
      </trkpt>
      <trkpt lat="47.77399" lon="-3.53995">
        <ele>26.4</ele>
        <time>2021-07-11T07:39:35Z</time>
      </trkpt>
      <trkpt lat="47.77399" lon="-3.53995">
        <ele>26.5</ele>
        <time>2021-07-11T07:39:34Z</time>
      </trkpt>
      <trkpt lat="47.77398" lon="-3.53995">
        <ele>26.6</ele>
        <time>2021-07-11T07:39:33Z</time>
      </trkpt>
      <trkpt lat="47.77397" lon="-3.53995">
        <ele>26.7</ele>
        <time>2021-07-11T07:39:32Z</time>
      </trkpt>
      <trkpt lat="47.77396" lon="-3.53995">
        <ele>26.8</ele>
        <time>2021-07-11T07:39:31Z</time>
      </trkpt>
      <trkpt lat="47.77396" lon="-3.53995">
        <ele>27</ele>
        <time>2021-07-11T07:39:30Z</time>
      </trkpt>
      <trkpt lat="47.77395" lon="-3.53995">
        <ele>27.1</ele>
        <time>2021-07-11T07:39:29Z</time>
      </trkpt>
      <trkpt lat="47.77394" lon="-3.53995">
        <ele>27.2</ele>
        <time>2021-07-11T07:39:28Z</time>
      </trkpt>
      <trkpt lat="47.77393" lon="-3.53995">
        <ele>27.4</ele>
        <time>2021-07-11T07:39:27Z</time>
      </trkpt>
      <trkpt lat="47.77392" lon="-3.53995">
        <ele>27.5</ele>
        <time>2021-07-11T07:39:26Z</time>
      </trkpt>
      <trkpt lat="47.77391" lon="-3.53995">
        <ele>27.6</ele>
        <time>2021-07-11T07:39:25Z</time>
      </trkpt>
      <trkpt lat="47.7739" lon="-3.53995">
        <ele>27.8</ele>
        <time>2021-07-11T07:39:24Z</time>
      </trkpt>
      <trkpt lat="47.77389" lon="-3.53995">
        <ele>27.9</ele>
        <time>2021-07-11T07:39:23Z</time>
      </trkpt>
      <trkpt lat="47.77388" lon="-3.53995">
        <ele>28.1</ele>
        <time>2021-07-11T07:39:22Z</time>
      </trkpt>
      <trkpt lat="47.77387" lon="-3.53995">
        <ele>28.2</ele>
        <time>2021-07-11T07:39:21Z</time>
      </trkpt>
      <trkpt lat="47.77386" lon="-3.53994">
        <ele>28.4</ele>
        <time>2021-07-11T07:39:20Z</time>
      </trkpt>
      <trkpt lat="47.77385" lon="-3.53994">
        <ele>28.6</ele>
        <time>2021-07-11T07:39:19Z</time>
      </trkpt>
      <trkpt lat="47.77384" lon="-3.53994">
        <ele>28.7</ele>
        <time>2021-07-11T07:39:18Z</time>
      </trkpt>
      <trkpt lat="47.77383" lon="-3.53993">
        <ele>28.9</ele>
        <time>2021-07-11T07:39:17Z</time>
      </trkpt>
      <trkpt lat="47.77382" lon="-3.53993">
        <ele>29.1</ele>
        <time>2021-07-11T07:39:16Z</time>
      </trkpt>
      <trkpt lat="47.77381" lon="-3.53992">
        <ele>29.2</ele>
        <time>2021-07-11T07:39:15Z</time>
      </trkpt>
      <trkpt lat="47.7738" lon="-3.53992">
        <ele>29.4</ele>
        <time>2021-07-11T07:39:14Z</time>
      </trkpt>
      <trkpt lat="47.77379" lon="-3.53991">
        <ele>29.6</ele>
        <time>2021-07-11T07:39:13Z</time>
      </trkpt>
      <trkpt lat="47.77378" lon="-3.53991">
        <ele>29.8</ele>
        <time>2021-07-11T07:39:12Z</time>
      </trkpt>
      <trkpt lat="47.77376" lon="-3.5399">
        <ele>29.9</ele>
        <time>2021-07-11T07:39:11Z</time>
      </trkpt>
      <trkpt lat="47.77375" lon="-3.5399">
        <ele>30.1</ele>
        <time>2021-07-11T07:39:10Z</time>
      </trkpt>
      <trkpt lat="47.77374" lon="-3.53989">
        <ele>30.3</ele>
        <time>2021-07-11T07:39:09Z</time>
      </trkpt>
      <trkpt lat="47.77373" lon="-3.53989">
        <ele>30.4</ele>
        <time>2021-07-11T07:39:08Z</time>
      </trkpt>
      <trkpt lat="47.77372" lon="-3.53988">
        <ele>30.6</ele>
        <time>2021-07-11T07:39:07Z</time>
      </trkpt>
      <trkpt lat="47.77371" lon="-3.53988">
        <ele>30.8</ele>
        <time>2021-07-11T07:39:06Z</time>
      </trkpt>
      <trkpt lat="47.7737" lon="-3.53987">
        <ele>30.9</ele>
        <time>2021-07-11T07:39:05Z</time>
      </trkpt>
      <trkpt lat="47.77369" lon="-3.53987">
        <ele>31.1</ele>
        <time>2021-07-11T07:39:04Z</time>
      </trkpt>
      <trkpt lat="47.77368" lon="-3.53986">
        <ele>31.2</ele>
        <time>2021-07-11T07:39:03Z</time>
      </trkpt>
      <trkpt lat="47.77367" lon="-3.53985">
        <ele>31.4</ele>
        <time>2021-07-11T07:39:02Z</time>
      </trkpt>
      <trkpt lat="47.77366" lon="-3.53985">
        <ele>31.6</ele>
        <time>2021-07-11T07:39:01Z</time>
      </trkpt>
      <trkpt lat="47.77365" lon="-3.53984">
        <ele>31.7</ele>
        <time>2021-07-11T07:39:00Z</time>
      </trkpt>
      <trkpt lat="47.77364" lon="-3.53984">
        <ele>31.8</ele>
        <time>2021-07-11T07:38:59Z</time>
      </trkpt>
      <trkpt lat="47.77363" lon="-3.53983">
        <ele>32</ele>
        <time>2021-07-11T07:38:58Z</time>
      </trkpt>
      <trkpt lat="47.77362" lon="-3.53983">
        <ele>32.1</ele>
        <time>2021-07-11T07:38:57Z</time>
      </trkpt>
      <trkpt lat="47.77361" lon="-3.53982">
        <ele>32.2</ele>
        <time>2021-07-11T07:38:56Z</time>
      </trkpt>
      <trkpt lat="47.77361" lon="-3.53981">
        <ele>32.4</ele>
        <time>2021-07-11T07:38:55Z</time>
      </trkpt>
      <trkpt lat="47.7736" lon="-3.53981">
        <ele>32.5</ele>
        <time>2021-07-11T07:38:54Z</time>
      </trkpt>
      <trkpt lat="47.7736" lon="-3.5398">
        <ele>32.5</ele>
        <time>2021-07-11T07:38:53Z</time>
      </trkpt>
      <trkpt lat="47.77359" lon="-3.5398">
        <ele>32.6</ele>
        <time>2021-07-11T07:38:52Z</time>
      </trkpt>
      <trkpt lat="47.77358" lon="-3.53979">
        <ele>32.7</ele>
        <time>2021-07-11T07:38:51Z</time>
      </trkpt>
      <trkpt lat="47.77358" lon="-3.53979">
        <ele>32.8</ele>
        <time>2021-07-11T07:38:50Z</time>
      </trkpt>
      <trkpt lat="47.77357" lon="-3.53979">
        <ele>32.9</ele>
        <time>2021-07-11T07:38:49Z</time>
      </trkpt>
      <trkpt lat="47.77357" lon="-3.53979">
        <ele>32.9</ele>
        <time>2021-07-11T07:38:48Z</time>
      </trkpt>
      <trkpt lat="47.77356" lon="-3.53979">
        <ele>33</ele>
        <time>2021-07-11T07:38:47Z</time>
      </trkpt>
      <trkpt lat="47.77356" lon="-3.5398">
        <ele>33.1</ele>
        <time>2021-07-11T07:38:46Z</time>
      </trkpt>
      <trkpt lat="47.77355" lon="-3.5398">
        <ele>33.1</ele>
        <time>2021-07-11T07:38:45Z</time>
      </trkpt>
      <trkpt lat="47.77355" lon="-3.53981">
        <ele>33.2</ele>
        <time>2021-07-11T07:38:44Z</time>
      </trkpt>
      <trkpt lat="47.77355" lon="-3.53982">
        <ele>33.3</ele>
        <time>2021-07-11T07:38:43Z</time>
      </trkpt>
      <trkpt lat="47.77354" lon="-3.53984">
        <ele>33.4</ele>
        <time>2021-07-11T07:38:42Z</time>
      </trkpt>
      <trkpt lat="47.77354" lon="-3.53985">
        <ele>33.6</ele>
        <time>2021-07-11T07:38:41Z</time>
      </trkpt>
      <trkpt lat="47.77353" lon="-3.53987">
        <ele>33.7</ele>
        <time>2021-07-11T07:38:40Z</time>
      </trkpt>
      <trkpt lat="47.77353" lon="-3.53988">
        <ele>33.8</ele>
        <time>2021-07-11T07:38:39Z</time>
      </trkpt>
      <trkpt lat="47.77352" lon="-3.5399">
        <ele>33.9</ele>
        <time>2021-07-11T07:38:38Z</time>
      </trkpt>
      <trkpt lat="47.77352" lon="-3.53991">
        <ele>34</ele>
        <time>2021-07-11T07:38:37Z</time>
      </trkpt>
      <trkpt lat="47.77352" lon="-3.53993">
        <ele>34.1</ele>
        <time>2021-07-11T07:38:36Z</time>
      </trkpt>
      <trkpt lat="47.77351" lon="-3.53994">
        <ele>34.2</ele>
        <time>2021-07-11T07:38:35Z</time>
      </trkpt>
      <trkpt lat="47.77351" lon="-3.53996">
        <ele>34.3</ele>
        <time>2021-07-11T07:38:34Z</time>
      </trkpt>
      <trkpt lat="47.7735" lon="-3.53998">
        <ele>34.4</ele>
        <time>2021-07-11T07:38:33Z</time>
      </trkpt>
      <trkpt lat="47.77349" lon="-3.54">
        <ele>34.5</ele>
        <time>2021-07-11T07:38:32Z</time>
      </trkpt>
      <trkpt lat="47.77348" lon="-3.54002">
        <ele>34.7</ele>
        <time>2021-07-11T07:38:31Z</time>
      </trkpt>
      <trkpt lat="47.77347" lon="-3.54004">
        <ele>34.8</ele>
        <time>2021-07-11T07:38:30Z</time>
      </trkpt>
      <trkpt lat="47.77346" lon="-3.54006">
        <ele>34.9</ele>
        <time>2021-07-11T07:38:29Z</time>
      </trkpt>
      <trkpt lat="47.77345" lon="-3.54008">
        <ele>35</ele>
        <time>2021-07-11T07:38:28Z</time>
      </trkpt>
      <trkpt lat="47.77344" lon="-3.5401">
        <ele>35.2</ele>
        <time>2021-07-11T07:38:27Z</time>
      </trkpt>
      <trkpt lat="47.77343" lon="-3.54012">
        <ele>35.3</ele>
        <time>2021-07-11T07:38:26Z</time>
      </trkpt>
      <trkpt lat="47.77342" lon="-3.54013">
        <ele>35.3</ele>
        <time>2021-07-11T07:38:25Z</time>
      </trkpt>
      <trkpt lat="47.77341" lon="-3.54013">
        <ele>35.4</ele>
        <time>2021-07-11T07:38:24Z</time>
      </trkpt>
      <trkpt lat="47.7734" lon="-3.54013">
        <ele>35.5</ele>
        <time>2021-07-11T07:38:23Z</time>
      </trkpt>
      <trkpt lat="47.77339" lon="-3.54013">
        <ele>35.6</ele>
        <time>2021-07-11T07:38:22Z</time>
      </trkpt>
      <trkpt lat="47.77338" lon="-3.54013">
        <ele>35.6</ele>
        <time>2021-07-11T07:38:21Z</time>
      </trkpt>
      <trkpt lat="47.77337" lon="-3.54013">
        <ele>35.7</ele>
        <time>2021-07-11T07:38:20Z</time>
      </trkpt>
      <trkpt lat="47.77336" lon="-3.54013">
        <ele>35.8</ele>
        <time>2021-07-11T07:38:19Z</time>
      </trkpt>
      <trkpt lat="47.77335" lon="-3.54012">
        <ele>35.8</ele>
        <time>2021-07-11T07:38:18Z</time>
      </trkpt>
      <trkpt lat="47.77334" lon="-3.54012">
        <ele>35.9</ele>
        <time>2021-07-11T07:38:17Z</time>
      </trkpt>
      <trkpt lat="47.77333" lon="-3.54012">
        <ele>36</ele>
        <time>2021-07-11T07:38:16Z</time>
      </trkpt>
      <trkpt lat="47.77332" lon="-3.54012">
        <ele>36</ele>
        <time>2021-07-11T07:38:15Z</time>
      </trkpt>
      <trkpt lat="47.7733" lon="-3.54012">
        <ele>36.1</ele>
        <time>2021-07-11T07:38:14Z</time>
      </trkpt>
      <trkpt lat="47.77329" lon="-3.54012">
        <ele>36.2</ele>
        <time>2021-07-11T07:38:13Z</time>
      </trkpt>
      <trkpt lat="47.77328" lon="-3.54012">
        <ele>36.3</ele>
        <time>2021-07-11T07:38:12Z</time>
      </trkpt>
      <trkpt lat="47.77327" lon="-3.54012">
        <ele>36.3</ele>
        <time>2021-07-11T07:38:11Z</time>
      </trkpt>
      <trkpt lat="47.77326" lon="-3.54012">
        <ele>36.4</ele>
        <time>2021-07-11T07:38:10Z</time>
      </trkpt>
      <trkpt lat="47.77324" lon="-3.54012">
        <ele>36.5</ele>
        <time>2021-07-11T07:38:09Z</time>
      </trkpt>
      <trkpt lat="47.77323" lon="-3.54012">
        <ele>36.6</ele>
        <time>2021-07-11T07:38:08Z</time>
      </trkpt>
      <trkpt lat="47.77322" lon="-3.54012">
        <ele>36.7</ele>
        <time>2021-07-11T07:38:07Z</time>
      </trkpt>
      <trkpt lat="47.7732" lon="-3.54012">
        <ele>36.7</ele>
        <time>2021-07-11T07:38:06Z</time>
      </trkpt>
      <trkpt lat="47.77319" lon="-3.54012">
        <ele>36.8</ele>
        <time>2021-07-11T07:38:05Z</time>
      </trkpt>
      <trkpt lat="47.77318" lon="-3.54012">
        <ele>36.9</ele>
        <time>2021-07-11T07:38:04Z</time>
      </trkpt>
      <trkpt lat="47.77317" lon="-3.54013">
        <ele>36.9</ele>
        <time>2021-07-11T07:38:03Z</time>
      </trkpt>
      <trkpt lat="47.77315" lon="-3.54013">
        <ele>37</ele>
        <time>2021-07-11T07:38:02Z</time>
      </trkpt>
      <trkpt lat="47.77314" lon="-3.54013">
        <ele>37.1</ele>
        <time>2021-07-11T07:38:01Z</time>
      </trkpt>
      <trkpt lat="47.77312" lon="-3.54013">
        <ele>37.1</ele>
        <time>2021-07-11T07:38:00Z</time>
      </trkpt>
      <trkpt lat="47.77311" lon="-3.54014">
        <ele>37.2</ele>
        <time>2021-07-11T07:37:59Z</time>
      </trkpt>
      <trkpt lat="47.7731" lon="-3.54014">
        <ele>37.3</ele>
        <time>2021-07-11T07:37:58Z</time>
      </trkpt>
      <trkpt lat="47.77308" lon="-3.54014">
        <ele>37.3</ele>
        <time>2021-07-11T07:37:57Z</time>
      </trkpt>
      <trkpt lat="47.77307" lon="-3.54014">
        <ele>37.4</ele>
        <time>2021-07-11T07:37:56Z</time>
      </trkpt>
      <trkpt lat="47.77306" lon="-3.54015">
        <ele>37.4</ele>
        <time>2021-07-11T07:37:55Z</time>
      </trkpt>
      <trkpt lat="47.77304" lon="-3.54015">
        <ele>37.5</ele>
        <time>2021-07-11T07:37:54Z</time>
      </trkpt>
      <trkpt lat="47.77303" lon="-3.54015">
        <ele>37.6</ele>
        <time>2021-07-11T07:37:53Z</time>
      </trkpt>
      <trkpt lat="47.77301" lon="-3.54015">
        <ele>37.6</ele>
        <time>2021-07-11T07:37:52Z</time>
      </trkpt>
      <trkpt lat="47.773" lon="-3.54016">
        <ele>37.7</ele>
        <time>2021-07-11T07:37:51Z</time>
      </trkpt>
      <trkpt lat="47.77299" lon="-3.54016">
        <ele>37.7</ele>
        <time>2021-07-11T07:37:50Z</time>
      </trkpt>
      <trkpt lat="47.77297" lon="-3.54016">
        <ele>37.8</ele>
        <time>2021-07-11T07:37:49Z</time>
      </trkpt>
      <trkpt lat="47.77296" lon="-3.54016">
        <ele>37.8</ele>
        <time>2021-07-11T07:37:48Z</time>
      </trkpt>
      <trkpt lat="47.77295" lon="-3.54016">
        <ele>37.9</ele>
        <time>2021-07-11T07:37:47Z</time>
      </trkpt>
      <trkpt lat="47.77293" lon="-3.54016">
        <ele>37.9</ele>
        <time>2021-07-11T07:37:46Z</time>
      </trkpt>
      <trkpt lat="47.77292" lon="-3.54017">
        <ele>38</ele>
        <time>2021-07-11T07:37:45Z</time>
      </trkpt>
      <trkpt lat="47.77291" lon="-3.54017">
        <ele>38</ele>
        <time>2021-07-11T07:37:44Z</time>
      </trkpt>
      <trkpt lat="47.77289" lon="-3.54017">
        <ele>38.1</ele>
        <time>2021-07-11T07:37:43Z</time>
      </trkpt>
      <trkpt lat="47.77288" lon="-3.54017">
        <ele>38.1</ele>
        <time>2021-07-11T07:37:42Z</time>
      </trkpt>
      <trkpt lat="47.77287" lon="-3.54017">
        <ele>38.2</ele>
        <time>2021-07-11T07:37:41Z</time>
      </trkpt>
      <trkpt lat="47.77285" lon="-3.54017">
        <ele>38.2</ele>
        <time>2021-07-11T07:37:40Z</time>
      </trkpt>
      <trkpt lat="47.77284" lon="-3.54017">
        <ele>38.3</ele>
        <time>2021-07-11T07:37:39Z</time>
      </trkpt>
      <trkpt lat="47.77283" lon="-3.54018">
        <ele>38.3</ele>
        <time>2021-07-11T07:37:38Z</time>
      </trkpt>
      <trkpt lat="47.77281" lon="-3.54018">
        <ele>38.4</ele>
        <time>2021-07-11T07:37:37Z</time>
      </trkpt>
      <trkpt lat="47.7728" lon="-3.54018">
        <ele>38.4</ele>
        <time>2021-07-11T07:37:36Z</time>
      </trkpt>
      <trkpt lat="47.77279" lon="-3.54018">
        <ele>38.5</ele>
        <time>2021-07-11T07:37:35Z</time>
      </trkpt>
      <trkpt lat="47.77277" lon="-3.54018">
        <ele>38.5</ele>
        <time>2021-07-11T07:37:34Z</time>
      </trkpt>
      <trkpt lat="47.77276" lon="-3.54018">
        <ele>38.5</ele>
        <time>2021-07-11T07:37:33Z</time>
      </trkpt>
      <trkpt lat="47.77275" lon="-3.54018">
        <ele>38.6</ele>
        <time>2021-07-11T07:37:32Z</time>
      </trkpt>
      <trkpt lat="47.77273" lon="-3.54019">
        <ele>38.6</ele>
        <time>2021-07-11T07:37:31Z</time>
      </trkpt>
      <trkpt lat="47.77272" lon="-3.54019">
        <ele>38.6</ele>
        <time>2021-07-11T07:37:30Z</time>
      </trkpt>
      <trkpt lat="47.77271" lon="-3.54019">
        <ele>38.7</ele>
        <time>2021-07-11T07:37:29Z</time>
      </trkpt>
      <trkpt lat="47.7727" lon="-3.54019">
        <ele>38.7</ele>
        <time>2021-07-11T07:37:28Z</time>
      </trkpt>
      <trkpt lat="47.77268" lon="-3.5402">
        <ele>38.7</ele>
        <time>2021-07-11T07:37:27Z</time>
      </trkpt>
      <trkpt lat="47.77267" lon="-3.5402">
        <ele>38.7</ele>
        <time>2021-07-11T07:37:26Z</time>
      </trkpt>
      <trkpt lat="47.77266" lon="-3.5402">
        <ele>38.7</ele>
        <time>2021-07-11T07:37:25Z</time>
      </trkpt>
      <trkpt lat="47.77264" lon="-3.54021">
        <ele>38.8</ele>
        <time>2021-07-11T07:37:24Z</time>
      </trkpt>
      <trkpt lat="47.77263" lon="-3.54021">
        <ele>38.8</ele>
        <time>2021-07-11T07:37:23Z</time>
      </trkpt>
      <trkpt lat="47.77261" lon="-3.54022">
        <ele>38.8</ele>
        <time>2021-07-11T07:37:22Z</time>
      </trkpt>
      <trkpt lat="47.7726" lon="-3.54022">
        <ele>38.8</ele>
        <time>2021-07-11T07:37:21Z</time>
      </trkpt>
      <trkpt lat="47.77259" lon="-3.54023">
        <ele>38.8</ele>
        <time>2021-07-11T07:37:20Z</time>
      </trkpt>
      <trkpt lat="47.77257" lon="-3.54023">
        <ele>38.8</ele>
        <time>2021-07-11T07:37:19Z</time>
      </trkpt>
      <trkpt lat="47.77256" lon="-3.54024">
        <ele>38.8</ele>
        <time>2021-07-11T07:37:18Z</time>
      </trkpt>
      <trkpt lat="47.77255" lon="-3.54025">
        <ele>38.8</ele>
        <time>2021-07-11T07:37:17Z</time>
      </trkpt>
      <trkpt lat="47.77253" lon="-3.54025">
        <ele>38.7</ele>
        <time>2021-07-11T07:37:16Z</time>
      </trkpt>
      <trkpt lat="47.77252" lon="-3.54026">
        <ele>38.7</ele>
        <time>2021-07-11T07:37:15Z</time>
      </trkpt>
      <trkpt lat="47.77251" lon="-3.54027">
        <ele>38.7</ele>
        <time>2021-07-11T07:37:14Z</time>
      </trkpt>
      <trkpt lat="47.77249" lon="-3.54027">
        <ele>38.7</ele>
        <time>2021-07-11T07:37:13Z</time>
      </trkpt>
      <trkpt lat="47.77248" lon="-3.54028">
        <ele>38.7</ele>
        <time>2021-07-11T07:37:12Z</time>
      </trkpt>
      <trkpt lat="47.77247" lon="-3.54029">
        <ele>38.6</ele>
        <time>2021-07-11T07:37:11Z</time>
      </trkpt>
      <trkpt lat="47.77246" lon="-3.5403">
        <ele>38.6</ele>
        <time>2021-07-11T07:37:10Z</time>
      </trkpt>
      <trkpt lat="47.77244" lon="-3.54031">
        <ele>38.6</ele>
        <time>2021-07-11T07:37:09Z</time>
      </trkpt>
      <trkpt lat="47.77243" lon="-3.54032">
        <ele>38.6</ele>
        <time>2021-07-11T07:37:08Z</time>
      </trkpt>
      <trkpt lat="47.77242" lon="-3.54032">
        <ele>38.6</ele>
        <time>2021-07-11T07:37:07Z</time>
      </trkpt>
      <trkpt lat="47.7724" lon="-3.54033">
        <ele>38.5</ele>
        <time>2021-07-11T07:37:06Z</time>
      </trkpt>
      <trkpt lat="47.77239" lon="-3.54034">
        <ele>38.5</ele>
        <time>2021-07-11T07:37:05Z</time>
      </trkpt>
      <trkpt lat="47.77238" lon="-3.54034">
        <ele>38.5</ele>
        <time>2021-07-11T07:37:04Z</time>
      </trkpt>
      <trkpt lat="47.77237" lon="-3.54035">
        <ele>38.5</ele>
        <time>2021-07-11T07:37:03Z</time>
      </trkpt>
      <trkpt lat="47.77235" lon="-3.54035">
        <ele>38.4</ele>
        <time>2021-07-11T07:37:02Z</time>
      </trkpt>
      <trkpt lat="47.77234" lon="-3.54036">
        <ele>38.4</ele>
        <time>2021-07-11T07:37:01Z</time>
      </trkpt>
      <trkpt lat="47.77233" lon="-3.54036">
        <ele>38.4</ele>
        <time>2021-07-11T07:37:00Z</time>
      </trkpt>
      <trkpt lat="47.77231" lon="-3.54036">
        <ele>38.3</ele>
        <time>2021-07-11T07:36:59Z</time>
      </trkpt>
      <trkpt lat="47.7723" lon="-3.54036">
        <ele>38.3</ele>
        <time>2021-07-11T07:36:58Z</time>
      </trkpt>
      <trkpt lat="47.77229" lon="-3.54036">
        <ele>38.3</ele>
        <time>2021-07-11T07:36:57Z</time>
      </trkpt>
      <trkpt lat="47.77228" lon="-3.54036">
        <ele>38.3</ele>
        <time>2021-07-11T07:36:56Z</time>
      </trkpt>
      <trkpt lat="47.77226" lon="-3.54036">
        <ele>38.2</ele>
        <time>2021-07-11T07:36:55Z</time>
      </trkpt>
      <trkpt lat="47.77225" lon="-3.54037">
        <ele>38.2</ele>
        <time>2021-07-11T07:36:54Z</time>
      </trkpt>
      <trkpt lat="47.77223" lon="-3.54037">
        <ele>38.2</ele>
        <time>2021-07-11T07:36:53Z</time>
      </trkpt>
      <trkpt lat="47.77222" lon="-3.54037">
        <ele>38.1</ele>
        <time>2021-07-11T07:36:52Z</time>
      </trkpt>
      <trkpt lat="47.7722" lon="-3.54037">
        <ele>38.1</ele>
        <time>2021-07-11T07:36:51Z</time>
      </trkpt>
      <trkpt lat="47.77219" lon="-3.54037">
        <ele>38</ele>
        <time>2021-07-11T07:36:50Z</time>
      </trkpt>
      <trkpt lat="47.77217" lon="-3.54038">
        <ele>38</ele>
        <time>2021-07-11T07:36:49Z</time>
      </trkpt>
      <trkpt lat="47.77215" lon="-3.54038">
        <ele>37.9</ele>
        <time>2021-07-11T07:36:48Z</time>
      </trkpt>
      <trkpt lat="47.77214" lon="-3.54038">
        <ele>37.9</ele>
        <time>2021-07-11T07:36:47Z</time>
      </trkpt>
      <trkpt lat="47.77212" lon="-3.54039">
        <ele>37.9</ele>
        <time>2021-07-11T07:36:46Z</time>
      </trkpt>
      <trkpt lat="47.7721" lon="-3.54039">
        <ele>37.8</ele>
        <time>2021-07-11T07:36:45Z</time>
      </trkpt>
      <trkpt lat="47.77209" lon="-3.5404">
        <ele>37.8</ele>
        <time>2021-07-11T07:36:44Z</time>
      </trkpt>
      <trkpt lat="47.77207" lon="-3.5404">
        <ele>37.7</ele>
        <time>2021-07-11T07:36:43Z</time>
      </trkpt>
      <trkpt lat="47.77206" lon="-3.54041">
        <ele>37.7</ele>
        <time>2021-07-11T07:36:42Z</time>
      </trkpt>
      <trkpt lat="47.77205" lon="-3.54041">
        <ele>37.6</ele>
        <time>2021-07-11T07:36:41Z</time>
      </trkpt>
      <trkpt lat="47.77203" lon="-3.54042">
        <ele>37.6</ele>
        <time>2021-07-11T07:36:40Z</time>
      </trkpt>
      <trkpt lat="47.77202" lon="-3.54042">
        <ele>37.6</ele>
        <time>2021-07-11T07:36:39Z</time>
      </trkpt>
      <trkpt lat="47.77201" lon="-3.54042">
        <ele>37.5</ele>
        <time>2021-07-11T07:36:38Z</time>
      </trkpt>
      <trkpt lat="47.77199" lon="-3.54043">
        <ele>37.5</ele>
        <time>2021-07-11T07:36:37Z</time>
      </trkpt>
      <trkpt lat="47.77198" lon="-3.54043">
        <ele>37.4</ele>
        <time>2021-07-11T07:36:36Z</time>
      </trkpt>
      <trkpt lat="47.77197" lon="-3.54043">
        <ele>37.3</ele>
        <time>2021-07-11T07:36:35Z</time>
      </trkpt>
      <trkpt lat="47.77195" lon="-3.54043">
        <ele>37.3</ele>
        <time>2021-07-11T07:36:34Z</time>
      </trkpt>
      <trkpt lat="47.77194" lon="-3.54044">
        <ele>37.2</ele>
        <time>2021-07-11T07:36:33Z</time>
      </trkpt>
      <trkpt lat="47.77192" lon="-3.54044">
        <ele>37.2</ele>
        <time>2021-07-11T07:36:32Z</time>
      </trkpt>
      <trkpt lat="47.77191" lon="-3.54044">
        <ele>37.1</ele>
        <time>2021-07-11T07:36:31Z</time>
      </trkpt>
      <trkpt lat="47.7719" lon="-3.54045">
        <ele>37</ele>
        <time>2021-07-11T07:36:30Z</time>
      </trkpt>
      <trkpt lat="47.77188" lon="-3.54045">
        <ele>37</ele>
        <time>2021-07-11T07:36:29Z</time>
      </trkpt>
      <trkpt lat="47.77187" lon="-3.54045">
        <ele>36.9</ele>
        <time>2021-07-11T07:36:28Z</time>
      </trkpt>
      <trkpt lat="47.77186" lon="-3.54046">
        <ele>36.8</ele>
        <time>2021-07-11T07:36:27Z</time>
      </trkpt>
      <trkpt lat="47.77184" lon="-3.54046">
        <ele>36.7</ele>
        <time>2021-07-11T07:36:26Z</time>
      </trkpt>
      <trkpt lat="47.77183" lon="-3.54046">
        <ele>36.6</ele>
        <time>2021-07-11T07:36:25Z</time>
      </trkpt>
      <trkpt lat="47.77182" lon="-3.54047">
        <ele>36.5</ele>
        <time>2021-07-11T07:36:24Z</time>
      </trkpt>
      <trkpt lat="47.7718" lon="-3.54047">
        <ele>36.4</ele>
        <time>2021-07-11T07:36:23Z</time>
      </trkpt>
      <trkpt lat="47.77179" lon="-3.54047">
        <ele>36.3</ele>
        <time>2021-07-11T07:36:22Z</time>
      </trkpt>
      <trkpt lat="47.77177" lon="-3.54047">
        <ele>36.2</ele>
        <time>2021-07-11T07:36:21Z</time>
      </trkpt>
      <trkpt lat="47.77176" lon="-3.54048">
        <ele>36.1</ele>
        <time>2021-07-11T07:36:20Z</time>
      </trkpt>
      <trkpt lat="47.77174" lon="-3.54048">
        <ele>36</ele>
        <time>2021-07-11T07:36:19Z</time>
      </trkpt>
      <trkpt lat="47.77173" lon="-3.54048">
        <ele>36</ele>
        <time>2021-07-11T07:36:18Z</time>
      </trkpt>
      <trkpt lat="47.77171" lon="-3.54049">
        <ele>35.9</ele>
        <time>2021-07-11T07:36:17Z</time>
      </trkpt>
      <trkpt lat="47.7717" lon="-3.54049">
        <ele>35.8</ele>
        <time>2021-07-11T07:36:16Z</time>
      </trkpt>
      <trkpt lat="47.77169" lon="-3.5405">
        <ele>35.7</ele>
        <time>2021-07-11T07:36:15Z</time>
      </trkpt>
      <trkpt lat="47.77167" lon="-3.5405">
        <ele>35.6</ele>
        <time>2021-07-11T07:36:14Z</time>
      </trkpt>
      <trkpt lat="47.77166" lon="-3.54051">
        <ele>35.5</ele>
        <time>2021-07-11T07:36:13Z</time>
      </trkpt>
      <trkpt lat="47.77165" lon="-3.54052">
        <ele>35.4</ele>
        <time>2021-07-11T07:36:12Z</time>
      </trkpt>
      <trkpt lat="47.77164" lon="-3.54053">
        <ele>35.3</ele>
        <time>2021-07-11T07:36:11Z</time>
      </trkpt>
      <trkpt lat="47.77163" lon="-3.54054">
        <ele>35.3</ele>
        <time>2021-07-11T07:36:10Z</time>
      </trkpt>
      <trkpt lat="47.77162" lon="-3.54055">
        <ele>35.2</ele>
        <time>2021-07-11T07:36:09Z</time>
      </trkpt>
      <trkpt lat="47.77161" lon="-3.54056">
        <ele>34.7</ele>
        <time>2021-07-11T07:36:08Z</time>
      </trkpt>
      <trkpt lat="47.7716" lon="-3.54058">
        <ele>34.7</ele>
        <time>2021-07-11T07:36:07Z</time>
      </trkpt>
      <trkpt lat="47.77159" lon="-3.5406">
        <ele>34.7</ele>
        <time>2021-07-11T07:36:06Z</time>
      </trkpt>
      <trkpt lat="47.77159" lon="-3.54061">
        <ele>34.7</ele>
        <time>2021-07-11T07:36:05Z</time>
      </trkpt>
      <trkpt lat="47.77158" lon="-3.54063">
        <ele>34.7</ele>
        <time>2021-07-11T07:36:04Z</time>
      </trkpt>
      <trkpt lat="47.77158" lon="-3.54065">
        <ele>34.7</ele>
        <time>2021-07-11T07:36:03Z</time>
      </trkpt>
      <trkpt lat="47.77157" lon="-3.54066">
        <ele>34.7</ele>
        <time>2021-07-11T07:36:02Z</time>
      </trkpt>
      <trkpt lat="47.77157" lon="-3.54068">
        <ele>34.7</ele>
        <time>2021-07-11T07:36:01Z</time>
      </trkpt>
      <trkpt lat="47.77156" lon="-3.5407">
        <ele>34.7</ele>
        <time>2021-07-11T07:36:00Z</time>
      </trkpt>
      <trkpt lat="47.77156" lon="-3.54072">
        <ele>34.7</ele>
        <time>2021-07-11T07:35:59Z</time>
      </trkpt>
      <trkpt lat="47.77155" lon="-3.54074">
        <ele>34.7</ele>
        <time>2021-07-11T07:35:58Z</time>
      </trkpt>
      <trkpt lat="47.77155" lon="-3.54076">
        <ele>34.7</ele>
        <time>2021-07-11T07:35:57Z</time>
      </trkpt>
      <trkpt lat="47.77155" lon="-3.54078">
        <ele>34.7</ele>
        <time>2021-07-11T07:35:56Z</time>
      </trkpt>
      <trkpt lat="47.77154" lon="-3.5408">
        <ele>34.7</ele>
        <time>2021-07-11T07:35:55Z</time>
      </trkpt>
      <trkpt lat="47.77154" lon="-3.54082">
        <ele>34.7</ele>
        <time>2021-07-11T07:35:54Z</time>
      </trkpt>
      <trkpt lat="47.77154" lon="-3.54084">
        <ele>34.7</ele>
        <time>2021-07-11T07:35:53Z</time>
      </trkpt>
      <trkpt lat="47.77154" lon="-3.54086">
        <ele>34.8</ele>
        <time>2021-07-11T07:35:52Z</time>
      </trkpt>
      <trkpt lat="47.77153" lon="-3.54088">
        <ele>34.8</ele>
        <time>2021-07-11T07:35:51Z</time>
      </trkpt>
      <trkpt lat="47.77153" lon="-3.5409">
        <ele>34.8</ele>
        <time>2021-07-11T07:35:50Z</time>
      </trkpt>
      <trkpt lat="47.77153" lon="-3.54092">
        <ele>34.8</ele>
        <time>2021-07-11T07:35:49Z</time>
      </trkpt>
      <trkpt lat="47.77153" lon="-3.54094">
        <ele>34.8</ele>
        <time>2021-07-11T07:35:48Z</time>
      </trkpt>
      <trkpt lat="47.77153" lon="-3.54096">
        <ele>34.8</ele>
        <time>2021-07-11T07:35:47Z</time>
      </trkpt>
      <trkpt lat="47.77152" lon="-3.54098">
        <ele>34.8</ele>
        <time>2021-07-11T07:35:46Z</time>
      </trkpt>
      <trkpt lat="47.77152" lon="-3.54101">
        <ele>34.8</ele>
        <time>2021-07-11T07:35:45Z</time>
      </trkpt>
      <trkpt lat="47.77152" lon="-3.54103">
        <ele>34.8</ele>
        <time>2021-07-11T07:35:44Z</time>
      </trkpt>
      <trkpt lat="47.77152" lon="-3.54105">
        <ele>34.8</ele>
        <time>2021-07-11T07:35:43Z</time>
      </trkpt>
      <trkpt lat="47.77152" lon="-3.54107">
        <ele>34.8</ele>
        <time>2021-07-11T07:35:42Z</time>
      </trkpt>
      <trkpt lat="47.77151" lon="-3.54109">
        <ele>34.8</ele>
        <time>2021-07-11T07:35:41Z</time>
      </trkpt>
      <trkpt lat="47.77151" lon="-3.54111">
        <ele>34.8</ele>
        <time>2021-07-11T07:35:40Z</time>
      </trkpt>
      <trkpt lat="47.77151" lon="-3.54113">
        <ele>34.8</ele>
        <time>2021-07-11T07:35:39Z</time>
      </trkpt>
      <trkpt lat="47.77151" lon="-3.54115">
        <ele>34.8</ele>
        <time>2021-07-11T07:35:38Z</time>
      </trkpt>
      <trkpt lat="47.77151" lon="-3.54117">
        <ele>34.8</ele>
        <time>2021-07-11T07:35:37Z</time>
      </trkpt>
      <trkpt lat="47.7715" lon="-3.5412">
        <ele>34.9</ele>
        <time>2021-07-11T07:35:36Z</time>
      </trkpt>
      <trkpt lat="47.7715" lon="-3.54122">
        <ele>34.9</ele>
        <time>2021-07-11T07:35:35Z</time>
      </trkpt>
      <trkpt lat="47.7715" lon="-3.54124">
        <ele>34.9</ele>
        <time>2021-07-11T07:35:34Z</time>
      </trkpt>
      <trkpt lat="47.7715" lon="-3.54126">
        <ele>34.9</ele>
        <time>2021-07-11T07:35:33Z</time>
      </trkpt>
      <trkpt lat="47.7715" lon="-3.54128">
        <ele>34.9</ele>
        <time>2021-07-11T07:35:32Z</time>
      </trkpt>
      <trkpt lat="47.77149" lon="-3.5413">
        <ele>34.9</ele>
        <time>2021-07-11T07:35:31Z</time>
      </trkpt>
      <trkpt lat="47.77149" lon="-3.54132">
        <ele>34.9</ele>
        <time>2021-07-11T07:35:30Z</time>
      </trkpt>
      <trkpt lat="47.77149" lon="-3.54135">
        <ele>34.9</ele>
        <time>2021-07-11T07:35:29Z</time>
      </trkpt>
      <trkpt lat="47.77149" lon="-3.54137">
        <ele>34.9</ele>
        <time>2021-07-11T07:35:28Z</time>
      </trkpt>
      <trkpt lat="47.77149" lon="-3.54139">
        <ele>34.9</ele>
        <time>2021-07-11T07:35:27Z</time>
      </trkpt>
      <trkpt lat="47.77149" lon="-3.54141">
        <ele>34.9</ele>
        <time>2021-07-11T07:35:26Z</time>
      </trkpt>
      <trkpt lat="47.77148" lon="-3.54143">
        <ele>34.9</ele>
        <time>2021-07-11T07:35:25Z</time>
      </trkpt>
      <trkpt lat="47.77148" lon="-3.54145">
        <ele>34.9</ele>
        <time>2021-07-11T07:35:24Z</time>
      </trkpt>
      <trkpt lat="47.77148" lon="-3.54148">
        <ele>34.9</ele>
        <time>2021-07-11T07:35:23Z</time>
      </trkpt>
      <trkpt lat="47.77148" lon="-3.5415">
        <ele>34.9</ele>
        <time>2021-07-11T07:35:22Z</time>
      </trkpt>
      <trkpt lat="47.77148" lon="-3.54152">
        <ele>34.9</ele>
        <time>2021-07-11T07:35:21Z</time>
      </trkpt>
      <trkpt lat="47.77147" lon="-3.54154">
        <ele>34.8</ele>
        <time>2021-07-11T07:35:20Z</time>
      </trkpt>
      <trkpt lat="47.77147" lon="-3.54156">
        <ele>34.8</ele>
        <time>2021-07-11T07:35:19Z</time>
      </trkpt>
      <trkpt lat="47.77147" lon="-3.54159">
        <ele>34.8</ele>
        <time>2021-07-11T07:35:18Z</time>
      </trkpt>
      <trkpt lat="47.77147" lon="-3.54161">
        <ele>34.8</ele>
        <time>2021-07-11T07:35:17Z</time>
      </trkpt>
      <trkpt lat="47.77147" lon="-3.54163">
        <ele>34.8</ele>
        <time>2021-07-11T07:35:16Z</time>
      </trkpt>
      <trkpt lat="47.77147" lon="-3.54165">
        <ele>34.8</ele>
        <time>2021-07-11T07:35:15Z</time>
      </trkpt>
      <trkpt lat="47.77146" lon="-3.54167">
        <ele>34.8</ele>
        <time>2021-07-11T07:35:14Z</time>
      </trkpt>
      <trkpt lat="47.77146" lon="-3.54169">
        <ele>34.8</ele>
        <time>2021-07-11T07:35:13Z</time>
      </trkpt>
      <trkpt lat="47.77146" lon="-3.54172">
        <ele>34.8</ele>
        <time>2021-07-11T07:35:12Z</time>
      </trkpt>
      <trkpt lat="47.77146" lon="-3.54174">
        <ele>34.8</ele>
        <time>2021-07-11T07:35:11Z</time>
      </trkpt>
      <trkpt lat="47.77146" lon="-3.54176">
        <ele>34.8</ele>
        <time>2021-07-11T07:35:10Z</time>
      </trkpt>
      <trkpt lat="47.77145" lon="-3.54178">
        <ele>34.8</ele>
        <time>2021-07-11T07:35:09Z</time>
      </trkpt>
      <trkpt lat="47.77145" lon="-3.5418">
        <ele>34.8</ele>
        <time>2021-07-11T07:35:08Z</time>
      </trkpt>
      <trkpt lat="47.77145" lon="-3.54182">
        <ele>34.8</ele>
        <time>2021-07-11T07:35:07Z</time>
      </trkpt>
      <trkpt lat="47.77145" lon="-3.54184">
        <ele>34.8</ele>
        <time>2021-07-11T07:35:06Z</time>
      </trkpt>
      <trkpt lat="47.77145" lon="-3.54187">
        <ele>34.8</ele>
        <time>2021-07-11T07:35:05Z</time>
      </trkpt>
      <trkpt lat="47.77144" lon="-3.54189">
        <ele>34.8</ele>
        <time>2021-07-11T07:35:04Z</time>
      </trkpt>
      <trkpt lat="47.77144" lon="-3.54191">
        <ele>34.8</ele>
        <time>2021-07-11T07:35:03Z</time>
      </trkpt>
      <trkpt lat="47.77144" lon="-3.54193">
        <ele>34.7</ele>
        <time>2021-07-11T07:35:02Z</time>
      </trkpt>
      <trkpt lat="47.77144" lon="-3.54195">
        <ele>34.7</ele>
        <time>2021-07-11T07:35:01Z</time>
      </trkpt>
      <trkpt lat="47.77144" lon="-3.54197">
        <ele>34.7</ele>
        <time>2021-07-11T07:35:00Z</time>
      </trkpt>
      <trkpt lat="47.77143" lon="-3.54199">
        <ele>34.7</ele>
        <time>2021-07-11T07:34:59Z</time>
      </trkpt>
      <trkpt lat="47.77143" lon="-3.54201">
        <ele>34.7</ele>
        <time>2021-07-11T07:34:58Z</time>
      </trkpt>
      <trkpt lat="47.77143" lon="-3.54204">
        <ele>34.6</ele>
        <time>2021-07-11T07:34:57Z</time>
      </trkpt>
      <trkpt lat="47.77143" lon="-3.54206">
        <ele>34.6</ele>
        <time>2021-07-11T07:34:56Z</time>
      </trkpt>
      <trkpt lat="47.77143" lon="-3.54208">
        <ele>34.6</ele>
        <time>2021-07-11T07:34:55Z</time>
      </trkpt>
      <trkpt lat="47.77142" lon="-3.5421">
        <ele>34.6</ele>
        <time>2021-07-11T07:34:54Z</time>
      </trkpt>
      <trkpt lat="47.77142" lon="-3.54212">
        <ele>34.6</ele>
        <time>2021-07-11T07:34:53Z</time>
      </trkpt>
      <trkpt lat="47.77142" lon="-3.54214">
        <ele>34.5</ele>
        <time>2021-07-11T07:34:52Z</time>
      </trkpt>
      <trkpt lat="47.77142" lon="-3.54216">
        <ele>34.5</ele>
        <time>2021-07-11T07:34:51Z</time>
      </trkpt>
      <trkpt lat="47.77142" lon="-3.54218">
        <ele>34.5</ele>
        <time>2021-07-11T07:34:50Z</time>
      </trkpt>
      <trkpt lat="47.77141" lon="-3.5422">
        <ele>34.5</ele>
        <time>2021-07-11T07:34:49Z</time>
      </trkpt>
      <trkpt lat="47.77141" lon="-3.54222">
        <ele>34.4</ele>
        <time>2021-07-11T07:34:48Z</time>
      </trkpt>
      <trkpt lat="47.77141" lon="-3.54224">
        <ele>34.4</ele>
        <time>2021-07-11T07:34:47Z</time>
      </trkpt>
      <trkpt lat="47.77141" lon="-3.54226">
        <ele>34.4</ele>
        <time>2021-07-11T07:34:46Z</time>
      </trkpt>
      <trkpt lat="47.77141" lon="-3.54228">
        <ele>34.3</ele>
        <time>2021-07-11T07:34:45Z</time>
      </trkpt>
      <trkpt lat="47.7714" lon="-3.5423">
        <ele>34.3</ele>
        <time>2021-07-11T07:34:44Z</time>
      </trkpt>
      <trkpt lat="47.7714" lon="-3.54232">
        <ele>34.3</ele>
        <time>2021-07-11T07:34:43Z</time>
      </trkpt>
      <trkpt lat="47.7714" lon="-3.54234">
        <ele>34.2</ele>
        <time>2021-07-11T07:34:42Z</time>
      </trkpt>
      <trkpt lat="47.7714" lon="-3.54236">
        <ele>34.2</ele>
        <time>2021-07-11T07:34:41Z</time>
      </trkpt>
      <trkpt lat="47.77139" lon="-3.54238">
        <ele>34.2</ele>
        <time>2021-07-11T07:34:40Z</time>
      </trkpt>
      <trkpt lat="47.77139" lon="-3.5424">
        <ele>34.1</ele>
        <time>2021-07-11T07:34:39Z</time>
      </trkpt>
      <trkpt lat="47.77139" lon="-3.54242">
        <ele>34.1</ele>
        <time>2021-07-11T07:34:38Z</time>
      </trkpt>
      <trkpt lat="47.77139" lon="-3.54244">
        <ele>34</ele>
        <time>2021-07-11T07:34:37Z</time>
      </trkpt>
      <trkpt lat="47.77138" lon="-3.54246">
        <ele>34</ele>
        <time>2021-07-11T07:34:36Z</time>
      </trkpt>
      <trkpt lat="47.77138" lon="-3.54247">
        <ele>34</ele>
        <time>2021-07-11T07:34:35Z</time>
      </trkpt>
      <trkpt lat="47.77138" lon="-3.54249">
        <ele>33.9</ele>
        <time>2021-07-11T07:34:34Z</time>
      </trkpt>
      <trkpt lat="47.77138" lon="-3.54251">
        <ele>33.9</ele>
        <time>2021-07-11T07:34:33Z</time>
      </trkpt>
      <trkpt lat="47.77137" lon="-3.54253">
        <ele>33.8</ele>
        <time>2021-07-11T07:34:32Z</time>
      </trkpt>
      <trkpt lat="47.77137" lon="-3.54255">
        <ele>33.8</ele>
        <time>2021-07-11T07:34:31Z</time>
      </trkpt>
      <trkpt lat="47.77137" lon="-3.54257">
        <ele>33.8</ele>
        <time>2021-07-11T07:34:30Z</time>
      </trkpt>
      <trkpt lat="47.77137" lon="-3.54258">
        <ele>33.7</ele>
        <time>2021-07-11T07:34:29Z</time>
      </trkpt>
      <trkpt lat="47.77137" lon="-3.54258">
        <ele>33.7</ele>
        <time>2021-07-11T07:34:29Z</time>
      </trkpt>
    </trkseg>
  </trk>
</gpx>